<?xml version="1.0" encoding="UTF-8" standalone="no" ?>
<gpx xmlns="http://www.topografix.com/GPX/1/1" xmlns:xsi="http://www.w3.org/2001/XMLSchema-instance" xsi:schemaLocation="http://www.topografix.com/GPX/1/1 http://www.topografix.com/GPX/1/1/gpx.xsd" version="1.1" creator="VisuGPX - https://www.visugpx.com">
  <metadata>
    <name>Tunnel du Mortier</name>
  </metadata>
  <trk>
    <name><![CDATA[Tunnel du Mortier]]></name>
    <trkseg>
      <trkpt lat="45.19372" lon="5.71144">
        <ele>203.60000610352</ele>
        <time>2019-08-11T06:23:05.000Z</time>
      </trkpt>
      <trkpt lat="45.19368" lon="5.7115">
        <ele>204</ele>
        <time>2019-08-11T06:23:13.000Z</time>
      </trkpt>
      <trkpt lat="45.19369" lon="5.71162">
        <ele>203.60000610352</ele>
        <time>2019-08-11T06:23:20.000Z</time>
      </trkpt>
      <trkpt lat="45.19371" lon="5.71186">
        <ele>203.60000610352</ele>
        <time>2019-08-11T06:23:24.000Z</time>
      </trkpt>
      <trkpt lat="45.1937" lon="5.71187">
        <ele>203.60000610352</ele>
        <time>2019-08-11T06:23:25.000Z</time>
      </trkpt>
      <trkpt lat="45.19374" lon="5.71195">
        <ele>203.60000610352</ele>
        <time>2019-08-11T06:23:28.000Z</time>
      </trkpt>
      <trkpt lat="45.19375" lon="5.71203">
        <ele>203.80000305176</ele>
        <time>2019-08-11T06:23:33.000Z</time>
      </trkpt>
      <trkpt lat="45.19373" lon="5.71204">
        <ele>204</ele>
        <time>2019-08-11T06:23:41.000Z</time>
      </trkpt>
      <trkpt lat="45.19374" lon="5.71205">
        <ele>203.80000305176</ele>
        <time>2019-08-11T06:23:54.000Z</time>
      </trkpt>
      <trkpt lat="45.19408" lon="5.71207">
        <ele>203.80000305176</ele>
        <time>2019-08-11T06:24:07.000Z</time>
      </trkpt>
      <trkpt lat="45.1939" lon="5.71205">
        <ele>203.80000305176</ele>
        <time>2019-08-11T06:24:12.000Z</time>
      </trkpt>
      <trkpt lat="45.19388" lon="5.71201">
        <ele>204</ele>
        <time>2019-08-11T06:24:15.000Z</time>
      </trkpt>
      <trkpt lat="45.19387" lon="5.71191">
        <ele>203.80000305176</ele>
        <time>2019-08-11T06:24:19.000Z</time>
      </trkpt>
      <trkpt lat="45.1939" lon="5.71185">
        <ele>203.80000305176</ele>
        <time>2019-08-11T06:24:22.000Z</time>
      </trkpt>
      <trkpt lat="45.1939" lon="5.71179">
        <ele>203.80000305176</ele>
        <time>2019-08-11T06:24:25.000Z</time>
      </trkpt>
      <trkpt lat="45.19396" lon="5.71169">
        <ele>203.60000610352</ele>
        <time>2019-08-11T06:24:31.000Z</time>
      </trkpt>
      <trkpt lat="45.1941" lon="5.71155">
        <ele>204</ele>
        <time>2019-08-11T06:24:37.000Z</time>
      </trkpt>
      <trkpt lat="45.19428" lon="5.71144">
        <ele>203.80000305176</ele>
        <time>2019-08-11T06:24:43.000Z</time>
      </trkpt>
      <trkpt lat="45.19445" lon="5.71131">
        <ele>204.19999694824</ele>
        <time>2019-08-11T06:24:49.000Z</time>
      </trkpt>
      <trkpt lat="45.19447" lon="5.71127">
        <ele>204.39999389648</ele>
        <time>2019-08-11T06:24:50.000Z</time>
      </trkpt>
      <trkpt lat="45.19455" lon="5.71096">
        <ele>204.80000305176</ele>
        <time>2019-08-11T06:24:56.000Z</time>
      </trkpt>
      <trkpt lat="45.19461" lon="5.71073">
        <ele>204.39999389648</ele>
        <time>2019-08-11T06:25:02.000Z</time>
      </trkpt>
      <trkpt lat="45.19464" lon="5.71057">
        <ele>204.39999389648</ele>
        <time>2019-08-11T06:25:06.000Z</time>
      </trkpt>
      <trkpt lat="45.19463" lon="5.71043">
        <ele>204.39999389648</ele>
        <time>2019-08-11T06:25:10.000Z</time>
      </trkpt>
      <trkpt lat="45.19455" lon="5.71029">
        <ele>204.60000610352</ele>
        <time>2019-08-11T06:25:15.000Z</time>
      </trkpt>
      <trkpt lat="45.19445" lon="5.71011">
        <ele>204.60000610352</ele>
        <time>2019-08-11T06:25:21.000Z</time>
      </trkpt>
      <trkpt lat="45.19432" lon="5.70991">
        <ele>204.80000305176</ele>
        <time>2019-08-11T06:25:27.000Z</time>
      </trkpt>
      <trkpt lat="45.19425" lon="5.7096">
        <ele>204.80000305176</ele>
        <time>2019-08-11T06:25:34.000Z</time>
      </trkpt>
      <trkpt lat="45.19416" lon="5.70949">
        <ele>204.80000305176</ele>
        <time>2019-08-11T06:25:39.000Z</time>
      </trkpt>
      <trkpt lat="45.19404" lon="5.70938">
        <ele>205</ele>
        <time>2019-08-11T06:25:43.000Z</time>
      </trkpt>
      <trkpt lat="45.19363" lon="5.7091">
        <ele>204.80000305176</ele>
        <time>2019-08-11T06:25:51.000Z</time>
      </trkpt>
      <trkpt lat="45.19343" lon="5.70889">
        <ele>205</ele>
        <time>2019-08-11T06:25:58.000Z</time>
      </trkpt>
      <trkpt lat="45.19328" lon="5.70863">
        <ele>204.60000610352</ele>
        <time>2019-08-11T06:26:05.000Z</time>
      </trkpt>
      <trkpt lat="45.19315" lon="5.70853">
        <ele>204.80000305176</ele>
        <time>2019-08-11T06:26:09.000Z</time>
      </trkpt>
      <trkpt lat="45.19295" lon="5.70832">
        <ele>204.80000305176</ele>
        <time>2019-08-11T06:26:15.000Z</time>
      </trkpt>
      <trkpt lat="45.19283" lon="5.70818">
        <ele>204.60000610352</ele>
        <time>2019-08-11T06:26:19.000Z</time>
      </trkpt>
      <trkpt lat="45.19274" lon="5.70808">
        <ele>205</ele>
        <time>2019-08-11T06:26:22.000Z</time>
      </trkpt>
      <trkpt lat="45.19266" lon="5.70798">
        <ele>205.39999389648</ele>
        <time>2019-08-11T06:26:25.000Z</time>
      </trkpt>
      <trkpt lat="45.19259" lon="5.70789">
        <ele>205.19999694824</ele>
        <time>2019-08-11T06:26:28.000Z</time>
      </trkpt>
      <trkpt lat="45.19253" lon="5.70781">
        <ele>205.19999694824</ele>
        <time>2019-08-11T06:26:30.000Z</time>
      </trkpt>
      <trkpt lat="45.19239" lon="5.70759">
        <ele>205.19999694824</ele>
        <time>2019-08-11T06:26:35.000Z</time>
      </trkpt>
      <trkpt lat="45.19231" lon="5.70738">
        <ele>205.19999694824</ele>
        <time>2019-08-11T06:26:39.000Z</time>
      </trkpt>
      <trkpt lat="45.19213" lon="5.70714">
        <ele>205.80000305176</ele>
        <time>2019-08-11T06:26:46.000Z</time>
      </trkpt>
      <trkpt lat="45.19199" lon="5.70687">
        <ele>205.80000305176</ele>
        <time>2019-08-11T06:26:52.000Z</time>
      </trkpt>
      <trkpt lat="45.19182" lon="5.70658">
        <ele>205.19999694824</ele>
        <time>2019-08-11T06:26:59.000Z</time>
      </trkpt>
      <trkpt lat="45.19167" lon="5.70635">
        <ele>205.19999694824</ele>
        <time>2019-08-11T06:27:05.000Z</time>
      </trkpt>
      <trkpt lat="45.19156" lon="5.70614">
        <ele>205.39999389648</ele>
        <time>2019-08-11T06:27:10.000Z</time>
      </trkpt>
      <trkpt lat="45.19148" lon="5.70597">
        <ele>205.39999389648</ele>
        <time>2019-08-11T06:27:14.000Z</time>
      </trkpt>
      <trkpt lat="45.19134" lon="5.70572">
        <ele>206</ele>
        <time>2019-08-11T06:27:20.000Z</time>
      </trkpt>
      <trkpt lat="45.19119" lon="5.70549">
        <ele>206</ele>
        <time>2019-08-11T06:27:25.000Z</time>
      </trkpt>
      <trkpt lat="45.19104" lon="5.70526">
        <ele>206.39999389648</ele>
        <time>2019-08-11T06:27:31.000Z</time>
      </trkpt>
      <trkpt lat="45.19091" lon="5.70502">
        <ele>206.39999389648</ele>
        <time>2019-08-11T06:27:36.000Z</time>
      </trkpt>
      <trkpt lat="45.19083" lon="5.70479">
        <ele>206.19999694824</ele>
        <time>2019-08-11T06:27:40.000Z</time>
      </trkpt>
      <trkpt lat="45.19078" lon="5.70468">
        <ele>206.39999389648</ele>
        <time>2019-08-11T06:27:42.000Z</time>
      </trkpt>
      <trkpt lat="45.19059" lon="5.70432">
        <ele>206.39999389648</ele>
        <time>2019-08-11T06:27:49.000Z</time>
      </trkpt>
      <trkpt lat="45.19034" lon="5.70395">
        <ele>206.60000610352</ele>
        <time>2019-08-11T06:27:57.000Z</time>
      </trkpt>
      <trkpt lat="45.19025" lon="5.70384">
        <ele>206.80000305176</ele>
        <time>2019-08-11T06:28:00.000Z</time>
      </trkpt>
      <trkpt lat="45.19019" lon="5.70377">
        <ele>207.19999694824</ele>
        <time>2019-08-11T06:28:02.000Z</time>
      </trkpt>
      <trkpt lat="45.19008" lon="5.70364">
        <ele>208.19999694824</ele>
        <time>2019-08-11T06:28:06.000Z</time>
      </trkpt>
      <trkpt lat="45.19001" lon="5.70354">
        <ele>208.80000305176</ele>
        <time>2019-08-11T06:28:09.000Z</time>
      </trkpt>
      <trkpt lat="45.18997" lon="5.70348">
        <ele>209.19999694824</ele>
        <time>2019-08-11T06:28:11.000Z</time>
      </trkpt>
      <trkpt lat="45.18984" lon="5.70332">
        <ele>210.19999694824</ele>
        <time>2019-08-11T06:28:16.000Z</time>
      </trkpt>
      <trkpt lat="45.18982" lon="5.70328">
        <ele>210.39999389648</ele>
        <time>2019-08-11T06:28:17.000Z</time>
      </trkpt>
      <trkpt lat="45.18979" lon="5.70319">
        <ele>210.60000610352</ele>
        <time>2019-08-11T06:28:19.000Z</time>
      </trkpt>
      <trkpt lat="45.18976" lon="5.70305">
        <ele>211.19999694824</ele>
        <time>2019-08-11T06:28:22.000Z</time>
      </trkpt>
      <trkpt lat="45.18975" lon="5.70296">
        <ele>211.60000610352</ele>
        <time>2019-08-11T06:28:24.000Z</time>
      </trkpt>
      <trkpt lat="45.18976" lon="5.70273">
        <ele>212.39999389648</ele>
        <time>2019-08-11T06:28:29.000Z</time>
      </trkpt>
      <trkpt lat="45.18976" lon="5.70263">
        <ele>212.60000610352</ele>
        <time>2019-08-11T06:28:31.000Z</time>
      </trkpt>
      <trkpt lat="45.18976" lon="5.70244">
        <ele>213</ele>
        <time>2019-08-11T06:28:35.000Z</time>
      </trkpt>
      <trkpt lat="45.18977" lon="5.70211">
        <ele>213.19999694824</ele>
        <time>2019-08-11T06:28:42.000Z</time>
      </trkpt>
      <trkpt lat="45.18978" lon="5.70175">
        <ele>213.60000610352</ele>
        <time>2019-08-11T06:28:49.000Z</time>
      </trkpt>
      <trkpt lat="45.18978" lon="5.70158">
        <ele>213.60000610352</ele>
        <time>2019-08-11T06:28:52.000Z</time>
      </trkpt>
      <trkpt lat="45.18979" lon="5.70107">
        <ele>213.19999694824</ele>
        <time>2019-08-11T06:29:01.000Z</time>
      </trkpt>
      <trkpt lat="45.18979" lon="5.70083">
        <ele>212.60000610352</ele>
        <time>2019-08-11T06:29:05.000Z</time>
      </trkpt>
      <trkpt lat="45.18979" lon="5.70072">
        <ele>212.39999389648</ele>
        <time>2019-08-11T06:29:07.000Z</time>
      </trkpt>
      <trkpt lat="45.1898" lon="5.70066">
        <ele>212</ele>
        <time>2019-08-11T06:29:08.000Z</time>
      </trkpt>
      <trkpt lat="45.18989" lon="5.70055">
        <ele>211.39999389648</ele>
        <time>2019-08-11T06:29:11.000Z</time>
      </trkpt>
      <trkpt lat="45.19003" lon="5.70058">
        <ele>210.60000610352</ele>
        <time>2019-08-11T06:29:15.000Z</time>
      </trkpt>
      <trkpt lat="45.19017" lon="5.70065">
        <ele>210</ele>
        <time>2019-08-11T06:29:19.000Z</time>
      </trkpt>
      <trkpt lat="45.19028" lon="5.70068">
        <ele>208.80000305176</ele>
        <time>2019-08-11T06:29:21.000Z</time>
      </trkpt>
      <trkpt lat="45.1904" lon="5.70068">
        <ele>208</ele>
        <time>2019-08-11T06:29:23.000Z</time>
      </trkpt>
      <trkpt lat="45.19045" lon="5.70069">
        <ele>207.80000305176</ele>
        <time>2019-08-11T06:29:24.000Z</time>
      </trkpt>
      <trkpt lat="45.19061" lon="5.70069">
        <ele>207.60000610352</ele>
        <time>2019-08-11T06:29:27.000Z</time>
      </trkpt>
      <trkpt lat="45.19071" lon="5.7007">
        <ele>207.39999389648</ele>
        <time>2019-08-11T06:29:29.000Z</time>
      </trkpt>
      <trkpt lat="45.19076" lon="5.70071">
        <ele>207.60000610352</ele>
        <time>2019-08-11T06:29:30.000Z</time>
      </trkpt>
      <trkpt lat="45.19096" lon="5.70072">
        <ele>207.80000305176</ele>
        <time>2019-08-11T06:29:34.000Z</time>
      </trkpt>
      <trkpt lat="45.19127" lon="5.70074">
        <ele>207.60000610352</ele>
        <time>2019-08-11T06:29:40.000Z</time>
      </trkpt>
      <trkpt lat="45.19165" lon="5.70077">
        <ele>207.39999389648</ele>
        <time>2019-08-11T06:29:47.000Z</time>
      </trkpt>
      <trkpt lat="45.19195" lon="5.7008">
        <ele>207.60000610352</ele>
        <time>2019-08-11T06:29:52.000Z</time>
      </trkpt>
      <trkpt lat="45.19234" lon="5.70083">
        <ele>207.39999389648</ele>
        <time>2019-08-11T06:29:59.000Z</time>
      </trkpt>
      <trkpt lat="45.19245" lon="5.70085">
        <ele>207.39999389648</ele>
        <time>2019-08-11T06:30:01.000Z</time>
      </trkpt>
      <trkpt lat="45.19256" lon="5.70084">
        <ele>207.19999694824</ele>
        <time>2019-08-11T06:30:03.000Z</time>
      </trkpt>
      <trkpt lat="45.19283" lon="5.70076">
        <ele>207.19999694824</ele>
        <time>2019-08-11T06:30:08.000Z</time>
      </trkpt>
      <trkpt lat="45.19309" lon="5.70067">
        <ele>207.80000305176</ele>
        <time>2019-08-11T06:30:13.000Z</time>
      </trkpt>
      <trkpt lat="45.19334" lon="5.70059">
        <ele>208.19999694824</ele>
        <time>2019-08-11T06:30:18.000Z</time>
      </trkpt>
      <trkpt lat="45.19348" lon="5.70054">
        <ele>208.60000610352</ele>
        <time>2019-08-11T06:30:21.000Z</time>
      </trkpt>
      <trkpt lat="45.19372" lon="5.70046">
        <ele>209.19999694824</ele>
        <time>2019-08-11T06:30:26.000Z</time>
      </trkpt>
      <trkpt lat="45.19386" lon="5.70041">
        <ele>209.60000610352</ele>
        <time>2019-08-11T06:30:29.000Z</time>
      </trkpt>
      <trkpt lat="45.19395" lon="5.70038">
        <ele>209.80000305176</ele>
        <time>2019-08-11T06:30:31.000Z</time>
      </trkpt>
      <trkpt lat="45.19404" lon="5.70035">
        <ele>209.80000305176</ele>
        <time>2019-08-11T06:30:33.000Z</time>
      </trkpt>
      <trkpt lat="45.19452" lon="5.70023">
        <ele>209.60000610352</ele>
        <time>2019-08-11T06:30:43.000Z</time>
      </trkpt>
      <trkpt lat="45.19493" lon="5.70009">
        <ele>209.39999389648</ele>
        <time>2019-08-11T06:30:51.000Z</time>
      </trkpt>
      <trkpt lat="45.19544" lon="5.69985">
        <ele>209.39999389648</ele>
        <time>2019-08-11T06:31:01.000Z</time>
      </trkpt>
      <trkpt lat="45.19581" lon="5.69964">
        <ele>209.19999694824</ele>
        <time>2019-08-11T06:31:08.000Z</time>
      </trkpt>
      <trkpt lat="45.19627" lon="5.69929">
        <ele>209</ele>
        <time>2019-08-11T06:31:17.000Z</time>
      </trkpt>
      <trkpt lat="45.19671" lon="5.69886">
        <ele>208.80000305176</ele>
        <time>2019-08-11T06:31:26.000Z</time>
      </trkpt>
      <trkpt lat="45.19714" lon="5.69836">
        <ele>209</ele>
        <time>2019-08-11T06:31:35.000Z</time>
      </trkpt>
      <trkpt lat="45.19719" lon="5.6983">
        <ele>209.19999694824</ele>
        <time>2019-08-11T06:31:36.000Z</time>
      </trkpt>
      <trkpt lat="45.19756" lon="5.69779">
        <ele>209</ele>
        <time>2019-08-11T06:31:44.000Z</time>
      </trkpt>
      <trkpt lat="45.19798" lon="5.69719">
        <ele>208.39999389648</ele>
        <time>2019-08-11T06:31:53.000Z</time>
      </trkpt>
      <trkpt lat="45.19807" lon="5.69707">
        <ele>208.19999694824</ele>
        <time>2019-08-11T06:31:55.000Z</time>
      </trkpt>
      <trkpt lat="45.19826" lon="5.69681">
        <ele>208</ele>
        <time>2019-08-11T06:31:59.000Z</time>
      </trkpt>
      <trkpt lat="45.19863" lon="5.69629">
        <ele>207.60000610352</ele>
        <time>2019-08-11T06:32:07.000Z</time>
      </trkpt>
      <trkpt lat="45.19893" lon="5.69585">
        <ele>207.39999389648</ele>
        <time>2019-08-11T06:32:14.000Z</time>
      </trkpt>
      <trkpt lat="45.19898" lon="5.69579">
        <ele>207.39999389648</ele>
        <time>2019-08-11T06:32:15.000Z</time>
      </trkpt>
      <trkpt lat="45.19938" lon="5.69522">
        <ele>207.19999694824</ele>
        <time>2019-08-11T06:32:24.000Z</time>
      </trkpt>
      <trkpt lat="45.19943" lon="5.69516">
        <ele>207</ele>
        <time>2019-08-11T06:32:25.000Z</time>
      </trkpt>
      <trkpt lat="45.19947" lon="5.6951">
        <ele>207</ele>
        <time>2019-08-11T06:32:26.000Z</time>
      </trkpt>
      <trkpt lat="45.19978" lon="5.69467">
        <ele>207</ele>
        <time>2019-08-11T06:32:33.000Z</time>
      </trkpt>
      <trkpt lat="45.20019" lon="5.69413">
        <ele>207.60000610352</ele>
        <time>2019-08-11T06:32:42.000Z</time>
      </trkpt>
      <trkpt lat="45.20023" lon="5.69407">
        <ele>207.39999389648</ele>
        <time>2019-08-11T06:32:43.000Z</time>
      </trkpt>
      <trkpt lat="45.20059" lon="5.69357">
        <ele>206.60000610352</ele>
        <time>2019-08-11T06:32:51.000Z</time>
      </trkpt>
      <trkpt lat="45.20102" lon="5.69299">
        <ele>206.60000610352</ele>
        <time>2019-08-11T06:33:00.000Z</time>
      </trkpt>
      <trkpt lat="45.20115" lon="5.6928">
        <ele>206.39999389648</ele>
        <time>2019-08-11T06:33:03.000Z</time>
      </trkpt>
      <trkpt lat="45.20156" lon="5.69224">
        <ele>206.39999389648</ele>
        <time>2019-08-11T06:33:12.000Z</time>
      </trkpt>
      <trkpt lat="45.20175" lon="5.69199">
        <ele>206.39999389648</ele>
        <time>2019-08-11T06:33:16.000Z</time>
      </trkpt>
      <trkpt lat="45.20216" lon="5.69143">
        <ele>206.39999389648</ele>
        <time>2019-08-11T06:33:25.000Z</time>
      </trkpt>
      <trkpt lat="45.2023" lon="5.69124">
        <ele>206.39999389648</ele>
        <time>2019-08-11T06:33:28.000Z</time>
      </trkpt>
      <trkpt lat="45.20271" lon="5.69068">
        <ele>206.39999389648</ele>
        <time>2019-08-11T06:33:37.000Z</time>
      </trkpt>
      <trkpt lat="45.20311" lon="5.69012">
        <ele>206</ele>
        <time>2019-08-11T06:33:46.000Z</time>
      </trkpt>
      <trkpt lat="45.20325" lon="5.68994">
        <ele>205.80000305176</ele>
        <time>2019-08-11T06:33:49.000Z</time>
      </trkpt>
      <trkpt lat="45.20365" lon="5.68939">
        <ele>205.60000610352</ele>
        <time>2019-08-11T06:33:58.000Z</time>
      </trkpt>
      <trkpt lat="45.20369" lon="5.68933">
        <ele>205.60000610352</ele>
        <time>2019-08-11T06:33:59.000Z</time>
      </trkpt>
      <trkpt lat="45.20408" lon="5.6888">
        <ele>205.60000610352</ele>
        <time>2019-08-11T06:34:08.000Z</time>
      </trkpt>
      <trkpt lat="45.20417" lon="5.68868">
        <ele>205.39999389648</ele>
        <time>2019-08-11T06:34:10.000Z</time>
      </trkpt>
      <trkpt lat="45.20459" lon="5.6881">
        <ele>205.39999389648</ele>
        <time>2019-08-11T06:34:20.000Z</time>
      </trkpt>
      <trkpt lat="45.205" lon="5.68752">
        <ele>205</ele>
        <time>2019-08-11T06:34:30.000Z</time>
      </trkpt>
      <trkpt lat="45.20537" lon="5.68701">
        <ele>205</ele>
        <time>2019-08-11T06:34:39.000Z</time>
      </trkpt>
      <trkpt lat="45.20565" lon="5.68662">
        <ele>205</ele>
        <time>2019-08-11T06:34:46.000Z</time>
      </trkpt>
      <trkpt lat="45.2059" lon="5.68628">
        <ele>205.19999694824</ele>
        <time>2019-08-11T06:34:52.000Z</time>
      </trkpt>
      <trkpt lat="45.20595" lon="5.68622">
        <ele>205</ele>
        <time>2019-08-11T06:34:53.000Z</time>
      </trkpt>
      <trkpt lat="45.20603" lon="5.68611">
        <ele>204.80000305176</ele>
        <time>2019-08-11T06:34:55.000Z</time>
      </trkpt>
      <trkpt lat="45.20607" lon="5.68606">
        <ele>204.80000305176</ele>
        <time>2019-08-11T06:34:56.000Z</time>
      </trkpt>
      <trkpt lat="45.20616" lon="5.68595">
        <ele>205</ele>
        <time>2019-08-11T06:34:58.000Z</time>
      </trkpt>
      <trkpt lat="45.20636" lon="5.68566">
        <ele>205</ele>
        <time>2019-08-11T06:35:03.000Z</time>
      </trkpt>
      <trkpt lat="45.20657" lon="5.68537">
        <ele>204.80000305176</ele>
        <time>2019-08-11T06:35:08.000Z</time>
      </trkpt>
      <trkpt lat="45.20661" lon="5.68531">
        <ele>204.80000305176</ele>
        <time>2019-08-11T06:35:09.000Z</time>
      </trkpt>
      <trkpt lat="45.20665" lon="5.68525">
        <ele>204.80000305176</ele>
        <time>2019-08-11T06:35:10.000Z</time>
      </trkpt>
      <trkpt lat="45.20681" lon="5.68501">
        <ele>204.80000305176</ele>
        <time>2019-08-11T06:35:14.000Z</time>
      </trkpt>
      <trkpt lat="45.20689" lon="5.6849">
        <ele>204.80000305176</ele>
        <time>2019-08-11T06:35:16.000Z</time>
      </trkpt>
      <trkpt lat="45.20701" lon="5.68472">
        <ele>204.60000610352</ele>
        <time>2019-08-11T06:35:19.000Z</time>
      </trkpt>
      <trkpt lat="45.20719" lon="5.6845">
        <ele>204.60000610352</ele>
        <time>2019-08-11T06:35:23.000Z</time>
      </trkpt>
      <trkpt lat="45.20741" lon="5.68424">
        <ele>204.60000610352</ele>
        <time>2019-08-11T06:35:28.000Z</time>
      </trkpt>
      <trkpt lat="45.20746" lon="5.68418">
        <ele>204.39999389648</ele>
        <time>2019-08-11T06:35:29.000Z</time>
      </trkpt>
      <trkpt lat="45.20761" lon="5.68398">
        <ele>203.60000610352</ele>
        <time>2019-08-11T06:35:32.000Z</time>
      </trkpt>
      <trkpt lat="45.20777" lon="5.68378">
        <ele>202.39999389648</ele>
        <time>2019-08-11T06:35:35.000Z</time>
      </trkpt>
      <trkpt lat="45.20783" lon="5.68372">
        <ele>202.19999694824</ele>
        <time>2019-08-11T06:35:36.000Z</time>
      </trkpt>
      <trkpt lat="45.20792" lon="5.68357">
        <ele>201.80000305176</ele>
        <time>2019-08-11T06:35:38.000Z</time>
      </trkpt>
      <trkpt lat="45.20812" lon="5.68325">
        <ele>202.60000610352</ele>
        <time>2019-08-11T06:35:43.000Z</time>
      </trkpt>
      <trkpt lat="45.20822" lon="5.68308">
        <ele>203.60000610352</ele>
        <time>2019-08-11T06:35:46.000Z</time>
      </trkpt>
      <trkpt lat="45.20837" lon="5.68288">
        <ele>204</ele>
        <time>2019-08-11T06:35:50.000Z</time>
      </trkpt>
      <trkpt lat="45.2084" lon="5.68283">
        <ele>204.19999694824</ele>
        <time>2019-08-11T06:35:51.000Z</time>
      </trkpt>
      <trkpt lat="45.20859" lon="5.68258">
        <ele>204.39999389648</ele>
        <time>2019-08-11T06:35:56.000Z</time>
      </trkpt>
      <trkpt lat="45.20878" lon="5.68232">
        <ele>204</ele>
        <time>2019-08-11T06:36:01.000Z</time>
      </trkpt>
      <trkpt lat="45.20896" lon="5.68208">
        <ele>204</ele>
        <time>2019-08-11T06:36:06.000Z</time>
      </trkpt>
      <trkpt lat="45.20917" lon="5.6818">
        <ele>204</ele>
        <time>2019-08-11T06:36:12.000Z</time>
      </trkpt>
      <trkpt lat="45.2093" lon="5.68161">
        <ele>203.80000305176</ele>
        <time>2019-08-11T06:36:16.000Z</time>
      </trkpt>
      <trkpt lat="45.20934" lon="5.68156">
        <ele>203.80000305176</ele>
        <time>2019-08-11T06:36:17.000Z</time>
      </trkpt>
      <trkpt lat="45.20949" lon="5.68136">
        <ele>204</ele>
        <time>2019-08-11T06:36:21.000Z</time>
      </trkpt>
      <trkpt lat="45.20953" lon="5.68131">
        <ele>204</ele>
        <time>2019-08-11T06:36:22.000Z</time>
      </trkpt>
      <trkpt lat="45.20972" lon="5.68106">
        <ele>204.19999694824</ele>
        <time>2019-08-11T06:36:27.000Z</time>
      </trkpt>
      <trkpt lat="45.20991" lon="5.68079">
        <ele>204.19999694824</ele>
        <time>2019-08-11T06:36:32.000Z</time>
      </trkpt>
      <trkpt lat="45.20995" lon="5.68073">
        <ele>204.39999389648</ele>
        <time>2019-08-11T06:36:33.000Z</time>
      </trkpt>
      <trkpt lat="45.21002" lon="5.68063">
        <ele>204.39999389648</ele>
        <time>2019-08-11T06:36:35.000Z</time>
      </trkpt>
      <trkpt lat="45.2101" lon="5.68052">
        <ele>204.60000610352</ele>
        <time>2019-08-11T06:36:37.000Z</time>
      </trkpt>
      <trkpt lat="45.21026" lon="5.68031">
        <ele>204.39999389648</ele>
        <time>2019-08-11T06:36:41.000Z</time>
      </trkpt>
      <trkpt lat="45.21033" lon="5.6802">
        <ele>204.19999694824</ele>
        <time>2019-08-11T06:36:43.000Z</time>
      </trkpt>
      <trkpt lat="45.2104" lon="5.6801">
        <ele>204</ele>
        <time>2019-08-11T06:36:45.000Z</time>
      </trkpt>
      <trkpt lat="45.21059" lon="5.67983">
        <ele>204</ele>
        <time>2019-08-11T06:36:50.000Z</time>
      </trkpt>
      <trkpt lat="45.21063" lon="5.67978">
        <ele>204</ele>
        <time>2019-08-11T06:36:51.000Z</time>
      </trkpt>
      <trkpt lat="45.21076" lon="5.6796">
        <ele>204</ele>
        <time>2019-08-11T06:36:54.000Z</time>
      </trkpt>
      <trkpt lat="45.21095" lon="5.67933">
        <ele>204.19999694824</ele>
        <time>2019-08-11T06:36:59.000Z</time>
      </trkpt>
      <trkpt lat="45.21099" lon="5.67928">
        <ele>204.19999694824</ele>
        <time>2019-08-11T06:37:00.000Z</time>
      </trkpt>
      <trkpt lat="45.21128" lon="5.67889">
        <ele>203.80000305176</ele>
        <time>2019-08-11T06:37:07.000Z</time>
      </trkpt>
      <trkpt lat="45.21131" lon="5.67884">
        <ele>203.80000305176</ele>
        <time>2019-08-11T06:37:08.000Z</time>
      </trkpt>
      <trkpt lat="45.21147" lon="5.67863">
        <ele>203.80000305176</ele>
        <time>2019-08-11T06:37:12.000Z</time>
      </trkpt>
      <trkpt lat="45.21157" lon="5.67848">
        <ele>203.80000305176</ele>
        <time>2019-08-11T06:37:15.000Z</time>
      </trkpt>
      <trkpt lat="45.21164" lon="5.67837">
        <ele>203.60000610352</ele>
        <time>2019-08-11T06:37:17.000Z</time>
      </trkpt>
      <trkpt lat="45.21187" lon="5.67807">
        <ele>203.80000305176</ele>
        <time>2019-08-11T06:37:23.000Z</time>
      </trkpt>
      <trkpt lat="45.21202" lon="5.67786">
        <ele>204</ele>
        <time>2019-08-11T06:37:27.000Z</time>
      </trkpt>
      <trkpt lat="45.21225" lon="5.67755">
        <ele>203.80000305176</ele>
        <time>2019-08-11T06:37:33.000Z</time>
      </trkpt>
      <trkpt lat="45.21244" lon="5.67728">
        <ele>203.60000610352</ele>
        <time>2019-08-11T06:37:38.000Z</time>
      </trkpt>
      <trkpt lat="45.21268" lon="5.67695">
        <ele>204</ele>
        <time>2019-08-11T06:37:44.000Z</time>
      </trkpt>
      <trkpt lat="45.21287" lon="5.67667">
        <ele>204</ele>
        <time>2019-08-11T06:37:49.000Z</time>
      </trkpt>
      <trkpt lat="45.21291" lon="5.67662">
        <ele>203.80000305176</ele>
        <time>2019-08-11T06:37:50.000Z</time>
      </trkpt>
      <trkpt lat="45.21302" lon="5.67647">
        <ele>203.80000305176</ele>
        <time>2019-08-11T06:37:53.000Z</time>
      </trkpt>
      <trkpt lat="45.21325" lon="5.67616">
        <ele>203.60000610352</ele>
        <time>2019-08-11T06:37:59.000Z</time>
      </trkpt>
      <trkpt lat="45.21346" lon="5.67587">
        <ele>203.60000610352</ele>
        <time>2019-08-11T06:38:04.000Z</time>
      </trkpt>
      <trkpt lat="45.21366" lon="5.67561">
        <ele>203.60000610352</ele>
        <time>2019-08-11T06:38:09.000Z</time>
      </trkpt>
      <trkpt lat="45.2137" lon="5.67555">
        <ele>203.80000305176</ele>
        <time>2019-08-11T06:38:10.000Z</time>
      </trkpt>
      <trkpt lat="45.21387" lon="5.67532">
        <ele>203.39999389648</ele>
        <time>2019-08-11T06:38:14.000Z</time>
      </trkpt>
      <trkpt lat="45.21395" lon="5.67521">
        <ele>203.60000610352</ele>
        <time>2019-08-11T06:38:16.000Z</time>
      </trkpt>
      <trkpt lat="45.21403" lon="5.67511">
        <ele>203.60000610352</ele>
        <time>2019-08-11T06:38:18.000Z</time>
      </trkpt>
      <trkpt lat="45.21419" lon="5.67489">
        <ele>203.80000305176</ele>
        <time>2019-08-11T06:38:22.000Z</time>
      </trkpt>
      <trkpt lat="45.21423" lon="5.67484">
        <ele>203.80000305176</ele>
        <time>2019-08-11T06:38:23.000Z</time>
      </trkpt>
      <trkpt lat="45.21435" lon="5.67467">
        <ele>203.80000305176</ele>
        <time>2019-08-11T06:38:26.000Z</time>
      </trkpt>
      <trkpt lat="45.21443" lon="5.67457">
        <ele>203.60000610352</ele>
        <time>2019-08-11T06:38:28.000Z</time>
      </trkpt>
      <trkpt lat="45.21447" lon="5.67452">
        <ele>203.60000610352</ele>
        <time>2019-08-11T06:38:29.000Z</time>
      </trkpt>
      <trkpt lat="45.21458" lon="5.67437">
        <ele>203.60000610352</ele>
        <time>2019-08-11T06:38:32.000Z</time>
      </trkpt>
      <trkpt lat="45.21461" lon="5.67432">
        <ele>203.60000610352</ele>
        <time>2019-08-11T06:38:33.000Z</time>
      </trkpt>
      <trkpt lat="45.21472" lon="5.6742">
        <ele>203.60000610352</ele>
        <time>2019-08-11T06:38:36.000Z</time>
      </trkpt>
      <trkpt lat="45.21475" lon="5.67415">
        <ele>203.60000610352</ele>
        <time>2019-08-11T06:38:37.000Z</time>
      </trkpt>
      <trkpt lat="45.21486" lon="5.67399">
        <ele>203.60000610352</ele>
        <time>2019-08-11T06:38:40.000Z</time>
      </trkpt>
      <trkpt lat="45.21514" lon="5.67362">
        <ele>203.39999389648</ele>
        <time>2019-08-11T06:38:47.000Z</time>
      </trkpt>
      <trkpt lat="45.2153" lon="5.67339">
        <ele>203.60000610352</ele>
        <time>2019-08-11T06:38:51.000Z</time>
      </trkpt>
      <trkpt lat="45.21537" lon="5.67328">
        <ele>203.39999389648</ele>
        <time>2019-08-11T06:38:53.000Z</time>
      </trkpt>
      <trkpt lat="45.21552" lon="5.67308">
        <ele>203.39999389648</ele>
        <time>2019-08-11T06:38:57.000Z</time>
      </trkpt>
      <trkpt lat="45.21569" lon="5.67286">
        <ele>203.39999389648</ele>
        <time>2019-08-11T06:39:02.000Z</time>
      </trkpt>
      <trkpt lat="45.21589" lon="5.67256">
        <ele>203.19999694824</ele>
        <time>2019-08-11T06:39:09.000Z</time>
      </trkpt>
      <trkpt lat="45.2159" lon="5.67251">
        <ele>203.19999694824</ele>
        <time>2019-08-11T06:39:10.000Z</time>
      </trkpt>
      <trkpt lat="45.21587" lon="5.67239">
        <ele>203.19999694824</ele>
        <time>2019-08-11T06:39:12.000Z</time>
      </trkpt>
      <trkpt lat="45.21576" lon="5.67221">
        <ele>203.19999694824</ele>
        <time>2019-08-11T06:39:15.000Z</time>
      </trkpt>
      <trkpt lat="45.21571" lon="5.67214">
        <ele>202.80000305176</ele>
        <time>2019-08-11T06:39:16.000Z</time>
      </trkpt>
      <trkpt lat="45.21565" lon="5.67207">
        <ele>202.19999694824</ele>
        <time>2019-08-11T06:39:17.000Z</time>
      </trkpt>
      <trkpt lat="45.21559" lon="5.67202">
        <ele>201.39999389648</ele>
        <time>2019-08-11T06:39:18.000Z</time>
      </trkpt>
      <trkpt lat="45.21553" lon="5.67199">
        <ele>200.60000610352</ele>
        <time>2019-08-11T06:39:19.000Z</time>
      </trkpt>
      <trkpt lat="45.21547" lon="5.67196">
        <ele>200</ele>
        <time>2019-08-11T06:39:20.000Z</time>
      </trkpt>
      <trkpt lat="45.21541" lon="5.67199">
        <ele>199.39999389648</ele>
        <time>2019-08-11T06:39:21.000Z</time>
      </trkpt>
      <trkpt lat="45.21535" lon="5.67202">
        <ele>199.39999389648</ele>
        <time>2019-08-11T06:39:22.000Z</time>
      </trkpt>
      <trkpt lat="45.21514" lon="5.67212">
        <ele>199.19999694824</ele>
        <time>2019-08-11T06:39:26.000Z</time>
      </trkpt>
      <trkpt lat="45.21509" lon="5.67214">
        <ele>199.19999694824</ele>
        <time>2019-08-11T06:39:27.000Z</time>
      </trkpt>
      <trkpt lat="45.21489" lon="5.67224">
        <ele>199.39999389648</ele>
        <time>2019-08-11T06:39:31.000Z</time>
      </trkpt>
      <trkpt lat="45.21473" lon="5.67231">
        <ele>199.39999389648</ele>
        <time>2019-08-11T06:39:34.000Z</time>
      </trkpt>
      <trkpt lat="45.21468" lon="5.67232">
        <ele>199.39999389648</ele>
        <time>2019-08-11T06:39:35.000Z</time>
      </trkpt>
      <trkpt lat="45.21462" lon="5.67232">
        <ele>199.39999389648</ele>
        <time>2019-08-11T06:39:36.000Z</time>
      </trkpt>
      <trkpt lat="45.21435" lon="5.67229">
        <ele>198.80000305176</ele>
        <time>2019-08-11T06:39:41.000Z</time>
      </trkpt>
      <trkpt lat="45.21419" lon="5.67227">
        <ele>198.80000305176</ele>
        <time>2019-08-11T06:39:44.000Z</time>
      </trkpt>
      <trkpt lat="45.21415" lon="5.67226">
        <ele>198.60000610352</ele>
        <time>2019-08-11T06:39:45.000Z</time>
      </trkpt>
      <trkpt lat="45.2141" lon="5.67216">
        <ele>198.60000610352</ele>
        <time>2019-08-11T06:39:47.000Z</time>
      </trkpt>
      <trkpt lat="45.21403" lon="5.67172">
        <ele>199</ele>
        <time>2019-08-11T06:39:54.000Z</time>
      </trkpt>
      <trkpt lat="45.21396" lon="5.67125">
        <ele>199</ele>
        <time>2019-08-11T06:40:01.000Z</time>
      </trkpt>
      <trkpt lat="45.21395" lon="5.67118">
        <ele>199</ele>
        <time>2019-08-11T06:40:02.000Z</time>
      </trkpt>
      <trkpt lat="45.21392" lon="5.67098">
        <ele>199</ele>
        <time>2019-08-11T06:40:05.000Z</time>
      </trkpt>
      <trkpt lat="45.21388" lon="5.67077">
        <ele>199</ele>
        <time>2019-08-11T06:40:08.000Z</time>
      </trkpt>
      <trkpt lat="45.21382" lon="5.67037">
        <ele>199</ele>
        <time>2019-08-11T06:40:14.000Z</time>
      </trkpt>
      <trkpt lat="45.21376" lon="5.67005">
        <ele>199.19999694824</ele>
        <time>2019-08-11T06:40:19.000Z</time>
      </trkpt>
      <trkpt lat="45.21375" lon="5.66999">
        <ele>199.19999694824</ele>
        <time>2019-08-11T06:40:20.000Z</time>
      </trkpt>
      <trkpt lat="45.21367" lon="5.66959">
        <ele>199</ele>
        <time>2019-08-11T06:40:26.000Z</time>
      </trkpt>
      <trkpt lat="45.21366" lon="5.66952">
        <ele>199</ele>
        <time>2019-08-11T06:40:27.000Z</time>
      </trkpt>
      <trkpt lat="45.21364" lon="5.66932">
        <ele>199.19999694824</ele>
        <time>2019-08-11T06:40:30.000Z</time>
      </trkpt>
      <trkpt lat="45.2136" lon="5.66913">
        <ele>199.39999389648</ele>
        <time>2019-08-11T06:40:33.000Z</time>
      </trkpt>
      <trkpt lat="45.21359" lon="5.66907">
        <ele>199.39999389648</ele>
        <time>2019-08-11T06:40:34.000Z</time>
      </trkpt>
      <trkpt lat="45.21356" lon="5.66881">
        <ele>199.60000610352</ele>
        <time>2019-08-11T06:40:38.000Z</time>
      </trkpt>
      <trkpt lat="45.21349" lon="5.6684">
        <ele>199.80000305176</ele>
        <time>2019-08-11T06:40:45.000Z</time>
      </trkpt>
      <trkpt lat="45.21347" lon="5.66827">
        <ele>199.80000305176</ele>
        <time>2019-08-11T06:40:47.000Z</time>
      </trkpt>
      <trkpt lat="45.21343" lon="5.66809">
        <ele>199.80000305176</ele>
        <time>2019-08-11T06:40:50.000Z</time>
      </trkpt>
      <trkpt lat="45.21341" lon="5.66804">
        <ele>199.80000305176</ele>
        <time>2019-08-11T06:40:51.000Z</time>
      </trkpt>
      <trkpt lat="45.21332" lon="5.66789">
        <ele>199.80000305176</ele>
        <time>2019-08-11T06:40:54.000Z</time>
      </trkpt>
      <trkpt lat="45.21328" lon="5.66786">
        <ele>199.80000305176</ele>
        <time>2019-08-11T06:40:55.000Z</time>
      </trkpt>
      <trkpt lat="45.21325" lon="5.66782">
        <ele>199.80000305176</ele>
        <time>2019-08-11T06:40:56.000Z</time>
      </trkpt>
      <trkpt lat="45.21324" lon="5.66769">
        <ele>199.80000305176</ele>
        <time>2019-08-11T06:40:58.000Z</time>
      </trkpt>
      <trkpt lat="45.2133" lon="5.66756">
        <ele>199.39999389648</ele>
        <time>2019-08-11T06:41:00.000Z</time>
      </trkpt>
      <trkpt lat="45.21332" lon="5.66748">
        <ele>199.19999694824</ele>
        <time>2019-08-11T06:41:01.000Z</time>
      </trkpt>
      <trkpt lat="45.21336" lon="5.66709">
        <ele>199.80000305176</ele>
        <time>2019-08-11T06:41:07.000Z</time>
      </trkpt>
      <trkpt lat="45.21341" lon="5.66675">
        <ele>200.80000305176</ele>
        <time>2019-08-11T06:41:13.000Z</time>
      </trkpt>
      <trkpt lat="45.21343" lon="5.66671">
        <ele>201</ele>
        <time>2019-08-11T06:41:14.000Z</time>
      </trkpt>
      <trkpt lat="45.21352" lon="5.66664">
        <ele>201.19999694824</ele>
        <time>2019-08-11T06:41:17.000Z</time>
      </trkpt>
      <trkpt lat="45.21362" lon="5.66652">
        <ele>201</ele>
        <time>2019-08-11T06:41:21.000Z</time>
      </trkpt>
      <trkpt lat="45.2136" lon="5.66648">
        <ele>201</ele>
        <time>2019-08-11T06:41:22.000Z</time>
      </trkpt>
      <trkpt lat="45.21351" lon="5.66629">
        <ele>201</ele>
        <time>2019-08-11T06:41:26.000Z</time>
      </trkpt>
      <trkpt lat="45.21349" lon="5.66623">
        <ele>201</ele>
        <time>2019-08-11T06:41:27.000Z</time>
      </trkpt>
      <trkpt lat="45.21332" lon="5.66582">
        <ele>201</ele>
        <time>2019-08-11T06:41:34.000Z</time>
      </trkpt>
      <trkpt lat="45.21315" lon="5.66542">
        <ele>201.19999694824</ele>
        <time>2019-08-11T06:41:41.000Z</time>
      </trkpt>
      <trkpt lat="45.21313" lon="5.66537">
        <ele>201.19999694824</ele>
        <time>2019-08-11T06:41:42.000Z</time>
      </trkpt>
      <trkpt lat="45.21303" lon="5.66513">
        <ele>201.39999389648</ele>
        <time>2019-08-11T06:41:46.000Z</time>
      </trkpt>
      <trkpt lat="45.21293" lon="5.6649">
        <ele>201.80000305176</ele>
        <time>2019-08-11T06:41:50.000Z</time>
      </trkpt>
      <trkpt lat="45.21286" lon="5.66474">
        <ele>201.60000610352</ele>
        <time>2019-08-11T06:41:53.000Z</time>
      </trkpt>
      <trkpt lat="45.21278" lon="5.66458">
        <ele>201.19999694824</ele>
        <time>2019-08-11T06:41:56.000Z</time>
      </trkpt>
      <trkpt lat="45.21272" lon="5.66441">
        <ele>201.19999694824</ele>
        <time>2019-08-11T06:41:59.000Z</time>
      </trkpt>
      <trkpt lat="45.2125" lon="5.66394">
        <ele>201.60000610352</ele>
        <time>2019-08-11T06:42:08.000Z</time>
      </trkpt>
      <trkpt lat="45.21226" lon="5.66349">
        <ele>202</ele>
        <time>2019-08-11T06:42:17.000Z</time>
      </trkpt>
      <trkpt lat="45.21202" lon="5.66306">
        <ele>202</ele>
        <time>2019-08-11T06:42:26.000Z</time>
      </trkpt>
      <trkpt lat="45.21192" lon="5.66287">
        <ele>202.80000305176</ele>
        <time>2019-08-11T06:42:31.000Z</time>
      </trkpt>
      <trkpt lat="45.21191" lon="5.66284">
        <ele>203</ele>
        <time>2019-08-11T06:42:32.000Z</time>
      </trkpt>
      <trkpt lat="45.21186" lon="5.6627">
        <ele>203</ele>
        <time>2019-08-11T06:42:36.000Z</time>
      </trkpt>
      <trkpt lat="45.21183" lon="5.6626">
        <ele>202.60000610352</ele>
        <time>2019-08-11T06:42:38.000Z</time>
      </trkpt>
      <trkpt lat="45.21187" lon="5.6625">
        <ele>202.19999694824</ele>
        <time>2019-08-11T06:42:40.000Z</time>
      </trkpt>
      <trkpt lat="45.21192" lon="5.66247">
        <ele>201.80000305176</ele>
        <time>2019-08-11T06:42:41.000Z</time>
      </trkpt>
      <trkpt lat="45.21202" lon="5.66244">
        <ele>201</ele>
        <time>2019-08-11T06:42:43.000Z</time>
      </trkpt>
      <trkpt lat="45.21214" lon="5.66242">
        <ele>200.60000610352</ele>
        <time>2019-08-11T06:42:45.000Z</time>
      </trkpt>
      <trkpt lat="45.21219" lon="5.66241">
        <ele>200.39999389648</ele>
        <time>2019-08-11T06:42:46.000Z</time>
      </trkpt>
      <trkpt lat="45.2123" lon="5.66238">
        <ele>200.19999694824</ele>
        <time>2019-08-11T06:42:48.000Z</time>
      </trkpt>
      <trkpt lat="45.21252" lon="5.66234">
        <ele>199.60000610352</ele>
        <time>2019-08-11T06:42:52.000Z</time>
      </trkpt>
      <trkpt lat="45.21263" lon="5.66232">
        <ele>199.39999389648</ele>
        <time>2019-08-11T06:42:54.000Z</time>
      </trkpt>
      <trkpt lat="45.21268" lon="5.6623">
        <ele>199.39999389648</ele>
        <time>2019-08-11T06:42:55.000Z</time>
      </trkpt>
      <trkpt lat="45.21273" lon="5.66229">
        <ele>199.39999389648</ele>
        <time>2019-08-11T06:42:56.000Z</time>
      </trkpt>
      <trkpt lat="45.21304" lon="5.66223">
        <ele>199</ele>
        <time>2019-08-11T06:43:02.000Z</time>
      </trkpt>
      <trkpt lat="45.21331" lon="5.66217">
        <ele>198.80000305176</ele>
        <time>2019-08-11T06:43:08.000Z</time>
      </trkpt>
      <trkpt lat="45.21335" lon="5.66214">
        <ele>198.39999389648</ele>
        <time>2019-08-11T06:43:09.000Z</time>
      </trkpt>
      <trkpt lat="45.21338" lon="5.66205">
        <ele>198.60000610352</ele>
        <time>2019-08-11T06:43:11.000Z</time>
      </trkpt>
      <trkpt lat="45.21336" lon="5.66194">
        <ele>198.60000610352</ele>
        <time>2019-08-11T06:43:13.000Z</time>
      </trkpt>
      <trkpt lat="45.21334" lon="5.66184">
        <ele>198.80000305176</ele>
        <time>2019-08-11T06:43:15.000Z</time>
      </trkpt>
      <trkpt lat="45.21333" lon="5.6617">
        <ele>199</ele>
        <time>2019-08-11T06:43:18.000Z</time>
      </trkpt>
      <trkpt lat="45.21335" lon="5.66167">
        <ele>199</ele>
        <time>2019-08-11T06:43:19.000Z</time>
      </trkpt>
      <trkpt lat="45.21343" lon="5.66157">
        <ele>199</ele>
        <time>2019-08-11T06:43:22.000Z</time>
      </trkpt>
      <trkpt lat="45.21347" lon="5.66151">
        <ele>199.19999694824</ele>
        <time>2019-08-11T06:43:24.000Z</time>
      </trkpt>
      <trkpt lat="45.2135" lon="5.66137">
        <ele>199.19999694824</ele>
        <time>2019-08-11T06:43:28.000Z</time>
      </trkpt>
      <trkpt lat="45.2135" lon="5.6613">
        <ele>199.39999389648</ele>
        <time>2019-08-11T06:43:31.000Z</time>
      </trkpt>
      <trkpt lat="45.21351" lon="5.66126">
        <ele>199.39999389648</ele>
        <time>2019-08-11T06:43:32.000Z</time>
      </trkpt>
      <trkpt lat="45.21346" lon="5.66114">
        <ele>199.39999389648</ele>
        <time>2019-08-11T06:43:35.000Z</time>
      </trkpt>
      <trkpt lat="45.21343" lon="5.66109">
        <ele>199.19999694824</ele>
        <time>2019-08-11T06:43:36.000Z</time>
      </trkpt>
      <trkpt lat="45.21344" lon="5.66099">
        <ele>199.39999389648</ele>
        <time>2019-08-11T06:43:38.000Z</time>
      </trkpt>
      <trkpt lat="45.21353" lon="5.66095">
        <ele>199.19999694824</ele>
        <time>2019-08-11T06:43:41.000Z</time>
      </trkpt>
      <trkpt lat="45.21363" lon="5.66096">
        <ele>198.60000610352</ele>
        <time>2019-08-11T06:43:45.000Z</time>
      </trkpt>
      <trkpt lat="45.21363" lon="5.66098">
        <ele>198.39999389648</ele>
        <time>2019-08-11T06:43:49.000Z</time>
      </trkpt>
      <trkpt lat="45.21363" lon="5.66098">
        <ele>198.39999389648</ele>
        <time>2019-08-11T06:43:50.000Z</time>
      </trkpt>
      <trkpt lat="45.21363" lon="5.66098">
        <ele>198.60000610352</ele>
        <time>2019-08-11T06:43:55.000Z</time>
      </trkpt>
      <trkpt lat="45.21363" lon="5.66098">
        <ele>198.39999389648</ele>
        <time>2019-08-11T06:44:11.000Z</time>
      </trkpt>
      <trkpt lat="45.21363" lon="5.66099">
        <ele>198.60000610352</ele>
        <time>2019-08-11T06:44:28.000Z</time>
      </trkpt>
      <trkpt lat="45.21363" lon="5.66099">
        <ele>198.60000610352</ele>
        <time>2019-08-11T06:45:17.000Z</time>
      </trkpt>
      <trkpt lat="45.21363" lon="5.66099">
        <ele>198.80000305176</ele>
        <time>2019-08-11T06:45:48.000Z</time>
      </trkpt>
      <trkpt lat="45.21363" lon="5.66099">
        <ele>198.60000610352</ele>
        <time>2019-08-11T06:46:08.000Z</time>
      </trkpt>
      <trkpt lat="45.21362" lon="5.661">
        <ele>198.80000305176</ele>
        <time>2019-08-11T06:47:21.000Z</time>
      </trkpt>
      <trkpt lat="45.21363" lon="5.66099">
        <ele>199</ele>
        <time>2019-08-11T06:48:27.000Z</time>
      </trkpt>
      <trkpt lat="45.21362" lon="5.66099">
        <ele>199</ele>
        <time>2019-08-11T06:48:29.000Z</time>
      </trkpt>
      <trkpt lat="45.21363" lon="5.66098">
        <ele>199</ele>
        <time>2019-08-11T06:48:46.000Z</time>
      </trkpt>
      <trkpt lat="45.21363" lon="5.66098">
        <ele>199</ele>
        <time>2019-08-11T06:49:22.000Z</time>
      </trkpt>
      <trkpt lat="45.21363" lon="5.66098">
        <ele>199.19999694824</ele>
        <time>2019-08-11T06:49:39.000Z</time>
      </trkpt>
      <trkpt lat="45.21364" lon="5.66098">
        <ele>199</ele>
        <time>2019-08-11T06:50:18.000Z</time>
      </trkpt>
      <trkpt lat="45.21364" lon="5.66099">
        <ele>199</ele>
        <time>2019-08-11T06:50:35.000Z</time>
      </trkpt>
      <trkpt lat="45.21364" lon="5.66099">
        <ele>199.19999694824</ele>
        <time>2019-08-11T06:51:03.000Z</time>
      </trkpt>
      <trkpt lat="45.21364" lon="5.661">
        <ele>199.19999694824</ele>
        <time>2019-08-11T06:51:59.000Z</time>
      </trkpt>
      <trkpt lat="45.21364" lon="5.661">
        <ele>199.19999694824</ele>
        <time>2019-08-11T06:52:25.000Z</time>
      </trkpt>
      <trkpt lat="45.21364" lon="5.66099">
        <ele>199.19999694824</ele>
        <time>2019-08-11T06:52:46.000Z</time>
      </trkpt>
      <trkpt lat="45.21365" lon="5.661">
        <ele>208.80000305176</ele>
        <time>2019-08-11T06:53:23.000Z</time>
      </trkpt>
      <trkpt lat="45.21365" lon="5.66099">
        <ele>199.39999389648</ele>
        <time>2019-08-11T06:54:09.000Z</time>
      </trkpt>
      <trkpt lat="45.21365" lon="5.66099">
        <ele>199.60000610352</ele>
        <time>2019-08-11T06:54:20.000Z</time>
      </trkpt>
      <trkpt lat="45.21365" lon="5.66099">
        <ele>199.60000610352</ele>
        <time>2019-08-11T06:54:53.000Z</time>
      </trkpt>
      <trkpt lat="45.21365" lon="5.66098">
        <ele>199.60000610352</ele>
        <time>2019-08-11T06:55:28.000Z</time>
      </trkpt>
      <trkpt lat="45.21365" lon="5.66098">
        <ele>200</ele>
        <time>2019-08-11T06:56:02.000Z</time>
      </trkpt>
      <trkpt lat="45.21365" lon="5.66098">
        <ele>200</ele>
        <time>2019-08-11T06:56:22.000Z</time>
      </trkpt>
      <trkpt lat="45.21366" lon="5.66098">
        <ele>200</ele>
        <time>2019-08-11T06:56:52.000Z</time>
      </trkpt>
      <trkpt lat="45.21366" lon="5.66098">
        <ele>200</ele>
        <time>2019-08-11T06:57:19.000Z</time>
      </trkpt>
      <trkpt lat="45.21366" lon="5.66099">
        <ele>200.19999694824</ele>
        <time>2019-08-11T06:57:30.000Z</time>
      </trkpt>
      <trkpt lat="45.21367" lon="5.66101">
        <ele>200.19999694824</ele>
        <time>2019-08-11T06:57:48.000Z</time>
      </trkpt>
      <trkpt lat="45.21367" lon="5.66101">
        <ele>200.19999694824</ele>
        <time>2019-08-11T06:57:51.000Z</time>
      </trkpt>
      <trkpt lat="45.21367" lon="5.66102">
        <ele>200.19999694824</ele>
        <time>2019-08-11T06:58:22.000Z</time>
      </trkpt>
      <trkpt lat="45.21367" lon="5.66101">
        <ele>200</ele>
        <time>2019-08-11T06:58:55.000Z</time>
      </trkpt>
      <trkpt lat="45.21368" lon="5.661">
        <ele>200</ele>
        <time>2019-08-11T06:59:25.000Z</time>
      </trkpt>
      <trkpt lat="45.21368" lon="5.661">
        <ele>200.19999694824</ele>
        <time>2019-08-11T06:59:38.000Z</time>
      </trkpt>
      <trkpt lat="45.21368" lon="5.66099">
        <ele>200.19999694824</ele>
        <time>2019-08-11T07:00:02.000Z</time>
      </trkpt>
      <trkpt lat="45.21368" lon="5.66098">
        <ele>200.39999389648</ele>
        <time>2019-08-11T07:00:22.000Z</time>
      </trkpt>
      <trkpt lat="45.21369" lon="5.66099">
        <ele>200.39999389648</ele>
        <time>2019-08-11T07:00:35.000Z</time>
      </trkpt>
      <trkpt lat="45.21369" lon="5.66099">
        <ele>200.19999694824</ele>
        <time>2019-08-11T07:00:46.000Z</time>
      </trkpt>
      <trkpt lat="45.21369" lon="5.66099">
        <ele>200.19999694824</ele>
        <time>2019-08-11T07:00:52.000Z</time>
      </trkpt>
      <trkpt lat="45.21368" lon="5.66099">
        <ele>200.39999389648</ele>
        <time>2019-08-11T07:01:17.000Z</time>
      </trkpt>
      <trkpt lat="45.21368" lon="5.66099">
        <ele>200.39999389648</ele>
        <time>2019-08-11T07:01:29.000Z</time>
      </trkpt>
      <trkpt lat="45.21368" lon="5.66098">
        <ele>200.39999389648</ele>
        <time>2019-08-11T07:01:43.000Z</time>
      </trkpt>
      <trkpt lat="45.21368" lon="5.66098">
        <ele>200.60000610352</ele>
        <time>2019-08-11T07:02:10.000Z</time>
      </trkpt>
      <trkpt lat="45.21367" lon="5.66098">
        <ele>200.39999389648</ele>
        <time>2019-08-11T07:02:24.000Z</time>
      </trkpt>
      <trkpt lat="45.21368" lon="5.66097">
        <ele>200.60000610352</ele>
        <time>2019-08-11T07:02:49.000Z</time>
      </trkpt>
      <trkpt lat="45.21368" lon="5.66097">
        <ele>200.80000305176</ele>
        <time>2019-08-11T07:03:08.000Z</time>
      </trkpt>
      <trkpt lat="45.21367" lon="5.66097">
        <ele>200.60000610352</ele>
        <time>2019-08-11T07:03:32.000Z</time>
      </trkpt>
      <trkpt lat="45.21367" lon="5.66097">
        <ele>200.80000305176</ele>
        <time>2019-08-11T07:03:36.000Z</time>
      </trkpt>
      <trkpt lat="45.21366" lon="5.66097">
        <ele>200.60000610352</ele>
        <time>2019-08-11T07:03:43.000Z</time>
      </trkpt>
      <trkpt lat="45.21365" lon="5.66097">
        <ele>200.60000610352</ele>
        <time>2019-08-11T07:03:54.000Z</time>
      </trkpt>
      <trkpt lat="45.21364" lon="5.66097">
        <ele>201</ele>
        <time>2019-08-11T07:04:15.000Z</time>
      </trkpt>
      <trkpt lat="45.21364" lon="5.66097">
        <ele>201</ele>
        <time>2019-08-11T07:04:40.000Z</time>
      </trkpt>
      <trkpt lat="45.21364" lon="5.66096">
        <ele>201.19999694824</ele>
        <time>2019-08-11T07:05:30.000Z</time>
      </trkpt>
      <trkpt lat="45.21364" lon="5.66096">
        <ele>201.19999694824</ele>
        <time>2019-08-11T07:05:34.000Z</time>
      </trkpt>
      <trkpt lat="45.21365" lon="5.66096">
        <ele>201.39999389648</ele>
        <time>2019-08-11T07:06:19.000Z</time>
      </trkpt>
      <trkpt lat="45.21365" lon="5.66097">
        <ele>201.39999389648</ele>
        <time>2019-08-11T07:06:28.000Z</time>
      </trkpt>
      <trkpt lat="45.21366" lon="5.66097">
        <ele>201.39999389648</ele>
        <time>2019-08-11T07:06:43.000Z</time>
      </trkpt>
      <trkpt lat="45.21366" lon="5.66097">
        <ele>201.60000610352</ele>
        <time>2019-08-11T07:06:56.000Z</time>
      </trkpt>
      <trkpt lat="45.21366" lon="5.66099">
        <ele>201.39999389648</ele>
        <time>2019-08-11T07:06:57.000Z</time>
      </trkpt>
      <trkpt lat="45.21365" lon="5.66099">
        <ele>201.60000610352</ele>
        <time>2019-08-11T07:07:03.000Z</time>
      </trkpt>
      <trkpt lat="45.21366" lon="5.66103">
        <ele>201.60000610352</ele>
        <time>2019-08-11T07:07:10.000Z</time>
      </trkpt>
      <trkpt lat="45.21366" lon="5.66108">
        <ele>201.60000610352</ele>
        <time>2019-08-11T07:07:17.000Z</time>
      </trkpt>
      <trkpt lat="45.21363" lon="5.66111">
        <ele>201.80000305176</ele>
        <time>2019-08-11T07:07:25.000Z</time>
      </trkpt>
      <trkpt lat="45.21363" lon="5.66111">
        <ele>202</ele>
        <time>2019-08-11T07:07:26.000Z</time>
      </trkpt>
      <trkpt lat="45.21363" lon="5.66111">
        <ele>201.80000305176</ele>
        <time>2019-08-11T07:07:32.000Z</time>
      </trkpt>
      <trkpt lat="45.21363" lon="5.66112">
        <ele>201.60000610352</ele>
        <time>2019-08-11T07:07:46.000Z</time>
      </trkpt>
      <trkpt lat="45.21363" lon="5.66112">
        <ele>201.80000305176</ele>
        <time>2019-08-11T07:08:08.000Z</time>
      </trkpt>
      <trkpt lat="45.21363" lon="5.66112">
        <ele>202</ele>
        <time>2019-08-11T07:08:40.000Z</time>
      </trkpt>
      <trkpt lat="45.21363" lon="5.66112">
        <ele>201.80000305176</ele>
        <time>2019-08-11T07:08:52.000Z</time>
      </trkpt>
      <trkpt lat="45.21362" lon="5.66112">
        <ele>202</ele>
        <time>2019-08-11T07:09:11.000Z</time>
      </trkpt>
      <trkpt lat="45.21362" lon="5.66112">
        <ele>202</ele>
        <time>2019-08-11T07:09:41.000Z</time>
      </trkpt>
      <trkpt lat="45.21363" lon="5.6611">
        <ele>202</ele>
        <time>2019-08-11T07:09:44.000Z</time>
      </trkpt>
      <trkpt lat="45.21363" lon="5.66104">
        <ele>202</ele>
        <time>2019-08-11T07:09:46.000Z</time>
      </trkpt>
      <trkpt lat="45.21362" lon="5.66098">
        <ele>202.19999694824</ele>
        <time>2019-08-11T07:09:48.000Z</time>
      </trkpt>
      <trkpt lat="45.21356" lon="5.66094">
        <ele>202.19999694824</ele>
        <time>2019-08-11T07:09:51.000Z</time>
      </trkpt>
      <trkpt lat="45.21353" lon="5.66094">
        <ele>202.19999694824</ele>
        <time>2019-08-11T07:09:52.000Z</time>
      </trkpt>
      <trkpt lat="45.21343" lon="5.66097">
        <ele>202</ele>
        <time>2019-08-11T07:09:56.000Z</time>
      </trkpt>
      <trkpt lat="45.21335" lon="5.66095">
        <ele>203</ele>
        <time>2019-08-11T07:10:01.000Z</time>
      </trkpt>
      <trkpt lat="45.21333" lon="5.66095">
        <ele>203.19999694824</ele>
        <time>2019-08-11T07:10:02.000Z</time>
      </trkpt>
      <trkpt lat="45.21318" lon="5.66097">
        <ele>202.80000305176</ele>
        <time>2019-08-11T07:10:07.000Z</time>
      </trkpt>
      <trkpt lat="45.21306" lon="5.66094">
        <ele>203</ele>
        <time>2019-08-11T07:10:12.000Z</time>
      </trkpt>
      <trkpt lat="45.21297" lon="5.66105">
        <ele>203</ele>
        <time>2019-08-11T07:10:16.000Z</time>
      </trkpt>
      <trkpt lat="45.21294" lon="5.66128">
        <ele>203.19999694824</ele>
        <time>2019-08-11T07:10:21.000Z</time>
      </trkpt>
      <trkpt lat="45.21298" lon="5.66149">
        <ele>203.19999694824</ele>
        <time>2019-08-11T07:10:25.000Z</time>
      </trkpt>
      <trkpt lat="45.21314" lon="5.66162">
        <ele>203</ele>
        <time>2019-08-11T07:10:29.000Z</time>
      </trkpt>
      <trkpt lat="45.2133" lon="5.66173">
        <ele>202.60000610352</ele>
        <time>2019-08-11T07:10:33.000Z</time>
      </trkpt>
      <trkpt lat="45.21333" lon="5.66185">
        <ele>202.60000610352</ele>
        <time>2019-08-11T07:10:35.000Z</time>
      </trkpt>
      <trkpt lat="45.21336" lon="5.66197">
        <ele>202.39999389648</ele>
        <time>2019-08-11T07:10:37.000Z</time>
      </trkpt>
      <trkpt lat="45.21337" lon="5.66203">
        <ele>202.39999389648</ele>
        <time>2019-08-11T07:10:38.000Z</time>
      </trkpt>
      <trkpt lat="45.21333" lon="5.66215">
        <ele>202.19999694824</ele>
        <time>2019-08-11T07:10:41.000Z</time>
      </trkpt>
      <trkpt lat="45.21321" lon="5.66218">
        <ele>202</ele>
        <time>2019-08-11T07:10:44.000Z</time>
      </trkpt>
      <trkpt lat="45.21312" lon="5.6622">
        <ele>202</ele>
        <time>2019-08-11T07:10:46.000Z</time>
      </trkpt>
      <trkpt lat="45.21283" lon="5.66226">
        <ele>202.39999389648</ele>
        <time>2019-08-11T07:10:53.000Z</time>
      </trkpt>
      <trkpt lat="45.21253" lon="5.66231">
        <ele>202.60000610352</ele>
        <time>2019-08-11T07:11:00.000Z</time>
      </trkpt>
      <trkpt lat="45.21239" lon="5.66235">
        <ele>202.80000305176</ele>
        <time>2019-08-11T07:11:05.000Z</time>
      </trkpt>
      <trkpt lat="45.21224" lon="5.66237">
        <ele>203</ele>
        <time>2019-08-11T07:11:10.000Z</time>
      </trkpt>
      <trkpt lat="45.21211" lon="5.6624">
        <ele>203.19999694824</ele>
        <time>2019-08-11T07:11:14.000Z</time>
      </trkpt>
      <trkpt lat="45.21203" lon="5.66241">
        <ele>203.19999694824</ele>
        <time>2019-08-11T07:11:16.000Z</time>
      </trkpt>
      <trkpt lat="45.2118" lon="5.66251">
        <ele>204</ele>
        <time>2019-08-11T07:11:23.000Z</time>
      </trkpt>
      <trkpt lat="45.21178" lon="5.66257">
        <ele>204.19999694824</ele>
        <time>2019-08-11T07:11:25.000Z</time>
      </trkpt>
      <trkpt lat="45.21179" lon="5.66263">
        <ele>204.60000610352</ele>
        <time>2019-08-11T07:11:27.000Z</time>
      </trkpt>
      <trkpt lat="45.21184" lon="5.66276">
        <ele>205.39999389648</ele>
        <time>2019-08-11T07:11:32.000Z</time>
      </trkpt>
      <trkpt lat="45.21185" lon="5.66278">
        <ele>205.60000610352</ele>
        <time>2019-08-11T07:11:33.000Z</time>
      </trkpt>
      <trkpt lat="45.21186" lon="5.66292">
        <ele>206</ele>
        <time>2019-08-11T07:11:39.000Z</time>
      </trkpt>
      <trkpt lat="45.21185" lon="5.66293">
        <ele>206.19999694824</ele>
        <time>2019-08-11T07:11:40.000Z</time>
      </trkpt>
      <trkpt lat="45.21185" lon="5.66295">
        <ele>206.19999694824</ele>
        <time>2019-08-11T07:11:41.000Z</time>
      </trkpt>
      <trkpt lat="45.21184" lon="5.66297">
        <ele>206.39999389648</ele>
        <time>2019-08-11T07:11:44.000Z</time>
      </trkpt>
      <trkpt lat="45.21184" lon="5.66296">
        <ele>207.19999694824</ele>
        <time>2019-08-11T07:11:56.000Z</time>
      </trkpt>
      <trkpt lat="45.21184" lon="5.66296">
        <ele>207.39999389648</ele>
        <time>2019-08-11T07:11:57.000Z</time>
      </trkpt>
      <trkpt lat="45.21184" lon="5.66296">
        <ele>206.80000305176</ele>
        <time>2019-08-11T07:12:09.000Z</time>
      </trkpt>
      <trkpt lat="45.21184" lon="5.66299">
        <ele>206.60000610352</ele>
        <time>2019-08-11T07:12:22.000Z</time>
      </trkpt>
      <trkpt lat="45.21184" lon="5.66302">
        <ele>206.60000610352</ele>
        <time>2019-08-11T07:12:24.000Z</time>
      </trkpt>
      <trkpt lat="45.21183" lon="5.66304">
        <ele>206.60000610352</ele>
        <time>2019-08-11T07:12:28.000Z</time>
      </trkpt>
      <trkpt lat="45.21183" lon="5.66304">
        <ele>206.80000305176</ele>
        <time>2019-08-11T07:12:42.000Z</time>
      </trkpt>
      <trkpt lat="45.21182" lon="5.66309">
        <ele>206.60000610352</ele>
        <time>2019-08-11T07:12:55.000Z</time>
      </trkpt>
      <trkpt lat="45.21181" lon="5.66312">
        <ele>206.60000610352</ele>
        <time>2019-08-11T07:12:58.000Z</time>
      </trkpt>
      <trkpt lat="45.21181" lon="5.66313">
        <ele>206.60000610352</ele>
        <time>2019-08-11T07:13:01.000Z</time>
      </trkpt>
      <trkpt lat="45.21181" lon="5.66313">
        <ele>206.80000305176</ele>
        <time>2019-08-11T07:13:12.000Z</time>
      </trkpt>
      <trkpt lat="45.21181" lon="5.66313">
        <ele>206.60000610352</ele>
        <time>2019-08-11T07:13:28.000Z</time>
      </trkpt>
      <trkpt lat="45.21181" lon="5.66315">
        <ele>206.60000610352</ele>
        <time>2019-08-11T07:13:32.000Z</time>
      </trkpt>
      <trkpt lat="45.2118" lon="5.6632">
        <ele>206.60000610352</ele>
        <time>2019-08-11T07:13:34.000Z</time>
      </trkpt>
      <trkpt lat="45.2118" lon="5.66323">
        <ele>206.80000305176</ele>
        <time>2019-08-11T07:13:35.000Z</time>
      </trkpt>
      <trkpt lat="45.21185" lon="5.6633">
        <ele>206.80000305176</ele>
        <time>2019-08-11T07:13:37.000Z</time>
      </trkpt>
      <trkpt lat="45.21197" lon="5.66344">
        <ele>206.39999389648</ele>
        <time>2019-08-11T07:13:41.000Z</time>
      </trkpt>
      <trkpt lat="45.21203" lon="5.66354">
        <ele>206.19999694824</ele>
        <time>2019-08-11T07:13:43.000Z</time>
      </trkpt>
      <trkpt lat="45.21213" lon="5.66375">
        <ele>205.60000610352</ele>
        <time>2019-08-11T07:13:47.000Z</time>
      </trkpt>
      <trkpt lat="45.21223" lon="5.66395">
        <ele>205.19999694824</ele>
        <time>2019-08-11T07:13:51.000Z</time>
      </trkpt>
      <trkpt lat="45.21243" lon="5.66437">
        <ele>205</ele>
        <time>2019-08-11T07:14:00.000Z</time>
      </trkpt>
      <trkpt lat="45.2126" lon="5.66489">
        <ele>205</ele>
        <time>2019-08-11T07:14:10.000Z</time>
      </trkpt>
      <trkpt lat="45.21265" lon="5.66506">
        <ele>205.19999694824</ele>
        <time>2019-08-11T07:14:13.000Z</time>
      </trkpt>
      <trkpt lat="45.21273" lon="5.66521">
        <ele>205.19999694824</ele>
        <time>2019-08-11T07:14:16.000Z</time>
      </trkpt>
      <trkpt lat="45.21289" lon="5.66562">
        <ele>204.80000305176</ele>
        <time>2019-08-11T07:14:23.000Z</time>
      </trkpt>
      <trkpt lat="45.2131" lon="5.66611">
        <ele>204.80000305176</ele>
        <time>2019-08-11T07:14:31.000Z</time>
      </trkpt>
      <trkpt lat="45.21325" lon="5.66648">
        <ele>205.19999694824</ele>
        <time>2019-08-11T07:14:37.000Z</time>
      </trkpt>
      <trkpt lat="45.21337" lon="5.66678">
        <ele>205</ele>
        <time>2019-08-11T07:14:43.000Z</time>
      </trkpt>
      <trkpt lat="45.21338" lon="5.66684">
        <ele>205.19999694824</ele>
        <time>2019-08-11T07:14:44.000Z</time>
      </trkpt>
      <trkpt lat="45.21336" lon="5.66704">
        <ele>205</ele>
        <time>2019-08-11T07:14:47.000Z</time>
      </trkpt>
      <trkpt lat="45.21331" lon="5.6674">
        <ele>204</ele>
        <time>2019-08-11T07:14:52.000Z</time>
      </trkpt>
      <trkpt lat="45.21328" lon="5.66754">
        <ele>203.80000305176</ele>
        <time>2019-08-11T07:14:54.000Z</time>
      </trkpt>
      <trkpt lat="45.21323" lon="5.66777">
        <ele>203</ele>
        <time>2019-08-11T07:14:58.000Z</time>
      </trkpt>
      <trkpt lat="45.21331" lon="5.66786">
        <ele>203</ele>
        <time>2019-08-11T07:15:01.000Z</time>
      </trkpt>
      <trkpt lat="45.21335" lon="5.66791">
        <ele>203.19999694824</ele>
        <time>2019-08-11T07:15:03.000Z</time>
      </trkpt>
      <trkpt lat="45.21343" lon="5.66811">
        <ele>203.60000610352</ele>
        <time>2019-08-11T07:15:08.000Z</time>
      </trkpt>
      <trkpt lat="45.21345" lon="5.6682">
        <ele>203.60000610352</ele>
        <time>2019-08-11T07:15:10.000Z</time>
      </trkpt>
      <trkpt lat="45.21347" lon="5.66832">
        <ele>203.60000610352</ele>
        <time>2019-08-11T07:15:12.000Z</time>
      </trkpt>
      <trkpt lat="45.2135" lon="5.6686">
        <ele>203.39999389648</ele>
        <time>2019-08-11T07:15:17.000Z</time>
      </trkpt>
      <trkpt lat="45.21351" lon="5.66865">
        <ele>203.39999389648</ele>
        <time>2019-08-11T07:15:18.000Z</time>
      </trkpt>
      <trkpt lat="45.21356" lon="5.66898">
        <ele>203.19999694824</ele>
        <time>2019-08-11T07:15:24.000Z</time>
      </trkpt>
      <trkpt lat="45.21361" lon="5.66928">
        <ele>203</ele>
        <time>2019-08-11T07:15:29.000Z</time>
      </trkpt>
      <trkpt lat="45.21361" lon="5.66934">
        <ele>203</ele>
        <time>2019-08-11T07:15:30.000Z</time>
      </trkpt>
      <trkpt lat="45.21364" lon="5.66954">
        <ele>203.19999694824</ele>
        <time>2019-08-11T07:15:33.000Z</time>
      </trkpt>
      <trkpt lat="45.21365" lon="5.66961">
        <ele>203.19999694824</ele>
        <time>2019-08-11T07:15:34.000Z</time>
      </trkpt>
      <trkpt lat="45.21366" lon="5.66967">
        <ele>203.19999694824</ele>
        <time>2019-08-11T07:15:35.000Z</time>
      </trkpt>
      <trkpt lat="45.21373" lon="5.67008">
        <ele>202.80000305176</ele>
        <time>2019-08-11T07:15:41.000Z</time>
      </trkpt>
      <trkpt lat="45.21374" lon="5.67021">
        <ele>202.80000305176</ele>
        <time>2019-08-11T07:15:43.000Z</time>
      </trkpt>
      <trkpt lat="45.21378" lon="5.67042">
        <ele>203</ele>
        <time>2019-08-11T07:15:46.000Z</time>
      </trkpt>
      <trkpt lat="45.21379" lon="5.67048">
        <ele>203.19999694824</ele>
        <time>2019-08-11T07:15:47.000Z</time>
      </trkpt>
      <trkpt lat="45.21382" lon="5.67073">
        <ele>203.19999694824</ele>
        <time>2019-08-11T07:15:51.000Z</time>
      </trkpt>
      <trkpt lat="45.21384" lon="5.67086">
        <ele>203.19999694824</ele>
        <time>2019-08-11T07:15:53.000Z</time>
      </trkpt>
      <trkpt lat="45.21389" lon="5.6711">
        <ele>203.19999694824</ele>
        <time>2019-08-11T07:15:57.000Z</time>
      </trkpt>
      <trkpt lat="45.21391" lon="5.67122">
        <ele>203.39999389648</ele>
        <time>2019-08-11T07:15:59.000Z</time>
      </trkpt>
      <trkpt lat="45.21397" lon="5.67163">
        <ele>203.39999389648</ele>
        <time>2019-08-11T07:16:05.000Z</time>
      </trkpt>
      <trkpt lat="45.21404" lon="5.67218">
        <ele>203.60000610352</ele>
        <time>2019-08-11T07:16:14.000Z</time>
      </trkpt>
      <trkpt lat="45.21408" lon="5.67228">
        <ele>203.19999694824</ele>
        <time>2019-08-11T07:16:16.000Z</time>
      </trkpt>
      <trkpt lat="45.21412" lon="5.67231">
        <ele>203.19999694824</ele>
        <time>2019-08-11T07:16:17.000Z</time>
      </trkpt>
      <trkpt lat="45.21437" lon="5.67234">
        <ele>202.80000305176</ele>
        <time>2019-08-11T07:16:22.000Z</time>
      </trkpt>
      <trkpt lat="45.21461" lon="5.67235">
        <ele>203.19999694824</ele>
        <time>2019-08-11T07:16:27.000Z</time>
      </trkpt>
      <trkpt lat="45.21465" lon="5.67234">
        <ele>203.19999694824</ele>
        <time>2019-08-11T07:16:28.000Z</time>
      </trkpt>
      <trkpt lat="45.21483" lon="5.67226">
        <ele>203.39999389648</ele>
        <time>2019-08-11T07:16:32.000Z</time>
      </trkpt>
      <trkpt lat="45.21487" lon="5.67224">
        <ele>203.39999389648</ele>
        <time>2019-08-11T07:16:33.000Z</time>
      </trkpt>
      <trkpt lat="45.21508" lon="5.67215">
        <ele>203.60000610352</ele>
        <time>2019-08-11T07:16:38.000Z</time>
      </trkpt>
      <trkpt lat="45.21533" lon="5.67203">
        <ele>203.60000610352</ele>
        <time>2019-08-11T07:16:44.000Z</time>
      </trkpt>
      <trkpt lat="45.21542" lon="5.67199">
        <ele>203.39999389648</ele>
        <time>2019-08-11T07:16:46.000Z</time>
      </trkpt>
      <trkpt lat="45.21555" lon="5.67201">
        <ele>203.39999389648</ele>
        <time>2019-08-11T07:16:49.000Z</time>
      </trkpt>
      <trkpt lat="45.21568" lon="5.67215">
        <ele>203.80000305176</ele>
        <time>2019-08-11T07:16:53.000Z</time>
      </trkpt>
      <trkpt lat="45.21571" lon="5.67219">
        <ele>203.80000305176</ele>
        <time>2019-08-11T07:16:54.000Z</time>
      </trkpt>
      <trkpt lat="45.21582" lon="5.67234">
        <ele>205.19999694824</ele>
        <time>2019-08-11T07:16:59.000Z</time>
      </trkpt>
      <trkpt lat="45.21584" lon="5.67236">
        <ele>205.39999389648</ele>
        <time>2019-08-11T07:17:00.000Z</time>
      </trkpt>
      <trkpt lat="45.21587" lon="5.67241">
        <ele>206</ele>
        <time>2019-08-11T07:17:02.000Z</time>
      </trkpt>
      <trkpt lat="45.21592" lon="5.67242">
        <ele>206.39999389648</ele>
        <time>2019-08-11T07:17:04.000Z</time>
      </trkpt>
      <trkpt lat="45.21602" lon="5.67235">
        <ele>207.39999389648</ele>
        <time>2019-08-11T07:17:08.000Z</time>
      </trkpt>
      <trkpt lat="45.21609" lon="5.67224">
        <ele>207.60000610352</ele>
        <time>2019-08-11T07:17:11.000Z</time>
      </trkpt>
      <trkpt lat="45.21611" lon="5.6722">
        <ele>207.60000610352</ele>
        <time>2019-08-11T07:17:12.000Z</time>
      </trkpt>
      <trkpt lat="45.21623" lon="5.67203">
        <ele>207.60000610352</ele>
        <time>2019-08-11T07:17:17.000Z</time>
      </trkpt>
      <trkpt lat="45.21636" lon="5.67182">
        <ele>207.80000305176</ele>
        <time>2019-08-11T07:17:23.000Z</time>
      </trkpt>
      <trkpt lat="45.2166" lon="5.67152">
        <ele>207.80000305176</ele>
        <time>2019-08-11T07:17:30.000Z</time>
      </trkpt>
      <trkpt lat="45.21676" lon="5.67132">
        <ele>207.80000305176</ele>
        <time>2019-08-11T07:17:35.000Z</time>
      </trkpt>
      <trkpt lat="45.21693" lon="5.67112">
        <ele>207.60000610352</ele>
        <time>2019-08-11T07:17:40.000Z</time>
      </trkpt>
      <trkpt lat="45.21707" lon="5.67096">
        <ele>207.39999389648</ele>
        <time>2019-08-11T07:17:44.000Z</time>
      </trkpt>
      <trkpt lat="45.21731" lon="5.67071">
        <ele>207.19999694824</ele>
        <time>2019-08-11T07:17:50.000Z</time>
      </trkpt>
      <trkpt lat="45.21735" lon="5.67068">
        <ele>207.19999694824</ele>
        <time>2019-08-11T07:17:51.000Z</time>
      </trkpt>
      <trkpt lat="45.21739" lon="5.67064">
        <ele>207.19999694824</ele>
        <time>2019-08-11T07:17:52.000Z</time>
      </trkpt>
      <trkpt lat="45.21748" lon="5.67054">
        <ele>207.19999694824</ele>
        <time>2019-08-11T07:17:55.000Z</time>
      </trkpt>
      <trkpt lat="45.21765" lon="5.67039">
        <ele>207.19999694824</ele>
        <time>2019-08-11T07:17:59.000Z</time>
      </trkpt>
      <trkpt lat="45.2177" lon="5.67035">
        <ele>207.19999694824</ele>
        <time>2019-08-11T07:18:00.000Z</time>
      </trkpt>
      <trkpt lat="45.21786" lon="5.67021">
        <ele>207.19999694824</ele>
        <time>2019-08-11T07:18:04.000Z</time>
      </trkpt>
      <trkpt lat="45.21803" lon="5.67008">
        <ele>207</ele>
        <time>2019-08-11T07:18:08.000Z</time>
      </trkpt>
      <trkpt lat="45.21812" lon="5.67001">
        <ele>207</ele>
        <time>2019-08-11T07:18:10.000Z</time>
      </trkpt>
      <trkpt lat="45.21838" lon="5.6698">
        <ele>207.19999694824</ele>
        <time>2019-08-11T07:18:16.000Z</time>
      </trkpt>
      <trkpt lat="45.21866" lon="5.66957">
        <ele>207.39999389648</ele>
        <time>2019-08-11T07:18:23.000Z</time>
      </trkpt>
      <trkpt lat="45.21893" lon="5.66936">
        <ele>207.19999694824</ele>
        <time>2019-08-11T07:18:29.000Z</time>
      </trkpt>
      <trkpt lat="45.21916" lon="5.66918">
        <ele>207.39999389648</ele>
        <time>2019-08-11T07:18:35.000Z</time>
      </trkpt>
      <trkpt lat="45.21926" lon="5.6691">
        <ele>207.39999389648</ele>
        <time>2019-08-11T07:18:38.000Z</time>
      </trkpt>
      <trkpt lat="45.21948" lon="5.66894">
        <ele>207.39999389648</ele>
        <time>2019-08-11T07:18:43.000Z</time>
      </trkpt>
      <trkpt lat="45.21962" lon="5.66884">
        <ele>207.39999389648</ele>
        <time>2019-08-11T07:18:46.000Z</time>
      </trkpt>
      <trkpt lat="45.21967" lon="5.66881">
        <ele>207.39999389648</ele>
        <time>2019-08-11T07:18:47.000Z</time>
      </trkpt>
      <trkpt lat="45.21987" lon="5.66867">
        <ele>207.39999389648</ele>
        <time>2019-08-11T07:18:51.000Z</time>
      </trkpt>
      <trkpt lat="45.21991" lon="5.66863">
        <ele>207.39999389648</ele>
        <time>2019-08-11T07:18:52.000Z</time>
      </trkpt>
      <trkpt lat="45.22022" lon="5.6684">
        <ele>207.39999389648</ele>
        <time>2019-08-11T07:18:59.000Z</time>
      </trkpt>
      <trkpt lat="45.22031" lon="5.66833">
        <ele>207.39999389648</ele>
        <time>2019-08-11T07:19:01.000Z</time>
      </trkpt>
      <trkpt lat="45.22046" lon="5.66823">
        <ele>207.39999389648</ele>
        <time>2019-08-11T07:19:04.000Z</time>
      </trkpt>
      <trkpt lat="45.22075" lon="5.66803">
        <ele>207</ele>
        <time>2019-08-11T07:19:10.000Z</time>
      </trkpt>
      <trkpt lat="45.22108" lon="5.66778">
        <ele>207.19999694824</ele>
        <time>2019-08-11T07:19:17.000Z</time>
      </trkpt>
      <trkpt lat="45.22113" lon="5.66775">
        <ele>207.19999694824</ele>
        <time>2019-08-11T07:19:18.000Z</time>
      </trkpt>
      <trkpt lat="45.22126" lon="5.66765">
        <ele>207.39999389648</ele>
        <time>2019-08-11T07:19:21.000Z</time>
      </trkpt>
      <trkpt lat="45.22134" lon="5.6676">
        <ele>207.39999389648</ele>
        <time>2019-08-11T07:19:23.000Z</time>
      </trkpt>
      <trkpt lat="45.22142" lon="5.66753">
        <ele>207.39999389648</ele>
        <time>2019-08-11T07:19:25.000Z</time>
      </trkpt>
      <trkpt lat="45.22146" lon="5.6675">
        <ele>207.39999389648</ele>
        <time>2019-08-11T07:19:26.000Z</time>
      </trkpt>
      <trkpt lat="45.22166" lon="5.66734">
        <ele>207.39999389648</ele>
        <time>2019-08-11T07:19:31.000Z</time>
      </trkpt>
      <trkpt lat="45.22196" lon="5.66711">
        <ele>207.39999389648</ele>
        <time>2019-08-11T07:19:37.000Z</time>
      </trkpt>
      <trkpt lat="45.22206" lon="5.66704">
        <ele>207.39999389648</ele>
        <time>2019-08-11T07:19:39.000Z</time>
      </trkpt>
      <trkpt lat="45.22216" lon="5.66697">
        <ele>207.39999389648</ele>
        <time>2019-08-11T07:19:41.000Z</time>
      </trkpt>
      <trkpt lat="45.22236" lon="5.66683">
        <ele>207.19999694824</ele>
        <time>2019-08-11T07:19:45.000Z</time>
      </trkpt>
      <trkpt lat="45.22241" lon="5.6668">
        <ele>207.19999694824</ele>
        <time>2019-08-11T07:19:46.000Z</time>
      </trkpt>
      <trkpt lat="45.2225" lon="5.66673">
        <ele>207.39999389648</ele>
        <time>2019-08-11T07:19:48.000Z</time>
      </trkpt>
      <trkpt lat="45.22266" lon="5.66661">
        <ele>207.39999389648</ele>
        <time>2019-08-11T07:19:51.000Z</time>
      </trkpt>
      <trkpt lat="45.22291" lon="5.66643">
        <ele>207.39999389648</ele>
        <time>2019-08-11T07:19:57.000Z</time>
      </trkpt>
      <trkpt lat="45.22299" lon="5.66635">
        <ele>207.60000610352</ele>
        <time>2019-08-11T07:19:59.000Z</time>
      </trkpt>
      <trkpt lat="45.22309" lon="5.66629">
        <ele>207.60000610352</ele>
        <time>2019-08-11T07:20:01.000Z</time>
      </trkpt>
      <trkpt lat="45.22333" lon="5.66614">
        <ele>207.60000610352</ele>
        <time>2019-08-11T07:20:06.000Z</time>
      </trkpt>
      <trkpt lat="45.22356" lon="5.66598">
        <ele>207.60000610352</ele>
        <time>2019-08-11T07:20:11.000Z</time>
      </trkpt>
      <trkpt lat="45.22377" lon="5.66583">
        <ele>207.39999389648</ele>
        <time>2019-08-11T07:20:16.000Z</time>
      </trkpt>
      <trkpt lat="45.22396" lon="5.6657">
        <ele>207.60000610352</ele>
        <time>2019-08-11T07:20:21.000Z</time>
      </trkpt>
      <trkpt lat="45.22425" lon="5.66549">
        <ele>207.60000610352</ele>
        <time>2019-08-11T07:20:28.000Z</time>
      </trkpt>
      <trkpt lat="45.2246" lon="5.66521">
        <ele>207.80000305176</ele>
        <time>2019-08-11T07:20:36.000Z</time>
      </trkpt>
      <trkpt lat="45.22464" lon="5.66518">
        <ele>207.80000305176</ele>
        <time>2019-08-11T07:20:37.000Z</time>
      </trkpt>
      <trkpt lat="45.225" lon="5.66491">
        <ele>207.60000610352</ele>
        <time>2019-08-11T07:20:45.000Z</time>
      </trkpt>
      <trkpt lat="45.22527" lon="5.66471">
        <ele>207.39999389648</ele>
        <time>2019-08-11T07:20:51.000Z</time>
      </trkpt>
      <trkpt lat="45.22571" lon="5.66439">
        <ele>207.60000610352</ele>
        <time>2019-08-11T07:21:01.000Z</time>
      </trkpt>
      <trkpt lat="45.22598" lon="5.66421">
        <ele>207.60000610352</ele>
        <time>2019-08-11T07:21:07.000Z</time>
      </trkpt>
      <trkpt lat="45.22637" lon="5.66395">
        <ele>207.39999389648</ele>
        <time>2019-08-11T07:21:15.000Z</time>
      </trkpt>
      <trkpt lat="45.22689" lon="5.66362">
        <ele>207.60000610352</ele>
        <time>2019-08-11T07:21:26.000Z</time>
      </trkpt>
      <trkpt lat="45.22729" lon="5.66331">
        <ele>207.80000305176</ele>
        <time>2019-08-11T07:21:35.000Z</time>
      </trkpt>
      <trkpt lat="45.22761" lon="5.66304">
        <ele>207.80000305176</ele>
        <time>2019-08-11T07:21:42.000Z</time>
      </trkpt>
      <trkpt lat="45.22775" lon="5.66293">
        <ele>207.60000610352</ele>
        <time>2019-08-11T07:21:45.000Z</time>
      </trkpt>
      <trkpt lat="45.22789" lon="5.66283">
        <ele>207.60000610352</ele>
        <time>2019-08-11T07:21:48.000Z</time>
      </trkpt>
      <trkpt lat="45.22826" lon="5.66255">
        <ele>207.80000305176</ele>
        <time>2019-08-11T07:21:56.000Z</time>
      </trkpt>
      <trkpt lat="45.22855" lon="5.66238">
        <ele>208</ele>
        <time>2019-08-11T07:22:02.000Z</time>
      </trkpt>
      <trkpt lat="45.22881" lon="5.66219">
        <ele>208</ele>
        <time>2019-08-11T07:22:08.000Z</time>
      </trkpt>
      <trkpt lat="45.22903" lon="5.66203">
        <ele>207.80000305176</ele>
        <time>2019-08-11T07:22:13.000Z</time>
      </trkpt>
      <trkpt lat="45.22933" lon="5.66178">
        <ele>208.19999694824</ele>
        <time>2019-08-11T07:22:20.000Z</time>
      </trkpt>
      <trkpt lat="45.22956" lon="5.66159">
        <ele>208.19999694824</ele>
        <time>2019-08-11T07:22:25.000Z</time>
      </trkpt>
      <trkpt lat="45.22987" lon="5.66137">
        <ele>208.39999389648</ele>
        <time>2019-08-11T07:22:32.000Z</time>
      </trkpt>
      <trkpt lat="45.23019" lon="5.66115">
        <ele>208.19999694824</ele>
        <time>2019-08-11T07:22:39.000Z</time>
      </trkpt>
      <trkpt lat="45.23051" lon="5.66091">
        <ele>208.39999389648</ele>
        <time>2019-08-11T07:22:46.000Z</time>
      </trkpt>
      <trkpt lat="45.23088" lon="5.66063">
        <ele>208.39999389648</ele>
        <time>2019-08-11T07:22:54.000Z</time>
      </trkpt>
      <trkpt lat="45.23121" lon="5.66039">
        <ele>208.39999389648</ele>
        <time>2019-08-11T07:23:01.000Z</time>
      </trkpt>
      <trkpt lat="45.23155" lon="5.66013">
        <ele>208.19999694824</ele>
        <time>2019-08-11T07:23:08.000Z</time>
      </trkpt>
      <trkpt lat="45.23192" lon="5.65984">
        <ele>208.39999389648</ele>
        <time>2019-08-11T07:23:16.000Z</time>
      </trkpt>
      <trkpt lat="45.23215" lon="5.65968">
        <ele>208.19999694824</ele>
        <time>2019-08-11T07:23:21.000Z</time>
      </trkpt>
      <trkpt lat="45.23247" lon="5.65944">
        <ele>208.39999389648</ele>
        <time>2019-08-11T07:23:28.000Z</time>
      </trkpt>
      <trkpt lat="45.23271" lon="5.65926">
        <ele>208.39999389648</ele>
        <time>2019-08-11T07:23:33.000Z</time>
      </trkpt>
      <trkpt lat="45.23276" lon="5.65922">
        <ele>208.19999694824</ele>
        <time>2019-08-11T07:23:34.000Z</time>
      </trkpt>
      <trkpt lat="45.23304" lon="5.65901">
        <ele>208.19999694824</ele>
        <time>2019-08-11T07:23:40.000Z</time>
      </trkpt>
      <trkpt lat="45.2333" lon="5.65881">
        <ele>208.19999694824</ele>
        <time>2019-08-11T07:23:46.000Z</time>
      </trkpt>
      <trkpt lat="45.23351" lon="5.65858">
        <ele>208.39999389648</ele>
        <time>2019-08-11T07:23:52.000Z</time>
      </trkpt>
      <trkpt lat="45.23374" lon="5.6583">
        <ele>208</ele>
        <time>2019-08-11T07:23:58.000Z</time>
      </trkpt>
      <trkpt lat="45.2338" lon="5.65826">
        <ele>207.80000305176</ele>
        <time>2019-08-11T07:23:59.000Z</time>
      </trkpt>
      <trkpt lat="45.23391" lon="5.65817">
        <ele>206.60000610352</ele>
        <time>2019-08-11T07:24:01.000Z</time>
      </trkpt>
      <trkpt lat="45.23409" lon="5.65803">
        <ele>205.60000610352</ele>
        <time>2019-08-11T07:24:04.000Z</time>
      </trkpt>
      <trkpt lat="45.23414" lon="5.65798">
        <ele>205.39999389648</ele>
        <time>2019-08-11T07:24:05.000Z</time>
      </trkpt>
      <trkpt lat="45.23449" lon="5.65765">
        <ele>205</ele>
        <time>2019-08-11T07:24:12.000Z</time>
      </trkpt>
      <trkpt lat="45.23473" lon="5.65737">
        <ele>204.39999389648</ele>
        <time>2019-08-11T07:24:17.000Z</time>
      </trkpt>
      <trkpt lat="45.23478" lon="5.65731">
        <ele>204.39999389648</ele>
        <time>2019-08-11T07:24:18.000Z</time>
      </trkpt>
      <trkpt lat="45.23492" lon="5.65715">
        <ele>204</ele>
        <time>2019-08-11T07:24:21.000Z</time>
      </trkpt>
      <trkpt lat="45.23505" lon="5.65699">
        <ele>204</ele>
        <time>2019-08-11T07:24:24.000Z</time>
      </trkpt>
      <trkpt lat="45.2352" lon="5.65679">
        <ele>204.19999694824</ele>
        <time>2019-08-11T07:24:28.000Z</time>
      </trkpt>
      <trkpt lat="45.23525" lon="5.65674">
        <ele>204.19999694824</ele>
        <time>2019-08-11T07:24:29.000Z</time>
      </trkpt>
      <trkpt lat="45.23532" lon="5.65664">
        <ele>204.39999389648</ele>
        <time>2019-08-11T07:24:31.000Z</time>
      </trkpt>
      <trkpt lat="45.23534" lon="5.65651">
        <ele>204.39999389648</ele>
        <time>2019-08-11T07:24:33.000Z</time>
      </trkpt>
      <trkpt lat="45.23526" lon="5.65632">
        <ele>204.19999694824</ele>
        <time>2019-08-11T07:24:36.000Z</time>
      </trkpt>
      <trkpt lat="45.23519" lon="5.65622">
        <ele>204.39999389648</ele>
        <time>2019-08-11T07:24:38.000Z</time>
      </trkpt>
      <trkpt lat="45.23516" lon="5.65617">
        <ele>204.39999389648</ele>
        <time>2019-08-11T07:24:39.000Z</time>
      </trkpt>
      <trkpt lat="45.23514" lon="5.65604">
        <ele>204.19999694824</ele>
        <time>2019-08-11T07:24:41.000Z</time>
      </trkpt>
      <trkpt lat="45.23518" lon="5.65595">
        <ele>204.19999694824</ele>
        <time>2019-08-11T07:24:43.000Z</time>
      </trkpt>
      <trkpt lat="45.23521" lon="5.6559">
        <ele>204.19999694824</ele>
        <time>2019-08-11T07:24:44.000Z</time>
      </trkpt>
      <trkpt lat="45.23524" lon="5.65585">
        <ele>204</ele>
        <time>2019-08-11T07:24:45.000Z</time>
      </trkpt>
      <trkpt lat="45.23535" lon="5.65574">
        <ele>204.19999694824</ele>
        <time>2019-08-11T07:24:48.000Z</time>
      </trkpt>
      <trkpt lat="45.23552" lon="5.65559">
        <ele>205.39999389648</ele>
        <time>2019-08-11T07:24:53.000Z</time>
      </trkpt>
      <trkpt lat="45.2358" lon="5.65545">
        <ele>205.60000610352</ele>
        <time>2019-08-11T07:25:00.000Z</time>
      </trkpt>
      <trkpt lat="45.23597" lon="5.65538">
        <ele>205.60000610352</ele>
        <time>2019-08-11T07:25:04.000Z</time>
      </trkpt>
      <trkpt lat="45.23611" lon="5.65535">
        <ele>205.60000610352</ele>
        <time>2019-08-11T07:25:07.000Z</time>
      </trkpt>
      <trkpt lat="45.23628" lon="5.65534">
        <ele>205.39999389648</ele>
        <time>2019-08-11T07:25:12.000Z</time>
      </trkpt>
      <trkpt lat="45.23637" lon="5.65534">
        <ele>205.19999694824</ele>
        <time>2019-08-11T07:25:17.000Z</time>
      </trkpt>
      <trkpt lat="45.2365" lon="5.65533">
        <ele>205.39999389648</ele>
        <time>2019-08-11T07:25:23.000Z</time>
      </trkpt>
      <trkpt lat="45.2366" lon="5.65532">
        <ele>205.39999389648</ele>
        <time>2019-08-11T07:25:28.000Z</time>
      </trkpt>
      <trkpt lat="45.23671" lon="5.65532">
        <ele>205.39999389648</ele>
        <time>2019-08-11T07:25:34.000Z</time>
      </trkpt>
      <trkpt lat="45.23684" lon="5.65531">
        <ele>205.19999694824</ele>
        <time>2019-08-11T07:25:41.000Z</time>
      </trkpt>
      <trkpt lat="45.23698" lon="5.6553">
        <ele>205.39999389648</ele>
        <time>2019-08-11T07:25:47.000Z</time>
      </trkpt>
      <trkpt lat="45.23713" lon="5.65529">
        <ele>205.39999389648</ele>
        <time>2019-08-11T07:25:53.000Z</time>
      </trkpt>
      <trkpt lat="45.23735" lon="5.65526">
        <ele>205.60000610352</ele>
        <time>2019-08-11T07:26:01.000Z</time>
      </trkpt>
      <trkpt lat="45.23745" lon="5.65522">
        <ele>205.39999389648</ele>
        <time>2019-08-11T07:26:06.000Z</time>
      </trkpt>
      <trkpt lat="45.2376" lon="5.65514">
        <ele>205.39999389648</ele>
        <time>2019-08-11T07:26:12.000Z</time>
      </trkpt>
      <trkpt lat="45.23774" lon="5.65503">
        <ele>205.19999694824</ele>
        <time>2019-08-11T07:26:17.000Z</time>
      </trkpt>
      <trkpt lat="45.23788" lon="5.65496">
        <ele>205.19999694824</ele>
        <time>2019-08-11T07:26:22.000Z</time>
      </trkpt>
      <trkpt lat="45.23802" lon="5.65486">
        <ele>205.19999694824</ele>
        <time>2019-08-11T07:26:27.000Z</time>
      </trkpt>
      <trkpt lat="45.23809" lon="5.6548">
        <ele>205.19999694824</ele>
        <time>2019-08-11T07:26:30.000Z</time>
      </trkpt>
      <trkpt lat="45.23813" lon="5.65478">
        <ele>205.19999694824</ele>
        <time>2019-08-11T07:26:32.000Z</time>
      </trkpt>
      <trkpt lat="45.2382" lon="5.65473">
        <ele>205.19999694824</ele>
        <time>2019-08-11T07:26:35.000Z</time>
      </trkpt>
      <trkpt lat="45.23824" lon="5.6547">
        <ele>205.19999694824</ele>
        <time>2019-08-11T07:26:37.000Z</time>
      </trkpt>
      <trkpt lat="45.23834" lon="5.65464">
        <ele>205.60000610352</ele>
        <time>2019-08-11T07:26:41.000Z</time>
      </trkpt>
      <trkpt lat="45.23844" lon="5.65456">
        <ele>205.60000610352</ele>
        <time>2019-08-11T07:26:46.000Z</time>
      </trkpt>
      <trkpt lat="45.23846" lon="5.65454">
        <ele>205.60000610352</ele>
        <time>2019-08-11T07:26:47.000Z</time>
      </trkpt>
      <trkpt lat="45.23853" lon="5.65448">
        <ele>205.60000610352</ele>
        <time>2019-08-11T07:26:50.000Z</time>
      </trkpt>
      <trkpt lat="45.23859" lon="5.65444">
        <ele>205.39999389648</ele>
        <time>2019-08-11T07:26:53.000Z</time>
      </trkpt>
      <trkpt lat="45.23862" lon="5.65442">
        <ele>205.39999389648</ele>
        <time>2019-08-11T07:26:54.000Z</time>
      </trkpt>
      <trkpt lat="45.23875" lon="5.65432">
        <ele>205.39999389648</ele>
        <time>2019-08-11T07:26:59.000Z</time>
      </trkpt>
      <trkpt lat="45.2388" lon="5.65427">
        <ele>205.39999389648</ele>
        <time>2019-08-11T07:27:01.000Z</time>
      </trkpt>
      <trkpt lat="45.23886" lon="5.65423">
        <ele>205.60000610352</ele>
        <time>2019-08-11T07:27:03.000Z</time>
      </trkpt>
      <trkpt lat="45.23897" lon="5.65414">
        <ele>205.60000610352</ele>
        <time>2019-08-11T07:27:07.000Z</time>
      </trkpt>
      <trkpt lat="45.239" lon="5.65412">
        <ele>205.60000610352</ele>
        <time>2019-08-11T07:27:08.000Z</time>
      </trkpt>
      <trkpt lat="45.23911" lon="5.65405">
        <ele>205.60000610352</ele>
        <time>2019-08-11T07:27:12.000Z</time>
      </trkpt>
      <trkpt lat="45.23927" lon="5.65393">
        <ele>205.60000610352</ele>
        <time>2019-08-11T07:27:17.000Z</time>
      </trkpt>
      <trkpt lat="45.23952" lon="5.65373">
        <ele>205.39999389648</ele>
        <time>2019-08-11T07:27:24.000Z</time>
      </trkpt>
      <trkpt lat="45.23959" lon="5.65367">
        <ele>205.39999389648</ele>
        <time>2019-08-11T07:27:26.000Z</time>
      </trkpt>
      <trkpt lat="45.2397" lon="5.65359">
        <ele>205.39999389648</ele>
        <time>2019-08-11T07:27:29.000Z</time>
      </trkpt>
      <trkpt lat="45.23986" lon="5.65346">
        <ele>205.39999389648</ele>
        <time>2019-08-11T07:27:34.000Z</time>
      </trkpt>
      <trkpt lat="45.24006" lon="5.65334">
        <ele>205.60000610352</ele>
        <time>2019-08-11T07:27:40.000Z</time>
      </trkpt>
      <trkpt lat="45.24011" lon="5.65329">
        <ele>205.39999389648</ele>
        <time>2019-08-11T07:27:42.000Z</time>
      </trkpt>
      <trkpt lat="45.24016" lon="5.65325">
        <ele>205.39999389648</ele>
        <time>2019-08-11T07:27:44.000Z</time>
      </trkpt>
      <trkpt lat="45.24032" lon="5.65311">
        <ele>206</ele>
        <time>2019-08-11T07:27:50.000Z</time>
      </trkpt>
      <trkpt lat="45.24046" lon="5.65303">
        <ele>205.80000305176</ele>
        <time>2019-08-11T07:27:55.000Z</time>
      </trkpt>
      <trkpt lat="45.2406" lon="5.65296">
        <ele>205.80000305176</ele>
        <time>2019-08-11T07:28:00.000Z</time>
      </trkpt>
      <trkpt lat="45.24076" lon="5.65288">
        <ele>206</ele>
        <time>2019-08-11T07:28:06.000Z</time>
      </trkpt>
      <trkpt lat="45.2409" lon="5.65281">
        <ele>206</ele>
        <time>2019-08-11T07:28:11.000Z</time>
      </trkpt>
      <trkpt lat="45.24105" lon="5.65275">
        <ele>206</ele>
        <time>2019-08-11T07:28:16.000Z</time>
      </trkpt>
      <trkpt lat="45.24122" lon="5.65268">
        <ele>205.80000305176</ele>
        <time>2019-08-11T07:28:21.000Z</time>
      </trkpt>
      <trkpt lat="45.2414" lon="5.65261">
        <ele>205.80000305176</ele>
        <time>2019-08-11T07:28:27.000Z</time>
      </trkpt>
      <trkpt lat="45.24158" lon="5.65255">
        <ele>205.80000305176</ele>
        <time>2019-08-11T07:28:33.000Z</time>
      </trkpt>
      <trkpt lat="45.24171" lon="5.65251">
        <ele>205.80000305176</ele>
        <time>2019-08-11T07:28:38.000Z</time>
      </trkpt>
      <trkpt lat="45.2419" lon="5.65244">
        <ele>205.80000305176</ele>
        <time>2019-08-11T07:28:44.000Z</time>
      </trkpt>
      <trkpt lat="45.24208" lon="5.65235">
        <ele>206</ele>
        <time>2019-08-11T07:28:50.000Z</time>
      </trkpt>
      <trkpt lat="45.24222" lon="5.65226">
        <ele>206</ele>
        <time>2019-08-11T07:28:55.000Z</time>
      </trkpt>
      <trkpt lat="45.24235" lon="5.65215">
        <ele>206</ele>
        <time>2019-08-11T07:28:59.000Z</time>
      </trkpt>
      <trkpt lat="45.24249" lon="5.65204">
        <ele>206</ele>
        <time>2019-08-11T07:29:04.000Z</time>
      </trkpt>
      <trkpt lat="45.24264" lon="5.65195">
        <ele>206</ele>
        <time>2019-08-11T07:29:09.000Z</time>
      </trkpt>
      <trkpt lat="45.2428" lon="5.65184">
        <ele>206</ele>
        <time>2019-08-11T07:29:15.000Z</time>
      </trkpt>
      <trkpt lat="45.24301" lon="5.65168">
        <ele>206</ele>
        <time>2019-08-11T07:29:22.000Z</time>
      </trkpt>
      <trkpt lat="45.24316" lon="5.65157">
        <ele>206</ele>
        <time>2019-08-11T07:29:27.000Z</time>
      </trkpt>
      <trkpt lat="45.24338" lon="5.6514">
        <ele>206</ele>
        <time>2019-08-11T07:29:34.000Z</time>
      </trkpt>
      <trkpt lat="45.24354" lon="5.65129">
        <ele>206.19999694824</ele>
        <time>2019-08-11T07:29:39.000Z</time>
      </trkpt>
      <trkpt lat="45.24368" lon="5.65118">
        <ele>206.19999694824</ele>
        <time>2019-08-11T07:29:44.000Z</time>
      </trkpt>
      <trkpt lat="45.24385" lon="5.65107">
        <ele>206</ele>
        <time>2019-08-11T07:29:49.000Z</time>
      </trkpt>
      <trkpt lat="45.24401" lon="5.65097">
        <ele>206.19999694824</ele>
        <time>2019-08-11T07:29:53.000Z</time>
      </trkpt>
      <trkpt lat="45.24404" lon="5.65094">
        <ele>206.19999694824</ele>
        <time>2019-08-11T07:29:54.000Z</time>
      </trkpt>
      <trkpt lat="45.24425" lon="5.65077">
        <ele>206.19999694824</ele>
        <time>2019-08-11T07:30:00.000Z</time>
      </trkpt>
      <trkpt lat="45.24437" lon="5.65069">
        <ele>206</ele>
        <time>2019-08-11T07:30:04.000Z</time>
      </trkpt>
      <trkpt lat="45.24451" lon="5.65058">
        <ele>206</ele>
        <time>2019-08-11T07:30:09.000Z</time>
      </trkpt>
      <trkpt lat="45.24465" lon="5.65047">
        <ele>206.19999694824</ele>
        <time>2019-08-11T07:30:14.000Z</time>
      </trkpt>
      <trkpt lat="45.2448" lon="5.65037">
        <ele>206.19999694824</ele>
        <time>2019-08-11T07:30:19.000Z</time>
      </trkpt>
      <trkpt lat="45.24497" lon="5.65025">
        <ele>206.19999694824</ele>
        <time>2019-08-11T07:30:24.000Z</time>
      </trkpt>
      <trkpt lat="45.24509" lon="5.65017">
        <ele>205.60000610352</ele>
        <time>2019-08-11T07:30:27.000Z</time>
      </trkpt>
      <trkpt lat="45.24513" lon="5.65014">
        <ele>205.60000610352</ele>
        <time>2019-08-11T07:30:28.000Z</time>
      </trkpt>
      <trkpt lat="45.24517" lon="5.65011">
        <ele>205.60000610352</ele>
        <time>2019-08-11T07:30:29.000Z</time>
      </trkpt>
      <trkpt lat="45.24533" lon="5.64998">
        <ele>205.80000305176</ele>
        <time>2019-08-11T07:30:33.000Z</time>
      </trkpt>
      <trkpt lat="45.24536" lon="5.64995">
        <ele>206</ele>
        <time>2019-08-11T07:30:34.000Z</time>
      </trkpt>
      <trkpt lat="45.24554" lon="5.64983">
        <ele>206.19999694824</ele>
        <time>2019-08-11T07:30:38.000Z</time>
      </trkpt>
      <trkpt lat="45.24566" lon="5.64975">
        <ele>206.19999694824</ele>
        <time>2019-08-11T07:30:41.000Z</time>
      </trkpt>
      <trkpt lat="45.24574" lon="5.64969">
        <ele>206.19999694824</ele>
        <time>2019-08-11T07:30:43.000Z</time>
      </trkpt>
      <trkpt lat="45.24578" lon="5.64966">
        <ele>206.19999694824</ele>
        <time>2019-08-11T07:30:44.000Z</time>
      </trkpt>
      <trkpt lat="45.24596" lon="5.64953">
        <ele>206</ele>
        <time>2019-08-11T07:30:48.000Z</time>
      </trkpt>
      <trkpt lat="45.24605" lon="5.64947">
        <ele>206</ele>
        <time>2019-08-11T07:30:50.000Z</time>
      </trkpt>
      <trkpt lat="45.24626" lon="5.64931">
        <ele>206</ele>
        <time>2019-08-11T07:30:55.000Z</time>
      </trkpt>
      <trkpt lat="45.2463" lon="5.64928">
        <ele>206</ele>
        <time>2019-08-11T07:30:56.000Z</time>
      </trkpt>
      <trkpt lat="45.24638" lon="5.64921">
        <ele>206</ele>
        <time>2019-08-11T07:30:58.000Z</time>
      </trkpt>
      <trkpt lat="45.24647" lon="5.64914">
        <ele>205.80000305176</ele>
        <time>2019-08-11T07:31:00.000Z</time>
      </trkpt>
      <trkpt lat="45.24651" lon="5.6491">
        <ele>205.80000305176</ele>
        <time>2019-08-11T07:31:01.000Z</time>
      </trkpt>
      <trkpt lat="45.24671" lon="5.64893">
        <ele>206</ele>
        <time>2019-08-11T07:31:06.000Z</time>
      </trkpt>
      <trkpt lat="45.24682" lon="5.64883">
        <ele>206</ele>
        <time>2019-08-11T07:31:09.000Z</time>
      </trkpt>
      <trkpt lat="45.24691" lon="5.64873">
        <ele>206</ele>
        <time>2019-08-11T07:31:12.000Z</time>
      </trkpt>
      <trkpt lat="45.24706" lon="5.64861">
        <ele>205.80000305176</ele>
        <time>2019-08-11T07:31:16.000Z</time>
      </trkpt>
      <trkpt lat="45.2472" lon="5.64847">
        <ele>205.80000305176</ele>
        <time>2019-08-11T07:31:20.000Z</time>
      </trkpt>
      <trkpt lat="45.24727" lon="5.64839">
        <ele>205.80000305176</ele>
        <time>2019-08-11T07:31:22.000Z</time>
      </trkpt>
      <trkpt lat="45.24733" lon="5.64832">
        <ele>205.80000305176</ele>
        <time>2019-08-11T07:31:24.000Z</time>
      </trkpt>
      <trkpt lat="45.24742" lon="5.64819">
        <ele>205.60000610352</ele>
        <time>2019-08-11T07:31:27.000Z</time>
      </trkpt>
      <trkpt lat="45.24748" lon="5.6481">
        <ele>205.80000305176</ele>
        <time>2019-08-11T07:31:29.000Z</time>
      </trkpt>
      <trkpt lat="45.24761" lon="5.64792">
        <ele>206</ele>
        <time>2019-08-11T07:31:33.000Z</time>
      </trkpt>
      <trkpt lat="45.24767" lon="5.64778">
        <ele>206</ele>
        <time>2019-08-11T07:31:36.000Z</time>
      </trkpt>
      <trkpt lat="45.24766" lon="5.64773">
        <ele>206</ele>
        <time>2019-08-11T07:31:37.000Z</time>
      </trkpt>
      <trkpt lat="45.24758" lon="5.6475">
        <ele>205.39999389648</ele>
        <time>2019-08-11T07:31:40.000Z</time>
      </trkpt>
      <trkpt lat="45.24753" lon="5.64729">
        <ele>204</ele>
        <time>2019-08-11T07:31:42.000Z</time>
      </trkpt>
      <trkpt lat="45.24748" lon="5.64707">
        <ele>202.80000305176</ele>
        <time>2019-08-11T07:31:44.000Z</time>
      </trkpt>
      <trkpt lat="45.24746" lon="5.64696">
        <ele>202.80000305176</ele>
        <time>2019-08-11T07:31:45.000Z</time>
      </trkpt>
      <trkpt lat="45.24738" lon="5.64664">
        <ele>201.60000610352</ele>
        <time>2019-08-11T07:31:48.000Z</time>
      </trkpt>
      <trkpt lat="45.24726" lon="5.64614">
        <ele>201</ele>
        <time>2019-08-11T07:31:53.000Z</time>
      </trkpt>
      <trkpt lat="45.24715" lon="5.64559">
        <ele>201.19999694824</ele>
        <time>2019-08-11T07:31:59.000Z</time>
      </trkpt>
      <trkpt lat="45.24699" lon="5.64501">
        <ele>201.39999389648</ele>
        <time>2019-08-11T07:32:06.000Z</time>
      </trkpt>
      <trkpt lat="45.24683" lon="5.64432">
        <ele>200.80000305176</ele>
        <time>2019-08-11T07:32:14.000Z</time>
      </trkpt>
      <trkpt lat="45.24675" lon="5.64401">
        <ele>201</ele>
        <time>2019-08-11T07:32:18.000Z</time>
      </trkpt>
      <trkpt lat="45.24672" lon="5.64388">
        <ele>201</ele>
        <time>2019-08-11T07:32:20.000Z</time>
      </trkpt>
      <trkpt lat="45.2467" lon="5.64381">
        <ele>201.19999694824</ele>
        <time>2019-08-11T07:32:21.000Z</time>
      </trkpt>
      <trkpt lat="45.24663" lon="5.64351">
        <ele>201.19999694824</ele>
        <time>2019-08-11T07:32:25.000Z</time>
      </trkpt>
      <trkpt lat="45.24648" lon="5.64291">
        <ele>201</ele>
        <time>2019-08-11T07:32:33.000Z</time>
      </trkpt>
      <trkpt lat="45.24646" lon="5.64283">
        <ele>200.80000305176</ele>
        <time>2019-08-11T07:32:34.000Z</time>
      </trkpt>
      <trkpt lat="45.2463" lon="5.64218">
        <ele>201</ele>
        <time>2019-08-11T07:32:43.000Z</time>
      </trkpt>
      <trkpt lat="45.24611" lon="5.6414">
        <ele>201</ele>
        <time>2019-08-11T07:32:53.000Z</time>
      </trkpt>
      <trkpt lat="45.24595" lon="5.64078">
        <ele>200.80000305176</ele>
        <time>2019-08-11T07:33:01.000Z</time>
      </trkpt>
      <trkpt lat="45.24578" lon="5.64005">
        <ele>200.60000610352</ele>
        <time>2019-08-11T07:33:10.000Z</time>
      </trkpt>
      <trkpt lat="45.24558" lon="5.63928">
        <ele>200.80000305176</ele>
        <time>2019-08-11T07:33:20.000Z</time>
      </trkpt>
      <trkpt lat="45.24539" lon="5.63849">
        <ele>200.80000305176</ele>
        <time>2019-08-11T07:33:30.000Z</time>
      </trkpt>
      <trkpt lat="45.24537" lon="5.63842">
        <ele>200.80000305176</ele>
        <time>2019-08-11T07:33:31.000Z</time>
      </trkpt>
      <trkpt lat="45.24518" lon="5.63765">
        <ele>201</ele>
        <time>2019-08-11T07:33:41.000Z</time>
      </trkpt>
      <trkpt lat="45.24499" lon="5.63688">
        <ele>201.19999694824</ele>
        <time>2019-08-11T07:33:51.000Z</time>
      </trkpt>
      <trkpt lat="45.24485" lon="5.63635">
        <ele>200.80000305176</ele>
        <time>2019-08-11T07:33:58.000Z</time>
      </trkpt>
      <trkpt lat="45.2447" lon="5.63572">
        <ele>201</ele>
        <time>2019-08-11T07:34:07.000Z</time>
      </trkpt>
      <trkpt lat="45.24459" lon="5.63526">
        <ele>200.60000610352</ele>
        <time>2019-08-11T07:34:15.000Z</time>
      </trkpt>
      <trkpt lat="45.24454" lon="5.63511">
        <ele>200.60000610352</ele>
        <time>2019-08-11T07:34:20.000Z</time>
      </trkpt>
      <trkpt lat="45.24452" lon="5.63509">
        <ele>201</ele>
        <time>2019-08-11T07:34:23.000Z</time>
      </trkpt>
      <trkpt lat="45.24449" lon="5.63503">
        <ele>201.19999694824</ele>
        <time>2019-08-11T07:34:28.000Z</time>
      </trkpt>
      <trkpt lat="45.24448" lon="5.63501">
        <ele>201.39999389648</ele>
        <time>2019-08-11T07:34:34.000Z</time>
      </trkpt>
      <trkpt lat="45.24445" lon="5.63498">
        <ele>201.39999389648</ele>
        <time>2019-08-11T07:34:39.000Z</time>
      </trkpt>
      <trkpt lat="45.24429" lon="5.63503">
        <ele>201</ele>
        <time>2019-08-11T07:34:44.000Z</time>
      </trkpt>
      <trkpt lat="45.24411" lon="5.63509">
        <ele>201.19999694824</ele>
        <time>2019-08-11T07:34:50.000Z</time>
      </trkpt>
      <trkpt lat="45.2441" lon="5.63507">
        <ele>201.39999389648</ele>
        <time>2019-08-11T07:34:53.000Z</time>
      </trkpt>
      <trkpt lat="45.24411" lon="5.63505">
        <ele>201.60000610352</ele>
        <time>2019-08-11T07:34:55.000Z</time>
      </trkpt>
      <trkpt lat="45.24412" lon="5.63497">
        <ele>201.60000610352</ele>
        <time>2019-08-11T07:34:58.000Z</time>
      </trkpt>
      <trkpt lat="45.24412" lon="5.63494">
        <ele>201.39999389648</ele>
        <time>2019-08-11T07:35:02.000Z</time>
      </trkpt>
      <trkpt lat="45.24411" lon="5.63486">
        <ele>201.39999389648</ele>
        <time>2019-08-11T07:35:09.000Z</time>
      </trkpt>
      <trkpt lat="45.24411" lon="5.63478">
        <ele>201.39999389648</ele>
        <time>2019-08-11T07:35:12.000Z</time>
      </trkpt>
      <trkpt lat="45.24415" lon="5.63472">
        <ele>201.19999694824</ele>
        <time>2019-08-11T07:35:14.000Z</time>
      </trkpt>
      <trkpt lat="45.24432" lon="5.6345">
        <ele>201.19999694824</ele>
        <time>2019-08-11T07:35:21.000Z</time>
      </trkpt>
      <trkpt lat="45.24436" lon="5.63434">
        <ele>201.39999389648</ele>
        <time>2019-08-11T07:35:25.000Z</time>
      </trkpt>
      <trkpt lat="45.24431" lon="5.6341">
        <ele>201.60000610352</ele>
        <time>2019-08-11T07:35:30.000Z</time>
      </trkpt>
      <trkpt lat="45.24419" lon="5.63363">
        <ele>201.80000305176</ele>
        <time>2019-08-11T07:35:39.000Z</time>
      </trkpt>
      <trkpt lat="45.24407" lon="5.6332">
        <ele>202</ele>
        <time>2019-08-11T07:35:47.000Z</time>
      </trkpt>
      <trkpt lat="45.24397" lon="5.63284">
        <ele>202.39999389648</ele>
        <time>2019-08-11T07:35:54.000Z</time>
      </trkpt>
      <trkpt lat="45.24388" lon="5.63248">
        <ele>202.80000305176</ele>
        <time>2019-08-11T07:36:02.000Z</time>
      </trkpt>
      <trkpt lat="45.24388" lon="5.63244">
        <ele>203</ele>
        <time>2019-08-11T07:36:03.000Z</time>
      </trkpt>
      <trkpt lat="45.24384" lon="5.63232">
        <ele>203.39999389648</ele>
        <time>2019-08-11T07:36:07.000Z</time>
      </trkpt>
      <trkpt lat="45.24378" lon="5.63217">
        <ele>203.80000305176</ele>
        <time>2019-08-11T07:36:12.000Z</time>
      </trkpt>
      <trkpt lat="45.24377" lon="5.6321">
        <ele>204.19999694824</ele>
        <time>2019-08-11T07:36:14.000Z</time>
      </trkpt>
      <trkpt lat="45.24372" lon="5.63193">
        <ele>205.19999694824</ele>
        <time>2019-08-11T07:36:19.000Z</time>
      </trkpt>
      <trkpt lat="45.24371" lon="5.6319">
        <ele>205.39999389648</ele>
        <time>2019-08-11T07:36:20.000Z</time>
      </trkpt>
      <trkpt lat="45.24369" lon="5.6318">
        <ele>206</ele>
        <time>2019-08-11T07:36:23.000Z</time>
      </trkpt>
      <trkpt lat="45.24371" lon="5.63173">
        <ele>206.39999389648</ele>
        <time>2019-08-11T07:36:25.000Z</time>
      </trkpt>
      <trkpt lat="45.24374" lon="5.63163">
        <ele>207.19999694824</ele>
        <time>2019-08-11T07:36:28.000Z</time>
      </trkpt>
      <trkpt lat="45.24377" lon="5.63158">
        <ele>207.39999389648</ele>
        <time>2019-08-11T07:36:30.000Z</time>
      </trkpt>
      <trkpt lat="45.24385" lon="5.63144">
        <ele>208.19999694824</ele>
        <time>2019-08-11T07:36:35.000Z</time>
      </trkpt>
      <trkpt lat="45.24388" lon="5.6314">
        <ele>208.80000305176</ele>
        <time>2019-08-11T07:36:37.000Z</time>
      </trkpt>
      <trkpt lat="45.24394" lon="5.63134">
        <ele>209.19999694824</ele>
        <time>2019-08-11T07:36:40.000Z</time>
      </trkpt>
      <trkpt lat="45.24398" lon="5.63131">
        <ele>209.39999389648</ele>
        <time>2019-08-11T07:36:42.000Z</time>
      </trkpt>
      <trkpt lat="45.24405" lon="5.63129">
        <ele>209.80000305176</ele>
        <time>2019-08-11T07:36:45.000Z</time>
      </trkpt>
      <trkpt lat="45.24421" lon="5.63129">
        <ele>211</ele>
        <time>2019-08-11T07:36:51.000Z</time>
      </trkpt>
      <trkpt lat="45.24436" lon="5.6313">
        <ele>212.19999694824</ele>
        <time>2019-08-11T07:36:57.000Z</time>
      </trkpt>
      <trkpt lat="45.24452" lon="5.63128">
        <ele>213.19999694824</ele>
        <time>2019-08-11T07:37:03.000Z</time>
      </trkpt>
      <trkpt lat="45.24454" lon="5.63128">
        <ele>213.39999389648</ele>
        <time>2019-08-11T07:37:04.000Z</time>
      </trkpt>
      <trkpt lat="45.24466" lon="5.63121">
        <ele>214.19999694824</ele>
        <time>2019-08-11T07:37:09.000Z</time>
      </trkpt>
      <trkpt lat="45.24471" lon="5.63118">
        <ele>214.60000610352</ele>
        <time>2019-08-11T07:37:11.000Z</time>
      </trkpt>
      <trkpt lat="45.24482" lon="5.63113">
        <ele>215.19999694824</ele>
        <time>2019-08-11T07:37:15.000Z</time>
      </trkpt>
      <trkpt lat="45.24489" lon="5.63107">
        <ele>215.60000610352</ele>
        <time>2019-08-11T07:37:18.000Z</time>
      </trkpt>
      <trkpt lat="45.245" lon="5.63102">
        <ele>216.39999389648</ele>
        <time>2019-08-11T07:37:22.000Z</time>
      </trkpt>
      <trkpt lat="45.24509" lon="5.63098">
        <ele>216.80000305176</ele>
        <time>2019-08-11T07:37:25.000Z</time>
      </trkpt>
      <trkpt lat="45.24514" lon="5.63094">
        <ele>217.19999694824</ele>
        <time>2019-08-11T07:37:27.000Z</time>
      </trkpt>
      <trkpt lat="45.24525" lon="5.63088">
        <ele>218</ele>
        <time>2019-08-11T07:37:31.000Z</time>
      </trkpt>
      <trkpt lat="45.2453" lon="5.63083">
        <ele>218.19999694824</ele>
        <time>2019-08-11T07:37:33.000Z</time>
      </trkpt>
      <trkpt lat="45.24542" lon="5.63069">
        <ele>219</ele>
        <time>2019-08-11T07:37:38.000Z</time>
      </trkpt>
      <trkpt lat="45.24545" lon="5.63061">
        <ele>219.60000610352</ele>
        <time>2019-08-11T07:37:40.000Z</time>
      </trkpt>
      <trkpt lat="45.24554" lon="5.63037">
        <ele>220.19999694824</ele>
        <time>2019-08-11T07:37:46.000Z</time>
      </trkpt>
      <trkpt lat="45.24555" lon="5.63033">
        <ele>220.39999389648</ele>
        <time>2019-08-11T07:37:47.000Z</time>
      </trkpt>
      <trkpt lat="45.24565" lon="5.63008">
        <ele>221.39999389648</ele>
        <time>2019-08-11T07:37:54.000Z</time>
      </trkpt>
      <trkpt lat="45.24566" lon="5.63004">
        <ele>221.60000610352</ele>
        <time>2019-08-11T07:37:55.000Z</time>
      </trkpt>
      <trkpt lat="45.24575" lon="5.62983">
        <ele>222.60000610352</ele>
        <time>2019-08-11T07:38:01.000Z</time>
      </trkpt>
      <trkpt lat="45.24578" lon="5.62976">
        <ele>222.80000305176</ele>
        <time>2019-08-11T07:38:03.000Z</time>
      </trkpt>
      <trkpt lat="45.24584" lon="5.62959">
        <ele>223.60000610352</ele>
        <time>2019-08-11T07:38:08.000Z</time>
      </trkpt>
      <trkpt lat="45.24586" lon="5.62952">
        <ele>223.80000305176</ele>
        <time>2019-08-11T07:38:10.000Z</time>
      </trkpt>
      <trkpt lat="45.24593" lon="5.62936">
        <ele>224.80000305176</ele>
        <time>2019-08-11T07:38:15.000Z</time>
      </trkpt>
      <trkpt lat="45.24595" lon="5.6293">
        <ele>225.39999389648</ele>
        <time>2019-08-11T07:38:17.000Z</time>
      </trkpt>
      <trkpt lat="45.246" lon="5.62915">
        <ele>225.80000305176</ele>
        <time>2019-08-11T07:38:22.000Z</time>
      </trkpt>
      <trkpt lat="45.24602" lon="5.62909">
        <ele>226</ele>
        <time>2019-08-11T07:38:24.000Z</time>
      </trkpt>
      <trkpt lat="45.24608" lon="5.62891">
        <ele>227</ele>
        <time>2019-08-11T07:38:30.000Z</time>
      </trkpt>
      <trkpt lat="45.24609" lon="5.62888">
        <ele>227</ele>
        <time>2019-08-11T07:38:31.000Z</time>
      </trkpt>
      <trkpt lat="45.24618" lon="5.62866">
        <ele>228</ele>
        <time>2019-08-11T07:38:38.000Z</time>
      </trkpt>
      <trkpt lat="45.24626" lon="5.62841">
        <ele>229.19999694824</ele>
        <time>2019-08-11T07:38:46.000Z</time>
      </trkpt>
      <trkpt lat="45.24628" lon="5.62837">
        <ele>229.39999389648</ele>
        <time>2019-08-11T07:38:47.000Z</time>
      </trkpt>
      <trkpt lat="45.24635" lon="5.62819">
        <ele>230.39999389648</ele>
        <time>2019-08-11T07:38:53.000Z</time>
      </trkpt>
      <trkpt lat="45.24636" lon="5.62816">
        <ele>230.39999389648</ele>
        <time>2019-08-11T07:38:54.000Z</time>
      </trkpt>
      <trkpt lat="45.24647" lon="5.62789">
        <ele>231.39999389648</ele>
        <time>2019-08-11T07:39:03.000Z</time>
      </trkpt>
      <trkpt lat="45.24648" lon="5.62787">
        <ele>231.80000305176</ele>
        <time>2019-08-11T07:39:04.000Z</time>
      </trkpt>
      <trkpt lat="45.2465" lon="5.6278">
        <ele>232.60000610352</ele>
        <time>2019-08-11T07:39:09.000Z</time>
      </trkpt>
      <trkpt lat="45.24646" lon="5.62786">
        <ele>232.60000610352</ele>
        <time>2019-08-11T07:39:12.000Z</time>
      </trkpt>
      <trkpt lat="45.24636" lon="5.62807">
        <ele>232</ele>
        <time>2019-08-11T07:39:17.000Z</time>
      </trkpt>
      <trkpt lat="45.24633" lon="5.62801">
        <ele>231.60000610352</ele>
        <time>2019-08-11T07:39:20.000Z</time>
      </trkpt>
      <trkpt lat="45.24633" lon="5.62784">
        <ele>232.19999694824</ele>
        <time>2019-08-11T07:39:25.000Z</time>
      </trkpt>
      <trkpt lat="45.24631" lon="5.62773">
        <ele>232.80000305176</ele>
        <time>2019-08-11T07:39:28.000Z</time>
      </trkpt>
      <trkpt lat="45.24631" lon="5.6276">
        <ele>233.60000610352</ele>
        <time>2019-08-11T07:39:32.000Z</time>
      </trkpt>
      <trkpt lat="45.24631" lon="5.62754">
        <ele>234</ele>
        <time>2019-08-11T07:39:34.000Z</time>
      </trkpt>
      <trkpt lat="45.24631" lon="5.6274">
        <ele>235</ele>
        <time>2019-08-11T07:39:39.000Z</time>
      </trkpt>
      <trkpt lat="45.24631" lon="5.62737">
        <ele>235.39999389648</ele>
        <time>2019-08-11T07:39:40.000Z</time>
      </trkpt>
      <trkpt lat="45.2463" lon="5.62727">
        <ele>236.60000610352</ele>
        <time>2019-08-11T07:39:44.000Z</time>
      </trkpt>
      <trkpt lat="45.24631" lon="5.62722">
        <ele>237</ele>
        <time>2019-08-11T07:39:46.000Z</time>
      </trkpt>
      <trkpt lat="45.2463" lon="5.62709">
        <ele>237.19999694824</ele>
        <time>2019-08-11T07:39:52.000Z</time>
      </trkpt>
      <trkpt lat="45.24631" lon="5.62702">
        <ele>237.80000305176</ele>
        <time>2019-08-11T07:39:55.000Z</time>
      </trkpt>
      <trkpt lat="45.2463" lon="5.62696">
        <ele>238.19999694824</ele>
        <time>2019-08-11T07:39:58.000Z</time>
      </trkpt>
      <trkpt lat="45.2463" lon="5.62683">
        <ele>239</ele>
        <time>2019-08-11T07:40:03.000Z</time>
      </trkpt>
      <trkpt lat="45.2463" lon="5.6268">
        <ele>239.19999694824</ele>
        <time>2019-08-11T07:40:04.000Z</time>
      </trkpt>
      <trkpt lat="45.2463" lon="5.62667">
        <ele>240.19999694824</ele>
        <time>2019-08-11T07:40:09.000Z</time>
      </trkpt>
      <trkpt lat="45.2463" lon="5.62656">
        <ele>241</ele>
        <time>2019-08-11T07:40:13.000Z</time>
      </trkpt>
      <trkpt lat="45.24631" lon="5.6265">
        <ele>241.39999389648</ele>
        <time>2019-08-11T07:40:15.000Z</time>
      </trkpt>
      <trkpt lat="45.24631" lon="5.62641">
        <ele>241.80000305176</ele>
        <time>2019-08-11T07:40:18.000Z</time>
      </trkpt>
      <trkpt lat="45.24632" lon="5.62633">
        <ele>242.60000610352</ele>
        <time>2019-08-11T07:40:21.000Z</time>
      </trkpt>
      <trkpt lat="45.24633" lon="5.62623">
        <ele>243.19999694824</ele>
        <time>2019-08-11T07:40:25.000Z</time>
      </trkpt>
      <trkpt lat="45.24635" lon="5.62618">
        <ele>243.60000610352</ele>
        <time>2019-08-11T07:40:27.000Z</time>
      </trkpt>
      <trkpt lat="45.24638" lon="5.62605">
        <ele>244.80000305176</ele>
        <time>2019-08-11T07:40:32.000Z</time>
      </trkpt>
      <trkpt lat="45.24641" lon="5.62601">
        <ele>245.19999694824</ele>
        <time>2019-08-11T07:40:34.000Z</time>
      </trkpt>
      <trkpt lat="45.24646" lon="5.62594">
        <ele>246</ele>
        <time>2019-08-11T07:40:38.000Z</time>
      </trkpt>
      <trkpt lat="45.2465" lon="5.62592">
        <ele>246.39999389648</ele>
        <time>2019-08-11T07:40:40.000Z</time>
      </trkpt>
      <trkpt lat="45.24656" lon="5.62586">
        <ele>247.19999694824</ele>
        <time>2019-08-11T07:40:44.000Z</time>
      </trkpt>
      <trkpt lat="45.2466" lon="5.62581">
        <ele>247.80000305176</ele>
        <time>2019-08-11T07:40:47.000Z</time>
      </trkpt>
      <trkpt lat="45.24663" lon="5.62577">
        <ele>248.39999389648</ele>
        <time>2019-08-11T07:40:49.000Z</time>
      </trkpt>
      <trkpt lat="45.24667" lon="5.62566">
        <ele>249.39999389648</ele>
        <time>2019-08-11T07:40:54.000Z</time>
      </trkpt>
      <trkpt lat="45.24666" lon="5.62564">
        <ele>249.60000610352</ele>
        <time>2019-08-11T07:40:55.000Z</time>
      </trkpt>
      <trkpt lat="45.24663" lon="5.62555">
        <ele>250</ele>
        <time>2019-08-11T07:40:59.000Z</time>
      </trkpt>
      <trkpt lat="45.2466" lon="5.62546">
        <ele>250.60000610352</ele>
        <time>2019-08-11T07:41:03.000Z</time>
      </trkpt>
      <trkpt lat="45.24657" lon="5.6254">
        <ele>251.19999694824</ele>
        <time>2019-08-11T07:41:06.000Z</time>
      </trkpt>
      <trkpt lat="45.24654" lon="5.62531">
        <ele>251.60000610352</ele>
        <time>2019-08-11T07:41:10.000Z</time>
      </trkpt>
      <trkpt lat="45.24652" lon="5.62522">
        <ele>252.39999389648</ele>
        <time>2019-08-11T07:41:13.000Z</time>
      </trkpt>
      <trkpt lat="45.24651" lon="5.62517">
        <ele>253</ele>
        <time>2019-08-11T07:41:15.000Z</time>
      </trkpt>
      <trkpt lat="45.24648" lon="5.62505">
        <ele>253.80000305176</ele>
        <time>2019-08-11T07:41:20.000Z</time>
      </trkpt>
      <trkpt lat="45.24648" lon="5.62502">
        <ele>253.80000305176</ele>
        <time>2019-08-11T07:41:21.000Z</time>
      </trkpt>
      <trkpt lat="45.24646" lon="5.62489">
        <ele>255.19999694824</ele>
        <time>2019-08-11T07:41:26.000Z</time>
      </trkpt>
      <trkpt lat="45.24646" lon="5.62483">
        <ele>255.60000610352</ele>
        <time>2019-08-11T07:41:28.000Z</time>
      </trkpt>
      <trkpt lat="45.24648" lon="5.62474">
        <ele>256.39999389648</ele>
        <time>2019-08-11T07:41:31.000Z</time>
      </trkpt>
      <trkpt lat="45.24651" lon="5.62466">
        <ele>257</ele>
        <time>2019-08-11T07:41:35.000Z</time>
      </trkpt>
      <trkpt lat="45.24654" lon="5.62461">
        <ele>257.39999389648</ele>
        <time>2019-08-11T07:41:42.000Z</time>
      </trkpt>
      <trkpt lat="45.24654" lon="5.62461">
        <ele>257.20001220703</ele>
        <time>2019-08-11T07:41:52.000Z</time>
      </trkpt>
      <trkpt lat="45.24654" lon="5.62461">
        <ele>257.39999389648</ele>
        <time>2019-08-11T07:42:06.000Z</time>
      </trkpt>
      <trkpt lat="45.24654" lon="5.62461">
        <ele>257.39999389648</ele>
        <time>2019-08-11T07:42:29.000Z</time>
      </trkpt>
      <trkpt lat="45.24656" lon="5.62458">
        <ele>257.60000610352</ele>
        <time>2019-08-11T07:42:44.000Z</time>
      </trkpt>
      <trkpt lat="45.24659" lon="5.6245">
        <ele>257.79998779297</ele>
        <time>2019-08-11T07:42:48.000Z</time>
      </trkpt>
      <trkpt lat="45.2466" lon="5.62449">
        <ele>257.79998779297</ele>
        <time>2019-08-11T07:42:49.000Z</time>
      </trkpt>
      <trkpt lat="45.24661" lon="5.62447">
        <ele>258</ele>
        <time>2019-08-11T07:42:50.000Z</time>
      </trkpt>
      <trkpt lat="45.24666" lon="5.62439">
        <ele>258.39999389648</ele>
        <time>2019-08-11T07:42:54.000Z</time>
      </trkpt>
      <trkpt lat="45.24669" lon="5.62434">
        <ele>258.79998779297</ele>
        <time>2019-08-11T07:42:56.000Z</time>
      </trkpt>
      <trkpt lat="45.24674" lon="5.62424">
        <ele>259</ele>
        <time>2019-08-11T07:43:00.000Z</time>
      </trkpt>
      <trkpt lat="45.24677" lon="5.62419">
        <ele>259.20001220703</ele>
        <time>2019-08-11T07:43:02.000Z</time>
      </trkpt>
      <trkpt lat="45.24684" lon="5.62407">
        <ele>260.20001220703</ele>
        <time>2019-08-11T07:43:07.000Z</time>
      </trkpt>
      <trkpt lat="45.24689" lon="5.62399">
        <ele>260.60000610352</ele>
        <time>2019-08-11T07:43:10.000Z</time>
      </trkpt>
      <trkpt lat="45.24702" lon="5.62377">
        <ele>261.39999389648</ele>
        <time>2019-08-11T07:43:18.000Z</time>
      </trkpt>
      <trkpt lat="45.24705" lon="5.62372">
        <ele>261.60000610352</ele>
        <time>2019-08-11T07:43:20.000Z</time>
      </trkpt>
      <trkpt lat="45.24707" lon="5.62355">
        <ele>262.20001220703</ele>
        <time>2019-08-11T07:43:25.000Z</time>
      </trkpt>
      <trkpt lat="45.24707" lon="5.62352">
        <ele>262.39999389648</ele>
        <time>2019-08-11T07:43:26.000Z</time>
      </trkpt>
      <trkpt lat="45.24704" lon="5.62339">
        <ele>263.60000610352</ele>
        <time>2019-08-11T07:43:31.000Z</time>
      </trkpt>
      <trkpt lat="45.24703" lon="5.62327">
        <ele>264.79998779297</ele>
        <time>2019-08-11T07:43:36.000Z</time>
      </trkpt>
      <trkpt lat="45.24701" lon="5.62322">
        <ele>265.39999389648</ele>
        <time>2019-08-11T07:43:38.000Z</time>
      </trkpt>
      <trkpt lat="45.247" lon="5.6232">
        <ele>265.60000610352</ele>
        <time>2019-08-11T07:43:39.000Z</time>
      </trkpt>
      <trkpt lat="45.24699" lon="5.62318">
        <ele>266</ele>
        <time>2019-08-11T07:43:40.000Z</time>
      </trkpt>
      <trkpt lat="45.24697" lon="5.62312">
        <ele>266.60000610352</ele>
        <time>2019-08-11T07:43:43.000Z</time>
      </trkpt>
      <trkpt lat="45.24696" lon="5.6231">
        <ele>267</ele>
        <time>2019-08-11T07:43:44.000Z</time>
      </trkpt>
      <trkpt lat="45.24694" lon="5.62302">
        <ele>268.20001220703</ele>
        <time>2019-08-11T07:43:48.000Z</time>
      </trkpt>
      <trkpt lat="45.24694" lon="5.623">
        <ele>268.60000610352</ele>
        <time>2019-08-11T07:43:49.000Z</time>
      </trkpt>
      <trkpt lat="45.24694" lon="5.62296">
        <ele>269</ele>
        <time>2019-08-11T07:43:51.000Z</time>
      </trkpt>
      <trkpt lat="45.24694" lon="5.62294">
        <ele>269.20001220703</ele>
        <time>2019-08-11T07:43:52.000Z</time>
      </trkpt>
      <trkpt lat="45.24694" lon="5.62288">
        <ele>270</ele>
        <time>2019-08-11T07:43:55.000Z</time>
      </trkpt>
      <trkpt lat="45.24694" lon="5.62283">
        <ele>270.39999389648</ele>
        <time>2019-08-11T07:43:57.000Z</time>
      </trkpt>
      <trkpt lat="45.24693" lon="5.62275">
        <ele>271.39999389648</ele>
        <time>2019-08-11T07:44:01.000Z</time>
      </trkpt>
      <trkpt lat="45.24694" lon="5.62263">
        <ele>272.39999389648</ele>
        <time>2019-08-11T07:44:06.000Z</time>
      </trkpt>
      <trkpt lat="45.24695" lon="5.62259">
        <ele>272.79998779297</ele>
        <time>2019-08-11T07:44:08.000Z</time>
      </trkpt>
      <trkpt lat="45.24696" lon="5.62252">
        <ele>273.60000610352</ele>
        <time>2019-08-11T07:44:11.000Z</time>
      </trkpt>
      <trkpt lat="45.24696" lon="5.62248">
        <ele>274</ele>
        <time>2019-08-11T07:44:13.000Z</time>
      </trkpt>
      <trkpt lat="45.24698" lon="5.62242">
        <ele>274.60000610352</ele>
        <time>2019-08-11T07:44:16.000Z</time>
      </trkpt>
      <trkpt lat="45.24699" lon="5.62233">
        <ele>275.60000610352</ele>
        <time>2019-08-11T07:44:20.000Z</time>
      </trkpt>
      <trkpt lat="45.247" lon="5.62231">
        <ele>275.79998779297</ele>
        <time>2019-08-11T07:44:21.000Z</time>
      </trkpt>
      <trkpt lat="45.24701" lon="5.62226">
        <ele>276.39999389648</ele>
        <time>2019-08-11T07:44:24.000Z</time>
      </trkpt>
      <trkpt lat="45.24703" lon="5.62222">
        <ele>277</ele>
        <time>2019-08-11T07:44:27.000Z</time>
      </trkpt>
      <trkpt lat="45.24707" lon="5.62214">
        <ele>278.20001220703</ele>
        <time>2019-08-11T07:44:32.000Z</time>
      </trkpt>
      <trkpt lat="45.24708" lon="5.62212">
        <ele>278.39999389648</ele>
        <time>2019-08-11T07:44:33.000Z</time>
      </trkpt>
      <trkpt lat="45.24714" lon="5.62207">
        <ele>279.60000610352</ele>
        <time>2019-08-11T07:44:38.000Z</time>
      </trkpt>
      <trkpt lat="45.24717" lon="5.62204">
        <ele>280</ele>
        <time>2019-08-11T07:44:40.000Z</time>
      </trkpt>
      <trkpt lat="45.2472" lon="5.622">
        <ele>281</ele>
        <time>2019-08-11T07:44:43.000Z</time>
      </trkpt>
      <trkpt lat="45.24724" lon="5.62196">
        <ele>281.60000610352</ele>
        <time>2019-08-11T07:44:46.000Z</time>
      </trkpt>
      <trkpt lat="45.24727" lon="5.62192">
        <ele>282.20001220703</ele>
        <time>2019-08-11T07:44:49.000Z</time>
      </trkpt>
      <trkpt lat="45.24731" lon="5.62188">
        <ele>282.79998779297</ele>
        <time>2019-08-11T07:44:52.000Z</time>
      </trkpt>
      <trkpt lat="45.24734" lon="5.62185">
        <ele>283.39999389648</ele>
        <time>2019-08-11T07:44:54.000Z</time>
      </trkpt>
      <trkpt lat="45.24737" lon="5.62182">
        <ele>283.79998779297</ele>
        <time>2019-08-11T07:44:56.000Z</time>
      </trkpt>
      <trkpt lat="45.2474" lon="5.62177">
        <ele>284.20001220703</ele>
        <time>2019-08-11T07:44:58.000Z</time>
      </trkpt>
      <trkpt lat="45.24741" lon="5.62176">
        <ele>284.60000610352</ele>
        <time>2019-08-11T07:44:59.000Z</time>
      </trkpt>
      <trkpt lat="45.24749" lon="5.62166">
        <ele>285.79998779297</ele>
        <time>2019-08-11T07:45:04.000Z</time>
      </trkpt>
      <trkpt lat="45.24752" lon="5.62161">
        <ele>286.20001220703</ele>
        <time>2019-08-11T07:45:06.000Z</time>
      </trkpt>
      <trkpt lat="45.24755" lon="5.62156">
        <ele>286.60000610352</ele>
        <time>2019-08-11T07:45:09.000Z</time>
      </trkpt>
      <trkpt lat="45.24757" lon="5.62154">
        <ele>286.79998779297</ele>
        <time>2019-08-11T07:45:10.000Z</time>
      </trkpt>
      <trkpt lat="45.24763" lon="5.62144">
        <ele>287.79998779297</ele>
        <time>2019-08-11T07:45:16.000Z</time>
      </trkpt>
      <trkpt lat="45.24768" lon="5.62131">
        <ele>289</ele>
        <time>2019-08-11T07:45:22.000Z</time>
      </trkpt>
      <trkpt lat="45.2477" lon="5.6212">
        <ele>289.79998779297</ele>
        <time>2019-08-11T07:45:27.000Z</time>
      </trkpt>
      <trkpt lat="45.2477" lon="5.62118">
        <ele>290</ele>
        <time>2019-08-11T07:45:28.000Z</time>
      </trkpt>
      <trkpt lat="45.24769" lon="5.62116">
        <ele>290.20001220703</ele>
        <time>2019-08-11T07:45:29.000Z</time>
      </trkpt>
      <trkpt lat="45.24767" lon="5.6211">
        <ele>290.79998779297</ele>
        <time>2019-08-11T07:45:32.000Z</time>
      </trkpt>
      <trkpt lat="45.24766" lon="5.62103">
        <ele>291.20001220703</ele>
        <time>2019-08-11T07:45:35.000Z</time>
      </trkpt>
      <trkpt lat="45.24764" lon="5.621">
        <ele>291.60000610352</ele>
        <time>2019-08-11T07:45:37.000Z</time>
      </trkpt>
      <trkpt lat="45.24764" lon="5.62091">
        <ele>292.20001220703</ele>
        <time>2019-08-11T07:45:42.000Z</time>
      </trkpt>
      <trkpt lat="45.24765" lon="5.62085">
        <ele>292.79998779297</ele>
        <time>2019-08-11T07:45:45.000Z</time>
      </trkpt>
      <trkpt lat="45.24764" lon="5.62082">
        <ele>292.79998779297</ele>
        <time>2019-08-11T07:45:46.000Z</time>
      </trkpt>
      <trkpt lat="45.24763" lon="5.62079">
        <ele>293</ele>
        <time>2019-08-11T07:45:47.000Z</time>
      </trkpt>
      <trkpt lat="45.24761" lon="5.62073">
        <ele>293.39999389648</ele>
        <time>2019-08-11T07:45:49.000Z</time>
      </trkpt>
      <trkpt lat="45.24761" lon="5.62068">
        <ele>293.79998779297</ele>
        <time>2019-08-11T07:45:51.000Z</time>
      </trkpt>
      <trkpt lat="45.24761" lon="5.62065">
        <ele>293.79998779297</ele>
        <time>2019-08-11T07:45:52.000Z</time>
      </trkpt>
      <trkpt lat="45.2476" lon="5.62056">
        <ele>294.60000610352</ele>
        <time>2019-08-11T07:45:55.000Z</time>
      </trkpt>
      <trkpt lat="45.24759" lon="5.62045">
        <ele>295</ele>
        <time>2019-08-11T07:45:58.000Z</time>
      </trkpt>
      <trkpt lat="45.24759" lon="5.62031">
        <ele>295.60000610352</ele>
        <time>2019-08-11T07:46:02.000Z</time>
      </trkpt>
      <trkpt lat="45.24759" lon="5.62027">
        <ele>295.79998779297</ele>
        <time>2019-08-11T07:46:03.000Z</time>
      </trkpt>
      <trkpt lat="45.24764" lon="5.62016">
        <ele>296.60000610352</ele>
        <time>2019-08-11T07:46:08.000Z</time>
      </trkpt>
      <trkpt lat="45.24768" lon="5.62013">
        <ele>297</ele>
        <time>2019-08-11T07:46:10.000Z</time>
      </trkpt>
      <trkpt lat="45.24773" lon="5.62011">
        <ele>297</ele>
        <time>2019-08-11T07:46:12.000Z</time>
      </trkpt>
      <trkpt lat="45.24779" lon="5.62013">
        <ele>297.39999389648</ele>
        <time>2019-08-11T07:46:16.000Z</time>
      </trkpt>
      <trkpt lat="45.2478" lon="5.62017">
        <ele>297.60000610352</ele>
        <time>2019-08-11T07:46:18.000Z</time>
      </trkpt>
      <trkpt lat="45.24781" lon="5.62026">
        <ele>298</ele>
        <time>2019-08-11T07:46:21.000Z</time>
      </trkpt>
      <trkpt lat="45.24783" lon="5.62036">
        <ele>298.20001220703</ele>
        <time>2019-08-11T07:46:25.000Z</time>
      </trkpt>
      <trkpt lat="45.24784" lon="5.62039">
        <ele>298.60000610352</ele>
        <time>2019-08-11T07:46:26.000Z</time>
      </trkpt>
      <trkpt lat="45.24785" lon="5.62049">
        <ele>299.39999389648</ele>
        <time>2019-08-11T07:46:30.000Z</time>
      </trkpt>
      <trkpt lat="45.24785" lon="5.62051">
        <ele>299.60000610352</ele>
        <time>2019-08-11T07:46:31.000Z</time>
      </trkpt>
      <trkpt lat="45.24787" lon="5.62059">
        <ele>300.39999389648</ele>
        <time>2019-08-11T07:46:34.000Z</time>
      </trkpt>
      <trkpt lat="45.24787" lon="5.62062">
        <ele>300.60000610352</ele>
        <time>2019-08-11T07:46:35.000Z</time>
      </trkpt>
      <trkpt lat="45.24787" lon="5.62065">
        <ele>300.79998779297</ele>
        <time>2019-08-11T07:46:36.000Z</time>
      </trkpt>
      <trkpt lat="45.2479" lon="5.62076">
        <ele>301.60000610352</ele>
        <time>2019-08-11T07:46:40.000Z</time>
      </trkpt>
      <trkpt lat="45.24791" lon="5.6208">
        <ele>301.79998779297</ele>
        <time>2019-08-11T07:46:41.000Z</time>
      </trkpt>
      <trkpt lat="45.24793" lon="5.62089">
        <ele>302.39999389648</ele>
        <time>2019-08-11T07:46:44.000Z</time>
      </trkpt>
      <trkpt lat="45.24794" lon="5.62099">
        <ele>302.79998779297</ele>
        <time>2019-08-11T07:46:47.000Z</time>
      </trkpt>
      <trkpt lat="45.24797" lon="5.62113">
        <ele>303.79998779297</ele>
        <time>2019-08-11T07:46:51.000Z</time>
      </trkpt>
      <trkpt lat="45.24797" lon="5.62116">
        <ele>304</ele>
        <time>2019-08-11T07:46:52.000Z</time>
      </trkpt>
      <trkpt lat="45.24798" lon="5.62128">
        <ele>305.20001220703</ele>
        <time>2019-08-11T07:46:57.000Z</time>
      </trkpt>
      <trkpt lat="45.24804" lon="5.62138">
        <ele>306.20001220703</ele>
        <time>2019-08-11T07:47:02.000Z</time>
      </trkpt>
      <trkpt lat="45.24805" lon="5.62138">
        <ele>306.39999389648</ele>
        <time>2019-08-11T07:47:03.000Z</time>
      </trkpt>
      <trkpt lat="45.24808" lon="5.62134">
        <ele>307.20001220703</ele>
        <time>2019-08-11T07:47:06.000Z</time>
      </trkpt>
      <trkpt lat="45.2481" lon="5.62134">
        <ele>307.39999389648</ele>
        <time>2019-08-11T07:47:07.000Z</time>
      </trkpt>
      <trkpt lat="45.24813" lon="5.62131">
        <ele>308.20001220703</ele>
        <time>2019-08-11T07:47:10.000Z</time>
      </trkpt>
      <trkpt lat="45.24817" lon="5.62127">
        <ele>308.60000610352</ele>
        <time>2019-08-11T07:47:13.000Z</time>
      </trkpt>
      <trkpt lat="45.24821" lon="5.62124">
        <ele>309.20001220703</ele>
        <time>2019-08-11T07:47:16.000Z</time>
      </trkpt>
      <trkpt lat="45.24824" lon="5.62121">
        <ele>309.60000610352</ele>
        <time>2019-08-11T07:47:18.000Z</time>
      </trkpt>
      <trkpt lat="45.24827" lon="5.62118">
        <ele>310.20001220703</ele>
        <time>2019-08-11T07:47:21.000Z</time>
      </trkpt>
      <trkpt lat="45.24829" lon="5.62117">
        <ele>310.60000610352</ele>
        <time>2019-08-11T07:47:23.000Z</time>
      </trkpt>
      <trkpt lat="45.24833" lon="5.62115">
        <ele>311.20001220703</ele>
        <time>2019-08-11T07:47:26.000Z</time>
      </trkpt>
      <trkpt lat="45.24837" lon="5.62113">
        <ele>312</ele>
        <time>2019-08-11T07:47:29.000Z</time>
      </trkpt>
      <trkpt lat="45.2484" lon="5.62111">
        <ele>312.60000610352</ele>
        <time>2019-08-11T07:47:31.000Z</time>
      </trkpt>
      <trkpt lat="45.24845" lon="5.62108">
        <ele>313</ele>
        <time>2019-08-11T07:47:34.000Z</time>
      </trkpt>
      <trkpt lat="45.24848" lon="5.62106">
        <ele>313.39999389648</ele>
        <time>2019-08-11T07:47:36.000Z</time>
      </trkpt>
      <trkpt lat="45.24851" lon="5.62104">
        <ele>314</ele>
        <time>2019-08-11T07:47:38.000Z</time>
      </trkpt>
      <trkpt lat="45.24854" lon="5.62102">
        <ele>314.39999389648</ele>
        <time>2019-08-11T07:47:40.000Z</time>
      </trkpt>
      <trkpt lat="45.24856" lon="5.62099">
        <ele>314.60000610352</ele>
        <time>2019-08-11T07:47:42.000Z</time>
      </trkpt>
      <trkpt lat="45.24859" lon="5.62097">
        <ele>315</ele>
        <time>2019-08-11T07:47:44.000Z</time>
      </trkpt>
      <trkpt lat="45.2486" lon="5.62096">
        <ele>315.20001220703</ele>
        <time>2019-08-11T07:47:45.000Z</time>
      </trkpt>
      <trkpt lat="45.24863" lon="5.62093">
        <ele>315.79998779297</ele>
        <time>2019-08-11T07:47:47.000Z</time>
      </trkpt>
      <trkpt lat="45.2487" lon="5.62088">
        <ele>316.60000610352</ele>
        <time>2019-08-11T07:47:51.000Z</time>
      </trkpt>
      <trkpt lat="45.24871" lon="5.62087">
        <ele>316.79998779297</ele>
        <time>2019-08-11T07:47:52.000Z</time>
      </trkpt>
      <trkpt lat="45.24875" lon="5.62084">
        <ele>317.20001220703</ele>
        <time>2019-08-11T07:47:54.000Z</time>
      </trkpt>
      <trkpt lat="45.24879" lon="5.62081">
        <ele>318</ele>
        <time>2019-08-11T07:47:57.000Z</time>
      </trkpt>
      <trkpt lat="45.24882" lon="5.6208">
        <ele>318.60000610352</ele>
        <time>2019-08-11T07:47:59.000Z</time>
      </trkpt>
      <trkpt lat="45.24885" lon="5.62079">
        <ele>318.79998779297</ele>
        <time>2019-08-11T07:48:01.000Z</time>
      </trkpt>
      <trkpt lat="45.24887" lon="5.62079">
        <ele>319.20001220703</ele>
        <time>2019-08-11T07:48:02.000Z</time>
      </trkpt>
      <trkpt lat="45.24891" lon="5.62079">
        <ele>319.39999389648</ele>
        <time>2019-08-11T07:48:04.000Z</time>
      </trkpt>
      <trkpt lat="45.24894" lon="5.62079">
        <ele>319.79998779297</ele>
        <time>2019-08-11T07:48:06.000Z</time>
      </trkpt>
      <trkpt lat="45.24905" lon="5.62076">
        <ele>320.79998779297</ele>
        <time>2019-08-11T07:48:11.000Z</time>
      </trkpt>
      <trkpt lat="45.24907" lon="5.62075">
        <ele>321.20001220703</ele>
        <time>2019-08-11T07:48:12.000Z</time>
      </trkpt>
      <trkpt lat="45.24909" lon="5.62075">
        <ele>321.39999389648</ele>
        <time>2019-08-11T07:48:13.000Z</time>
      </trkpt>
      <trkpt lat="45.24914" lon="5.62075">
        <ele>321.79998779297</ele>
        <time>2019-08-11T07:48:16.000Z</time>
      </trkpt>
      <trkpt lat="45.24915" lon="5.62075">
        <ele>322.20001220703</ele>
        <time>2019-08-11T07:48:17.000Z</time>
      </trkpt>
      <trkpt lat="45.24918" lon="5.62075">
        <ele>322.60000610352</ele>
        <time>2019-08-11T07:48:19.000Z</time>
      </trkpt>
      <trkpt lat="45.24923" lon="5.62075">
        <ele>323.20001220703</ele>
        <time>2019-08-11T07:48:22.000Z</time>
      </trkpt>
      <trkpt lat="45.24925" lon="5.62075">
        <ele>323.60000610352</ele>
        <time>2019-08-11T07:48:24.000Z</time>
      </trkpt>
      <trkpt lat="45.24929" lon="5.62075">
        <ele>323.79998779297</ele>
        <time>2019-08-11T07:48:26.000Z</time>
      </trkpt>
      <trkpt lat="45.24932" lon="5.62076">
        <ele>324.20001220703</ele>
        <time>2019-08-11T07:48:28.000Z</time>
      </trkpt>
      <trkpt lat="45.24936" lon="5.62076">
        <ele>324.60000610352</ele>
        <time>2019-08-11T07:48:30.000Z</time>
      </trkpt>
      <trkpt lat="45.24938" lon="5.62076">
        <ele>325</ele>
        <time>2019-08-11T07:48:32.000Z</time>
      </trkpt>
      <trkpt lat="45.2494" lon="5.62078">
        <ele>325.20001220703</ele>
        <time>2019-08-11T07:48:33.000Z</time>
      </trkpt>
      <trkpt lat="45.24943" lon="5.62079">
        <ele>325.79998779297</ele>
        <time>2019-08-11T07:48:35.000Z</time>
      </trkpt>
      <trkpt lat="45.2495" lon="5.6208">
        <ele>326.60000610352</ele>
        <time>2019-08-11T07:48:39.000Z</time>
      </trkpt>
      <trkpt lat="45.24951" lon="5.62079">
        <ele>326.79998779297</ele>
        <time>2019-08-11T07:48:40.000Z</time>
      </trkpt>
      <trkpt lat="45.24961" lon="5.62082">
        <ele>327.60000610352</ele>
        <time>2019-08-11T07:48:45.000Z</time>
      </trkpt>
      <trkpt lat="45.24964" lon="5.62083">
        <ele>328.20001220703</ele>
        <time>2019-08-11T07:48:47.000Z</time>
      </trkpt>
      <trkpt lat="45.2497" lon="5.62084">
        <ele>328.60000610352</ele>
        <time>2019-08-11T07:48:50.000Z</time>
      </trkpt>
      <trkpt lat="45.24971" lon="5.62084">
        <ele>329</ele>
        <time>2019-08-11T07:48:51.000Z</time>
      </trkpt>
      <trkpt lat="45.24973" lon="5.62085">
        <ele>329.20001220703</ele>
        <time>2019-08-11T07:48:52.000Z</time>
      </trkpt>
      <trkpt lat="45.24978" lon="5.62086">
        <ele>329.60000610352</ele>
        <time>2019-08-11T07:48:55.000Z</time>
      </trkpt>
      <trkpt lat="45.24981" lon="5.62086">
        <ele>329.79998779297</ele>
        <time>2019-08-11T07:48:56.000Z</time>
      </trkpt>
      <trkpt lat="45.24983" lon="5.62087">
        <ele>330</ele>
        <time>2019-08-11T07:48:57.000Z</time>
      </trkpt>
      <trkpt lat="45.24988" lon="5.62087">
        <ele>330.79998779297</ele>
        <time>2019-08-11T07:49:00.000Z</time>
      </trkpt>
      <trkpt lat="45.24991" lon="5.62087">
        <ele>331</ele>
        <time>2019-08-11T07:49:02.000Z</time>
      </trkpt>
      <trkpt lat="45.24994" lon="5.62086">
        <ele>331.39999389648</ele>
        <time>2019-08-11T07:49:04.000Z</time>
      </trkpt>
      <trkpt lat="45.24996" lon="5.62086">
        <ele>331.79998779297</ele>
        <time>2019-08-11T07:49:05.000Z</time>
      </trkpt>
      <trkpt lat="45.24998" lon="5.62086">
        <ele>332.20001220703</ele>
        <time>2019-08-11T07:49:06.000Z</time>
      </trkpt>
      <trkpt lat="45.25005" lon="5.62085">
        <ele>333</ele>
        <time>2019-08-11T07:49:10.000Z</time>
      </trkpt>
      <trkpt lat="45.25007" lon="5.62085">
        <ele>333.20001220703</ele>
        <time>2019-08-11T07:49:11.000Z</time>
      </trkpt>
      <trkpt lat="45.25013" lon="5.62085">
        <ele>334</ele>
        <time>2019-08-11T07:49:15.000Z</time>
      </trkpt>
      <trkpt lat="45.25017" lon="5.62085">
        <ele>334.60000610352</ele>
        <time>2019-08-11T07:49:18.000Z</time>
      </trkpt>
      <trkpt lat="45.25021" lon="5.62086">
        <ele>335</ele>
        <time>2019-08-11T07:49:20.000Z</time>
      </trkpt>
      <trkpt lat="45.25025" lon="5.62086">
        <ele>335.60000610352</ele>
        <time>2019-08-11T07:49:22.000Z</time>
      </trkpt>
      <trkpt lat="45.25027" lon="5.62086">
        <ele>335.60000610352</ele>
        <time>2019-08-11T07:49:23.000Z</time>
      </trkpt>
      <trkpt lat="45.2503" lon="5.62085">
        <ele>336</ele>
        <time>2019-08-11T07:49:25.000Z</time>
      </trkpt>
      <trkpt lat="45.25034" lon="5.62085">
        <ele>336.60000610352</ele>
        <time>2019-08-11T07:49:27.000Z</time>
      </trkpt>
      <trkpt lat="45.2504" lon="5.62085">
        <ele>337.39999389648</ele>
        <time>2019-08-11T07:49:31.000Z</time>
      </trkpt>
      <trkpt lat="45.25048" lon="5.62086">
        <ele>338.39999389648</ele>
        <time>2019-08-11T07:49:36.000Z</time>
      </trkpt>
      <trkpt lat="45.2505" lon="5.62086">
        <ele>338.60000610352</ele>
        <time>2019-08-11T07:49:37.000Z</time>
      </trkpt>
      <trkpt lat="45.25052" lon="5.62086">
        <ele>338.79998779297</ele>
        <time>2019-08-11T07:49:38.000Z</time>
      </trkpt>
      <trkpt lat="45.25058" lon="5.62086">
        <ele>339.39999389648</ele>
        <time>2019-08-11T07:49:42.000Z</time>
      </trkpt>
      <trkpt lat="45.2506" lon="5.62086">
        <ele>339.60000610352</ele>
        <time>2019-08-11T07:49:43.000Z</time>
      </trkpt>
      <trkpt lat="45.25067" lon="5.62083">
        <ele>340.79998779297</ele>
        <time>2019-08-11T07:49:47.000Z</time>
      </trkpt>
      <trkpt lat="45.25069" lon="5.62083">
        <ele>340.79998779297</ele>
        <time>2019-08-11T07:49:48.000Z</time>
      </trkpt>
      <trkpt lat="45.25078" lon="5.62079">
        <ele>341.79998779297</ele>
        <time>2019-08-11T07:49:53.000Z</time>
      </trkpt>
      <trkpt lat="45.25088" lon="5.62076">
        <ele>342.79998779297</ele>
        <time>2019-08-11T07:49:59.000Z</time>
      </trkpt>
      <trkpt lat="45.25098" lon="5.62069">
        <ele>344</ele>
        <time>2019-08-11T07:50:05.000Z</time>
      </trkpt>
      <trkpt lat="45.251" lon="5.62068">
        <ele>344</ele>
        <time>2019-08-11T07:50:06.000Z</time>
      </trkpt>
      <trkpt lat="45.25106" lon="5.62065">
        <ele>345</ele>
        <time>2019-08-11T07:50:10.000Z</time>
      </trkpt>
      <trkpt lat="45.25115" lon="5.62056">
        <ele>346.39999389648</ele>
        <time>2019-08-11T07:50:17.000Z</time>
      </trkpt>
      <trkpt lat="45.25123" lon="5.62049">
        <ele>347.39999389648</ele>
        <time>2019-08-11T07:50:23.000Z</time>
      </trkpt>
      <trkpt lat="45.25125" lon="5.62047">
        <ele>347.79998779297</ele>
        <time>2019-08-11T07:50:25.000Z</time>
      </trkpt>
      <trkpt lat="45.25127" lon="5.62045">
        <ele>348.20001220703</ele>
        <time>2019-08-11T07:50:27.000Z</time>
      </trkpt>
      <trkpt lat="45.25128" lon="5.62043">
        <ele>348.39999389648</ele>
        <time>2019-08-11T07:50:28.000Z</time>
      </trkpt>
      <trkpt lat="45.25133" lon="5.62039">
        <ele>349.20001220703</ele>
        <time>2019-08-11T07:50:32.000Z</time>
      </trkpt>
      <trkpt lat="45.25134" lon="5.62038">
        <ele>349.39999389648</ele>
        <time>2019-08-11T07:50:33.000Z</time>
      </trkpt>
      <trkpt lat="45.2514" lon="5.62032">
        <ele>350.60000610352</ele>
        <time>2019-08-11T07:50:38.000Z</time>
      </trkpt>
      <trkpt lat="45.25147" lon="5.62028">
        <ele>351.60000610352</ele>
        <time>2019-08-11T07:50:43.000Z</time>
      </trkpt>
      <trkpt lat="45.25149" lon="5.62027">
        <ele>351.79998779297</ele>
        <time>2019-08-11T07:50:44.000Z</time>
      </trkpt>
      <trkpt lat="45.25156" lon="5.62023">
        <ele>352.79998779297</ele>
        <time>2019-08-11T07:50:49.000Z</time>
      </trkpt>
      <trkpt lat="45.2516" lon="5.62021">
        <ele>353.20001220703</ele>
        <time>2019-08-11T07:50:51.000Z</time>
      </trkpt>
      <trkpt lat="45.25166" lon="5.62018">
        <ele>354</ele>
        <time>2019-08-11T07:50:55.000Z</time>
      </trkpt>
      <trkpt lat="45.25167" lon="5.62017">
        <ele>354.20001220703</ele>
        <time>2019-08-11T07:50:56.000Z</time>
      </trkpt>
      <trkpt lat="45.25173" lon="5.62014">
        <ele>355.20001220703</ele>
        <time>2019-08-11T07:50:59.000Z</time>
      </trkpt>
      <trkpt lat="45.25175" lon="5.62013">
        <ele>355.39999389648</ele>
        <time>2019-08-11T07:51:00.000Z</time>
      </trkpt>
      <trkpt lat="45.25181" lon="5.6201">
        <ele>355.79998779297</ele>
        <time>2019-08-11T07:51:03.000Z</time>
      </trkpt>
      <trkpt lat="45.25182" lon="5.62009">
        <ele>356</ele>
        <time>2019-08-11T07:51:04.000Z</time>
      </trkpt>
      <trkpt lat="45.25187" lon="5.62006">
        <ele>356.60000610352</ele>
        <time>2019-08-11T07:51:07.000Z</time>
      </trkpt>
      <trkpt lat="45.25193" lon="5.62002">
        <ele>357</ele>
        <time>2019-08-11T07:51:10.000Z</time>
      </trkpt>
      <trkpt lat="45.25201" lon="5.61998">
        <ele>357.79998779297</ele>
        <time>2019-08-11T07:51:14.000Z</time>
      </trkpt>
      <trkpt lat="45.25203" lon="5.61996">
        <ele>358.20001220703</ele>
        <time>2019-08-11T07:51:15.000Z</time>
      </trkpt>
      <trkpt lat="45.2521" lon="5.61992">
        <ele>359</ele>
        <time>2019-08-11T07:51:19.000Z</time>
      </trkpt>
      <trkpt lat="45.25213" lon="5.61989">
        <ele>359.39999389648</ele>
        <time>2019-08-11T07:51:21.000Z</time>
      </trkpt>
      <trkpt lat="45.25221" lon="5.61983">
        <ele>360</ele>
        <time>2019-08-11T07:51:26.000Z</time>
      </trkpt>
      <trkpt lat="45.25229" lon="5.61982">
        <ele>360.60000610352</ele>
        <time>2019-08-11T07:51:31.000Z</time>
      </trkpt>
      <trkpt lat="45.2523" lon="5.61981">
        <ele>360.60000610352</ele>
        <time>2019-08-11T07:51:32.000Z</time>
      </trkpt>
      <trkpt lat="45.25235" lon="5.6198">
        <ele>361</ele>
        <time>2019-08-11T07:51:35.000Z</time>
      </trkpt>
      <trkpt lat="45.25236" lon="5.6198">
        <ele>361.20001220703</ele>
        <time>2019-08-11T07:51:36.000Z</time>
      </trkpt>
      <trkpt lat="45.25239" lon="5.6198">
        <ele>361.39999389648</ele>
        <time>2019-08-11T07:51:38.000Z</time>
      </trkpt>
      <trkpt lat="45.25248" lon="5.61976">
        <ele>362</ele>
        <time>2019-08-11T07:51:43.000Z</time>
      </trkpt>
      <trkpt lat="45.2525" lon="5.61976">
        <ele>362</ele>
        <time>2019-08-11T07:51:44.000Z</time>
      </trkpt>
      <trkpt lat="45.25259" lon="5.6197">
        <ele>362.79998779297</ele>
        <time>2019-08-11T07:51:49.000Z</time>
      </trkpt>
      <trkpt lat="45.25263" lon="5.61965">
        <ele>363.20001220703</ele>
        <time>2019-08-11T07:51:52.000Z</time>
      </trkpt>
      <trkpt lat="45.25267" lon="5.61959">
        <ele>363.79998779297</ele>
        <time>2019-08-11T07:51:55.000Z</time>
      </trkpt>
      <trkpt lat="45.25269" lon="5.61951">
        <ele>364.39999389648</ele>
        <time>2019-08-11T07:51:58.000Z</time>
      </trkpt>
      <trkpt lat="45.25268" lon="5.61949">
        <ele>364.60000610352</ele>
        <time>2019-08-11T07:51:59.000Z</time>
      </trkpt>
      <trkpt lat="45.25267" lon="5.61948">
        <ele>364.79998779297</ele>
        <time>2019-08-11T07:52:00.000Z</time>
      </trkpt>
      <trkpt lat="45.25263" lon="5.61947">
        <ele>365.60000610352</ele>
        <time>2019-08-11T07:52:03.000Z</time>
      </trkpt>
      <trkpt lat="45.25262" lon="5.61948">
        <ele>365.79998779297</ele>
        <time>2019-08-11T07:52:04.000Z</time>
      </trkpt>
      <trkpt lat="45.2526" lon="5.61949">
        <ele>366</ele>
        <time>2019-08-11T07:52:05.000Z</time>
      </trkpt>
      <trkpt lat="45.25257" lon="5.61951">
        <ele>366.39999389648</ele>
        <time>2019-08-11T07:52:07.000Z</time>
      </trkpt>
      <trkpt lat="45.25256" lon="5.61953">
        <ele>366.60000610352</ele>
        <time>2019-08-11T07:52:08.000Z</time>
      </trkpt>
      <trkpt lat="45.25255" lon="5.61958">
        <ele>367.20001220703</ele>
        <time>2019-08-11T07:52:10.000Z</time>
      </trkpt>
      <trkpt lat="45.2525" lon="5.61965">
        <ele>367.60000610352</ele>
        <time>2019-08-11T07:52:14.000Z</time>
      </trkpt>
      <trkpt lat="45.25247" lon="5.61967">
        <ele>367.79998779297</ele>
        <time>2019-08-11T07:52:16.000Z</time>
      </trkpt>
      <trkpt lat="45.25244" lon="5.61969">
        <ele>368.39999389648</ele>
        <time>2019-08-11T07:52:18.000Z</time>
      </trkpt>
      <trkpt lat="45.25239" lon="5.61971">
        <ele>368.79998779297</ele>
        <time>2019-08-11T07:52:21.000Z</time>
      </trkpt>
      <trkpt lat="45.25228" lon="5.61973">
        <ele>369.60000610352</ele>
        <time>2019-08-11T07:52:28.000Z</time>
      </trkpt>
      <trkpt lat="45.25223" lon="5.61973">
        <ele>369.79998779297</ele>
        <time>2019-08-11T07:52:31.000Z</time>
      </trkpt>
      <trkpt lat="45.25219" lon="5.61972">
        <ele>370.60000610352</ele>
        <time>2019-08-11T07:52:34.000Z</time>
      </trkpt>
      <trkpt lat="45.25217" lon="5.61971">
        <ele>370.79998779297</ele>
        <time>2019-08-11T07:52:35.000Z</time>
      </trkpt>
      <trkpt lat="45.25216" lon="5.61971">
        <ele>371</ele>
        <time>2019-08-11T07:52:36.000Z</time>
      </trkpt>
      <trkpt lat="45.25211" lon="5.61971">
        <ele>371.39999389648</ele>
        <time>2019-08-11T07:52:39.000Z</time>
      </trkpt>
      <trkpt lat="45.25207" lon="5.61971">
        <ele>372</ele>
        <time>2019-08-11T07:52:42.000Z</time>
      </trkpt>
      <trkpt lat="45.25203" lon="5.61971">
        <ele>372.60000610352</ele>
        <time>2019-08-11T07:52:44.000Z</time>
      </trkpt>
      <trkpt lat="45.25197" lon="5.61971">
        <ele>373.20001220703</ele>
        <time>2019-08-11T07:52:48.000Z</time>
      </trkpt>
      <trkpt lat="45.25194" lon="5.61971">
        <ele>373.60000610352</ele>
        <time>2019-08-11T07:52:50.000Z</time>
      </trkpt>
      <trkpt lat="45.25188" lon="5.61972">
        <ele>374.20001220703</ele>
        <time>2019-08-11T07:52:54.000Z</time>
      </trkpt>
      <trkpt lat="45.25185" lon="5.61973">
        <ele>374.60000610352</ele>
        <time>2019-08-11T07:52:56.000Z</time>
      </trkpt>
      <trkpt lat="45.25181" lon="5.61974">
        <ele>375.39999389648</ele>
        <time>2019-08-11T07:52:59.000Z</time>
      </trkpt>
      <trkpt lat="45.25176" lon="5.61974">
        <ele>376.20001220703</ele>
        <time>2019-08-11T07:53:02.000Z</time>
      </trkpt>
      <trkpt lat="45.25174" lon="5.61975">
        <ele>376.39999389648</ele>
        <time>2019-08-11T07:53:03.000Z</time>
      </trkpt>
      <trkpt lat="45.25168" lon="5.61977">
        <ele>377.20001220703</ele>
        <time>2019-08-11T07:53:07.000Z</time>
      </trkpt>
      <trkpt lat="45.25165" lon="5.61978">
        <ele>377.60000610352</ele>
        <time>2019-08-11T07:53:09.000Z</time>
      </trkpt>
      <trkpt lat="45.25157" lon="5.61979">
        <ele>378.39999389648</ele>
        <time>2019-08-11T07:53:13.000Z</time>
      </trkpt>
      <trkpt lat="45.25154" lon="5.61979">
        <ele>378.79998779297</ele>
        <time>2019-08-11T07:53:15.000Z</time>
      </trkpt>
      <trkpt lat="45.25152" lon="5.6198">
        <ele>379</ele>
        <time>2019-08-11T07:53:16.000Z</time>
      </trkpt>
      <trkpt lat="45.25148" lon="5.6198">
        <ele>379.60000610352</ele>
        <time>2019-08-11T07:53:18.000Z</time>
      </trkpt>
      <trkpt lat="45.25144" lon="5.61981">
        <ele>379.79998779297</ele>
        <time>2019-08-11T07:53:20.000Z</time>
      </trkpt>
      <trkpt lat="45.25138" lon="5.61981">
        <ele>380.20001220703</ele>
        <time>2019-08-11T07:53:23.000Z</time>
      </trkpt>
      <trkpt lat="45.25134" lon="5.61981">
        <ele>380.39999389648</ele>
        <time>2019-08-11T07:53:25.000Z</time>
      </trkpt>
      <trkpt lat="45.25131" lon="5.6198">
        <ele>380.60000610352</ele>
        <time>2019-08-11T07:53:27.000Z</time>
      </trkpt>
      <trkpt lat="45.25123" lon="5.61981">
        <ele>381.60000610352</ele>
        <time>2019-08-11T07:53:31.000Z</time>
      </trkpt>
      <trkpt lat="45.25122" lon="5.61981">
        <ele>381.79998779297</ele>
        <time>2019-08-11T07:53:32.000Z</time>
      </trkpt>
      <trkpt lat="45.25111" lon="5.61979">
        <ele>382.79998779297</ele>
        <time>2019-08-11T07:53:37.000Z</time>
      </trkpt>
      <trkpt lat="45.25109" lon="5.61978">
        <ele>383.20001220703</ele>
        <time>2019-08-11T07:53:38.000Z</time>
      </trkpt>
      <trkpt lat="45.25099" lon="5.61976">
        <ele>384</ele>
        <time>2019-08-11T07:53:43.000Z</time>
      </trkpt>
      <trkpt lat="45.25097" lon="5.61975">
        <ele>384.20001220703</ele>
        <time>2019-08-11T07:53:44.000Z</time>
      </trkpt>
      <trkpt lat="45.25087" lon="5.61973">
        <ele>385.20001220703</ele>
        <time>2019-08-11T07:53:49.000Z</time>
      </trkpt>
      <trkpt lat="45.25079" lon="5.6197">
        <ele>386.20001220703</ele>
        <time>2019-08-11T07:53:54.000Z</time>
      </trkpt>
      <trkpt lat="45.25076" lon="5.61969">
        <ele>386.60000610352</ele>
        <time>2019-08-11T07:53:56.000Z</time>
      </trkpt>
      <trkpt lat="45.25066" lon="5.61966">
        <ele>387.20001220703</ele>
        <time>2019-08-11T07:54:01.000Z</time>
      </trkpt>
      <trkpt lat="45.25065" lon="5.61965">
        <ele>387.60000610352</ele>
        <time>2019-08-11T07:54:02.000Z</time>
      </trkpt>
      <trkpt lat="45.25056" lon="5.61961">
        <ele>388.39999389648</ele>
        <time>2019-08-11T07:54:07.000Z</time>
      </trkpt>
      <trkpt lat="45.25048" lon="5.61958">
        <ele>389.20001220703</ele>
        <time>2019-08-11T07:54:12.000Z</time>
      </trkpt>
      <trkpt lat="45.25035" lon="5.61956">
        <ele>390.20001220703</ele>
        <time>2019-08-11T07:54:19.000Z</time>
      </trkpt>
      <trkpt lat="45.25032" lon="5.61955">
        <ele>390.39999389648</ele>
        <time>2019-08-11T07:54:20.000Z</time>
      </trkpt>
      <trkpt lat="45.25023" lon="5.61953">
        <ele>391.20001220703</ele>
        <time>2019-08-11T07:54:25.000Z</time>
      </trkpt>
      <trkpt lat="45.25021" lon="5.61952">
        <ele>391.39999389648</ele>
        <time>2019-08-11T07:54:26.000Z</time>
      </trkpt>
      <trkpt lat="45.25011" lon="5.61946">
        <ele>392.39999389648</ele>
        <time>2019-08-11T07:54:31.000Z</time>
      </trkpt>
      <trkpt lat="45.25007" lon="5.61941">
        <ele>392.60000610352</ele>
        <time>2019-08-11T07:54:33.000Z</time>
      </trkpt>
      <trkpt lat="45.25001" lon="5.61935">
        <ele>393.20001220703</ele>
        <time>2019-08-11T07:54:36.000Z</time>
      </trkpt>
      <trkpt lat="45.25" lon="5.61934">
        <ele>393.39999389648</ele>
        <time>2019-08-11T07:54:37.000Z</time>
      </trkpt>
      <trkpt lat="45.24994" lon="5.61929">
        <ele>394.20001220703</ele>
        <time>2019-08-11T07:54:40.000Z</time>
      </trkpt>
      <trkpt lat="45.2499" lon="5.61927">
        <ele>394.39999389648</ele>
        <time>2019-08-11T07:54:42.000Z</time>
      </trkpt>
      <trkpt lat="45.24988" lon="5.61925">
        <ele>394.79998779297</ele>
        <time>2019-08-11T07:54:43.000Z</time>
      </trkpt>
      <trkpt lat="45.24982" lon="5.61921">
        <ele>395.20001220703</ele>
        <time>2019-08-11T07:54:46.000Z</time>
      </trkpt>
      <trkpt lat="45.24978" lon="5.61919">
        <ele>395.60000610352</ele>
        <time>2019-08-11T07:54:48.000Z</time>
      </trkpt>
      <trkpt lat="45.24975" lon="5.61917">
        <ele>396</ele>
        <time>2019-08-11T07:54:50.000Z</time>
      </trkpt>
      <trkpt lat="45.24969" lon="5.61913">
        <ele>396.60000610352</ele>
        <time>2019-08-11T07:54:53.000Z</time>
      </trkpt>
      <trkpt lat="45.24964" lon="5.61911">
        <ele>397.20001220703</ele>
        <time>2019-08-11T07:54:56.000Z</time>
      </trkpt>
      <trkpt lat="45.2496" lon="5.61908">
        <ele>397.60000610352</ele>
        <time>2019-08-11T07:54:59.000Z</time>
      </trkpt>
      <trkpt lat="45.24949" lon="5.619">
        <ele>398.79998779297</ele>
        <time>2019-08-11T07:55:05.000Z</time>
      </trkpt>
      <trkpt lat="45.24943" lon="5.61896">
        <ele>399.60000610352</ele>
        <time>2019-08-11T07:55:09.000Z</time>
      </trkpt>
      <trkpt lat="45.24941" lon="5.61896">
        <ele>399.60000610352</ele>
        <time>2019-08-11T07:55:10.000Z</time>
      </trkpt>
      <trkpt lat="45.24939" lon="5.61896">
        <ele>399.79998779297</ele>
        <time>2019-08-11T07:55:11.000Z</time>
      </trkpt>
      <trkpt lat="45.24934" lon="5.61894">
        <ele>400.39999389648</ele>
        <time>2019-08-11T07:55:14.000Z</time>
      </trkpt>
      <trkpt lat="45.24933" lon="5.6189">
        <ele>400.79998779297</ele>
        <time>2019-08-11T07:55:16.000Z</time>
      </trkpt>
      <trkpt lat="45.24934" lon="5.61883">
        <ele>401.60000610352</ele>
        <time>2019-08-11T07:55:19.000Z</time>
      </trkpt>
      <trkpt lat="45.24935" lon="5.61881">
        <ele>402</ele>
        <time>2019-08-11T07:55:20.000Z</time>
      </trkpt>
      <trkpt lat="45.2494" lon="5.6188">
        <ele>402.79998779297</ele>
        <time>2019-08-11T07:55:23.000Z</time>
      </trkpt>
      <trkpt lat="45.24942" lon="5.6188">
        <ele>403</ele>
        <time>2019-08-11T07:55:24.000Z</time>
      </trkpt>
      <trkpt lat="45.24948" lon="5.61882">
        <ele>404</ele>
        <time>2019-08-11T07:55:29.000Z</time>
      </trkpt>
      <trkpt lat="45.24957" lon="5.61883">
        <ele>405.20001220703</ele>
        <time>2019-08-11T07:55:35.000Z</time>
      </trkpt>
      <trkpt lat="45.24963" lon="5.61883">
        <ele>406.20001220703</ele>
        <time>2019-08-11T07:55:39.000Z</time>
      </trkpt>
      <trkpt lat="45.24965" lon="5.61883">
        <ele>406.60000610352</ele>
        <time>2019-08-11T07:55:40.000Z</time>
      </trkpt>
      <trkpt lat="45.2497" lon="5.61883">
        <ele>407.39999389648</ele>
        <time>2019-08-11T07:55:44.000Z</time>
      </trkpt>
      <trkpt lat="45.24971" lon="5.61883">
        <ele>407.60000610352</ele>
        <time>2019-08-11T07:55:45.000Z</time>
      </trkpt>
      <trkpt lat="45.24973" lon="5.61883">
        <ele>407.60000610352</ele>
        <time>2019-08-11T07:55:46.000Z</time>
      </trkpt>
      <trkpt lat="45.2498" lon="5.61886">
        <ele>408.39999389648</ele>
        <time>2019-08-11T07:55:50.000Z</time>
      </trkpt>
      <trkpt lat="45.24981" lon="5.61885">
        <ele>408.79998779297</ele>
        <time>2019-08-11T07:55:51.000Z</time>
      </trkpt>
      <trkpt lat="45.24988" lon="5.61885">
        <ele>409.79998779297</ele>
        <time>2019-08-11T07:55:55.000Z</time>
      </trkpt>
      <trkpt lat="45.24996" lon="5.61886">
        <ele>410.39999389648</ele>
        <time>2019-08-11T07:55:59.000Z</time>
      </trkpt>
      <trkpt lat="45.25" lon="5.61887">
        <ele>411</ele>
        <time>2019-08-11T07:56:01.000Z</time>
      </trkpt>
      <trkpt lat="45.25002" lon="5.61887">
        <ele>411.20001220703</ele>
        <time>2019-08-11T07:56:02.000Z</time>
      </trkpt>
      <trkpt lat="45.25011" lon="5.61887">
        <ele>412.20001220703</ele>
        <time>2019-08-11T07:56:07.000Z</time>
      </trkpt>
      <trkpt lat="45.25013" lon="5.61888">
        <ele>412.39999389648</ele>
        <time>2019-08-11T07:56:08.000Z</time>
      </trkpt>
      <trkpt lat="45.2502" lon="5.61889">
        <ele>413.20001220703</ele>
        <time>2019-08-11T07:56:12.000Z</time>
      </trkpt>
      <trkpt lat="45.25024" lon="5.61889">
        <ele>413.79998779297</ele>
        <time>2019-08-11T07:56:14.000Z</time>
      </trkpt>
      <trkpt lat="45.25029" lon="5.61889">
        <ele>414.39999389648</ele>
        <time>2019-08-11T07:56:17.000Z</time>
      </trkpt>
      <trkpt lat="45.25034" lon="5.61888">
        <ele>414.79998779297</ele>
        <time>2019-08-11T07:56:20.000Z</time>
      </trkpt>
      <trkpt lat="45.25039" lon="5.61888">
        <ele>415.39999389648</ele>
        <time>2019-08-11T07:56:23.000Z</time>
      </trkpt>
      <trkpt lat="45.25046" lon="5.61887">
        <ele>416.39999389648</ele>
        <time>2019-08-11T07:56:27.000Z</time>
      </trkpt>
      <trkpt lat="45.25047" lon="5.61886">
        <ele>416.60000610352</ele>
        <time>2019-08-11T07:56:28.000Z</time>
      </trkpt>
      <trkpt lat="45.25055" lon="5.61883">
        <ele>417.79998779297</ele>
        <time>2019-08-11T07:56:33.000Z</time>
      </trkpt>
      <trkpt lat="45.25056" lon="5.61883">
        <ele>418</ele>
        <time>2019-08-11T07:56:34.000Z</time>
      </trkpt>
      <trkpt lat="45.25061" lon="5.6188">
        <ele>418.79998779297</ele>
        <time>2019-08-11T07:56:37.000Z</time>
      </trkpt>
      <trkpt lat="45.25063" lon="5.61879">
        <ele>419</ele>
        <time>2019-08-11T07:56:38.000Z</time>
      </trkpt>
      <trkpt lat="45.25069" lon="5.61877">
        <ele>419.79998779297</ele>
        <time>2019-08-11T07:56:42.000Z</time>
      </trkpt>
      <trkpt lat="45.2507" lon="5.61876">
        <ele>420.20001220703</ele>
        <time>2019-08-11T07:56:43.000Z</time>
      </trkpt>
      <trkpt lat="45.25079" lon="5.61873">
        <ele>421.20001220703</ele>
        <time>2019-08-11T07:56:49.000Z</time>
      </trkpt>
      <trkpt lat="45.25081" lon="5.61872">
        <ele>421.39999389648</ele>
        <time>2019-08-11T07:56:50.000Z</time>
      </trkpt>
      <trkpt lat="45.25086" lon="5.61868">
        <ele>422.39999389648</ele>
        <time>2019-08-11T07:56:54.000Z</time>
      </trkpt>
      <trkpt lat="45.25088" lon="5.61867">
        <ele>422.60000610352</ele>
        <time>2019-08-11T07:56:55.000Z</time>
      </trkpt>
      <trkpt lat="45.25089" lon="5.61867">
        <ele>422.79998779297</ele>
        <time>2019-08-11T07:56:56.000Z</time>
      </trkpt>
      <trkpt lat="45.25093" lon="5.61865">
        <ele>423.39999389648</ele>
        <time>2019-08-11T07:56:58.000Z</time>
      </trkpt>
      <trkpt lat="45.25096" lon="5.61863">
        <ele>424</ele>
        <time>2019-08-11T07:57:00.000Z</time>
      </trkpt>
      <trkpt lat="45.25103" lon="5.61861">
        <ele>424.60000610352</ele>
        <time>2019-08-11T07:57:04.000Z</time>
      </trkpt>
      <trkpt lat="45.25106" lon="5.61859">
        <ele>425</ele>
        <time>2019-08-11T07:57:06.000Z</time>
      </trkpt>
      <trkpt lat="45.25112" lon="5.61858">
        <ele>426</ele>
        <time>2019-08-11T07:57:09.000Z</time>
      </trkpt>
      <trkpt lat="45.25117" lon="5.61856">
        <ele>426.60000610352</ele>
        <time>2019-08-11T07:57:12.000Z</time>
      </trkpt>
      <trkpt lat="45.25121" lon="5.61854">
        <ele>427</ele>
        <time>2019-08-11T07:57:14.000Z</time>
      </trkpt>
      <trkpt lat="45.25126" lon="5.61848">
        <ele>427.79998779297</ele>
        <time>2019-08-11T07:57:17.000Z</time>
      </trkpt>
      <trkpt lat="45.25127" lon="5.61845">
        <ele>428</ele>
        <time>2019-08-11T07:57:18.000Z</time>
      </trkpt>
      <trkpt lat="45.25127" lon="5.61843">
        <ele>428.20001220703</ele>
        <time>2019-08-11T07:57:19.000Z</time>
      </trkpt>
      <trkpt lat="45.25126" lon="5.61839">
        <ele>428.60000610352</ele>
        <time>2019-08-11T07:57:21.000Z</time>
      </trkpt>
      <trkpt lat="45.25123" lon="5.61836">
        <ele>429.20001220703</ele>
        <time>2019-08-11T07:57:24.000Z</time>
      </trkpt>
      <trkpt lat="45.2512" lon="5.61837">
        <ele>429.79998779297</ele>
        <time>2019-08-11T07:57:27.000Z</time>
      </trkpt>
      <trkpt lat="45.25115" lon="5.61837">
        <ele>430.20001220703</ele>
        <time>2019-08-11T07:57:31.000Z</time>
      </trkpt>
      <trkpt lat="45.25114" lon="5.61838">
        <ele>430.39999389648</ele>
        <time>2019-08-11T07:57:32.000Z</time>
      </trkpt>
      <trkpt lat="45.25112" lon="5.61839">
        <ele>430.79998779297</ele>
        <time>2019-08-11T07:57:34.000Z</time>
      </trkpt>
      <trkpt lat="45.25108" lon="5.61841">
        <ele>431.20001220703</ele>
        <time>2019-08-11T07:57:37.000Z</time>
      </trkpt>
      <trkpt lat="45.25103" lon="5.61845">
        <ele>432</ele>
        <time>2019-08-11T07:57:41.000Z</time>
      </trkpt>
      <trkpt lat="45.251" lon="5.61847">
        <ele>432.39999389648</ele>
        <time>2019-08-11T07:57:43.000Z</time>
      </trkpt>
      <trkpt lat="45.25097" lon="5.61848">
        <ele>433</ele>
        <time>2019-08-11T07:57:46.000Z</time>
      </trkpt>
      <trkpt lat="45.25095" lon="5.61848">
        <ele>433.20001220703</ele>
        <time>2019-08-11T07:57:47.000Z</time>
      </trkpt>
      <trkpt lat="45.25093" lon="5.61849">
        <ele>433.60000610352</ele>
        <time>2019-08-11T07:57:48.000Z</time>
      </trkpt>
      <trkpt lat="45.25089" lon="5.61849">
        <ele>434.20001220703</ele>
        <time>2019-08-11T07:57:51.000Z</time>
      </trkpt>
      <trkpt lat="45.25088" lon="5.6185">
        <ele>434.39999389648</ele>
        <time>2019-08-11T07:57:52.000Z</time>
      </trkpt>
      <trkpt lat="45.25086" lon="5.61851">
        <ele>434.60000610352</ele>
        <time>2019-08-11T07:57:53.000Z</time>
      </trkpt>
      <trkpt lat="45.25085" lon="5.61851">
        <ele>434.79998779297</ele>
        <time>2019-08-11T07:57:54.000Z</time>
      </trkpt>
      <trkpt lat="45.25082" lon="5.61852">
        <ele>435.39999389648</ele>
        <time>2019-08-11T07:57:56.000Z</time>
      </trkpt>
      <trkpt lat="45.25081" lon="5.61853">
        <ele>435.79998779297</ele>
        <time>2019-08-11T07:57:57.000Z</time>
      </trkpt>
      <trkpt lat="45.25075" lon="5.61854">
        <ele>436.39999389648</ele>
        <time>2019-08-11T07:58:01.000Z</time>
      </trkpt>
      <trkpt lat="45.25072" lon="5.61854">
        <ele>436.79998779297</ele>
        <time>2019-08-11T07:58:03.000Z</time>
      </trkpt>
      <trkpt lat="45.25064" lon="5.61855">
        <ele>437.60000610352</ele>
        <time>2019-08-11T07:58:07.000Z</time>
      </trkpt>
      <trkpt lat="45.25061" lon="5.61855">
        <ele>437.79998779297</ele>
        <time>2019-08-11T07:58:08.000Z</time>
      </trkpt>
      <trkpt lat="45.25056" lon="5.61854">
        <ele>438.39999389648</ele>
        <time>2019-08-11T07:58:11.000Z</time>
      </trkpt>
      <trkpt lat="45.25055" lon="5.61854">
        <ele>438.39999389648</ele>
        <time>2019-08-11T07:58:12.000Z</time>
      </trkpt>
      <trkpt lat="45.2505" lon="5.61852">
        <ele>438.79998779297</ele>
        <time>2019-08-11T07:58:15.000Z</time>
      </trkpt>
      <trkpt lat="45.25047" lon="5.6185">
        <ele>439.20001220703</ele>
        <time>2019-08-11T07:58:17.000Z</time>
      </trkpt>
      <trkpt lat="45.25044" lon="5.61849">
        <ele>439.79998779297</ele>
        <time>2019-08-11T07:58:19.000Z</time>
      </trkpt>
      <trkpt lat="45.25041" lon="5.61848">
        <ele>440.20001220703</ele>
        <time>2019-08-11T07:58:21.000Z</time>
      </trkpt>
      <trkpt lat="45.25039" lon="5.61847">
        <ele>440.39999389648</ele>
        <time>2019-08-11T07:58:22.000Z</time>
      </trkpt>
      <trkpt lat="45.25035" lon="5.61846">
        <ele>440.79998779297</ele>
        <time>2019-08-11T07:58:24.000Z</time>
      </trkpt>
      <trkpt lat="45.25029" lon="5.61843">
        <ele>441.60000610352</ele>
        <time>2019-08-11T07:58:27.000Z</time>
      </trkpt>
      <trkpt lat="45.25025" lon="5.61841">
        <ele>441.79998779297</ele>
        <time>2019-08-11T07:58:29.000Z</time>
      </trkpt>
      <trkpt lat="45.25019" lon="5.61836">
        <ele>442.39999389648</ele>
        <time>2019-08-11T07:58:32.000Z</time>
      </trkpt>
      <trkpt lat="45.25015" lon="5.61833">
        <ele>442.79998779297</ele>
        <time>2019-08-11T07:58:34.000Z</time>
      </trkpt>
      <trkpt lat="45.25013" lon="5.61832">
        <ele>443.20001220703</ele>
        <time>2019-08-11T07:58:35.000Z</time>
      </trkpt>
      <trkpt lat="45.25006" lon="5.61828">
        <ele>443.79998779297</ele>
        <time>2019-08-11T07:58:38.000Z</time>
      </trkpt>
      <trkpt lat="45.25002" lon="5.61826">
        <ele>444.20001220703</ele>
        <time>2019-08-11T07:58:40.000Z</time>
      </trkpt>
      <trkpt lat="45.24997" lon="5.61821">
        <ele>444.79998779297</ele>
        <time>2019-08-11T07:58:43.000Z</time>
      </trkpt>
      <trkpt lat="45.24994" lon="5.61818">
        <ele>445.20001220703</ele>
        <time>2019-08-11T07:58:45.000Z</time>
      </trkpt>
      <trkpt lat="45.2499" lon="5.61812">
        <ele>446</ele>
        <time>2019-08-11T07:58:48.000Z</time>
      </trkpt>
      <trkpt lat="45.24987" lon="5.61806">
        <ele>446.60000610352</ele>
        <time>2019-08-11T07:58:51.000Z</time>
      </trkpt>
      <trkpt lat="45.24986" lon="5.61801">
        <ele>447.39999389648</ele>
        <time>2019-08-11T07:58:54.000Z</time>
      </trkpt>
      <trkpt lat="45.24985" lon="5.61799">
        <ele>447.79998779297</ele>
        <time>2019-08-11T07:58:55.000Z</time>
      </trkpt>
      <trkpt lat="45.24984" lon="5.61789">
        <ele>449</ele>
        <time>2019-08-11T07:59:00.000Z</time>
      </trkpt>
      <trkpt lat="45.24981" lon="5.61776">
        <ele>450.20001220703</ele>
        <time>2019-08-11T07:59:05.000Z</time>
      </trkpt>
      <trkpt lat="45.24981" lon="5.61774">
        <ele>450.20001220703</ele>
        <time>2019-08-11T07:59:06.000Z</time>
      </trkpt>
      <trkpt lat="45.24981" lon="5.61771">
        <ele>450.60000610352</ele>
        <time>2019-08-11T07:59:07.000Z</time>
      </trkpt>
      <trkpt lat="45.24981" lon="5.61766">
        <ele>451.20001220703</ele>
        <time>2019-08-11T07:59:09.000Z</time>
      </trkpt>
      <trkpt lat="45.24979" lon="5.61761">
        <ele>451.39999389648</ele>
        <time>2019-08-11T07:59:11.000Z</time>
      </trkpt>
      <trkpt lat="45.24975" lon="5.61754">
        <ele>452.20001220703</ele>
        <time>2019-08-11T07:59:15.000Z</time>
      </trkpt>
      <trkpt lat="45.24972" lon="5.6175">
        <ele>452.79998779297</ele>
        <time>2019-08-11T07:59:18.000Z</time>
      </trkpt>
      <trkpt lat="45.24969" lon="5.61746">
        <ele>453.39999389648</ele>
        <time>2019-08-11T07:59:21.000Z</time>
      </trkpt>
      <trkpt lat="45.24966" lon="5.61741">
        <ele>454</ele>
        <time>2019-08-11T07:59:24.000Z</time>
      </trkpt>
      <trkpt lat="45.24963" lon="5.61738">
        <ele>454.60000610352</ele>
        <time>2019-08-11T07:59:26.000Z</time>
      </trkpt>
      <trkpt lat="45.24962" lon="5.61736">
        <ele>454.79998779297</ele>
        <time>2019-08-11T07:59:27.000Z</time>
      </trkpt>
      <trkpt lat="45.24958" lon="5.61729">
        <ele>455.39999389648</ele>
        <time>2019-08-11T07:59:30.000Z</time>
      </trkpt>
      <trkpt lat="45.24956" lon="5.61727">
        <ele>455.79998779297</ele>
        <time>2019-08-11T07:59:31.000Z</time>
      </trkpt>
      <trkpt lat="45.2495" lon="5.61718">
        <ele>456.79998779297</ele>
        <time>2019-08-11T07:59:35.000Z</time>
      </trkpt>
      <trkpt lat="45.24944" lon="5.61711">
        <ele>457.79998779297</ele>
        <time>2019-08-11T07:59:39.000Z</time>
      </trkpt>
      <trkpt lat="45.24943" lon="5.6171">
        <ele>458</ele>
        <time>2019-08-11T07:59:40.000Z</time>
      </trkpt>
      <trkpt lat="45.24936" lon="5.61705">
        <ele>458.60000610352</ele>
        <time>2019-08-11T07:59:44.000Z</time>
      </trkpt>
      <trkpt lat="45.24934" lon="5.61704">
        <ele>459.20001220703</ele>
        <time>2019-08-11T07:59:45.000Z</time>
      </trkpt>
      <trkpt lat="45.2493" lon="5.61703">
        <ele>459.79998779297</ele>
        <time>2019-08-11T07:59:48.000Z</time>
      </trkpt>
      <trkpt lat="45.24926" lon="5.617">
        <ele>460.39999389648</ele>
        <time>2019-08-11T07:59:51.000Z</time>
      </trkpt>
      <trkpt lat="45.24922" lon="5.61698">
        <ele>461</ele>
        <time>2019-08-11T07:59:54.000Z</time>
      </trkpt>
      <trkpt lat="45.24917" lon="5.61695">
        <ele>461.79998779297</ele>
        <time>2019-08-11T07:59:57.000Z</time>
      </trkpt>
      <trkpt lat="45.24914" lon="5.61694">
        <ele>462</ele>
        <time>2019-08-11T07:59:59.000Z</time>
      </trkpt>
      <trkpt lat="45.24907" lon="5.61694">
        <ele>463</ele>
        <time>2019-08-11T08:00:03.000Z</time>
      </trkpt>
      <trkpt lat="45.24906" lon="5.61694">
        <ele>463.39999389648</ele>
        <time>2019-08-11T08:00:04.000Z</time>
      </trkpt>
      <trkpt lat="45.24902" lon="5.61696">
        <ele>464.20001220703</ele>
        <time>2019-08-11T08:00:07.000Z</time>
      </trkpt>
      <trkpt lat="45.24899" lon="5.617">
        <ele>464.39999389648</ele>
        <time>2019-08-11T08:00:09.000Z</time>
      </trkpt>
      <trkpt lat="45.24897" lon="5.61701">
        <ele>464.60000610352</ele>
        <time>2019-08-11T08:00:10.000Z</time>
      </trkpt>
      <trkpt lat="45.2489" lon="5.61705">
        <ele>465.20001220703</ele>
        <time>2019-08-11T08:00:13.000Z</time>
      </trkpt>
      <trkpt lat="45.24888" lon="5.61707">
        <ele>465.60000610352</ele>
        <time>2019-08-11T08:00:14.000Z</time>
      </trkpt>
      <trkpt lat="45.2488" lon="5.61712">
        <ele>467</ele>
        <time>2019-08-11T08:00:18.000Z</time>
      </trkpt>
      <trkpt lat="45.24878" lon="5.61712">
        <ele>467.20001220703</ele>
        <time>2019-08-11T08:00:19.000Z</time>
      </trkpt>
      <trkpt lat="45.24872" lon="5.61711">
        <ele>468</ele>
        <time>2019-08-11T08:00:22.000Z</time>
      </trkpt>
      <trkpt lat="45.24866" lon="5.61706">
        <ele>469</ele>
        <time>2019-08-11T08:00:26.000Z</time>
      </trkpt>
      <trkpt lat="45.24862" lon="5.61699">
        <ele>470.20001220703</ele>
        <time>2019-08-11T08:00:30.000Z</time>
      </trkpt>
      <trkpt lat="45.2486" lon="5.61695">
        <ele>470.60000610352</ele>
        <time>2019-08-11T08:00:32.000Z</time>
      </trkpt>
      <trkpt lat="45.24856" lon="5.61689">
        <ele>471.60000610352</ele>
        <time>2019-08-11T08:00:35.000Z</time>
      </trkpt>
      <trkpt lat="45.24852" lon="5.61681">
        <ele>472.20001220703</ele>
        <time>2019-08-11T08:00:39.000Z</time>
      </trkpt>
      <trkpt lat="45.24851" lon="5.61679">
        <ele>472.60000610352</ele>
        <time>2019-08-11T08:00:40.000Z</time>
      </trkpt>
      <trkpt lat="45.24845" lon="5.6167">
        <ele>473.79998779297</ele>
        <time>2019-08-11T08:00:45.000Z</time>
      </trkpt>
      <trkpt lat="45.24841" lon="5.61665">
        <ele>474.60000610352</ele>
        <time>2019-08-11T08:00:48.000Z</time>
      </trkpt>
      <trkpt lat="45.2484" lon="5.61663">
        <ele>474.79998779297</ele>
        <time>2019-08-11T08:00:49.000Z</time>
      </trkpt>
      <trkpt lat="45.24835" lon="5.61653">
        <ele>476</ele>
        <time>2019-08-11T08:00:54.000Z</time>
      </trkpt>
      <trkpt lat="45.24834" lon="5.61651">
        <ele>476.20001220703</ele>
        <time>2019-08-11T08:00:55.000Z</time>
      </trkpt>
      <trkpt lat="45.24832" lon="5.61645">
        <ele>477</ele>
        <time>2019-08-11T08:00:58.000Z</time>
      </trkpt>
      <trkpt lat="45.24828" lon="5.61634">
        <ele>478.20001220703</ele>
        <time>2019-08-11T08:01:03.000Z</time>
      </trkpt>
      <trkpt lat="45.24825" lon="5.61625">
        <ele>479.60000610352</ele>
        <time>2019-08-11T08:01:07.000Z</time>
      </trkpt>
      <trkpt lat="45.24824" lon="5.61618">
        <ele>480.39999389648</ele>
        <time>2019-08-11T08:01:10.000Z</time>
      </trkpt>
      <trkpt lat="45.24823" lon="5.61613">
        <ele>480.79998779297</ele>
        <time>2019-08-11T08:01:12.000Z</time>
      </trkpt>
      <trkpt lat="45.2482" lon="5.61606">
        <ele>481.79998779297</ele>
        <time>2019-08-11T08:01:16.000Z</time>
      </trkpt>
      <trkpt lat="45.2482" lon="5.61604">
        <ele>482.20001220703</ele>
        <time>2019-08-11T08:01:17.000Z</time>
      </trkpt>
      <trkpt lat="45.24818" lon="5.61597">
        <ele>482.79998779297</ele>
        <time>2019-08-11T08:01:20.000Z</time>
      </trkpt>
      <trkpt lat="45.24815" lon="5.61587">
        <ele>484</ele>
        <time>2019-08-11T08:01:25.000Z</time>
      </trkpt>
      <trkpt lat="45.24815" lon="5.61585">
        <ele>484.20001220703</ele>
        <time>2019-08-11T08:01:26.000Z</time>
      </trkpt>
      <trkpt lat="45.24813" lon="5.61576">
        <ele>485</ele>
        <time>2019-08-11T08:01:30.000Z</time>
      </trkpt>
      <trkpt lat="45.24812" lon="5.6157">
        <ele>485.60000610352</ele>
        <time>2019-08-11T08:01:33.000Z</time>
      </trkpt>
      <trkpt lat="45.24811" lon="5.61565">
        <ele>486.20001220703</ele>
        <time>2019-08-11T08:01:35.000Z</time>
      </trkpt>
      <trkpt lat="45.24811" lon="5.61555">
        <ele>487.20001220703</ele>
        <time>2019-08-11T08:01:40.000Z</time>
      </trkpt>
      <trkpt lat="45.24811" lon="5.61549">
        <ele>488</ele>
        <time>2019-08-11T08:01:43.000Z</time>
      </trkpt>
      <trkpt lat="45.24812" lon="5.61545">
        <ele>488.39999389648</ele>
        <time>2019-08-11T08:01:45.000Z</time>
      </trkpt>
      <trkpt lat="45.24812" lon="5.61538">
        <ele>489.39999389648</ele>
        <time>2019-08-11T08:01:50.000Z</time>
      </trkpt>
      <trkpt lat="45.24812" lon="5.61534">
        <ele>489.79998779297</ele>
        <time>2019-08-11T08:01:52.000Z</time>
      </trkpt>
      <trkpt lat="45.2481" lon="5.61528">
        <ele>490.39999389648</ele>
        <time>2019-08-11T08:01:55.000Z</time>
      </trkpt>
      <trkpt lat="45.24809" lon="5.61517">
        <ele>491.20001220703</ele>
        <time>2019-08-11T08:01:59.000Z</time>
      </trkpt>
      <trkpt lat="45.24808" lon="5.61511">
        <ele>491.60000610352</ele>
        <time>2019-08-11T08:02:01.000Z</time>
      </trkpt>
      <trkpt lat="45.24809" lon="5.61503">
        <ele>492</ele>
        <time>2019-08-11T08:02:04.000Z</time>
      </trkpt>
      <trkpt lat="45.24809" lon="5.61494">
        <ele>492.60000610352</ele>
        <time>2019-08-11T08:02:07.000Z</time>
      </trkpt>
      <trkpt lat="45.2481" lon="5.61482">
        <ele>493.60000610352</ele>
        <time>2019-08-11T08:02:12.000Z</time>
      </trkpt>
      <trkpt lat="45.24811" lon="5.6148">
        <ele>493.60000610352</ele>
        <time>2019-08-11T08:02:13.000Z</time>
      </trkpt>
      <trkpt lat="45.24812" lon="5.61471">
        <ele>494.39999389648</ele>
        <time>2019-08-11T08:02:17.000Z</time>
      </trkpt>
      <trkpt lat="45.24813" lon="5.61469">
        <ele>494.60000610352</ele>
        <time>2019-08-11T08:02:18.000Z</time>
      </trkpt>
      <trkpt lat="45.24813" lon="5.61466">
        <ele>494.60000610352</ele>
        <time>2019-08-11T08:02:19.000Z</time>
      </trkpt>
      <trkpt lat="45.24816" lon="5.61456">
        <ele>495.60000610352</ele>
        <time>2019-08-11T08:02:22.000Z</time>
      </trkpt>
      <trkpt lat="45.24817" lon="5.61453">
        <ele>495.79998779297</ele>
        <time>2019-08-11T08:02:23.000Z</time>
      </trkpt>
      <trkpt lat="45.24819" lon="5.61442">
        <ele>497</ele>
        <time>2019-08-11T08:02:27.000Z</time>
      </trkpt>
      <trkpt lat="45.2482" lon="5.61439">
        <ele>497.20001220703</ele>
        <time>2019-08-11T08:02:28.000Z</time>
      </trkpt>
      <trkpt lat="45.24822" lon="5.61428">
        <ele>498.20001220703</ele>
        <time>2019-08-11T08:02:32.000Z</time>
      </trkpt>
      <trkpt lat="45.24822" lon="5.61426">
        <ele>498.39999389648</ele>
        <time>2019-08-11T08:02:33.000Z</time>
      </trkpt>
      <trkpt lat="45.24826" lon="5.61416">
        <ele>499.20001220703</ele>
        <time>2019-08-11T08:02:37.000Z</time>
      </trkpt>
      <trkpt lat="45.24827" lon="5.61414">
        <ele>499.39999389648</ele>
        <time>2019-08-11T08:02:38.000Z</time>
      </trkpt>
      <trkpt lat="45.24827" lon="5.61412">
        <ele>499.60000610352</ele>
        <time>2019-08-11T08:02:39.000Z</time>
      </trkpt>
      <trkpt lat="45.24828" lon="5.61407">
        <ele>500.39999389648</ele>
        <time>2019-08-11T08:02:42.000Z</time>
      </trkpt>
      <trkpt lat="45.24829" lon="5.61404">
        <ele>500.79998779297</ele>
        <time>2019-08-11T08:02:43.000Z</time>
      </trkpt>
      <trkpt lat="45.24832" lon="5.61397">
        <ele>501.60000610352</ele>
        <time>2019-08-11T08:02:46.000Z</time>
      </trkpt>
      <trkpt lat="45.24834" lon="5.61391">
        <ele>502</ele>
        <time>2019-08-11T08:02:49.000Z</time>
      </trkpt>
      <trkpt lat="45.24836" lon="5.61386">
        <ele>502.39999389648</ele>
        <time>2019-08-11T08:02:51.000Z</time>
      </trkpt>
      <trkpt lat="45.24837" lon="5.61383">
        <ele>502.60000610352</ele>
        <time>2019-08-11T08:02:52.000Z</time>
      </trkpt>
      <trkpt lat="45.24839" lon="5.61375">
        <ele>503</ele>
        <time>2019-08-11T08:02:55.000Z</time>
      </trkpt>
      <trkpt lat="45.24841" lon="5.61367">
        <ele>503.60000610352</ele>
        <time>2019-08-11T08:02:58.000Z</time>
      </trkpt>
      <trkpt lat="45.24842" lon="5.61358">
        <ele>504.79998779297</ele>
        <time>2019-08-11T08:03:01.000Z</time>
      </trkpt>
      <trkpt lat="45.24844" lon="5.61348">
        <ele>505.60000610352</ele>
        <time>2019-08-11T08:03:06.000Z</time>
      </trkpt>
      <trkpt lat="45.24844" lon="5.61346">
        <ele>506.20001220703</ele>
        <time>2019-08-11T08:03:07.000Z</time>
      </trkpt>
      <trkpt lat="45.24844" lon="5.61344">
        <ele>506.39999389648</ele>
        <time>2019-08-11T08:03:08.000Z</time>
      </trkpt>
      <trkpt lat="45.24844" lon="5.61338">
        <ele>506.60000610352</ele>
        <time>2019-08-11T08:03:10.000Z</time>
      </trkpt>
      <trkpt lat="45.24844" lon="5.61329">
        <ele>507.20001220703</ele>
        <time>2019-08-11T08:03:13.000Z</time>
      </trkpt>
      <trkpt lat="45.24843" lon="5.61321">
        <ele>508</ele>
        <time>2019-08-11T08:03:16.000Z</time>
      </trkpt>
      <trkpt lat="45.24843" lon="5.61318">
        <ele>508.20001220703</ele>
        <time>2019-08-11T08:03:17.000Z</time>
      </trkpt>
      <trkpt lat="45.24843" lon="5.61311">
        <ele>508.39999389648</ele>
        <time>2019-08-11T08:03:20.000Z</time>
      </trkpt>
      <trkpt lat="45.24843" lon="5.61306">
        <ele>508.79998779297</ele>
        <time>2019-08-11T08:03:22.000Z</time>
      </trkpt>
      <trkpt lat="45.24843" lon="5.61301">
        <ele>509.39999389648</ele>
        <time>2019-08-11T08:03:24.000Z</time>
      </trkpt>
      <trkpt lat="45.24844" lon="5.61291">
        <ele>510.39999389648</ele>
        <time>2019-08-11T08:03:29.000Z</time>
      </trkpt>
      <trkpt lat="45.24845" lon="5.61279">
        <ele>511.20001220703</ele>
        <time>2019-08-11T08:03:34.000Z</time>
      </trkpt>
      <trkpt lat="45.24846" lon="5.61276">
        <ele>511.39999389648</ele>
        <time>2019-08-11T08:03:35.000Z</time>
      </trkpt>
      <trkpt lat="45.24845" lon="5.61274">
        <ele>511.39999389648</ele>
        <time>2019-08-11T08:03:36.000Z</time>
      </trkpt>
      <trkpt lat="45.24846" lon="5.61267">
        <ele>512</ele>
        <time>2019-08-11T08:03:39.000Z</time>
      </trkpt>
      <trkpt lat="45.24846" lon="5.61262">
        <ele>512.20001220703</ele>
        <time>2019-08-11T08:03:41.000Z</time>
      </trkpt>
      <trkpt lat="45.24846" lon="5.61257">
        <ele>512.59997558594</ele>
        <time>2019-08-11T08:03:43.000Z</time>
      </trkpt>
      <trkpt lat="45.24846" lon="5.61252">
        <ele>513</ele>
        <time>2019-08-11T08:03:45.000Z</time>
      </trkpt>
      <trkpt lat="45.24846" lon="5.6125">
        <ele>513.40002441406</ele>
        <time>2019-08-11T08:03:46.000Z</time>
      </trkpt>
      <trkpt lat="45.24846" lon="5.61248">
        <ele>513.59997558594</ele>
        <time>2019-08-11T08:03:47.000Z</time>
      </trkpt>
      <trkpt lat="45.24846" lon="5.61243">
        <ele>513.79998779297</ele>
        <time>2019-08-11T08:03:49.000Z</time>
      </trkpt>
      <trkpt lat="45.24846" lon="5.61235">
        <ele>514.59997558594</ele>
        <time>2019-08-11T08:03:52.000Z</time>
      </trkpt>
      <trkpt lat="45.24846" lon="5.61231">
        <ele>515</ele>
        <time>2019-08-11T08:03:54.000Z</time>
      </trkpt>
      <trkpt lat="45.24845" lon="5.61222">
        <ele>515.79998779297</ele>
        <time>2019-08-11T08:03:58.000Z</time>
      </trkpt>
      <trkpt lat="45.24845" lon="5.6122">
        <ele>515.79998779297</ele>
        <time>2019-08-11T08:03:59.000Z</time>
      </trkpt>
      <trkpt lat="45.24842" lon="5.61209">
        <ele>517</ele>
        <time>2019-08-11T08:04:03.000Z</time>
      </trkpt>
      <trkpt lat="45.24842" lon="5.61207">
        <ele>517.20001220703</ele>
        <time>2019-08-11T08:04:04.000Z</time>
      </trkpt>
      <trkpt lat="45.24839" lon="5.61197">
        <ele>517.79998779297</ele>
        <time>2019-08-11T08:04:09.000Z</time>
      </trkpt>
      <trkpt lat="45.24838" lon="5.61195">
        <ele>518</ele>
        <time>2019-08-11T08:04:10.000Z</time>
      </trkpt>
      <trkpt lat="45.24838" lon="5.61192">
        <ele>518.20001220703</ele>
        <time>2019-08-11T08:04:11.000Z</time>
      </trkpt>
      <trkpt lat="45.24838" lon="5.61184">
        <ele>518.79998779297</ele>
        <time>2019-08-11T08:04:15.000Z</time>
      </trkpt>
      <trkpt lat="45.24838" lon="5.61178">
        <ele>519.20001220703</ele>
        <time>2019-08-11T08:04:17.000Z</time>
      </trkpt>
      <trkpt lat="45.24838" lon="5.61167">
        <ele>520</ele>
        <time>2019-08-11T08:04:21.000Z</time>
      </trkpt>
      <trkpt lat="45.24837" lon="5.61164">
        <ele>520.20001220703</ele>
        <time>2019-08-11T08:04:22.000Z</time>
      </trkpt>
      <trkpt lat="45.24838" lon="5.61154">
        <ele>521.40002441406</ele>
        <time>2019-08-11T08:04:26.000Z</time>
      </trkpt>
      <trkpt lat="45.24838" lon="5.61151">
        <ele>521.79998779297</ele>
        <time>2019-08-11T08:04:27.000Z</time>
      </trkpt>
      <trkpt lat="45.24838" lon="5.61143">
        <ele>522.20001220703</ele>
        <time>2019-08-11T08:04:30.000Z</time>
      </trkpt>
      <trkpt lat="45.24838" lon="5.61136">
        <ele>522.79998779297</ele>
        <time>2019-08-11T08:04:33.000Z</time>
      </trkpt>
      <trkpt lat="45.24838" lon="5.6113">
        <ele>523.40002441406</ele>
        <time>2019-08-11T08:04:35.000Z</time>
      </trkpt>
      <trkpt lat="45.24839" lon="5.61118">
        <ele>524.20001220703</ele>
        <time>2019-08-11T08:04:39.000Z</time>
      </trkpt>
      <trkpt lat="45.24839" lon="5.61115">
        <ele>524.40002441406</ele>
        <time>2019-08-11T08:04:40.000Z</time>
      </trkpt>
      <trkpt lat="45.24839" lon="5.6111">
        <ele>525.20001220703</ele>
        <time>2019-08-11T08:04:43.000Z</time>
      </trkpt>
      <trkpt lat="45.24839" lon="5.61108">
        <ele>525.40002441406</ele>
        <time>2019-08-11T08:04:44.000Z</time>
      </trkpt>
      <trkpt lat="45.24839" lon="5.61099">
        <ele>526.59997558594</ele>
        <time>2019-08-11T08:04:49.000Z</time>
      </trkpt>
      <trkpt lat="45.24839" lon="5.61097">
        <ele>527</ele>
        <time>2019-08-11T08:04:50.000Z</time>
      </trkpt>
      <trkpt lat="45.24838" lon="5.61088">
        <ele>527.40002441406</ele>
        <time>2019-08-11T08:04:53.000Z</time>
      </trkpt>
      <trkpt lat="45.24837" lon="5.61085">
        <ele>527.59997558594</ele>
        <time>2019-08-11T08:04:54.000Z</time>
      </trkpt>
      <trkpt lat="45.24836" lon="5.61083">
        <ele>527.79998779297</ele>
        <time>2019-08-11T08:04:55.000Z</time>
      </trkpt>
      <trkpt lat="45.24836" lon="5.61081">
        <ele>528</ele>
        <time>2019-08-11T08:04:56.000Z</time>
      </trkpt>
      <trkpt lat="45.24836" lon="5.61073">
        <ele>528.59997558594</ele>
        <time>2019-08-11T08:05:00.000Z</time>
      </trkpt>
      <trkpt lat="45.24836" lon="5.6107">
        <ele>528.79998779297</ele>
        <time>2019-08-11T08:05:01.000Z</time>
      </trkpt>
      <trkpt lat="45.24835" lon="5.61062">
        <ele>529.20001220703</ele>
        <time>2019-08-11T08:05:04.000Z</time>
      </trkpt>
      <trkpt lat="45.24834" lon="5.61057">
        <ele>529.59997558594</ele>
        <time>2019-08-11T08:05:06.000Z</time>
      </trkpt>
      <trkpt lat="45.2483" lon="5.61046">
        <ele>530.59997558594</ele>
        <time>2019-08-11T08:05:10.000Z</time>
      </trkpt>
      <trkpt lat="45.24829" lon="5.61044">
        <ele>530.79998779297</ele>
        <time>2019-08-11T08:05:11.000Z</time>
      </trkpt>
      <trkpt lat="45.24826" lon="5.61035">
        <ele>531.59997558594</ele>
        <time>2019-08-11T08:05:15.000Z</time>
      </trkpt>
      <trkpt lat="45.24826" lon="5.61033">
        <ele>532</ele>
        <time>2019-08-11T08:05:16.000Z</time>
      </trkpt>
      <trkpt lat="45.24827" lon="5.6103">
        <ele>532.40002441406</ele>
        <time>2019-08-11T08:05:18.000Z</time>
      </trkpt>
      <trkpt lat="45.24825" lon="5.61022">
        <ele>533</ele>
        <time>2019-08-11T08:05:21.000Z</time>
      </trkpt>
      <trkpt lat="45.24824" lon="5.61019">
        <ele>533.20001220703</ele>
        <time>2019-08-11T08:05:22.000Z</time>
      </trkpt>
      <trkpt lat="45.24823" lon="5.61012">
        <ele>533.79998779297</ele>
        <time>2019-08-11T08:05:25.000Z</time>
      </trkpt>
      <trkpt lat="45.24821" lon="5.61006">
        <ele>534.20001220703</ele>
        <time>2019-08-11T08:05:27.000Z</time>
      </trkpt>
      <trkpt lat="45.24821" lon="5.61">
        <ele>534.79998779297</ele>
        <time>2019-08-11T08:05:29.000Z</time>
      </trkpt>
      <trkpt lat="45.24821" lon="5.60997">
        <ele>535.20001220703</ele>
        <time>2019-08-11T08:05:30.000Z</time>
      </trkpt>
      <trkpt lat="45.24821" lon="5.60993">
        <ele>535.79998779297</ele>
        <time>2019-08-11T08:05:32.000Z</time>
      </trkpt>
      <trkpt lat="45.2482" lon="5.6099">
        <ele>536</ele>
        <time>2019-08-11T08:05:33.000Z</time>
      </trkpt>
      <trkpt lat="45.24821" lon="5.60975">
        <ele>537</ele>
        <time>2019-08-11T08:05:37.000Z</time>
      </trkpt>
      <trkpt lat="45.24821" lon="5.60973">
        <ele>537.20001220703</ele>
        <time>2019-08-11T08:05:38.000Z</time>
      </trkpt>
      <trkpt lat="45.24821" lon="5.60966">
        <ele>538.20001220703</ele>
        <time>2019-08-11T08:05:41.000Z</time>
      </trkpt>
      <trkpt lat="45.24822" lon="5.60963">
        <ele>538.59997558594</ele>
        <time>2019-08-11T08:05:43.000Z</time>
      </trkpt>
      <trkpt lat="45.24821" lon="5.6096">
        <ele>538.79998779297</ele>
        <time>2019-08-11T08:05:44.000Z</time>
      </trkpt>
      <trkpt lat="45.2482" lon="5.60956">
        <ele>539.20001220703</ele>
        <time>2019-08-11T08:05:46.000Z</time>
      </trkpt>
      <trkpt lat="45.2482" lon="5.60952">
        <ele>539.79998779297</ele>
        <time>2019-08-11T08:05:48.000Z</time>
      </trkpt>
      <trkpt lat="45.24821" lon="5.60948">
        <ele>540.40002441406</ele>
        <time>2019-08-11T08:05:50.000Z</time>
      </trkpt>
      <trkpt lat="45.2482" lon="5.60938">
        <ele>541</ele>
        <time>2019-08-11T08:05:54.000Z</time>
      </trkpt>
      <trkpt lat="45.2482" lon="5.60936">
        <ele>541.20001220703</ele>
        <time>2019-08-11T08:05:55.000Z</time>
      </trkpt>
      <trkpt lat="45.2482" lon="5.6093">
        <ele>541.79998779297</ele>
        <time>2019-08-11T08:05:57.000Z</time>
      </trkpt>
      <trkpt lat="45.24821" lon="5.60922">
        <ele>542.40002441406</ele>
        <time>2019-08-11T08:06:00.000Z</time>
      </trkpt>
      <trkpt lat="45.24821" lon="5.60915">
        <ele>542.59997558594</ele>
        <time>2019-08-11T08:06:03.000Z</time>
      </trkpt>
      <trkpt lat="45.2482" lon="5.6091">
        <ele>543</ele>
        <time>2019-08-11T08:06:05.000Z</time>
      </trkpt>
      <trkpt lat="45.2482" lon="5.60909">
        <ele>543.40002441406</ele>
        <time>2019-08-11T08:06:06.000Z</time>
      </trkpt>
      <trkpt lat="45.24818" lon="5.60899">
        <ele>544</ele>
        <time>2019-08-11T08:06:10.000Z</time>
      </trkpt>
      <trkpt lat="45.24818" lon="5.60897">
        <ele>544.40002441406</ele>
        <time>2019-08-11T08:06:11.000Z</time>
      </trkpt>
      <trkpt lat="45.24816" lon="5.60883">
        <ele>545.59997558594</ele>
        <time>2019-08-11T08:06:16.000Z</time>
      </trkpt>
      <trkpt lat="45.24814" lon="5.60869">
        <ele>546.59997558594</ele>
        <time>2019-08-11T08:06:21.000Z</time>
      </trkpt>
      <trkpt lat="45.24814" lon="5.60867">
        <ele>546.79998779297</ele>
        <time>2019-08-11T08:06:22.000Z</time>
      </trkpt>
      <trkpt lat="45.24813" lon="5.60857">
        <ele>547.59997558594</ele>
        <time>2019-08-11T08:06:26.000Z</time>
      </trkpt>
      <trkpt lat="45.24812" lon="5.60852">
        <ele>548.40002441406</ele>
        <time>2019-08-11T08:06:28.000Z</time>
      </trkpt>
      <trkpt lat="45.24812" lon="5.60849">
        <ele>548.59997558594</ele>
        <time>2019-08-11T08:06:29.000Z</time>
      </trkpt>
      <trkpt lat="45.24812" lon="5.60846">
        <ele>549</ele>
        <time>2019-08-11T08:06:30.000Z</time>
      </trkpt>
      <trkpt lat="45.24812" lon="5.60841">
        <ele>549.20001220703</ele>
        <time>2019-08-11T08:06:32.000Z</time>
      </trkpt>
      <trkpt lat="45.2481" lon="5.60833">
        <ele>549.79998779297</ele>
        <time>2019-08-11T08:06:35.000Z</time>
      </trkpt>
      <trkpt lat="45.2481" lon="5.60823">
        <ele>550.79998779297</ele>
        <time>2019-08-11T08:06:39.000Z</time>
      </trkpt>
      <trkpt lat="45.2481" lon="5.60821">
        <ele>551</ele>
        <time>2019-08-11T08:06:40.000Z</time>
      </trkpt>
      <trkpt lat="45.2481" lon="5.60811">
        <ele>551.79998779297</ele>
        <time>2019-08-11T08:06:44.000Z</time>
      </trkpt>
      <trkpt lat="45.24811" lon="5.60806">
        <ele>552.20001220703</ele>
        <time>2019-08-11T08:06:46.000Z</time>
      </trkpt>
      <trkpt lat="45.2481" lon="5.60804">
        <ele>552.40002441406</ele>
        <time>2019-08-11T08:06:47.000Z</time>
      </trkpt>
      <trkpt lat="45.2481" lon="5.60799">
        <ele>552.79998779297</ele>
        <time>2019-08-11T08:06:49.000Z</time>
      </trkpt>
      <trkpt lat="45.24809" lon="5.60794">
        <ele>553.20001220703</ele>
        <time>2019-08-11T08:06:51.000Z</time>
      </trkpt>
      <trkpt lat="45.24809" lon="5.60792">
        <ele>553.20001220703</ele>
        <time>2019-08-11T08:06:52.000Z</time>
      </trkpt>
      <trkpt lat="45.24806" lon="5.60785">
        <ele>553.79998779297</ele>
        <time>2019-08-11T08:06:54.000Z</time>
      </trkpt>
      <trkpt lat="45.24804" lon="5.60778">
        <ele>554.40002441406</ele>
        <time>2019-08-11T08:06:57.000Z</time>
      </trkpt>
      <trkpt lat="45.24802" lon="5.60774">
        <ele>554.59997558594</ele>
        <time>2019-08-11T08:06:59.000Z</time>
      </trkpt>
      <trkpt lat="45.24801" lon="5.60771">
        <ele>554.79998779297</ele>
        <time>2019-08-11T08:07:00.000Z</time>
      </trkpt>
      <trkpt lat="45.24798" lon="5.60764">
        <ele>555.59997558594</ele>
        <time>2019-08-11T08:07:03.000Z</time>
      </trkpt>
      <trkpt lat="45.24796" lon="5.60759">
        <ele>556</ele>
        <time>2019-08-11T08:07:05.000Z</time>
      </trkpt>
      <trkpt lat="45.24792" lon="5.6075">
        <ele>556.79998779297</ele>
        <time>2019-08-11T08:07:08.000Z</time>
      </trkpt>
      <trkpt lat="45.24792" lon="5.60742">
        <ele>557.20001220703</ele>
        <time>2019-08-11T08:07:11.000Z</time>
      </trkpt>
      <trkpt lat="45.24793" lon="5.60737">
        <ele>557.59997558594</ele>
        <time>2019-08-11T08:07:13.000Z</time>
      </trkpt>
      <trkpt lat="45.24793" lon="5.60732">
        <ele>558.20001220703</ele>
        <time>2019-08-11T08:07:15.000Z</time>
      </trkpt>
      <trkpt lat="45.24791" lon="5.60724">
        <ele>558.79998779297</ele>
        <time>2019-08-11T08:07:18.000Z</time>
      </trkpt>
      <trkpt lat="45.2479" lon="5.6072">
        <ele>559.20001220703</ele>
        <time>2019-08-11T08:07:20.000Z</time>
      </trkpt>
      <trkpt lat="45.24789" lon="5.60717">
        <ele>559.59997558594</ele>
        <time>2019-08-11T08:07:22.000Z</time>
      </trkpt>
      <trkpt lat="45.24787" lon="5.60716">
        <ele>560</ele>
        <time>2019-08-11T08:07:23.000Z</time>
      </trkpt>
      <trkpt lat="45.24785" lon="5.60712">
        <ele>560.40002441406</ele>
        <time>2019-08-11T08:07:25.000Z</time>
      </trkpt>
      <trkpt lat="45.24784" lon="5.6071">
        <ele>560.79998779297</ele>
        <time>2019-08-11T08:07:27.000Z</time>
      </trkpt>
      <trkpt lat="45.24782" lon="5.6071">
        <ele>561</ele>
        <time>2019-08-11T08:07:29.000Z</time>
      </trkpt>
      <trkpt lat="45.2478" lon="5.6071">
        <ele>561.20001220703</ele>
        <time>2019-08-11T08:07:31.000Z</time>
      </trkpt>
      <trkpt lat="45.24779" lon="5.60712">
        <ele>561.40002441406</ele>
        <time>2019-08-11T08:07:33.000Z</time>
      </trkpt>
      <trkpt lat="45.24778" lon="5.60713">
        <ele>561.59997558594</ele>
        <time>2019-08-11T08:07:34.000Z</time>
      </trkpt>
      <trkpt lat="45.24779" lon="5.60715">
        <ele>561.79998779297</ele>
        <time>2019-08-11T08:07:35.000Z</time>
      </trkpt>
      <trkpt lat="45.2478" lon="5.60721">
        <ele>562.59997558594</ele>
        <time>2019-08-11T08:07:39.000Z</time>
      </trkpt>
      <trkpt lat="45.24781" lon="5.60723">
        <ele>563</ele>
        <time>2019-08-11T08:07:40.000Z</time>
      </trkpt>
      <trkpt lat="45.24781" lon="5.60728">
        <ele>563.59997558594</ele>
        <time>2019-08-11T08:07:44.000Z</time>
      </trkpt>
      <trkpt lat="45.24779" lon="5.60729">
        <ele>563.79998779297</ele>
        <time>2019-08-11T08:07:45.000Z</time>
      </trkpt>
      <trkpt lat="45.24778" lon="5.60731">
        <ele>564</ele>
        <time>2019-08-11T08:07:46.000Z</time>
      </trkpt>
      <trkpt lat="45.24773" lon="5.60735">
        <ele>564.59997558594</ele>
        <time>2019-08-11T08:07:49.000Z</time>
      </trkpt>
      <trkpt lat="45.24769" lon="5.60737">
        <ele>565.20001220703</ele>
        <time>2019-08-11T08:07:51.000Z</time>
      </trkpt>
      <trkpt lat="45.24764" lon="5.6074">
        <ele>565.59997558594</ele>
        <time>2019-08-11T08:07:53.000Z</time>
      </trkpt>
      <trkpt lat="45.24761" lon="5.60741">
        <ele>565.79998779297</ele>
        <time>2019-08-11T08:07:54.000Z</time>
      </trkpt>
      <trkpt lat="45.24757" lon="5.60743">
        <ele>566.20001220703</ele>
        <time>2019-08-11T08:07:56.000Z</time>
      </trkpt>
      <trkpt lat="45.24755" lon="5.60744">
        <ele>566.40002441406</ele>
        <time>2019-08-11T08:07:57.000Z</time>
      </trkpt>
      <trkpt lat="45.24751" lon="5.60746">
        <ele>566.79998779297</ele>
        <time>2019-08-11T08:07:59.000Z</time>
      </trkpt>
      <trkpt lat="45.24742" lon="5.60751">
        <ele>567.40002441406</ele>
        <time>2019-08-11T08:08:03.000Z</time>
      </trkpt>
      <trkpt lat="45.24738" lon="5.60752">
        <ele>567.79998779297</ele>
        <time>2019-08-11T08:08:05.000Z</time>
      </trkpt>
      <trkpt lat="45.24732" lon="5.60755">
        <ele>568.59997558594</ele>
        <time>2019-08-11T08:08:09.000Z</time>
      </trkpt>
      <trkpt lat="45.24731" lon="5.60756">
        <ele>568.79998779297</ele>
        <time>2019-08-11T08:08:10.000Z</time>
      </trkpt>
      <trkpt lat="45.24729" lon="5.60756">
        <ele>569.20001220703</ele>
        <time>2019-08-11T08:08:11.000Z</time>
      </trkpt>
      <trkpt lat="45.24726" lon="5.60759">
        <ele>569.40002441406</ele>
        <time>2019-08-11T08:08:13.000Z</time>
      </trkpt>
      <trkpt lat="45.24724" lon="5.60759">
        <ele>569.59997558594</ele>
        <time>2019-08-11T08:08:14.000Z</time>
      </trkpt>
      <trkpt lat="45.24721" lon="5.60758">
        <ele>570.20001220703</ele>
        <time>2019-08-11T08:08:16.000Z</time>
      </trkpt>
      <trkpt lat="45.24718" lon="5.60757">
        <ele>570.59997558594</ele>
        <time>2019-08-11T08:08:18.000Z</time>
      </trkpt>
      <trkpt lat="45.24715" lon="5.60757">
        <ele>571.20001220703</ele>
        <time>2019-08-11T08:08:21.000Z</time>
      </trkpt>
      <trkpt lat="45.24713" lon="5.60756">
        <ele>571.40002441406</ele>
        <time>2019-08-11T08:08:22.000Z</time>
      </trkpt>
      <trkpt lat="45.24705" lon="5.6075">
        <ele>572.20001220703</ele>
        <time>2019-08-11T08:08:27.000Z</time>
      </trkpt>
      <trkpt lat="45.24696" lon="5.60744">
        <ele>573</ele>
        <time>2019-08-11T08:08:33.000Z</time>
      </trkpt>
      <trkpt lat="45.24695" lon="5.60744">
        <ele>573.20001220703</ele>
        <time>2019-08-11T08:08:34.000Z</time>
      </trkpt>
      <trkpt lat="45.24688" lon="5.60741">
        <ele>574</ele>
        <time>2019-08-11T08:08:38.000Z</time>
      </trkpt>
      <trkpt lat="45.24686" lon="5.60741">
        <ele>574.20001220703</ele>
        <time>2019-08-11T08:08:39.000Z</time>
      </trkpt>
      <trkpt lat="45.24674" lon="5.60742">
        <ele>575.40002441406</ele>
        <time>2019-08-11T08:08:44.000Z</time>
      </trkpt>
      <trkpt lat="45.24662" lon="5.60743">
        <ele>576.59997558594</ele>
        <time>2019-08-11T08:08:50.000Z</time>
      </trkpt>
      <trkpt lat="45.24661" lon="5.60744">
        <ele>576.59997558594</ele>
        <time>2019-08-11T08:08:51.000Z</time>
      </trkpt>
      <trkpt lat="45.24652" lon="5.60746">
        <ele>577</ele>
        <time>2019-08-11T08:08:55.000Z</time>
      </trkpt>
      <trkpt lat="45.24648" lon="5.60748">
        <ele>577.40002441406</ele>
        <time>2019-08-11T08:08:57.000Z</time>
      </trkpt>
      <trkpt lat="45.24637" lon="5.60755">
        <ele>578.59997558594</ele>
        <time>2019-08-11T08:09:02.000Z</time>
      </trkpt>
      <trkpt lat="45.24628" lon="5.60758">
        <ele>579.79998779297</ele>
        <time>2019-08-11T08:09:07.000Z</time>
      </trkpt>
      <trkpt lat="45.24621" lon="5.60757">
        <ele>580.79998779297</ele>
        <time>2019-08-11T08:09:11.000Z</time>
      </trkpt>
      <trkpt lat="45.2462" lon="5.60756">
        <ele>581</ele>
        <time>2019-08-11T08:09:12.000Z</time>
      </trkpt>
      <trkpt lat="45.24614" lon="5.60754">
        <ele>582</ele>
        <time>2019-08-11T08:09:16.000Z</time>
      </trkpt>
      <trkpt lat="45.2461" lon="5.60752">
        <ele>582.59997558594</ele>
        <time>2019-08-11T08:09:18.000Z</time>
      </trkpt>
      <trkpt lat="45.24607" lon="5.6075">
        <ele>583</ele>
        <time>2019-08-11T08:09:20.000Z</time>
      </trkpt>
      <trkpt lat="45.24604" lon="5.60746">
        <ele>583.59997558594</ele>
        <time>2019-08-11T08:09:22.000Z</time>
      </trkpt>
      <trkpt lat="45.24603" lon="5.60742">
        <ele>584</ele>
        <time>2019-08-11T08:09:24.000Z</time>
      </trkpt>
      <trkpt lat="45.24602" lon="5.60732">
        <ele>585.20001220703</ele>
        <time>2019-08-11T08:09:28.000Z</time>
      </trkpt>
      <trkpt lat="45.24601" lon="5.60727">
        <ele>585.59997558594</ele>
        <time>2019-08-11T08:09:30.000Z</time>
      </trkpt>
      <trkpt lat="45.246" lon="5.60722">
        <ele>586.20001220703</ele>
        <time>2019-08-11T08:09:32.000Z</time>
      </trkpt>
      <trkpt lat="45.24598" lon="5.6071">
        <ele>587.20001220703</ele>
        <time>2019-08-11T08:09:37.000Z</time>
      </trkpt>
      <trkpt lat="45.24597" lon="5.60708">
        <ele>587.59997558594</ele>
        <time>2019-08-11T08:09:38.000Z</time>
      </trkpt>
      <trkpt lat="45.24592" lon="5.607">
        <ele>588.79998779297</ele>
        <time>2019-08-11T08:09:42.000Z</time>
      </trkpt>
      <trkpt lat="45.24589" lon="5.60698">
        <ele>589.59997558594</ele>
        <time>2019-08-11T08:09:47.000Z</time>
      </trkpt>
      <trkpt lat="45.24589" lon="5.60698">
        <ele>589.59997558594</ele>
        <time>2019-08-11T08:09:48.000Z</time>
      </trkpt>
      <trkpt lat="45.24588" lon="5.60698">
        <ele>590</ele>
        <time>2019-08-11T08:09:57.000Z</time>
      </trkpt>
      <trkpt lat="45.24588" lon="5.60697">
        <ele>590</ele>
        <time>2019-08-11T08:10:12.000Z</time>
      </trkpt>
      <trkpt lat="45.24587" lon="5.60697">
        <ele>590</ele>
        <time>2019-08-11T08:10:23.000Z</time>
      </trkpt>
      <trkpt lat="45.24587" lon="5.60697">
        <ele>589.59997558594</ele>
        <time>2019-08-11T08:10:39.000Z</time>
      </trkpt>
      <trkpt lat="45.24587" lon="5.60697">
        <ele>590</ele>
        <time>2019-08-11T08:10:54.000Z</time>
      </trkpt>
      <trkpt lat="45.24587" lon="5.60697">
        <ele>590</ele>
        <time>2019-08-11T08:11:29.000Z</time>
      </trkpt>
      <trkpt lat="45.24587" lon="5.60695">
        <ele>590</ele>
        <time>2019-08-11T08:11:59.000Z</time>
      </trkpt>
      <trkpt lat="45.24587" lon="5.60696">
        <ele>590.20001220703</ele>
        <time>2019-08-11T08:12:10.000Z</time>
      </trkpt>
      <trkpt lat="45.24586" lon="5.60694">
        <ele>590</ele>
        <time>2019-08-11T08:12:25.000Z</time>
      </trkpt>
      <trkpt lat="45.24587" lon="5.60695">
        <ele>590.20001220703</ele>
        <time>2019-08-11T08:12:39.000Z</time>
      </trkpt>
      <trkpt lat="45.24586" lon="5.60695">
        <ele>590.20001220703</ele>
        <time>2019-08-11T08:12:55.000Z</time>
      </trkpt>
      <trkpt lat="45.24586" lon="5.60695">
        <ele>590.20001220703</ele>
        <time>2019-08-11T08:13:09.000Z</time>
      </trkpt>
      <trkpt lat="45.24586" lon="5.60695">
        <ele>590.20001220703</ele>
        <time>2019-08-11T08:13:25.000Z</time>
      </trkpt>
      <trkpt lat="45.24587" lon="5.60694">
        <ele>590.40002441406</ele>
        <time>2019-08-11T08:13:39.000Z</time>
      </trkpt>
      <trkpt lat="45.24587" lon="5.60694">
        <ele>590.40002441406</ele>
        <time>2019-08-11T08:13:52.000Z</time>
      </trkpt>
      <trkpt lat="45.24587" lon="5.60694">
        <ele>590.40002441406</ele>
        <time>2019-08-11T08:14:04.000Z</time>
      </trkpt>
      <trkpt lat="45.24587" lon="5.60694">
        <ele>590.40002441406</ele>
        <time>2019-08-11T08:14:19.000Z</time>
      </trkpt>
      <trkpt lat="45.24584" lon="5.6069">
        <ele>590.59997558594</ele>
        <time>2019-08-11T08:14:30.000Z</time>
      </trkpt>
      <trkpt lat="45.24582" lon="5.60685">
        <ele>590.79998779297</ele>
        <time>2019-08-11T08:14:33.000Z</time>
      </trkpt>
      <trkpt lat="45.24579" lon="5.60682">
        <ele>591.40002441406</ele>
        <time>2019-08-11T08:14:35.000Z</time>
      </trkpt>
      <trkpt lat="45.24574" lon="5.60677">
        <ele>592.20001220703</ele>
        <time>2019-08-11T08:14:39.000Z</time>
      </trkpt>
      <trkpt lat="45.24571" lon="5.60672">
        <ele>592.79998779297</ele>
        <time>2019-08-11T08:14:42.000Z</time>
      </trkpt>
      <trkpt lat="45.2457" lon="5.60669">
        <ele>593.20001220703</ele>
        <time>2019-08-11T08:14:44.000Z</time>
      </trkpt>
      <trkpt lat="45.24565" lon="5.60662">
        <ele>593.79998779297</ele>
        <time>2019-08-11T08:14:48.000Z</time>
      </trkpt>
      <trkpt lat="45.24563" lon="5.60659">
        <ele>594.40002441406</ele>
        <time>2019-08-11T08:14:50.000Z</time>
      </trkpt>
      <trkpt lat="45.24561" lon="5.60654">
        <ele>594.79998779297</ele>
        <time>2019-08-11T08:14:53.000Z</time>
      </trkpt>
      <trkpt lat="45.24559" lon="5.6065">
        <ele>595.59997558594</ele>
        <time>2019-08-11T08:14:57.000Z</time>
      </trkpt>
      <trkpt lat="45.24558" lon="5.60649">
        <ele>595.59997558594</ele>
        <time>2019-08-11T08:14:58.000Z</time>
      </trkpt>
      <trkpt lat="45.24554" lon="5.60643">
        <ele>596.59997558594</ele>
        <time>2019-08-11T08:15:03.000Z</time>
      </trkpt>
      <trkpt lat="45.24549" lon="5.60635">
        <ele>597.59997558594</ele>
        <time>2019-08-11T08:15:08.000Z</time>
      </trkpt>
      <trkpt lat="45.24548" lon="5.60633">
        <ele>597.59997558594</ele>
        <time>2019-08-11T08:15:09.000Z</time>
      </trkpt>
      <trkpt lat="45.24543" lon="5.60627">
        <ele>598.79998779297</ele>
        <time>2019-08-11T08:15:14.000Z</time>
      </trkpt>
      <trkpt lat="45.24537" lon="5.60621">
        <ele>600</ele>
        <time>2019-08-11T08:15:19.000Z</time>
      </trkpt>
      <trkpt lat="45.24536" lon="5.6062">
        <ele>600.20001220703</ele>
        <time>2019-08-11T08:15:20.000Z</time>
      </trkpt>
      <trkpt lat="45.24532" lon="5.60615">
        <ele>601.20001220703</ele>
        <time>2019-08-11T08:15:24.000Z</time>
      </trkpt>
      <trkpt lat="45.24531" lon="5.60614">
        <ele>601.59997558594</ele>
        <time>2019-08-11T08:15:25.000Z</time>
      </trkpt>
      <trkpt lat="45.24526" lon="5.6061">
        <ele>602.20001220703</ele>
        <time>2019-08-11T08:15:29.000Z</time>
      </trkpt>
      <trkpt lat="45.24523" lon="5.60608">
        <ele>602.59997558594</ele>
        <time>2019-08-11T08:15:31.000Z</time>
      </trkpt>
      <trkpt lat="45.24519" lon="5.60604">
        <ele>603.40002441406</ele>
        <time>2019-08-11T08:15:35.000Z</time>
      </trkpt>
      <trkpt lat="45.24518" lon="5.60604">
        <ele>603.59997558594</ele>
        <time>2019-08-11T08:15:36.000Z</time>
      </trkpt>
      <trkpt lat="45.24511" lon="5.60598">
        <ele>604.40002441406</ele>
        <time>2019-08-11T08:15:41.000Z</time>
      </trkpt>
      <trkpt lat="45.24508" lon="5.60594">
        <ele>605</ele>
        <time>2019-08-11T08:15:44.000Z</time>
      </trkpt>
      <trkpt lat="45.24502" lon="5.60589">
        <ele>605.59997558594</ele>
        <time>2019-08-11T08:15:49.000Z</time>
      </trkpt>
      <trkpt lat="45.24497" lon="5.60583">
        <ele>606</ele>
        <time>2019-08-11T08:15:53.000Z</time>
      </trkpt>
      <trkpt lat="45.24493" lon="5.60581">
        <ele>606.59997558594</ele>
        <time>2019-08-11T08:15:56.000Z</time>
      </trkpt>
      <trkpt lat="45.24488" lon="5.60578">
        <ele>607.59997558594</ele>
        <time>2019-08-11T08:16:00.000Z</time>
      </trkpt>
      <trkpt lat="45.24484" lon="5.60574">
        <ele>608.20001220703</ele>
        <time>2019-08-11T08:16:03.000Z</time>
      </trkpt>
      <trkpt lat="45.2448" lon="5.60569">
        <ele>608.59997558594</ele>
        <time>2019-08-11T08:16:06.000Z</time>
      </trkpt>
      <trkpt lat="45.24479" lon="5.60568">
        <ele>608.79998779297</ele>
        <time>2019-08-11T08:16:07.000Z</time>
      </trkpt>
      <trkpt lat="45.24476" lon="5.60565">
        <ele>609.20001220703</ele>
        <time>2019-08-11T08:16:09.000Z</time>
      </trkpt>
      <trkpt lat="45.24473" lon="5.60562">
        <ele>609.79998779297</ele>
        <time>2019-08-11T08:16:12.000Z</time>
      </trkpt>
      <trkpt lat="45.24468" lon="5.60561">
        <ele>610.40002441406</ele>
        <time>2019-08-11T08:16:15.000Z</time>
      </trkpt>
      <trkpt lat="45.24463" lon="5.6056">
        <ele>611.40002441406</ele>
        <time>2019-08-11T08:16:19.000Z</time>
      </trkpt>
      <trkpt lat="45.24462" lon="5.60561">
        <ele>611.40002441406</ele>
        <time>2019-08-11T08:16:20.000Z</time>
      </trkpt>
      <trkpt lat="45.24457" lon="5.60563">
        <ele>612</ele>
        <time>2019-08-11T08:16:25.000Z</time>
      </trkpt>
      <trkpt lat="45.24456" lon="5.60565">
        <ele>612.40002441406</ele>
        <time>2019-08-11T08:16:27.000Z</time>
      </trkpt>
      <trkpt lat="45.24455" lon="5.60566">
        <ele>612.79998779297</ele>
        <time>2019-08-11T08:16:28.000Z</time>
      </trkpt>
      <trkpt lat="45.24454" lon="5.60567">
        <ele>612.79998779297</ele>
        <time>2019-08-11T08:16:29.000Z</time>
      </trkpt>
      <trkpt lat="45.24452" lon="5.6057">
        <ele>613.20001220703</ele>
        <time>2019-08-11T08:16:31.000Z</time>
      </trkpt>
      <trkpt lat="45.24449" lon="5.60573">
        <ele>613.79998779297</ele>
        <time>2019-08-11T08:16:34.000Z</time>
      </trkpt>
      <trkpt lat="45.24443" lon="5.60581">
        <ele>615</ele>
        <time>2019-08-11T08:16:39.000Z</time>
      </trkpt>
      <trkpt lat="45.24437" lon="5.60586">
        <ele>615.59997558594</ele>
        <time>2019-08-11T08:16:43.000Z</time>
      </trkpt>
      <trkpt lat="45.24429" lon="5.60593">
        <ele>616</ele>
        <time>2019-08-11T08:16:48.000Z</time>
      </trkpt>
      <trkpt lat="45.24427" lon="5.60593">
        <ele>616</ele>
        <time>2019-08-11T08:16:49.000Z</time>
      </trkpt>
      <trkpt lat="45.24422" lon="5.60594">
        <ele>616.20001220703</ele>
        <time>2019-08-11T08:16:52.000Z</time>
      </trkpt>
      <trkpt lat="45.24418" lon="5.60595">
        <ele>616.20001220703</ele>
        <time>2019-08-11T08:16:55.000Z</time>
      </trkpt>
      <trkpt lat="45.24415" lon="5.60595">
        <ele>616.20001220703</ele>
        <time>2019-08-11T08:16:56.000Z</time>
      </trkpt>
      <trkpt lat="45.2441" lon="5.60595">
        <ele>616.20001220703</ele>
        <time>2019-08-11T08:16:59.000Z</time>
      </trkpt>
      <trkpt lat="45.24398" lon="5.60599">
        <ele>616.59997558594</ele>
        <time>2019-08-11T08:17:04.000Z</time>
      </trkpt>
      <trkpt lat="45.24388" lon="5.6061">
        <ele>616.79998779297</ele>
        <time>2019-08-11T08:17:10.000Z</time>
      </trkpt>
      <trkpt lat="45.24385" lon="5.60613">
        <ele>617.20001220703</ele>
        <time>2019-08-11T08:17:12.000Z</time>
      </trkpt>
      <trkpt lat="45.2438" lon="5.60621">
        <ele>617.79998779297</ele>
        <time>2019-08-11T08:17:16.000Z</time>
      </trkpt>
      <trkpt lat="45.24376" lon="5.60627">
        <ele>618.40002441406</ele>
        <time>2019-08-11T08:17:19.000Z</time>
      </trkpt>
      <trkpt lat="45.24369" lon="5.60633">
        <ele>619</ele>
        <time>2019-08-11T08:17:23.000Z</time>
      </trkpt>
      <trkpt lat="45.2436" lon="5.60642">
        <ele>619.40002441406</ele>
        <time>2019-08-11T08:17:29.000Z</time>
      </trkpt>
      <trkpt lat="45.24356" lon="5.60645">
        <ele>619.40002441406</ele>
        <time>2019-08-11T08:17:31.000Z</time>
      </trkpt>
      <trkpt lat="45.24354" lon="5.60646">
        <ele>619.59997558594</ele>
        <time>2019-08-11T08:17:32.000Z</time>
      </trkpt>
      <trkpt lat="45.24349" lon="5.60649">
        <ele>620</ele>
        <time>2019-08-11T08:17:35.000Z</time>
      </trkpt>
      <trkpt lat="45.24336" lon="5.60654">
        <ele>620.59997558594</ele>
        <time>2019-08-11T08:17:41.000Z</time>
      </trkpt>
      <trkpt lat="45.24326" lon="5.60657">
        <ele>620.79998779297</ele>
        <time>2019-08-11T08:17:45.000Z</time>
      </trkpt>
      <trkpt lat="45.24322" lon="5.60659">
        <ele>621</ele>
        <time>2019-08-11T08:17:47.000Z</time>
      </trkpt>
      <trkpt lat="45.24307" lon="5.60669">
        <ele>621.59997558594</ele>
        <time>2019-08-11T08:17:54.000Z</time>
      </trkpt>
      <trkpt lat="45.24298" lon="5.6068">
        <ele>622</ele>
        <time>2019-08-11T08:17:59.000Z</time>
      </trkpt>
      <trkpt lat="45.24296" lon="5.60682">
        <ele>622</ele>
        <time>2019-08-11T08:18:00.000Z</time>
      </trkpt>
      <trkpt lat="45.24289" lon="5.60689">
        <ele>622.20001220703</ele>
        <time>2019-08-11T08:18:04.000Z</time>
      </trkpt>
      <trkpt lat="45.24287" lon="5.60692">
        <ele>622.20001220703</ele>
        <time>2019-08-11T08:18:05.000Z</time>
      </trkpt>
      <trkpt lat="45.24283" lon="5.60699">
        <ele>622.40002441406</ele>
        <time>2019-08-11T08:18:08.000Z</time>
      </trkpt>
      <trkpt lat="45.24282" lon="5.60702">
        <ele>622.59997558594</ele>
        <time>2019-08-11T08:18:09.000Z</time>
      </trkpt>
      <trkpt lat="45.24275" lon="5.60713">
        <ele>622.59997558594</ele>
        <time>2019-08-11T08:18:13.000Z</time>
      </trkpt>
      <trkpt lat="45.24272" lon="5.60722">
        <ele>622.79998779297</ele>
        <time>2019-08-11T08:18:16.000Z</time>
      </trkpt>
      <trkpt lat="45.24268" lon="5.60729">
        <ele>622.79998779297</ele>
        <time>2019-08-11T08:18:19.000Z</time>
      </trkpt>
      <trkpt lat="45.24262" lon="5.60744">
        <ele>623.20001220703</ele>
        <time>2019-08-11T08:18:24.000Z</time>
      </trkpt>
      <trkpt lat="45.24258" lon="5.60753">
        <ele>623.59997558594</ele>
        <time>2019-08-11T08:18:27.000Z</time>
      </trkpt>
      <trkpt lat="45.24257" lon="5.60764">
        <ele>623.79998779297</ele>
        <time>2019-08-11T08:18:30.000Z</time>
      </trkpt>
      <trkpt lat="45.24251" lon="5.60783">
        <ele>624.40002441406</ele>
        <time>2019-08-11T08:18:36.000Z</time>
      </trkpt>
      <trkpt lat="45.24249" lon="5.60794">
        <ele>624.79998779297</ele>
        <time>2019-08-11T08:18:39.000Z</time>
      </trkpt>
      <trkpt lat="45.24244" lon="5.60802">
        <ele>625.20001220703</ele>
        <time>2019-08-11T08:18:42.000Z</time>
      </trkpt>
      <trkpt lat="45.24237" lon="5.6081">
        <ele>626</ele>
        <time>2019-08-11T08:18:46.000Z</time>
      </trkpt>
      <trkpt lat="45.24235" lon="5.60813">
        <ele>626</ele>
        <time>2019-08-11T08:18:47.000Z</time>
      </trkpt>
      <trkpt lat="45.24227" lon="5.60822">
        <ele>626.79998779297</ele>
        <time>2019-08-11T08:18:52.000Z</time>
      </trkpt>
      <trkpt lat="45.24218" lon="5.6083">
        <ele>627.59997558594</ele>
        <time>2019-08-11T08:18:57.000Z</time>
      </trkpt>
      <trkpt lat="45.2421" lon="5.60839">
        <ele>627.79998779297</ele>
        <time>2019-08-11T08:19:02.000Z</time>
      </trkpt>
      <trkpt lat="45.24205" lon="5.60847">
        <ele>628.79998779297</ele>
        <time>2019-08-11T08:19:06.000Z</time>
      </trkpt>
      <trkpt lat="45.24204" lon="5.60849">
        <ele>629</ele>
        <time>2019-08-11T08:19:07.000Z</time>
      </trkpt>
      <trkpt lat="45.24201" lon="5.60854">
        <ele>630</ele>
        <time>2019-08-11T08:19:09.000Z</time>
      </trkpt>
      <trkpt lat="45.242" lon="5.60859">
        <ele>630.59997558594</ele>
        <time>2019-08-11T08:19:11.000Z</time>
      </trkpt>
      <trkpt lat="45.24197" lon="5.60872">
        <ele>631.20001220703</ele>
        <time>2019-08-11T08:19:16.000Z</time>
      </trkpt>
      <trkpt lat="45.24197" lon="5.60875">
        <ele>631.40002441406</ele>
        <time>2019-08-11T08:19:17.000Z</time>
      </trkpt>
      <trkpt lat="45.24194" lon="5.60889">
        <ele>632.20001220703</ele>
        <time>2019-08-11T08:19:22.000Z</time>
      </trkpt>
      <trkpt lat="45.24193" lon="5.60896">
        <ele>632.59997558594</ele>
        <time>2019-08-11T08:19:24.000Z</time>
      </trkpt>
      <trkpt lat="45.24189" lon="5.60906">
        <ele>633.59997558594</ele>
        <time>2019-08-11T08:19:28.000Z</time>
      </trkpt>
      <trkpt lat="45.24188" lon="5.6091">
        <ele>633.79998779297</ele>
        <time>2019-08-11T08:19:30.000Z</time>
      </trkpt>
      <trkpt lat="45.24183" lon="5.6092">
        <ele>634.20001220703</ele>
        <time>2019-08-11T08:19:34.000Z</time>
      </trkpt>
      <trkpt lat="45.24178" lon="5.60935">
        <ele>634.40002441406</ele>
        <time>2019-08-11T08:19:39.000Z</time>
      </trkpt>
      <trkpt lat="45.24177" lon="5.60956">
        <ele>635</ele>
        <time>2019-08-11T08:19:45.000Z</time>
      </trkpt>
      <trkpt lat="45.24176" lon="5.60964">
        <ele>635.59997558594</ele>
        <time>2019-08-11T08:19:48.000Z</time>
      </trkpt>
      <trkpt lat="45.24177" lon="5.60967">
        <ele>635.79998779297</ele>
        <time>2019-08-11T08:19:49.000Z</time>
      </trkpt>
      <trkpt lat="45.24175" lon="5.60971">
        <ele>636.40002441406</ele>
        <time>2019-08-11T08:19:51.000Z</time>
      </trkpt>
      <trkpt lat="45.24171" lon="5.60983">
        <ele>637.40002441406</ele>
        <time>2019-08-11T08:19:56.000Z</time>
      </trkpt>
      <trkpt lat="45.24165" lon="5.60995">
        <ele>638</ele>
        <time>2019-08-11T08:20:02.000Z</time>
      </trkpt>
      <trkpt lat="45.2416" lon="5.61009">
        <ele>638.79998779297</ele>
        <time>2019-08-11T08:20:07.000Z</time>
      </trkpt>
      <trkpt lat="45.24159" lon="5.61011">
        <ele>639</ele>
        <time>2019-08-11T08:20:08.000Z</time>
      </trkpt>
      <trkpt lat="45.24158" lon="5.61019">
        <ele>639.40002441406</ele>
        <time>2019-08-11T08:20:11.000Z</time>
      </trkpt>
      <trkpt lat="45.24157" lon="5.61022">
        <ele>639.79998779297</ele>
        <time>2019-08-11T08:20:12.000Z</time>
      </trkpt>
      <trkpt lat="45.24158" lon="5.61042">
        <ele>640.40002441406</ele>
        <time>2019-08-11T08:20:18.000Z</time>
      </trkpt>
      <trkpt lat="45.24158" lon="5.6105">
        <ele>640.79998779297</ele>
        <time>2019-08-11T08:20:20.000Z</time>
      </trkpt>
      <trkpt lat="45.24158" lon="5.61059">
        <ele>641.79998779297</ele>
        <time>2019-08-11T08:20:23.000Z</time>
      </trkpt>
      <trkpt lat="45.24158" lon="5.61064">
        <ele>642.20001220703</ele>
        <time>2019-08-11T08:20:25.000Z</time>
      </trkpt>
      <trkpt lat="45.24158" lon="5.61072">
        <ele>643</ele>
        <time>2019-08-11T08:20:29.000Z</time>
      </trkpt>
      <trkpt lat="45.24156" lon="5.61079">
        <ele>643.40002441406</ele>
        <time>2019-08-11T08:20:32.000Z</time>
      </trkpt>
      <trkpt lat="45.24154" lon="5.61085">
        <ele>643.59997558594</ele>
        <time>2019-08-11T08:20:34.000Z</time>
      </trkpt>
      <trkpt lat="45.24152" lon="5.6109">
        <ele>644</ele>
        <time>2019-08-11T08:20:36.000Z</time>
      </trkpt>
      <trkpt lat="45.24148" lon="5.61096">
        <ele>644.79998779297</ele>
        <time>2019-08-11T08:20:39.000Z</time>
      </trkpt>
      <trkpt lat="45.24147" lon="5.611">
        <ele>645.20001220703</ele>
        <time>2019-08-11T08:20:41.000Z</time>
      </trkpt>
      <trkpt lat="45.24146" lon="5.61101">
        <ele>645.20001220703</ele>
        <time>2019-08-11T08:20:42.000Z</time>
      </trkpt>
      <trkpt lat="45.24146" lon="5.61105">
        <ele>645.79998779297</ele>
        <time>2019-08-11T08:20:44.000Z</time>
      </trkpt>
      <trkpt lat="45.24145" lon="5.61107">
        <ele>646</ele>
        <time>2019-08-11T08:20:45.000Z</time>
      </trkpt>
      <trkpt lat="45.24145" lon="5.6111">
        <ele>646.20001220703</ele>
        <time>2019-08-11T08:20:46.000Z</time>
      </trkpt>
      <trkpt lat="45.24143" lon="5.61122">
        <ele>646.79998779297</ele>
        <time>2019-08-11T08:20:51.000Z</time>
      </trkpt>
      <trkpt lat="45.24143" lon="5.61127">
        <ele>647.59997558594</ele>
        <time>2019-08-11T08:20:53.000Z</time>
      </trkpt>
      <trkpt lat="45.24142" lon="5.61132">
        <ele>648</ele>
        <time>2019-08-11T08:20:55.000Z</time>
      </trkpt>
      <trkpt lat="45.24141" lon="5.61136">
        <ele>648.59997558594</ele>
        <time>2019-08-11T08:20:57.000Z</time>
      </trkpt>
      <trkpt lat="45.24141" lon="5.61141">
        <ele>649</ele>
        <time>2019-08-11T08:20:59.000Z</time>
      </trkpt>
      <trkpt lat="45.24141" lon="5.61143">
        <ele>649.20001220703</ele>
        <time>2019-08-11T08:21:00.000Z</time>
      </trkpt>
      <trkpt lat="45.2414" lon="5.61147">
        <ele>649.40002441406</ele>
        <time>2019-08-11T08:21:02.000Z</time>
      </trkpt>
      <trkpt lat="45.2414" lon="5.61154">
        <ele>650.20001220703</ele>
        <time>2019-08-11T08:21:05.000Z</time>
      </trkpt>
      <trkpt lat="45.24139" lon="5.61158">
        <ele>650.59997558594</ele>
        <time>2019-08-11T08:21:07.000Z</time>
      </trkpt>
      <trkpt lat="45.24139" lon="5.61169">
        <ele>651.40002441406</ele>
        <time>2019-08-11T08:21:12.000Z</time>
      </trkpt>
      <trkpt lat="45.24139" lon="5.61172">
        <ele>651.59997558594</ele>
        <time>2019-08-11T08:21:13.000Z</time>
      </trkpt>
      <trkpt lat="45.24138" lon="5.61181">
        <ele>652.20001220703</ele>
        <time>2019-08-11T08:21:17.000Z</time>
      </trkpt>
      <trkpt lat="45.24138" lon="5.61183">
        <ele>652.40002441406</ele>
        <time>2019-08-11T08:21:18.000Z</time>
      </trkpt>
      <trkpt lat="45.24137" lon="5.6119">
        <ele>653</ele>
        <time>2019-08-11T08:21:22.000Z</time>
      </trkpt>
      <trkpt lat="45.24137" lon="5.61192">
        <ele>653</ele>
        <time>2019-08-11T08:21:23.000Z</time>
      </trkpt>
      <trkpt lat="45.24136" lon="5.61202">
        <ele>653.79998779297</ele>
        <time>2019-08-11T08:21:26.000Z</time>
      </trkpt>
      <trkpt lat="45.24136" lon="5.61207">
        <ele>654</ele>
        <time>2019-08-11T08:21:28.000Z</time>
      </trkpt>
      <trkpt lat="45.24136" lon="5.61212">
        <ele>654.40002441406</ele>
        <time>2019-08-11T08:21:30.000Z</time>
      </trkpt>
      <trkpt lat="45.24136" lon="5.61216">
        <ele>654.79998779297</ele>
        <time>2019-08-11T08:21:32.000Z</time>
      </trkpt>
      <trkpt lat="45.24138" lon="5.61226">
        <ele>655.40002441406</ele>
        <time>2019-08-11T08:21:37.000Z</time>
      </trkpt>
      <trkpt lat="45.24138" lon="5.61235">
        <ele>656.20001220703</ele>
        <time>2019-08-11T08:21:41.000Z</time>
      </trkpt>
      <trkpt lat="45.24139" lon="5.6124">
        <ele>656.79998779297</ele>
        <time>2019-08-11T08:21:43.000Z</time>
      </trkpt>
      <trkpt lat="45.24141" lon="5.61252">
        <ele>657.20001220703</ele>
        <time>2019-08-11T08:21:47.000Z</time>
      </trkpt>
      <trkpt lat="45.24141" lon="5.61255">
        <ele>657.59997558594</ele>
        <time>2019-08-11T08:21:48.000Z</time>
      </trkpt>
      <trkpt lat="45.24139" lon="5.61272">
        <ele>658</ele>
        <time>2019-08-11T08:21:53.000Z</time>
      </trkpt>
      <trkpt lat="45.24138" lon="5.61275">
        <ele>658</ele>
        <time>2019-08-11T08:21:54.000Z</time>
      </trkpt>
      <trkpt lat="45.24138" lon="5.61288">
        <ele>658</ele>
        <time>2019-08-11T08:21:58.000Z</time>
      </trkpt>
      <trkpt lat="45.24135" lon="5.61306">
        <ele>658.40002441406</ele>
        <time>2019-08-11T08:22:04.000Z</time>
      </trkpt>
      <trkpt lat="45.24132" lon="5.61329">
        <ele>658.79998779297</ele>
        <time>2019-08-11T08:22:10.000Z</time>
      </trkpt>
      <trkpt lat="45.24132" lon="5.61335">
        <ele>658.79998779297</ele>
        <time>2019-08-11T08:22:12.000Z</time>
      </trkpt>
      <trkpt lat="45.2413" lon="5.61346">
        <ele>659</ele>
        <time>2019-08-11T08:22:15.000Z</time>
      </trkpt>
      <trkpt lat="45.24127" lon="5.6136">
        <ele>659</ele>
        <time>2019-08-11T08:22:19.000Z</time>
      </trkpt>
      <trkpt lat="45.24125" lon="5.61374">
        <ele>659.59997558594</ele>
        <time>2019-08-11T08:22:23.000Z</time>
      </trkpt>
      <trkpt lat="45.24123" lon="5.61391">
        <ele>660.40002441406</ele>
        <time>2019-08-11T08:22:28.000Z</time>
      </trkpt>
      <trkpt lat="45.2412" lon="5.61408">
        <ele>660.59997558594</ele>
        <time>2019-08-11T08:22:32.000Z</time>
      </trkpt>
      <trkpt lat="45.24119" lon="5.61442">
        <ele>660.59997558594</ele>
        <time>2019-08-11T08:22:39.000Z</time>
      </trkpt>
      <trkpt lat="45.24115" lon="5.61458">
        <ele>660.59997558594</ele>
        <time>2019-08-11T08:22:43.000Z</time>
      </trkpt>
      <trkpt lat="45.24107" lon="5.61474">
        <ele>660.59997558594</ele>
        <time>2019-08-11T08:22:48.000Z</time>
      </trkpt>
      <trkpt lat="45.24098" lon="5.61488">
        <ele>660.40002441406</ele>
        <time>2019-08-11T08:22:53.000Z</time>
      </trkpt>
      <trkpt lat="45.2409" lon="5.61497">
        <ele>660.79998779297</ele>
        <time>2019-08-11T08:22:57.000Z</time>
      </trkpt>
      <trkpt lat="45.24081" lon="5.61512">
        <ele>661.20001220703</ele>
        <time>2019-08-11T08:23:02.000Z</time>
      </trkpt>
      <trkpt lat="45.24069" lon="5.61533">
        <ele>661.40002441406</ele>
        <time>2019-08-11T08:23:09.000Z</time>
      </trkpt>
      <trkpt lat="45.2406" lon="5.61543">
        <ele>661.40002441406</ele>
        <time>2019-08-11T08:23:13.000Z</time>
      </trkpt>
      <trkpt lat="45.24054" lon="5.61548">
        <ele>661.40002441406</ele>
        <time>2019-08-11T08:23:15.000Z</time>
      </trkpt>
      <trkpt lat="45.24052" lon="5.61551">
        <ele>661.40002441406</ele>
        <time>2019-08-11T08:23:16.000Z</time>
      </trkpt>
      <trkpt lat="45.24038" lon="5.61567">
        <ele>662</ele>
        <time>2019-08-11T08:23:21.000Z</time>
      </trkpt>
      <trkpt lat="45.24036" lon="5.6157">
        <ele>662</ele>
        <time>2019-08-11T08:23:22.000Z</time>
      </trkpt>
      <trkpt lat="45.24027" lon="5.61584">
        <ele>662.40002441406</ele>
        <time>2019-08-11T08:23:26.000Z</time>
      </trkpt>
      <trkpt lat="45.24024" lon="5.61587">
        <ele>662.59997558594</ele>
        <time>2019-08-11T08:23:27.000Z</time>
      </trkpt>
      <trkpt lat="45.24021" lon="5.61598">
        <ele>663.20001220703</ele>
        <time>2019-08-11T08:23:31.000Z</time>
      </trkpt>
      <trkpt lat="45.24027" lon="5.61603">
        <ele>663.20001220703</ele>
        <time>2019-08-11T08:23:32.000Z</time>
      </trkpt>
      <trkpt lat="45.24024" lon="5.6162">
        <ele>663.59997558594</ele>
        <time>2019-08-11T08:23:37.000Z</time>
      </trkpt>
      <trkpt lat="45.2402" lon="5.61628">
        <ele>663.79998779297</ele>
        <time>2019-08-11T08:23:40.000Z</time>
      </trkpt>
      <trkpt lat="45.24014" lon="5.61635">
        <ele>664.20001220703</ele>
        <time>2019-08-11T08:23:43.000Z</time>
      </trkpt>
      <trkpt lat="45.24002" lon="5.61643">
        <ele>664.79998779297</ele>
        <time>2019-08-11T08:23:49.000Z</time>
      </trkpt>
      <trkpt lat="45.2399" lon="5.61645">
        <ele>664.79998779297</ele>
        <time>2019-08-11T08:23:54.000Z</time>
      </trkpt>
      <trkpt lat="45.23982" lon="5.61647">
        <ele>665</ele>
        <time>2019-08-11T08:23:59.000Z</time>
      </trkpt>
      <trkpt lat="45.23981" lon="5.61647">
        <ele>665</ele>
        <time>2019-08-11T08:24:00.000Z</time>
      </trkpt>
      <trkpt lat="45.23976" lon="5.6165">
        <ele>665.20001220703</ele>
        <time>2019-08-11T08:24:04.000Z</time>
      </trkpt>
      <trkpt lat="45.23964" lon="5.61649">
        <ele>665.59997558594</ele>
        <time>2019-08-11T08:24:10.000Z</time>
      </trkpt>
      <trkpt lat="45.23962" lon="5.61647">
        <ele>665.79998779297</ele>
        <time>2019-08-11T08:24:12.000Z</time>
      </trkpt>
      <trkpt lat="45.23956" lon="5.61646">
        <ele>666</ele>
        <time>2019-08-11T08:24:15.000Z</time>
      </trkpt>
      <trkpt lat="45.23951" lon="5.61648">
        <ele>666.20001220703</ele>
        <time>2019-08-11T08:24:21.000Z</time>
      </trkpt>
      <trkpt lat="45.23952" lon="5.61648">
        <ele>666</ele>
        <time>2019-08-11T08:24:36.000Z</time>
      </trkpt>
      <trkpt lat="45.23951" lon="5.61648">
        <ele>665.79998779297</ele>
        <time>2019-08-11T08:24:52.000Z</time>
      </trkpt>
      <trkpt lat="45.2395" lon="5.61648">
        <ele>666</ele>
        <time>2019-08-11T08:25:07.000Z</time>
      </trkpt>
      <trkpt lat="45.2395" lon="5.61647">
        <ele>665.59997558594</ele>
        <time>2019-08-11T08:25:22.000Z</time>
      </trkpt>
      <trkpt lat="45.2395" lon="5.61647">
        <ele>665.59997558594</ele>
        <time>2019-08-11T08:25:36.000Z</time>
      </trkpt>
      <trkpt lat="45.2395" lon="5.61646">
        <ele>665.79998779297</ele>
        <time>2019-08-11T08:25:53.000Z</time>
      </trkpt>
      <trkpt lat="45.23946" lon="5.6164">
        <ele>666</ele>
        <time>2019-08-11T08:25:59.000Z</time>
      </trkpt>
      <trkpt lat="45.23945" lon="5.61639">
        <ele>666</ele>
        <time>2019-08-11T08:26:00.000Z</time>
      </trkpt>
      <trkpt lat="45.23939" lon="5.61627">
        <ele>665.59997558594</ele>
        <time>2019-08-11T08:26:05.000Z</time>
      </trkpt>
      <trkpt lat="45.23937" lon="5.61624">
        <ele>665.79998779297</ele>
        <time>2019-08-11T08:26:06.000Z</time>
      </trkpt>
      <trkpt lat="45.23932" lon="5.61616">
        <ele>665.79998779297</ele>
        <time>2019-08-11T08:26:09.000Z</time>
      </trkpt>
      <trkpt lat="45.2393" lon="5.61613">
        <ele>666</ele>
        <time>2019-08-11T08:26:10.000Z</time>
      </trkpt>
      <trkpt lat="45.23926" lon="5.61608">
        <ele>666.20001220703</ele>
        <time>2019-08-11T08:26:12.000Z</time>
      </trkpt>
      <trkpt lat="45.23915" lon="5.61602">
        <ele>666.59997558594</ele>
        <time>2019-08-11T08:26:17.000Z</time>
      </trkpt>
      <trkpt lat="45.23914" lon="5.61601">
        <ele>667</ele>
        <time>2019-08-11T08:26:18.000Z</time>
      </trkpt>
      <trkpt lat="45.23912" lon="5.61601">
        <ele>667</ele>
        <time>2019-08-11T08:26:19.000Z</time>
      </trkpt>
      <trkpt lat="45.23907" lon="5.61604">
        <ele>667</ele>
        <time>2019-08-11T08:26:21.000Z</time>
      </trkpt>
      <trkpt lat="45.23898" lon="5.61611">
        <ele>667</ele>
        <time>2019-08-11T08:26:25.000Z</time>
      </trkpt>
      <trkpt lat="45.23886" lon="5.61625">
        <ele>666.79998779297</ele>
        <time>2019-08-11T08:26:31.000Z</time>
      </trkpt>
      <trkpt lat="45.23878" lon="5.61641">
        <ele>667.20001220703</ele>
        <time>2019-08-11T08:26:35.000Z</time>
      </trkpt>
      <trkpt lat="45.23869" lon="5.61656">
        <ele>667.59997558594</ele>
        <time>2019-08-11T08:26:39.000Z</time>
      </trkpt>
      <trkpt lat="45.23863" lon="5.61673">
        <ele>667.40002441406</ele>
        <time>2019-08-11T08:26:43.000Z</time>
      </trkpt>
      <trkpt lat="45.23858" lon="5.61681">
        <ele>667.79998779297</ele>
        <time>2019-08-11T08:26:45.000Z</time>
      </trkpt>
      <trkpt lat="45.23855" lon="5.61689">
        <ele>668</ele>
        <time>2019-08-11T08:26:47.000Z</time>
      </trkpt>
      <trkpt lat="45.23846" lon="5.61705">
        <ele>668.40002441406</ele>
        <time>2019-08-11T08:26:52.000Z</time>
      </trkpt>
      <trkpt lat="45.23841" lon="5.61713">
        <ele>668.79998779297</ele>
        <time>2019-08-11T08:26:54.000Z</time>
      </trkpt>
      <trkpt lat="45.23835" lon="5.61722">
        <ele>669</ele>
        <time>2019-08-11T08:26:57.000Z</time>
      </trkpt>
      <trkpt lat="45.2383" lon="5.61734">
        <ele>669.79998779297</ele>
        <time>2019-08-11T08:27:00.000Z</time>
      </trkpt>
      <trkpt lat="45.23826" lon="5.61744">
        <ele>669.79998779297</ele>
        <time>2019-08-11T08:27:03.000Z</time>
      </trkpt>
      <trkpt lat="45.2382" lon="5.61754">
        <ele>669.59997558594</ele>
        <time>2019-08-11T08:27:07.000Z</time>
      </trkpt>
      <trkpt lat="45.23814" lon="5.61763">
        <ele>669.59997558594</ele>
        <time>2019-08-11T08:27:10.000Z</time>
      </trkpt>
      <trkpt lat="45.2381" lon="5.61768">
        <ele>670</ele>
        <time>2019-08-11T08:27:12.000Z</time>
      </trkpt>
      <trkpt lat="45.23799" lon="5.6178">
        <ele>670.20001220703</ele>
        <time>2019-08-11T08:27:17.000Z</time>
      </trkpt>
      <trkpt lat="45.23792" lon="5.61791">
        <ele>670.20001220703</ele>
        <time>2019-08-11T08:27:20.000Z</time>
      </trkpt>
      <trkpt lat="45.23789" lon="5.61795">
        <ele>670.20001220703</ele>
        <time>2019-08-11T08:27:21.000Z</time>
      </trkpt>
      <trkpt lat="45.2378" lon="5.61815">
        <ele>671.20001220703</ele>
        <time>2019-08-11T08:27:26.000Z</time>
      </trkpt>
      <trkpt lat="45.23772" lon="5.61835">
        <ele>671.40002441406</ele>
        <time>2019-08-11T08:27:31.000Z</time>
      </trkpt>
      <trkpt lat="45.23762" lon="5.61859">
        <ele>671.79998779297</ele>
        <time>2019-08-11T08:27:36.000Z</time>
      </trkpt>
      <trkpt lat="45.23748" lon="5.61879">
        <ele>672.59997558594</ele>
        <time>2019-08-11T08:27:41.000Z</time>
      </trkpt>
      <trkpt lat="45.2373" lon="5.61899">
        <ele>672.20001220703</ele>
        <time>2019-08-11T08:27:46.000Z</time>
      </trkpt>
      <trkpt lat="45.23717" lon="5.6191">
        <ele>672.40002441406</ele>
        <time>2019-08-11T08:27:50.000Z</time>
      </trkpt>
      <trkpt lat="45.23712" lon="5.61911">
        <ele>672.59997558594</ele>
        <time>2019-08-11T08:27:51.000Z</time>
      </trkpt>
      <trkpt lat="45.2369" lon="5.61907">
        <ele>673</ele>
        <time>2019-08-11T08:27:55.000Z</time>
      </trkpt>
      <trkpt lat="45.23678" lon="5.61904">
        <ele>673.40002441406</ele>
        <time>2019-08-11T08:27:57.000Z</time>
      </trkpt>
      <trkpt lat="45.23663" lon="5.61903">
        <ele>673.59997558594</ele>
        <time>2019-08-11T08:28:00.000Z</time>
      </trkpt>
      <trkpt lat="45.23644" lon="5.61901">
        <ele>674.20001220703</ele>
        <time>2019-08-11T08:28:05.000Z</time>
      </trkpt>
      <trkpt lat="45.23625" lon="5.61902">
        <ele>675</ele>
        <time>2019-08-11T08:28:10.000Z</time>
      </trkpt>
      <trkpt lat="45.23621" lon="5.61902">
        <ele>675.20001220703</ele>
        <time>2019-08-11T08:28:11.000Z</time>
      </trkpt>
      <trkpt lat="45.2361" lon="5.61902">
        <ele>675.59997558594</ele>
        <time>2019-08-11T08:28:15.000Z</time>
      </trkpt>
      <trkpt lat="45.23597" lon="5.61903">
        <ele>676</ele>
        <time>2019-08-11T08:28:20.000Z</time>
      </trkpt>
      <trkpt lat="45.23595" lon="5.61904">
        <ele>676.20001220703</ele>
        <time>2019-08-11T08:28:21.000Z</time>
      </trkpt>
      <trkpt lat="45.23578" lon="5.61908">
        <ele>676.79998779297</ele>
        <time>2019-08-11T08:28:26.000Z</time>
      </trkpt>
      <trkpt lat="45.23564" lon="5.61907">
        <ele>677</ele>
        <time>2019-08-11T08:28:28.000Z</time>
      </trkpt>
      <trkpt lat="45.23549" lon="5.61902">
        <ele>677.59997558594</ele>
        <time>2019-08-11T08:28:31.000Z</time>
      </trkpt>
      <trkpt lat="45.23545" lon="5.619">
        <ele>677.79998779297</ele>
        <time>2019-08-11T08:28:32.000Z</time>
      </trkpt>
      <trkpt lat="45.23526" lon="5.61894">
        <ele>679</ele>
        <time>2019-08-11T08:28:37.000Z</time>
      </trkpt>
      <trkpt lat="45.2351" lon="5.61889">
        <ele>680</ele>
        <time>2019-08-11T08:28:43.000Z</time>
      </trkpt>
      <trkpt lat="45.235" lon="5.61888">
        <ele>681</ele>
        <time>2019-08-11T08:28:48.000Z</time>
      </trkpt>
      <trkpt lat="45.23498" lon="5.61888">
        <ele>681.40002441406</ele>
        <time>2019-08-11T08:28:49.000Z</time>
      </trkpt>
      <trkpt lat="45.23489" lon="5.61889">
        <ele>682</ele>
        <time>2019-08-11T08:28:53.000Z</time>
      </trkpt>
      <trkpt lat="45.23484" lon="5.6189">
        <ele>682.59997558594</ele>
        <time>2019-08-11T08:28:56.000Z</time>
      </trkpt>
      <trkpt lat="45.23483" lon="5.61891">
        <ele>683</ele>
        <time>2019-08-11T08:28:57.000Z</time>
      </trkpt>
      <trkpt lat="45.23481" lon="5.61892">
        <ele>683.20001220703</ele>
        <time>2019-08-11T08:28:58.000Z</time>
      </trkpt>
      <trkpt lat="45.2348" lon="5.61892">
        <ele>683.40002441406</ele>
        <time>2019-08-11T08:28:59.000Z</time>
      </trkpt>
      <trkpt lat="45.23475" lon="5.61893">
        <ele>684.20001220703</ele>
        <time>2019-08-11T08:29:02.000Z</time>
      </trkpt>
      <trkpt lat="45.23471" lon="5.61893">
        <ele>684.59997558594</ele>
        <time>2019-08-11T08:29:04.000Z</time>
      </trkpt>
      <trkpt lat="45.23468" lon="5.61893">
        <ele>685.20001220703</ele>
        <time>2019-08-11T08:29:06.000Z</time>
      </trkpt>
      <trkpt lat="45.23465" lon="5.61894">
        <ele>685.59997558594</ele>
        <time>2019-08-11T08:29:08.000Z</time>
      </trkpt>
      <trkpt lat="45.23461" lon="5.61895">
        <ele>686.20001220703</ele>
        <time>2019-08-11T08:29:10.000Z</time>
      </trkpt>
      <trkpt lat="45.23459" lon="5.61895">
        <ele>686.59997558594</ele>
        <time>2019-08-11T08:29:11.000Z</time>
      </trkpt>
      <trkpt lat="45.23457" lon="5.61895">
        <ele>686.59997558594</ele>
        <time>2019-08-11T08:29:12.000Z</time>
      </trkpt>
      <trkpt lat="45.23454" lon="5.61895">
        <ele>687.20001220703</ele>
        <time>2019-08-11T08:29:15.000Z</time>
      </trkpt>
      <trkpt lat="45.23453" lon="5.61895">
        <ele>687.40002441406</ele>
        <time>2019-08-11T08:29:16.000Z</time>
      </trkpt>
      <trkpt lat="45.23452" lon="5.61895">
        <ele>687.79998779297</ele>
        <time>2019-08-11T08:29:17.000Z</time>
      </trkpt>
      <trkpt lat="45.23445" lon="5.61895">
        <ele>688.40002441406</ele>
        <time>2019-08-11T08:29:20.000Z</time>
      </trkpt>
      <trkpt lat="45.23435" lon="5.61897">
        <ele>689.20001220703</ele>
        <time>2019-08-11T08:29:24.000Z</time>
      </trkpt>
      <trkpt lat="45.23423" lon="5.61898">
        <ele>690.20001220703</ele>
        <time>2019-08-11T08:29:29.000Z</time>
      </trkpt>
      <trkpt lat="45.2341" lon="5.61893">
        <ele>691.40002441406</ele>
        <time>2019-08-11T08:29:34.000Z</time>
      </trkpt>
      <trkpt lat="45.23402" lon="5.61888">
        <ele>692.20001220703</ele>
        <time>2019-08-11T08:29:38.000Z</time>
      </trkpt>
      <trkpt lat="45.23401" lon="5.61886">
        <ele>692.40002441406</ele>
        <time>2019-08-11T08:29:39.000Z</time>
      </trkpt>
      <trkpt lat="45.23397" lon="5.6188">
        <ele>693.40002441406</ele>
        <time>2019-08-11T08:29:42.000Z</time>
      </trkpt>
      <trkpt lat="45.23389" lon="5.61875">
        <ele>694</ele>
        <time>2019-08-11T08:29:46.000Z</time>
      </trkpt>
      <trkpt lat="45.23387" lon="5.61874">
        <ele>694.20001220703</ele>
        <time>2019-08-11T08:29:47.000Z</time>
      </trkpt>
      <trkpt lat="45.23381" lon="5.6187">
        <ele>695.40002441406</ele>
        <time>2019-08-11T08:29:51.000Z</time>
      </trkpt>
      <trkpt lat="45.23378" lon="5.61869">
        <ele>695.59997558594</ele>
        <time>2019-08-11T08:29:53.000Z</time>
      </trkpt>
      <trkpt lat="45.23368" lon="5.61866">
        <ele>695.59997558594</ele>
        <time>2019-08-11T08:29:57.000Z</time>
      </trkpt>
      <trkpt lat="45.23365" lon="5.61864">
        <ele>695.59997558594</ele>
        <time>2019-08-11T08:29:59.000Z</time>
      </trkpt>
      <trkpt lat="45.2336" lon="5.61862">
        <ele>695.40002441406</ele>
        <time>2019-08-11T08:30:01.000Z</time>
      </trkpt>
      <trkpt lat="45.23356" lon="5.61859">
        <ele>695.59997558594</ele>
        <time>2019-08-11T08:30:03.000Z</time>
      </trkpt>
      <trkpt lat="45.23351" lon="5.61856">
        <ele>695.40002441406</ele>
        <time>2019-08-11T08:30:06.000Z</time>
      </trkpt>
      <trkpt lat="45.23348" lon="5.61853">
        <ele>695</ele>
        <time>2019-08-11T08:30:08.000Z</time>
      </trkpt>
      <trkpt lat="45.23347" lon="5.61852">
        <ele>695</ele>
        <time>2019-08-11T08:30:09.000Z</time>
      </trkpt>
      <trkpt lat="45.23346" lon="5.61851">
        <ele>695</ele>
        <time>2019-08-11T08:30:10.000Z</time>
      </trkpt>
      <trkpt lat="45.2334" lon="5.61846">
        <ele>694.59997558594</ele>
        <time>2019-08-11T08:30:14.000Z</time>
      </trkpt>
      <trkpt lat="45.23335" lon="5.61844">
        <ele>694.40002441406</ele>
        <time>2019-08-11T08:30:17.000Z</time>
      </trkpt>
      <trkpt lat="45.23332" lon="5.61843">
        <ele>694.20001220703</ele>
        <time>2019-08-11T08:30:18.000Z</time>
      </trkpt>
      <trkpt lat="45.23311" lon="5.61835">
        <ele>693.40002441406</ele>
        <time>2019-08-11T08:30:24.000Z</time>
      </trkpt>
      <trkpt lat="45.23306" lon="5.61834">
        <ele>693.20001220703</ele>
        <time>2019-08-11T08:30:25.000Z</time>
      </trkpt>
      <trkpt lat="45.23297" lon="5.61831">
        <ele>692.20001220703</ele>
        <time>2019-08-11T08:30:27.000Z</time>
      </trkpt>
      <trkpt lat="45.23293" lon="5.61829">
        <ele>691.59997558594</ele>
        <time>2019-08-11T08:30:28.000Z</time>
      </trkpt>
      <trkpt lat="45.23288" lon="5.61827">
        <ele>690.40002441406</ele>
        <time>2019-08-11T08:30:29.000Z</time>
      </trkpt>
      <trkpt lat="45.23275" lon="5.61828">
        <ele>688.79998779297</ele>
        <time>2019-08-11T08:30:31.000Z</time>
      </trkpt>
      <trkpt lat="45.23269" lon="5.61829">
        <ele>688</ele>
        <time>2019-08-11T08:30:32.000Z</time>
      </trkpt>
      <trkpt lat="45.23262" lon="5.61829">
        <ele>687.40002441406</ele>
        <time>2019-08-11T08:30:33.000Z</time>
      </trkpt>
      <trkpt lat="45.23256" lon="5.61829">
        <ele>687</ele>
        <time>2019-08-11T08:30:34.000Z</time>
      </trkpt>
      <trkpt lat="45.23237" lon="5.61831">
        <ele>686.40002441406</ele>
        <time>2019-08-11T08:30:37.000Z</time>
      </trkpt>
      <trkpt lat="45.23218" lon="5.61835">
        <ele>686</ele>
        <time>2019-08-11T08:30:40.000Z</time>
      </trkpt>
      <trkpt lat="45.23205" lon="5.61837">
        <ele>685.59997558594</ele>
        <time>2019-08-11T08:30:42.000Z</time>
      </trkpt>
      <trkpt lat="45.23191" lon="5.61838">
        <ele>685</ele>
        <time>2019-08-11T08:30:44.000Z</time>
      </trkpt>
      <trkpt lat="45.23185" lon="5.61844">
        <ele>684.20001220703</ele>
        <time>2019-08-11T08:30:45.000Z</time>
      </trkpt>
      <trkpt lat="45.2318" lon="5.6185">
        <ele>683.79998779297</ele>
        <time>2019-08-11T08:30:46.000Z</time>
      </trkpt>
      <trkpt lat="45.23172" lon="5.61869">
        <ele>683</ele>
        <time>2019-08-11T08:30:48.000Z</time>
      </trkpt>
      <trkpt lat="45.2317" lon="5.61879">
        <ele>683</ele>
        <time>2019-08-11T08:30:49.000Z</time>
      </trkpt>
      <trkpt lat="45.23158" lon="5.61914">
        <ele>683.20001220703</ele>
        <time>2019-08-11T08:30:54.000Z</time>
      </trkpt>
      <trkpt lat="45.23155" lon="5.6192">
        <ele>683.20001220703</ele>
        <time>2019-08-11T08:30:55.000Z</time>
      </trkpt>
      <trkpt lat="45.23144" lon="5.61926">
        <ele>682.79998779297</ele>
        <time>2019-08-11T08:30:57.000Z</time>
      </trkpt>
      <trkpt lat="45.23132" lon="5.61929">
        <ele>682.40002441406</ele>
        <time>2019-08-11T08:30:59.000Z</time>
      </trkpt>
      <trkpt lat="45.23121" lon="5.61932">
        <ele>682.20001220703</ele>
        <time>2019-08-11T08:31:01.000Z</time>
      </trkpt>
      <trkpt lat="45.23105" lon="5.61949">
        <ele>681.59997558594</ele>
        <time>2019-08-11T08:31:05.000Z</time>
      </trkpt>
      <trkpt lat="45.23097" lon="5.61972">
        <ele>681.59997558594</ele>
        <time>2019-08-11T08:31:09.000Z</time>
      </trkpt>
      <trkpt lat="45.23095" lon="5.61998">
        <ele>682.20001220703</ele>
        <time>2019-08-11T08:31:14.000Z</time>
      </trkpt>
      <trkpt lat="45.23092" lon="5.62015">
        <ele>682.79998779297</ele>
        <time>2019-08-11T08:31:18.000Z</time>
      </trkpt>
      <trkpt lat="45.2309" lon="5.62042">
        <ele>683</ele>
        <time>2019-08-11T08:31:23.000Z</time>
      </trkpt>
      <trkpt lat="45.23095" lon="5.62071">
        <ele>682.59997558594</ele>
        <time>2019-08-11T08:31:28.000Z</time>
      </trkpt>
      <trkpt lat="45.23101" lon="5.62089">
        <ele>682.79998779297</ele>
        <time>2019-08-11T08:31:32.000Z</time>
      </trkpt>
      <trkpt lat="45.23102" lon="5.62093">
        <ele>683.20001220703</ele>
        <time>2019-08-11T08:31:33.000Z</time>
      </trkpt>
      <trkpt lat="45.231" lon="5.6211">
        <ele>684.20001220703</ele>
        <time>2019-08-11T08:31:37.000Z</time>
      </trkpt>
      <trkpt lat="45.23096" lon="5.62125">
        <ele>685.20001220703</ele>
        <time>2019-08-11T08:31:41.000Z</time>
      </trkpt>
      <trkpt lat="45.23095" lon="5.62128">
        <ele>685.20001220703</ele>
        <time>2019-08-11T08:31:42.000Z</time>
      </trkpt>
      <trkpt lat="45.23092" lon="5.62139">
        <ele>686</ele>
        <time>2019-08-11T08:31:45.000Z</time>
      </trkpt>
      <trkpt lat="45.2309" lon="5.62144">
        <ele>686.59997558594</ele>
        <time>2019-08-11T08:31:47.000Z</time>
      </trkpt>
      <trkpt lat="45.23089" lon="5.62146">
        <ele>686.79998779297</ele>
        <time>2019-08-11T08:31:48.000Z</time>
      </trkpt>
      <trkpt lat="45.23084" lon="5.62156">
        <ele>687.79998779297</ele>
        <time>2019-08-11T08:31:52.000Z</time>
      </trkpt>
      <trkpt lat="45.23081" lon="5.62161">
        <ele>688.20001220703</ele>
        <time>2019-08-11T08:31:54.000Z</time>
      </trkpt>
      <trkpt lat="45.23079" lon="5.62166">
        <ele>688.59997558594</ele>
        <time>2019-08-11T08:31:56.000Z</time>
      </trkpt>
      <trkpt lat="45.23077" lon="5.62174">
        <ele>689.59997558594</ele>
        <time>2019-08-11T08:31:59.000Z</time>
      </trkpt>
      <trkpt lat="45.23075" lon="5.6218">
        <ele>690.20001220703</ele>
        <time>2019-08-11T08:32:01.000Z</time>
      </trkpt>
      <trkpt lat="45.23074" lon="5.62186">
        <ele>690.59997558594</ele>
        <time>2019-08-11T08:32:03.000Z</time>
      </trkpt>
      <trkpt lat="45.23073" lon="5.62197">
        <ele>691.59997558594</ele>
        <time>2019-08-11T08:32:07.000Z</time>
      </trkpt>
      <trkpt lat="45.23074" lon="5.62206">
        <ele>692.59997558594</ele>
        <time>2019-08-11T08:32:10.000Z</time>
      </trkpt>
      <trkpt lat="45.23075" lon="5.62213">
        <ele>693.20001220703</ele>
        <time>2019-08-11T08:32:13.000Z</time>
      </trkpt>
      <trkpt lat="45.23075" lon="5.62215">
        <ele>693.40002441406</ele>
        <time>2019-08-11T08:32:14.000Z</time>
      </trkpt>
      <trkpt lat="45.23076" lon="5.62223">
        <ele>694</ele>
        <time>2019-08-11T08:32:17.000Z</time>
      </trkpt>
      <trkpt lat="45.23078" lon="5.62228">
        <ele>694.59997558594</ele>
        <time>2019-08-11T08:32:19.000Z</time>
      </trkpt>
      <trkpt lat="45.23079" lon="5.62234">
        <ele>695.20001220703</ele>
        <time>2019-08-11T08:32:22.000Z</time>
      </trkpt>
      <trkpt lat="45.2308" lon="5.62236">
        <ele>695.40002441406</ele>
        <time>2019-08-11T08:32:23.000Z</time>
      </trkpt>
      <trkpt lat="45.23081" lon="5.62243">
        <ele>695.79998779297</ele>
        <time>2019-08-11T08:32:26.000Z</time>
      </trkpt>
      <trkpt lat="45.23082" lon="5.62245">
        <ele>696</ele>
        <time>2019-08-11T08:32:27.000Z</time>
      </trkpt>
      <trkpt lat="45.23082" lon="5.6225">
        <ele>696.20001220703</ele>
        <time>2019-08-11T08:32:29.000Z</time>
      </trkpt>
      <trkpt lat="45.23082" lon="5.62258">
        <ele>696.79998779297</ele>
        <time>2019-08-11T08:32:32.000Z</time>
      </trkpt>
      <trkpt lat="45.23081" lon="5.6226">
        <ele>697</ele>
        <time>2019-08-11T08:32:33.000Z</time>
      </trkpt>
      <trkpt lat="45.23081" lon="5.62263">
        <ele>697.20001220703</ele>
        <time>2019-08-11T08:32:34.000Z</time>
      </trkpt>
      <trkpt lat="45.2308" lon="5.62273">
        <ele>697.79998779297</ele>
        <time>2019-08-11T08:32:38.000Z</time>
      </trkpt>
      <trkpt lat="45.2308" lon="5.62277">
        <ele>697.79998779297</ele>
        <time>2019-08-11T08:32:39.000Z</time>
      </trkpt>
      <trkpt lat="45.2308" lon="5.62279">
        <ele>698</ele>
        <time>2019-08-11T08:32:40.000Z</time>
      </trkpt>
      <trkpt lat="45.23079" lon="5.62282">
        <ele>698.20001220703</ele>
        <time>2019-08-11T08:32:41.000Z</time>
      </trkpt>
      <trkpt lat="45.23079" lon="5.62288">
        <ele>698.59997558594</ele>
        <time>2019-08-11T08:32:43.000Z</time>
      </trkpt>
      <trkpt lat="45.2308" lon="5.62294">
        <ele>698.79998779297</ele>
        <time>2019-08-11T08:32:45.000Z</time>
      </trkpt>
      <trkpt lat="45.2308" lon="5.62299">
        <ele>698.79998779297</ele>
        <time>2019-08-11T08:32:47.000Z</time>
      </trkpt>
      <trkpt lat="45.2308" lon="5.62305">
        <ele>698.79998779297</ele>
        <time>2019-08-11T08:32:49.000Z</time>
      </trkpt>
      <trkpt lat="45.23078" lon="5.62325">
        <ele>699.20001220703</ele>
        <time>2019-08-11T08:32:55.000Z</time>
      </trkpt>
      <trkpt lat="45.23076" lon="5.62347">
        <ele>700</ele>
        <time>2019-08-11T08:33:01.000Z</time>
      </trkpt>
      <trkpt lat="45.23075" lon="5.62351">
        <ele>700</ele>
        <time>2019-08-11T08:33:02.000Z</time>
      </trkpt>
      <trkpt lat="45.23074" lon="5.6237">
        <ele>700.40002441406</ele>
        <time>2019-08-11T08:33:08.000Z</time>
      </trkpt>
      <trkpt lat="45.23074" lon="5.62374">
        <ele>700.79998779297</ele>
        <time>2019-08-11T08:33:09.000Z</time>
      </trkpt>
      <trkpt lat="45.23073" lon="5.62384">
        <ele>701.40002441406</ele>
        <time>2019-08-11T08:33:13.000Z</time>
      </trkpt>
      <trkpt lat="45.23072" lon="5.62386">
        <ele>701.59997558594</ele>
        <time>2019-08-11T08:33:14.000Z</time>
      </trkpt>
      <trkpt lat="45.23072" lon="5.62394">
        <ele>702.40002441406</ele>
        <time>2019-08-11T08:33:17.000Z</time>
      </trkpt>
      <trkpt lat="45.23072" lon="5.62397">
        <ele>702.40002441406</ele>
        <time>2019-08-11T08:33:18.000Z</time>
      </trkpt>
      <trkpt lat="45.23073" lon="5.62402">
        <ele>702.79998779297</ele>
        <time>2019-08-11T08:33:20.000Z</time>
      </trkpt>
      <trkpt lat="45.23074" lon="5.62408">
        <ele>703.20001220703</ele>
        <time>2019-08-11T08:33:22.000Z</time>
      </trkpt>
      <trkpt lat="45.23075" lon="5.62418">
        <ele>703.79998779297</ele>
        <time>2019-08-11T08:33:25.000Z</time>
      </trkpt>
      <trkpt lat="45.23076" lon="5.62422">
        <ele>704.20001220703</ele>
        <time>2019-08-11T08:33:26.000Z</time>
      </trkpt>
      <trkpt lat="45.2308" lon="5.62435">
        <ele>704.59997558594</ele>
        <time>2019-08-11T08:33:30.000Z</time>
      </trkpt>
      <trkpt lat="45.2308" lon="5.62439">
        <ele>704.79998779297</ele>
        <time>2019-08-11T08:33:31.000Z</time>
      </trkpt>
      <trkpt lat="45.2308" lon="5.62453">
        <ele>705.59997558594</ele>
        <time>2019-08-11T08:33:35.000Z</time>
      </trkpt>
      <trkpt lat="45.23079" lon="5.6247">
        <ele>706.40002441406</ele>
        <time>2019-08-11T08:33:40.000Z</time>
      </trkpt>
      <trkpt lat="45.23078" lon="5.62473">
        <ele>706.79998779297</ele>
        <time>2019-08-11T08:33:41.000Z</time>
      </trkpt>
      <trkpt lat="45.23077" lon="5.62482">
        <ele>707.20001220703</ele>
        <time>2019-08-11T08:33:44.000Z</time>
      </trkpt>
      <trkpt lat="45.23076" lon="5.62488">
        <ele>707.40002441406</ele>
        <time>2019-08-11T08:33:46.000Z</time>
      </trkpt>
      <trkpt lat="45.23071" lon="5.62504">
        <ele>707.79998779297</ele>
        <time>2019-08-11T08:33:52.000Z</time>
      </trkpt>
      <trkpt lat="45.23068" lon="5.62515">
        <ele>708.59997558594</ele>
        <time>2019-08-11T08:33:56.000Z</time>
      </trkpt>
      <trkpt lat="45.23066" lon="5.62518">
        <ele>709</ele>
        <time>2019-08-11T08:33:57.000Z</time>
      </trkpt>
      <trkpt lat="45.23065" lon="5.62519">
        <ele>709.20001220703</ele>
        <time>2019-08-11T08:33:58.000Z</time>
      </trkpt>
      <trkpt lat="45.2306" lon="5.62522">
        <ele>709.40002441406</ele>
        <time>2019-08-11T08:34:01.000Z</time>
      </trkpt>
      <trkpt lat="45.23058" lon="5.62522">
        <ele>709.59997558594</ele>
        <time>2019-08-11T08:34:02.000Z</time>
      </trkpt>
      <trkpt lat="45.23053" lon="5.62522">
        <ele>710.59997558594</ele>
        <time>2019-08-11T08:34:05.000Z</time>
      </trkpt>
      <trkpt lat="45.23051" lon="5.62522">
        <ele>711</ele>
        <time>2019-08-11T08:34:06.000Z</time>
      </trkpt>
      <trkpt lat="45.23047" lon="5.6252">
        <ele>711.79998779297</ele>
        <time>2019-08-11T08:34:09.000Z</time>
      </trkpt>
      <trkpt lat="45.23044" lon="5.62518">
        <ele>712</ele>
        <time>2019-08-11T08:34:12.000Z</time>
      </trkpt>
      <trkpt lat="45.23043" lon="5.62518">
        <ele>712.40002441406</ele>
        <time>2019-08-11T08:34:13.000Z</time>
      </trkpt>
      <trkpt lat="45.23039" lon="5.62517">
        <ele>713</ele>
        <time>2019-08-11T08:34:17.000Z</time>
      </trkpt>
      <trkpt lat="45.23037" lon="5.62517">
        <ele>713</ele>
        <time>2019-08-11T08:34:18.000Z</time>
      </trkpt>
      <trkpt lat="45.23031" lon="5.62517">
        <ele>714</ele>
        <time>2019-08-11T08:34:22.000Z</time>
      </trkpt>
      <trkpt lat="45.23029" lon="5.62517">
        <ele>714.40002441406</ele>
        <time>2019-08-11T08:34:23.000Z</time>
      </trkpt>
      <trkpt lat="45.23024" lon="5.62518">
        <ele>714.79998779297</ele>
        <time>2019-08-11T08:34:26.000Z</time>
      </trkpt>
      <trkpt lat="45.23019" lon="5.62518">
        <ele>715.59997558594</ele>
        <time>2019-08-11T08:34:29.000Z</time>
      </trkpt>
      <trkpt lat="45.23017" lon="5.62518">
        <ele>715.79998779297</ele>
        <time>2019-08-11T08:34:31.000Z</time>
      </trkpt>
      <trkpt lat="45.23015" lon="5.62518">
        <ele>716.40002441406</ele>
        <time>2019-08-11T08:34:33.000Z</time>
      </trkpt>
      <trkpt lat="45.23012" lon="5.62519">
        <ele>717</ele>
        <time>2019-08-11T08:34:35.000Z</time>
      </trkpt>
      <trkpt lat="45.23009" lon="5.62519">
        <ele>717.40002441406</ele>
        <time>2019-08-11T08:34:37.000Z</time>
      </trkpt>
      <trkpt lat="45.23004" lon="5.62519">
        <ele>718.20001220703</ele>
        <time>2019-08-11T08:34:40.000Z</time>
      </trkpt>
      <trkpt lat="45.23002" lon="5.62519">
        <ele>718.40002441406</ele>
        <time>2019-08-11T08:34:41.000Z</time>
      </trkpt>
      <trkpt lat="45.22999" lon="5.6252">
        <ele>719.20001220703</ele>
        <time>2019-08-11T08:34:43.000Z</time>
      </trkpt>
      <trkpt lat="45.22992" lon="5.6252">
        <ele>719.79998779297</ele>
        <time>2019-08-11T08:34:47.000Z</time>
      </trkpt>
      <trkpt lat="45.22991" lon="5.62521">
        <ele>720</ele>
        <time>2019-08-11T08:34:48.000Z</time>
      </trkpt>
      <trkpt lat="45.22987" lon="5.62522">
        <ele>721</ele>
        <time>2019-08-11T08:34:51.000Z</time>
      </trkpt>
      <trkpt lat="45.22983" lon="5.62524">
        <ele>721.59997558594</ele>
        <time>2019-08-11T08:34:53.000Z</time>
      </trkpt>
      <trkpt lat="45.22982" lon="5.62525">
        <ele>721.79998779297</ele>
        <time>2019-08-11T08:34:54.000Z</time>
      </trkpt>
      <trkpt lat="45.22978" lon="5.62529">
        <ele>722.59997558594</ele>
        <time>2019-08-11T08:34:57.000Z</time>
      </trkpt>
      <trkpt lat="45.22977" lon="5.6253">
        <ele>722.79998779297</ele>
        <time>2019-08-11T08:34:58.000Z</time>
      </trkpt>
      <trkpt lat="45.22973" lon="5.62532">
        <ele>723.59997558594</ele>
        <time>2019-08-11T08:35:01.000Z</time>
      </trkpt>
      <trkpt lat="45.2297" lon="5.62536">
        <ele>724</ele>
        <time>2019-08-11T08:35:04.000Z</time>
      </trkpt>
      <trkpt lat="45.22967" lon="5.62538">
        <ele>724.40002441406</ele>
        <time>2019-08-11T08:35:06.000Z</time>
      </trkpt>
      <trkpt lat="45.22963" lon="5.6254">
        <ele>725.20001220703</ele>
        <time>2019-08-11T08:35:09.000Z</time>
      </trkpt>
      <trkpt lat="45.22962" lon="5.6254">
        <ele>725.40002441406</ele>
        <time>2019-08-11T08:35:10.000Z</time>
      </trkpt>
      <trkpt lat="45.22958" lon="5.62542">
        <ele>726.20001220703</ele>
        <time>2019-08-11T08:35:13.000Z</time>
      </trkpt>
      <trkpt lat="45.22957" lon="5.62543">
        <ele>726.20001220703</ele>
        <time>2019-08-11T08:35:14.000Z</time>
      </trkpt>
      <trkpt lat="45.22948" lon="5.6255">
        <ele>727.20001220703</ele>
        <time>2019-08-11T08:35:19.000Z</time>
      </trkpt>
      <trkpt lat="45.22945" lon="5.62553">
        <ele>727.59997558594</ele>
        <time>2019-08-11T08:35:21.000Z</time>
      </trkpt>
      <trkpt lat="45.22941" lon="5.62558">
        <ele>727.79998779297</ele>
        <time>2019-08-11T08:35:24.000Z</time>
      </trkpt>
      <trkpt lat="45.22939" lon="5.62559">
        <ele>728.20001220703</ele>
        <time>2019-08-11T08:35:25.000Z</time>
      </trkpt>
      <trkpt lat="45.22937" lon="5.6256">
        <ele>728.20001220703</ele>
        <time>2019-08-11T08:35:26.000Z</time>
      </trkpt>
      <trkpt lat="45.22934" lon="5.62564">
        <ele>728.40002441406</ele>
        <time>2019-08-11T08:35:29.000Z</time>
      </trkpt>
      <trkpt lat="45.22933" lon="5.62565">
        <ele>728.59997558594</ele>
        <time>2019-08-11T08:35:30.000Z</time>
      </trkpt>
      <trkpt lat="45.22929" lon="5.6257">
        <ele>729</ele>
        <time>2019-08-11T08:35:33.000Z</time>
      </trkpt>
      <trkpt lat="45.22927" lon="5.62573">
        <ele>729.20001220703</ele>
        <time>2019-08-11T08:35:35.000Z</time>
      </trkpt>
      <trkpt lat="45.22926" lon="5.62575">
        <ele>729.40002441406</ele>
        <time>2019-08-11T08:35:36.000Z</time>
      </trkpt>
      <trkpt lat="45.2292" lon="5.62581">
        <ele>730</ele>
        <time>2019-08-11T08:35:40.000Z</time>
      </trkpt>
      <trkpt lat="45.22919" lon="5.62582">
        <ele>730</ele>
        <time>2019-08-11T08:35:41.000Z</time>
      </trkpt>
      <trkpt lat="45.22917" lon="5.62584">
        <ele>730</ele>
        <time>2019-08-11T08:35:42.000Z</time>
      </trkpt>
      <trkpt lat="45.22912" lon="5.62589">
        <ele>730.20001220703</ele>
        <time>2019-08-11T08:35:45.000Z</time>
      </trkpt>
      <trkpt lat="45.22904" lon="5.62594">
        <ele>730.40002441406</ele>
        <time>2019-08-11T08:35:50.000Z</time>
      </trkpt>
      <trkpt lat="45.22902" lon="5.62594">
        <ele>730.20001220703</ele>
        <time>2019-08-11T08:35:51.000Z</time>
      </trkpt>
      <trkpt lat="45.229" lon="5.62595">
        <ele>730.40002441406</ele>
        <time>2019-08-11T08:35:52.000Z</time>
      </trkpt>
      <trkpt lat="45.22887" lon="5.62596">
        <ele>730.79998779297</ele>
        <time>2019-08-11T08:35:58.000Z</time>
      </trkpt>
      <trkpt lat="45.22875" lon="5.62599">
        <ele>730.79998779297</ele>
        <time>2019-08-11T08:36:03.000Z</time>
      </trkpt>
      <trkpt lat="45.22858" lon="5.62606">
        <ele>730.79998779297</ele>
        <time>2019-08-11T08:36:08.000Z</time>
      </trkpt>
      <trkpt lat="45.22848" lon="5.62608">
        <ele>730.79998779297</ele>
        <time>2019-08-11T08:36:11.000Z</time>
      </trkpt>
      <trkpt lat="45.2284" lon="5.62609">
        <ele>731.20001220703</ele>
        <time>2019-08-11T08:36:14.000Z</time>
      </trkpt>
      <trkpt lat="45.22831" lon="5.62601">
        <ele>731.59997558594</ele>
        <time>2019-08-11T08:36:18.000Z</time>
      </trkpt>
      <trkpt lat="45.2283" lon="5.62593">
        <ele>732</ele>
        <time>2019-08-11T08:36:21.000Z</time>
      </trkpt>
      <trkpt lat="45.22831" lon="5.62591">
        <ele>732.20001220703</ele>
        <time>2019-08-11T08:36:22.000Z</time>
      </trkpt>
      <trkpt lat="45.22832" lon="5.6259">
        <ele>732.40002441406</ele>
        <time>2019-08-11T08:36:23.000Z</time>
      </trkpt>
      <trkpt lat="45.22836" lon="5.62587">
        <ele>733.40002441406</ele>
        <time>2019-08-11T08:36:26.000Z</time>
      </trkpt>
      <trkpt lat="45.22837" lon="5.62586">
        <ele>733.59997558594</ele>
        <time>2019-08-11T08:36:27.000Z</time>
      </trkpt>
      <trkpt lat="45.22841" lon="5.62584">
        <ele>734.20001220703</ele>
        <time>2019-08-11T08:36:30.000Z</time>
      </trkpt>
      <trkpt lat="45.22842" lon="5.62584">
        <ele>734.40002441406</ele>
        <time>2019-08-11T08:36:31.000Z</time>
      </trkpt>
      <trkpt lat="45.22843" lon="5.62584">
        <ele>734.59997558594</ele>
        <time>2019-08-11T08:36:32.000Z</time>
      </trkpt>
      <trkpt lat="45.22845" lon="5.62583">
        <ele>735</ele>
        <time>2019-08-11T08:36:34.000Z</time>
      </trkpt>
      <trkpt lat="45.22848" lon="5.6258">
        <ele>735.79998779297</ele>
        <time>2019-08-11T08:36:37.000Z</time>
      </trkpt>
      <trkpt lat="45.22849" lon="5.62579">
        <ele>736</ele>
        <time>2019-08-11T08:36:38.000Z</time>
      </trkpt>
      <trkpt lat="45.22851" lon="5.62576">
        <ele>736.59997558594</ele>
        <time>2019-08-11T08:36:40.000Z</time>
      </trkpt>
      <trkpt lat="45.22851" lon="5.62574">
        <ele>736.79998779297</ele>
        <time>2019-08-11T08:36:41.000Z</time>
      </trkpt>
      <trkpt lat="45.22854" lon="5.62571">
        <ele>737.59997558594</ele>
        <time>2019-08-11T08:36:44.000Z</time>
      </trkpt>
      <trkpt lat="45.22856" lon="5.62568">
        <ele>738</ele>
        <time>2019-08-11T08:36:46.000Z</time>
      </trkpt>
      <trkpt lat="45.22857" lon="5.62567">
        <ele>738.40002441406</ele>
        <time>2019-08-11T08:36:47.000Z</time>
      </trkpt>
      <trkpt lat="45.22858" lon="5.62567">
        <ele>738.40002441406</ele>
        <time>2019-08-11T08:36:48.000Z</time>
      </trkpt>
      <trkpt lat="45.22858" lon="5.62565">
        <ele>739</ele>
        <time>2019-08-11T08:36:50.000Z</time>
      </trkpt>
      <trkpt lat="45.22862" lon="5.62561">
        <ele>739.59997558594</ele>
        <time>2019-08-11T08:36:53.000Z</time>
      </trkpt>
      <trkpt lat="45.22865" lon="5.62558">
        <ele>740.20001220703</ele>
        <time>2019-08-11T08:36:55.000Z</time>
      </trkpt>
      <trkpt lat="45.22865" lon="5.62557">
        <ele>740.59997558594</ele>
        <time>2019-08-11T08:36:56.000Z</time>
      </trkpt>
      <trkpt lat="45.2287" lon="5.62551">
        <ele>741.59997558594</ele>
        <time>2019-08-11T08:37:01.000Z</time>
      </trkpt>
      <trkpt lat="45.2287" lon="5.62548">
        <ele>741.59997558594</ele>
        <time>2019-08-11T08:37:02.000Z</time>
      </trkpt>
      <trkpt lat="45.22874" lon="5.62542">
        <ele>742.20001220703</ele>
        <time>2019-08-11T08:37:05.000Z</time>
      </trkpt>
      <trkpt lat="45.22875" lon="5.62539">
        <ele>742.20001220703</ele>
        <time>2019-08-11T08:37:06.000Z</time>
      </trkpt>
      <trkpt lat="45.22875" lon="5.62537">
        <ele>742.79998779297</ele>
        <time>2019-08-11T08:37:07.000Z</time>
      </trkpt>
      <trkpt lat="45.22876" lon="5.62532">
        <ele>743.20001220703</ele>
        <time>2019-08-11T08:37:09.000Z</time>
      </trkpt>
      <trkpt lat="45.22876" lon="5.6253">
        <ele>743.40002441406</ele>
        <time>2019-08-11T08:37:10.000Z</time>
      </trkpt>
      <trkpt lat="45.22878" lon="5.62519">
        <ele>744.20001220703</ele>
        <time>2019-08-11T08:37:15.000Z</time>
      </trkpt>
      <trkpt lat="45.2288" lon="5.6251">
        <ele>745.20001220703</ele>
        <time>2019-08-11T08:37:19.000Z</time>
      </trkpt>
      <trkpt lat="45.22882" lon="5.62506">
        <ele>745.40002441406</ele>
        <time>2019-08-11T08:37:21.000Z</time>
      </trkpt>
      <trkpt lat="45.22884" lon="5.62498">
        <ele>745.79998779297</ele>
        <time>2019-08-11T08:37:25.000Z</time>
      </trkpt>
      <trkpt lat="45.22886" lon="5.62496">
        <ele>746</ele>
        <time>2019-08-11T08:37:26.000Z</time>
      </trkpt>
      <trkpt lat="45.22887" lon="5.62494">
        <ele>746.40002441406</ele>
        <time>2019-08-11T08:37:27.000Z</time>
      </trkpt>
      <trkpt lat="45.22889" lon="5.62489">
        <ele>746.79998779297</ele>
        <time>2019-08-11T08:37:29.000Z</time>
      </trkpt>
      <trkpt lat="45.2289" lon="5.62486">
        <ele>747</ele>
        <time>2019-08-11T08:37:30.000Z</time>
      </trkpt>
      <trkpt lat="45.22893" lon="5.62478">
        <ele>747.79998779297</ele>
        <time>2019-08-11T08:37:33.000Z</time>
      </trkpt>
      <trkpt lat="45.22898" lon="5.62468">
        <ele>748.59997558594</ele>
        <time>2019-08-11T08:37:38.000Z</time>
      </trkpt>
      <trkpt lat="45.22905" lon="5.62456">
        <ele>749.20001220703</ele>
        <time>2019-08-11T08:37:44.000Z</time>
      </trkpt>
      <trkpt lat="45.22906" lon="5.62454">
        <ele>749.40002441406</ele>
        <time>2019-08-11T08:37:45.000Z</time>
      </trkpt>
      <trkpt lat="45.22911" lon="5.62445">
        <ele>750.20001220703</ele>
        <time>2019-08-11T08:37:50.000Z</time>
      </trkpt>
      <trkpt lat="45.22915" lon="5.6244">
        <ele>751.20001220703</ele>
        <time>2019-08-11T08:37:54.000Z</time>
      </trkpt>
      <trkpt lat="45.22916" lon="5.62439">
        <ele>751.20001220703</ele>
        <time>2019-08-11T08:37:55.000Z</time>
      </trkpt>
      <trkpt lat="45.22919" lon="5.62435">
        <ele>751.79998779297</ele>
        <time>2019-08-11T08:37:59.000Z</time>
      </trkpt>
      <trkpt lat="45.2292" lon="5.62433">
        <ele>752.20001220703</ele>
        <time>2019-08-11T08:38:00.000Z</time>
      </trkpt>
      <trkpt lat="45.22924" lon="5.62424">
        <ele>753</ele>
        <time>2019-08-11T08:38:05.000Z</time>
      </trkpt>
      <trkpt lat="45.22924" lon="5.62423">
        <ele>753.20001220703</ele>
        <time>2019-08-11T08:38:06.000Z</time>
      </trkpt>
      <trkpt lat="45.22926" lon="5.62418">
        <ele>753.79998779297</ele>
        <time>2019-08-11T08:38:09.000Z</time>
      </trkpt>
      <trkpt lat="45.22928" lon="5.62415">
        <ele>754.59997558594</ele>
        <time>2019-08-11T08:38:12.000Z</time>
      </trkpt>
      <trkpt lat="45.22931" lon="5.62413">
        <ele>754.79998779297</ele>
        <time>2019-08-11T08:38:14.000Z</time>
      </trkpt>
      <trkpt lat="45.22935" lon="5.62407">
        <ele>755.79998779297</ele>
        <time>2019-08-11T08:38:19.000Z</time>
      </trkpt>
      <trkpt lat="45.22936" lon="5.62403">
        <ele>756.20001220703</ele>
        <time>2019-08-11T08:38:21.000Z</time>
      </trkpt>
      <trkpt lat="45.22939" lon="5.62398">
        <ele>756.59997558594</ele>
        <time>2019-08-11T08:38:24.000Z</time>
      </trkpt>
      <trkpt lat="45.22944" lon="5.62388">
        <ele>757.79998779297</ele>
        <time>2019-08-11T08:38:29.000Z</time>
      </trkpt>
      <trkpt lat="45.22946" lon="5.62385">
        <ele>758</ele>
        <time>2019-08-11T08:38:30.000Z</time>
      </trkpt>
      <trkpt lat="45.22949" lon="5.62375">
        <ele>759</ele>
        <time>2019-08-11T08:38:34.000Z</time>
      </trkpt>
      <trkpt lat="45.22951" lon="5.62367">
        <ele>759.79998779297</ele>
        <time>2019-08-11T08:38:37.000Z</time>
      </trkpt>
      <trkpt lat="45.22952" lon="5.62357">
        <ele>760.79998779297</ele>
        <time>2019-08-11T08:38:41.000Z</time>
      </trkpt>
      <trkpt lat="45.22952" lon="5.62354">
        <ele>761</ele>
        <time>2019-08-11T08:38:42.000Z</time>
      </trkpt>
      <trkpt lat="45.2295" lon="5.62346">
        <ele>761.79998779297</ele>
        <time>2019-08-11T08:38:45.000Z</time>
      </trkpt>
      <trkpt lat="45.2295" lon="5.62338">
        <ele>762.59997558594</ele>
        <time>2019-08-11T08:38:48.000Z</time>
      </trkpt>
      <trkpt lat="45.2295" lon="5.62335">
        <ele>762.79998779297</ele>
        <time>2019-08-11T08:38:49.000Z</time>
      </trkpt>
      <trkpt lat="45.22949" lon="5.6233">
        <ele>763</ele>
        <time>2019-08-11T08:38:51.000Z</time>
      </trkpt>
      <trkpt lat="45.22949" lon="5.62325">
        <ele>763.40002441406</ele>
        <time>2019-08-11T08:38:53.000Z</time>
      </trkpt>
      <trkpt lat="45.22949" lon="5.62322">
        <ele>763.59997558594</ele>
        <time>2019-08-11T08:38:54.000Z</time>
      </trkpt>
      <trkpt lat="45.22949" lon="5.62319">
        <ele>763.79998779297</ele>
        <time>2019-08-11T08:38:55.000Z</time>
      </trkpt>
      <trkpt lat="45.22946" lon="5.6231">
        <ele>764.40002441406</ele>
        <time>2019-08-11T08:38:59.000Z</time>
      </trkpt>
      <trkpt lat="45.22945" lon="5.62308">
        <ele>764.59997558594</ele>
        <time>2019-08-11T08:39:00.000Z</time>
      </trkpt>
      <trkpt lat="45.22943" lon="5.623">
        <ele>765.20001220703</ele>
        <time>2019-08-11T08:39:03.000Z</time>
      </trkpt>
      <trkpt lat="45.22943" lon="5.62297">
        <ele>765.40002441406</ele>
        <time>2019-08-11T08:39:04.000Z</time>
      </trkpt>
      <trkpt lat="45.22942" lon="5.62295">
        <ele>765.59997558594</ele>
        <time>2019-08-11T08:39:05.000Z</time>
      </trkpt>
      <trkpt lat="45.22941" lon="5.62286">
        <ele>766</ele>
        <time>2019-08-11T08:39:08.000Z</time>
      </trkpt>
      <trkpt lat="45.22942" lon="5.62278">
        <ele>766.59997558594</ele>
        <time>2019-08-11T08:39:11.000Z</time>
      </trkpt>
      <trkpt lat="45.22942" lon="5.62269">
        <ele>767</ele>
        <time>2019-08-11T08:39:14.000Z</time>
      </trkpt>
      <trkpt lat="45.22941" lon="5.62267">
        <ele>767.20001220703</ele>
        <time>2019-08-11T08:39:15.000Z</time>
      </trkpt>
      <trkpt lat="45.2294" lon="5.62261">
        <ele>767.59997558594</ele>
        <time>2019-08-11T08:39:17.000Z</time>
      </trkpt>
      <trkpt lat="45.22938" lon="5.62248">
        <ele>768.20001220703</ele>
        <time>2019-08-11T08:39:22.000Z</time>
      </trkpt>
      <trkpt lat="45.22938" lon="5.62242">
        <ele>768.59997558594</ele>
        <time>2019-08-11T08:39:24.000Z</time>
      </trkpt>
      <trkpt lat="45.22937" lon="5.62234">
        <ele>768.79998779297</ele>
        <time>2019-08-11T08:39:27.000Z</time>
      </trkpt>
      <trkpt lat="45.22937" lon="5.62232">
        <ele>768.79998779297</ele>
        <time>2019-08-11T08:39:28.000Z</time>
      </trkpt>
      <trkpt lat="45.22935" lon="5.62224">
        <ele>769.20001220703</ele>
        <time>2019-08-11T08:39:31.000Z</time>
      </trkpt>
      <trkpt lat="45.22935" lon="5.62221">
        <ele>769.20001220703</ele>
        <time>2019-08-11T08:39:32.000Z</time>
      </trkpt>
      <trkpt lat="45.22934" lon="5.62215">
        <ele>769.79998779297</ele>
        <time>2019-08-11T08:39:34.000Z</time>
      </trkpt>
      <trkpt lat="45.22933" lon="5.62209">
        <ele>770.20001220703</ele>
        <time>2019-08-11T08:39:36.000Z</time>
      </trkpt>
      <trkpt lat="45.22929" lon="5.62197">
        <ele>770.79998779297</ele>
        <time>2019-08-11T08:39:40.000Z</time>
      </trkpt>
      <trkpt lat="45.22928" lon="5.6219">
        <ele>771.20001220703</ele>
        <time>2019-08-11T08:39:42.000Z</time>
      </trkpt>
      <trkpt lat="45.22925" lon="5.62173">
        <ele>771.79998779297</ele>
        <time>2019-08-11T08:39:47.000Z</time>
      </trkpt>
      <trkpt lat="45.22924" lon="5.62167">
        <ele>772.20001220703</ele>
        <time>2019-08-11T08:39:49.000Z</time>
      </trkpt>
      <trkpt lat="45.22921" lon="5.62156">
        <ele>773</ele>
        <time>2019-08-11T08:39:53.000Z</time>
      </trkpt>
      <trkpt lat="45.2292" lon="5.62147">
        <ele>773.40002441406</ele>
        <time>2019-08-11T08:39:56.000Z</time>
      </trkpt>
      <trkpt lat="45.22919" lon="5.62137">
        <ele>774</ele>
        <time>2019-08-11T08:40:00.000Z</time>
      </trkpt>
      <trkpt lat="45.22919" lon="5.62134">
        <ele>774.40002441406</ele>
        <time>2019-08-11T08:40:01.000Z</time>
      </trkpt>
      <trkpt lat="45.22918" lon="5.62123">
        <ele>775.20001220703</ele>
        <time>2019-08-11T08:40:05.000Z</time>
      </trkpt>
      <trkpt lat="45.22918" lon="5.62118">
        <ele>775.40002441406</ele>
        <time>2019-08-11T08:40:07.000Z</time>
      </trkpt>
      <trkpt lat="45.22917" lon="5.62115">
        <ele>775.59997558594</ele>
        <time>2019-08-11T08:40:08.000Z</time>
      </trkpt>
      <trkpt lat="45.22915" lon="5.62105">
        <ele>776</ele>
        <time>2019-08-11T08:40:12.000Z</time>
      </trkpt>
      <trkpt lat="45.22915" lon="5.62102">
        <ele>776.20001220703</ele>
        <time>2019-08-11T08:40:13.000Z</time>
      </trkpt>
      <trkpt lat="45.22914" lon="5.62094">
        <ele>776.59997558594</ele>
        <time>2019-08-11T08:40:16.000Z</time>
      </trkpt>
      <trkpt lat="45.22911" lon="5.62083">
        <ele>777.40002441406</ele>
        <time>2019-08-11T08:40:20.000Z</time>
      </trkpt>
      <trkpt lat="45.2291" lon="5.62081">
        <ele>777.59997558594</ele>
        <time>2019-08-11T08:40:21.000Z</time>
      </trkpt>
      <trkpt lat="45.22906" lon="5.62073">
        <ele>778.40002441406</ele>
        <time>2019-08-11T08:40:24.000Z</time>
      </trkpt>
      <trkpt lat="45.22903" lon="5.62066">
        <ele>779</ele>
        <time>2019-08-11T08:40:27.000Z</time>
      </trkpt>
      <trkpt lat="45.22902" lon="5.62061">
        <ele>779.40002441406</ele>
        <time>2019-08-11T08:40:29.000Z</time>
      </trkpt>
      <trkpt lat="45.22899" lon="5.62049">
        <ele>780</ele>
        <time>2019-08-11T08:40:34.000Z</time>
      </trkpt>
      <trkpt lat="45.229" lon="5.62041">
        <ele>780.59997558594</ele>
        <time>2019-08-11T08:40:37.000Z</time>
      </trkpt>
      <trkpt lat="45.229" lon="5.62039">
        <ele>780.59997558594</ele>
        <time>2019-08-11T08:40:38.000Z</time>
      </trkpt>
      <trkpt lat="45.229" lon="5.62033">
        <ele>781</ele>
        <time>2019-08-11T08:40:40.000Z</time>
      </trkpt>
      <trkpt lat="45.229" lon="5.62024">
        <ele>781.59997558594</ele>
        <time>2019-08-11T08:40:43.000Z</time>
      </trkpt>
      <trkpt lat="45.22899" lon="5.62021">
        <ele>781.79998779297</ele>
        <time>2019-08-11T08:40:44.000Z</time>
      </trkpt>
      <trkpt lat="45.22896" lon="5.62011">
        <ele>782.40002441406</ele>
        <time>2019-08-11T08:40:48.000Z</time>
      </trkpt>
      <trkpt lat="45.22896" lon="5.62008">
        <ele>782.59997558594</ele>
        <time>2019-08-11T08:40:49.000Z</time>
      </trkpt>
      <trkpt lat="45.22895" lon="5.62005">
        <ele>782.79998779297</ele>
        <time>2019-08-11T08:40:50.000Z</time>
      </trkpt>
      <trkpt lat="45.22894" lon="5.62">
        <ele>783</ele>
        <time>2019-08-11T08:40:52.000Z</time>
      </trkpt>
      <trkpt lat="45.22894" lon="5.61995">
        <ele>783.20001220703</ele>
        <time>2019-08-11T08:40:54.000Z</time>
      </trkpt>
      <trkpt lat="45.22893" lon="5.61983">
        <ele>783.79998779297</ele>
        <time>2019-08-11T08:40:58.000Z</time>
      </trkpt>
      <trkpt lat="45.22893" lon="5.61968">
        <ele>785</ele>
        <time>2019-08-11T08:41:03.000Z</time>
      </trkpt>
      <trkpt lat="45.22894" lon="5.61962">
        <ele>785.20001220703</ele>
        <time>2019-08-11T08:41:05.000Z</time>
      </trkpt>
      <trkpt lat="45.22892" lon="5.61949">
        <ele>786</ele>
        <time>2019-08-11T08:41:10.000Z</time>
      </trkpt>
      <trkpt lat="45.22891" lon="5.61946">
        <ele>786</ele>
        <time>2019-08-11T08:41:11.000Z</time>
      </trkpt>
      <trkpt lat="45.22891" lon="5.6194">
        <ele>786.40002441406</ele>
        <time>2019-08-11T08:41:13.000Z</time>
      </trkpt>
      <trkpt lat="45.2289" lon="5.61935">
        <ele>786.79998779297</ele>
        <time>2019-08-11T08:41:15.000Z</time>
      </trkpt>
      <trkpt lat="45.2289" lon="5.61925">
        <ele>787.20001220703</ele>
        <time>2019-08-11T08:41:18.000Z</time>
      </trkpt>
      <trkpt lat="45.2289" lon="5.61919">
        <ele>787.59997558594</ele>
        <time>2019-08-11T08:41:20.000Z</time>
      </trkpt>
      <trkpt lat="45.22889" lon="5.61909">
        <ele>788.20001220703</ele>
        <time>2019-08-11T08:41:24.000Z</time>
      </trkpt>
      <trkpt lat="45.22889" lon="5.61906">
        <ele>788.40002441406</ele>
        <time>2019-08-11T08:41:25.000Z</time>
      </trkpt>
      <trkpt lat="45.22887" lon="5.61891">
        <ele>789.20001220703</ele>
        <time>2019-08-11T08:41:30.000Z</time>
      </trkpt>
      <trkpt lat="45.22886" lon="5.61886">
        <ele>789.59997558594</ele>
        <time>2019-08-11T08:41:32.000Z</time>
      </trkpt>
      <trkpt lat="45.22884" lon="5.61875">
        <ele>790.20001220703</ele>
        <time>2019-08-11T08:41:36.000Z</time>
      </trkpt>
      <trkpt lat="45.22883" lon="5.61865">
        <ele>790.59997558594</ele>
        <time>2019-08-11T08:41:39.000Z</time>
      </trkpt>
      <trkpt lat="45.22881" lon="5.61856">
        <ele>791</ele>
        <time>2019-08-11T08:41:42.000Z</time>
      </trkpt>
      <trkpt lat="45.2288" lon="5.61842">
        <ele>791.59997558594</ele>
        <time>2019-08-11T08:41:47.000Z</time>
      </trkpt>
      <trkpt lat="45.2288" lon="5.61839">
        <ele>791.79998779297</ele>
        <time>2019-08-11T08:41:48.000Z</time>
      </trkpt>
      <trkpt lat="45.22877" lon="5.61825">
        <ele>792.79998779297</ele>
        <time>2019-08-11T08:41:53.000Z</time>
      </trkpt>
      <trkpt lat="45.22875" lon="5.61806">
        <ele>793.79998779297</ele>
        <time>2019-08-11T08:41:59.000Z</time>
      </trkpt>
      <trkpt lat="45.22876" lon="5.61803">
        <ele>794</ele>
        <time>2019-08-11T08:42:00.000Z</time>
      </trkpt>
      <trkpt lat="45.22874" lon="5.61788">
        <ele>794.59997558594</ele>
        <time>2019-08-11T08:42:05.000Z</time>
      </trkpt>
      <trkpt lat="45.22873" lon="5.6178">
        <ele>795.20001220703</ele>
        <time>2019-08-11T08:42:08.000Z</time>
      </trkpt>
      <trkpt lat="45.22872" lon="5.61777">
        <ele>795.40002441406</ele>
        <time>2019-08-11T08:42:09.000Z</time>
      </trkpt>
      <trkpt lat="45.22871" lon="5.61769">
        <ele>795.79998779297</ele>
        <time>2019-08-11T08:42:12.000Z</time>
      </trkpt>
      <trkpt lat="45.22872" lon="5.61765">
        <ele>796.40002441406</ele>
        <time>2019-08-11T08:42:14.000Z</time>
      </trkpt>
      <trkpt lat="45.22872" lon="5.6176">
        <ele>796.79998779297</ele>
        <time>2019-08-11T08:42:16.000Z</time>
      </trkpt>
      <trkpt lat="45.22872" lon="5.61751">
        <ele>797.59997558594</ele>
        <time>2019-08-11T08:42:21.000Z</time>
      </trkpt>
      <trkpt lat="45.22872" lon="5.61749">
        <ele>797.79998779297</ele>
        <time>2019-08-11T08:42:22.000Z</time>
      </trkpt>
      <trkpt lat="45.22872" lon="5.61736">
        <ele>798.59997558594</ele>
        <time>2019-08-11T08:42:27.000Z</time>
      </trkpt>
      <trkpt lat="45.22873" lon="5.61733">
        <ele>798.79998779297</ele>
        <time>2019-08-11T08:42:28.000Z</time>
      </trkpt>
      <trkpt lat="45.22873" lon="5.61725">
        <ele>799.20001220703</ele>
        <time>2019-08-11T08:42:31.000Z</time>
      </trkpt>
      <trkpt lat="45.22872" lon="5.61722">
        <ele>799.20001220703</ele>
        <time>2019-08-11T08:42:32.000Z</time>
      </trkpt>
      <trkpt lat="45.22872" lon="5.61719">
        <ele>799.40002441406</ele>
        <time>2019-08-11T08:42:33.000Z</time>
      </trkpt>
      <trkpt lat="45.22871" lon="5.61716">
        <ele>800</ele>
        <time>2019-08-11T08:42:34.000Z</time>
      </trkpt>
      <trkpt lat="45.2287" lon="5.61707">
        <ele>800.40002441406</ele>
        <time>2019-08-11T08:42:37.000Z</time>
      </trkpt>
      <trkpt lat="45.22869" lon="5.61696">
        <ele>801</ele>
        <time>2019-08-11T08:42:41.000Z</time>
      </trkpt>
      <trkpt lat="45.22868" lon="5.61693">
        <ele>801</ele>
        <time>2019-08-11T08:42:42.000Z</time>
      </trkpt>
      <trkpt lat="45.22864" lon="5.6168">
        <ele>801.79998779297</ele>
        <time>2019-08-11T08:42:46.000Z</time>
      </trkpt>
      <trkpt lat="45.22864" lon="5.61677">
        <ele>802</ele>
        <time>2019-08-11T08:42:47.000Z</time>
      </trkpt>
      <trkpt lat="45.22864" lon="5.61669">
        <ele>802.40002441406</ele>
        <time>2019-08-11T08:42:50.000Z</time>
      </trkpt>
      <trkpt lat="45.22867" lon="5.61662">
        <ele>802.59997558594</ele>
        <time>2019-08-11T08:42:52.000Z</time>
      </trkpt>
      <trkpt lat="45.22876" lon="5.6165">
        <ele>803.40002441406</ele>
        <time>2019-08-11T08:42:57.000Z</time>
      </trkpt>
      <trkpt lat="45.22878" lon="5.61646">
        <ele>803.79998779297</ele>
        <time>2019-08-11T08:42:59.000Z</time>
      </trkpt>
      <trkpt lat="45.22881" lon="5.61642">
        <ele>804.20001220703</ele>
        <time>2019-08-11T08:43:01.000Z</time>
      </trkpt>
      <trkpt lat="45.22882" lon="5.6164">
        <ele>804.79998779297</ele>
        <time>2019-08-11T08:43:02.000Z</time>
      </trkpt>
      <trkpt lat="45.22883" lon="5.61638">
        <ele>804.79998779297</ele>
        <time>2019-08-11T08:43:03.000Z</time>
      </trkpt>
      <trkpt lat="45.22886" lon="5.6163">
        <ele>805.40002441406</ele>
        <time>2019-08-11T08:43:06.000Z</time>
      </trkpt>
      <trkpt lat="45.22887" lon="5.61628">
        <ele>805.59997558594</ele>
        <time>2019-08-11T08:43:07.000Z</time>
      </trkpt>
      <trkpt lat="45.22888" lon="5.61626">
        <ele>806</ele>
        <time>2019-08-11T08:43:08.000Z</time>
      </trkpt>
      <trkpt lat="45.22888" lon="5.61614">
        <ele>807</ele>
        <time>2019-08-11T08:43:13.000Z</time>
      </trkpt>
      <trkpt lat="45.22888" lon="5.61612">
        <ele>807.20001220703</ele>
        <time>2019-08-11T08:43:14.000Z</time>
      </trkpt>
      <trkpt lat="45.22885" lon="5.61603">
        <ele>807.59997558594</ele>
        <time>2019-08-11T08:43:18.000Z</time>
      </trkpt>
      <trkpt lat="45.22885" lon="5.616">
        <ele>807.59997558594</ele>
        <time>2019-08-11T08:43:19.000Z</time>
      </trkpt>
      <trkpt lat="45.22883" lon="5.61593">
        <ele>808</ele>
        <time>2019-08-11T08:43:22.000Z</time>
      </trkpt>
      <trkpt lat="45.22884" lon="5.61588">
        <ele>808.40002441406</ele>
        <time>2019-08-11T08:43:24.000Z</time>
      </trkpt>
      <trkpt lat="45.22889" lon="5.61569">
        <ele>809.59997558594</ele>
        <time>2019-08-11T08:43:30.000Z</time>
      </trkpt>
      <trkpt lat="45.22894" lon="5.61557">
        <ele>810.20001220703</ele>
        <time>2019-08-11T08:43:34.000Z</time>
      </trkpt>
      <trkpt lat="45.22895" lon="5.61554">
        <ele>810.40002441406</ele>
        <time>2019-08-11T08:43:35.000Z</time>
      </trkpt>
      <trkpt lat="45.22897" lon="5.61548">
        <ele>810.59997558594</ele>
        <time>2019-08-11T08:43:37.000Z</time>
      </trkpt>
      <trkpt lat="45.22902" lon="5.61532">
        <ele>811.20001220703</ele>
        <time>2019-08-11T08:43:42.000Z</time>
      </trkpt>
      <trkpt lat="45.22904" lon="5.61524">
        <ele>811.20001220703</ele>
        <time>2019-08-11T08:43:45.000Z</time>
      </trkpt>
      <trkpt lat="45.22907" lon="5.61518">
        <ele>811.20001220703</ele>
        <time>2019-08-11T08:43:47.000Z</time>
      </trkpt>
      <trkpt lat="45.22912" lon="5.61504">
        <ele>811.59997558594</ele>
        <time>2019-08-11T08:43:52.000Z</time>
      </trkpt>
      <trkpt lat="45.22919" lon="5.61492">
        <ele>812</ele>
        <time>2019-08-11T08:43:56.000Z</time>
      </trkpt>
      <trkpt lat="45.22921" lon="5.61489">
        <ele>812.20001220703</ele>
        <time>2019-08-11T08:43:57.000Z</time>
      </trkpt>
      <trkpt lat="45.22932" lon="5.61475">
        <ele>812.59997558594</ele>
        <time>2019-08-11T08:44:03.000Z</time>
      </trkpt>
      <trkpt lat="45.22942" lon="5.61464">
        <ele>813.20001220703</ele>
        <time>2019-08-11T08:44:08.000Z</time>
      </trkpt>
      <trkpt lat="45.22946" lon="5.6146">
        <ele>813.40002441406</ele>
        <time>2019-08-11T08:44:10.000Z</time>
      </trkpt>
      <trkpt lat="45.22954" lon="5.6145">
        <ele>813.59997558594</ele>
        <time>2019-08-11T08:44:14.000Z</time>
      </trkpt>
      <trkpt lat="45.22968" lon="5.61442">
        <ele>814.40002441406</ele>
        <time>2019-08-11T08:44:19.000Z</time>
      </trkpt>
      <trkpt lat="45.22975" lon="5.61438">
        <ele>814.59997558594</ele>
        <time>2019-08-11T08:44:22.000Z</time>
      </trkpt>
      <trkpt lat="45.22986" lon="5.61435">
        <ele>815</ele>
        <time>2019-08-11T08:44:27.000Z</time>
      </trkpt>
      <trkpt lat="45.22994" lon="5.61435">
        <ele>815.20001220703</ele>
        <time>2019-08-11T08:44:31.000Z</time>
      </trkpt>
      <trkpt lat="45.23007" lon="5.61434">
        <ele>815.79998779297</ele>
        <time>2019-08-11T08:44:36.000Z</time>
      </trkpt>
      <trkpt lat="45.23019" lon="5.61426">
        <ele>815</ele>
        <time>2019-08-11T08:44:40.000Z</time>
      </trkpt>
      <trkpt lat="45.23024" lon="5.61424">
        <ele>814.59997558594</ele>
        <time>2019-08-11T08:44:41.000Z</time>
      </trkpt>
      <trkpt lat="45.23032" lon="5.61419">
        <ele>814</ele>
        <time>2019-08-11T08:44:43.000Z</time>
      </trkpt>
      <trkpt lat="45.23041" lon="5.61416">
        <ele>813.59997558594</ele>
        <time>2019-08-11T08:44:45.000Z</time>
      </trkpt>
      <trkpt lat="45.23059" lon="5.61412">
        <ele>813.40002441406</ele>
        <time>2019-08-11T08:44:50.000Z</time>
      </trkpt>
      <trkpt lat="45.23072" lon="5.61412">
        <ele>813.79998779297</ele>
        <time>2019-08-11T08:44:54.000Z</time>
      </trkpt>
      <trkpt lat="45.23093" lon="5.61411">
        <ele>814.20001220703</ele>
        <time>2019-08-11T08:44:59.000Z</time>
      </trkpt>
      <trkpt lat="45.2311" lon="5.61412">
        <ele>814.40002441406</ele>
        <time>2019-08-11T08:45:04.000Z</time>
      </trkpt>
      <trkpt lat="45.23125" lon="5.61416">
        <ele>815</ele>
        <time>2019-08-11T08:45:08.000Z</time>
      </trkpt>
      <trkpt lat="45.23134" lon="5.61416">
        <ele>815.40002441406</ele>
        <time>2019-08-11T08:45:11.000Z</time>
      </trkpt>
      <trkpt lat="45.23141" lon="5.61417">
        <ele>815.59997558594</ele>
        <time>2019-08-11T08:45:13.000Z</time>
      </trkpt>
      <trkpt lat="45.23159" lon="5.61415">
        <ele>816</ele>
        <time>2019-08-11T08:45:19.000Z</time>
      </trkpt>
      <trkpt lat="45.23168" lon="5.61412">
        <ele>816.40002441406</ele>
        <time>2019-08-11T08:45:22.000Z</time>
      </trkpt>
      <trkpt lat="45.23174" lon="5.6141">
        <ele>816.79998779297</ele>
        <time>2019-08-11T08:45:24.000Z</time>
      </trkpt>
      <trkpt lat="45.23197" lon="5.61397">
        <ele>816.59997558594</ele>
        <time>2019-08-11T08:45:31.000Z</time>
      </trkpt>
      <trkpt lat="45.23221" lon="5.61388">
        <ele>816.79998779297</ele>
        <time>2019-08-11T08:45:37.000Z</time>
      </trkpt>
      <trkpt lat="45.23232" lon="5.61379">
        <ele>816.40002441406</ele>
        <time>2019-08-11T08:45:41.000Z</time>
      </trkpt>
      <trkpt lat="45.23241" lon="5.61367">
        <ele>816</ele>
        <time>2019-08-11T08:45:45.000Z</time>
      </trkpt>
      <trkpt lat="45.23244" lon="5.61363">
        <ele>815.79998779297</ele>
        <time>2019-08-11T08:45:46.000Z</time>
      </trkpt>
      <trkpt lat="45.2326" lon="5.61348">
        <ele>815.79998779297</ele>
        <time>2019-08-11T08:45:51.000Z</time>
      </trkpt>
      <trkpt lat="45.23276" lon="5.61334">
        <ele>816.40002441406</ele>
        <time>2019-08-11T08:45:57.000Z</time>
      </trkpt>
      <trkpt lat="45.23291" lon="5.61325">
        <ele>817</ele>
        <time>2019-08-11T08:46:02.000Z</time>
      </trkpt>
      <trkpt lat="45.23295" lon="5.61323">
        <ele>817.20001220703</ele>
        <time>2019-08-11T08:46:03.000Z</time>
      </trkpt>
      <trkpt lat="45.23307" lon="5.61314">
        <ele>818.20001220703</ele>
        <time>2019-08-11T08:46:08.000Z</time>
      </trkpt>
      <trkpt lat="45.23309" lon="5.61313">
        <ele>818.40002441406</ele>
        <time>2019-08-11T08:46:09.000Z</time>
      </trkpt>
      <trkpt lat="45.23316" lon="5.61308">
        <ele>819.20001220703</ele>
        <time>2019-08-11T08:46:13.000Z</time>
      </trkpt>
      <trkpt lat="45.23319" lon="5.61306">
        <ele>819.59997558594</ele>
        <time>2019-08-11T08:46:15.000Z</time>
      </trkpt>
      <trkpt lat="45.23325" lon="5.61303">
        <ele>820.20001220703</ele>
        <time>2019-08-11T08:46:18.000Z</time>
      </trkpt>
      <trkpt lat="45.23329" lon="5.61301">
        <ele>820.79998779297</ele>
        <time>2019-08-11T08:46:20.000Z</time>
      </trkpt>
      <trkpt lat="45.23337" lon="5.61296">
        <ele>821.79998779297</ele>
        <time>2019-08-11T08:46:24.000Z</time>
      </trkpt>
      <trkpt lat="45.23345" lon="5.61292">
        <ele>823</ele>
        <time>2019-08-11T08:46:28.000Z</time>
      </trkpt>
      <trkpt lat="45.2335" lon="5.61289">
        <ele>823.40002441406</ele>
        <time>2019-08-11T08:46:30.000Z</time>
      </trkpt>
      <trkpt lat="45.23363" lon="5.61286">
        <ele>824.20001220703</ele>
        <time>2019-08-11T08:46:35.000Z</time>
      </trkpt>
      <trkpt lat="45.23365" lon="5.61285">
        <ele>824.40002441406</ele>
        <time>2019-08-11T08:46:36.000Z</time>
      </trkpt>
      <trkpt lat="45.23374" lon="5.61282">
        <ele>825</ele>
        <time>2019-08-11T08:46:41.000Z</time>
      </trkpt>
      <trkpt lat="45.23378" lon="5.6128">
        <ele>825.40002441406</ele>
        <time>2019-08-11T08:46:43.000Z</time>
      </trkpt>
      <trkpt lat="45.23385" lon="5.61281">
        <ele>826</ele>
        <time>2019-08-11T08:46:47.000Z</time>
      </trkpt>
      <trkpt lat="45.23392" lon="5.61282">
        <ele>826.40002441406</ele>
        <time>2019-08-11T08:46:51.000Z</time>
      </trkpt>
      <trkpt lat="45.23395" lon="5.61283">
        <ele>827</ele>
        <time>2019-08-11T08:46:53.000Z</time>
      </trkpt>
      <trkpt lat="45.23398" lon="5.61284">
        <ele>827.79998779297</ele>
        <time>2019-08-11T08:46:55.000Z</time>
      </trkpt>
      <trkpt lat="45.23404" lon="5.61286">
        <ele>828.40002441406</ele>
        <time>2019-08-11T08:46:59.000Z</time>
      </trkpt>
      <trkpt lat="45.23408" lon="5.61287">
        <ele>829</ele>
        <time>2019-08-11T08:47:01.000Z</time>
      </trkpt>
      <trkpt lat="45.23412" lon="5.61288">
        <ele>829.59997558594</ele>
        <time>2019-08-11T08:47:03.000Z</time>
      </trkpt>
      <trkpt lat="45.23418" lon="5.61289">
        <ele>830</ele>
        <time>2019-08-11T08:47:06.000Z</time>
      </trkpt>
      <trkpt lat="45.23423" lon="5.61291">
        <ele>830.40002441406</ele>
        <time>2019-08-11T08:47:09.000Z</time>
      </trkpt>
      <trkpt lat="45.23431" lon="5.61294">
        <ele>831.20001220703</ele>
        <time>2019-08-11T08:47:13.000Z</time>
      </trkpt>
      <trkpt lat="45.23434" lon="5.61296">
        <ele>831.40002441406</ele>
        <time>2019-08-11T08:47:15.000Z</time>
      </trkpt>
      <trkpt lat="45.2344" lon="5.61301">
        <ele>832</ele>
        <time>2019-08-11T08:47:18.000Z</time>
      </trkpt>
      <trkpt lat="45.23445" lon="5.61303">
        <ele>832.40002441406</ele>
        <time>2019-08-11T08:47:21.000Z</time>
      </trkpt>
      <trkpt lat="45.2345" lon="5.61306">
        <ele>832.79998779297</ele>
        <time>2019-08-11T08:47:23.000Z</time>
      </trkpt>
      <trkpt lat="45.23451" lon="5.61307">
        <ele>832.79998779297</ele>
        <time>2019-08-11T08:47:24.000Z</time>
      </trkpt>
      <trkpt lat="45.23457" lon="5.61311">
        <ele>833</ele>
        <time>2019-08-11T08:47:27.000Z</time>
      </trkpt>
      <trkpt lat="45.23458" lon="5.61313">
        <ele>833.20001220703</ele>
        <time>2019-08-11T08:47:28.000Z</time>
      </trkpt>
      <trkpt lat="45.23462" lon="5.61315">
        <ele>833.59997558594</ele>
        <time>2019-08-11T08:47:30.000Z</time>
      </trkpt>
      <trkpt lat="45.23465" lon="5.61318">
        <ele>834</ele>
        <time>2019-08-11T08:47:32.000Z</time>
      </trkpt>
      <trkpt lat="45.2347" lon="5.61322">
        <ele>834.59997558594</ele>
        <time>2019-08-11T08:47:35.000Z</time>
      </trkpt>
      <trkpt lat="45.23474" lon="5.61326">
        <ele>835.20001220703</ele>
        <time>2019-08-11T08:47:37.000Z</time>
      </trkpt>
      <trkpt lat="45.23482" lon="5.61332">
        <ele>835.79998779297</ele>
        <time>2019-08-11T08:47:41.000Z</time>
      </trkpt>
      <trkpt lat="45.23486" lon="5.61333">
        <ele>835.79998779297</ele>
        <time>2019-08-11T08:47:43.000Z</time>
      </trkpt>
      <trkpt lat="45.23492" lon="5.61333">
        <ele>836.20001220703</ele>
        <time>2019-08-11T08:47:46.000Z</time>
      </trkpt>
      <trkpt lat="45.23497" lon="5.61334">
        <ele>837</ele>
        <time>2019-08-11T08:47:49.000Z</time>
      </trkpt>
      <trkpt lat="45.2351" lon="5.61337">
        <ele>837.79998779297</ele>
        <time>2019-08-11T08:47:55.000Z</time>
      </trkpt>
      <trkpt lat="45.23512" lon="5.61338">
        <ele>838</ele>
        <time>2019-08-11T08:47:56.000Z</time>
      </trkpt>
      <trkpt lat="45.23517" lon="5.6134">
        <ele>838.79998779297</ele>
        <time>2019-08-11T08:47:58.000Z</time>
      </trkpt>
      <trkpt lat="45.23521" lon="5.6134">
        <ele>839</ele>
        <time>2019-08-11T08:48:00.000Z</time>
      </trkpt>
      <trkpt lat="45.23528" lon="5.61343">
        <ele>839.20001220703</ele>
        <time>2019-08-11T08:48:04.000Z</time>
      </trkpt>
      <trkpt lat="45.23531" lon="5.61344">
        <ele>839.59997558594</ele>
        <time>2019-08-11T08:48:05.000Z</time>
      </trkpt>
      <trkpt lat="45.23533" lon="5.61345">
        <ele>840</ele>
        <time>2019-08-11T08:48:06.000Z</time>
      </trkpt>
      <trkpt lat="45.23543" lon="5.61351">
        <ele>840.79998779297</ele>
        <time>2019-08-11T08:48:10.000Z</time>
      </trkpt>
      <trkpt lat="45.23548" lon="5.61354">
        <ele>841</ele>
        <time>2019-08-11T08:48:12.000Z</time>
      </trkpt>
      <trkpt lat="45.23554" lon="5.61356">
        <ele>841.59997558594</ele>
        <time>2019-08-11T08:48:15.000Z</time>
      </trkpt>
      <trkpt lat="45.2356" lon="5.61359">
        <ele>842.20001220703</ele>
        <time>2019-08-11T08:48:18.000Z</time>
      </trkpt>
      <trkpt lat="45.23567" lon="5.61362">
        <ele>842.59997558594</ele>
        <time>2019-08-11T08:48:21.000Z</time>
      </trkpt>
      <trkpt lat="45.23582" lon="5.61364">
        <ele>843.59997558594</ele>
        <time>2019-08-11T08:48:27.000Z</time>
      </trkpt>
      <trkpt lat="45.23586" lon="5.61365">
        <ele>844</ele>
        <time>2019-08-11T08:48:29.000Z</time>
      </trkpt>
      <trkpt lat="45.23594" lon="5.61366">
        <ele>844.59997558594</ele>
        <time>2019-08-11T08:48:33.000Z</time>
      </trkpt>
      <trkpt lat="45.23598" lon="5.61365">
        <ele>844.79998779297</ele>
        <time>2019-08-11T08:48:35.000Z</time>
      </trkpt>
      <trkpt lat="45.2361" lon="5.61357">
        <ele>845.79998779297</ele>
        <time>2019-08-11T08:48:41.000Z</time>
      </trkpt>
      <trkpt lat="45.23618" lon="5.6135">
        <ele>846.20001220703</ele>
        <time>2019-08-11T08:48:46.000Z</time>
      </trkpt>
      <trkpt lat="45.2362" lon="5.61349">
        <ele>846.40002441406</ele>
        <time>2019-08-11T08:48:47.000Z</time>
      </trkpt>
      <trkpt lat="45.23622" lon="5.61348">
        <ele>846.79998779297</ele>
        <time>2019-08-11T08:48:48.000Z</time>
      </trkpt>
      <trkpt lat="45.23632" lon="5.61344">
        <ele>847.40002441406</ele>
        <time>2019-08-11T08:48:53.000Z</time>
      </trkpt>
      <trkpt lat="45.23641" lon="5.61339">
        <ele>847.79998779297</ele>
        <time>2019-08-11T08:48:58.000Z</time>
      </trkpt>
      <trkpt lat="45.23645" lon="5.61337">
        <ele>848</ele>
        <time>2019-08-11T08:49:00.000Z</time>
      </trkpt>
      <trkpt lat="45.23654" lon="5.6133">
        <ele>848.79998779297</ele>
        <time>2019-08-11T08:49:05.000Z</time>
      </trkpt>
      <trkpt lat="45.23656" lon="5.61329">
        <ele>849.20001220703</ele>
        <time>2019-08-11T08:49:06.000Z</time>
      </trkpt>
      <trkpt lat="45.23664" lon="5.61318">
        <ele>850.20001220703</ele>
        <time>2019-08-11T08:49:11.000Z</time>
      </trkpt>
      <trkpt lat="45.23665" lon="5.61316">
        <ele>850.20001220703</ele>
        <time>2019-08-11T08:49:12.000Z</time>
      </trkpt>
      <trkpt lat="45.23672" lon="5.61303">
        <ele>851</ele>
        <time>2019-08-11T08:49:17.000Z</time>
      </trkpt>
      <trkpt lat="45.23673" lon="5.61301">
        <ele>851.20001220703</ele>
        <time>2019-08-11T08:49:18.000Z</time>
      </trkpt>
      <trkpt lat="45.23677" lon="5.61291">
        <ele>852</ele>
        <time>2019-08-11T08:49:23.000Z</time>
      </trkpt>
      <trkpt lat="45.23682" lon="5.61284">
        <ele>852.40002441406</ele>
        <time>2019-08-11T08:49:27.000Z</time>
      </trkpt>
      <trkpt lat="45.23684" lon="5.61283">
        <ele>852.59997558594</ele>
        <time>2019-08-11T08:49:28.000Z</time>
      </trkpt>
      <trkpt lat="45.23697" lon="5.61274">
        <ele>853.40002441406</ele>
        <time>2019-08-11T08:49:34.000Z</time>
      </trkpt>
      <trkpt lat="45.237" lon="5.61273">
        <ele>853.59997558594</ele>
        <time>2019-08-11T08:49:35.000Z</time>
      </trkpt>
      <trkpt lat="45.23707" lon="5.61265">
        <ele>854.59997558594</ele>
        <time>2019-08-11T08:49:39.000Z</time>
      </trkpt>
      <trkpt lat="45.23714" lon="5.61256">
        <ele>855.79998779297</ele>
        <time>2019-08-11T08:49:43.000Z</time>
      </trkpt>
      <trkpt lat="45.23717" lon="5.61241">
        <ele>856.20001220703</ele>
        <time>2019-08-11T08:49:48.000Z</time>
      </trkpt>
      <trkpt lat="45.2372" lon="5.61229">
        <ele>857</ele>
        <time>2019-08-11T08:49:52.000Z</time>
      </trkpt>
      <trkpt lat="45.23722" lon="5.61225">
        <ele>857</ele>
        <time>2019-08-11T08:49:53.000Z</time>
      </trkpt>
      <trkpt lat="45.23724" lon="5.61223">
        <ele>857</ele>
        <time>2019-08-11T08:49:54.000Z</time>
      </trkpt>
      <trkpt lat="45.23731" lon="5.61212">
        <ele>857.79998779297</ele>
        <time>2019-08-11T08:49:59.000Z</time>
      </trkpt>
      <trkpt lat="45.23733" lon="5.61205">
        <ele>858.20001220703</ele>
        <time>2019-08-11T08:50:02.000Z</time>
      </trkpt>
      <trkpt lat="45.23734" lon="5.61202">
        <ele>858.59997558594</ele>
        <time>2019-08-11T08:50:04.000Z</time>
      </trkpt>
      <trkpt lat="45.23736" lon="5.612">
        <ele>859</ele>
        <time>2019-08-11T08:50:06.000Z</time>
      </trkpt>
      <trkpt lat="45.23739" lon="5.61196">
        <ele>859.20001220703</ele>
        <time>2019-08-11T08:50:08.000Z</time>
      </trkpt>
      <trkpt lat="45.23741" lon="5.61194">
        <ele>859.20001220703</ele>
        <time>2019-08-11T08:50:09.000Z</time>
      </trkpt>
      <trkpt lat="45.23756" lon="5.61182">
        <ele>860.20001220703</ele>
        <time>2019-08-11T08:50:15.000Z</time>
      </trkpt>
      <trkpt lat="45.2376" lon="5.61178">
        <ele>860.40002441406</ele>
        <time>2019-08-11T08:50:17.000Z</time>
      </trkpt>
      <trkpt lat="45.2377" lon="5.61168">
        <ele>860.79998779297</ele>
        <time>2019-08-11T08:50:21.000Z</time>
      </trkpt>
      <trkpt lat="45.2378" lon="5.6116">
        <ele>861</ele>
        <time>2019-08-11T08:50:25.000Z</time>
      </trkpt>
      <trkpt lat="45.23794" lon="5.61153">
        <ele>861.40002441406</ele>
        <time>2019-08-11T08:50:30.000Z</time>
      </trkpt>
      <trkpt lat="45.23805" lon="5.61152">
        <ele>861.79998779297</ele>
        <time>2019-08-11T08:50:34.000Z</time>
      </trkpt>
      <trkpt lat="45.23813" lon="5.61149">
        <ele>861.79998779297</ele>
        <time>2019-08-11T08:50:36.000Z</time>
      </trkpt>
      <trkpt lat="45.23825" lon="5.61145">
        <ele>862</ele>
        <time>2019-08-11T08:50:40.000Z</time>
      </trkpt>
      <trkpt lat="45.23839" lon="5.61138">
        <ele>862</ele>
        <time>2019-08-11T08:50:45.000Z</time>
      </trkpt>
      <trkpt lat="45.23857" lon="5.61126">
        <ele>862.20001220703</ele>
        <time>2019-08-11T08:50:51.000Z</time>
      </trkpt>
      <trkpt lat="45.23866" lon="5.61121">
        <ele>863</ele>
        <time>2019-08-11T08:50:55.000Z</time>
      </trkpt>
      <trkpt lat="45.2388" lon="5.61117">
        <ele>863.79998779297</ele>
        <time>2019-08-11T08:51:00.000Z</time>
      </trkpt>
      <trkpt lat="45.23886" lon="5.61113">
        <ele>864</ele>
        <time>2019-08-11T08:51:02.000Z</time>
      </trkpt>
      <trkpt lat="45.23892" lon="5.61112">
        <ele>864.20001220703</ele>
        <time>2019-08-11T08:51:04.000Z</time>
      </trkpt>
      <trkpt lat="45.23907" lon="5.61104">
        <ele>864</ele>
        <time>2019-08-11T08:51:08.000Z</time>
      </trkpt>
      <trkpt lat="45.23933" lon="5.61078">
        <ele>864</ele>
        <time>2019-08-11T08:51:15.000Z</time>
      </trkpt>
      <trkpt lat="45.23934" lon="5.61068">
        <ele>864.20001220703</ele>
        <time>2019-08-11T08:51:17.000Z</time>
      </trkpt>
      <trkpt lat="45.23931" lon="5.61061">
        <ele>864.20001220703</ele>
        <time>2019-08-11T08:51:19.000Z</time>
      </trkpt>
      <trkpt lat="45.23923" lon="5.6106">
        <ele>865</ele>
        <time>2019-08-11T08:51:23.000Z</time>
      </trkpt>
      <trkpt lat="45.23921" lon="5.61061">
        <ele>865.40002441406</ele>
        <time>2019-08-11T08:51:24.000Z</time>
      </trkpt>
      <trkpt lat="45.23916" lon="5.61064">
        <ele>866.79998779297</ele>
        <time>2019-08-11T08:51:27.000Z</time>
      </trkpt>
      <trkpt lat="45.23914" lon="5.61065">
        <ele>866.79998779297</ele>
        <time>2019-08-11T08:51:28.000Z</time>
      </trkpt>
      <trkpt lat="45.23908" lon="5.6107">
        <ele>867.79998779297</ele>
        <time>2019-08-11T08:51:32.000Z</time>
      </trkpt>
      <trkpt lat="45.23906" lon="5.61071">
        <ele>868.20001220703</ele>
        <time>2019-08-11T08:51:33.000Z</time>
      </trkpt>
      <trkpt lat="45.23904" lon="5.61071">
        <ele>868.59997558594</ele>
        <time>2019-08-11T08:51:34.000Z</time>
      </trkpt>
      <trkpt lat="45.23902" lon="5.61071">
        <ele>868.79998779297</ele>
        <time>2019-08-11T08:51:35.000Z</time>
      </trkpt>
      <trkpt lat="45.239" lon="5.61072">
        <ele>869</ele>
        <time>2019-08-11T08:51:36.000Z</time>
      </trkpt>
      <trkpt lat="45.23895" lon="5.61074">
        <ele>870</ele>
        <time>2019-08-11T08:51:39.000Z</time>
      </trkpt>
      <trkpt lat="45.23886" lon="5.61078">
        <ele>871.40002441406</ele>
        <time>2019-08-11T08:51:44.000Z</time>
      </trkpt>
      <trkpt lat="45.23879" lon="5.61082">
        <ele>872.40002441406</ele>
        <time>2019-08-11T08:51:48.000Z</time>
      </trkpt>
      <trkpt lat="45.23876" lon="5.61083">
        <ele>873.40002441406</ele>
        <time>2019-08-11T08:51:50.000Z</time>
      </trkpt>
      <trkpt lat="45.23874" lon="5.61085">
        <ele>873.59997558594</ele>
        <time>2019-08-11T08:51:51.000Z</time>
      </trkpt>
      <trkpt lat="45.23863" lon="5.6109">
        <ele>874.59997558594</ele>
        <time>2019-08-11T08:51:57.000Z</time>
      </trkpt>
      <trkpt lat="45.23861" lon="5.61091">
        <ele>875</ele>
        <time>2019-08-11T08:51:58.000Z</time>
      </trkpt>
      <trkpt lat="45.23856" lon="5.61096">
        <ele>875.79998779297</ele>
        <time>2019-08-11T08:52:02.000Z</time>
      </trkpt>
      <trkpt lat="45.23853" lon="5.61097">
        <ele>876.20001220703</ele>
        <time>2019-08-11T08:52:04.000Z</time>
      </trkpt>
      <trkpt lat="45.23847" lon="5.61098">
        <ele>876.79998779297</ele>
        <time>2019-08-11T08:52:08.000Z</time>
      </trkpt>
      <trkpt lat="45.23845" lon="5.61097">
        <ele>877.20001220703</ele>
        <time>2019-08-11T08:52:10.000Z</time>
      </trkpt>
      <trkpt lat="45.23843" lon="5.61097">
        <ele>877.40002441406</ele>
        <time>2019-08-11T08:52:11.000Z</time>
      </trkpt>
      <trkpt lat="45.23841" lon="5.61095">
        <ele>877.79998779297</ele>
        <time>2019-08-11T08:52:13.000Z</time>
      </trkpt>
      <trkpt lat="45.23836" lon="5.61092">
        <ele>878.79998779297</ele>
        <time>2019-08-11T08:52:16.000Z</time>
      </trkpt>
      <trkpt lat="45.23832" lon="5.61085">
        <ele>879.20001220703</ele>
        <time>2019-08-11T08:52:20.000Z</time>
      </trkpt>
      <trkpt lat="45.2383" lon="5.61082">
        <ele>879.59997558594</ele>
        <time>2019-08-11T08:52:22.000Z</time>
      </trkpt>
      <trkpt lat="45.23828" lon="5.61081">
        <ele>879.59997558594</ele>
        <time>2019-08-11T08:52:23.000Z</time>
      </trkpt>
      <trkpt lat="45.2382" lon="5.61074">
        <ele>880</ele>
        <time>2019-08-11T08:52:28.000Z</time>
      </trkpt>
      <trkpt lat="45.23815" lon="5.6107">
        <ele>880.40002441406</ele>
        <time>2019-08-11T08:52:31.000Z</time>
      </trkpt>
      <trkpt lat="45.23811" lon="5.61068">
        <ele>880.79998779297</ele>
        <time>2019-08-11T08:52:34.000Z</time>
      </trkpt>
      <trkpt lat="45.23806" lon="5.61066">
        <ele>881.40002441406</ele>
        <time>2019-08-11T08:52:38.000Z</time>
      </trkpt>
      <trkpt lat="45.23805" lon="5.61066">
        <ele>881.59997558594</ele>
        <time>2019-08-11T08:52:39.000Z</time>
      </trkpt>
      <trkpt lat="45.23802" lon="5.61065">
        <ele>882.40002441406</ele>
        <time>2019-08-11T08:52:42.000Z</time>
      </trkpt>
      <trkpt lat="45.23801" lon="5.61065">
        <ele>882.59997558594</ele>
        <time>2019-08-11T08:52:43.000Z</time>
      </trkpt>
      <trkpt lat="45.238" lon="5.61064">
        <ele>882.79998779297</ele>
        <time>2019-08-11T08:52:44.000Z</time>
      </trkpt>
      <trkpt lat="45.23797" lon="5.61064">
        <ele>883.20001220703</ele>
        <time>2019-08-11T08:52:46.000Z</time>
      </trkpt>
      <trkpt lat="45.23794" lon="5.61066">
        <ele>884</ele>
        <time>2019-08-11T08:52:48.000Z</time>
      </trkpt>
      <trkpt lat="45.23793" lon="5.61066">
        <ele>884.20001220703</ele>
        <time>2019-08-11T08:52:49.000Z</time>
      </trkpt>
      <trkpt lat="45.23786" lon="5.61068">
        <ele>885.20001220703</ele>
        <time>2019-08-11T08:52:53.000Z</time>
      </trkpt>
      <trkpt lat="45.23782" lon="5.61069">
        <ele>885.40002441406</ele>
        <time>2019-08-11T08:52:56.000Z</time>
      </trkpt>
      <trkpt lat="45.23779" lon="5.6107">
        <ele>886.40002441406</ele>
        <time>2019-08-11T08:52:59.000Z</time>
      </trkpt>
      <trkpt lat="45.23776" lon="5.61071">
        <ele>887</ele>
        <time>2019-08-11T08:53:02.000Z</time>
      </trkpt>
      <trkpt lat="45.23773" lon="5.61071">
        <ele>887.40002441406</ele>
        <time>2019-08-11T08:53:04.000Z</time>
      </trkpt>
      <trkpt lat="45.23769" lon="5.61072">
        <ele>888</ele>
        <time>2019-08-11T08:53:07.000Z</time>
      </trkpt>
      <trkpt lat="45.23765" lon="5.61071">
        <ele>888.59997558594</ele>
        <time>2019-08-11T08:53:10.000Z</time>
      </trkpt>
      <trkpt lat="45.23761" lon="5.6107">
        <ele>889.59997558594</ele>
        <time>2019-08-11T08:53:13.000Z</time>
      </trkpt>
      <trkpt lat="45.23759" lon="5.6107">
        <ele>889.79998779297</ele>
        <time>2019-08-11T08:53:14.000Z</time>
      </trkpt>
      <trkpt lat="45.2375" lon="5.61068">
        <ele>890.40002441406</ele>
        <time>2019-08-11T08:53:20.000Z</time>
      </trkpt>
      <trkpt lat="45.23743" lon="5.61066">
        <ele>890.79998779297</ele>
        <time>2019-08-11T08:53:24.000Z</time>
      </trkpt>
      <trkpt lat="45.23739" lon="5.61067">
        <ele>891.20001220703</ele>
        <time>2019-08-11T08:53:26.000Z</time>
      </trkpt>
      <trkpt lat="45.23731" lon="5.61068">
        <ele>891.79998779297</ele>
        <time>2019-08-11T08:53:31.000Z</time>
      </trkpt>
      <trkpt lat="45.23729" lon="5.61069">
        <ele>892.20001220703</ele>
        <time>2019-08-11T08:53:32.000Z</time>
      </trkpt>
      <trkpt lat="45.23724" lon="5.61069">
        <ele>892.59997558594</ele>
        <time>2019-08-11T08:53:35.000Z</time>
      </trkpt>
      <trkpt lat="45.23721" lon="5.61068">
        <ele>893</ele>
        <time>2019-08-11T08:53:37.000Z</time>
      </trkpt>
      <trkpt lat="45.23719" lon="5.61069">
        <ele>893.20001220703</ele>
        <time>2019-08-11T08:53:39.000Z</time>
      </trkpt>
      <trkpt lat="45.23716" lon="5.61069">
        <ele>893.79998779297</ele>
        <time>2019-08-11T08:53:41.000Z</time>
      </trkpt>
      <trkpt lat="45.23713" lon="5.6107">
        <ele>894</ele>
        <time>2019-08-11T08:53:43.000Z</time>
      </trkpt>
      <trkpt lat="45.23711" lon="5.6107">
        <ele>894.40002441406</ele>
        <time>2019-08-11T08:53:44.000Z</time>
      </trkpt>
      <trkpt lat="45.23704" lon="5.61072">
        <ele>895.20001220703</ele>
        <time>2019-08-11T08:53:48.000Z</time>
      </trkpt>
      <trkpt lat="45.23698" lon="5.61073">
        <ele>896.40002441406</ele>
        <time>2019-08-11T08:53:52.000Z</time>
      </trkpt>
      <trkpt lat="45.23693" lon="5.61075">
        <ele>897</ele>
        <time>2019-08-11T08:53:55.000Z</time>
      </trkpt>
      <trkpt lat="45.2369" lon="5.61076">
        <ele>897.59997558594</ele>
        <time>2019-08-11T08:53:57.000Z</time>
      </trkpt>
      <trkpt lat="45.23684" lon="5.61079">
        <ele>898.59997558594</ele>
        <time>2019-08-11T08:54:01.000Z</time>
      </trkpt>
      <trkpt lat="45.23682" lon="5.6108">
        <ele>898.79998779297</ele>
        <time>2019-08-11T08:54:02.000Z</time>
      </trkpt>
      <trkpt lat="45.2367" lon="5.61086">
        <ele>899.59997558594</ele>
        <time>2019-08-11T08:54:08.000Z</time>
      </trkpt>
      <trkpt lat="45.23655" lon="5.61093">
        <ele>900.59997558594</ele>
        <time>2019-08-11T08:54:14.000Z</time>
      </trkpt>
      <trkpt lat="45.23645" lon="5.61097">
        <ele>901.79998779297</ele>
        <time>2019-08-11T08:54:19.000Z</time>
      </trkpt>
      <trkpt lat="45.23641" lon="5.61099">
        <ele>902.20001220703</ele>
        <time>2019-08-11T08:54:21.000Z</time>
      </trkpt>
      <trkpt lat="45.23632" lon="5.61103">
        <ele>902.79998779297</ele>
        <time>2019-08-11T08:54:26.000Z</time>
      </trkpt>
      <trkpt lat="45.23624" lon="5.61109">
        <ele>903.79998779297</ele>
        <time>2019-08-11T08:54:32.000Z</time>
      </trkpt>
      <trkpt lat="45.23615" lon="5.61113">
        <ele>904.79998779297</ele>
        <time>2019-08-11T08:54:38.000Z</time>
      </trkpt>
      <trkpt lat="45.23614" lon="5.61114">
        <ele>905.20001220703</ele>
        <time>2019-08-11T08:54:39.000Z</time>
      </trkpt>
      <trkpt lat="45.23607" lon="5.61118">
        <ele>906.20001220703</ele>
        <time>2019-08-11T08:54:44.000Z</time>
      </trkpt>
      <trkpt lat="45.236" lon="5.61118">
        <ele>907.40002441406</ele>
        <time>2019-08-11T08:54:49.000Z</time>
      </trkpt>
      <trkpt lat="45.23597" lon="5.61117">
        <ele>907.79998779297</ele>
        <time>2019-08-11T08:54:51.000Z</time>
      </trkpt>
      <trkpt lat="45.23593" lon="5.61116">
        <ele>908.59997558594</ele>
        <time>2019-08-11T08:54:54.000Z</time>
      </trkpt>
      <trkpt lat="45.23589" lon="5.61115">
        <ele>909.20001220703</ele>
        <time>2019-08-11T08:54:57.000Z</time>
      </trkpt>
      <trkpt lat="45.23585" lon="5.61113">
        <ele>909.59997558594</ele>
        <time>2019-08-11T08:55:00.000Z</time>
      </trkpt>
      <trkpt lat="45.2358" lon="5.61111">
        <ele>910.40002441406</ele>
        <time>2019-08-11T08:55:03.000Z</time>
      </trkpt>
      <trkpt lat="45.23578" lon="5.61111">
        <ele>910.59997558594</ele>
        <time>2019-08-11T08:55:04.000Z</time>
      </trkpt>
      <trkpt lat="45.23577" lon="5.6111">
        <ele>910.59997558594</ele>
        <time>2019-08-11T08:55:05.000Z</time>
      </trkpt>
      <trkpt lat="45.23576" lon="5.6111">
        <ele>910.79998779297</ele>
        <time>2019-08-11T08:55:06.000Z</time>
      </trkpt>
      <trkpt lat="45.23574" lon="5.61109">
        <ele>911</ele>
        <time>2019-08-11T08:55:08.000Z</time>
      </trkpt>
      <trkpt lat="45.23571" lon="5.61107">
        <ele>911.40002441406</ele>
        <time>2019-08-11T08:55:10.000Z</time>
      </trkpt>
      <trkpt lat="45.23568" lon="5.61105">
        <ele>911.79998779297</ele>
        <time>2019-08-11T08:55:12.000Z</time>
      </trkpt>
      <trkpt lat="45.23564" lon="5.61103">
        <ele>912</ele>
        <time>2019-08-11T08:55:14.000Z</time>
      </trkpt>
      <trkpt lat="45.23559" lon="5.61098">
        <ele>913</ele>
        <time>2019-08-11T08:55:18.000Z</time>
      </trkpt>
      <trkpt lat="45.23558" lon="5.61097">
        <ele>913.40002441406</ele>
        <time>2019-08-11T08:55:19.000Z</time>
      </trkpt>
      <trkpt lat="45.23554" lon="5.61092">
        <ele>914</ele>
        <time>2019-08-11T08:55:22.000Z</time>
      </trkpt>
      <trkpt lat="45.23553" lon="5.6109">
        <ele>914.20001220703</ele>
        <time>2019-08-11T08:55:23.000Z</time>
      </trkpt>
      <trkpt lat="45.2355" lon="5.61087">
        <ele>914.40002441406</ele>
        <time>2019-08-11T08:55:25.000Z</time>
      </trkpt>
      <trkpt lat="45.23544" lon="5.61079">
        <ele>914.79998779297</ele>
        <time>2019-08-11T08:55:30.000Z</time>
      </trkpt>
      <trkpt lat="45.23541" lon="5.61073">
        <ele>915.20001220703</ele>
        <time>2019-08-11T08:55:33.000Z</time>
      </trkpt>
      <trkpt lat="45.23538" lon="5.6107">
        <ele>915.40002441406</ele>
        <time>2019-08-11T08:55:35.000Z</time>
      </trkpt>
      <trkpt lat="45.23533" lon="5.61063">
        <ele>916.40002441406</ele>
        <time>2019-08-11T08:55:39.000Z</time>
      </trkpt>
      <trkpt lat="45.23528" lon="5.61059">
        <ele>917.20001220703</ele>
        <time>2019-08-11T08:55:42.000Z</time>
      </trkpt>
      <trkpt lat="45.23526" lon="5.61056">
        <ele>917.59997558594</ele>
        <time>2019-08-11T08:55:44.000Z</time>
      </trkpt>
      <trkpt lat="45.23523" lon="5.61053">
        <ele>918</ele>
        <time>2019-08-11T08:55:46.000Z</time>
      </trkpt>
      <trkpt lat="45.2352" lon="5.61051">
        <ele>918.40002441406</ele>
        <time>2019-08-11T08:55:48.000Z</time>
      </trkpt>
      <trkpt lat="45.23519" lon="5.61049">
        <ele>918.59997558594</ele>
        <time>2019-08-11T08:55:49.000Z</time>
      </trkpt>
      <trkpt lat="45.23516" lon="5.61046">
        <ele>919</ele>
        <time>2019-08-11T08:55:51.000Z</time>
      </trkpt>
      <trkpt lat="45.23514" lon="5.61042">
        <ele>919.59997558594</ele>
        <time>2019-08-11T08:55:54.000Z</time>
      </trkpt>
      <trkpt lat="45.23511" lon="5.61039">
        <ele>919.79998779297</ele>
        <time>2019-08-11T08:55:56.000Z</time>
      </trkpt>
      <trkpt lat="45.23504" lon="5.6103">
        <ele>920.40002441406</ele>
        <time>2019-08-11T08:56:01.000Z</time>
      </trkpt>
      <trkpt lat="45.23502" lon="5.61027">
        <ele>921</ele>
        <time>2019-08-11T08:56:03.000Z</time>
      </trkpt>
      <trkpt lat="45.23497" lon="5.61022">
        <ele>921.79998779297</ele>
        <time>2019-08-11T08:56:07.000Z</time>
      </trkpt>
      <trkpt lat="45.23496" lon="5.6102">
        <ele>922</ele>
        <time>2019-08-11T08:56:08.000Z</time>
      </trkpt>
      <trkpt lat="45.23495" lon="5.61018">
        <ele>922.40002441406</ele>
        <time>2019-08-11T08:56:09.000Z</time>
      </trkpt>
      <trkpt lat="45.23494" lon="5.61014">
        <ele>922.79998779297</ele>
        <time>2019-08-11T08:56:11.000Z</time>
      </trkpt>
      <trkpt lat="45.23492" lon="5.61011">
        <ele>923.20001220703</ele>
        <time>2019-08-11T08:56:13.000Z</time>
      </trkpt>
      <trkpt lat="45.23488" lon="5.61">
        <ele>924.20001220703</ele>
        <time>2019-08-11T08:56:18.000Z</time>
      </trkpt>
      <trkpt lat="45.23484" lon="5.60982">
        <ele>925.20001220703</ele>
        <time>2019-08-11T08:56:25.000Z</time>
      </trkpt>
      <trkpt lat="45.23481" lon="5.60969">
        <ele>926</ele>
        <time>2019-08-11T08:56:30.000Z</time>
      </trkpt>
      <trkpt lat="45.2348" lon="5.60963">
        <ele>926.40002441406</ele>
        <time>2019-08-11T08:56:32.000Z</time>
      </trkpt>
      <trkpt lat="45.23476" lon="5.60957">
        <ele>926.59997558594</ele>
        <time>2019-08-11T08:56:35.000Z</time>
      </trkpt>
      <trkpt lat="45.23468" lon="5.60947">
        <ele>927.59997558594</ele>
        <time>2019-08-11T08:56:41.000Z</time>
      </trkpt>
      <trkpt lat="45.23462" lon="5.60938">
        <ele>928.59997558594</ele>
        <time>2019-08-11T08:56:45.000Z</time>
      </trkpt>
      <trkpt lat="45.23461" lon="5.60936">
        <ele>929</ele>
        <time>2019-08-11T08:56:46.000Z</time>
      </trkpt>
      <trkpt lat="45.23457" lon="5.60932">
        <ele>929.79998779297</ele>
        <time>2019-08-11T08:56:49.000Z</time>
      </trkpt>
      <trkpt lat="45.23454" lon="5.60929">
        <ele>930.20001220703</ele>
        <time>2019-08-11T08:56:52.000Z</time>
      </trkpt>
      <trkpt lat="45.2345" lon="5.60926">
        <ele>930.79998779297</ele>
        <time>2019-08-11T08:56:55.000Z</time>
      </trkpt>
      <trkpt lat="45.23445" lon="5.60923">
        <ele>931.40002441406</ele>
        <time>2019-08-11T08:56:58.000Z</time>
      </trkpt>
      <trkpt lat="45.2344" lon="5.6092">
        <ele>931.79998779297</ele>
        <time>2019-08-11T08:57:01.000Z</time>
      </trkpt>
      <trkpt lat="45.23436" lon="5.60915">
        <ele>932.20001220703</ele>
        <time>2019-08-11T08:57:04.000Z</time>
      </trkpt>
      <trkpt lat="45.23431" lon="5.60911">
        <ele>933</ele>
        <time>2019-08-11T08:57:07.000Z</time>
      </trkpt>
      <trkpt lat="45.23426" lon="5.60907">
        <ele>933.79998779297</ele>
        <time>2019-08-11T08:57:10.000Z</time>
      </trkpt>
      <trkpt lat="45.23425" lon="5.60906">
        <ele>934.20001220703</ele>
        <time>2019-08-11T08:57:11.000Z</time>
      </trkpt>
      <trkpt lat="45.23417" lon="5.60899">
        <ele>935.20001220703</ele>
        <time>2019-08-11T08:57:16.000Z</time>
      </trkpt>
      <trkpt lat="45.23409" lon="5.6089">
        <ele>936.40002441406</ele>
        <time>2019-08-11T08:57:21.000Z</time>
      </trkpt>
      <trkpt lat="45.23408" lon="5.60889">
        <ele>936.79998779297</ele>
        <time>2019-08-11T08:57:22.000Z</time>
      </trkpt>
      <trkpt lat="45.23406" lon="5.60887">
        <ele>937</ele>
        <time>2019-08-11T08:57:23.000Z</time>
      </trkpt>
      <trkpt lat="45.23401" lon="5.6088">
        <ele>937.40002441406</ele>
        <time>2019-08-11T08:57:27.000Z</time>
      </trkpt>
      <trkpt lat="45.23399" lon="5.60877">
        <ele>937.59997558594</ele>
        <time>2019-08-11T08:57:29.000Z</time>
      </trkpt>
      <trkpt lat="45.23397" lon="5.60876">
        <ele>937.59997558594</ele>
        <time>2019-08-11T08:57:30.000Z</time>
      </trkpt>
      <trkpt lat="45.23395" lon="5.60873">
        <ele>937.79998779297</ele>
        <time>2019-08-11T08:57:32.000Z</time>
      </trkpt>
      <trkpt lat="45.23392" lon="5.6087">
        <ele>937.79998779297</ele>
        <time>2019-08-11T08:57:34.000Z</time>
      </trkpt>
      <trkpt lat="45.23383" lon="5.60866">
        <ele>938.20001220703</ele>
        <time>2019-08-11T08:57:38.000Z</time>
      </trkpt>
      <trkpt lat="45.23374" lon="5.60864">
        <ele>938.59997558594</ele>
        <time>2019-08-11T08:57:42.000Z</time>
      </trkpt>
      <trkpt lat="45.23372" lon="5.60864">
        <ele>938.59997558594</ele>
        <time>2019-08-11T08:57:43.000Z</time>
      </trkpt>
      <trkpt lat="45.23356" lon="5.60865">
        <ele>939.40002441406</ele>
        <time>2019-08-11T08:57:50.000Z</time>
      </trkpt>
      <trkpt lat="45.23353" lon="5.60865">
        <ele>940</ele>
        <time>2019-08-11T08:57:52.000Z</time>
      </trkpt>
      <trkpt lat="45.23348" lon="5.60865">
        <ele>940.20001220703</ele>
        <time>2019-08-11T08:57:55.000Z</time>
      </trkpt>
      <trkpt lat="45.23346" lon="5.60866">
        <ele>940.20001220703</ele>
        <time>2019-08-11T08:57:56.000Z</time>
      </trkpt>
      <trkpt lat="45.23343" lon="5.60868">
        <ele>940.40002441406</ele>
        <time>2019-08-11T08:57:59.000Z</time>
      </trkpt>
      <trkpt lat="45.2334" lon="5.6087">
        <ele>940.20001220703</ele>
        <time>2019-08-11T08:58:06.000Z</time>
      </trkpt>
      <trkpt lat="45.2334" lon="5.6087">
        <ele>939.79998779297</ele>
        <time>2019-08-11T08:58:21.000Z</time>
      </trkpt>
      <trkpt lat="45.23339" lon="5.6087">
        <ele>939.79998779297</ele>
        <time>2019-08-11T08:58:40.000Z</time>
      </trkpt>
      <trkpt lat="45.23338" lon="5.60869">
        <ele>940.20001220703</ele>
        <time>2019-08-11T08:58:56.000Z</time>
      </trkpt>
      <trkpt lat="45.23338" lon="5.60869">
        <ele>940.20001220703</ele>
        <time>2019-08-11T08:59:13.000Z</time>
      </trkpt>
      <trkpt lat="45.23338" lon="5.60869">
        <ele>940</ele>
        <time>2019-08-11T08:59:30.000Z</time>
      </trkpt>
      <trkpt lat="45.23339" lon="5.60866">
        <ele>940.40002441406</ele>
        <time>2019-08-11T08:59:45.000Z</time>
      </trkpt>
      <trkpt lat="45.2334" lon="5.60866">
        <ele>940.20001220703</ele>
        <time>2019-08-11T09:00:01.000Z</time>
      </trkpt>
      <trkpt lat="45.2334" lon="5.60867">
        <ele>940.20001220703</ele>
        <time>2019-08-11T09:00:16.000Z</time>
      </trkpt>
      <trkpt lat="45.2334" lon="5.60867">
        <ele>940.20001220703</ele>
        <time>2019-08-11T09:00:29.000Z</time>
      </trkpt>
      <trkpt lat="45.23341" lon="5.60867">
        <ele>940.20001220703</ele>
        <time>2019-08-11T09:00:41.000Z</time>
      </trkpt>
      <trkpt lat="45.23341" lon="5.60868">
        <ele>940.20001220703</ele>
        <time>2019-08-11T09:01:00.000Z</time>
      </trkpt>
      <trkpt lat="45.23343" lon="5.60869">
        <ele>940.20001220703</ele>
        <time>2019-08-11T09:01:14.000Z</time>
      </trkpt>
      <trkpt lat="45.23343" lon="5.60869">
        <ele>940.59997558594</ele>
        <time>2019-08-11T09:01:29.000Z</time>
      </trkpt>
      <trkpt lat="45.23344" lon="5.60867">
        <ele>940.59997558594</ele>
        <time>2019-08-11T09:01:43.000Z</time>
      </trkpt>
      <trkpt lat="45.23345" lon="5.60867">
        <ele>940.79998779297</ele>
        <time>2019-08-11T09:01:59.000Z</time>
      </trkpt>
      <trkpt lat="45.23344" lon="5.60868">
        <ele>940.79998779297</ele>
        <time>2019-08-11T09:02:15.000Z</time>
      </trkpt>
      <trkpt lat="45.23344" lon="5.60865">
        <ele>941.20001220703</ele>
        <time>2019-08-11T09:02:27.000Z</time>
      </trkpt>
      <trkpt lat="45.23343" lon="5.60865">
        <ele>941.40002441406</ele>
        <time>2019-08-11T09:02:28.000Z</time>
      </trkpt>
      <trkpt lat="45.23343" lon="5.60865">
        <ele>941.79998779297</ele>
        <time>2019-08-11T09:02:37.000Z</time>
      </trkpt>
      <trkpt lat="45.23343" lon="5.60866">
        <ele>941.79998779297</ele>
        <time>2019-08-11T09:02:51.000Z</time>
      </trkpt>
      <trkpt lat="45.23343" lon="5.60866">
        <ele>941.59997558594</ele>
        <time>2019-08-11T09:03:05.000Z</time>
      </trkpt>
      <trkpt lat="45.23342" lon="5.60866">
        <ele>941.40002441406</ele>
        <time>2019-08-11T09:03:19.000Z</time>
      </trkpt>
      <trkpt lat="45.23341" lon="5.60865">
        <ele>941.40002441406</ele>
        <time>2019-08-11T09:03:32.000Z</time>
      </trkpt>
      <trkpt lat="45.23332" lon="5.60863">
        <ele>941.79998779297</ele>
        <time>2019-08-11T09:03:40.000Z</time>
      </trkpt>
      <trkpt lat="45.23327" lon="5.60862">
        <ele>942.79998779297</ele>
        <time>2019-08-11T09:03:43.000Z</time>
      </trkpt>
      <trkpt lat="45.23323" lon="5.60862">
        <ele>943.40002441406</ele>
        <time>2019-08-11T09:03:46.000Z</time>
      </trkpt>
      <trkpt lat="45.23321" lon="5.60862">
        <ele>943.40002441406</ele>
        <time>2019-08-11T09:03:47.000Z</time>
      </trkpt>
      <trkpt lat="45.2332" lon="5.60861">
        <ele>943.79998779297</ele>
        <time>2019-08-11T09:03:48.000Z</time>
      </trkpt>
      <trkpt lat="45.23315" lon="5.60862">
        <ele>944.79998779297</ele>
        <time>2019-08-11T09:03:52.000Z</time>
      </trkpt>
      <trkpt lat="45.23314" lon="5.60862">
        <ele>945</ele>
        <time>2019-08-11T09:03:53.000Z</time>
      </trkpt>
      <trkpt lat="45.23309" lon="5.60864">
        <ele>945.79998779297</ele>
        <time>2019-08-11T09:03:57.000Z</time>
      </trkpt>
      <trkpt lat="45.23308" lon="5.60864">
        <ele>946.20001220703</ele>
        <time>2019-08-11T09:03:58.000Z</time>
      </trkpt>
      <trkpt lat="45.23301" lon="5.60866">
        <ele>947</ele>
        <time>2019-08-11T09:04:03.000Z</time>
      </trkpt>
      <trkpt lat="45.23299" lon="5.60866">
        <ele>947.20001220703</ele>
        <time>2019-08-11T09:04:04.000Z</time>
      </trkpt>
      <trkpt lat="45.23292" lon="5.60867">
        <ele>948.20001220703</ele>
        <time>2019-08-11T09:04:09.000Z</time>
      </trkpt>
      <trkpt lat="45.23287" lon="5.60867">
        <ele>949.20001220703</ele>
        <time>2019-08-11T09:04:13.000Z</time>
      </trkpt>
      <trkpt lat="45.23284" lon="5.60868">
        <ele>949.40002441406</ele>
        <time>2019-08-11T09:04:15.000Z</time>
      </trkpt>
      <trkpt lat="45.23283" lon="5.60868">
        <ele>949.59997558594</ele>
        <time>2019-08-11T09:04:16.000Z</time>
      </trkpt>
      <trkpt lat="45.23278" lon="5.60868">
        <ele>950</ele>
        <time>2019-08-11T09:04:19.000Z</time>
      </trkpt>
      <trkpt lat="45.23277" lon="5.60868">
        <ele>950.20001220703</ele>
        <time>2019-08-11T09:04:20.000Z</time>
      </trkpt>
      <trkpt lat="45.23273" lon="5.60868">
        <ele>950.59997558594</ele>
        <time>2019-08-11T09:04:22.000Z</time>
      </trkpt>
      <trkpt lat="45.23272" lon="5.60868">
        <ele>950.79998779297</ele>
        <time>2019-08-11T09:04:23.000Z</time>
      </trkpt>
      <trkpt lat="45.23264" lon="5.60869">
        <ele>951.40002441406</ele>
        <time>2019-08-11T09:04:28.000Z</time>
      </trkpt>
      <trkpt lat="45.23263" lon="5.6087">
        <ele>951.59997558594</ele>
        <time>2019-08-11T09:04:29.000Z</time>
      </trkpt>
      <trkpt lat="45.23256" lon="5.6087">
        <ele>952</ele>
        <time>2019-08-11T09:04:33.000Z</time>
      </trkpt>
      <trkpt lat="45.23255" lon="5.6087">
        <ele>952.20001220703</ele>
        <time>2019-08-11T09:04:34.000Z</time>
      </trkpt>
      <trkpt lat="45.23253" lon="5.6087">
        <ele>952.40002441406</ele>
        <time>2019-08-11T09:04:36.000Z</time>
      </trkpt>
      <trkpt lat="45.23252" lon="5.6087">
        <ele>952.59997558594</ele>
        <time>2019-08-11T09:04:37.000Z</time>
      </trkpt>
      <trkpt lat="45.2325" lon="5.6087">
        <ele>953</ele>
        <time>2019-08-11T09:04:38.000Z</time>
      </trkpt>
      <trkpt lat="45.23244" lon="5.60871">
        <ele>953.79998779297</ele>
        <time>2019-08-11T09:04:42.000Z</time>
      </trkpt>
      <trkpt lat="45.23242" lon="5.60871">
        <ele>954</ele>
        <time>2019-08-11T09:04:43.000Z</time>
      </trkpt>
      <trkpt lat="45.23241" lon="5.60871">
        <ele>954</ele>
        <time>2019-08-11T09:04:44.000Z</time>
      </trkpt>
      <trkpt lat="45.23233" lon="5.60873">
        <ele>955</ele>
        <time>2019-08-11T09:04:48.000Z</time>
      </trkpt>
      <trkpt lat="45.23232" lon="5.60874">
        <ele>955.20001220703</ele>
        <time>2019-08-11T09:04:49.000Z</time>
      </trkpt>
      <trkpt lat="45.23223" lon="5.60874">
        <ele>956</ele>
        <time>2019-08-11T09:04:54.000Z</time>
      </trkpt>
      <trkpt lat="45.23222" lon="5.60874">
        <ele>956</ele>
        <time>2019-08-11T09:04:55.000Z</time>
      </trkpt>
      <trkpt lat="45.23214" lon="5.60875">
        <ele>957.20001220703</ele>
        <time>2019-08-11T09:05:00.000Z</time>
      </trkpt>
      <trkpt lat="45.23208" lon="5.60874">
        <ele>957.40002441406</ele>
        <time>2019-08-11T09:05:03.000Z</time>
      </trkpt>
      <trkpt lat="45.23199" lon="5.60874">
        <ele>958.20001220703</ele>
        <time>2019-08-11T09:05:08.000Z</time>
      </trkpt>
      <trkpt lat="45.23198" lon="5.60874">
        <ele>958.59997558594</ele>
        <time>2019-08-11T09:05:09.000Z</time>
      </trkpt>
      <trkpt lat="45.23191" lon="5.60875">
        <ele>959.40002441406</ele>
        <time>2019-08-11T09:05:13.000Z</time>
      </trkpt>
      <trkpt lat="45.23186" lon="5.60876">
        <ele>960.20001220703</ele>
        <time>2019-08-11T09:05:16.000Z</time>
      </trkpt>
      <trkpt lat="45.23182" lon="5.60876">
        <ele>960.40002441406</ele>
        <time>2019-08-11T09:05:18.000Z</time>
      </trkpt>
      <trkpt lat="45.23176" lon="5.60876">
        <ele>961.40002441406</ele>
        <time>2019-08-11T09:05:22.000Z</time>
      </trkpt>
      <trkpt lat="45.23173" lon="5.60877">
        <ele>961.79998779297</ele>
        <time>2019-08-11T09:05:24.000Z</time>
      </trkpt>
      <trkpt lat="45.23169" lon="5.60877">
        <ele>962</ele>
        <time>2019-08-11T09:05:27.000Z</time>
      </trkpt>
      <trkpt lat="45.23168" lon="5.60878">
        <ele>962.40002441406</ele>
        <time>2019-08-11T09:05:28.000Z</time>
      </trkpt>
      <trkpt lat="45.23164" lon="5.60879">
        <ele>962.79998779297</ele>
        <time>2019-08-11T09:05:30.000Z</time>
      </trkpt>
      <trkpt lat="45.23155" lon="5.60883">
        <ele>964</ele>
        <time>2019-08-11T09:05:35.000Z</time>
      </trkpt>
      <trkpt lat="45.23147" lon="5.60888">
        <ele>964.79998779297</ele>
        <time>2019-08-11T09:05:40.000Z</time>
      </trkpt>
      <trkpt lat="45.23145" lon="5.60889">
        <ele>965.20001220703</ele>
        <time>2019-08-11T09:05:41.000Z</time>
      </trkpt>
      <trkpt lat="45.23136" lon="5.60894">
        <ele>966.20001220703</ele>
        <time>2019-08-11T09:05:46.000Z</time>
      </trkpt>
      <trkpt lat="45.23135" lon="5.60895">
        <ele>966.40002441406</ele>
        <time>2019-08-11T09:05:47.000Z</time>
      </trkpt>
      <trkpt lat="45.23125" lon="5.60903">
        <ele>967</ele>
        <time>2019-08-11T09:05:53.000Z</time>
      </trkpt>
      <trkpt lat="45.23122" lon="5.60904">
        <ele>967.20001220703</ele>
        <time>2019-08-11T09:05:55.000Z</time>
      </trkpt>
      <trkpt lat="45.23117" lon="5.6091">
        <ele>968</ele>
        <time>2019-08-11T09:05:58.000Z</time>
      </trkpt>
      <trkpt lat="45.23114" lon="5.60914">
        <ele>968.59997558594</ele>
        <time>2019-08-11T09:06:00.000Z</time>
      </trkpt>
      <trkpt lat="45.23108" lon="5.60921">
        <ele>969.79998779297</ele>
        <time>2019-08-11T09:06:04.000Z</time>
      </trkpt>
      <trkpt lat="45.23105" lon="5.60924">
        <ele>970.40002441406</ele>
        <time>2019-08-11T09:06:06.000Z</time>
      </trkpt>
      <trkpt lat="45.23103" lon="5.60925">
        <ele>970.79998779297</ele>
        <time>2019-08-11T09:06:07.000Z</time>
      </trkpt>
      <trkpt lat="45.23094" lon="5.60931">
        <ele>971.79998779297</ele>
        <time>2019-08-11T09:06:12.000Z</time>
      </trkpt>
      <trkpt lat="45.2309" lon="5.60934">
        <ele>972.40002441406</ele>
        <time>2019-08-11T09:06:14.000Z</time>
      </trkpt>
      <trkpt lat="45.23085" lon="5.60937">
        <ele>973</ele>
        <time>2019-08-11T09:06:17.000Z</time>
      </trkpt>
      <trkpt lat="45.23081" lon="5.6094">
        <ele>973.40002441406</ele>
        <time>2019-08-11T09:06:20.000Z</time>
      </trkpt>
      <trkpt lat="45.23077" lon="5.60943">
        <ele>974.20001220703</ele>
        <time>2019-08-11T09:06:23.000Z</time>
      </trkpt>
      <trkpt lat="45.23073" lon="5.60946">
        <ele>974.79998779297</ele>
        <time>2019-08-11T09:06:26.000Z</time>
      </trkpt>
      <trkpt lat="45.2307" lon="5.60948">
        <ele>975.40002441406</ele>
        <time>2019-08-11T09:06:28.000Z</time>
      </trkpt>
      <trkpt lat="45.23063" lon="5.60955">
        <ele>976.20001220703</ele>
        <time>2019-08-11T09:06:33.000Z</time>
      </trkpt>
      <trkpt lat="45.23062" lon="5.60956">
        <ele>976.40002441406</ele>
        <time>2019-08-11T09:06:34.000Z</time>
      </trkpt>
      <trkpt lat="45.23053" lon="5.60962">
        <ele>977.20001220703</ele>
        <time>2019-08-11T09:06:40.000Z</time>
      </trkpt>
      <trkpt lat="45.23051" lon="5.60963">
        <ele>977.59997558594</ele>
        <time>2019-08-11T09:06:42.000Z</time>
      </trkpt>
      <trkpt lat="45.23045" lon="5.60964">
        <ele>978.20001220703</ele>
        <time>2019-08-11T09:06:46.000Z</time>
      </trkpt>
      <trkpt lat="45.23042" lon="5.60964">
        <ele>978.79998779297</ele>
        <time>2019-08-11T09:06:48.000Z</time>
      </trkpt>
      <trkpt lat="45.23036" lon="5.6096">
        <ele>979.79998779297</ele>
        <time>2019-08-11T09:06:53.000Z</time>
      </trkpt>
      <trkpt lat="45.23038" lon="5.60952">
        <ele>980.40002441406</ele>
        <time>2019-08-11T09:06:58.000Z</time>
      </trkpt>
      <trkpt lat="45.23039" lon="5.60951">
        <ele>980.40002441406</ele>
        <time>2019-08-11T09:06:59.000Z</time>
      </trkpt>
      <trkpt lat="45.23047" lon="5.60943">
        <ele>980.79998779297</ele>
        <time>2019-08-11T09:07:05.000Z</time>
      </trkpt>
      <trkpt lat="45.23048" lon="5.60941">
        <ele>980.79998779297</ele>
        <time>2019-08-11T09:07:06.000Z</time>
      </trkpt>
      <trkpt lat="45.23057" lon="5.60937">
        <ele>981.79998779297</ele>
        <time>2019-08-11T09:07:12.000Z</time>
      </trkpt>
      <trkpt lat="45.23061" lon="5.60933">
        <ele>982.59997558594</ele>
        <time>2019-08-11T09:07:18.000Z</time>
      </trkpt>
      <trkpt lat="45.23061" lon="5.60933">
        <ele>983</ele>
        <time>2019-08-11T09:07:25.000Z</time>
      </trkpt>
      <trkpt lat="45.23062" lon="5.60933">
        <ele>983.20001220703</ele>
        <time>2019-08-11T09:07:27.000Z</time>
      </trkpt>
      <trkpt lat="45.23064" lon="5.60928">
        <ele>983.40002441406</ele>
        <time>2019-08-11T09:07:36.000Z</time>
      </trkpt>
      <trkpt lat="45.23066" lon="5.60926">
        <ele>983.79998779297</ele>
        <time>2019-08-11T09:07:43.000Z</time>
      </trkpt>
      <trkpt lat="45.23068" lon="5.60924">
        <ele>983.79998779297</ele>
        <time>2019-08-11T09:07:53.000Z</time>
      </trkpt>
      <trkpt lat="45.23068" lon="5.60924">
        <ele>984</ele>
        <time>2019-08-11T09:08:01.000Z</time>
      </trkpt>
      <trkpt lat="45.2307" lon="5.60925">
        <ele>984</ele>
        <time>2019-08-11T09:08:10.000Z</time>
      </trkpt>
      <trkpt lat="45.23072" lon="5.60922">
        <ele>984</ele>
        <time>2019-08-11T09:08:12.000Z</time>
      </trkpt>
      <trkpt lat="45.23073" lon="5.60921">
        <ele>984.20001220703</ele>
        <time>2019-08-11T09:08:13.000Z</time>
      </trkpt>
      <trkpt lat="45.23076" lon="5.60916">
        <ele>984.79998779297</ele>
        <time>2019-08-11T09:08:16.000Z</time>
      </trkpt>
      <trkpt lat="45.23079" lon="5.60911">
        <ele>985.20001220703</ele>
        <time>2019-08-11T09:08:19.000Z</time>
      </trkpt>
      <trkpt lat="45.23082" lon="5.60907">
        <ele>985.59997558594</ele>
        <time>2019-08-11T09:08:21.000Z</time>
      </trkpt>
      <trkpt lat="45.23083" lon="5.60906">
        <ele>985.79998779297</ele>
        <time>2019-08-11T09:08:22.000Z</time>
      </trkpt>
      <trkpt lat="45.23085" lon="5.60902">
        <ele>986.20001220703</ele>
        <time>2019-08-11T09:08:24.000Z</time>
      </trkpt>
      <trkpt lat="45.23089" lon="5.60896">
        <ele>987.40002441406</ele>
        <time>2019-08-11T09:08:28.000Z</time>
      </trkpt>
      <trkpt lat="45.2309" lon="5.60894">
        <ele>987.79998779297</ele>
        <time>2019-08-11T09:08:29.000Z</time>
      </trkpt>
      <trkpt lat="45.23094" lon="5.60889">
        <ele>988.59997558594</ele>
        <time>2019-08-11T09:08:32.000Z</time>
      </trkpt>
      <trkpt lat="45.23099" lon="5.60883">
        <ele>989</ele>
        <time>2019-08-11T09:08:36.000Z</time>
      </trkpt>
      <trkpt lat="45.23103" lon="5.60878">
        <ele>989.59997558594</ele>
        <time>2019-08-11T09:08:39.000Z</time>
      </trkpt>
      <trkpt lat="45.23107" lon="5.60873">
        <ele>990</ele>
        <time>2019-08-11T09:08:42.000Z</time>
      </trkpt>
      <trkpt lat="45.23111" lon="5.60866">
        <ele>990.79998779297</ele>
        <time>2019-08-11T09:08:46.000Z</time>
      </trkpt>
      <trkpt lat="45.23115" lon="5.6086">
        <ele>991.20001220703</ele>
        <time>2019-08-11T09:08:49.000Z</time>
      </trkpt>
      <trkpt lat="45.2312" lon="5.60853">
        <ele>992</ele>
        <time>2019-08-11T09:08:53.000Z</time>
      </trkpt>
      <trkpt lat="45.23122" lon="5.6085">
        <ele>992.20001220703</ele>
        <time>2019-08-11T09:08:55.000Z</time>
      </trkpt>
      <trkpt lat="45.23123" lon="5.60848">
        <ele>992.40002441406</ele>
        <time>2019-08-11T09:08:56.000Z</time>
      </trkpt>
      <trkpt lat="45.23127" lon="5.60842">
        <ele>993</ele>
        <time>2019-08-11T09:09:00.000Z</time>
      </trkpt>
      <trkpt lat="45.23129" lon="5.6084">
        <ele>993.20001220703</ele>
        <time>2019-08-11T09:09:01.000Z</time>
      </trkpt>
      <trkpt lat="45.23132" lon="5.60834">
        <ele>993.79998779297</ele>
        <time>2019-08-11T09:09:05.000Z</time>
      </trkpt>
      <trkpt lat="45.23133" lon="5.60833">
        <ele>994.20001220703</ele>
        <time>2019-08-11T09:09:06.000Z</time>
      </trkpt>
      <trkpt lat="45.23136" lon="5.6083">
        <ele>994.40002441406</ele>
        <time>2019-08-11T09:09:08.000Z</time>
      </trkpt>
      <trkpt lat="45.23141" lon="5.60825">
        <ele>995</ele>
        <time>2019-08-11T09:09:12.000Z</time>
      </trkpt>
      <trkpt lat="45.23143" lon="5.60823">
        <ele>995.40002441406</ele>
        <time>2019-08-11T09:09:14.000Z</time>
      </trkpt>
      <trkpt lat="45.23146" lon="5.60821">
        <ele>995.79998779297</ele>
        <time>2019-08-11T09:09:16.000Z</time>
      </trkpt>
      <trkpt lat="45.23147" lon="5.60819">
        <ele>995.79998779297</ele>
        <time>2019-08-11T09:09:17.000Z</time>
      </trkpt>
      <trkpt lat="45.23155" lon="5.60812">
        <ele>996.59997558594</ele>
        <time>2019-08-11T09:09:23.000Z</time>
      </trkpt>
      <trkpt lat="45.23163" lon="5.60806">
        <ele>997.79998779297</ele>
        <time>2019-08-11T09:09:28.000Z</time>
      </trkpt>
      <trkpt lat="45.23167" lon="5.60803">
        <ele>998</ele>
        <time>2019-08-11T09:09:30.000Z</time>
      </trkpt>
      <trkpt lat="45.23168" lon="5.60802">
        <ele>998.20001220703</ele>
        <time>2019-08-11T09:09:31.000Z</time>
      </trkpt>
      <trkpt lat="45.2317" lon="5.60799">
        <ele>998.79998779297</ele>
        <time>2019-08-11T09:09:33.000Z</time>
      </trkpt>
      <trkpt lat="45.23173" lon="5.60796">
        <ele>999</ele>
        <time>2019-08-11T09:09:35.000Z</time>
      </trkpt>
      <trkpt lat="45.23178" lon="5.60791">
        <ele>1000.200012207</ele>
        <time>2019-08-11T09:09:39.000Z</time>
      </trkpt>
      <trkpt lat="45.23179" lon="5.6079">
        <ele>1000.5999755859</ele>
        <time>2019-08-11T09:09:40.000Z</time>
      </trkpt>
      <trkpt lat="45.23183" lon="5.60786">
        <ele>1001.4000244141</ele>
        <time>2019-08-11T09:09:44.000Z</time>
      </trkpt>
      <trkpt lat="45.23186" lon="5.60783">
        <ele>1001.799987793</ele>
        <time>2019-08-11T09:09:47.000Z</time>
      </trkpt>
      <trkpt lat="45.23191" lon="5.60779">
        <ele>1002.5999755859</ele>
        <time>2019-08-11T09:09:51.000Z</time>
      </trkpt>
      <trkpt lat="45.23196" lon="5.60774">
        <ele>1003.200012207</ele>
        <time>2019-08-11T09:09:55.000Z</time>
      </trkpt>
      <trkpt lat="45.23199" lon="5.6077">
        <ele>1004</ele>
        <time>2019-08-11T09:09:58.000Z</time>
      </trkpt>
      <trkpt lat="45.23203" lon="5.60766">
        <ele>1004.799987793</ele>
        <time>2019-08-11T09:10:02.000Z</time>
      </trkpt>
      <trkpt lat="45.23206" lon="5.60763">
        <ele>1005.4000244141</ele>
        <time>2019-08-11T09:10:05.000Z</time>
      </trkpt>
      <trkpt lat="45.23212" lon="5.60757">
        <ele>1006.4000244141</ele>
        <time>2019-08-11T09:10:10.000Z</time>
      </trkpt>
      <trkpt lat="45.23213" lon="5.60756">
        <ele>1006.5999755859</ele>
        <time>2019-08-11T09:10:11.000Z</time>
      </trkpt>
      <trkpt lat="45.23218" lon="5.60749">
        <ele>1007.5999755859</ele>
        <time>2019-08-11T09:10:16.000Z</time>
      </trkpt>
      <trkpt lat="45.23221" lon="5.60747">
        <ele>1007.799987793</ele>
        <time>2019-08-11T09:10:18.000Z</time>
      </trkpt>
      <trkpt lat="45.23227" lon="5.60741">
        <ele>1008.799987793</ele>
        <time>2019-08-11T09:10:23.000Z</time>
      </trkpt>
      <trkpt lat="45.23228" lon="5.60739">
        <ele>1009</ele>
        <time>2019-08-11T09:10:24.000Z</time>
      </trkpt>
      <trkpt lat="45.2323" lon="5.60736">
        <ele>1009.4000244141</ele>
        <time>2019-08-11T09:10:26.000Z</time>
      </trkpt>
      <trkpt lat="45.23233" lon="5.60732">
        <ele>1010.200012207</ele>
        <time>2019-08-11T09:10:29.000Z</time>
      </trkpt>
      <trkpt lat="45.2324" lon="5.60726">
        <ele>1011</ele>
        <time>2019-08-11T09:10:34.000Z</time>
      </trkpt>
      <trkpt lat="45.23242" lon="5.60725">
        <ele>1011.200012207</ele>
        <time>2019-08-11T09:10:35.000Z</time>
      </trkpt>
      <trkpt lat="45.23247" lon="5.60723">
        <ele>1012.200012207</ele>
        <time>2019-08-11T09:10:38.000Z</time>
      </trkpt>
      <trkpt lat="45.23251" lon="5.60719">
        <ele>1012.799987793</ele>
        <time>2019-08-11T09:10:41.000Z</time>
      </trkpt>
      <trkpt lat="45.23256" lon="5.60716">
        <ele>1013.5999755859</ele>
        <time>2019-08-11T09:10:44.000Z</time>
      </trkpt>
      <trkpt lat="45.23261" lon="5.60711">
        <ele>1014.5999755859</ele>
        <time>2019-08-11T09:10:48.000Z</time>
      </trkpt>
      <trkpt lat="45.23262" lon="5.6071">
        <ele>1014.799987793</ele>
        <time>2019-08-11T09:10:49.000Z</time>
      </trkpt>
      <trkpt lat="45.23269" lon="5.60707">
        <ele>1015.799987793</ele>
        <time>2019-08-11T09:10:54.000Z</time>
      </trkpt>
      <trkpt lat="45.2327" lon="5.60706">
        <ele>1016</ele>
        <time>2019-08-11T09:10:55.000Z</time>
      </trkpt>
      <trkpt lat="45.23276" lon="5.60703">
        <ele>1017</ele>
        <time>2019-08-11T09:10:59.000Z</time>
      </trkpt>
      <trkpt lat="45.23277" lon="5.60702">
        <ele>1017.200012207</ele>
        <time>2019-08-11T09:11:00.000Z</time>
      </trkpt>
      <trkpt lat="45.23284" lon="5.60698">
        <ele>1018</ele>
        <time>2019-08-11T09:11:05.000Z</time>
      </trkpt>
      <trkpt lat="45.23286" lon="5.60698">
        <ele>1018.200012207</ele>
        <time>2019-08-11T09:11:06.000Z</time>
      </trkpt>
      <trkpt lat="45.23293" lon="5.60695">
        <ele>1019.200012207</ele>
        <time>2019-08-11T09:11:11.000Z</time>
      </trkpt>
      <trkpt lat="45.23301" lon="5.60693">
        <ele>1020</ele>
        <time>2019-08-11T09:11:16.000Z</time>
      </trkpt>
      <trkpt lat="45.23302" lon="5.60693">
        <ele>1020.200012207</ele>
        <time>2019-08-11T09:11:17.000Z</time>
      </trkpt>
      <trkpt lat="45.23309" lon="5.60687">
        <ele>1021.4000244141</ele>
        <time>2019-08-11T09:11:22.000Z</time>
      </trkpt>
      <trkpt lat="45.23311" lon="5.60686">
        <ele>1021.4000244141</ele>
        <time>2019-08-11T09:11:23.000Z</time>
      </trkpt>
      <trkpt lat="45.23318" lon="5.60682">
        <ele>1022.5999755859</ele>
        <time>2019-08-11T09:11:28.000Z</time>
      </trkpt>
      <trkpt lat="45.23326" lon="5.60678">
        <ele>1023.5999755859</ele>
        <time>2019-08-11T09:11:34.000Z</time>
      </trkpt>
      <trkpt lat="45.23334" lon="5.60674">
        <ele>1025</ele>
        <time>2019-08-11T09:11:40.000Z</time>
      </trkpt>
      <trkpt lat="45.23342" lon="5.60673">
        <ele>1026</ele>
        <time>2019-08-11T09:11:45.000Z</time>
      </trkpt>
      <trkpt lat="45.23345" lon="5.60672">
        <ele>1026.4000244141</ele>
        <time>2019-08-11T09:11:47.000Z</time>
      </trkpt>
      <trkpt lat="45.23351" lon="5.60671">
        <ele>1027</ele>
        <time>2019-08-11T09:11:51.000Z</time>
      </trkpt>
      <trkpt lat="45.23357" lon="5.60671">
        <ele>1028.1999511719</ele>
        <time>2019-08-11T09:11:55.000Z</time>
      </trkpt>
      <trkpt lat="45.23365" lon="5.60669">
        <ele>1029.1999511719</ele>
        <time>2019-08-11T09:12:00.000Z</time>
      </trkpt>
      <trkpt lat="45.23367" lon="5.60668">
        <ele>1029.5999755859</ele>
        <time>2019-08-11T09:12:01.000Z</time>
      </trkpt>
      <trkpt lat="45.23369" lon="5.60668">
        <ele>1029.8000488281</ele>
        <time>2019-08-11T09:12:03.000Z</time>
      </trkpt>
      <trkpt lat="45.23373" lon="5.60667">
        <ele>1030.4000244141</ele>
        <time>2019-08-11T09:12:06.000Z</time>
      </trkpt>
      <trkpt lat="45.23375" lon="5.60666">
        <ele>1030.8000488281</ele>
        <time>2019-08-11T09:12:07.000Z</time>
      </trkpt>
      <trkpt lat="45.23381" lon="5.60664">
        <ele>1031.5999755859</ele>
        <time>2019-08-11T09:12:11.000Z</time>
      </trkpt>
      <trkpt lat="45.23386" lon="5.60663">
        <ele>1032.4000244141</ele>
        <time>2019-08-11T09:12:14.000Z</time>
      </trkpt>
      <trkpt lat="45.23387" lon="5.60663">
        <ele>1032.5999755859</ele>
        <time>2019-08-11T09:12:15.000Z</time>
      </trkpt>
      <trkpt lat="45.23389" lon="5.60663">
        <ele>1033</ele>
        <time>2019-08-11T09:12:16.000Z</time>
      </trkpt>
      <trkpt lat="45.23394" lon="5.60662">
        <ele>1033.8000488281</ele>
        <time>2019-08-11T09:12:19.000Z</time>
      </trkpt>
      <trkpt lat="45.23403" lon="5.6066">
        <ele>1035.1999511719</ele>
        <time>2019-08-11T09:12:25.000Z</time>
      </trkpt>
      <trkpt lat="45.23405" lon="5.60659">
        <ele>1035.5999755859</ele>
        <time>2019-08-11T09:12:26.000Z</time>
      </trkpt>
      <trkpt lat="45.23411" lon="5.60658">
        <ele>1036.4000244141</ele>
        <time>2019-08-11T09:12:30.000Z</time>
      </trkpt>
      <trkpt lat="45.23416" lon="5.60656">
        <ele>1036.8000488281</ele>
        <time>2019-08-11T09:12:33.000Z</time>
      </trkpt>
      <trkpt lat="45.23422" lon="5.60654">
        <ele>1037.5999755859</ele>
        <time>2019-08-11T09:12:37.000Z</time>
      </trkpt>
      <trkpt lat="45.23425" lon="5.60652">
        <ele>1037.8000488281</ele>
        <time>2019-08-11T09:12:39.000Z</time>
      </trkpt>
      <trkpt lat="45.2343" lon="5.60649">
        <ele>1038.8000488281</ele>
        <time>2019-08-11T09:12:43.000Z</time>
      </trkpt>
      <trkpt lat="45.23431" lon="5.60648">
        <ele>1039</ele>
        <time>2019-08-11T09:12:44.000Z</time>
      </trkpt>
      <trkpt lat="45.23434" lon="5.60647">
        <ele>1039.5999755859</ele>
        <time>2019-08-11T09:12:46.000Z</time>
      </trkpt>
      <trkpt lat="45.23438" lon="5.60646">
        <ele>1040.1999511719</ele>
        <time>2019-08-11T09:12:49.000Z</time>
      </trkpt>
      <trkpt lat="45.23439" lon="5.60645">
        <ele>1040.1999511719</ele>
        <time>2019-08-11T09:12:50.000Z</time>
      </trkpt>
      <trkpt lat="45.23445" lon="5.60642">
        <ele>1041.1999511719</ele>
        <time>2019-08-11T09:12:54.000Z</time>
      </trkpt>
      <trkpt lat="45.2345" lon="5.60641">
        <ele>1041.5999755859</ele>
        <time>2019-08-11T09:12:57.000Z</time>
      </trkpt>
      <trkpt lat="45.23454" lon="5.60638">
        <ele>1042.1999511719</ele>
        <time>2019-08-11T09:13:00.000Z</time>
      </trkpt>
      <trkpt lat="45.2346" lon="5.60636">
        <ele>1043.1999511719</ele>
        <time>2019-08-11T09:13:04.000Z</time>
      </trkpt>
      <trkpt lat="45.23461" lon="5.60635">
        <ele>1043.1999511719</ele>
        <time>2019-08-11T09:13:05.000Z</time>
      </trkpt>
      <trkpt lat="45.23463" lon="5.60633">
        <ele>1043.5999755859</ele>
        <time>2019-08-11T09:13:07.000Z</time>
      </trkpt>
      <trkpt lat="45.23467" lon="5.60631">
        <ele>1044</ele>
        <time>2019-08-11T09:13:10.000Z</time>
      </trkpt>
      <trkpt lat="45.2347" lon="5.60628">
        <ele>1044.1999511719</ele>
        <time>2019-08-11T09:13:12.000Z</time>
      </trkpt>
      <trkpt lat="45.23473" lon="5.60626">
        <ele>1044.4000244141</ele>
        <time>2019-08-11T09:13:14.000Z</time>
      </trkpt>
      <trkpt lat="45.23477" lon="5.60622">
        <ele>1044.8000488281</ele>
        <time>2019-08-11T09:13:17.000Z</time>
      </trkpt>
      <trkpt lat="45.23482" lon="5.60617">
        <ele>1045.4000244141</ele>
        <time>2019-08-11T09:13:21.000Z</time>
      </trkpt>
      <trkpt lat="45.23483" lon="5.60615">
        <ele>1046</ele>
        <time>2019-08-11T09:13:22.000Z</time>
      </trkpt>
      <trkpt lat="45.23486" lon="5.60612">
        <ele>1046.4000244141</ele>
        <time>2019-08-11T09:13:24.000Z</time>
      </trkpt>
      <trkpt lat="45.23487" lon="5.6061">
        <ele>1046.8000488281</ele>
        <time>2019-08-11T09:13:25.000Z</time>
      </trkpt>
      <trkpt lat="45.2349" lon="5.60605">
        <ele>1047.4000244141</ele>
        <time>2019-08-11T09:13:28.000Z</time>
      </trkpt>
      <trkpt lat="45.23493" lon="5.606">
        <ele>1047.8000488281</ele>
        <time>2019-08-11T09:13:31.000Z</time>
      </trkpt>
      <trkpt lat="45.23498" lon="5.60594">
        <ele>1048.8000488281</ele>
        <time>2019-08-11T09:13:35.000Z</time>
      </trkpt>
      <trkpt lat="45.23502" lon="5.60588">
        <ele>1049.4000244141</ele>
        <time>2019-08-11T09:13:39.000Z</time>
      </trkpt>
      <trkpt lat="45.23504" lon="5.60587">
        <ele>1049.4000244141</ele>
        <time>2019-08-11T09:13:40.000Z</time>
      </trkpt>
      <trkpt lat="45.23507" lon="5.60581">
        <ele>1049.8000488281</ele>
        <time>2019-08-11T09:13:43.000Z</time>
      </trkpt>
      <trkpt lat="45.23509" lon="5.60578">
        <ele>1050.1999511719</ele>
        <time>2019-08-11T09:13:45.000Z</time>
      </trkpt>
      <trkpt lat="45.2351" lon="5.60576">
        <ele>1050.8000488281</ele>
        <time>2019-08-11T09:13:46.000Z</time>
      </trkpt>
      <trkpt lat="45.23514" lon="5.60571">
        <ele>1051.1999511719</ele>
        <time>2019-08-11T09:13:49.000Z</time>
      </trkpt>
      <trkpt lat="45.23515" lon="5.60569">
        <ele>1051.4000244141</ele>
        <time>2019-08-11T09:13:50.000Z</time>
      </trkpt>
      <trkpt lat="45.23517" lon="5.60565">
        <ele>1051.5999755859</ele>
        <time>2019-08-11T09:13:52.000Z</time>
      </trkpt>
      <trkpt lat="45.23521" lon="5.60559">
        <ele>1052.4000244141</ele>
        <time>2019-08-11T09:13:55.000Z</time>
      </trkpt>
      <trkpt lat="45.23523" lon="5.60558">
        <ele>1052.4000244141</ele>
        <time>2019-08-11T09:13:56.000Z</time>
      </trkpt>
      <trkpt lat="45.23527" lon="5.60551">
        <ele>1053.4000244141</ele>
        <time>2019-08-11T09:14:00.000Z</time>
      </trkpt>
      <trkpt lat="45.2353" lon="5.60547">
        <ele>1053.8000488281</ele>
        <time>2019-08-11T09:14:02.000Z</time>
      </trkpt>
      <trkpt lat="45.23534" lon="5.60541">
        <ele>1054.5999755859</ele>
        <time>2019-08-11T09:14:05.000Z</time>
      </trkpt>
      <trkpt lat="45.2354" lon="5.60533">
        <ele>1055.5999755859</ele>
        <time>2019-08-11T09:14:10.000Z</time>
      </trkpt>
      <trkpt lat="45.23549" lon="5.60523">
        <ele>1056.5999755859</ele>
        <time>2019-08-11T09:14:16.000Z</time>
      </trkpt>
      <trkpt lat="45.2355" lon="5.60522">
        <ele>1056.8000488281</ele>
        <time>2019-08-11T09:14:17.000Z</time>
      </trkpt>
      <trkpt lat="45.23554" lon="5.60516">
        <ele>1057.4000244141</ele>
        <time>2019-08-11T09:14:20.000Z</time>
      </trkpt>
      <trkpt lat="45.23556" lon="5.60513">
        <ele>1058</ele>
        <time>2019-08-11T09:14:22.000Z</time>
      </trkpt>
      <trkpt lat="45.23564" lon="5.60505">
        <ele>1058.8000488281</ele>
        <time>2019-08-11T09:14:27.000Z</time>
      </trkpt>
      <trkpt lat="45.23566" lon="5.60503">
        <ele>1059.1999511719</ele>
        <time>2019-08-11T09:14:29.000Z</time>
      </trkpt>
      <trkpt lat="45.23569" lon="5.605">
        <ele>1059.4000244141</ele>
        <time>2019-08-11T09:14:31.000Z</time>
      </trkpt>
      <trkpt lat="45.23571" lon="5.60497">
        <ele>1059.5999755859</ele>
        <time>2019-08-11T09:14:33.000Z</time>
      </trkpt>
      <trkpt lat="45.23577" lon="5.60491">
        <ele>1060.4000244141</ele>
        <time>2019-08-11T09:14:37.000Z</time>
      </trkpt>
      <trkpt lat="45.23578" lon="5.60489">
        <ele>1060.5999755859</ele>
        <time>2019-08-11T09:14:38.000Z</time>
      </trkpt>
      <trkpt lat="45.23583" lon="5.60484">
        <ele>1061.4000244141</ele>
        <time>2019-08-11T09:14:42.000Z</time>
      </trkpt>
      <trkpt lat="45.23586" lon="5.6048">
        <ele>1061.8000488281</ele>
        <time>2019-08-11T09:14:44.000Z</time>
      </trkpt>
      <trkpt lat="45.23591" lon="5.60472">
        <ele>1063</ele>
        <time>2019-08-11T09:14:48.000Z</time>
      </trkpt>
      <trkpt lat="45.23592" lon="5.6047">
        <ele>1063.1999511719</ele>
        <time>2019-08-11T09:14:49.000Z</time>
      </trkpt>
      <trkpt lat="45.23596" lon="5.60462">
        <ele>1064</ele>
        <time>2019-08-11T09:14:53.000Z</time>
      </trkpt>
      <trkpt lat="45.23597" lon="5.6046">
        <ele>1064.1999511719</ele>
        <time>2019-08-11T09:14:54.000Z</time>
      </trkpt>
      <trkpt lat="45.23602" lon="5.60451">
        <ele>1065.1999511719</ele>
        <time>2019-08-11T09:14:59.000Z</time>
      </trkpt>
      <trkpt lat="45.23607" lon="5.6044">
        <ele>1066.1999511719</ele>
        <time>2019-08-11T09:15:04.000Z</time>
      </trkpt>
      <trkpt lat="45.23609" lon="5.60438">
        <ele>1066.1999511719</ele>
        <time>2019-08-11T09:15:05.000Z</time>
      </trkpt>
      <trkpt lat="45.23615" lon="5.60429">
        <ele>1067.1999511719</ele>
        <time>2019-08-11T09:15:10.000Z</time>
      </trkpt>
      <trkpt lat="45.23616" lon="5.60428">
        <ele>1067.5999755859</ele>
        <time>2019-08-11T09:15:11.000Z</time>
      </trkpt>
      <trkpt lat="45.2362" lon="5.60423">
        <ele>1068.4000244141</ele>
        <time>2019-08-11T09:15:14.000Z</time>
      </trkpt>
      <trkpt lat="45.23621" lon="5.60421">
        <ele>1068.5999755859</ele>
        <time>2019-08-11T09:15:15.000Z</time>
      </trkpt>
      <trkpt lat="45.23622" lon="5.60419">
        <ele>1068.8000488281</ele>
        <time>2019-08-11T09:15:16.000Z</time>
      </trkpt>
      <trkpt lat="45.23625" lon="5.60414">
        <ele>1069.1999511719</ele>
        <time>2019-08-11T09:15:19.000Z</time>
      </trkpt>
      <trkpt lat="45.23626" lon="5.60413">
        <ele>1069.5999755859</ele>
        <time>2019-08-11T09:15:20.000Z</time>
      </trkpt>
      <trkpt lat="45.23629" lon="5.6041">
        <ele>1070</ele>
        <time>2019-08-11T09:15:22.000Z</time>
      </trkpt>
      <trkpt lat="45.2363" lon="5.60408">
        <ele>1070.1999511719</ele>
        <time>2019-08-11T09:15:23.000Z</time>
      </trkpt>
      <trkpt lat="45.23633" lon="5.60405">
        <ele>1070.8000488281</ele>
        <time>2019-08-11T09:15:25.000Z</time>
      </trkpt>
      <trkpt lat="45.23638" lon="5.60398">
        <ele>1071.5999755859</ele>
        <time>2019-08-11T09:15:30.000Z</time>
      </trkpt>
      <trkpt lat="45.23638" lon="5.60396">
        <ele>1071.8000488281</ele>
        <time>2019-08-11T09:15:31.000Z</time>
      </trkpt>
      <trkpt lat="45.23644" lon="5.60386">
        <ele>1073</ele>
        <time>2019-08-11T09:15:37.000Z</time>
      </trkpt>
      <trkpt lat="45.23645" lon="5.60384">
        <ele>1073.1999511719</ele>
        <time>2019-08-11T09:15:38.000Z</time>
      </trkpt>
      <trkpt lat="45.2365" lon="5.60376">
        <ele>1074.1999511719</ele>
        <time>2019-08-11T09:15:43.000Z</time>
      </trkpt>
      <trkpt lat="45.23652" lon="5.60374">
        <ele>1074.1999511719</ele>
        <time>2019-08-11T09:15:44.000Z</time>
      </trkpt>
      <trkpt lat="45.23654" lon="5.60371">
        <ele>1074.5999755859</ele>
        <time>2019-08-11T09:15:46.000Z</time>
      </trkpt>
      <trkpt lat="45.23658" lon="5.60367">
        <ele>1075</ele>
        <time>2019-08-11T09:15:49.000Z</time>
      </trkpt>
      <trkpt lat="45.23659" lon="5.60365">
        <ele>1075.1999511719</ele>
        <time>2019-08-11T09:15:50.000Z</time>
      </trkpt>
      <trkpt lat="45.23666" lon="5.60358">
        <ele>1076.1999511719</ele>
        <time>2019-08-11T09:15:55.000Z</time>
      </trkpt>
      <trkpt lat="45.2367" lon="5.60351">
        <ele>1077.1999511719</ele>
        <time>2019-08-11T09:15:59.000Z</time>
      </trkpt>
      <trkpt lat="45.23672" lon="5.60348">
        <ele>1078</ele>
        <time>2019-08-11T09:16:01.000Z</time>
      </trkpt>
      <trkpt lat="45.23676" lon="5.60342">
        <ele>1078.4000244141</ele>
        <time>2019-08-11T09:16:05.000Z</time>
      </trkpt>
      <trkpt lat="45.23681" lon="5.60337">
        <ele>1079.5999755859</ele>
        <time>2019-08-11T09:16:09.000Z</time>
      </trkpt>
      <trkpt lat="45.23682" lon="5.60336">
        <ele>1079.8000488281</ele>
        <time>2019-08-11T09:16:10.000Z</time>
      </trkpt>
      <trkpt lat="45.23686" lon="5.6033">
        <ele>1080.8000488281</ele>
        <time>2019-08-11T09:16:14.000Z</time>
      </trkpt>
      <trkpt lat="45.23688" lon="5.60327">
        <ele>1081</ele>
        <time>2019-08-11T09:16:16.000Z</time>
      </trkpt>
      <trkpt lat="45.23692" lon="5.60321">
        <ele>1082</ele>
        <time>2019-08-11T09:16:20.000Z</time>
      </trkpt>
      <trkpt lat="45.23696" lon="5.60316">
        <ele>1082.5999755859</ele>
        <time>2019-08-11T09:16:23.000Z</time>
      </trkpt>
      <trkpt lat="45.23699" lon="5.60309">
        <ele>1083</ele>
        <time>2019-08-11T09:16:27.000Z</time>
      </trkpt>
      <trkpt lat="45.23702" lon="5.60307">
        <ele>1083.5999755859</ele>
        <time>2019-08-11T09:16:29.000Z</time>
      </trkpt>
      <trkpt lat="45.23705" lon="5.60305">
        <ele>1084.1999511719</ele>
        <time>2019-08-11T09:16:31.000Z</time>
      </trkpt>
      <trkpt lat="45.23712" lon="5.60299">
        <ele>1084.8000488281</ele>
        <time>2019-08-11T09:16:36.000Z</time>
      </trkpt>
      <trkpt lat="45.23717" lon="5.60296">
        <ele>1085.4000244141</ele>
        <time>2019-08-11T09:16:39.000Z</time>
      </trkpt>
      <trkpt lat="45.23722" lon="5.60292">
        <ele>1086</ele>
        <time>2019-08-11T09:16:43.000Z</time>
      </trkpt>
      <trkpt lat="45.23726" lon="5.6029">
        <ele>1086.4000244141</ele>
        <time>2019-08-11T09:16:45.000Z</time>
      </trkpt>
      <trkpt lat="45.23734" lon="5.60283">
        <ele>1087.5999755859</ele>
        <time>2019-08-11T09:16:51.000Z</time>
      </trkpt>
      <trkpt lat="45.23735" lon="5.60283">
        <ele>1087.5999755859</ele>
        <time>2019-08-11T09:16:52.000Z</time>
      </trkpt>
      <trkpt lat="45.23743" lon="5.60275">
        <ele>1088.5999755859</ele>
        <time>2019-08-11T09:16:58.000Z</time>
      </trkpt>
      <trkpt lat="45.23747" lon="5.60273">
        <ele>1089</ele>
        <time>2019-08-11T09:17:00.000Z</time>
      </trkpt>
      <trkpt lat="45.23752" lon="5.60272">
        <ele>1089.4000244141</ele>
        <time>2019-08-11T09:17:03.000Z</time>
      </trkpt>
      <trkpt lat="45.23758" lon="5.60272">
        <ele>1089.8000488281</ele>
        <time>2019-08-11T09:17:07.000Z</time>
      </trkpt>
      <trkpt lat="45.23761" lon="5.60272">
        <ele>1090.1999511719</ele>
        <time>2019-08-11T09:17:09.000Z</time>
      </trkpt>
      <trkpt lat="45.23764" lon="5.60271">
        <ele>1090.8000488281</ele>
        <time>2019-08-11T09:17:11.000Z</time>
      </trkpt>
      <trkpt lat="45.2377" lon="5.6027">
        <ele>1091.5999755859</ele>
        <time>2019-08-11T09:17:15.000Z</time>
      </trkpt>
      <trkpt lat="45.23772" lon="5.60271">
        <ele>1092</ele>
        <time>2019-08-11T09:17:17.000Z</time>
      </trkpt>
      <trkpt lat="45.23779" lon="5.60274">
        <ele>1092.8000488281</ele>
        <time>2019-08-11T09:17:21.000Z</time>
      </trkpt>
      <trkpt lat="45.2378" lon="5.60275">
        <ele>1092.8000488281</ele>
        <time>2019-08-11T09:17:22.000Z</time>
      </trkpt>
      <trkpt lat="45.2379" lon="5.60278">
        <ele>1093.5999755859</ele>
        <time>2019-08-11T09:17:27.000Z</time>
      </trkpt>
      <trkpt lat="45.23792" lon="5.60279">
        <ele>1093.8000488281</ele>
        <time>2019-08-11T09:17:28.000Z</time>
      </trkpt>
      <trkpt lat="45.23801" lon="5.6028">
        <ele>1094.4000244141</ele>
        <time>2019-08-11T09:17:33.000Z</time>
      </trkpt>
      <trkpt lat="45.23805" lon="5.6028">
        <ele>1094.8000488281</ele>
        <time>2019-08-11T09:17:35.000Z</time>
      </trkpt>
      <trkpt lat="45.23812" lon="5.60284">
        <ele>1095.1999511719</ele>
        <time>2019-08-11T09:17:39.000Z</time>
      </trkpt>
      <trkpt lat="45.23823" lon="5.6029">
        <ele>1095.8000488281</ele>
        <time>2019-08-11T09:17:44.000Z</time>
      </trkpt>
      <trkpt lat="45.23825" lon="5.60292">
        <ele>1096</ele>
        <time>2019-08-11T09:17:45.000Z</time>
      </trkpt>
      <trkpt lat="45.2383" lon="5.60296">
        <ele>1096.4000244141</ele>
        <time>2019-08-11T09:17:48.000Z</time>
      </trkpt>
      <trkpt lat="45.23834" lon="5.60298">
        <ele>1097</ele>
        <time>2019-08-11T09:17:50.000Z</time>
      </trkpt>
      <trkpt lat="45.23835" lon="5.60299">
        <ele>1097.1999511719</ele>
        <time>2019-08-11T09:17:51.000Z</time>
      </trkpt>
      <trkpt lat="45.23844" lon="5.60301">
        <ele>1097.8000488281</ele>
        <time>2019-08-11T09:17:56.000Z</time>
      </trkpt>
      <trkpt lat="45.23846" lon="5.603">
        <ele>1098</ele>
        <time>2019-08-11T09:17:57.000Z</time>
      </trkpt>
      <trkpt lat="45.23849" lon="5.60294">
        <ele>1099</ele>
        <time>2019-08-11T09:18:01.000Z</time>
      </trkpt>
      <trkpt lat="45.23847" lon="5.60291">
        <ele>1099.1999511719</ele>
        <time>2019-08-11T09:18:03.000Z</time>
      </trkpt>
      <trkpt lat="45.23844" lon="5.60287">
        <ele>1099.1999511719</ele>
        <time>2019-08-11T09:18:05.000Z</time>
      </trkpt>
      <trkpt lat="45.23843" lon="5.60285">
        <ele>1099.4000244141</ele>
        <time>2019-08-11T09:18:06.000Z</time>
      </trkpt>
      <trkpt lat="45.23835" lon="5.60277">
        <ele>1099.5999755859</ele>
        <time>2019-08-11T09:18:10.000Z</time>
      </trkpt>
      <trkpt lat="45.23829" lon="5.6027">
        <ele>1100</ele>
        <time>2019-08-11T09:18:13.000Z</time>
      </trkpt>
      <trkpt lat="45.23823" lon="5.60264">
        <ele>1100.5999755859</ele>
        <time>2019-08-11T09:18:16.000Z</time>
      </trkpt>
      <trkpt lat="45.23815" lon="5.6026">
        <ele>1101.1999511719</ele>
        <time>2019-08-11T09:18:20.000Z</time>
      </trkpt>
      <trkpt lat="45.23813" lon="5.60259">
        <ele>1101.1999511719</ele>
        <time>2019-08-11T09:18:21.000Z</time>
      </trkpt>
      <trkpt lat="45.23808" lon="5.60256">
        <ele>1101.8000488281</ele>
        <time>2019-08-11T09:18:24.000Z</time>
      </trkpt>
      <trkpt lat="45.23803" lon="5.60252">
        <ele>1102.1999511719</ele>
        <time>2019-08-11T09:18:27.000Z</time>
      </trkpt>
      <trkpt lat="45.23793" lon="5.60249">
        <ele>1102.5999755859</ele>
        <time>2019-08-11T09:18:32.000Z</time>
      </trkpt>
      <trkpt lat="45.23791" lon="5.60249">
        <ele>1102.5999755859</ele>
        <time>2019-08-11T09:18:33.000Z</time>
      </trkpt>
      <trkpt lat="45.23781" lon="5.60247">
        <ele>1102.8000488281</ele>
        <time>2019-08-11T09:18:38.000Z</time>
      </trkpt>
      <trkpt lat="45.23775" lon="5.60245">
        <ele>1103</ele>
        <time>2019-08-11T09:18:41.000Z</time>
      </trkpt>
      <trkpt lat="45.23773" lon="5.60245">
        <ele>1103.1999511719</ele>
        <time>2019-08-11T09:18:42.000Z</time>
      </trkpt>
      <trkpt lat="45.23766" lon="5.60245">
        <ele>1103.4000244141</ele>
        <time>2019-08-11T09:18:45.000Z</time>
      </trkpt>
      <trkpt lat="45.23755" lon="5.60244">
        <ele>1104.1999511719</ele>
        <time>2019-08-11T09:18:50.000Z</time>
      </trkpt>
      <trkpt lat="45.23748" lon="5.60243">
        <ele>1105.1999511719</ele>
        <time>2019-08-11T09:18:54.000Z</time>
      </trkpt>
      <trkpt lat="45.23743" lon="5.60243">
        <ele>1105.8000488281</ele>
        <time>2019-08-11T09:18:56.000Z</time>
      </trkpt>
      <trkpt lat="45.23734" lon="5.60244">
        <ele>1106.4000244141</ele>
        <time>2019-08-11T09:19:00.000Z</time>
      </trkpt>
      <trkpt lat="45.23729" lon="5.60244">
        <ele>1107.4000244141</ele>
        <time>2019-08-11T09:19:03.000Z</time>
      </trkpt>
      <trkpt lat="45.23727" lon="5.60245">
        <ele>1107.8000488281</ele>
        <time>2019-08-11T09:19:04.000Z</time>
      </trkpt>
      <trkpt lat="45.23721" lon="5.60244">
        <ele>1108.4000244141</ele>
        <time>2019-08-11T09:19:08.000Z</time>
      </trkpt>
      <trkpt lat="45.23717" lon="5.60244">
        <ele>1108.8000488281</ele>
        <time>2019-08-11T09:19:11.000Z</time>
      </trkpt>
      <trkpt lat="45.23713" lon="5.60244">
        <ele>1109.5999755859</ele>
        <time>2019-08-11T09:19:14.000Z</time>
      </trkpt>
      <trkpt lat="45.2371" lon="5.60245">
        <ele>1109.8000488281</ele>
        <time>2019-08-11T09:19:15.000Z</time>
      </trkpt>
      <trkpt lat="45.23701" lon="5.60245">
        <ele>1111</ele>
        <time>2019-08-11T09:19:20.000Z</time>
      </trkpt>
      <trkpt lat="45.23692" lon="5.60246">
        <ele>1112.1999511719</ele>
        <time>2019-08-11T09:19:25.000Z</time>
      </trkpt>
      <trkpt lat="45.2369" lon="5.60246">
        <ele>1112.5999755859</ele>
        <time>2019-08-11T09:19:26.000Z</time>
      </trkpt>
      <trkpt lat="45.23681" lon="5.60247">
        <ele>1113.5999755859</ele>
        <time>2019-08-11T09:19:31.000Z</time>
      </trkpt>
      <trkpt lat="45.23678" lon="5.60249">
        <ele>1114.1999511719</ele>
        <time>2019-08-11T09:19:33.000Z</time>
      </trkpt>
      <trkpt lat="45.23675" lon="5.60249">
        <ele>1114.5999755859</ele>
        <time>2019-08-11T09:19:35.000Z</time>
      </trkpt>
      <trkpt lat="45.23672" lon="5.6025">
        <ele>1115</ele>
        <time>2019-08-11T09:19:37.000Z</time>
      </trkpt>
      <trkpt lat="45.23665" lon="5.60253">
        <ele>1115.5999755859</ele>
        <time>2019-08-11T09:19:41.000Z</time>
      </trkpt>
      <trkpt lat="45.23659" lon="5.60254">
        <ele>1116</ele>
        <time>2019-08-11T09:19:44.000Z</time>
      </trkpt>
      <trkpt lat="45.23653" lon="5.60255">
        <ele>1116.5999755859</ele>
        <time>2019-08-11T09:19:48.000Z</time>
      </trkpt>
      <trkpt lat="45.2365" lon="5.60256">
        <ele>1117.4000244141</ele>
        <time>2019-08-11T09:19:50.000Z</time>
      </trkpt>
      <trkpt lat="45.23649" lon="5.60256">
        <ele>1117.5999755859</ele>
        <time>2019-08-11T09:19:51.000Z</time>
      </trkpt>
      <trkpt lat="45.23642" lon="5.60257">
        <ele>1118.4000244141</ele>
        <time>2019-08-11T09:19:55.000Z</time>
      </trkpt>
      <trkpt lat="45.23638" lon="5.60259">
        <ele>1118.8000488281</ele>
        <time>2019-08-11T09:19:57.000Z</time>
      </trkpt>
      <trkpt lat="45.2363" lon="5.60262">
        <ele>1119.4000244141</ele>
        <time>2019-08-11T09:20:02.000Z</time>
      </trkpt>
      <trkpt lat="45.23624" lon="5.60266">
        <ele>1119.8000488281</ele>
        <time>2019-08-11T09:20:06.000Z</time>
      </trkpt>
      <trkpt lat="45.23623" lon="5.60267">
        <ele>1120</ele>
        <time>2019-08-11T09:20:07.000Z</time>
      </trkpt>
      <trkpt lat="45.23618" lon="5.60271">
        <ele>1120.1999511719</ele>
        <time>2019-08-11T09:20:10.000Z</time>
      </trkpt>
      <trkpt lat="45.23612" lon="5.60274">
        <ele>1120.5999755859</ele>
        <time>2019-08-11T09:20:13.000Z</time>
      </trkpt>
      <trkpt lat="45.236" lon="5.60287">
        <ele>1120.4000244141</ele>
        <time>2019-08-11T09:20:19.000Z</time>
      </trkpt>
      <trkpt lat="45.23597" lon="5.60292">
        <ele>1120.5999755859</ele>
        <time>2019-08-11T09:20:21.000Z</time>
      </trkpt>
      <trkpt lat="45.23592" lon="5.60298">
        <ele>1121</ele>
        <time>2019-08-11T09:20:25.000Z</time>
      </trkpt>
      <trkpt lat="45.23588" lon="5.60303">
        <ele>1121.8000488281</ele>
        <time>2019-08-11T09:20:29.000Z</time>
      </trkpt>
      <trkpt lat="45.23586" lon="5.60305">
        <ele>1122</ele>
        <time>2019-08-11T09:20:30.000Z</time>
      </trkpt>
      <trkpt lat="45.2358" lon="5.6031">
        <ele>1123</ele>
        <time>2019-08-11T09:20:34.000Z</time>
      </trkpt>
      <trkpt lat="45.23576" lon="5.60315">
        <ele>1123.8000488281</ele>
        <time>2019-08-11T09:20:37.000Z</time>
      </trkpt>
      <trkpt lat="45.23574" lon="5.60317">
        <ele>1124.1999511719</ele>
        <time>2019-08-11T09:20:39.000Z</time>
      </trkpt>
      <trkpt lat="45.23569" lon="5.6032">
        <ele>1124.8000488281</ele>
        <time>2019-08-11T09:20:42.000Z</time>
      </trkpt>
      <trkpt lat="45.23566" lon="5.60322">
        <ele>1125.1999511719</ele>
        <time>2019-08-11T09:20:44.000Z</time>
      </trkpt>
      <trkpt lat="45.23557" lon="5.60327">
        <ele>1126.1999511719</ele>
        <time>2019-08-11T09:20:50.000Z</time>
      </trkpt>
      <trkpt lat="45.23548" lon="5.60335">
        <ele>1126.8000488281</ele>
        <time>2019-08-11T09:20:56.000Z</time>
      </trkpt>
      <trkpt lat="45.23545" lon="5.60337">
        <ele>1127.1999511719</ele>
        <time>2019-08-11T09:20:58.000Z</time>
      </trkpt>
      <trkpt lat="45.23539" lon="5.60344">
        <ele>1128.1999511719</ele>
        <time>2019-08-11T09:21:02.000Z</time>
      </trkpt>
      <trkpt lat="45.23538" lon="5.60345">
        <ele>1128.4000244141</ele>
        <time>2019-08-11T09:21:03.000Z</time>
      </trkpt>
      <trkpt lat="45.23534" lon="5.6035">
        <ele>1128.8000488281</ele>
        <time>2019-08-11T09:21:06.000Z</time>
      </trkpt>
      <trkpt lat="45.23533" lon="5.60351">
        <ele>1128.8000488281</ele>
        <time>2019-08-11T09:21:07.000Z</time>
      </trkpt>
      <trkpt lat="45.23529" lon="5.60352">
        <ele>1129.5999755859</ele>
        <time>2019-08-11T09:21:09.000Z</time>
      </trkpt>
      <trkpt lat="45.23526" lon="5.60355">
        <ele>1130</ele>
        <time>2019-08-11T09:21:11.000Z</time>
      </trkpt>
      <trkpt lat="45.23522" lon="5.60358">
        <ele>1130.5999755859</ele>
        <time>2019-08-11T09:21:14.000Z</time>
      </trkpt>
      <trkpt lat="45.23519" lon="5.60361">
        <ele>1131</ele>
        <time>2019-08-11T09:21:16.000Z</time>
      </trkpt>
      <trkpt lat="45.23509" lon="5.60369">
        <ele>1131.8000488281</ele>
        <time>2019-08-11T09:21:22.000Z</time>
      </trkpt>
      <trkpt lat="45.23508" lon="5.6037">
        <ele>1131.8000488281</ele>
        <time>2019-08-11T09:21:23.000Z</time>
      </trkpt>
      <trkpt lat="45.235" lon="5.60375">
        <ele>1132.5999755859</ele>
        <time>2019-08-11T09:21:28.000Z</time>
      </trkpt>
      <trkpt lat="45.23499" lon="5.60376">
        <ele>1133</ele>
        <time>2019-08-11T09:21:29.000Z</time>
      </trkpt>
      <trkpt lat="45.23494" lon="5.60379">
        <ele>1133.8000488281</ele>
        <time>2019-08-11T09:21:32.000Z</time>
      </trkpt>
      <trkpt lat="45.23489" lon="5.60381">
        <ele>1134.1999511719</ele>
        <time>2019-08-11T09:21:35.000Z</time>
      </trkpt>
      <trkpt lat="45.23485" lon="5.60383">
        <ele>1134.8000488281</ele>
        <time>2019-08-11T09:21:38.000Z</time>
      </trkpt>
      <trkpt lat="45.23481" lon="5.60385">
        <ele>1135.4000244141</ele>
        <time>2019-08-11T09:21:41.000Z</time>
      </trkpt>
      <trkpt lat="45.23477" lon="5.60387">
        <ele>1136</ele>
        <time>2019-08-11T09:21:43.000Z</time>
      </trkpt>
      <trkpt lat="45.23467" lon="5.60393">
        <ele>1136.4000244141</ele>
        <time>2019-08-11T09:21:49.000Z</time>
      </trkpt>
      <trkpt lat="45.23456" lon="5.60398">
        <ele>1137</ele>
        <time>2019-08-11T09:21:55.000Z</time>
      </trkpt>
      <trkpt lat="45.2344" lon="5.60405">
        <ele>1137.4000244141</ele>
        <time>2019-08-11T09:22:03.000Z</time>
      </trkpt>
      <trkpt lat="45.23427" lon="5.60409">
        <ele>1137.5999755859</ele>
        <time>2019-08-11T09:22:09.000Z</time>
      </trkpt>
      <trkpt lat="45.23423" lon="5.60411">
        <ele>1138</ele>
        <time>2019-08-11T09:22:11.000Z</time>
      </trkpt>
      <trkpt lat="45.23415" lon="5.60417">
        <ele>1138.1999511719</ele>
        <time>2019-08-11T09:22:15.000Z</time>
      </trkpt>
      <trkpt lat="45.23408" lon="5.60419">
        <ele>1138.8000488281</ele>
        <time>2019-08-11T09:22:19.000Z</time>
      </trkpt>
      <trkpt lat="45.23405" lon="5.60419">
        <ele>1139.1999511719</ele>
        <time>2019-08-11T09:22:21.000Z</time>
      </trkpt>
      <trkpt lat="45.23402" lon="5.6042">
        <ele>1139.8000488281</ele>
        <time>2019-08-11T09:22:23.000Z</time>
      </trkpt>
      <trkpt lat="45.23395" lon="5.60422">
        <ele>1141</ele>
        <time>2019-08-11T09:22:27.000Z</time>
      </trkpt>
      <trkpt lat="45.23392" lon="5.60422">
        <ele>1141.4000244141</ele>
        <time>2019-08-11T09:22:29.000Z</time>
      </trkpt>
      <trkpt lat="45.23389" lon="5.60423">
        <ele>1142</ele>
        <time>2019-08-11T09:22:31.000Z</time>
      </trkpt>
      <trkpt lat="45.2338" lon="5.60423">
        <ele>1143</ele>
        <time>2019-08-11T09:22:37.000Z</time>
      </trkpt>
      <trkpt lat="45.23378" lon="5.60423">
        <ele>1143</ele>
        <time>2019-08-11T09:22:38.000Z</time>
      </trkpt>
      <trkpt lat="45.23374" lon="5.60423">
        <ele>1143.5999755859</ele>
        <time>2019-08-11T09:22:41.000Z</time>
      </trkpt>
      <trkpt lat="45.23372" lon="5.60424">
        <ele>1143.5999755859</ele>
        <time>2019-08-11T09:22:42.000Z</time>
      </trkpt>
      <trkpt lat="45.23371" lon="5.60425">
        <ele>1144.1999511719</ele>
        <time>2019-08-11T09:22:43.000Z</time>
      </trkpt>
      <trkpt lat="45.23368" lon="5.60425">
        <ele>1144.8000488281</ele>
        <time>2019-08-11T09:22:45.000Z</time>
      </trkpt>
      <trkpt lat="45.23364" lon="5.60426">
        <ele>1145.1999511719</ele>
        <time>2019-08-11T09:22:48.000Z</time>
      </trkpt>
      <trkpt lat="45.23363" lon="5.60426">
        <ele>1145.4000244141</ele>
        <time>2019-08-11T09:22:49.000Z</time>
      </trkpt>
      <trkpt lat="45.23358" lon="5.60426">
        <ele>1146.1999511719</ele>
        <time>2019-08-11T09:22:53.000Z</time>
      </trkpt>
      <trkpt lat="45.23353" lon="5.60425">
        <ele>1147</ele>
        <time>2019-08-11T09:22:56.000Z</time>
      </trkpt>
      <trkpt lat="45.23349" lon="5.60424">
        <ele>1147.1999511719</ele>
        <time>2019-08-11T09:22:59.000Z</time>
      </trkpt>
      <trkpt lat="45.23343" lon="5.60425">
        <ele>1147.8000488281</ele>
        <time>2019-08-11T09:23:03.000Z</time>
      </trkpt>
      <trkpt lat="45.23337" lon="5.60426">
        <ele>1148.1999511719</ele>
        <time>2019-08-11T09:23:06.000Z</time>
      </trkpt>
      <trkpt lat="45.23327" lon="5.60425">
        <ele>1149.4000244141</ele>
        <time>2019-08-11T09:23:12.000Z</time>
      </trkpt>
      <trkpt lat="45.23322" lon="5.60424">
        <ele>1150</ele>
        <time>2019-08-11T09:23:15.000Z</time>
      </trkpt>
      <trkpt lat="45.23319" lon="5.60424">
        <ele>1150.4000244141</ele>
        <time>2019-08-11T09:23:17.000Z</time>
      </trkpt>
      <trkpt lat="45.23313" lon="5.60423">
        <ele>1151.4000244141</ele>
        <time>2019-08-11T09:23:21.000Z</time>
      </trkpt>
      <trkpt lat="45.23308" lon="5.60422">
        <ele>1151.8000488281</ele>
        <time>2019-08-11T09:23:24.000Z</time>
      </trkpt>
      <trkpt lat="45.23301" lon="5.6042">
        <ele>1152.5999755859</ele>
        <time>2019-08-11T09:23:28.000Z</time>
      </trkpt>
      <trkpt lat="45.23297" lon="5.60416">
        <ele>1153</ele>
        <time>2019-08-11T09:23:31.000Z</time>
      </trkpt>
      <trkpt lat="45.23294" lon="5.60412">
        <ele>1153.5999755859</ele>
        <time>2019-08-11T09:23:33.000Z</time>
      </trkpt>
      <trkpt lat="45.23293" lon="5.60411">
        <ele>1154</ele>
        <time>2019-08-11T09:23:34.000Z</time>
      </trkpt>
      <trkpt lat="45.23291" lon="5.6041">
        <ele>1154.4000244141</ele>
        <time>2019-08-11T09:23:37.000Z</time>
      </trkpt>
      <trkpt lat="45.23291" lon="5.60409">
        <ele>1154.4000244141</ele>
        <time>2019-08-11T09:23:46.000Z</time>
      </trkpt>
      <trkpt lat="45.23291" lon="5.60408">
        <ele>1153.4000244141</ele>
        <time>2019-08-11T09:23:55.000Z</time>
      </trkpt>
      <trkpt lat="45.23291" lon="5.60407">
        <ele>1153.5999755859</ele>
        <time>2019-08-11T09:24:10.000Z</time>
      </trkpt>
      <trkpt lat="45.23291" lon="5.60407">
        <ele>1153.5999755859</ele>
        <time>2019-08-11T09:24:20.000Z</time>
      </trkpt>
      <trkpt lat="45.2329" lon="5.60408">
        <ele>1153.1999511719</ele>
        <time>2019-08-11T09:24:34.000Z</time>
      </trkpt>
      <trkpt lat="45.23291" lon="5.60407">
        <ele>1153.8000488281</ele>
        <time>2019-08-11T09:24:46.000Z</time>
      </trkpt>
      <trkpt lat="45.23292" lon="5.60402">
        <ele>1154.1999511719</ele>
        <time>2019-08-11T09:24:50.000Z</time>
      </trkpt>
      <trkpt lat="45.23294" lon="5.60401">
        <ele>1154.1999511719</ele>
        <time>2019-08-11T09:24:51.000Z</time>
      </trkpt>
      <trkpt lat="45.23299" lon="5.604">
        <ele>1154.4000244141</ele>
        <time>2019-08-11T09:24:54.000Z</time>
      </trkpt>
      <trkpt lat="45.23301" lon="5.604">
        <ele>1154.8000488281</ele>
        <time>2019-08-11T09:24:55.000Z</time>
      </trkpt>
      <trkpt lat="45.23304" lon="5.604">
        <ele>1155.1999511719</ele>
        <time>2019-08-11T09:24:57.000Z</time>
      </trkpt>
      <trkpt lat="45.23308" lon="5.60399">
        <ele>1155.8000488281</ele>
        <time>2019-08-11T09:24:59.000Z</time>
      </trkpt>
      <trkpt lat="45.23316" lon="5.60399">
        <ele>1156.8000488281</ele>
        <time>2019-08-11T09:25:03.000Z</time>
      </trkpt>
      <trkpt lat="45.23318" lon="5.60399">
        <ele>1157</ele>
        <time>2019-08-11T09:25:04.000Z</time>
      </trkpt>
      <trkpt lat="45.23326" lon="5.60397">
        <ele>1157.8000488281</ele>
        <time>2019-08-11T09:25:09.000Z</time>
      </trkpt>
      <trkpt lat="45.2333" lon="5.60396">
        <ele>1158</ele>
        <time>2019-08-11T09:25:11.000Z</time>
      </trkpt>
      <trkpt lat="45.23338" lon="5.60392">
        <ele>1158.4000244141</ele>
        <time>2019-08-11T09:25:15.000Z</time>
      </trkpt>
      <trkpt lat="45.23352" lon="5.60389">
        <ele>1159</ele>
        <time>2019-08-11T09:25:22.000Z</time>
      </trkpt>
      <trkpt lat="45.23355" lon="5.60388">
        <ele>1159</ele>
        <time>2019-08-11T09:25:23.000Z</time>
      </trkpt>
      <trkpt lat="45.23368" lon="5.60384">
        <ele>1160</ele>
        <time>2019-08-11T09:25:30.000Z</time>
      </trkpt>
      <trkpt lat="45.2337" lon="5.60383">
        <ele>1160.1999511719</ele>
        <time>2019-08-11T09:25:32.000Z</time>
      </trkpt>
      <trkpt lat="45.23369" lon="5.60384">
        <ele>1160.1999511719</ele>
        <time>2019-08-11T09:25:35.000Z</time>
      </trkpt>
      <trkpt lat="45.2337" lon="5.60384">
        <ele>1160.1999511719</ele>
        <time>2019-08-11T09:25:36.000Z</time>
      </trkpt>
      <trkpt lat="45.2337" lon="5.60383">
        <ele>1160.1999511719</ele>
        <time>2019-08-11T09:25:48.000Z</time>
      </trkpt>
      <trkpt lat="45.2337" lon="5.60383">
        <ele>1160.4000244141</ele>
        <time>2019-08-11T09:26:05.000Z</time>
      </trkpt>
      <trkpt lat="45.2337" lon="5.60383">
        <ele>1160.4000244141</ele>
        <time>2019-08-11T09:26:29.000Z</time>
      </trkpt>
      <trkpt lat="45.2337" lon="5.60383">
        <ele>1160.4000244141</ele>
        <time>2019-08-11T09:26:56.000Z</time>
      </trkpt>
      <trkpt lat="45.2337" lon="5.60382">
        <ele>1160.5999755859</ele>
        <time>2019-08-11T09:27:26.000Z</time>
      </trkpt>
      <trkpt lat="45.2337" lon="5.60381">
        <ele>1160.4000244141</ele>
        <time>2019-08-11T09:27:56.000Z</time>
      </trkpt>
      <trkpt lat="45.23371" lon="5.60382">
        <ele>1160.4000244141</ele>
        <time>2019-08-11T09:28:07.000Z</time>
      </trkpt>
      <trkpt lat="45.23371" lon="5.60382">
        <ele>1161</ele>
        <time>2019-08-11T09:28:30.000Z</time>
      </trkpt>
      <trkpt lat="45.23371" lon="5.60381">
        <ele>1161</ele>
        <time>2019-08-11T09:29:13.000Z</time>
      </trkpt>
      <trkpt lat="45.2337" lon="5.60382">
        <ele>1160.5999755859</ele>
        <time>2019-08-11T09:29:58.000Z</time>
      </trkpt>
      <trkpt lat="45.2337" lon="5.60382">
        <ele>1160.5999755859</ele>
        <time>2019-08-11T09:30:36.000Z</time>
      </trkpt>
      <trkpt lat="45.2337" lon="5.60382">
        <ele>1160.5999755859</ele>
        <time>2019-08-11T09:30:56.000Z</time>
      </trkpt>
      <trkpt lat="45.2337" lon="5.60382">
        <ele>1160.4000244141</ele>
        <time>2019-08-11T09:31:12.000Z</time>
      </trkpt>
      <trkpt lat="45.2337" lon="5.60383">
        <ele>1160.1999511719</ele>
        <time>2019-08-11T09:31:55.000Z</time>
      </trkpt>
      <trkpt lat="45.2337" lon="5.60383">
        <ele>1160</ele>
        <time>2019-08-11T09:32:14.000Z</time>
      </trkpt>
      <trkpt lat="45.2337" lon="5.60383">
        <ele>1160</ele>
        <time>2019-08-11T09:32:35.000Z</time>
      </trkpt>
      <trkpt lat="45.2337" lon="5.60383">
        <ele>1159.8000488281</ele>
        <time>2019-08-11T09:33:05.000Z</time>
      </trkpt>
      <trkpt lat="45.2337" lon="5.60383">
        <ele>1159.5999755859</ele>
        <time>2019-08-11T09:33:33.000Z</time>
      </trkpt>
      <trkpt lat="45.2337" lon="5.60383">
        <ele>1159.5999755859</ele>
        <time>2019-08-11T09:34:00.000Z</time>
      </trkpt>
      <trkpt lat="45.2337" lon="5.60383">
        <ele>1159.5999755859</ele>
        <time>2019-08-11T09:34:11.000Z</time>
      </trkpt>
      <trkpt lat="45.23371" lon="5.60383">
        <ele>1159.5999755859</ele>
        <time>2019-08-11T09:34:34.000Z</time>
      </trkpt>
      <trkpt lat="45.23371" lon="5.60383">
        <ele>1159.8000488281</ele>
        <time>2019-08-11T09:34:42.000Z</time>
      </trkpt>
      <trkpt lat="45.2337" lon="5.60383">
        <ele>1159.5999755859</ele>
        <time>2019-08-11T09:34:50.000Z</time>
      </trkpt>
      <trkpt lat="45.2337" lon="5.60383">
        <ele>1159.8000488281</ele>
        <time>2019-08-11T09:35:02.000Z</time>
      </trkpt>
      <trkpt lat="45.23373" lon="5.60382">
        <ele>1160.4000244141</ele>
        <time>2019-08-11T09:35:21.000Z</time>
      </trkpt>
      <trkpt lat="45.23378" lon="5.60381">
        <ele>1160.4000244141</ele>
        <time>2019-08-11T09:35:25.000Z</time>
      </trkpt>
      <trkpt lat="45.23379" lon="5.60379">
        <ele>1160.4000244141</ele>
        <time>2019-08-11T09:35:26.000Z</time>
      </trkpt>
      <trkpt lat="45.23388" lon="5.60369">
        <ele>1161.1999511719</ele>
        <time>2019-08-11T09:35:32.000Z</time>
      </trkpt>
      <trkpt lat="45.23389" lon="5.60367">
        <ele>1161.4000244141</ele>
        <time>2019-08-11T09:35:33.000Z</time>
      </trkpt>
      <trkpt lat="45.23399" lon="5.60358">
        <ele>1162.1999511719</ele>
        <time>2019-08-11T09:35:39.000Z</time>
      </trkpt>
      <trkpt lat="45.23401" lon="5.60357">
        <ele>1162.1999511719</ele>
        <time>2019-08-11T09:35:40.000Z</time>
      </trkpt>
      <trkpt lat="45.2341" lon="5.60352">
        <ele>1163.4000244141</ele>
        <time>2019-08-11T09:35:45.000Z</time>
      </trkpt>
      <trkpt lat="45.23411" lon="5.60351">
        <ele>1163.5999755859</ele>
        <time>2019-08-11T09:35:46.000Z</time>
      </trkpt>
      <trkpt lat="45.23416" lon="5.60349">
        <ele>1164.4000244141</ele>
        <time>2019-08-11T09:35:49.000Z</time>
      </trkpt>
      <trkpt lat="45.23419" lon="5.60348">
        <ele>1165</ele>
        <time>2019-08-11T09:35:51.000Z</time>
      </trkpt>
      <trkpt lat="45.23425" lon="5.60346">
        <ele>1165.5999755859</ele>
        <time>2019-08-11T09:35:55.000Z</time>
      </trkpt>
      <trkpt lat="45.23427" lon="5.60345">
        <ele>1166.1999511719</ele>
        <time>2019-08-11T09:35:57.000Z</time>
      </trkpt>
      <trkpt lat="45.23433" lon="5.60341">
        <ele>1166.5999755859</ele>
        <time>2019-08-11T09:36:01.000Z</time>
      </trkpt>
      <trkpt lat="45.23436" lon="5.60339">
        <ele>1166.8000488281</ele>
        <time>2019-08-11T09:36:03.000Z</time>
      </trkpt>
      <trkpt lat="45.23442" lon="5.60335">
        <ele>1167.8000488281</ele>
        <time>2019-08-11T09:36:07.000Z</time>
      </trkpt>
      <trkpt lat="45.23444" lon="5.60332">
        <ele>1168.5999755859</ele>
        <time>2019-08-11T09:36:09.000Z</time>
      </trkpt>
      <trkpt lat="45.23446" lon="5.60329">
        <ele>1169</ele>
        <time>2019-08-11T09:36:11.000Z</time>
      </trkpt>
      <trkpt lat="45.2345" lon="5.60326">
        <ele>1169.1999511719</ele>
        <time>2019-08-11T09:36:14.000Z</time>
      </trkpt>
      <trkpt lat="45.23451" lon="5.60325">
        <ele>1169.1999511719</ele>
        <time>2019-08-11T09:36:15.000Z</time>
      </trkpt>
      <trkpt lat="45.23457" lon="5.60319">
        <ele>1169.8000488281</ele>
        <time>2019-08-11T09:36:19.000Z</time>
      </trkpt>
      <trkpt lat="45.23458" lon="5.60318">
        <ele>1170</ele>
        <time>2019-08-11T09:36:20.000Z</time>
      </trkpt>
      <trkpt lat="45.23466" lon="5.60308">
        <ele>1171</ele>
        <time>2019-08-11T09:36:27.000Z</time>
      </trkpt>
      <trkpt lat="45.23467" lon="5.60306">
        <ele>1171.1999511719</ele>
        <time>2019-08-11T09:36:28.000Z</time>
      </trkpt>
      <trkpt lat="45.23471" lon="5.60301">
        <ele>1171.5999755859</ele>
        <time>2019-08-11T09:36:31.000Z</time>
      </trkpt>
      <trkpt lat="45.23474" lon="5.60296">
        <ele>1171.8000488281</ele>
        <time>2019-08-11T09:36:34.000Z</time>
      </trkpt>
      <trkpt lat="45.23475" lon="5.60294">
        <ele>1172.1999511719</ele>
        <time>2019-08-11T09:36:35.000Z</time>
      </trkpt>
      <trkpt lat="45.23478" lon="5.60291">
        <ele>1172.8000488281</ele>
        <time>2019-08-11T09:36:37.000Z</time>
      </trkpt>
      <trkpt lat="45.23481" lon="5.60286">
        <ele>1173.4000244141</ele>
        <time>2019-08-11T09:36:40.000Z</time>
      </trkpt>
      <trkpt lat="45.23484" lon="5.60276">
        <ele>1174.4000244141</ele>
        <time>2019-08-11T09:36:45.000Z</time>
      </trkpt>
      <trkpt lat="45.23486" lon="5.60272">
        <ele>1175</ele>
        <time>2019-08-11T09:36:47.000Z</time>
      </trkpt>
      <trkpt lat="45.23487" lon="5.60268">
        <ele>1175.5999755859</ele>
        <time>2019-08-11T09:36:49.000Z</time>
      </trkpt>
      <trkpt lat="45.23492" lon="5.6026">
        <ele>1176.4000244141</ele>
        <time>2019-08-11T09:36:54.000Z</time>
      </trkpt>
      <trkpt lat="45.23493" lon="5.60258">
        <ele>1176.5999755859</ele>
        <time>2019-08-11T09:36:55.000Z</time>
      </trkpt>
      <trkpt lat="45.23495" lon="5.60248">
        <ele>1177.1999511719</ele>
        <time>2019-08-11T09:37:00.000Z</time>
      </trkpt>
      <trkpt lat="45.23497" lon="5.60245">
        <ele>1177.5999755859</ele>
        <time>2019-08-11T09:37:02.000Z</time>
      </trkpt>
      <trkpt lat="45.23501" lon="5.60237">
        <ele>1178.4000244141</ele>
        <time>2019-08-11T09:37:06.000Z</time>
      </trkpt>
      <trkpt lat="45.23502" lon="5.60235">
        <ele>1178.5999755859</ele>
        <time>2019-08-11T09:37:07.000Z</time>
      </trkpt>
      <trkpt lat="45.23507" lon="5.60225">
        <ele>1179.4000244141</ele>
        <time>2019-08-11T09:37:12.000Z</time>
      </trkpt>
      <trkpt lat="45.23509" lon="5.60221">
        <ele>1179.5999755859</ele>
        <time>2019-08-11T09:37:14.000Z</time>
      </trkpt>
      <trkpt lat="45.23513" lon="5.60214">
        <ele>1180.4000244141</ele>
        <time>2019-08-11T09:37:18.000Z</time>
      </trkpt>
      <trkpt lat="45.23515" lon="5.60211">
        <ele>1180.5999755859</ele>
        <time>2019-08-11T09:37:20.000Z</time>
      </trkpt>
      <trkpt lat="45.23519" lon="5.60205">
        <ele>1181</ele>
        <time>2019-08-11T09:37:24.000Z</time>
      </trkpt>
      <trkpt lat="45.2352" lon="5.60204">
        <ele>1181.1999511719</ele>
        <time>2019-08-11T09:37:25.000Z</time>
      </trkpt>
      <trkpt lat="45.23526" lon="5.60197">
        <ele>1181.5999755859</ele>
        <time>2019-08-11T09:37:30.000Z</time>
      </trkpt>
      <trkpt lat="45.23533" lon="5.60188">
        <ele>1181.5999755859</ele>
        <time>2019-08-11T09:37:35.000Z</time>
      </trkpt>
      <trkpt lat="45.23539" lon="5.60182">
        <ele>1181.8000488281</ele>
        <time>2019-08-11T09:37:39.000Z</time>
      </trkpt>
      <trkpt lat="45.23546" lon="5.60175">
        <ele>1182.5999755859</ele>
        <time>2019-08-11T09:37:43.000Z</time>
      </trkpt>
      <trkpt lat="45.23553" lon="5.6017">
        <ele>1182.8000488281</ele>
        <time>2019-08-11T09:37:47.000Z</time>
      </trkpt>
      <trkpt lat="45.23555" lon="5.60169">
        <ele>1183</ele>
        <time>2019-08-11T09:37:48.000Z</time>
      </trkpt>
      <trkpt lat="45.23566" lon="5.60156">
        <ele>1184</ele>
        <time>2019-08-11T09:37:55.000Z</time>
      </trkpt>
      <trkpt lat="45.23574" lon="5.60147">
        <ele>1184.8000488281</ele>
        <time>2019-08-11T09:38:00.000Z</time>
      </trkpt>
      <trkpt lat="45.23576" lon="5.60145">
        <ele>1185</ele>
        <time>2019-08-11T09:38:01.000Z</time>
      </trkpt>
      <trkpt lat="45.23584" lon="5.60138">
        <ele>1186</ele>
        <time>2019-08-11T09:38:06.000Z</time>
      </trkpt>
      <trkpt lat="45.23593" lon="5.60128">
        <ele>1187.1999511719</ele>
        <time>2019-08-11T09:38:12.000Z</time>
      </trkpt>
      <trkpt lat="45.23596" lon="5.60125">
        <ele>1187.5999755859</ele>
        <time>2019-08-11T09:38:14.000Z</time>
      </trkpt>
      <trkpt lat="45.23603" lon="5.60117">
        <ele>1188.1999511719</ele>
        <time>2019-08-11T09:38:19.000Z</time>
      </trkpt>
      <trkpt lat="45.23605" lon="5.60117">
        <ele>1188.5999755859</ele>
        <time>2019-08-11T09:38:20.000Z</time>
      </trkpt>
      <trkpt lat="45.23615" lon="5.60112">
        <ele>1189.4000244141</ele>
        <time>2019-08-11T09:38:26.000Z</time>
      </trkpt>
      <trkpt lat="45.23625" lon="5.60106">
        <ele>1190.4000244141</ele>
        <time>2019-08-11T09:38:32.000Z</time>
      </trkpt>
      <trkpt lat="45.23628" lon="5.60104">
        <ele>1190.5999755859</ele>
        <time>2019-08-11T09:38:34.000Z</time>
      </trkpt>
      <trkpt lat="45.23638" lon="5.60094">
        <ele>1191.1999511719</ele>
        <time>2019-08-11T09:38:41.000Z</time>
      </trkpt>
      <trkpt lat="45.23639" lon="5.60093">
        <ele>1191.4000244141</ele>
        <time>2019-08-11T09:38:42.000Z</time>
      </trkpt>
      <trkpt lat="45.23647" lon="5.60087">
        <ele>1192</ele>
        <time>2019-08-11T09:38:47.000Z</time>
      </trkpt>
      <trkpt lat="45.2365" lon="5.60083">
        <ele>1192.4000244141</ele>
        <time>2019-08-11T09:38:49.000Z</time>
      </trkpt>
      <trkpt lat="45.23655" lon="5.6008">
        <ele>1193</ele>
        <time>2019-08-11T09:38:52.000Z</time>
      </trkpt>
      <trkpt lat="45.23658" lon="5.60077">
        <ele>1193.5999755859</ele>
        <time>2019-08-11T09:38:54.000Z</time>
      </trkpt>
      <trkpt lat="45.23662" lon="5.60074">
        <ele>1194.1999511719</ele>
        <time>2019-08-11T09:38:57.000Z</time>
      </trkpt>
      <trkpt lat="45.23668" lon="5.60072">
        <ele>1194.5999755859</ele>
        <time>2019-08-11T09:39:01.000Z</time>
      </trkpt>
      <trkpt lat="45.23674" lon="5.60067">
        <ele>1195.4000244141</ele>
        <time>2019-08-11T09:39:05.000Z</time>
      </trkpt>
      <trkpt lat="45.23677" lon="5.60065">
        <ele>1195.8000488281</ele>
        <time>2019-08-11T09:39:07.000Z</time>
      </trkpt>
      <trkpt lat="45.23682" lon="5.60061">
        <ele>1196.1999511719</ele>
        <time>2019-08-11T09:39:10.000Z</time>
      </trkpt>
      <trkpt lat="45.23684" lon="5.60061">
        <ele>1196.1999511719</ele>
        <time>2019-08-11T09:39:11.000Z</time>
      </trkpt>
      <trkpt lat="45.2369" lon="5.60056">
        <ele>1196.8000488281</ele>
        <time>2019-08-11T09:39:15.000Z</time>
      </trkpt>
      <trkpt lat="45.23693" lon="5.60054">
        <ele>1197.4000244141</ele>
        <time>2019-08-11T09:39:17.000Z</time>
      </trkpt>
      <trkpt lat="45.23698" lon="5.60051">
        <ele>1197.8000488281</ele>
        <time>2019-08-11T09:39:20.000Z</time>
      </trkpt>
      <trkpt lat="45.23702" lon="5.60047">
        <ele>1198.1999511719</ele>
        <time>2019-08-11T09:39:23.000Z</time>
      </trkpt>
      <trkpt lat="45.23712" lon="5.60039">
        <ele>1198.8000488281</ele>
        <time>2019-08-11T09:39:29.000Z</time>
      </trkpt>
      <trkpt lat="45.23719" lon="5.60034">
        <ele>1199.8000488281</ele>
        <time>2019-08-11T09:39:34.000Z</time>
      </trkpt>
      <trkpt lat="45.23721" lon="5.60033">
        <ele>1199.8000488281</ele>
        <time>2019-08-11T09:39:35.000Z</time>
      </trkpt>
      <trkpt lat="45.23724" lon="5.60032">
        <ele>1200.4000244141</ele>
        <time>2019-08-11T09:39:37.000Z</time>
      </trkpt>
      <trkpt lat="45.23727" lon="5.6003">
        <ele>1201</ele>
        <time>2019-08-11T09:39:39.000Z</time>
      </trkpt>
      <trkpt lat="45.2373" lon="5.60028">
        <ele>1201.1999511719</ele>
        <time>2019-08-11T09:39:41.000Z</time>
      </trkpt>
      <trkpt lat="45.23735" lon="5.60023">
        <ele>1201.8000488281</ele>
        <time>2019-08-11T09:39:45.000Z</time>
      </trkpt>
      <trkpt lat="45.23737" lon="5.60023">
        <ele>1202.1999511719</ele>
        <time>2019-08-11T09:39:46.000Z</time>
      </trkpt>
      <trkpt lat="45.23738" lon="5.60022">
        <ele>1202.4000244141</ele>
        <time>2019-08-11T09:39:47.000Z</time>
      </trkpt>
      <trkpt lat="45.23743" lon="5.60019">
        <ele>1203.1999511719</ele>
        <time>2019-08-11T09:39:50.000Z</time>
      </trkpt>
      <trkpt lat="45.23749" lon="5.60015">
        <ele>1204.1999511719</ele>
        <time>2019-08-11T09:39:54.000Z</time>
      </trkpt>
      <trkpt lat="45.2375" lon="5.60014">
        <ele>1204.4000244141</ele>
        <time>2019-08-11T09:39:55.000Z</time>
      </trkpt>
      <trkpt lat="45.23759" lon="5.60009">
        <ele>1205.5999755859</ele>
        <time>2019-08-11T09:40:00.000Z</time>
      </trkpt>
      <trkpt lat="45.23764" lon="5.60003">
        <ele>1206.5999755859</ele>
        <time>2019-08-11T09:40:04.000Z</time>
      </trkpt>
      <trkpt lat="45.23765" lon="5.60001">
        <ele>1207</ele>
        <time>2019-08-11T09:40:05.000Z</time>
      </trkpt>
      <trkpt lat="45.23766" lon="5.59995">
        <ele>1207.5999755859</ele>
        <time>2019-08-11T09:40:08.000Z</time>
      </trkpt>
      <trkpt lat="45.23765" lon="5.59985">
        <ele>1208.4000244141</ele>
        <time>2019-08-11T09:40:13.000Z</time>
      </trkpt>
      <trkpt lat="45.23764" lon="5.59979">
        <ele>1208.8000488281</ele>
        <time>2019-08-11T09:40:16.000Z</time>
      </trkpt>
      <trkpt lat="45.23763" lon="5.59973">
        <ele>1209.5999755859</ele>
        <time>2019-08-11T09:40:19.000Z</time>
      </trkpt>
      <trkpt lat="45.23761" lon="5.59968">
        <ele>1210</ele>
        <time>2019-08-11T09:40:22.000Z</time>
      </trkpt>
      <trkpt lat="45.2376" lon="5.59963">
        <ele>1210.4000244141</ele>
        <time>2019-08-11T09:40:25.000Z</time>
      </trkpt>
      <trkpt lat="45.23757" lon="5.59957">
        <ele>1210.8000488281</ele>
        <time>2019-08-11T09:40:29.000Z</time>
      </trkpt>
      <trkpt lat="45.23756" lon="5.59953">
        <ele>1211.4000244141</ele>
        <time>2019-08-11T09:40:31.000Z</time>
      </trkpt>
      <trkpt lat="45.23754" lon="5.59948">
        <ele>1212</ele>
        <time>2019-08-11T09:40:34.000Z</time>
      </trkpt>
      <trkpt lat="45.23751" lon="5.59942">
        <ele>1213.1999511719</ele>
        <time>2019-08-11T09:40:38.000Z</time>
      </trkpt>
      <trkpt lat="45.23748" lon="5.59935">
        <ele>1214</ele>
        <time>2019-08-11T09:40:42.000Z</time>
      </trkpt>
      <trkpt lat="45.23746" lon="5.59933">
        <ele>1214.4000244141</ele>
        <time>2019-08-11T09:40:44.000Z</time>
      </trkpt>
      <trkpt lat="45.23745" lon="5.59931">
        <ele>1214.8000488281</ele>
        <time>2019-08-11T09:40:45.000Z</time>
      </trkpt>
      <trkpt lat="45.23742" lon="5.59924">
        <ele>1215.5999755859</ele>
        <time>2019-08-11T09:40:49.000Z</time>
      </trkpt>
      <trkpt lat="45.2374" lon="5.59914">
        <ele>1216.5999755859</ele>
        <time>2019-08-11T09:40:54.000Z</time>
      </trkpt>
      <trkpt lat="45.23739" lon="5.59913">
        <ele>1216.8000488281</ele>
        <time>2019-08-11T09:40:55.000Z</time>
      </trkpt>
      <trkpt lat="45.23737" lon="5.59907">
        <ele>1218</ele>
        <time>2019-08-11T09:40:58.000Z</time>
      </trkpt>
      <trkpt lat="45.23736" lon="5.59903">
        <ele>1218.4000244141</ele>
        <time>2019-08-11T09:41:00.000Z</time>
      </trkpt>
      <trkpt lat="45.23736" lon="5.59901">
        <ele>1218.5999755859</ele>
        <time>2019-08-11T09:41:01.000Z</time>
      </trkpt>
      <trkpt lat="45.23735" lon="5.59897">
        <ele>1219</ele>
        <time>2019-08-11T09:41:03.000Z</time>
      </trkpt>
      <trkpt lat="45.23734" lon="5.59887">
        <ele>1219.5999755859</ele>
        <time>2019-08-11T09:41:07.000Z</time>
      </trkpt>
      <trkpt lat="45.23735" lon="5.59874">
        <ele>1219.5999755859</ele>
        <time>2019-08-11T09:41:12.000Z</time>
      </trkpt>
      <trkpt lat="45.23737" lon="5.59867">
        <ele>1219.8000488281</ele>
        <time>2019-08-11T09:41:15.000Z</time>
      </trkpt>
      <trkpt lat="45.23738" lon="5.59862">
        <ele>1220.1999511719</ele>
        <time>2019-08-11T09:41:17.000Z</time>
      </trkpt>
      <trkpt lat="45.2374" lon="5.59852">
        <ele>1221</ele>
        <time>2019-08-11T09:41:22.000Z</time>
      </trkpt>
      <trkpt lat="45.2374" lon="5.59848">
        <ele>1221.4000244141</ele>
        <time>2019-08-11T09:41:24.000Z</time>
      </trkpt>
      <trkpt lat="45.2374" lon="5.59844">
        <ele>1222.1999511719</ele>
        <time>2019-08-11T09:41:26.000Z</time>
      </trkpt>
      <trkpt lat="45.2374" lon="5.59833">
        <ele>1223</ele>
        <time>2019-08-11T09:41:31.000Z</time>
      </trkpt>
      <trkpt lat="45.2374" lon="5.59831">
        <ele>1223.1999511719</ele>
        <time>2019-08-11T09:41:32.000Z</time>
      </trkpt>
      <trkpt lat="45.2374" lon="5.59825">
        <ele>1224.1999511719</ele>
        <time>2019-08-11T09:41:35.000Z</time>
      </trkpt>
      <trkpt lat="45.2374" lon="5.59821">
        <ele>1224.8000488281</ele>
        <time>2019-08-11T09:41:37.000Z</time>
      </trkpt>
      <trkpt lat="45.23739" lon="5.59815">
        <ele>1225.4000244141</ele>
        <time>2019-08-11T09:41:41.000Z</time>
      </trkpt>
      <trkpt lat="45.23739" lon="5.59813">
        <ele>1225.5999755859</ele>
        <time>2019-08-11T09:41:42.000Z</time>
      </trkpt>
      <trkpt lat="45.23738" lon="5.59804">
        <ele>1226.5999755859</ele>
        <time>2019-08-11T09:41:47.000Z</time>
      </trkpt>
      <trkpt lat="45.23738" lon="5.59802">
        <ele>1226.8000488281</ele>
        <time>2019-08-11T09:41:48.000Z</time>
      </trkpt>
      <trkpt lat="45.23737" lon="5.59795">
        <ele>1227.8000488281</ele>
        <time>2019-08-11T09:41:52.000Z</time>
      </trkpt>
      <trkpt lat="45.23737" lon="5.59792">
        <ele>1227.8000488281</ele>
        <time>2019-08-11T09:41:54.000Z</time>
      </trkpt>
      <trkpt lat="45.23737" lon="5.5979">
        <ele>1228</ele>
        <time>2019-08-11T09:41:55.000Z</time>
      </trkpt>
      <trkpt lat="45.23736" lon="5.59783">
        <ele>1228.5999755859</ele>
        <time>2019-08-11T09:41:58.000Z</time>
      </trkpt>
      <trkpt lat="45.23736" lon="5.59781">
        <ele>1228.8000488281</ele>
        <time>2019-08-11T09:41:59.000Z</time>
      </trkpt>
      <trkpt lat="45.23734" lon="5.59771">
        <ele>1229.5999755859</ele>
        <time>2019-08-11T09:42:04.000Z</time>
      </trkpt>
      <trkpt lat="45.23732" lon="5.59766">
        <ele>1230.1999511719</ele>
        <time>2019-08-11T09:42:07.000Z</time>
      </trkpt>
      <trkpt lat="45.23731" lon="5.59762">
        <ele>1230.5999755859</ele>
        <time>2019-08-11T09:42:09.000Z</time>
      </trkpt>
      <trkpt lat="45.2373" lon="5.5976">
        <ele>1230.8000488281</ele>
        <time>2019-08-11T09:42:10.000Z</time>
      </trkpt>
      <trkpt lat="45.23729" lon="5.59756">
        <ele>1231</ele>
        <time>2019-08-11T09:42:12.000Z</time>
      </trkpt>
      <trkpt lat="45.23727" lon="5.59753">
        <ele>1231.4000244141</ele>
        <time>2019-08-11T09:42:14.000Z</time>
      </trkpt>
      <trkpt lat="45.23726" lon="5.59751">
        <ele>1231.5999755859</ele>
        <time>2019-08-11T09:42:15.000Z</time>
      </trkpt>
      <trkpt lat="45.23722" lon="5.59744">
        <ele>1232.1999511719</ele>
        <time>2019-08-11T09:42:19.000Z</time>
      </trkpt>
      <trkpt lat="45.2372" lon="5.59742">
        <ele>1232.8000488281</ele>
        <time>2019-08-11T09:42:21.000Z</time>
      </trkpt>
      <trkpt lat="45.23718" lon="5.5974">
        <ele>1233</ele>
        <time>2019-08-11T09:42:22.000Z</time>
      </trkpt>
      <trkpt lat="45.23715" lon="5.59737">
        <ele>1233.5999755859</ele>
        <time>2019-08-11T09:42:25.000Z</time>
      </trkpt>
      <trkpt lat="45.23714" lon="5.59735">
        <ele>1233.8000488281</ele>
        <time>2019-08-11T09:42:26.000Z</time>
      </trkpt>
      <trkpt lat="45.23711" lon="5.59733">
        <ele>1234.1999511719</ele>
        <time>2019-08-11T09:42:28.000Z</time>
      </trkpt>
      <trkpt lat="45.23707" lon="5.5973">
        <ele>1234.5999755859</ele>
        <time>2019-08-11T09:42:31.000Z</time>
      </trkpt>
      <trkpt lat="45.23706" lon="5.59729">
        <ele>1234.8000488281</ele>
        <time>2019-08-11T09:42:32.000Z</time>
      </trkpt>
      <trkpt lat="45.23705" lon="5.59728">
        <ele>1234.8000488281</ele>
        <time>2019-08-11T09:42:33.000Z</time>
      </trkpt>
      <trkpt lat="45.237" lon="5.59722">
        <ele>1235.5999755859</ele>
        <time>2019-08-11T09:42:36.000Z</time>
      </trkpt>
      <trkpt lat="45.23699" lon="5.5972">
        <ele>1235.8000488281</ele>
        <time>2019-08-11T09:42:37.000Z</time>
      </trkpt>
      <trkpt lat="45.23694" lon="5.59712">
        <ele>1237</ele>
        <time>2019-08-11T09:42:41.000Z</time>
      </trkpt>
      <trkpt lat="45.23691" lon="5.59706">
        <ele>1237.5999755859</ele>
        <time>2019-08-11T09:42:44.000Z</time>
      </trkpt>
      <trkpt lat="45.23689" lon="5.59702">
        <ele>1237.8000488281</ele>
        <time>2019-08-11T09:42:46.000Z</time>
      </trkpt>
      <trkpt lat="45.23686" lon="5.5969">
        <ele>1238.5999755859</ele>
        <time>2019-08-11T09:42:50.000Z</time>
      </trkpt>
      <trkpt lat="45.23687" lon="5.59684">
        <ele>1238.8000488281</ele>
        <time>2019-08-11T09:42:52.000Z</time>
      </trkpt>
      <trkpt lat="45.23689" lon="5.59675">
        <ele>1239.1999511719</ele>
        <time>2019-08-11T09:42:55.000Z</time>
      </trkpt>
      <trkpt lat="45.2369" lon="5.59665">
        <ele>1239.5999755859</ele>
        <time>2019-08-11T09:42:59.000Z</time>
      </trkpt>
      <trkpt lat="45.23691" lon="5.59662">
        <ele>1239.8000488281</ele>
        <time>2019-08-11T09:43:00.000Z</time>
      </trkpt>
      <trkpt lat="45.23691" lon="5.59657">
        <ele>1239.8000488281</ele>
        <time>2019-08-11T09:43:02.000Z</time>
      </trkpt>
      <trkpt lat="45.23691" lon="5.59648">
        <ele>1239.8000488281</ele>
        <time>2019-08-11T09:43:05.000Z</time>
      </trkpt>
      <trkpt lat="45.23695" lon="5.59628">
        <ele>1240.4000244141</ele>
        <time>2019-08-11T09:43:10.000Z</time>
      </trkpt>
      <trkpt lat="45.23695" lon="5.59623">
        <ele>1240.4000244141</ele>
        <time>2019-08-11T09:43:11.000Z</time>
      </trkpt>
      <trkpt lat="45.23697" lon="5.59602">
        <ele>1240.4000244141</ele>
        <time>2019-08-11T09:43:15.000Z</time>
      </trkpt>
      <trkpt lat="45.237" lon="5.59574">
        <ele>1240.4000244141</ele>
        <time>2019-08-11T09:43:21.000Z</time>
      </trkpt>
      <trkpt lat="45.23702" lon="5.59544">
        <ele>1240.8000488281</ele>
        <time>2019-08-11T09:43:26.000Z</time>
      </trkpt>
      <trkpt lat="45.23703" lon="5.59538">
        <ele>1240.5999755859</ele>
        <time>2019-08-11T09:43:27.000Z</time>
      </trkpt>
      <trkpt lat="45.23704" lon="5.59517">
        <ele>1240.1999511719</ele>
        <time>2019-08-11T09:43:30.000Z</time>
      </trkpt>
      <trkpt lat="45.23703" lon="5.5951">
        <ele>1240.1999511719</ele>
        <time>2019-08-11T09:43:31.000Z</time>
      </trkpt>
      <trkpt lat="45.23703" lon="5.59504">
        <ele>1240.1999511719</ele>
        <time>2019-08-11T09:43:32.000Z</time>
      </trkpt>
      <trkpt lat="45.23702" lon="5.59489">
        <ele>1240.8000488281</ele>
        <time>2019-08-11T09:43:35.000Z</time>
      </trkpt>
      <trkpt lat="45.23703" lon="5.59484">
        <ele>1240.8000488281</ele>
        <time>2019-08-11T09:43:36.000Z</time>
      </trkpt>
      <trkpt lat="45.23702" lon="5.59466">
        <ele>1241.5999755859</ele>
        <time>2019-08-11T09:43:40.000Z</time>
      </trkpt>
      <trkpt lat="45.23702" lon="5.59461">
        <ele>1242</ele>
        <time>2019-08-11T09:43:41.000Z</time>
      </trkpt>
      <trkpt lat="45.23703" lon="5.59457">
        <ele>1242.1999511719</ele>
        <time>2019-08-11T09:43:42.000Z</time>
      </trkpt>
      <trkpt lat="45.23703" lon="5.59448">
        <ele>1242.4000244141</ele>
        <time>2019-08-11T09:43:44.000Z</time>
      </trkpt>
      <trkpt lat="45.23703" lon="5.59436">
        <ele>1243</ele>
        <time>2019-08-11T09:43:47.000Z</time>
      </trkpt>
      <trkpt lat="45.23703" lon="5.59432">
        <ele>1243.4000244141</ele>
        <time>2019-08-11T09:43:48.000Z</time>
      </trkpt>
      <trkpt lat="45.23706" lon="5.59422">
        <ele>1244</ele>
        <time>2019-08-11T09:43:52.000Z</time>
      </trkpt>
      <trkpt lat="45.23706" lon="5.59419">
        <ele>1243.8000488281</ele>
        <time>2019-08-11T09:43:53.000Z</time>
      </trkpt>
      <trkpt lat="45.23707" lon="5.59413">
        <ele>1244</ele>
        <time>2019-08-11T09:43:56.000Z</time>
      </trkpt>
      <trkpt lat="45.23708" lon="5.59412">
        <ele>1244.1999511719</ele>
        <time>2019-08-11T09:43:57.000Z</time>
      </trkpt>
      <trkpt lat="45.23707" lon="5.5941">
        <ele>1244.1999511719</ele>
        <time>2019-08-11T09:44:03.000Z</time>
      </trkpt>
      <trkpt lat="45.23707" lon="5.59407">
        <ele>1244.1999511719</ele>
        <time>2019-08-11T09:44:33.000Z</time>
      </trkpt>
      <trkpt lat="45.23706" lon="5.59406">
        <ele>1244.4000244141</ele>
        <time>2019-08-11T09:44:34.000Z</time>
      </trkpt>
      <trkpt lat="45.23704" lon="5.59406">
        <ele>1243.8000488281</ele>
        <time>2019-08-11T09:44:42.000Z</time>
      </trkpt>
      <trkpt lat="45.23703" lon="5.59406">
        <ele>1244</ele>
        <time>2019-08-11T09:44:50.000Z</time>
      </trkpt>
      <trkpt lat="45.23704" lon="5.59406">
        <ele>1243.8000488281</ele>
        <time>2019-08-11T09:44:56.000Z</time>
      </trkpt>
      <trkpt lat="45.23708" lon="5.59404">
        <ele>1243.8000488281</ele>
        <time>2019-08-11T09:45:07.000Z</time>
      </trkpt>
      <trkpt lat="45.23708" lon="5.59403">
        <ele>1243.5999755859</ele>
        <time>2019-08-11T09:45:22.000Z</time>
      </trkpt>
      <trkpt lat="45.23708" lon="5.59404">
        <ele>1243.5999755859</ele>
        <time>2019-08-11T09:45:25.000Z</time>
      </trkpt>
      <trkpt lat="45.23708" lon="5.59403">
        <ele>1243.5999755859</ele>
        <time>2019-08-11T09:45:38.000Z</time>
      </trkpt>
      <trkpt lat="45.23708" lon="5.59403">
        <ele>1244</ele>
        <time>2019-08-11T09:45:52.000Z</time>
      </trkpt>
      <trkpt lat="45.2371" lon="5.59402">
        <ele>1243.8000488281</ele>
        <time>2019-08-11T09:46:05.000Z</time>
      </trkpt>
      <trkpt lat="45.2371" lon="5.59401">
        <ele>1243.8000488281</ele>
        <time>2019-08-11T09:46:08.000Z</time>
      </trkpt>
      <trkpt lat="45.23711" lon="5.59398">
        <ele>1243.8000488281</ele>
        <time>2019-08-11T09:46:11.000Z</time>
      </trkpt>
      <trkpt lat="45.23713" lon="5.59388">
        <ele>1243.8000488281</ele>
        <time>2019-08-11T09:46:17.000Z</time>
      </trkpt>
      <trkpt lat="45.23714" lon="5.59387">
        <ele>1243.8000488281</ele>
        <time>2019-08-11T09:46:18.000Z</time>
      </trkpt>
      <trkpt lat="45.23717" lon="5.59373">
        <ele>1244</ele>
        <time>2019-08-11T09:46:24.000Z</time>
      </trkpt>
      <trkpt lat="45.2372" lon="5.59359">
        <ele>1243.8000488281</ele>
        <time>2019-08-11T09:46:29.000Z</time>
      </trkpt>
      <trkpt lat="45.23723" lon="5.59353">
        <ele>1243.8000488281</ele>
        <time>2019-08-11T09:46:31.000Z</time>
      </trkpt>
      <trkpt lat="45.23726" lon="5.59344">
        <ele>1244</ele>
        <time>2019-08-11T09:46:34.000Z</time>
      </trkpt>
      <trkpt lat="45.23734" lon="5.59326">
        <ele>1243.8000488281</ele>
        <time>2019-08-11T09:46:39.000Z</time>
      </trkpt>
      <trkpt lat="45.23746" lon="5.59305">
        <ele>1243</ele>
        <time>2019-08-11T09:46:44.000Z</time>
      </trkpt>
      <trkpt lat="45.23753" lon="5.5929">
        <ele>1242.5999755859</ele>
        <time>2019-08-11T09:46:47.000Z</time>
      </trkpt>
      <trkpt lat="45.23759" lon="5.59276">
        <ele>1243</ele>
        <time>2019-08-11T09:46:50.000Z</time>
      </trkpt>
      <trkpt lat="45.23761" lon="5.59271">
        <ele>1243.1999511719</ele>
        <time>2019-08-11T09:46:51.000Z</time>
      </trkpt>
      <trkpt lat="45.23767" lon="5.59259">
        <ele>1243.4000244141</ele>
        <time>2019-08-11T09:46:54.000Z</time>
      </trkpt>
      <trkpt lat="45.23782" lon="5.59234">
        <ele>1243.8000488281</ele>
        <time>2019-08-11T09:47:01.000Z</time>
      </trkpt>
      <trkpt lat="45.23791" lon="5.59216">
        <ele>1243.1999511719</ele>
        <time>2019-08-11T09:47:05.000Z</time>
      </trkpt>
      <trkpt lat="45.23801" lon="5.59193">
        <ele>1242.1999511719</ele>
        <time>2019-08-11T09:47:09.000Z</time>
      </trkpt>
      <trkpt lat="45.23806" lon="5.59183">
        <ele>1242.4000244141</ele>
        <time>2019-08-11T09:47:11.000Z</time>
      </trkpt>
      <trkpt lat="45.23813" lon="5.59168">
        <ele>1242.8000488281</ele>
        <time>2019-08-11T09:47:14.000Z</time>
      </trkpt>
      <trkpt lat="45.23822" lon="5.59152">
        <ele>1242</ele>
        <time>2019-08-11T09:47:17.000Z</time>
      </trkpt>
      <trkpt lat="45.23825" lon="5.59147">
        <ele>1241.8000488281</ele>
        <time>2019-08-11T09:47:18.000Z</time>
      </trkpt>
      <trkpt lat="45.23839" lon="5.59133">
        <ele>1241.1999511719</ele>
        <time>2019-08-11T09:47:21.000Z</time>
      </trkpt>
      <trkpt lat="45.23843" lon="5.59129">
        <ele>1240.8000488281</ele>
        <time>2019-08-11T09:47:22.000Z</time>
      </trkpt>
      <trkpt lat="45.23861" lon="5.59113">
        <ele>1240.4000244141</ele>
        <time>2019-08-11T09:47:26.000Z</time>
      </trkpt>
      <trkpt lat="45.23868" lon="5.59107">
        <ele>1240.5999755859</ele>
        <time>2019-08-11T09:47:28.000Z</time>
      </trkpt>
      <trkpt lat="45.2388" lon="5.59099">
        <ele>1241.5999755859</ele>
        <time>2019-08-11T09:47:32.000Z</time>
      </trkpt>
      <trkpt lat="45.23885" lon="5.59097">
        <ele>1241.8000488281</ele>
        <time>2019-08-11T09:47:34.000Z</time>
      </trkpt>
      <trkpt lat="45.23891" lon="5.59095">
        <ele>1241.8000488281</ele>
        <time>2019-08-11T09:47:37.000Z</time>
      </trkpt>
      <trkpt lat="45.23894" lon="5.59094">
        <ele>1242</ele>
        <time>2019-08-11T09:47:38.000Z</time>
      </trkpt>
      <trkpt lat="45.239" lon="5.59094">
        <ele>1242.8000488281</ele>
        <time>2019-08-11T09:47:41.000Z</time>
      </trkpt>
      <trkpt lat="45.23906" lon="5.59095">
        <ele>1243.1999511719</ele>
        <time>2019-08-11T09:47:44.000Z</time>
      </trkpt>
      <trkpt lat="45.23915" lon="5.59094">
        <ele>1243.5999755859</ele>
        <time>2019-08-11T09:47:49.000Z</time>
      </trkpt>
      <trkpt lat="45.23919" lon="5.59094">
        <ele>1244</ele>
        <time>2019-08-11T09:47:51.000Z</time>
      </trkpt>
      <trkpt lat="45.23927" lon="5.59091">
        <ele>1244.4000244141</ele>
        <time>2019-08-11T09:47:56.000Z</time>
      </trkpt>
      <trkpt lat="45.23928" lon="5.5909">
        <ele>1244.5999755859</ele>
        <time>2019-08-11T09:47:57.000Z</time>
      </trkpt>
      <trkpt lat="45.23933" lon="5.59089">
        <ele>1245</ele>
        <time>2019-08-11T09:48:00.000Z</time>
      </trkpt>
      <trkpt lat="45.23934" lon="5.59089">
        <ele>1245.1999511719</ele>
        <time>2019-08-11T09:48:01.000Z</time>
      </trkpt>
      <trkpt lat="45.23936" lon="5.59089">
        <ele>1245.5999755859</ele>
        <time>2019-08-11T09:48:02.000Z</time>
      </trkpt>
      <trkpt lat="45.2394" lon="5.59089">
        <ele>1246</ele>
        <time>2019-08-11T09:48:05.000Z</time>
      </trkpt>
      <trkpt lat="45.23943" lon="5.59088">
        <ele>1246.4000244141</ele>
        <time>2019-08-11T09:48:07.000Z</time>
      </trkpt>
      <trkpt lat="45.23944" lon="5.59087">
        <ele>1246.4000244141</ele>
        <time>2019-08-11T09:48:08.000Z</time>
      </trkpt>
      <trkpt lat="45.2395" lon="5.59085">
        <ele>1247.4000244141</ele>
        <time>2019-08-11T09:48:13.000Z</time>
      </trkpt>
      <trkpt lat="45.23951" lon="5.59085">
        <ele>1247.5999755859</ele>
        <time>2019-08-11T09:48:14.000Z</time>
      </trkpt>
      <trkpt lat="45.23958" lon="5.59084">
        <ele>1248.8000488281</ele>
        <time>2019-08-11T09:48:19.000Z</time>
      </trkpt>
      <trkpt lat="45.2396" lon="5.59084">
        <ele>1249</ele>
        <time>2019-08-11T09:48:20.000Z</time>
      </trkpt>
      <trkpt lat="45.23966" lon="5.59084">
        <ele>1249.1999511719</ele>
        <time>2019-08-11T09:48:24.000Z</time>
      </trkpt>
      <trkpt lat="45.23969" lon="5.59083">
        <ele>1249.8000488281</ele>
        <time>2019-08-11T09:48:26.000Z</time>
      </trkpt>
      <trkpt lat="45.23974" lon="5.59082">
        <ele>1250.4000244141</ele>
        <time>2019-08-11T09:48:30.000Z</time>
      </trkpt>
      <trkpt lat="45.23976" lon="5.5908">
        <ele>1250.8000488281</ele>
        <time>2019-08-11T09:48:32.000Z</time>
      </trkpt>
      <trkpt lat="45.23978" lon="5.59079">
        <ele>1251.1999511719</ele>
        <time>2019-08-11T09:48:34.000Z</time>
      </trkpt>
      <trkpt lat="45.23984" lon="5.59074">
        <ele>1251.8000488281</ele>
        <time>2019-08-11T09:48:38.000Z</time>
      </trkpt>
      <trkpt lat="45.23984" lon="5.59072">
        <ele>1252</ele>
        <time>2019-08-11T09:48:39.000Z</time>
      </trkpt>
      <trkpt lat="45.2399" lon="5.59065">
        <ele>1252.5999755859</ele>
        <time>2019-08-11T09:48:44.000Z</time>
      </trkpt>
      <trkpt lat="45.23991" lon="5.59063">
        <ele>1252.8000488281</ele>
        <time>2019-08-11T09:48:45.000Z</time>
      </trkpt>
      <trkpt lat="45.23996" lon="5.59056">
        <ele>1253.8000488281</ele>
        <time>2019-08-11T09:48:50.000Z</time>
      </trkpt>
      <trkpt lat="45.23999" lon="5.59052">
        <ele>1254</ele>
        <time>2019-08-11T09:48:53.000Z</time>
      </trkpt>
      <trkpt lat="45.24001" lon="5.5905">
        <ele>1254.4000244141</ele>
        <time>2019-08-11T09:48:55.000Z</time>
      </trkpt>
      <trkpt lat="45.24004" lon="5.59046">
        <ele>1254.5999755859</ele>
        <time>2019-08-11T09:48:58.000Z</time>
      </trkpt>
      <trkpt lat="45.24005" lon="5.59046">
        <ele>1254.5999755859</ele>
        <time>2019-08-11T09:48:59.000Z</time>
      </trkpt>
      <trkpt lat="45.24012" lon="5.59043">
        <ele>1255</ele>
        <time>2019-08-11T09:49:04.000Z</time>
      </trkpt>
      <trkpt lat="45.24018" lon="5.59041">
        <ele>1255.5999755859</ele>
        <time>2019-08-11T09:49:08.000Z</time>
      </trkpt>
      <trkpt lat="45.2402" lon="5.5904">
        <ele>1255.8000488281</ele>
        <time>2019-08-11T09:49:09.000Z</time>
      </trkpt>
      <trkpt lat="45.24027" lon="5.59035">
        <ele>1256.8000488281</ele>
        <time>2019-08-11T09:49:14.000Z</time>
      </trkpt>
      <trkpt lat="45.2403" lon="5.59034">
        <ele>1257</ele>
        <time>2019-08-11T09:49:16.000Z</time>
      </trkpt>
      <trkpt lat="45.24032" lon="5.59033">
        <ele>1257.1999511719</ele>
        <time>2019-08-11T09:49:17.000Z</time>
      </trkpt>
      <trkpt lat="45.24037" lon="5.5903">
        <ele>1257.5999755859</ele>
        <time>2019-08-11T09:49:21.000Z</time>
      </trkpt>
      <trkpt lat="45.24039" lon="5.59029">
        <ele>1257.8000488281</ele>
        <time>2019-08-11T09:49:22.000Z</time>
      </trkpt>
      <trkpt lat="45.2404" lon="5.59029">
        <ele>1258</ele>
        <time>2019-08-11T09:49:23.000Z</time>
      </trkpt>
      <trkpt lat="45.24046" lon="5.59026">
        <ele>1258.4000244141</ele>
        <time>2019-08-11T09:49:27.000Z</time>
      </trkpt>
      <trkpt lat="45.24053" lon="5.59022">
        <ele>1259</ele>
        <time>2019-08-11T09:49:32.000Z</time>
      </trkpt>
      <trkpt lat="45.24054" lon="5.59021">
        <ele>1259</ele>
        <time>2019-08-11T09:49:33.000Z</time>
      </trkpt>
      <trkpt lat="45.24056" lon="5.5902">
        <ele>1259</ele>
        <time>2019-08-11T09:49:34.000Z</time>
      </trkpt>
      <trkpt lat="45.24061" lon="5.59017">
        <ele>1259.4000244141</ele>
        <time>2019-08-11T09:49:38.000Z</time>
      </trkpt>
      <trkpt lat="45.24063" lon="5.59017">
        <ele>1259.5999755859</ele>
        <time>2019-08-11T09:49:39.000Z</time>
      </trkpt>
      <trkpt lat="45.24066" lon="5.59015">
        <ele>1260</ele>
        <time>2019-08-11T09:49:41.000Z</time>
      </trkpt>
      <trkpt lat="45.24072" lon="5.5901">
        <ele>1261</ele>
        <time>2019-08-11T09:49:46.000Z</time>
      </trkpt>
      <trkpt lat="45.24074" lon="5.59009">
        <ele>1261</ele>
        <time>2019-08-11T09:49:47.000Z</time>
      </trkpt>
      <trkpt lat="45.24077" lon="5.59006">
        <ele>1261.5999755859</ele>
        <time>2019-08-11T09:49:50.000Z</time>
      </trkpt>
      <trkpt lat="45.24079" lon="5.59004">
        <ele>1261.8000488281</ele>
        <time>2019-08-11T09:49:52.000Z</time>
      </trkpt>
      <trkpt lat="45.24082" lon="5.59001">
        <ele>1262</ele>
        <time>2019-08-11T09:49:54.000Z</time>
      </trkpt>
      <trkpt lat="45.24085" lon="5.58999">
        <ele>1262.4000244141</ele>
        <time>2019-08-11T09:49:56.000Z</time>
      </trkpt>
      <trkpt lat="45.24088" lon="5.58997">
        <ele>1262.8000488281</ele>
        <time>2019-08-11T09:49:58.000Z</time>
      </trkpt>
      <trkpt lat="45.24091" lon="5.58995">
        <ele>1263.1999511719</ele>
        <time>2019-08-11T09:50:00.000Z</time>
      </trkpt>
      <trkpt lat="45.24097" lon="5.5899">
        <ele>1264.1999511719</ele>
        <time>2019-08-11T09:50:05.000Z</time>
      </trkpt>
      <trkpt lat="45.24099" lon="5.58989">
        <ele>1264.5999755859</ele>
        <time>2019-08-11T09:50:06.000Z</time>
      </trkpt>
      <trkpt lat="45.24104" lon="5.58988">
        <ele>1265</ele>
        <time>2019-08-11T09:50:10.000Z</time>
      </trkpt>
      <trkpt lat="45.24107" lon="5.58987">
        <ele>1265.4000244141</ele>
        <time>2019-08-11T09:50:12.000Z</time>
      </trkpt>
      <trkpt lat="45.24112" lon="5.58986">
        <ele>1266.1999511719</ele>
        <time>2019-08-11T09:50:16.000Z</time>
      </trkpt>
      <trkpt lat="45.24114" lon="5.58986">
        <ele>1266.5999755859</ele>
        <time>2019-08-11T09:50:17.000Z</time>
      </trkpt>
      <trkpt lat="45.24117" lon="5.58984">
        <ele>1267</ele>
        <time>2019-08-11T09:50:20.000Z</time>
      </trkpt>
      <trkpt lat="45.24122" lon="5.58982">
        <ele>1267.4000244141</ele>
        <time>2019-08-11T09:50:23.000Z</time>
      </trkpt>
      <trkpt lat="45.24123" lon="5.58982">
        <ele>1267.8000488281</ele>
        <time>2019-08-11T09:50:24.000Z</time>
      </trkpt>
      <trkpt lat="45.24129" lon="5.58979">
        <ele>1268.1999511719</ele>
        <time>2019-08-11T09:50:28.000Z</time>
      </trkpt>
      <trkpt lat="45.24132" lon="5.58979">
        <ele>1268.8000488281</ele>
        <time>2019-08-11T09:50:30.000Z</time>
      </trkpt>
      <trkpt lat="45.24133" lon="5.58979">
        <ele>1268.8000488281</ele>
        <time>2019-08-11T09:50:31.000Z</time>
      </trkpt>
      <trkpt lat="45.24138" lon="5.58977">
        <ele>1269.1999511719</ele>
        <time>2019-08-11T09:50:34.000Z</time>
      </trkpt>
      <trkpt lat="45.24139" lon="5.58977">
        <ele>1269.4000244141</ele>
        <time>2019-08-11T09:50:35.000Z</time>
      </trkpt>
      <trkpt lat="45.24143" lon="5.58977">
        <ele>1270</ele>
        <time>2019-08-11T09:50:38.000Z</time>
      </trkpt>
      <trkpt lat="45.24145" lon="5.58976">
        <ele>1270.1999511719</ele>
        <time>2019-08-11T09:50:39.000Z</time>
      </trkpt>
      <trkpt lat="45.24155" lon="5.58977">
        <ele>1271.1999511719</ele>
        <time>2019-08-11T09:50:46.000Z</time>
      </trkpt>
      <trkpt lat="45.24165" lon="5.58977">
        <ele>1272</ele>
        <time>2019-08-11T09:50:53.000Z</time>
      </trkpt>
      <trkpt lat="45.24172" lon="5.58975">
        <ele>1273</ele>
        <time>2019-08-11T09:50:58.000Z</time>
      </trkpt>
      <trkpt lat="45.24174" lon="5.58975">
        <ele>1273.1999511719</ele>
        <time>2019-08-11T09:50:59.000Z</time>
      </trkpt>
      <trkpt lat="45.2418" lon="5.58973">
        <ele>1274</ele>
        <time>2019-08-11T09:51:03.000Z</time>
      </trkpt>
      <trkpt lat="45.24182" lon="5.58973">
        <ele>1274.1999511719</ele>
        <time>2019-08-11T09:51:04.000Z</time>
      </trkpt>
      <trkpt lat="45.24183" lon="5.58972">
        <ele>1274.1999511719</ele>
        <time>2019-08-11T09:51:05.000Z</time>
      </trkpt>
      <trkpt lat="45.24185" lon="5.5897">
        <ele>1274.4000244141</ele>
        <time>2019-08-11T09:51:07.000Z</time>
      </trkpt>
      <trkpt lat="45.2419" lon="5.58968">
        <ele>1275</ele>
        <time>2019-08-11T09:51:10.000Z</time>
      </trkpt>
      <trkpt lat="45.24191" lon="5.58968">
        <ele>1275.1999511719</ele>
        <time>2019-08-11T09:51:11.000Z</time>
      </trkpt>
      <trkpt lat="45.24196" lon="5.58965">
        <ele>1276</ele>
        <time>2019-08-11T09:51:15.000Z</time>
      </trkpt>
      <trkpt lat="45.24198" lon="5.58964">
        <ele>1276.1999511719</ele>
        <time>2019-08-11T09:51:16.000Z</time>
      </trkpt>
      <trkpt lat="45.24204" lon="5.5896">
        <ele>1277.1999511719</ele>
        <time>2019-08-11T09:51:20.000Z</time>
      </trkpt>
      <trkpt lat="45.24207" lon="5.58956">
        <ele>1277.8000488281</ele>
        <time>2019-08-11T09:51:23.000Z</time>
      </trkpt>
      <trkpt lat="45.24211" lon="5.58953">
        <ele>1278.4000244141</ele>
        <time>2019-08-11T09:51:26.000Z</time>
      </trkpt>
      <trkpt lat="45.24212" lon="5.58952">
        <ele>1278.5999755859</ele>
        <time>2019-08-11T09:51:27.000Z</time>
      </trkpt>
      <trkpt lat="45.24215" lon="5.5895">
        <ele>1278.8000488281</ele>
        <time>2019-08-11T09:51:29.000Z</time>
      </trkpt>
      <trkpt lat="45.24218" lon="5.58945">
        <ele>1279.1999511719</ele>
        <time>2019-08-11T09:51:32.000Z</time>
      </trkpt>
      <trkpt lat="45.24222" lon="5.58943">
        <ele>1279.5999755859</ele>
        <time>2019-08-11T09:51:34.000Z</time>
      </trkpt>
      <trkpt lat="45.24224" lon="5.5894">
        <ele>1280</ele>
        <time>2019-08-11T09:51:36.000Z</time>
      </trkpt>
      <trkpt lat="45.24226" lon="5.58939">
        <ele>1280.4000244141</ele>
        <time>2019-08-11T09:51:37.000Z</time>
      </trkpt>
      <trkpt lat="45.24232" lon="5.58934">
        <ele>1281.1999511719</ele>
        <time>2019-08-11T09:51:41.000Z</time>
      </trkpt>
      <trkpt lat="45.24237" lon="5.58928">
        <ele>1282.4000244141</ele>
        <time>2019-08-11T09:51:46.000Z</time>
      </trkpt>
      <trkpt lat="45.24238" lon="5.58926">
        <ele>1282.5999755859</ele>
        <time>2019-08-11T09:51:47.000Z</time>
      </trkpt>
      <trkpt lat="45.24239" lon="5.58925">
        <ele>1282.5999755859</ele>
        <time>2019-08-11T09:51:48.000Z</time>
      </trkpt>
      <trkpt lat="45.24242" lon="5.5892">
        <ele>1283.4000244141</ele>
        <time>2019-08-11T09:51:51.000Z</time>
      </trkpt>
      <trkpt lat="45.24244" lon="5.58915">
        <ele>1284</ele>
        <time>2019-08-11T09:51:54.000Z</time>
      </trkpt>
      <trkpt lat="45.24246" lon="5.58912">
        <ele>1284.4000244141</ele>
        <time>2019-08-11T09:51:56.000Z</time>
      </trkpt>
      <trkpt lat="45.24246" lon="5.58911">
        <ele>1284.5999755859</ele>
        <time>2019-08-11T09:51:57.000Z</time>
      </trkpt>
      <trkpt lat="45.2425" lon="5.58903">
        <ele>1285.4000244141</ele>
        <time>2019-08-11T09:52:02.000Z</time>
      </trkpt>
      <trkpt lat="45.24251" lon="5.589">
        <ele>1285.5999755859</ele>
        <time>2019-08-11T09:52:04.000Z</time>
      </trkpt>
      <trkpt lat="45.24253" lon="5.58895">
        <ele>1286</ele>
        <time>2019-08-11T09:52:07.000Z</time>
      </trkpt>
      <trkpt lat="45.24255" lon="5.58892">
        <ele>1286.5999755859</ele>
        <time>2019-08-11T09:52:09.000Z</time>
      </trkpt>
      <trkpt lat="45.24256" lon="5.58888">
        <ele>1287</ele>
        <time>2019-08-11T09:52:11.000Z</time>
      </trkpt>
      <trkpt lat="45.24257" lon="5.58887">
        <ele>1287.1999511719</ele>
        <time>2019-08-11T09:52:12.000Z</time>
      </trkpt>
      <trkpt lat="45.24259" lon="5.58885">
        <ele>1287.5999755859</ele>
        <time>2019-08-11T09:52:14.000Z</time>
      </trkpt>
      <trkpt lat="45.24263" lon="5.58881">
        <ele>1288</ele>
        <time>2019-08-11T09:52:17.000Z</time>
      </trkpt>
      <trkpt lat="45.24269" lon="5.58877">
        <ele>1289</ele>
        <time>2019-08-11T09:52:22.000Z</time>
      </trkpt>
      <trkpt lat="45.24271" lon="5.58877">
        <ele>1289</ele>
        <time>2019-08-11T09:52:23.000Z</time>
      </trkpt>
      <trkpt lat="45.24278" lon="5.58873">
        <ele>1290</ele>
        <time>2019-08-11T09:52:28.000Z</time>
      </trkpt>
      <trkpt lat="45.2428" lon="5.58872">
        <ele>1290.1999511719</ele>
        <time>2019-08-11T09:52:29.000Z</time>
      </trkpt>
      <trkpt lat="45.24285" lon="5.58868">
        <ele>1291.1999511719</ele>
        <time>2019-08-11T09:52:33.000Z</time>
      </trkpt>
      <trkpt lat="45.24287" lon="5.58865">
        <ele>1291.5999755859</ele>
        <time>2019-08-11T09:52:35.000Z</time>
      </trkpt>
      <trkpt lat="45.24289" lon="5.58863">
        <ele>1292</ele>
        <time>2019-08-11T09:52:37.000Z</time>
      </trkpt>
      <trkpt lat="45.24291" lon="5.5886">
        <ele>1292.4000244141</ele>
        <time>2019-08-11T09:52:39.000Z</time>
      </trkpt>
      <trkpt lat="45.24293" lon="5.58856">
        <ele>1292.5999755859</ele>
        <time>2019-08-11T09:52:41.000Z</time>
      </trkpt>
      <trkpt lat="45.24295" lon="5.58849">
        <ele>1293.4000244141</ele>
        <time>2019-08-11T09:52:45.000Z</time>
      </trkpt>
      <trkpt lat="45.24298" lon="5.58845">
        <ele>1293.8000488281</ele>
        <time>2019-08-11T09:52:48.000Z</time>
      </trkpt>
      <trkpt lat="45.24299" lon="5.58844">
        <ele>1293.8000488281</ele>
        <time>2019-08-11T09:52:49.000Z</time>
      </trkpt>
      <trkpt lat="45.24302" lon="5.5884">
        <ele>1294.1999511719</ele>
        <time>2019-08-11T09:52:52.000Z</time>
      </trkpt>
      <trkpt lat="45.24306" lon="5.58835">
        <ele>1294.4000244141</ele>
        <time>2019-08-11T09:52:55.000Z</time>
      </trkpt>
      <trkpt lat="45.24312" lon="5.58832">
        <ele>1294.4000244141</ele>
        <time>2019-08-11T09:52:58.000Z</time>
      </trkpt>
      <trkpt lat="45.24327" lon="5.58826">
        <ele>1294.8000488281</ele>
        <time>2019-08-11T09:53:05.000Z</time>
      </trkpt>
      <trkpt lat="45.24333" lon="5.58825">
        <ele>1295.1999511719</ele>
        <time>2019-08-11T09:53:08.000Z</time>
      </trkpt>
      <trkpt lat="45.2434" lon="5.58826">
        <ele>1295.5999755859</ele>
        <time>2019-08-11T09:53:11.000Z</time>
      </trkpt>
      <trkpt lat="45.24347" lon="5.58825">
        <ele>1296</ele>
        <time>2019-08-11T09:53:16.000Z</time>
      </trkpt>
      <trkpt lat="45.24347" lon="5.58824">
        <ele>1295.8000488281</ele>
        <time>2019-08-11T09:53:31.000Z</time>
      </trkpt>
      <trkpt lat="45.24347" lon="5.58824">
        <ele>1296</ele>
        <time>2019-08-11T09:53:49.000Z</time>
      </trkpt>
      <trkpt lat="45.24347" lon="5.58824">
        <ele>1296</ele>
        <time>2019-08-11T09:54:17.000Z</time>
      </trkpt>
      <trkpt lat="45.24347" lon="5.58824">
        <ele>1295.8000488281</ele>
        <time>2019-08-11T09:54:33.000Z</time>
      </trkpt>
      <trkpt lat="45.24347" lon="5.58823">
        <ele>1295.8000488281</ele>
        <time>2019-08-11T09:54:37.000Z</time>
      </trkpt>
      <trkpt lat="45.24348" lon="5.58822">
        <ele>1295.8000488281</ele>
        <time>2019-08-11T09:54:38.000Z</time>
      </trkpt>
      <trkpt lat="45.24355" lon="5.58809">
        <ele>1295.8000488281</ele>
        <time>2019-08-11T09:54:43.000Z</time>
      </trkpt>
      <trkpt lat="45.24365" lon="5.5878">
        <ele>1294.5999755859</ele>
        <time>2019-08-11T09:54:48.000Z</time>
      </trkpt>
      <trkpt lat="45.24376" lon="5.58769">
        <ele>1293.5999755859</ele>
        <time>2019-08-11T09:54:52.000Z</time>
      </trkpt>
      <trkpt lat="45.24379" lon="5.58769">
        <ele>1293.8000488281</ele>
        <time>2019-08-11T09:54:53.000Z</time>
      </trkpt>
      <trkpt lat="45.24393" lon="5.58765">
        <ele>1294.8000488281</ele>
        <time>2019-08-11T09:54:57.000Z</time>
      </trkpt>
      <trkpt lat="45.24412" lon="5.58749">
        <ele>1294.8000488281</ele>
        <time>2019-08-11T09:55:03.000Z</time>
      </trkpt>
      <trkpt lat="45.2443" lon="5.5874">
        <ele>1295.5999755859</ele>
        <time>2019-08-11T09:55:08.000Z</time>
      </trkpt>
      <trkpt lat="45.24455" lon="5.58735">
        <ele>1295</ele>
        <time>2019-08-11T09:55:14.000Z</time>
      </trkpt>
      <trkpt lat="45.24461" lon="5.58736">
        <ele>1295</ele>
        <time>2019-08-11T09:55:15.000Z</time>
      </trkpt>
      <trkpt lat="45.2447" lon="5.58738">
        <ele>1294.5999755859</ele>
        <time>2019-08-11T09:55:17.000Z</time>
      </trkpt>
      <trkpt lat="45.24479" lon="5.58742">
        <ele>1295.4000244141</ele>
        <time>2019-08-11T09:55:20.000Z</time>
      </trkpt>
      <trkpt lat="45.24482" lon="5.58744">
        <ele>1295.8000488281</ele>
        <time>2019-08-11T09:55:21.000Z</time>
      </trkpt>
      <trkpt lat="45.24495" lon="5.58752">
        <ele>1297.1999511719</ele>
        <time>2019-08-11T09:55:26.000Z</time>
      </trkpt>
      <trkpt lat="45.24511" lon="5.58759">
        <ele>1298.1999511719</ele>
        <time>2019-08-11T09:55:33.000Z</time>
      </trkpt>
      <trkpt lat="45.24528" lon="5.58761">
        <ele>1299</ele>
        <time>2019-08-11T09:55:40.000Z</time>
      </trkpt>
      <trkpt lat="45.24533" lon="5.58762">
        <ele>1299.1999511719</ele>
        <time>2019-08-11T09:55:42.000Z</time>
      </trkpt>
      <trkpt lat="45.24534" lon="5.58762">
        <ele>1299.5999755859</ele>
        <time>2019-08-11T09:55:45.000Z</time>
      </trkpt>
      <trkpt lat="45.24535" lon="5.58762">
        <ele>1300</ele>
        <time>2019-08-11T09:55:51.000Z</time>
      </trkpt>
      <trkpt lat="45.24536" lon="5.58761">
        <ele>1300.1999511719</ele>
        <time>2019-08-11T09:55:55.000Z</time>
      </trkpt>
      <trkpt lat="45.24537" lon="5.58762">
        <ele>1300.4000244141</ele>
        <time>2019-08-11T09:55:58.000Z</time>
      </trkpt>
      <trkpt lat="45.24541" lon="5.5876">
        <ele>1300.1999511719</ele>
        <time>2019-08-11T09:56:04.000Z</time>
      </trkpt>
      <trkpt lat="45.24542" lon="5.58759">
        <ele>1300.4000244141</ele>
        <time>2019-08-11T09:56:05.000Z</time>
      </trkpt>
      <trkpt lat="45.24541" lon="5.58755">
        <ele>1300.8000488281</ele>
        <time>2019-08-11T09:56:08.000Z</time>
      </trkpt>
      <trkpt lat="45.24541" lon="5.58754">
        <ele>1301</ele>
        <time>2019-08-11T09:56:13.000Z</time>
      </trkpt>
      <trkpt lat="45.24541" lon="5.58754">
        <ele>1301.1999511719</ele>
        <time>2019-08-11T09:56:14.000Z</time>
      </trkpt>
      <trkpt lat="45.24539" lon="5.58753">
        <ele>1301.1999511719</ele>
        <time>2019-08-11T09:56:16.000Z</time>
      </trkpt>
      <trkpt lat="45.24536" lon="5.58754">
        <ele>1301.1999511719</ele>
        <time>2019-08-11T09:56:19.000Z</time>
      </trkpt>
      <trkpt lat="45.24533" lon="5.58753">
        <ele>1301.4000244141</ele>
        <time>2019-08-11T09:56:22.000Z</time>
      </trkpt>
      <trkpt lat="45.24529" lon="5.58749">
        <ele>1301.5999755859</ele>
        <time>2019-08-11T09:56:25.000Z</time>
      </trkpt>
      <trkpt lat="45.24519" lon="5.58746">
        <ele>1302</ele>
        <time>2019-08-11T09:56:30.000Z</time>
      </trkpt>
      <trkpt lat="45.24508" lon="5.58741">
        <ele>1303</ele>
        <time>2019-08-11T09:56:36.000Z</time>
      </trkpt>
      <trkpt lat="45.24507" lon="5.5874">
        <ele>1303.1999511719</ele>
        <time>2019-08-11T09:56:37.000Z</time>
      </trkpt>
      <trkpt lat="45.24495" lon="5.58733">
        <ele>1304</ele>
        <time>2019-08-11T09:56:44.000Z</time>
      </trkpt>
      <trkpt lat="45.2449" lon="5.58731">
        <ele>1304.8000488281</ele>
        <time>2019-08-11T09:56:50.000Z</time>
      </trkpt>
      <trkpt lat="45.24489" lon="5.58732">
        <ele>1305</ele>
        <time>2019-08-11T09:56:55.000Z</time>
      </trkpt>
      <trkpt lat="45.24489" lon="5.58732">
        <ele>1305</ele>
        <time>2019-08-11T09:56:58.000Z</time>
      </trkpt>
      <trkpt lat="45.24489" lon="5.58731">
        <ele>1305</ele>
        <time>2019-08-11T09:57:09.000Z</time>
      </trkpt>
      <trkpt lat="45.24489" lon="5.5873">
        <ele>1304.8000488281</ele>
        <time>2019-08-11T09:57:26.000Z</time>
      </trkpt>
      <trkpt lat="45.24489" lon="5.58729">
        <ele>1305</ele>
        <time>2019-08-11T09:57:36.000Z</time>
      </trkpt>
      <trkpt lat="45.24489" lon="5.58729">
        <ele>1305.1999511719</ele>
        <time>2019-08-11T09:57:40.000Z</time>
      </trkpt>
      <trkpt lat="45.24489" lon="5.58729">
        <ele>1305.1999511719</ele>
        <time>2019-08-11T09:57:54.000Z</time>
      </trkpt>
      <trkpt lat="45.24489" lon="5.58729">
        <ele>1305.4000244141</ele>
        <time>2019-08-11T09:58:01.000Z</time>
      </trkpt>
      <trkpt lat="45.24489" lon="5.58729">
        <ele>1305.1999511719</ele>
        <time>2019-08-11T09:58:05.000Z</time>
      </trkpt>
      <trkpt lat="45.24489" lon="5.58729">
        <ele>1305.5999755859</ele>
        <time>2019-08-11T09:58:15.000Z</time>
      </trkpt>
      <trkpt lat="45.24488" lon="5.58729">
        <ele>1305.5999755859</ele>
        <time>2019-08-11T09:58:28.000Z</time>
      </trkpt>
      <trkpt lat="45.24488" lon="5.58729">
        <ele>1305.5999755859</ele>
        <time>2019-08-11T09:58:45.000Z</time>
      </trkpt>
      <trkpt lat="45.24488" lon="5.58729">
        <ele>1306</ele>
        <time>2019-08-11T09:58:54.000Z</time>
      </trkpt>
      <trkpt lat="45.24488" lon="5.58729">
        <ele>1306</ele>
        <time>2019-08-11T09:59:00.000Z</time>
      </trkpt>
      <trkpt lat="45.24488" lon="5.58729">
        <ele>1306</ele>
        <time>2019-08-11T09:59:14.000Z</time>
      </trkpt>
      <trkpt lat="45.24487" lon="5.58728">
        <ele>1306</ele>
        <time>2019-08-11T09:59:24.000Z</time>
      </trkpt>
      <trkpt lat="45.24487" lon="5.58729">
        <ele>1306.1999511719</ele>
        <time>2019-08-11T09:59:37.000Z</time>
      </trkpt>
      <trkpt lat="45.24487" lon="5.58728">
        <ele>1306.4000244141</ele>
        <time>2019-08-11T09:59:49.000Z</time>
      </trkpt>
      <trkpt lat="45.24487" lon="5.58728">
        <ele>1306.5999755859</ele>
        <time>2019-08-11T09:59:52.000Z</time>
      </trkpt>
      <trkpt lat="45.24487" lon="5.58728">
        <ele>1306.5999755859</ele>
        <time>2019-08-11T10:00:05.000Z</time>
      </trkpt>
      <trkpt lat="45.24487" lon="5.58728">
        <ele>1306.1999511719</ele>
        <time>2019-08-11T10:00:20.000Z</time>
      </trkpt>
      <trkpt lat="45.24487" lon="5.58728">
        <ele>1306.4000244141</ele>
        <time>2019-08-11T10:00:28.000Z</time>
      </trkpt>
      <trkpt lat="45.24487" lon="5.58729">
        <ele>1306.4000244141</ele>
        <time>2019-08-11T10:00:34.000Z</time>
      </trkpt>
      <trkpt lat="45.24487" lon="5.58728">
        <ele>1306.1999511719</ele>
        <time>2019-08-11T10:00:47.000Z</time>
      </trkpt>
      <trkpt lat="45.24486" lon="5.58728">
        <ele>1306.1999511719</ele>
        <time>2019-08-11T10:01:00.000Z</time>
      </trkpt>
      <trkpt lat="45.24486" lon="5.58728">
        <ele>1306.1999511719</ele>
        <time>2019-08-11T10:01:15.000Z</time>
      </trkpt>
      <trkpt lat="45.24486" lon="5.58728">
        <ele>1306.1999511719</ele>
        <time>2019-08-11T10:01:32.000Z</time>
      </trkpt>
      <trkpt lat="45.24486" lon="5.58728">
        <ele>1306.4000244141</ele>
        <time>2019-08-11T10:01:47.000Z</time>
      </trkpt>
      <trkpt lat="45.24486" lon="5.58728">
        <ele>1306.4000244141</ele>
        <time>2019-08-11T10:01:54.000Z</time>
      </trkpt>
      <trkpt lat="45.24486" lon="5.58728">
        <ele>1306.4000244141</ele>
        <time>2019-08-11T10:02:02.000Z</time>
      </trkpt>
      <trkpt lat="45.24486" lon="5.58727">
        <ele>1307</ele>
        <time>2019-08-11T10:02:18.000Z</time>
      </trkpt>
      <trkpt lat="45.24484" lon="5.58726">
        <ele>1306.8000488281</ele>
        <time>2019-08-11T10:02:27.000Z</time>
      </trkpt>
      <trkpt lat="45.24483" lon="5.58725">
        <ele>1307</ele>
        <time>2019-08-11T10:02:28.000Z</time>
      </trkpt>
      <trkpt lat="45.24478" lon="5.58721">
        <ele>1307.4000244141</ele>
        <time>2019-08-11T10:02:31.000Z</time>
      </trkpt>
      <trkpt lat="45.24474" lon="5.58718">
        <ele>1307.5999755859</ele>
        <time>2019-08-11T10:02:33.000Z</time>
      </trkpt>
      <trkpt lat="45.24467" lon="5.58712">
        <ele>1308</ele>
        <time>2019-08-11T10:02:37.000Z</time>
      </trkpt>
      <trkpt lat="45.24465" lon="5.58712">
        <ele>1308.4000244141</ele>
        <time>2019-08-11T10:02:38.000Z</time>
      </trkpt>
      <trkpt lat="45.24454" lon="5.58711">
        <ele>1309.4000244141</ele>
        <time>2019-08-11T10:02:43.000Z</time>
      </trkpt>
      <trkpt lat="45.24445" lon="5.58711">
        <ele>1310</ele>
        <time>2019-08-11T10:02:47.000Z</time>
      </trkpt>
      <trkpt lat="45.24443" lon="5.58711">
        <ele>1310.4000244141</ele>
        <time>2019-08-11T10:02:48.000Z</time>
      </trkpt>
      <trkpt lat="45.24432" lon="5.58714">
        <ele>1311.4000244141</ele>
        <time>2019-08-11T10:02:53.000Z</time>
      </trkpt>
      <trkpt lat="45.2443" lon="5.58714">
        <ele>1311.4000244141</ele>
        <time>2019-08-11T10:02:54.000Z</time>
      </trkpt>
      <trkpt lat="45.24421" lon="5.58717">
        <ele>1312.4000244141</ele>
        <time>2019-08-11T10:02:58.000Z</time>
      </trkpt>
      <trkpt lat="45.24415" lon="5.58719">
        <ele>1312.8000488281</ele>
        <time>2019-08-11T10:03:01.000Z</time>
      </trkpt>
      <trkpt lat="45.24404" lon="5.58726">
        <ele>1313.4000244141</ele>
        <time>2019-08-11T10:03:07.000Z</time>
      </trkpt>
      <trkpt lat="45.244" lon="5.58728">
        <ele>1313.8000488281</ele>
        <time>2019-08-11T10:03:09.000Z</time>
      </trkpt>
      <trkpt lat="45.24397" lon="5.5873">
        <ele>1314.5999755859</ele>
        <time>2019-08-11T10:03:11.000Z</time>
      </trkpt>
      <trkpt lat="45.2439" lon="5.58735">
        <ele>1315.4000244141</ele>
        <time>2019-08-11T10:03:15.000Z</time>
      </trkpt>
      <trkpt lat="45.24388" lon="5.58736">
        <ele>1315.5999755859</ele>
        <time>2019-08-11T10:03:16.000Z</time>
      </trkpt>
      <trkpt lat="45.24382" lon="5.5874">
        <ele>1316.5999755859</ele>
        <time>2019-08-11T10:03:20.000Z</time>
      </trkpt>
      <trkpt lat="45.24377" lon="5.58741">
        <ele>1317.5999755859</ele>
        <time>2019-08-11T10:03:23.000Z</time>
      </trkpt>
      <trkpt lat="45.24367" lon="5.5874">
        <ele>1318.5999755859</ele>
        <time>2019-08-11T10:03:29.000Z</time>
      </trkpt>
      <trkpt lat="45.24365" lon="5.58741">
        <ele>1318.5999755859</ele>
        <time>2019-08-11T10:03:30.000Z</time>
      </trkpt>
      <trkpt lat="45.24351" lon="5.58751">
        <ele>1318.1999511719</ele>
        <time>2019-08-11T10:03:35.000Z</time>
      </trkpt>
      <trkpt lat="45.24339" lon="5.58766">
        <ele>1318.5999755859</ele>
        <time>2019-08-11T10:03:41.000Z</time>
      </trkpt>
      <trkpt lat="45.24331" lon="5.58775">
        <ele>1319.4000244141</ele>
        <time>2019-08-11T10:03:46.000Z</time>
      </trkpt>
      <trkpt lat="45.24329" lon="5.58778">
        <ele>1319.5999755859</ele>
        <time>2019-08-11T10:03:47.000Z</time>
      </trkpt>
      <trkpt lat="45.24322" lon="5.58786">
        <ele>1320.5999755859</ele>
        <time>2019-08-11T10:03:52.000Z</time>
      </trkpt>
      <trkpt lat="45.24311" lon="5.58791">
        <ele>1321.1999511719</ele>
        <time>2019-08-11T10:03:58.000Z</time>
      </trkpt>
      <trkpt lat="45.24304" lon="5.58795">
        <ele>1321.8000488281</ele>
        <time>2019-08-11T10:04:01.000Z</time>
      </trkpt>
      <trkpt lat="45.24296" lon="5.58801">
        <ele>1322.4000244141</ele>
        <time>2019-08-11T10:04:05.000Z</time>
      </trkpt>
      <trkpt lat="45.24292" lon="5.58804">
        <ele>1322.8000488281</ele>
        <time>2019-08-11T10:04:07.000Z</time>
      </trkpt>
      <trkpt lat="45.24279" lon="5.58811">
        <ele>1323.4000244141</ele>
        <time>2019-08-11T10:04:13.000Z</time>
      </trkpt>
      <trkpt lat="45.24277" lon="5.58812">
        <ele>1323.8000488281</ele>
        <time>2019-08-11T10:04:14.000Z</time>
      </trkpt>
      <trkpt lat="45.24269" lon="5.58815">
        <ele>1324.5999755859</ele>
        <time>2019-08-11T10:04:18.000Z</time>
      </trkpt>
      <trkpt lat="45.24265" lon="5.58816">
        <ele>1325</ele>
        <time>2019-08-11T10:04:20.000Z</time>
      </trkpt>
      <trkpt lat="45.24254" lon="5.58816">
        <ele>1326</ele>
        <time>2019-08-11T10:04:25.000Z</time>
      </trkpt>
      <trkpt lat="45.24243" lon="5.58817">
        <ele>1327</ele>
        <time>2019-08-11T10:04:30.000Z</time>
      </trkpt>
      <trkpt lat="45.24235" lon="5.58822">
        <ele>1327.5999755859</ele>
        <time>2019-08-11T10:04:34.000Z</time>
      </trkpt>
      <trkpt lat="45.24231" lon="5.58825">
        <ele>1328</ele>
        <time>2019-08-11T10:04:36.000Z</time>
      </trkpt>
      <trkpt lat="45.24221" lon="5.58835">
        <ele>1328.8000488281</ele>
        <time>2019-08-11T10:04:41.000Z</time>
      </trkpt>
      <trkpt lat="45.24217" lon="5.58839">
        <ele>1329.1999511719</ele>
        <time>2019-08-11T10:04:43.000Z</time>
      </trkpt>
      <trkpt lat="45.24212" lon="5.58847">
        <ele>1329.8000488281</ele>
        <time>2019-08-11T10:04:46.000Z</time>
      </trkpt>
      <trkpt lat="45.24206" lon="5.58852">
        <ele>1330</ele>
        <time>2019-08-11T10:04:49.000Z</time>
      </trkpt>
      <trkpt lat="45.24196" lon="5.58857">
        <ele>1331.4000244141</ele>
        <time>2019-08-11T10:04:54.000Z</time>
      </trkpt>
      <trkpt lat="45.24177" lon="5.58861">
        <ele>1332.1999511719</ele>
        <time>2019-08-11T10:05:02.000Z</time>
      </trkpt>
      <trkpt lat="45.24157" lon="5.58859">
        <ele>1332.8000488281</ele>
        <time>2019-08-11T10:05:10.000Z</time>
      </trkpt>
      <trkpt lat="45.24144" lon="5.58859">
        <ele>1333.1999511719</ele>
        <time>2019-08-11T10:05:15.000Z</time>
      </trkpt>
      <trkpt lat="45.24134" lon="5.58857">
        <ele>1334.1999511719</ele>
        <time>2019-08-11T10:05:19.000Z</time>
      </trkpt>
      <trkpt lat="45.24126" lon="5.58857">
        <ele>1334.4000244141</ele>
        <time>2019-08-11T10:05:22.000Z</time>
      </trkpt>
      <trkpt lat="45.24115" lon="5.58856">
        <ele>1335</ele>
        <time>2019-08-11T10:05:27.000Z</time>
      </trkpt>
      <trkpt lat="45.24101" lon="5.58855">
        <ele>1335.5999755859</ele>
        <time>2019-08-11T10:05:33.000Z</time>
      </trkpt>
      <trkpt lat="45.24096" lon="5.58854">
        <ele>1336</ele>
        <time>2019-08-11T10:05:35.000Z</time>
      </trkpt>
      <trkpt lat="45.24085" lon="5.58846">
        <ele>1336.8000488281</ele>
        <time>2019-08-11T10:05:41.000Z</time>
      </trkpt>
      <trkpt lat="45.24083" lon="5.58845">
        <ele>1337</ele>
        <time>2019-08-11T10:05:42.000Z</time>
      </trkpt>
      <trkpt lat="45.24078" lon="5.5884">
        <ele>1337.4000244141</ele>
        <time>2019-08-11T10:05:47.000Z</time>
      </trkpt>
      <trkpt lat="45.2408" lon="5.58835">
        <ele>1337.8000488281</ele>
        <time>2019-08-11T10:06:04.000Z</time>
      </trkpt>
      <trkpt lat="45.24115" lon="5.58883">
        <ele>1338</ele>
        <time>2019-08-11T10:08:05.000Z</time>
      </trkpt>
      <trkpt lat="45.24104" lon="5.58897">
        <ele>1338.5999755859</ele>
        <time>2019-08-11T10:09:22.000Z</time>
      </trkpt>
      <trkpt lat="45.24092" lon="5.5888">
        <ele>1339</ele>
        <time>2019-08-11T10:09:40.000Z</time>
      </trkpt>
      <trkpt lat="45.2408" lon="5.58865">
        <ele>1340.1999511719</ele>
        <time>2019-08-11T10:09:51.000Z</time>
      </trkpt>
      <trkpt lat="45.23842" lon="5.58295">
        <ele>1356.1999511719</ele>
        <time>2019-08-11T10:11:53.000Z</time>
      </trkpt>
      <trkpt lat="45.23834" lon="5.58289">
        <ele>1356.4000244141</ele>
        <time>2019-08-11T10:11:55.000Z</time>
      </trkpt>
      <trkpt lat="45.2383" lon="5.58286">
        <ele>1356.8000488281</ele>
        <time>2019-08-11T10:11:59.000Z</time>
      </trkpt>
      <trkpt lat="45.23827" lon="5.58279">
        <ele>1357.1999511719</ele>
        <time>2019-08-11T10:12:01.000Z</time>
      </trkpt>
      <trkpt lat="45.23821" lon="5.58266">
        <ele>1357.1999511719</ele>
        <time>2019-08-11T10:12:05.000Z</time>
      </trkpt>
      <trkpt lat="45.23815" lon="5.58252">
        <ele>1357</ele>
        <time>2019-08-11T10:12:11.000Z</time>
      </trkpt>
      <trkpt lat="45.23814" lon="5.58251">
        <ele>1356.5999755859</ele>
        <time>2019-08-11T10:12:15.000Z</time>
      </trkpt>
      <trkpt lat="45.23813" lon="5.58251">
        <ele>1356.1999511719</ele>
        <time>2019-08-11T10:12:26.000Z</time>
      </trkpt>
      <trkpt lat="45.23813" lon="5.58252">
        <ele>1356.5999755859</ele>
        <time>2019-08-11T10:12:49.000Z</time>
      </trkpt>
      <trkpt lat="45.23813" lon="5.58251">
        <ele>1356.5999755859</ele>
        <time>2019-08-11T10:12:58.000Z</time>
      </trkpt>
      <trkpt lat="45.23813" lon="5.58251">
        <ele>1356.8000488281</ele>
        <time>2019-08-11T10:13:01.000Z</time>
      </trkpt>
      <trkpt lat="45.23813" lon="5.58252">
        <ele>1356.4000244141</ele>
        <time>2019-08-11T10:13:16.000Z</time>
      </trkpt>
      <trkpt lat="45.23814" lon="5.5825">
        <ele>1357.1999511719</ele>
        <time>2019-08-11T10:13:23.000Z</time>
      </trkpt>
      <trkpt lat="45.23814" lon="5.58251">
        <ele>1357.1999511719</ele>
        <time>2019-08-11T10:13:26.000Z</time>
      </trkpt>
      <trkpt lat="45.23814" lon="5.5825">
        <ele>1357.5999755859</ele>
        <time>2019-08-11T10:13:40.000Z</time>
      </trkpt>
      <trkpt lat="45.23814" lon="5.58249">
        <ele>1356.4000244141</ele>
        <time>2019-08-11T10:13:51.000Z</time>
      </trkpt>
      <trkpt lat="45.23813" lon="5.58249">
        <ele>1356.8000488281</ele>
        <time>2019-08-11T10:13:58.000Z</time>
      </trkpt>
      <trkpt lat="45.23813" lon="5.58244">
        <ele>1357.1999511719</ele>
        <time>2019-08-11T10:14:04.000Z</time>
      </trkpt>
      <trkpt lat="45.23812" lon="5.58243">
        <ele>1357.1999511719</ele>
        <time>2019-08-11T10:14:05.000Z</time>
      </trkpt>
      <trkpt lat="45.23812" lon="5.58243">
        <ele>1357.1999511719</ele>
        <time>2019-08-11T10:14:13.000Z</time>
      </trkpt>
      <trkpt lat="45.23811" lon="5.58241">
        <ele>1356</ele>
        <time>2019-08-11T10:14:24.000Z</time>
      </trkpt>
      <trkpt lat="45.23806" lon="5.58229">
        <ele>1356.4000244141</ele>
        <time>2019-08-11T10:14:29.000Z</time>
      </trkpt>
      <trkpt lat="45.23803" lon="5.58221">
        <ele>1356.8000488281</ele>
        <time>2019-08-11T10:14:32.000Z</time>
      </trkpt>
      <trkpt lat="45.23801" lon="5.58215">
        <ele>1356.8000488281</ele>
        <time>2019-08-11T10:14:34.000Z</time>
      </trkpt>
      <trkpt lat="45.23791" lon="5.58198">
        <ele>1357.1999511719</ele>
        <time>2019-08-11T10:14:40.000Z</time>
      </trkpt>
      <trkpt lat="45.23785" lon="5.58189">
        <ele>1357.1999511719</ele>
        <time>2019-08-11T10:14:43.000Z</time>
      </trkpt>
      <trkpt lat="45.23781" lon="5.58176">
        <ele>1357.4000244141</ele>
        <time>2019-08-11T10:14:46.000Z</time>
      </trkpt>
      <trkpt lat="45.23778" lon="5.5815">
        <ele>1357.4000244141</ele>
        <time>2019-08-11T10:14:52.000Z</time>
      </trkpt>
      <trkpt lat="45.23782" lon="5.58131">
        <ele>1357.5999755859</ele>
        <time>2019-08-11T10:14:58.000Z</time>
      </trkpt>
      <trkpt lat="45.23787" lon="5.58125">
        <ele>1358</ele>
        <time>2019-08-11T10:15:02.000Z</time>
      </trkpt>
      <trkpt lat="45.23789" lon="5.58125">
        <ele>1358.1999511719</ele>
        <time>2019-08-11T10:15:03.000Z</time>
      </trkpt>
      <trkpt lat="45.23794" lon="5.58119">
        <ele>1358.8000488281</ele>
        <time>2019-08-11T10:15:07.000Z</time>
      </trkpt>
      <trkpt lat="45.23796" lon="5.58119">
        <ele>1358.8000488281</ele>
        <time>2019-08-11T10:15:09.000Z</time>
      </trkpt>
      <trkpt lat="45.23799" lon="5.58117">
        <ele>1359.4000244141</ele>
        <time>2019-08-11T10:15:11.000Z</time>
      </trkpt>
      <trkpt lat="45.23804" lon="5.58112">
        <ele>1359.8000488281</ele>
        <time>2019-08-11T10:15:15.000Z</time>
      </trkpt>
      <trkpt lat="45.23807" lon="5.58112">
        <ele>1360</ele>
        <time>2019-08-11T10:15:17.000Z</time>
      </trkpt>
      <trkpt lat="45.23814" lon="5.58106">
        <ele>1360.5999755859</ele>
        <time>2019-08-11T10:15:22.000Z</time>
      </trkpt>
      <trkpt lat="45.23819" lon="5.58105">
        <ele>1361</ele>
        <time>2019-08-11T10:15:25.000Z</time>
      </trkpt>
      <trkpt lat="45.23826" lon="5.58102">
        <ele>1361.5999755859</ele>
        <time>2019-08-11T10:15:29.000Z</time>
      </trkpt>
      <trkpt lat="45.23831" lon="5.58102">
        <ele>1362</ele>
        <time>2019-08-11T10:15:32.000Z</time>
      </trkpt>
      <trkpt lat="45.23837" lon="5.58099">
        <ele>1362.5999755859</ele>
        <time>2019-08-11T10:15:36.000Z</time>
      </trkpt>
      <trkpt lat="45.2384" lon="5.58099">
        <ele>1363</ele>
        <time>2019-08-11T10:15:38.000Z</time>
      </trkpt>
      <trkpt lat="45.23843" lon="5.58101">
        <ele>1363.4000244141</ele>
        <time>2019-08-11T10:15:40.000Z</time>
      </trkpt>
      <trkpt lat="45.23844" lon="5.58101">
        <ele>1363.5999755859</ele>
        <time>2019-08-11T10:15:41.000Z</time>
      </trkpt>
      <trkpt lat="45.23848" lon="5.581">
        <ele>1364.1999511719</ele>
        <time>2019-08-11T10:15:43.000Z</time>
      </trkpt>
      <trkpt lat="45.2385" lon="5.58103">
        <ele>1364.4000244141</ele>
        <time>2019-08-11T10:15:45.000Z</time>
      </trkpt>
      <trkpt lat="45.23853" lon="5.58106">
        <ele>1364.5999755859</ele>
        <time>2019-08-11T10:15:47.000Z</time>
      </trkpt>
      <trkpt lat="45.23855" lon="5.58108">
        <ele>1365.1999511719</ele>
        <time>2019-08-11T10:15:49.000Z</time>
      </trkpt>
      <trkpt lat="45.23858" lon="5.58111">
        <ele>1365.5999755859</ele>
        <time>2019-08-11T10:15:51.000Z</time>
      </trkpt>
      <trkpt lat="45.23861" lon="5.58114">
        <ele>1366</ele>
        <time>2019-08-11T10:15:53.000Z</time>
      </trkpt>
      <trkpt lat="45.23862" lon="5.58115">
        <ele>1366.1999511719</ele>
        <time>2019-08-11T10:15:54.000Z</time>
      </trkpt>
      <trkpt lat="45.23865" lon="5.58118">
        <ele>1366.4000244141</ele>
        <time>2019-08-11T10:15:56.000Z</time>
      </trkpt>
      <trkpt lat="45.23866" lon="5.58119">
        <ele>1366.4000244141</ele>
        <time>2019-08-11T10:15:57.000Z</time>
      </trkpt>
      <trkpt lat="45.23868" lon="5.58122">
        <ele>1366.5999755859</ele>
        <time>2019-08-11T10:15:59.000Z</time>
      </trkpt>
      <trkpt lat="45.23877" lon="5.58135">
        <ele>1367.1999511719</ele>
        <time>2019-08-11T10:16:06.000Z</time>
      </trkpt>
      <trkpt lat="45.23881" lon="5.5814">
        <ele>1367.4000244141</ele>
        <time>2019-08-11T10:16:09.000Z</time>
      </trkpt>
      <trkpt lat="45.23886" lon="5.58147">
        <ele>1367.8000488281</ele>
        <time>2019-08-11T10:16:13.000Z</time>
      </trkpt>
      <trkpt lat="45.2389" lon="5.58159">
        <ele>1368.5999755859</ele>
        <time>2019-08-11T10:16:18.000Z</time>
      </trkpt>
      <trkpt lat="45.23893" lon="5.58174">
        <ele>1369.4000244141</ele>
        <time>2019-08-11T10:16:24.000Z</time>
      </trkpt>
      <trkpt lat="45.23894" lon="5.5818">
        <ele>1369.5999755859</ele>
        <time>2019-08-11T10:16:26.000Z</time>
      </trkpt>
      <trkpt lat="45.23893" lon="5.58186">
        <ele>1370</ele>
        <time>2019-08-11T10:16:28.000Z</time>
      </trkpt>
      <trkpt lat="45.23893" lon="5.58194">
        <ele>1370.8000488281</ele>
        <time>2019-08-11T10:16:32.000Z</time>
      </trkpt>
      <trkpt lat="45.23893" lon="5.58197">
        <ele>1371</ele>
        <time>2019-08-11T10:16:33.000Z</time>
      </trkpt>
      <trkpt lat="45.23889" lon="5.58209">
        <ele>1371.4000244141</ele>
        <time>2019-08-11T10:16:38.000Z</time>
      </trkpt>
      <trkpt lat="45.23888" lon="5.58211">
        <ele>1371.4000244141</ele>
        <time>2019-08-11T10:16:39.000Z</time>
      </trkpt>
      <trkpt lat="45.23886" lon="5.58219">
        <ele>1371.8000488281</ele>
        <time>2019-08-11T10:16:42.000Z</time>
      </trkpt>
      <trkpt lat="45.23881" lon="5.58237">
        <ele>1372.5999755859</ele>
        <time>2019-08-11T10:16:48.000Z</time>
      </trkpt>
      <trkpt lat="45.23878" lon="5.58246">
        <ele>1372.8000488281</ele>
        <time>2019-08-11T10:16:51.000Z</time>
      </trkpt>
      <trkpt lat="45.23875" lon="5.58255">
        <ele>1373</ele>
        <time>2019-08-11T10:16:54.000Z</time>
      </trkpt>
      <trkpt lat="45.23873" lon="5.58261">
        <ele>1373</ele>
        <time>2019-08-11T10:16:56.000Z</time>
      </trkpt>
      <trkpt lat="45.23869" lon="5.58274">
        <ele>1373.4000244141</ele>
        <time>2019-08-11T10:17:00.000Z</time>
      </trkpt>
      <trkpt lat="45.23865" lon="5.58287">
        <ele>1374.1999511719</ele>
        <time>2019-08-11T10:17:04.000Z</time>
      </trkpt>
      <trkpt lat="45.23863" lon="5.58293">
        <ele>1374.5999755859</ele>
        <time>2019-08-11T10:17:06.000Z</time>
      </trkpt>
      <trkpt lat="45.23859" lon="5.58305">
        <ele>1375.4000244141</ele>
        <time>2019-08-11T10:17:10.000Z</time>
      </trkpt>
      <trkpt lat="45.23858" lon="5.58308">
        <ele>1375.5999755859</ele>
        <time>2019-08-11T10:17:11.000Z</time>
      </trkpt>
      <trkpt lat="45.23852" lon="5.58331">
        <ele>1376.4000244141</ele>
        <time>2019-08-11T10:17:18.000Z</time>
      </trkpt>
      <trkpt lat="45.23846" lon="5.5835">
        <ele>1377.1999511719</ele>
        <time>2019-08-11T10:17:24.000Z</time>
      </trkpt>
      <trkpt lat="45.23843" lon="5.58355">
        <ele>1377.4000244141</ele>
        <time>2019-08-11T10:17:26.000Z</time>
      </trkpt>
      <trkpt lat="45.23839" lon="5.58367">
        <ele>1378</ele>
        <time>2019-08-11T10:17:30.000Z</time>
      </trkpt>
      <trkpt lat="45.2383" lon="5.58384">
        <ele>1378</ele>
        <time>2019-08-11T10:17:36.000Z</time>
      </trkpt>
      <trkpt lat="45.23825" lon="5.58387">
        <ele>1378.4000244141</ele>
        <time>2019-08-11T10:17:38.000Z</time>
      </trkpt>
      <trkpt lat="45.23816" lon="5.58392">
        <ele>1379.4000244141</ele>
        <time>2019-08-11T10:17:42.000Z</time>
      </trkpt>
      <trkpt lat="45.23813" lon="5.58392">
        <ele>1379.5999755859</ele>
        <time>2019-08-11T10:17:43.000Z</time>
      </trkpt>
      <trkpt lat="45.23802" lon="5.58391">
        <ele>1380.4000244141</ele>
        <time>2019-08-11T10:17:48.000Z</time>
      </trkpt>
      <trkpt lat="45.23799" lon="5.5839">
        <ele>1380.5999755859</ele>
        <time>2019-08-11T10:17:49.000Z</time>
      </trkpt>
      <trkpt lat="45.23788" lon="5.58386">
        <ele>1381.1999511719</ele>
        <time>2019-08-11T10:17:54.000Z</time>
      </trkpt>
      <trkpt lat="45.23776" lon="5.58383">
        <ele>1381.8000488281</ele>
        <time>2019-08-11T10:17:59.000Z</time>
      </trkpt>
      <trkpt lat="45.23771" lon="5.58382">
        <ele>1382</ele>
        <time>2019-08-11T10:18:01.000Z</time>
      </trkpt>
      <trkpt lat="45.23758" lon="5.58382">
        <ele>1382.8000488281</ele>
        <time>2019-08-11T10:18:06.000Z</time>
      </trkpt>
      <trkpt lat="45.23745" lon="5.58392">
        <ele>1383.8000488281</ele>
        <time>2019-08-11T10:18:12.000Z</time>
      </trkpt>
      <trkpt lat="45.23737" lon="5.58401">
        <ele>1385</ele>
        <time>2019-08-11T10:18:17.000Z</time>
      </trkpt>
      <trkpt lat="45.23733" lon="5.58405">
        <ele>1385.4000244141</ele>
        <time>2019-08-11T10:18:19.000Z</time>
      </trkpt>
      <trkpt lat="45.23728" lon="5.58412">
        <ele>1385.4000244141</ele>
        <time>2019-08-11T10:18:22.000Z</time>
      </trkpt>
      <trkpt lat="45.23723" lon="5.58417">
        <ele>1385.4000244141</ele>
        <time>2019-08-11T10:18:24.000Z</time>
      </trkpt>
      <trkpt lat="45.23708" lon="5.58432">
        <ele>1385.8000488281</ele>
        <time>2019-08-11T10:18:31.000Z</time>
      </trkpt>
      <trkpt lat="45.23704" lon="5.58436">
        <ele>1386</ele>
        <time>2019-08-11T10:18:33.000Z</time>
      </trkpt>
      <trkpt lat="45.23696" lon="5.58445">
        <ele>1386.4000244141</ele>
        <time>2019-08-11T10:18:37.000Z</time>
      </trkpt>
      <trkpt lat="45.2369" lon="5.58455">
        <ele>1387.1999511719</ele>
        <time>2019-08-11T10:18:41.000Z</time>
      </trkpt>
      <trkpt lat="45.23689" lon="5.58458">
        <ele>1387.4000244141</ele>
        <time>2019-08-11T10:18:42.000Z</time>
      </trkpt>
      <trkpt lat="45.23688" lon="5.58462">
        <ele>1387.5999755859</ele>
        <time>2019-08-11T10:18:43.000Z</time>
      </trkpt>
      <trkpt lat="45.23679" lon="5.58482">
        <ele>1388.1999511719</ele>
        <time>2019-08-11T10:18:49.000Z</time>
      </trkpt>
      <trkpt lat="45.23677" lon="5.58484">
        <ele>1388.4000244141</ele>
        <time>2019-08-11T10:18:50.000Z</time>
      </trkpt>
      <trkpt lat="45.23671" lon="5.58495">
        <ele>1389.4000244141</ele>
        <time>2019-08-11T10:18:54.000Z</time>
      </trkpt>
      <trkpt lat="45.23665" lon="5.58502">
        <ele>1389.5999755859</ele>
        <time>2019-08-11T10:18:57.000Z</time>
      </trkpt>
      <trkpt lat="45.23657" lon="5.58511">
        <ele>1390.1999511719</ele>
        <time>2019-08-11T10:19:01.000Z</time>
      </trkpt>
      <trkpt lat="45.23647" lon="5.58523">
        <ele>1391</ele>
        <time>2019-08-11T10:19:06.000Z</time>
      </trkpt>
      <trkpt lat="45.23638" lon="5.58532">
        <ele>1392.1999511719</ele>
        <time>2019-08-11T10:19:10.000Z</time>
      </trkpt>
      <trkpt lat="45.23636" lon="5.58534">
        <ele>1392.1999511719</ele>
        <time>2019-08-11T10:19:11.000Z</time>
      </trkpt>
      <trkpt lat="45.23622" lon="5.58547">
        <ele>1392.8000488281</ele>
        <time>2019-08-11T10:19:17.000Z</time>
      </trkpt>
      <trkpt lat="45.23614" lon="5.58553">
        <ele>1393.1999511719</ele>
        <time>2019-08-11T10:19:21.000Z</time>
      </trkpt>
      <trkpt lat="45.23606" lon="5.5856">
        <ele>1394</ele>
        <time>2019-08-11T10:19:25.000Z</time>
      </trkpt>
      <trkpt lat="45.23597" lon="5.58569">
        <ele>1394.4000244141</ele>
        <time>2019-08-11T10:19:31.000Z</time>
      </trkpt>
      <trkpt lat="45.23595" lon="5.58571">
        <ele>1394.5999755859</ele>
        <time>2019-08-11T10:19:32.000Z</time>
      </trkpt>
      <trkpt lat="45.23586" lon="5.58581">
        <ele>1395.4000244141</ele>
        <time>2019-08-11T10:19:37.000Z</time>
      </trkpt>
      <trkpt lat="45.23582" lon="5.58585">
        <ele>1395.5999755859</ele>
        <time>2019-08-11T10:19:39.000Z</time>
      </trkpt>
      <trkpt lat="45.23571" lon="5.58597">
        <ele>1396.8000488281</ele>
        <time>2019-08-11T10:19:45.000Z</time>
      </trkpt>
      <trkpt lat="45.23567" lon="5.58604">
        <ele>1397.1999511719</ele>
        <time>2019-08-11T10:19:48.000Z</time>
      </trkpt>
      <trkpt lat="45.2356" lon="5.58613">
        <ele>1397.8000488281</ele>
        <time>2019-08-11T10:19:52.000Z</time>
      </trkpt>
      <trkpt lat="45.23555" lon="5.5862">
        <ele>1398.4000244141</ele>
        <time>2019-08-11T10:19:55.000Z</time>
      </trkpt>
      <trkpt lat="45.23551" lon="5.58626">
        <ele>1399</ele>
        <time>2019-08-11T10:19:58.000Z</time>
      </trkpt>
      <trkpt lat="45.23544" lon="5.58638">
        <ele>1399.5999755859</ele>
        <time>2019-08-11T10:20:03.000Z</time>
      </trkpt>
      <trkpt lat="45.23541" lon="5.58645">
        <ele>1400.1999511719</ele>
        <time>2019-08-11T10:20:06.000Z</time>
      </trkpt>
      <trkpt lat="45.23535" lon="5.58659">
        <ele>1401.1999511719</ele>
        <time>2019-08-11T10:20:11.000Z</time>
      </trkpt>
      <trkpt lat="45.2353" lon="5.58668">
        <ele>1402.4000244141</ele>
        <time>2019-08-11T10:20:15.000Z</time>
      </trkpt>
      <trkpt lat="45.23528" lon="5.58673">
        <ele>1402.5999755859</ele>
        <time>2019-08-11T10:20:17.000Z</time>
      </trkpt>
      <trkpt lat="45.23522" lon="5.58693">
        <ele>1404</ele>
        <time>2019-08-11T10:20:24.000Z</time>
      </trkpt>
      <trkpt lat="45.23524" lon="5.58717">
        <ele>1404.4000244141</ele>
        <time>2019-08-11T10:20:32.000Z</time>
      </trkpt>
      <trkpt lat="45.23524" lon="5.58719">
        <ele>1404.4000244141</ele>
        <time>2019-08-11T10:20:33.000Z</time>
      </trkpt>
      <trkpt lat="45.23523" lon="5.58727">
        <ele>1405.1999511719</ele>
        <time>2019-08-11T10:20:36.000Z</time>
      </trkpt>
      <trkpt lat="45.23525" lon="5.58735">
        <ele>1405.8000488281</ele>
        <time>2019-08-11T10:20:39.000Z</time>
      </trkpt>
      <trkpt lat="45.23526" lon="5.5874">
        <ele>1406.1999511719</ele>
        <time>2019-08-11T10:20:41.000Z</time>
      </trkpt>
      <trkpt lat="45.23531" lon="5.58753">
        <ele>1406.5999755859</ele>
        <time>2019-08-11T10:20:48.000Z</time>
      </trkpt>
      <trkpt lat="45.23532" lon="5.58755">
        <ele>1406.5999755859</ele>
        <time>2019-08-11T10:20:50.000Z</time>
      </trkpt>
      <trkpt lat="45.23534" lon="5.58754">
        <ele>1407</ele>
        <time>2019-08-11T10:20:53.000Z</time>
      </trkpt>
      <trkpt lat="45.23539" lon="5.58755">
        <ele>1407.4000244141</ele>
        <time>2019-08-11T10:20:57.000Z</time>
      </trkpt>
      <trkpt lat="45.23541" lon="5.58757">
        <ele>1407.8000488281</ele>
        <time>2019-08-11T10:20:59.000Z</time>
      </trkpt>
      <trkpt lat="45.23542" lon="5.58759">
        <ele>1408</ele>
        <time>2019-08-11T10:21:00.000Z</time>
      </trkpt>
      <trkpt lat="45.23545" lon="5.58761">
        <ele>1408.4000244141</ele>
        <time>2019-08-11T10:21:03.000Z</time>
      </trkpt>
      <trkpt lat="45.2355" lon="5.58761">
        <ele>1409.1999511719</ele>
        <time>2019-08-11T10:21:06.000Z</time>
      </trkpt>
      <trkpt lat="45.23553" lon="5.5876">
        <ele>1409.5999755859</ele>
        <time>2019-08-11T10:21:08.000Z</time>
      </trkpt>
      <trkpt lat="45.23557" lon="5.58762">
        <ele>1410.4000244141</ele>
        <time>2019-08-11T10:21:11.000Z</time>
      </trkpt>
      <trkpt lat="45.23558" lon="5.58762">
        <ele>1410.5999755859</ele>
        <time>2019-08-11T10:21:12.000Z</time>
      </trkpt>
      <trkpt lat="45.23559" lon="5.58763">
        <ele>1410.8000488281</ele>
        <time>2019-08-11T10:21:13.000Z</time>
      </trkpt>
      <trkpt lat="45.23565" lon="5.58765">
        <ele>1411.5999755859</ele>
        <time>2019-08-11T10:21:18.000Z</time>
      </trkpt>
      <trkpt lat="45.23567" lon="5.58765">
        <ele>1411.8000488281</ele>
        <time>2019-08-11T10:21:19.000Z</time>
      </trkpt>
      <trkpt lat="45.23568" lon="5.58765">
        <ele>1412.5999755859</ele>
        <time>2019-08-11T10:21:25.000Z</time>
      </trkpt>
      <trkpt lat="45.23568" lon="5.58765">
        <ele>1412.8000488281</ele>
        <time>2019-08-11T10:21:34.000Z</time>
      </trkpt>
      <trkpt lat="45.23568" lon="5.58765">
        <ele>1412.5999755859</ele>
        <time>2019-08-11T10:21:49.000Z</time>
      </trkpt>
      <trkpt lat="45.23568" lon="5.58765">
        <ele>1413</ele>
        <time>2019-08-11T10:21:57.000Z</time>
      </trkpt>
      <trkpt lat="45.23568" lon="5.58765">
        <ele>1412.5999755859</ele>
        <time>2019-08-11T10:22:05.000Z</time>
      </trkpt>
      <trkpt lat="45.23569" lon="5.58768">
        <ele>1413</ele>
        <time>2019-08-11T10:22:12.000Z</time>
      </trkpt>
      <trkpt lat="45.23569" lon="5.58768">
        <ele>1413.8000488281</ele>
        <time>2019-08-11T10:22:29.000Z</time>
      </trkpt>
      <trkpt lat="45.23569" lon="5.58768">
        <ele>1413.4000244141</ele>
        <time>2019-08-11T10:23:02.000Z</time>
      </trkpt>
      <trkpt lat="45.23574" lon="5.58769">
        <ele>1413.4000244141</ele>
        <time>2019-08-11T10:23:10.000Z</time>
      </trkpt>
      <trkpt lat="45.23581" lon="5.58776">
        <ele>1413.4000244141</ele>
        <time>2019-08-11T10:23:16.000Z</time>
      </trkpt>
      <trkpt lat="45.23585" lon="5.58783">
        <ele>1414</ele>
        <time>2019-08-11T10:23:21.000Z</time>
      </trkpt>
      <trkpt lat="45.23586" lon="5.58784">
        <ele>1414.1999511719</ele>
        <time>2019-08-11T10:23:22.000Z</time>
      </trkpt>
      <trkpt lat="45.2359" lon="5.58792">
        <ele>1415.1999511719</ele>
        <time>2019-08-11T10:23:26.000Z</time>
      </trkpt>
      <trkpt lat="45.23592" lon="5.58799">
        <ele>1416.4000244141</ele>
        <time>2019-08-11T10:23:29.000Z</time>
      </trkpt>
      <trkpt lat="45.23593" lon="5.58805">
        <ele>1417.4000244141</ele>
        <time>2019-08-11T10:23:32.000Z</time>
      </trkpt>
      <trkpt lat="45.23593" lon="5.58811">
        <ele>1418.5999755859</ele>
        <time>2019-08-11T10:23:35.000Z</time>
      </trkpt>
      <trkpt lat="45.23591" lon="5.58817">
        <ele>1419.5999755859</ele>
        <time>2019-08-11T10:23:38.000Z</time>
      </trkpt>
      <trkpt lat="45.23591" lon="5.58819">
        <ele>1419.8000488281</ele>
        <time>2019-08-11T10:23:39.000Z</time>
      </trkpt>
      <trkpt lat="45.23588" lon="5.58827">
        <ele>1421</ele>
        <time>2019-08-11T10:23:43.000Z</time>
      </trkpt>
      <trkpt lat="45.23586" lon="5.58828">
        <ele>1421.1999511719</ele>
        <time>2019-08-11T10:23:44.000Z</time>
      </trkpt>
      <trkpt lat="45.23585" lon="5.5883">
        <ele>1421.4000244141</ele>
        <time>2019-08-11T10:23:45.000Z</time>
      </trkpt>
      <trkpt lat="45.23581" lon="5.58832">
        <ele>1422</ele>
        <time>2019-08-11T10:23:48.000Z</time>
      </trkpt>
      <trkpt lat="45.23576" lon="5.58834">
        <ele>1423</ele>
        <time>2019-08-11T10:23:51.000Z</time>
      </trkpt>
      <trkpt lat="45.23569" lon="5.58839">
        <ele>1424</ele>
        <time>2019-08-11T10:23:58.000Z</time>
      </trkpt>
      <trkpt lat="45.23567" lon="5.5884">
        <ele>1424.1999511719</ele>
        <time>2019-08-11T10:23:59.000Z</time>
      </trkpt>
      <trkpt lat="45.23561" lon="5.58847">
        <ele>1424.5999755859</ele>
        <time>2019-08-11T10:24:06.000Z</time>
      </trkpt>
      <trkpt lat="45.23558" lon="5.5885">
        <ele>1425</ele>
        <time>2019-08-11T10:24:09.000Z</time>
      </trkpt>
      <trkpt lat="45.23555" lon="5.58855">
        <ele>1425.5999755859</ele>
        <time>2019-08-11T10:24:13.000Z</time>
      </trkpt>
      <trkpt lat="45.23552" lon="5.58859">
        <ele>1425.8000488281</ele>
        <time>2019-08-11T10:24:16.000Z</time>
      </trkpt>
      <trkpt lat="45.23549" lon="5.58864">
        <ele>1425.8000488281</ele>
        <time>2019-08-11T10:24:19.000Z</time>
      </trkpt>
      <trkpt lat="45.23547" lon="5.5887">
        <ele>1426</ele>
        <time>2019-08-11T10:24:23.000Z</time>
      </trkpt>
      <trkpt lat="45.23543" lon="5.5888">
        <ele>1426.1999511719</ele>
        <time>2019-08-11T10:24:28.000Z</time>
      </trkpt>
      <trkpt lat="45.23539" lon="5.58889">
        <ele>1427.1999511719</ele>
        <time>2019-08-11T10:24:33.000Z</time>
      </trkpt>
      <trkpt lat="45.23537" lon="5.58891">
        <ele>1427.8000488281</ele>
        <time>2019-08-11T10:24:35.000Z</time>
      </trkpt>
      <trkpt lat="45.23536" lon="5.58895">
        <ele>1428.4000244141</ele>
        <time>2019-08-11T10:24:37.000Z</time>
      </trkpt>
      <trkpt lat="45.23532" lon="5.58901">
        <ele>1429.4000244141</ele>
        <time>2019-08-11T10:24:41.000Z</time>
      </trkpt>
      <trkpt lat="45.2353" lon="5.58905">
        <ele>1430</ele>
        <time>2019-08-11T10:24:44.000Z</time>
      </trkpt>
      <trkpt lat="45.23521" lon="5.58913">
        <ele>1430.4000244141</ele>
        <time>2019-08-11T10:24:51.000Z</time>
      </trkpt>
      <trkpt lat="45.23519" lon="5.58914">
        <ele>1430.5999755859</ele>
        <time>2019-08-11T10:24:52.000Z</time>
      </trkpt>
      <trkpt lat="45.23518" lon="5.58915">
        <ele>1430.5999755859</ele>
        <time>2019-08-11T10:24:53.000Z</time>
      </trkpt>
      <trkpt lat="45.23511" lon="5.58919">
        <ele>1430.8000488281</ele>
        <time>2019-08-11T10:24:57.000Z</time>
      </trkpt>
      <trkpt lat="45.23498" lon="5.58926">
        <ele>1431.1999511719</ele>
        <time>2019-08-11T10:25:06.000Z</time>
      </trkpt>
      <trkpt lat="45.23488" lon="5.58928">
        <ele>1431.8000488281</ele>
        <time>2019-08-11T10:25:12.000Z</time>
      </trkpt>
      <trkpt lat="45.23487" lon="5.58929">
        <ele>1432.1999511719</ele>
        <time>2019-08-11T10:25:13.000Z</time>
      </trkpt>
      <trkpt lat="45.23482" lon="5.5893">
        <ele>1432.8000488281</ele>
        <time>2019-08-11T10:25:16.000Z</time>
      </trkpt>
      <trkpt lat="45.23473" lon="5.58933">
        <ele>1434.1999511719</ele>
        <time>2019-08-11T10:25:22.000Z</time>
      </trkpt>
      <trkpt lat="45.23467" lon="5.58935">
        <ele>1435.4000244141</ele>
        <time>2019-08-11T10:25:26.000Z</time>
      </trkpt>
      <trkpt lat="45.23464" lon="5.58936">
        <ele>1436.4000244141</ele>
        <time>2019-08-11T10:25:28.000Z</time>
      </trkpt>
      <trkpt lat="45.23463" lon="5.58936">
        <ele>1436.5999755859</ele>
        <time>2019-08-11T10:25:29.000Z</time>
      </trkpt>
      <trkpt lat="45.23457" lon="5.58936">
        <ele>1437.8000488281</ele>
        <time>2019-08-11T10:25:33.000Z</time>
      </trkpt>
      <trkpt lat="45.23455" lon="5.58937">
        <ele>1438.4000244141</ele>
        <time>2019-08-11T10:25:35.000Z</time>
      </trkpt>
      <trkpt lat="45.23452" lon="5.58937">
        <ele>1439</ele>
        <time>2019-08-11T10:25:37.000Z</time>
      </trkpt>
      <trkpt lat="45.23448" lon="5.58936">
        <ele>1440.4000244141</ele>
        <time>2019-08-11T10:25:40.000Z</time>
      </trkpt>
      <trkpt lat="45.23445" lon="5.58936">
        <ele>1440.8000488281</ele>
        <time>2019-08-11T10:25:42.000Z</time>
      </trkpt>
      <trkpt lat="45.23441" lon="5.58935">
        <ele>1441.4000244141</ele>
        <time>2019-08-11T10:25:45.000Z</time>
      </trkpt>
      <trkpt lat="45.23437" lon="5.58935">
        <ele>1442.4000244141</ele>
        <time>2019-08-11T10:25:48.000Z</time>
      </trkpt>
      <trkpt lat="45.23435" lon="5.58934">
        <ele>1443.1999511719</ele>
        <time>2019-08-11T10:25:50.000Z</time>
      </trkpt>
      <trkpt lat="45.23432" lon="5.58934">
        <ele>1443.4000244141</ele>
        <time>2019-08-11T10:25:52.000Z</time>
      </trkpt>
      <trkpt lat="45.23431" lon="5.58934">
        <ele>1443.8000488281</ele>
        <time>2019-08-11T10:25:53.000Z</time>
      </trkpt>
      <trkpt lat="45.23427" lon="5.58932">
        <ele>1444.1999511719</ele>
        <time>2019-08-11T10:25:57.000Z</time>
      </trkpt>
      <trkpt lat="45.23423" lon="5.5893">
        <ele>1444.5999755859</ele>
        <time>2019-08-11T10:26:01.000Z</time>
      </trkpt>
      <trkpt lat="45.23421" lon="5.58929">
        <ele>1444.8000488281</ele>
        <time>2019-08-11T10:26:03.000Z</time>
      </trkpt>
      <trkpt lat="45.23418" lon="5.58928">
        <ele>1445</ele>
        <time>2019-08-11T10:26:05.000Z</time>
      </trkpt>
      <trkpt lat="45.23409" lon="5.58927">
        <ele>1445.5999755859</ele>
        <time>2019-08-11T10:26:13.000Z</time>
      </trkpt>
      <trkpt lat="45.23401" lon="5.58928">
        <ele>1447</ele>
        <time>2019-08-11T10:26:19.000Z</time>
      </trkpt>
      <trkpt lat="45.23399" lon="5.58928">
        <ele>1447.1999511719</ele>
        <time>2019-08-11T10:26:20.000Z</time>
      </trkpt>
      <trkpt lat="45.23393" lon="5.58928">
        <ele>1448.1999511719</ele>
        <time>2019-08-11T10:26:24.000Z</time>
      </trkpt>
      <trkpt lat="45.23387" lon="5.58928">
        <ele>1449.4000244141</ele>
        <time>2019-08-11T10:26:28.000Z</time>
      </trkpt>
      <trkpt lat="45.23382" lon="5.58928">
        <ele>1450.5999755859</ele>
        <time>2019-08-11T10:26:31.000Z</time>
      </trkpt>
      <trkpt lat="45.23378" lon="5.58928">
        <ele>1451.8000488281</ele>
        <time>2019-08-11T10:26:34.000Z</time>
      </trkpt>
      <trkpt lat="45.23375" lon="5.58928">
        <ele>1452.4000244141</ele>
        <time>2019-08-11T10:26:36.000Z</time>
      </trkpt>
      <trkpt lat="45.23372" lon="5.58928">
        <ele>1453.1999511719</ele>
        <time>2019-08-11T10:26:38.000Z</time>
      </trkpt>
      <trkpt lat="45.23367" lon="5.58929">
        <ele>1454.4000244141</ele>
        <time>2019-08-11T10:26:42.000Z</time>
      </trkpt>
      <trkpt lat="45.23365" lon="5.58929">
        <ele>1454.8000488281</ele>
        <time>2019-08-11T10:26:44.000Z</time>
      </trkpt>
      <trkpt lat="45.23362" lon="5.58929">
        <ele>1455.4000244141</ele>
        <time>2019-08-11T10:26:46.000Z</time>
      </trkpt>
      <trkpt lat="45.23357" lon="5.58933">
        <ele>1455.5999755859</ele>
        <time>2019-08-11T10:26:51.000Z</time>
      </trkpt>
      <trkpt lat="45.23348" lon="5.58938">
        <ele>1456.1999511719</ele>
        <time>2019-08-11T10:26:59.000Z</time>
      </trkpt>
      <trkpt lat="45.2334" lon="5.58943">
        <ele>1456.8000488281</ele>
        <time>2019-08-11T10:27:05.000Z</time>
      </trkpt>
      <trkpt lat="45.23339" lon="5.58944">
        <ele>1457</ele>
        <time>2019-08-11T10:27:06.000Z</time>
      </trkpt>
      <trkpt lat="45.23336" lon="5.58946">
        <ele>1458.1999511719</ele>
        <time>2019-08-11T10:27:08.000Z</time>
      </trkpt>
      <trkpt lat="45.23331" lon="5.58949">
        <ele>1459.1999511719</ele>
        <time>2019-08-11T10:27:12.000Z</time>
      </trkpt>
      <trkpt lat="45.23327" lon="5.58952">
        <ele>1459.4000244141</ele>
        <time>2019-08-11T10:27:15.000Z</time>
      </trkpt>
      <trkpt lat="45.2332" lon="5.58959">
        <ele>1460.4000244141</ele>
        <time>2019-08-11T10:27:21.000Z</time>
      </trkpt>
      <trkpt lat="45.23316" lon="5.58963">
        <ele>1461.4000244141</ele>
        <time>2019-08-11T10:27:25.000Z</time>
      </trkpt>
      <trkpt lat="45.23308" lon="5.5897">
        <ele>1462.8000488281</ele>
        <time>2019-08-11T10:27:32.000Z</time>
      </trkpt>
      <trkpt lat="45.23308" lon="5.58972">
        <ele>1463</ele>
        <time>2019-08-11T10:27:33.000Z</time>
      </trkpt>
      <trkpt lat="45.23306" lon="5.58974">
        <ele>1464</ele>
        <time>2019-08-11T10:27:35.000Z</time>
      </trkpt>
      <trkpt lat="45.23302" lon="5.58979">
        <ele>1465</ele>
        <time>2019-08-11T10:27:39.000Z</time>
      </trkpt>
      <trkpt lat="45.23301" lon="5.5898">
        <ele>1465</ele>
        <time>2019-08-11T10:27:40.000Z</time>
      </trkpt>
      <trkpt lat="45.23296" lon="5.58988">
        <ele>1466</ele>
        <time>2019-08-11T10:27:46.000Z</time>
      </trkpt>
      <trkpt lat="45.23294" lon="5.5899">
        <ele>1466.4000244141</ele>
        <time>2019-08-11T10:27:48.000Z</time>
      </trkpt>
      <trkpt lat="45.23291" lon="5.58994">
        <ele>1467.5999755859</ele>
        <time>2019-08-11T10:27:52.000Z</time>
      </trkpt>
      <trkpt lat="45.23289" lon="5.58997">
        <ele>1468</ele>
        <time>2019-08-11T10:27:54.000Z</time>
      </trkpt>
      <trkpt lat="45.23287" lon="5.59003">
        <ele>1469</ele>
        <time>2019-08-11T10:27:58.000Z</time>
      </trkpt>
      <trkpt lat="45.23284" lon="5.59006">
        <ele>1469.4000244141</ele>
        <time>2019-08-11T10:28:01.000Z</time>
      </trkpt>
      <trkpt lat="45.23279" lon="5.59012">
        <ele>1469.5999755859</ele>
        <time>2019-08-11T10:28:06.000Z</time>
      </trkpt>
      <trkpt lat="45.23278" lon="5.59014">
        <ele>1469.8000488281</ele>
        <time>2019-08-11T10:28:08.000Z</time>
      </trkpt>
      <trkpt lat="45.23277" lon="5.59015">
        <ele>1470</ele>
        <time>2019-08-11T10:28:09.000Z</time>
      </trkpt>
      <trkpt lat="45.23275" lon="5.59015">
        <ele>1470.1999511719</ele>
        <time>2019-08-11T10:28:10.000Z</time>
      </trkpt>
      <trkpt lat="45.23273" lon="5.59016">
        <ele>1471</ele>
        <time>2019-08-11T10:28:12.000Z</time>
      </trkpt>
      <trkpt lat="45.23271" lon="5.59017">
        <ele>1471.4000244141</ele>
        <time>2019-08-11T10:28:13.000Z</time>
      </trkpt>
      <trkpt lat="45.23269" lon="5.59019">
        <ele>1471.8000488281</ele>
        <time>2019-08-11T10:28:15.000Z</time>
      </trkpt>
      <trkpt lat="45.23261" lon="5.59026">
        <ele>1471.5999755859</ele>
        <time>2019-08-11T10:28:23.000Z</time>
      </trkpt>
      <trkpt lat="45.23256" lon="5.59027">
        <ele>1471.1999511719</ele>
        <time>2019-08-11T10:28:27.000Z</time>
      </trkpt>
      <trkpt lat="45.23254" lon="5.5903">
        <ele>1471</ele>
        <time>2019-08-11T10:28:29.000Z</time>
      </trkpt>
      <trkpt lat="45.23245" lon="5.5903">
        <ele>1472.4000244141</ele>
        <time>2019-08-11T10:28:34.000Z</time>
      </trkpt>
      <trkpt lat="45.23241" lon="5.59031">
        <ele>1473.5999755859</ele>
        <time>2019-08-11T10:28:37.000Z</time>
      </trkpt>
      <trkpt lat="45.23231" lon="5.59031">
        <ele>1474.5999755859</ele>
        <time>2019-08-11T10:28:43.000Z</time>
      </trkpt>
      <trkpt lat="45.2323" lon="5.59031">
        <ele>1474.8000488281</ele>
        <time>2019-08-11T10:28:44.000Z</time>
      </trkpt>
      <trkpt lat="45.23222" lon="5.59031">
        <ele>1476</ele>
        <time>2019-08-11T10:28:49.000Z</time>
      </trkpt>
      <trkpt lat="45.23219" lon="5.59032">
        <ele>1476.4000244141</ele>
        <time>2019-08-11T10:28:51.000Z</time>
      </trkpt>
      <trkpt lat="45.23217" lon="5.59033">
        <ele>1477</ele>
        <time>2019-08-11T10:28:53.000Z</time>
      </trkpt>
      <trkpt lat="45.23213" lon="5.59034">
        <ele>1478.1999511719</ele>
        <time>2019-08-11T10:28:56.000Z</time>
      </trkpt>
      <trkpt lat="45.23208" lon="5.59037">
        <ele>1479.1999511719</ele>
        <time>2019-08-11T10:29:00.000Z</time>
      </trkpt>
      <trkpt lat="45.23207" lon="5.59038">
        <ele>1479.5999755859</ele>
        <time>2019-08-11T10:29:01.000Z</time>
      </trkpt>
      <trkpt lat="45.23203" lon="5.59041">
        <ele>1480.1999511719</ele>
        <time>2019-08-11T10:29:04.000Z</time>
      </trkpt>
      <trkpt lat="45.23202" lon="5.59042">
        <ele>1481</ele>
        <time>2019-08-11T10:29:07.000Z</time>
      </trkpt>
      <trkpt lat="45.23202" lon="5.59042">
        <ele>1481.1999511719</ele>
        <time>2019-08-11T10:29:08.000Z</time>
      </trkpt>
      <trkpt lat="45.23201" lon="5.59042">
        <ele>1482</ele>
        <time>2019-08-11T10:29:18.000Z</time>
      </trkpt>
      <trkpt lat="45.23199" lon="5.59043">
        <ele>1482</ele>
        <time>2019-08-11T10:29:38.000Z</time>
      </trkpt>
      <trkpt lat="45.23196" lon="5.59046">
        <ele>1482.5999755859</ele>
        <time>2019-08-11T10:29:43.000Z</time>
      </trkpt>
      <trkpt lat="45.23193" lon="5.5905">
        <ele>1483.5999755859</ele>
        <time>2019-08-11T10:29:48.000Z</time>
      </trkpt>
      <trkpt lat="45.23192" lon="5.5905">
        <ele>1483.8000488281</ele>
        <time>2019-08-11T10:29:49.000Z</time>
      </trkpt>
      <trkpt lat="45.2319" lon="5.59053">
        <ele>1484.8000488281</ele>
        <time>2019-08-11T10:29:53.000Z</time>
      </trkpt>
      <trkpt lat="45.23188" lon="5.59055">
        <ele>1485.5999755859</ele>
        <time>2019-08-11T10:29:56.000Z</time>
      </trkpt>
      <trkpt lat="45.23187" lon="5.59056">
        <ele>1486</ele>
        <time>2019-08-11T10:29:58.000Z</time>
      </trkpt>
      <trkpt lat="45.23183" lon="5.59063">
        <ele>1487</ele>
        <time>2019-08-11T10:30:06.000Z</time>
      </trkpt>
      <trkpt lat="45.23183" lon="5.59065">
        <ele>1487.1999511719</ele>
        <time>2019-08-11T10:30:08.000Z</time>
      </trkpt>
      <trkpt lat="45.23181" lon="5.59071">
        <ele>1488.1999511719</ele>
        <time>2019-08-11T10:30:15.000Z</time>
      </trkpt>
      <trkpt lat="45.23179" lon="5.59075">
        <ele>1489.4000244141</ele>
        <time>2019-08-11T10:30:21.000Z</time>
      </trkpt>
      <trkpt lat="45.23178" lon="5.59079">
        <ele>1490.4000244141</ele>
        <time>2019-08-11T10:30:25.000Z</time>
      </trkpt>
      <trkpt lat="45.23178" lon="5.59081">
        <ele>1490.4000244141</ele>
        <time>2019-08-11T10:30:27.000Z</time>
      </trkpt>
      <trkpt lat="45.23176" lon="5.59085">
        <ele>1491.8000488281</ele>
        <time>2019-08-11T10:30:32.000Z</time>
      </trkpt>
      <trkpt lat="45.23176" lon="5.59087">
        <ele>1492.5999755859</ele>
        <time>2019-08-11T10:30:36.000Z</time>
      </trkpt>
      <trkpt lat="45.23175" lon="5.5909">
        <ele>1492.8000488281</ele>
        <time>2019-08-11T10:30:39.000Z</time>
      </trkpt>
      <trkpt lat="45.23174" lon="5.59093">
        <ele>1493.4000244141</ele>
        <time>2019-08-11T10:30:43.000Z</time>
      </trkpt>
      <trkpt lat="45.23172" lon="5.59096">
        <ele>1493.8000488281</ele>
        <time>2019-08-11T10:30:47.000Z</time>
      </trkpt>
      <trkpt lat="45.23171" lon="5.59101">
        <ele>1494.5999755859</ele>
        <time>2019-08-11T10:30:52.000Z</time>
      </trkpt>
      <trkpt lat="45.2317" lon="5.59102">
        <ele>1495.1999511719</ele>
        <time>2019-08-11T10:30:54.000Z</time>
      </trkpt>
      <trkpt lat="45.23169" lon="5.59107">
        <ele>1496</ele>
        <time>2019-08-11T10:31:00.000Z</time>
      </trkpt>
      <trkpt lat="45.23168" lon="5.59107">
        <ele>1496.1999511719</ele>
        <time>2019-08-11T10:31:01.000Z</time>
      </trkpt>
      <trkpt lat="45.23166" lon="5.59114">
        <ele>1497.1999511719</ele>
        <time>2019-08-11T10:31:09.000Z</time>
      </trkpt>
      <trkpt lat="45.23166" lon="5.59115">
        <ele>1497.4000244141</ele>
        <time>2019-08-11T10:31:11.000Z</time>
      </trkpt>
      <trkpt lat="45.23164" lon="5.59119">
        <ele>1498.5999755859</ele>
        <time>2019-08-11T10:31:16.000Z</time>
      </trkpt>
      <trkpt lat="45.23164" lon="5.59119">
        <ele>1499</ele>
        <time>2019-08-11T10:31:17.000Z</time>
      </trkpt>
      <trkpt lat="45.23162" lon="5.59123">
        <ele>1499.8000488281</ele>
        <time>2019-08-11T10:31:21.000Z</time>
      </trkpt>
      <trkpt lat="45.23161" lon="5.59127">
        <ele>1500.5999755859</ele>
        <time>2019-08-11T10:31:26.000Z</time>
      </trkpt>
      <trkpt lat="45.2316" lon="5.5913">
        <ele>1500.8000488281</ele>
        <time>2019-08-11T10:31:29.000Z</time>
      </trkpt>
      <trkpt lat="45.2316" lon="5.59134">
        <ele>1501.5999755859</ele>
        <time>2019-08-11T10:31:33.000Z</time>
      </trkpt>
      <trkpt lat="45.23159" lon="5.59137">
        <ele>1501.8000488281</ele>
        <time>2019-08-11T10:31:36.000Z</time>
      </trkpt>
      <trkpt lat="45.23159" lon="5.59145">
        <ele>1502.5999755859</ele>
        <time>2019-08-11T10:31:43.000Z</time>
      </trkpt>
      <trkpt lat="45.2316" lon="5.59152">
        <ele>1503</ele>
        <time>2019-08-11T10:31:48.000Z</time>
      </trkpt>
      <trkpt lat="45.23161" lon="5.59159">
        <ele>1503.8000488281</ele>
        <time>2019-08-11T10:31:53.000Z</time>
      </trkpt>
      <trkpt lat="45.23161" lon="5.5916">
        <ele>1504.1999511719</ele>
        <time>2019-08-11T10:31:54.000Z</time>
      </trkpt>
      <trkpt lat="45.23166" lon="5.59168">
        <ele>1504.4000244141</ele>
        <time>2019-08-11T10:32:02.000Z</time>
      </trkpt>
      <trkpt lat="45.23173" lon="5.59173">
        <ele>1505.4000244141</ele>
        <time>2019-08-11T10:32:10.000Z</time>
      </trkpt>
      <trkpt lat="45.23174" lon="5.59173">
        <ele>1505.5999755859</ele>
        <time>2019-08-11T10:32:11.000Z</time>
      </trkpt>
      <trkpt lat="45.23175" lon="5.59174">
        <ele>1506</ele>
        <time>2019-08-11T10:32:13.000Z</time>
      </trkpt>
      <trkpt lat="45.23176" lon="5.59175">
        <ele>1506.5999755859</ele>
        <time>2019-08-11T10:32:16.000Z</time>
      </trkpt>
      <trkpt lat="45.23182" lon="5.59178">
        <ele>1507.5999755859</ele>
        <time>2019-08-11T10:32:22.000Z</time>
      </trkpt>
      <trkpt lat="45.23184" lon="5.59178">
        <ele>1507.5999755859</ele>
        <time>2019-08-11T10:32:23.000Z</time>
      </trkpt>
      <trkpt lat="45.23185" lon="5.59179">
        <ele>1507.8000488281</ele>
        <time>2019-08-11T10:32:24.000Z</time>
      </trkpt>
      <trkpt lat="45.23188" lon="5.5918">
        <ele>1508.1999511719</ele>
        <time>2019-08-11T10:32:27.000Z</time>
      </trkpt>
      <trkpt lat="45.23191" lon="5.59181">
        <ele>1508.8000488281</ele>
        <time>2019-08-11T10:32:29.000Z</time>
      </trkpt>
      <trkpt lat="45.23192" lon="5.59181">
        <ele>1509.1999511719</ele>
        <time>2019-08-11T10:32:30.000Z</time>
      </trkpt>
      <trkpt lat="45.23196" lon="5.59182">
        <ele>1509.8000488281</ele>
        <time>2019-08-11T10:32:33.000Z</time>
      </trkpt>
      <trkpt lat="45.232" lon="5.59183">
        <ele>1511</ele>
        <time>2019-08-11T10:32:37.000Z</time>
      </trkpt>
      <trkpt lat="45.23202" lon="5.59184">
        <ele>1511.1999511719</ele>
        <time>2019-08-11T10:32:38.000Z</time>
      </trkpt>
      <trkpt lat="45.23205" lon="5.59185">
        <ele>1512.1999511719</ele>
        <time>2019-08-11T10:32:41.000Z</time>
      </trkpt>
      <trkpt lat="45.2321" lon="5.59188">
        <ele>1513.4000244141</ele>
        <time>2019-08-11T10:32:46.000Z</time>
      </trkpt>
      <trkpt lat="45.23211" lon="5.59189">
        <ele>1513.5999755859</ele>
        <time>2019-08-11T10:32:47.000Z</time>
      </trkpt>
      <trkpt lat="45.23214" lon="5.59194">
        <ele>1514.4000244141</ele>
        <time>2019-08-11T10:32:51.000Z</time>
      </trkpt>
      <trkpt lat="45.23217" lon="5.59199">
        <ele>1515.5999755859</ele>
        <time>2019-08-11T10:32:55.000Z</time>
      </trkpt>
      <trkpt lat="45.23217" lon="5.59209">
        <ele>1516.5999755859</ele>
        <time>2019-08-11T10:33:01.000Z</time>
      </trkpt>
      <trkpt lat="45.23213" lon="5.5922">
        <ele>1517.5999755859</ele>
        <time>2019-08-11T10:33:08.000Z</time>
      </trkpt>
      <trkpt lat="45.23213" lon="5.59221">
        <ele>1517.8000488281</ele>
        <time>2019-08-11T10:33:09.000Z</time>
      </trkpt>
      <trkpt lat="45.23208" lon="5.59228">
        <ele>1519</ele>
        <time>2019-08-11T10:33:14.000Z</time>
      </trkpt>
      <trkpt lat="45.23204" lon="5.59232">
        <ele>1519.5999755859</ele>
        <time>2019-08-11T10:33:18.000Z</time>
      </trkpt>
      <trkpt lat="45.23204" lon="5.59232">
        <ele>1520.1999511719</ele>
        <time>2019-08-11T10:33:20.000Z</time>
      </trkpt>
      <trkpt lat="45.23204" lon="5.59232">
        <ele>1520.4000244141</ele>
        <time>2019-08-11T10:33:25.000Z</time>
      </trkpt>
      <trkpt lat="45.23204" lon="5.59233">
        <ele>1520.5999755859</ele>
        <time>2019-08-11T10:33:31.000Z</time>
      </trkpt>
      <trkpt lat="45.23204" lon="5.59233">
        <ele>1520.5999755859</ele>
        <time>2019-08-11T10:33:40.000Z</time>
      </trkpt>
      <trkpt lat="45.23204" lon="5.59233">
        <ele>1520.1999511719</ele>
        <time>2019-08-11T10:33:52.000Z</time>
      </trkpt>
      <trkpt lat="45.23202" lon="5.59236">
        <ele>1520.1999511719</ele>
        <time>2019-08-11T10:33:57.000Z</time>
      </trkpt>
      <trkpt lat="45.232" lon="5.59239">
        <ele>1521.4000244141</ele>
        <time>2019-08-11T10:34:02.000Z</time>
      </trkpt>
      <trkpt lat="45.23199" lon="5.5924">
        <ele>1521.5999755859</ele>
        <time>2019-08-11T10:34:03.000Z</time>
      </trkpt>
      <trkpt lat="45.23196" lon="5.59244">
        <ele>1522.4000244141</ele>
        <time>2019-08-11T10:34:09.000Z</time>
      </trkpt>
      <trkpt lat="45.23194" lon="5.59247">
        <ele>1522.8000488281</ele>
        <time>2019-08-11T10:34:12.000Z</time>
      </trkpt>
      <trkpt lat="45.23192" lon="5.5925">
        <ele>1523.5999755859</ele>
        <time>2019-08-11T10:34:16.000Z</time>
      </trkpt>
      <trkpt lat="45.2319" lon="5.59253">
        <ele>1524.1999511719</ele>
        <time>2019-08-11T10:34:20.000Z</time>
      </trkpt>
      <trkpt lat="45.23189" lon="5.59254">
        <ele>1524.8000488281</ele>
        <time>2019-08-11T10:34:22.000Z</time>
      </trkpt>
      <trkpt lat="45.23186" lon="5.59258">
        <ele>1525.5999755859</ele>
        <time>2019-08-11T10:34:27.000Z</time>
      </trkpt>
      <trkpt lat="45.23185" lon="5.5926">
        <ele>1525.8000488281</ele>
        <time>2019-08-11T10:34:29.000Z</time>
      </trkpt>
      <trkpt lat="45.23183" lon="5.59264">
        <ele>1527</ele>
        <time>2019-08-11T10:34:34.000Z</time>
      </trkpt>
      <trkpt lat="45.23182" lon="5.59265">
        <ele>1527</ele>
        <time>2019-08-11T10:34:35.000Z</time>
      </trkpt>
      <trkpt lat="45.2318" lon="5.59268">
        <ele>1528</ele>
        <time>2019-08-11T10:34:40.000Z</time>
      </trkpt>
      <trkpt lat="45.23179" lon="5.5927">
        <ele>1528.4000244141</ele>
        <time>2019-08-11T10:34:43.000Z</time>
      </trkpt>
      <trkpt lat="45.23177" lon="5.59273">
        <ele>1529</ele>
        <time>2019-08-11T10:34:48.000Z</time>
      </trkpt>
      <trkpt lat="45.23176" lon="5.59275">
        <ele>1529.4000244141</ele>
        <time>2019-08-11T10:34:51.000Z</time>
      </trkpt>
      <trkpt lat="45.23175" lon="5.59278">
        <ele>1530.1999511719</ele>
        <time>2019-08-11T10:34:55.000Z</time>
      </trkpt>
      <trkpt lat="45.23173" lon="5.59281">
        <ele>1530.8000488281</ele>
        <time>2019-08-11T10:34:59.000Z</time>
      </trkpt>
      <trkpt lat="45.23172" lon="5.59284">
        <ele>1531.4000244141</ele>
        <time>2019-08-11T10:35:03.000Z</time>
      </trkpt>
      <trkpt lat="45.23169" lon="5.59288">
        <ele>1532.4000244141</ele>
        <time>2019-08-11T10:35:08.000Z</time>
      </trkpt>
      <trkpt lat="45.23168" lon="5.59289">
        <ele>1533</ele>
        <time>2019-08-11T10:35:10.000Z</time>
      </trkpt>
      <trkpt lat="45.23167" lon="5.59292">
        <ele>1533.5999755859</ele>
        <time>2019-08-11T10:35:14.000Z</time>
      </trkpt>
      <trkpt lat="45.23165" lon="5.59294">
        <ele>1534.4000244141</ele>
        <time>2019-08-11T10:35:19.000Z</time>
      </trkpt>
      <trkpt lat="45.23163" lon="5.59296">
        <ele>1534.5999755859</ele>
        <time>2019-08-11T10:35:22.000Z</time>
      </trkpt>
      <trkpt lat="45.23162" lon="5.59299">
        <ele>1535.8000488281</ele>
        <time>2019-08-11T10:35:27.000Z</time>
      </trkpt>
      <trkpt lat="45.23161" lon="5.593">
        <ele>1536</ele>
        <time>2019-08-11T10:35:28.000Z</time>
      </trkpt>
      <trkpt lat="45.23159" lon="5.59303">
        <ele>1536.8000488281</ele>
        <time>2019-08-11T10:35:34.000Z</time>
      </trkpt>
      <trkpt lat="45.23158" lon="5.59303">
        <ele>1537</ele>
        <time>2019-08-11T10:35:35.000Z</time>
      </trkpt>
      <trkpt lat="45.23156" lon="5.59307">
        <ele>1538.1999511719</ele>
        <time>2019-08-11T10:35:41.000Z</time>
      </trkpt>
      <trkpt lat="45.23155" lon="5.59308">
        <ele>1538.1999511719</ele>
        <time>2019-08-11T10:35:42.000Z</time>
      </trkpt>
      <trkpt lat="45.23151" lon="5.59316">
        <ele>1539.4000244141</ele>
        <time>2019-08-11T10:35:51.000Z</time>
      </trkpt>
      <trkpt lat="45.23149" lon="5.59321">
        <ele>1540.4000244141</ele>
        <time>2019-08-11T10:35:57.000Z</time>
      </trkpt>
      <trkpt lat="45.23148" lon="5.59322">
        <ele>1540.4000244141</ele>
        <time>2019-08-11T10:35:58.000Z</time>
      </trkpt>
      <trkpt lat="45.23145" lon="5.59328">
        <ele>1541.4000244141</ele>
        <time>2019-08-11T10:36:05.000Z</time>
      </trkpt>
      <trkpt lat="45.23144" lon="5.5933">
        <ele>1541.4000244141</ele>
        <time>2019-08-11T10:36:07.000Z</time>
      </trkpt>
      <trkpt lat="45.23138" lon="5.59339">
        <ele>1542.1999511719</ele>
        <time>2019-08-11T10:36:15.000Z</time>
      </trkpt>
      <trkpt lat="45.23137" lon="5.59341">
        <ele>1542.4000244141</ele>
        <time>2019-08-11T10:36:17.000Z</time>
      </trkpt>
      <trkpt lat="45.23136" lon="5.59341">
        <ele>1542.4000244141</ele>
        <time>2019-08-11T10:36:18.000Z</time>
      </trkpt>
      <trkpt lat="45.23136" lon="5.59342">
        <ele>1542.5999755859</ele>
        <time>2019-08-11T10:36:21.000Z</time>
      </trkpt>
      <trkpt lat="45.23135" lon="5.59342">
        <ele>1542.4000244141</ele>
        <time>2019-08-11T10:36:33.000Z</time>
      </trkpt>
      <trkpt lat="45.23135" lon="5.59342">
        <ele>1542.8000488281</ele>
        <time>2019-08-11T10:37:01.000Z</time>
      </trkpt>
      <trkpt lat="45.23136" lon="5.59342">
        <ele>1542.4000244141</ele>
        <time>2019-08-11T10:37:27.000Z</time>
      </trkpt>
      <trkpt lat="45.23136" lon="5.59342">
        <ele>1542.4000244141</ele>
        <time>2019-08-11T10:37:41.000Z</time>
      </trkpt>
      <trkpt lat="45.23136" lon="5.59342">
        <ele>1542.5999755859</ele>
        <time>2019-08-11T10:38:12.000Z</time>
      </trkpt>
      <trkpt lat="45.23135" lon="5.59341">
        <ele>1542.4000244141</ele>
        <time>2019-08-11T10:38:27.000Z</time>
      </trkpt>
      <trkpt lat="45.23135" lon="5.59341">
        <ele>1542.1999511719</ele>
        <time>2019-08-11T10:38:34.000Z</time>
      </trkpt>
      <trkpt lat="45.23135" lon="5.59341">
        <ele>1542.4000244141</ele>
        <time>2019-08-11T10:38:47.000Z</time>
      </trkpt>
      <trkpt lat="45.2313" lon="5.59338">
        <ele>1542.4000244141</ele>
        <time>2019-08-11T10:39:02.000Z</time>
      </trkpt>
      <trkpt lat="45.23118" lon="5.59335">
        <ele>1542.1999511719</ele>
        <time>2019-08-11T10:39:08.000Z</time>
      </trkpt>
      <trkpt lat="45.23108" lon="5.59333">
        <ele>1542.8000488281</ele>
        <time>2019-08-11T10:39:15.000Z</time>
      </trkpt>
      <trkpt lat="45.23099" lon="5.59329">
        <ele>1543.5999755859</ele>
        <time>2019-08-11T10:39:21.000Z</time>
      </trkpt>
      <trkpt lat="45.23094" lon="5.59326">
        <ele>1544</ele>
        <time>2019-08-11T10:39:24.000Z</time>
      </trkpt>
      <trkpt lat="45.23092" lon="5.59324">
        <ele>1544.4000244141</ele>
        <time>2019-08-11T10:39:26.000Z</time>
      </trkpt>
      <trkpt lat="45.2309" lon="5.59324">
        <ele>1544.8000488281</ele>
        <time>2019-08-11T10:39:27.000Z</time>
      </trkpt>
      <trkpt lat="45.23086" lon="5.59323">
        <ele>1545.5999755859</ele>
        <time>2019-08-11T10:39:30.000Z</time>
      </trkpt>
      <trkpt lat="45.23084" lon="5.59322">
        <ele>1545.8000488281</ele>
        <time>2019-08-11T10:39:31.000Z</time>
      </trkpt>
      <trkpt lat="45.23078" lon="5.59321">
        <ele>1547</ele>
        <time>2019-08-11T10:39:36.000Z</time>
      </trkpt>
      <trkpt lat="45.23076" lon="5.5932">
        <ele>1547.1999511719</ele>
        <time>2019-08-11T10:39:37.000Z</time>
      </trkpt>
      <trkpt lat="45.23073" lon="5.59321">
        <ele>1548</ele>
        <time>2019-08-11T10:39:40.000Z</time>
      </trkpt>
      <trkpt lat="45.23069" lon="5.59321">
        <ele>1549</ele>
        <time>2019-08-11T10:39:43.000Z</time>
      </trkpt>
      <trkpt lat="45.23065" lon="5.59322">
        <ele>1549.8000488281</ele>
        <time>2019-08-11T10:39:46.000Z</time>
      </trkpt>
      <trkpt lat="45.23064" lon="5.59322">
        <ele>1550</ele>
        <time>2019-08-11T10:39:47.000Z</time>
      </trkpt>
      <trkpt lat="45.23058" lon="5.59324">
        <ele>1551.4000244141</ele>
        <time>2019-08-11T10:39:52.000Z</time>
      </trkpt>
      <trkpt lat="45.23057" lon="5.59325">
        <ele>1551.5999755859</ele>
        <time>2019-08-11T10:39:53.000Z</time>
      </trkpt>
      <trkpt lat="45.23053" lon="5.59326">
        <ele>1552.4000244141</ele>
        <time>2019-08-11T10:39:57.000Z</time>
      </trkpt>
      <trkpt lat="45.23048" lon="5.59324">
        <ele>1553.4000244141</ele>
        <time>2019-08-11T10:40:01.000Z</time>
      </trkpt>
      <trkpt lat="45.23041" lon="5.59324">
        <ele>1554.5999755859</ele>
        <time>2019-08-11T10:40:06.000Z</time>
      </trkpt>
      <trkpt lat="45.23038" lon="5.59325">
        <ele>1555.4000244141</ele>
        <time>2019-08-11T10:40:09.000Z</time>
      </trkpt>
      <trkpt lat="45.23037" lon="5.59326">
        <ele>1555.8000488281</ele>
        <time>2019-08-11T10:40:10.000Z</time>
      </trkpt>
      <trkpt lat="45.23036" lon="5.59327">
        <ele>1556</ele>
        <time>2019-08-11T10:40:12.000Z</time>
      </trkpt>
      <trkpt lat="45.23033" lon="5.5933">
        <ele>1556.4000244141</ele>
        <time>2019-08-11T10:40:15.000Z</time>
      </trkpt>
      <trkpt lat="45.23028" lon="5.59333">
        <ele>1557</ele>
        <time>2019-08-11T10:40:19.000Z</time>
      </trkpt>
      <trkpt lat="45.23024" lon="5.59335">
        <ele>1557.5999755859</ele>
        <time>2019-08-11T10:40:23.000Z</time>
      </trkpt>
      <trkpt lat="45.23021" lon="5.59336">
        <ele>1558</ele>
        <time>2019-08-11T10:40:25.000Z</time>
      </trkpt>
      <trkpt lat="45.23013" lon="5.59337">
        <ele>1558.4000244141</ele>
        <time>2019-08-11T10:40:32.000Z</time>
      </trkpt>
      <trkpt lat="45.23002" lon="5.59335">
        <ele>1558.8000488281</ele>
        <time>2019-08-11T10:40:40.000Z</time>
      </trkpt>
      <trkpt lat="45.22998" lon="5.59337">
        <ele>1559.1999511719</ele>
        <time>2019-08-11T10:40:43.000Z</time>
      </trkpt>
      <trkpt lat="45.22988" lon="5.59335">
        <ele>1560.1999511719</ele>
        <time>2019-08-11T10:40:50.000Z</time>
      </trkpt>
      <trkpt lat="45.22986" lon="5.59334">
        <ele>1560.1999511719</ele>
        <time>2019-08-11T10:40:51.000Z</time>
      </trkpt>
      <trkpt lat="45.22976" lon="5.59331">
        <ele>1560.8000488281</ele>
        <time>2019-08-11T10:40:58.000Z</time>
      </trkpt>
      <trkpt lat="45.2297" lon="5.59333">
        <ele>1561.4000244141</ele>
        <time>2019-08-11T10:41:02.000Z</time>
      </trkpt>
      <trkpt lat="45.22964" lon="5.59339">
        <ele>1561.8000488281</ele>
        <time>2019-08-11T10:41:07.000Z</time>
      </trkpt>
      <trkpt lat="45.22954" lon="5.59343">
        <ele>1562.4000244141</ele>
        <time>2019-08-11T10:41:14.000Z</time>
      </trkpt>
      <trkpt lat="45.22953" lon="5.59345">
        <ele>1562.4000244141</ele>
        <time>2019-08-11T10:41:15.000Z</time>
      </trkpt>
      <trkpt lat="45.22944" lon="5.59354">
        <ele>1563.4000244141</ele>
        <time>2019-08-11T10:41:22.000Z</time>
      </trkpt>
      <trkpt lat="45.2294" lon="5.59356">
        <ele>1564.4000244141</ele>
        <time>2019-08-11T10:41:25.000Z</time>
      </trkpt>
      <trkpt lat="45.22932" lon="5.5936">
        <ele>1565</ele>
        <time>2019-08-11T10:41:30.000Z</time>
      </trkpt>
      <trkpt lat="45.22925" lon="5.59363">
        <ele>1565.1999511719</ele>
        <time>2019-08-11T10:41:36.000Z</time>
      </trkpt>
      <trkpt lat="45.22925" lon="5.59363">
        <ele>1565.4000244141</ele>
        <time>2019-08-11T10:41:40.000Z</time>
      </trkpt>
      <trkpt lat="45.22926" lon="5.59363">
        <ele>1565.4000244141</ele>
        <time>2019-08-11T10:41:48.000Z</time>
      </trkpt>
      <trkpt lat="45.22923" lon="5.59366">
        <ele>1565.4000244141</ele>
        <time>2019-08-11T10:41:58.000Z</time>
      </trkpt>
      <trkpt lat="45.22913" lon="5.59372">
        <ele>1565.4000244141</ele>
        <time>2019-08-11T10:42:04.000Z</time>
      </trkpt>
      <trkpt lat="45.22902" lon="5.59379">
        <ele>1565.5999755859</ele>
        <time>2019-08-11T10:42:09.000Z</time>
      </trkpt>
      <trkpt lat="45.22882" lon="5.59386">
        <ele>1565</ele>
        <time>2019-08-11T10:42:16.000Z</time>
      </trkpt>
      <trkpt lat="45.22871" lon="5.59386">
        <ele>1564.5999755859</ele>
        <time>2019-08-11T10:42:21.000Z</time>
      </trkpt>
      <trkpt lat="45.22869" lon="5.59385">
        <ele>1564.5999755859</ele>
        <time>2019-08-11T10:42:22.000Z</time>
      </trkpt>
      <trkpt lat="45.22865" lon="5.5938">
        <ele>1564.5999755859</ele>
        <time>2019-08-11T10:42:24.000Z</time>
      </trkpt>
      <trkpt lat="45.2287" lon="5.59369">
        <ele>1564.5999755859</ele>
        <time>2019-08-11T10:42:28.000Z</time>
      </trkpt>
      <trkpt lat="45.22877" lon="5.59366">
        <ele>1564.8000488281</ele>
        <time>2019-08-11T10:42:31.000Z</time>
      </trkpt>
      <trkpt lat="45.22882" lon="5.59366">
        <ele>1565</ele>
        <time>2019-08-11T10:42:33.000Z</time>
      </trkpt>
      <trkpt lat="45.22885" lon="5.59364">
        <ele>1565</ele>
        <time>2019-08-11T10:42:37.000Z</time>
      </trkpt>
      <trkpt lat="45.22888" lon="5.59362">
        <ele>1565</ele>
        <time>2019-08-11T10:42:43.000Z</time>
      </trkpt>
      <trkpt lat="45.22889" lon="5.59362">
        <ele>1565.1999511719</ele>
        <time>2019-08-11T10:42:55.000Z</time>
      </trkpt>
      <trkpt lat="45.22889" lon="5.59363">
        <ele>1565.4000244141</ele>
        <time>2019-08-11T10:43:19.000Z</time>
      </trkpt>
      <trkpt lat="45.22889" lon="5.59362">
        <ele>1564.8000488281</ele>
        <time>2019-08-11T10:44:03.000Z</time>
      </trkpt>
      <trkpt lat="45.22889" lon="5.59362">
        <ele>1564.5999755859</ele>
        <time>2019-08-11T10:44:54.000Z</time>
      </trkpt>
      <trkpt lat="45.22889" lon="5.59362">
        <ele>1564.8000488281</ele>
        <time>2019-08-11T10:45:24.000Z</time>
      </trkpt>
      <trkpt lat="45.22889" lon="5.59362">
        <ele>1564.4000244141</ele>
        <time>2019-08-11T10:45:56.000Z</time>
      </trkpt>
      <trkpt lat="45.22889" lon="5.59362">
        <ele>1564.4000244141</ele>
        <time>2019-08-11T10:45:59.000Z</time>
      </trkpt>
      <trkpt lat="45.22889" lon="5.59362">
        <ele>1565.5999755859</ele>
        <time>2019-08-11T10:46:47.000Z</time>
      </trkpt>
      <trkpt lat="45.22889" lon="5.59362">
        <ele>1565.5999755859</ele>
        <time>2019-08-11T10:46:59.000Z</time>
      </trkpt>
      <trkpt lat="45.22889" lon="5.59362">
        <ele>1565.5999755859</ele>
        <time>2019-08-11T10:47:06.000Z</time>
      </trkpt>
      <trkpt lat="45.22889" lon="5.59361">
        <ele>1565.8000488281</ele>
        <time>2019-08-11T10:48:26.000Z</time>
      </trkpt>
      <trkpt lat="45.22889" lon="5.59361">
        <ele>1566</ele>
        <time>2019-08-11T10:49:00.000Z</time>
      </trkpt>
      <trkpt lat="45.22889" lon="5.59361">
        <ele>1566</ele>
        <time>2019-08-11T10:49:23.000Z</time>
      </trkpt>
      <trkpt lat="45.22889" lon="5.59361">
        <ele>1566.1999511719</ele>
        <time>2019-08-11T10:50:20.000Z</time>
      </trkpt>
      <trkpt lat="45.22889" lon="5.59362">
        <ele>1565.8000488281</ele>
        <time>2019-08-11T10:50:37.000Z</time>
      </trkpt>
      <trkpt lat="45.22889" lon="5.59362">
        <ele>1565.1999511719</ele>
        <time>2019-08-11T10:51:14.000Z</time>
      </trkpt>
      <trkpt lat="45.22889" lon="5.59362">
        <ele>1566.1999511719</ele>
        <time>2019-08-11T10:51:42.000Z</time>
      </trkpt>
      <trkpt lat="45.22889" lon="5.59362">
        <ele>1565.8000488281</ele>
        <time>2019-08-11T10:52:23.000Z</time>
      </trkpt>
      <trkpt lat="45.22889" lon="5.59362">
        <ele>1566.1999511719</ele>
        <time>2019-08-11T10:53:33.000Z</time>
      </trkpt>
      <trkpt lat="45.22889" lon="5.59362">
        <ele>1566.8000488281</ele>
        <time>2019-08-11T10:53:51.000Z</time>
      </trkpt>
      <trkpt lat="45.22889" lon="5.59362">
        <ele>1566.5999755859</ele>
        <time>2019-08-11T10:54:34.000Z</time>
      </trkpt>
      <trkpt lat="45.22889" lon="5.59362">
        <ele>1566.5999755859</ele>
        <time>2019-08-11T10:56:39.000Z</time>
      </trkpt>
      <trkpt lat="45.22889" lon="5.59362">
        <ele>1567</ele>
        <time>2019-08-11T10:57:01.000Z</time>
      </trkpt>
      <trkpt lat="45.22889" lon="5.59362">
        <ele>1566.5999755859</ele>
        <time>2019-08-11T11:00:01.000Z</time>
      </trkpt>
      <trkpt lat="45.22889" lon="5.59362">
        <ele>1566.5999755859</ele>
        <time>2019-08-11T11:01:25.000Z</time>
      </trkpt>
      <trkpt lat="45.22889" lon="5.59362">
        <ele>1566.1999511719</ele>
        <time>2019-08-11T11:02:08.000Z</time>
      </trkpt>
      <trkpt lat="45.22889" lon="5.59362">
        <ele>1565.8000488281</ele>
        <time>2019-08-11T11:03:02.000Z</time>
      </trkpt>
      <trkpt lat="45.22889" lon="5.59362">
        <ele>1565.5999755859</ele>
        <time>2019-08-11T11:03:07.000Z</time>
      </trkpt>
      <trkpt lat="45.22889" lon="5.59362">
        <ele>1566</ele>
        <time>2019-08-11T11:04:07.000Z</time>
      </trkpt>
      <trkpt lat="45.22889" lon="5.59362">
        <ele>1566.1999511719</ele>
        <time>2019-08-11T11:05:00.000Z</time>
      </trkpt>
      <trkpt lat="45.22889" lon="5.59362">
        <ele>1566.1999511719</ele>
        <time>2019-08-11T11:05:09.000Z</time>
      </trkpt>
      <trkpt lat="45.22889" lon="5.59362">
        <ele>1565.4000244141</ele>
        <time>2019-08-11T11:06:12.000Z</time>
      </trkpt>
      <trkpt lat="45.22889" lon="5.59362">
        <ele>1565.8000488281</ele>
        <time>2019-08-11T11:06:35.000Z</time>
      </trkpt>
      <trkpt lat="45.22889" lon="5.59362">
        <ele>1566.1999511719</ele>
        <time>2019-08-11T11:07:12.000Z</time>
      </trkpt>
      <trkpt lat="45.22889" lon="5.59361">
        <ele>1566</ele>
        <time>2019-08-11T11:08:42.000Z</time>
      </trkpt>
      <trkpt lat="45.22889" lon="5.59361">
        <ele>1566.4000244141</ele>
        <time>2019-08-11T11:10:01.000Z</time>
      </trkpt>
      <trkpt lat="45.22888" lon="5.59361">
        <ele>1566.1999511719</ele>
        <time>2019-08-11T11:12:06.000Z</time>
      </trkpt>
      <trkpt lat="45.22886" lon="5.59363">
        <ele>1566.5999755859</ele>
        <time>2019-08-11T11:12:20.000Z</time>
      </trkpt>
      <trkpt lat="45.22886" lon="5.59364">
        <ele>1566.5999755859</ele>
        <time>2019-08-11T11:12:43.000Z</time>
      </trkpt>
      <trkpt lat="45.22887" lon="5.59363">
        <ele>1567</ele>
        <time>2019-08-11T11:12:52.000Z</time>
      </trkpt>
      <trkpt lat="45.22887" lon="5.59363">
        <ele>1566.1999511719</ele>
        <time>2019-08-11T11:13:15.000Z</time>
      </trkpt>
      <trkpt lat="45.22887" lon="5.59363">
        <ele>1565.8000488281</ele>
        <time>2019-08-11T11:13:48.000Z</time>
      </trkpt>
      <trkpt lat="45.22887" lon="5.59364">
        <ele>1565.8000488281</ele>
        <time>2019-08-11T11:14:00.000Z</time>
      </trkpt>
      <trkpt lat="45.22887" lon="5.59364">
        <ele>1565.5999755859</ele>
        <time>2019-08-11T11:14:11.000Z</time>
      </trkpt>
      <trkpt lat="45.22887" lon="5.59364">
        <ele>1565.1999511719</ele>
        <time>2019-08-11T11:14:21.000Z</time>
      </trkpt>
      <trkpt lat="45.22887" lon="5.59364">
        <ele>1565.1999511719</ele>
        <time>2019-08-11T11:14:39.000Z</time>
      </trkpt>
      <trkpt lat="45.22887" lon="5.59364">
        <ele>1565.1999511719</ele>
        <time>2019-08-11T11:14:48.000Z</time>
      </trkpt>
      <trkpt lat="45.22887" lon="5.59364">
        <ele>1565.4000244141</ele>
        <time>2019-08-11T11:15:14.000Z</time>
      </trkpt>
      <trkpt lat="45.22887" lon="5.59364">
        <ele>1564.4000244141</ele>
        <time>2019-08-11T11:15:27.000Z</time>
      </trkpt>
      <trkpt lat="45.22886" lon="5.59365">
        <ele>1565.8000488281</ele>
        <time>2019-08-11T11:16:10.000Z</time>
      </trkpt>
      <trkpt lat="45.22884" lon="5.59365">
        <ele>1566</ele>
        <time>2019-08-11T11:16:12.000Z</time>
      </trkpt>
      <trkpt lat="45.22882" lon="5.59365">
        <ele>1566</ele>
        <time>2019-08-11T11:16:15.000Z</time>
      </trkpt>
      <trkpt lat="45.22871" lon="5.59368">
        <ele>1565.8000488281</ele>
        <time>2019-08-11T11:16:22.000Z</time>
      </trkpt>
      <trkpt lat="45.22865" lon="5.59378">
        <ele>1565.1999511719</ele>
        <time>2019-08-11T11:16:28.000Z</time>
      </trkpt>
      <trkpt lat="45.22864" lon="5.5938">
        <ele>1565.1999511719</ele>
        <time>2019-08-11T11:16:29.000Z</time>
      </trkpt>
      <trkpt lat="45.2286" lon="5.59384">
        <ele>1565.1999511719</ele>
        <time>2019-08-11T11:16:32.000Z</time>
      </trkpt>
      <trkpt lat="45.22856" lon="5.59384">
        <ele>1565.1999511719</ele>
        <time>2019-08-11T11:16:34.000Z</time>
      </trkpt>
      <trkpt lat="45.22848" lon="5.5938">
        <ele>1565.4000244141</ele>
        <time>2019-08-11T11:16:38.000Z</time>
      </trkpt>
      <trkpt lat="45.22846" lon="5.59379">
        <ele>1565.1999511719</ele>
        <time>2019-08-11T11:16:39.000Z</time>
      </trkpt>
      <trkpt lat="45.22836" lon="5.59372">
        <ele>1564.4000244141</ele>
        <time>2019-08-11T11:16:43.000Z</time>
      </trkpt>
      <trkpt lat="45.22833" lon="5.59371">
        <ele>1564.4000244141</ele>
        <time>2019-08-11T11:16:44.000Z</time>
      </trkpt>
      <trkpt lat="45.22821" lon="5.59368">
        <ele>1563.8000488281</ele>
        <time>2019-08-11T11:16:48.000Z</time>
      </trkpt>
      <trkpt lat="45.22805" lon="5.5937">
        <ele>1563.8000488281</ele>
        <time>2019-08-11T11:16:54.000Z</time>
      </trkpt>
      <trkpt lat="45.22787" lon="5.59376">
        <ele>1563.5999755859</ele>
        <time>2019-08-11T11:17:00.000Z</time>
      </trkpt>
      <trkpt lat="45.22782" lon="5.59377">
        <ele>1563.1999511719</ele>
        <time>2019-08-11T11:17:01.000Z</time>
      </trkpt>
      <trkpt lat="45.22777" lon="5.59377">
        <ele>1563</ele>
        <time>2019-08-11T11:17:02.000Z</time>
      </trkpt>
      <trkpt lat="45.22772" lon="5.5938">
        <ele>1563</ele>
        <time>2019-08-11T11:17:03.000Z</time>
      </trkpt>
      <trkpt lat="45.22753" lon="5.59392">
        <ele>1562.4000244141</ele>
        <time>2019-08-11T11:17:07.000Z</time>
      </trkpt>
      <trkpt lat="45.22745" lon="5.59397">
        <ele>1561.5999755859</ele>
        <time>2019-08-11T11:17:09.000Z</time>
      </trkpt>
      <trkpt lat="45.22742" lon="5.594">
        <ele>1561.5999755859</ele>
        <time>2019-08-11T11:17:10.000Z</time>
      </trkpt>
      <trkpt lat="45.22738" lon="5.59403">
        <ele>1561</ele>
        <time>2019-08-11T11:17:11.000Z</time>
      </trkpt>
      <trkpt lat="45.22722" lon="5.59404">
        <ele>1561.4000244141</ele>
        <time>2019-08-11T11:17:15.000Z</time>
      </trkpt>
      <trkpt lat="45.22712" lon="5.59397">
        <ele>1561.1999511719</ele>
        <time>2019-08-11T11:17:18.000Z</time>
      </trkpt>
      <trkpt lat="45.22708" lon="5.59394">
        <ele>1561</ele>
        <time>2019-08-11T11:17:19.000Z</time>
      </trkpt>
      <trkpt lat="45.22691" lon="5.59383">
        <ele>1561.1999511719</ele>
        <time>2019-08-11T11:17:24.000Z</time>
      </trkpt>
      <trkpt lat="45.22678" lon="5.59382">
        <ele>1561.8000488281</ele>
        <time>2019-08-11T11:17:29.000Z</time>
      </trkpt>
      <trkpt lat="45.22669" lon="5.59389">
        <ele>1562.1999511719</ele>
        <time>2019-08-11T11:17:34.000Z</time>
      </trkpt>
      <trkpt lat="45.22654" lon="5.59396">
        <ele>1562.4000244141</ele>
        <time>2019-08-11T11:17:39.000Z</time>
      </trkpt>
      <trkpt lat="45.22637" lon="5.59396">
        <ele>1562.1999511719</ele>
        <time>2019-08-11T11:17:44.000Z</time>
      </trkpt>
      <trkpt lat="45.22619" lon="5.59395">
        <ele>1562.4000244141</ele>
        <time>2019-08-11T11:17:50.000Z</time>
      </trkpt>
      <trkpt lat="45.22605" lon="5.59393">
        <ele>1562.4000244141</ele>
        <time>2019-08-11T11:17:56.000Z</time>
      </trkpt>
      <trkpt lat="45.22593" lon="5.59389">
        <ele>1562.8000488281</ele>
        <time>2019-08-11T11:18:01.000Z</time>
      </trkpt>
      <trkpt lat="45.22575" lon="5.59389">
        <ele>1562.4000244141</ele>
        <time>2019-08-11T11:18:07.000Z</time>
      </trkpt>
      <trkpt lat="45.22551" lon="5.59396">
        <ele>1562.4000244141</ele>
        <time>2019-08-11T11:18:14.000Z</time>
      </trkpt>
      <trkpt lat="45.22544" lon="5.59395">
        <ele>1562.8000488281</ele>
        <time>2019-08-11T11:18:17.000Z</time>
      </trkpt>
      <trkpt lat="45.22542" lon="5.59396">
        <ele>1563</ele>
        <time>2019-08-11T11:18:18.000Z</time>
      </trkpt>
      <trkpt lat="45.22529" lon="5.59393">
        <ele>1563.4000244141</ele>
        <time>2019-08-11T11:18:24.000Z</time>
      </trkpt>
      <trkpt lat="45.22517" lon="5.59389">
        <ele>1563.4000244141</ele>
        <time>2019-08-11T11:18:30.000Z</time>
      </trkpt>
      <trkpt lat="45.22507" lon="5.59387">
        <ele>1563.8000488281</ele>
        <time>2019-08-11T11:18:35.000Z</time>
      </trkpt>
      <trkpt lat="45.22497" lon="5.59385">
        <ele>1564</ele>
        <time>2019-08-11T11:18:41.000Z</time>
      </trkpt>
      <trkpt lat="45.22493" lon="5.59385">
        <ele>1564.1999511719</ele>
        <time>2019-08-11T11:18:43.000Z</time>
      </trkpt>
      <trkpt lat="45.22486" lon="5.59384">
        <ele>1564.1999511719</ele>
        <time>2019-08-11T11:18:48.000Z</time>
      </trkpt>
      <trkpt lat="45.22482" lon="5.59384">
        <ele>1564.4000244141</ele>
        <time>2019-08-11T11:18:50.000Z</time>
      </trkpt>
      <trkpt lat="45.22473" lon="5.59384">
        <ele>1564.5999755859</ele>
        <time>2019-08-11T11:18:56.000Z</time>
      </trkpt>
      <trkpt lat="45.22465" lon="5.59384">
        <ele>1564.8000488281</ele>
        <time>2019-08-11T11:19:02.000Z</time>
      </trkpt>
      <trkpt lat="45.22463" lon="5.59384">
        <ele>1564.8000488281</ele>
        <time>2019-08-11T11:19:03.000Z</time>
      </trkpt>
      <trkpt lat="45.22454" lon="5.59383">
        <ele>1564.5999755859</ele>
        <time>2019-08-11T11:19:08.000Z</time>
      </trkpt>
      <trkpt lat="45.22446" lon="5.59382">
        <ele>1564.8000488281</ele>
        <time>2019-08-11T11:19:13.000Z</time>
      </trkpt>
      <trkpt lat="45.22431" lon="5.59381">
        <ele>1564.5999755859</ele>
        <time>2019-08-11T11:19:20.000Z</time>
      </trkpt>
      <trkpt lat="45.22419" lon="5.59377">
        <ele>1564.5999755859</ele>
        <time>2019-08-11T11:19:26.000Z</time>
      </trkpt>
      <trkpt lat="45.22414" lon="5.59375">
        <ele>1564.5999755859</ele>
        <time>2019-08-11T11:19:31.000Z</time>
      </trkpt>
      <trkpt lat="45.22414" lon="5.59376">
        <ele>1564.4000244141</ele>
        <time>2019-08-11T11:19:42.000Z</time>
      </trkpt>
      <trkpt lat="45.22414" lon="5.59376">
        <ele>1564.8000488281</ele>
        <time>2019-08-11T11:20:01.000Z</time>
      </trkpt>
      <trkpt lat="45.22414" lon="5.59376">
        <ele>1564.5999755859</ele>
        <time>2019-08-11T11:20:13.000Z</time>
      </trkpt>
      <trkpt lat="45.22414" lon="5.59376">
        <ele>1564.8000488281</ele>
        <time>2019-08-11T11:20:31.000Z</time>
      </trkpt>
      <trkpt lat="45.22414" lon="5.59377">
        <ele>1564.1999511719</ele>
        <time>2019-08-11T11:20:54.000Z</time>
      </trkpt>
      <trkpt lat="45.22415" lon="5.59378">
        <ele>1564.8000488281</ele>
        <time>2019-08-11T11:21:14.000Z</time>
      </trkpt>
      <trkpt lat="45.22415" lon="5.59378">
        <ele>1564.5999755859</ele>
        <time>2019-08-11T11:21:28.000Z</time>
      </trkpt>
      <trkpt lat="45.22415" lon="5.59378">
        <ele>1564.5999755859</ele>
        <time>2019-08-11T11:21:49.000Z</time>
      </trkpt>
      <trkpt lat="45.22415" lon="5.59378">
        <ele>1564.5999755859</ele>
        <time>2019-08-11T11:21:50.000Z</time>
      </trkpt>
      <trkpt lat="45.22415" lon="5.59378">
        <ele>1564.5999755859</ele>
        <time>2019-08-11T11:22:07.000Z</time>
      </trkpt>
      <trkpt lat="45.22415" lon="5.59379">
        <ele>1564.4000244141</ele>
        <time>2019-08-11T11:22:19.000Z</time>
      </trkpt>
      <trkpt lat="45.22415" lon="5.59379">
        <ele>1564.5999755859</ele>
        <time>2019-08-11T11:22:32.000Z</time>
      </trkpt>
      <trkpt lat="45.22416" lon="5.59379">
        <ele>1564.5999755859</ele>
        <time>2019-08-11T11:22:34.000Z</time>
      </trkpt>
      <trkpt lat="45.22417" lon="5.59379">
        <ele>1564.4000244141</ele>
        <time>2019-08-11T11:22:46.000Z</time>
      </trkpt>
      <trkpt lat="45.22415" lon="5.59379">
        <ele>1564.4000244141</ele>
        <time>2019-08-11T11:22:54.000Z</time>
      </trkpt>
      <trkpt lat="45.22413" lon="5.59379">
        <ele>1564.4000244141</ele>
        <time>2019-08-11T11:22:55.000Z</time>
      </trkpt>
      <trkpt lat="45.22395" lon="5.59372">
        <ele>1564.4000244141</ele>
        <time>2019-08-11T11:23:03.000Z</time>
      </trkpt>
      <trkpt lat="45.22382" lon="5.59373">
        <ele>1565.1999511719</ele>
        <time>2019-08-11T11:23:08.000Z</time>
      </trkpt>
      <trkpt lat="45.22377" lon="5.59375">
        <ele>1565.4000244141</ele>
        <time>2019-08-11T11:23:10.000Z</time>
      </trkpt>
      <trkpt lat="45.22358" lon="5.5938">
        <ele>1565.4000244141</ele>
        <time>2019-08-11T11:23:17.000Z</time>
      </trkpt>
      <trkpt lat="45.22349" lon="5.59381">
        <ele>1566.4000244141</ele>
        <time>2019-08-11T11:23:21.000Z</time>
      </trkpt>
      <trkpt lat="45.22345" lon="5.5938">
        <ele>1566.8000488281</ele>
        <time>2019-08-11T11:23:23.000Z</time>
      </trkpt>
      <trkpt lat="45.2233" lon="5.59374">
        <ele>1567.4000244141</ele>
        <time>2019-08-11T11:23:30.000Z</time>
      </trkpt>
      <trkpt lat="45.22315" lon="5.59366">
        <ele>1568.4000244141</ele>
        <time>2019-08-11T11:23:38.000Z</time>
      </trkpt>
      <trkpt lat="45.22313" lon="5.59365">
        <ele>1568.5999755859</ele>
        <time>2019-08-11T11:23:39.000Z</time>
      </trkpt>
      <trkpt lat="45.22299" lon="5.59359">
        <ele>1569.1999511719</ele>
        <time>2019-08-11T11:23:46.000Z</time>
      </trkpt>
      <trkpt lat="45.22294" lon="5.59357">
        <ele>1569.4000244141</ele>
        <time>2019-08-11T11:23:49.000Z</time>
      </trkpt>
      <trkpt lat="45.22288" lon="5.59352">
        <ele>1569.5999755859</ele>
        <time>2019-08-11T11:23:52.000Z</time>
      </trkpt>
      <trkpt lat="45.22277" lon="5.59344">
        <ele>1570</ele>
        <time>2019-08-11T11:23:58.000Z</time>
      </trkpt>
      <trkpt lat="45.22269" lon="5.59338">
        <ele>1569.8000488281</ele>
        <time>2019-08-11T11:24:03.000Z</time>
      </trkpt>
      <trkpt lat="45.2226" lon="5.59329">
        <ele>1568.1999511719</ele>
        <time>2019-08-11T11:24:07.000Z</time>
      </trkpt>
      <trkpt lat="45.22257" lon="5.59325">
        <ele>1567.8000488281</ele>
        <time>2019-08-11T11:24:08.000Z</time>
      </trkpt>
      <trkpt lat="45.22252" lon="5.59317">
        <ele>1567.1999511719</ele>
        <time>2019-08-11T11:24:10.000Z</time>
      </trkpt>
      <trkpt lat="45.22245" lon="5.59304">
        <ele>1567</ele>
        <time>2019-08-11T11:24:13.000Z</time>
      </trkpt>
      <trkpt lat="45.22236" lon="5.59289">
        <ele>1566.5999755859</ele>
        <time>2019-08-11T11:24:16.000Z</time>
      </trkpt>
      <trkpt lat="45.22232" lon="5.59284">
        <ele>1566.1999511719</ele>
        <time>2019-08-11T11:24:17.000Z</time>
      </trkpt>
      <trkpt lat="45.22223" lon="5.59273">
        <ele>1565.4000244141</ele>
        <time>2019-08-11T11:24:19.000Z</time>
      </trkpt>
      <trkpt lat="45.22219" lon="5.59268">
        <ele>1565</ele>
        <time>2019-08-11T11:24:20.000Z</time>
      </trkpt>
      <trkpt lat="45.22209" lon="5.59256">
        <ele>1563.1999511719</ele>
        <time>2019-08-11T11:24:22.000Z</time>
      </trkpt>
      <trkpt lat="45.22196" lon="5.59242">
        <ele>1561</ele>
        <time>2019-08-11T11:24:24.000Z</time>
      </trkpt>
      <trkpt lat="45.22189" lon="5.59236">
        <ele>1558.8000488281</ele>
        <time>2019-08-11T11:24:25.000Z</time>
      </trkpt>
      <trkpt lat="45.22182" lon="5.59234">
        <ele>1557.1999511719</ele>
        <time>2019-08-11T11:24:26.000Z</time>
      </trkpt>
      <trkpt lat="45.22167" lon="5.59236">
        <ele>1555.8000488281</ele>
        <time>2019-08-11T11:24:28.000Z</time>
      </trkpt>
      <trkpt lat="45.2216" lon="5.59238">
        <ele>1555.1999511719</ele>
        <time>2019-08-11T11:24:29.000Z</time>
      </trkpt>
      <trkpt lat="45.22153" lon="5.59239">
        <ele>1554.5999755859</ele>
        <time>2019-08-11T11:24:30.000Z</time>
      </trkpt>
      <trkpt lat="45.22132" lon="5.59244">
        <ele>1553.4000244141</ele>
        <time>2019-08-11T11:24:33.000Z</time>
      </trkpt>
      <trkpt lat="45.22125" lon="5.59246">
        <ele>1553.1999511719</ele>
        <time>2019-08-11T11:24:34.000Z</time>
      </trkpt>
      <trkpt lat="45.22105" lon="5.59248">
        <ele>1553</ele>
        <time>2019-08-11T11:24:37.000Z</time>
      </trkpt>
      <trkpt lat="45.22086" lon="5.59246">
        <ele>1552.4000244141</ele>
        <time>2019-08-11T11:24:40.000Z</time>
      </trkpt>
      <trkpt lat="45.22075" lon="5.59243">
        <ele>1552</ele>
        <time>2019-08-11T11:24:42.000Z</time>
      </trkpt>
      <trkpt lat="45.22063" lon="5.59241">
        <ele>1552</ele>
        <time>2019-08-11T11:24:44.000Z</time>
      </trkpt>
      <trkpt lat="45.22048" lon="5.59242">
        <ele>1551.8000488281</ele>
        <time>2019-08-11T11:24:47.000Z</time>
      </trkpt>
      <trkpt lat="45.22039" lon="5.59246">
        <ele>1551.5999755859</ele>
        <time>2019-08-11T11:24:49.000Z</time>
      </trkpt>
      <trkpt lat="45.22021" lon="5.59253">
        <ele>1551.4000244141</ele>
        <time>2019-08-11T11:24:53.000Z</time>
      </trkpt>
      <trkpt lat="45.22017" lon="5.59255">
        <ele>1551.1999511719</ele>
        <time>2019-08-11T11:24:54.000Z</time>
      </trkpt>
      <trkpt lat="45.22001" lon="5.59259">
        <ele>1550</ele>
        <time>2019-08-11T11:24:57.000Z</time>
      </trkpt>
      <trkpt lat="45.21989" lon="5.5926">
        <ele>1549.5999755859</ele>
        <time>2019-08-11T11:24:59.000Z</time>
      </trkpt>
      <trkpt lat="45.21971" lon="5.59261">
        <ele>1549.1999511719</ele>
        <time>2019-08-11T11:25:02.000Z</time>
      </trkpt>
      <trkpt lat="45.21959" lon="5.59258">
        <ele>1548.8000488281</ele>
        <time>2019-08-11T11:25:04.000Z</time>
      </trkpt>
      <trkpt lat="45.21945" lon="5.59254">
        <ele>1549</ele>
        <time>2019-08-11T11:25:07.000Z</time>
      </trkpt>
      <trkpt lat="45.21926" lon="5.59261">
        <ele>1548.4000244141</ele>
        <time>2019-08-11T11:25:11.000Z</time>
      </trkpt>
      <trkpt lat="45.2192" lon="5.59262">
        <ele>1548.1999511719</ele>
        <time>2019-08-11T11:25:12.000Z</time>
      </trkpt>
      <trkpt lat="45.21909" lon="5.59263">
        <ele>1548</ele>
        <time>2019-08-11T11:25:14.000Z</time>
      </trkpt>
      <trkpt lat="45.21903" lon="5.59262">
        <ele>1548</ele>
        <time>2019-08-11T11:25:15.000Z</time>
      </trkpt>
      <trkpt lat="45.21888" lon="5.59263">
        <ele>1548.4000244141</ele>
        <time>2019-08-11T11:25:19.000Z</time>
      </trkpt>
      <trkpt lat="45.21867" lon="5.59264">
        <ele>1549.1999511719</ele>
        <time>2019-08-11T11:25:24.000Z</time>
      </trkpt>
      <trkpt lat="45.21847" lon="5.59265">
        <ele>1549.1999511719</ele>
        <time>2019-08-11T11:25:29.000Z</time>
      </trkpt>
      <trkpt lat="45.21827" lon="5.59266">
        <ele>1549.4000244141</ele>
        <time>2019-08-11T11:25:34.000Z</time>
      </trkpt>
      <trkpt lat="45.21813" lon="5.59278">
        <ele>1548.8000488281</ele>
        <time>2019-08-11T11:25:38.000Z</time>
      </trkpt>
      <trkpt lat="45.21809" lon="5.59282">
        <ele>1548.8000488281</ele>
        <time>2019-08-11T11:25:39.000Z</time>
      </trkpt>
      <trkpt lat="45.21803" lon="5.59294">
        <ele>1548.4000244141</ele>
        <time>2019-08-11T11:25:42.000Z</time>
      </trkpt>
      <trkpt lat="45.218" lon="5.59302">
        <ele>1547.8000488281</ele>
        <time>2019-08-11T11:25:44.000Z</time>
      </trkpt>
      <trkpt lat="45.21797" lon="5.59308">
        <ele>1547.1999511719</ele>
        <time>2019-08-11T11:25:45.000Z</time>
      </trkpt>
      <trkpt lat="45.21795" lon="5.59315">
        <ele>1546.1999511719</ele>
        <time>2019-08-11T11:25:46.000Z</time>
      </trkpt>
      <trkpt lat="45.21789" lon="5.59335">
        <ele>1544.4000244141</ele>
        <time>2019-08-11T11:25:48.000Z</time>
      </trkpt>
      <trkpt lat="45.21785" lon="5.59346">
        <ele>1543.4000244141</ele>
        <time>2019-08-11T11:25:49.000Z</time>
      </trkpt>
      <trkpt lat="45.21778" lon="5.59356">
        <ele>1542.5999755859</ele>
        <time>2019-08-11T11:25:50.000Z</time>
      </trkpt>
      <trkpt lat="45.21766" lon="5.59377">
        <ele>1541.1999511719</ele>
        <time>2019-08-11T11:25:52.000Z</time>
      </trkpt>
      <trkpt lat="45.21759" lon="5.59387">
        <ele>1540.1999511719</ele>
        <time>2019-08-11T11:25:53.000Z</time>
      </trkpt>
      <trkpt lat="45.21747" lon="5.59407">
        <ele>1538.1999511719</ele>
        <time>2019-08-11T11:25:55.000Z</time>
      </trkpt>
      <trkpt lat="45.21742" lon="5.59415">
        <ele>1537.4000244141</ele>
        <time>2019-08-11T11:25:56.000Z</time>
      </trkpt>
      <trkpt lat="45.21735" lon="5.5942">
        <ele>1536.4000244141</ele>
        <time>2019-08-11T11:25:57.000Z</time>
      </trkpt>
      <trkpt lat="45.21725" lon="5.59423">
        <ele>1535.4000244141</ele>
        <time>2019-08-11T11:25:59.000Z</time>
      </trkpt>
      <trkpt lat="45.21722" lon="5.59424">
        <ele>1533.8000488281</ele>
        <time>2019-08-11T11:26:01.000Z</time>
      </trkpt>
      <trkpt lat="45.21721" lon="5.59425">
        <ele>1533.4000244141</ele>
        <time>2019-08-11T11:26:03.000Z</time>
      </trkpt>
      <trkpt lat="45.21719" lon="5.59434">
        <ele>1533.1999511719</ele>
        <time>2019-08-11T11:26:07.000Z</time>
      </trkpt>
      <trkpt lat="45.21717" lon="5.59437">
        <ele>1533.1999511719</ele>
        <time>2019-08-11T11:26:08.000Z</time>
      </trkpt>
      <trkpt lat="45.21713" lon="5.59445">
        <ele>1532.8000488281</ele>
        <time>2019-08-11T11:26:10.000Z</time>
      </trkpt>
      <trkpt lat="45.21711" lon="5.59454">
        <ele>1531.5999755859</ele>
        <time>2019-08-11T11:26:12.000Z</time>
      </trkpt>
      <trkpt lat="45.21709" lon="5.59466">
        <ele>1530.8000488281</ele>
        <time>2019-08-11T11:26:14.000Z</time>
      </trkpt>
      <trkpt lat="45.21708" lon="5.59472">
        <ele>1530.4000244141</ele>
        <time>2019-08-11T11:26:15.000Z</time>
      </trkpt>
      <trkpt lat="45.21708" lon="5.59478">
        <ele>1529.5999755859</ele>
        <time>2019-08-11T11:26:16.000Z</time>
      </trkpt>
      <trkpt lat="45.21709" lon="5.59482">
        <ele>1529</ele>
        <time>2019-08-11T11:26:17.000Z</time>
      </trkpt>
      <trkpt lat="45.2171" lon="5.5949">
        <ele>1527.8000488281</ele>
        <time>2019-08-11T11:26:19.000Z</time>
      </trkpt>
      <trkpt lat="45.21711" lon="5.59494">
        <ele>1527.4000244141</ele>
        <time>2019-08-11T11:26:20.000Z</time>
      </trkpt>
      <trkpt lat="45.21716" lon="5.59505">
        <ele>1526.8000488281</ele>
        <time>2019-08-11T11:26:23.000Z</time>
      </trkpt>
      <trkpt lat="45.21718" lon="5.59508">
        <ele>1526.5999755859</ele>
        <time>2019-08-11T11:26:24.000Z</time>
      </trkpt>
      <trkpt lat="45.21718" lon="5.59515">
        <ele>1526.4000244141</ele>
        <time>2019-08-11T11:26:26.000Z</time>
      </trkpt>
      <trkpt lat="45.2172" lon="5.59523">
        <ele>1525.5999755859</ele>
        <time>2019-08-11T11:26:28.000Z</time>
      </trkpt>
      <trkpt lat="45.21725" lon="5.59524">
        <ele>1524.1999511719</ele>
        <time>2019-08-11T11:26:31.000Z</time>
      </trkpt>
      <trkpt lat="45.21728" lon="5.59522">
        <ele>1523.8000488281</ele>
        <time>2019-08-11T11:26:32.000Z</time>
      </trkpt>
      <trkpt lat="45.21731" lon="5.59522">
        <ele>1523.1999511719</ele>
        <time>2019-08-11T11:26:33.000Z</time>
      </trkpt>
      <trkpt lat="45.21735" lon="5.59525">
        <ele>1522.1999511719</ele>
        <time>2019-08-11T11:26:35.000Z</time>
      </trkpt>
      <trkpt lat="45.21739" lon="5.59527">
        <ele>1521.1999511719</ele>
        <time>2019-08-11T11:26:36.000Z</time>
      </trkpt>
      <trkpt lat="45.21748" lon="5.59527">
        <ele>1520.4000244141</ele>
        <time>2019-08-11T11:26:38.000Z</time>
      </trkpt>
      <trkpt lat="45.21752" lon="5.59526">
        <ele>1519.8000488281</ele>
        <time>2019-08-11T11:26:39.000Z</time>
      </trkpt>
      <trkpt lat="45.2176" lon="5.59527">
        <ele>1519.1999511719</ele>
        <time>2019-08-11T11:26:41.000Z</time>
      </trkpt>
      <trkpt lat="45.21761" lon="5.59528">
        <ele>1519.1999511719</ele>
        <time>2019-08-11T11:26:42.000Z</time>
      </trkpt>
      <trkpt lat="45.21765" lon="5.5953">
        <ele>1519.1999511719</ele>
        <time>2019-08-11T11:26:44.000Z</time>
      </trkpt>
      <trkpt lat="45.21776" lon="5.59534">
        <ele>1519</ele>
        <time>2019-08-11T11:26:47.000Z</time>
      </trkpt>
      <trkpt lat="45.2178" lon="5.59535">
        <ele>1519</ele>
        <time>2019-08-11T11:26:48.000Z</time>
      </trkpt>
      <trkpt lat="45.21782" lon="5.59536">
        <ele>1518.8000488281</ele>
        <time>2019-08-11T11:26:49.000Z</time>
      </trkpt>
      <trkpt lat="45.21788" lon="5.59544">
        <ele>1518</ele>
        <time>2019-08-11T11:26:52.000Z</time>
      </trkpt>
      <trkpt lat="45.2179" lon="5.59547">
        <ele>1517.5999755859</ele>
        <time>2019-08-11T11:26:53.000Z</time>
      </trkpt>
      <trkpt lat="45.21796" lon="5.59553">
        <ele>1517</ele>
        <time>2019-08-11T11:26:55.000Z</time>
      </trkpt>
      <trkpt lat="45.218" lon="5.59558">
        <ele>1516.4000244141</ele>
        <time>2019-08-11T11:26:57.000Z</time>
      </trkpt>
      <trkpt lat="45.21807" lon="5.59565">
        <ele>1516</ele>
        <time>2019-08-11T11:26:59.000Z</time>
      </trkpt>
      <trkpt lat="45.21813" lon="5.5958">
        <ele>1515.1999511719</ele>
        <time>2019-08-11T11:27:02.000Z</time>
      </trkpt>
      <trkpt lat="45.2182" lon="5.59597">
        <ele>1514.4000244141</ele>
        <time>2019-08-11T11:27:05.000Z</time>
      </trkpt>
      <trkpt lat="45.21821" lon="5.59603">
        <ele>1513.8000488281</ele>
        <time>2019-08-11T11:27:06.000Z</time>
      </trkpt>
      <trkpt lat="45.21822" lon="5.59608">
        <ele>1513.4000244141</ele>
        <time>2019-08-11T11:27:07.000Z</time>
      </trkpt>
      <trkpt lat="45.21822" lon="5.59613">
        <ele>1513.1999511719</ele>
        <time>2019-08-11T11:27:08.000Z</time>
      </trkpt>
      <trkpt lat="45.21821" lon="5.5962">
        <ele>1512.8000488281</ele>
        <time>2019-08-11T11:27:09.000Z</time>
      </trkpt>
      <trkpt lat="45.21821" lon="5.59625">
        <ele>1512.1999511719</ele>
        <time>2019-08-11T11:27:10.000Z</time>
      </trkpt>
      <trkpt lat="45.21819" lon="5.59632">
        <ele>1511.8000488281</ele>
        <time>2019-08-11T11:27:12.000Z</time>
      </trkpt>
      <trkpt lat="45.21819" lon="5.59634">
        <ele>1511</ele>
        <time>2019-08-11T11:27:13.000Z</time>
      </trkpt>
      <trkpt lat="45.2182" lon="5.59638">
        <ele>1510.4000244141</ele>
        <time>2019-08-11T11:27:14.000Z</time>
      </trkpt>
      <trkpt lat="45.21819" lon="5.59654">
        <ele>1509</ele>
        <time>2019-08-11T11:27:17.000Z</time>
      </trkpt>
      <trkpt lat="45.21819" lon="5.59659">
        <ele>1508.5999755859</ele>
        <time>2019-08-11T11:27:18.000Z</time>
      </trkpt>
      <trkpt lat="45.21816" lon="5.59669">
        <ele>1507.8000488281</ele>
        <time>2019-08-11T11:27:20.000Z</time>
      </trkpt>
      <trkpt lat="45.21817" lon="5.59674">
        <ele>1507.4000244141</ele>
        <time>2019-08-11T11:27:21.000Z</time>
      </trkpt>
      <trkpt lat="45.21817" lon="5.59693">
        <ele>1506.5999755859</ele>
        <time>2019-08-11T11:27:24.000Z</time>
      </trkpt>
      <trkpt lat="45.21816" lon="5.59699">
        <ele>1505.8000488281</ele>
        <time>2019-08-11T11:27:25.000Z</time>
      </trkpt>
      <trkpt lat="45.21816" lon="5.59705">
        <ele>1505.1999511719</ele>
        <time>2019-08-11T11:27:26.000Z</time>
      </trkpt>
      <trkpt lat="45.21814" lon="5.59717">
        <ele>1503.8000488281</ele>
        <time>2019-08-11T11:27:28.000Z</time>
      </trkpt>
      <trkpt lat="45.21813" lon="5.59723">
        <ele>1503.4000244141</ele>
        <time>2019-08-11T11:27:29.000Z</time>
      </trkpt>
      <trkpt lat="45.21813" lon="5.5973">
        <ele>1502.1999511719</ele>
        <time>2019-08-11T11:27:30.000Z</time>
      </trkpt>
      <trkpt lat="45.21812" lon="5.5974">
        <ele>1500.1999511719</ele>
        <time>2019-08-11T11:27:32.000Z</time>
      </trkpt>
      <trkpt lat="45.21812" lon="5.59744">
        <ele>1499.1999511719</ele>
        <time>2019-08-11T11:27:33.000Z</time>
      </trkpt>
      <trkpt lat="45.21811" lon="5.59747">
        <ele>1498.8000488281</ele>
        <time>2019-08-11T11:27:34.000Z</time>
      </trkpt>
      <trkpt lat="45.21807" lon="5.59756">
        <ele>1497.4000244141</ele>
        <time>2019-08-11T11:27:37.000Z</time>
      </trkpt>
      <trkpt lat="45.21805" lon="5.59761">
        <ele>1496.5999755859</ele>
        <time>2019-08-11T11:27:39.000Z</time>
      </trkpt>
      <trkpt lat="45.21804" lon="5.59765">
        <ele>1496.1999511719</ele>
        <time>2019-08-11T11:27:40.000Z</time>
      </trkpt>
      <trkpt lat="45.21803" lon="5.59769">
        <ele>1495.8000488281</ele>
        <time>2019-08-11T11:27:41.000Z</time>
      </trkpt>
      <trkpt lat="45.21802" lon="5.59773">
        <ele>1495.5999755859</ele>
        <time>2019-08-11T11:27:42.000Z</time>
      </trkpt>
      <trkpt lat="45.21802" lon="5.59782">
        <ele>1495.1999511719</ele>
        <time>2019-08-11T11:27:44.000Z</time>
      </trkpt>
      <trkpt lat="45.218" lon="5.59788">
        <ele>1494.5999755859</ele>
        <time>2019-08-11T11:27:46.000Z</time>
      </trkpt>
      <trkpt lat="45.218" lon="5.59791">
        <ele>1494</ele>
        <time>2019-08-11T11:27:47.000Z</time>
      </trkpt>
      <trkpt lat="45.21795" lon="5.59801">
        <ele>1493</ele>
        <time>2019-08-11T11:27:50.000Z</time>
      </trkpt>
      <trkpt lat="45.21793" lon="5.59805">
        <ele>1491.5999755859</ele>
        <time>2019-08-11T11:27:53.000Z</time>
      </trkpt>
      <trkpt lat="45.21793" lon="5.59805">
        <ele>1491.4000244141</ele>
        <time>2019-08-11T11:27:54.000Z</time>
      </trkpt>
      <trkpt lat="45.21788" lon="5.59807">
        <ele>1490.8000488281</ele>
        <time>2019-08-11T11:28:03.000Z</time>
      </trkpt>
      <trkpt lat="45.21787" lon="5.59808">
        <ele>1490.8000488281</ele>
        <time>2019-08-11T11:28:04.000Z</time>
      </trkpt>
      <trkpt lat="45.21783" lon="5.59813">
        <ele>1490.8000488281</ele>
        <time>2019-08-11T11:28:10.000Z</time>
      </trkpt>
      <trkpt lat="45.21784" lon="5.5982">
        <ele>1490.4000244141</ele>
        <time>2019-08-11T11:28:14.000Z</time>
      </trkpt>
      <trkpt lat="45.21784" lon="5.59826">
        <ele>1490.1999511719</ele>
        <time>2019-08-11T11:28:16.000Z</time>
      </trkpt>
      <trkpt lat="45.2178" lon="5.59837">
        <ele>1488.8000488281</ele>
        <time>2019-08-11T11:28:20.000Z</time>
      </trkpt>
      <trkpt lat="45.21778" lon="5.5984">
        <ele>1488.5999755859</ele>
        <time>2019-08-11T11:28:21.000Z</time>
      </trkpt>
      <trkpt lat="45.21769" lon="5.59853">
        <ele>1487.8000488281</ele>
        <time>2019-08-11T11:28:25.000Z</time>
      </trkpt>
      <trkpt lat="45.21759" lon="5.59864">
        <ele>1486.4000244141</ele>
        <time>2019-08-11T11:28:29.000Z</time>
      </trkpt>
      <trkpt lat="45.21751" lon="5.59869">
        <ele>1485.8000488281</ele>
        <time>2019-08-11T11:28:33.000Z</time>
      </trkpt>
      <trkpt lat="45.2175" lon="5.59872">
        <ele>1485.8000488281</ele>
        <time>2019-08-11T11:28:34.000Z</time>
      </trkpt>
      <trkpt lat="45.21749" lon="5.59879">
        <ele>1485.5999755859</ele>
        <time>2019-08-11T11:28:36.000Z</time>
      </trkpt>
      <trkpt lat="45.21748" lon="5.59882">
        <ele>1485.4000244141</ele>
        <time>2019-08-11T11:28:37.000Z</time>
      </trkpt>
      <trkpt lat="45.21745" lon="5.59888">
        <ele>1484.8000488281</ele>
        <time>2019-08-11T11:28:39.000Z</time>
      </trkpt>
      <trkpt lat="45.21743" lon="5.59894">
        <ele>1484.1999511719</ele>
        <time>2019-08-11T11:28:41.000Z</time>
      </trkpt>
      <trkpt lat="45.21742" lon="5.59897">
        <ele>1483.5999755859</ele>
        <time>2019-08-11T11:28:43.000Z</time>
      </trkpt>
      <trkpt lat="45.21741" lon="5.59899">
        <ele>1483.4000244141</ele>
        <time>2019-08-11T11:28:45.000Z</time>
      </trkpt>
      <trkpt lat="45.2174" lon="5.599">
        <ele>1483.1999511719</ele>
        <time>2019-08-11T11:28:46.000Z</time>
      </trkpt>
      <trkpt lat="45.2174" lon="5.59908">
        <ele>1483</ele>
        <time>2019-08-11T11:28:51.000Z</time>
      </trkpt>
      <trkpt lat="45.21742" lon="5.59912">
        <ele>1482.5999755859</ele>
        <time>2019-08-11T11:28:54.000Z</time>
      </trkpt>
      <trkpt lat="45.21745" lon="5.59917">
        <ele>1482.1999511719</ele>
        <time>2019-08-11T11:28:57.000Z</time>
      </trkpt>
      <trkpt lat="45.21746" lon="5.59928">
        <ele>1482</ele>
        <time>2019-08-11T11:29:01.000Z</time>
      </trkpt>
      <trkpt lat="45.21746" lon="5.59931">
        <ele>1482</ele>
        <time>2019-08-11T11:29:02.000Z</time>
      </trkpt>
      <trkpt lat="45.21747" lon="5.5994">
        <ele>1481.5999755859</ele>
        <time>2019-08-11T11:29:05.000Z</time>
      </trkpt>
      <trkpt lat="45.21747" lon="5.59943">
        <ele>1481.5999755859</ele>
        <time>2019-08-11T11:29:06.000Z</time>
      </trkpt>
      <trkpt lat="45.21747" lon="5.59946">
        <ele>1481.4000244141</ele>
        <time>2019-08-11T11:29:07.000Z</time>
      </trkpt>
      <trkpt lat="45.21748" lon="5.59956">
        <ele>1481.1999511719</ele>
        <time>2019-08-11T11:29:10.000Z</time>
      </trkpt>
      <trkpt lat="45.21748" lon="5.59964">
        <ele>1480.8000488281</ele>
        <time>2019-08-11T11:29:12.000Z</time>
      </trkpt>
      <trkpt lat="45.21748" lon="5.59971">
        <ele>1480</ele>
        <time>2019-08-11T11:29:14.000Z</time>
      </trkpt>
      <trkpt lat="45.21747" lon="5.59974">
        <ele>1479.8000488281</ele>
        <time>2019-08-11T11:29:15.000Z</time>
      </trkpt>
      <trkpt lat="45.21747" lon="5.59977">
        <ele>1479.8000488281</ele>
        <time>2019-08-11T11:29:16.000Z</time>
      </trkpt>
      <trkpt lat="45.21746" lon="5.59982">
        <ele>1479.5999755859</ele>
        <time>2019-08-11T11:29:18.000Z</time>
      </trkpt>
      <trkpt lat="45.21746" lon="5.59985">
        <ele>1479.1999511719</ele>
        <time>2019-08-11T11:29:19.000Z</time>
      </trkpt>
      <trkpt lat="45.21744" lon="5.59991">
        <ele>1478.5999755859</ele>
        <time>2019-08-11T11:29:21.000Z</time>
      </trkpt>
      <trkpt lat="45.21743" lon="5.59993">
        <ele>1478.5999755859</ele>
        <time>2019-08-11T11:29:22.000Z</time>
      </trkpt>
      <trkpt lat="45.2174" lon="5.60003">
        <ele>1478.4000244141</ele>
        <time>2019-08-11T11:29:25.000Z</time>
      </trkpt>
      <trkpt lat="45.2174" lon="5.60006">
        <ele>1478.5999755859</ele>
        <time>2019-08-11T11:29:26.000Z</time>
      </trkpt>
      <trkpt lat="45.21738" lon="5.60021">
        <ele>1478.1999511719</ele>
        <time>2019-08-11T11:29:30.000Z</time>
      </trkpt>
      <trkpt lat="45.21734" lon="5.60032">
        <ele>1478</ele>
        <time>2019-08-11T11:29:33.000Z</time>
      </trkpt>
      <trkpt lat="45.21731" lon="5.60041">
        <ele>1477.4000244141</ele>
        <time>2019-08-11T11:29:35.000Z</time>
      </trkpt>
      <trkpt lat="45.21731" lon="5.60053">
        <ele>1476.5999755859</ele>
        <time>2019-08-11T11:29:38.000Z</time>
      </trkpt>
      <trkpt lat="45.21729" lon="5.60057">
        <ele>1476.4000244141</ele>
        <time>2019-08-11T11:29:39.000Z</time>
      </trkpt>
      <trkpt lat="45.21725" lon="5.60064">
        <ele>1476.4000244141</ele>
        <time>2019-08-11T11:29:42.000Z</time>
      </trkpt>
      <trkpt lat="45.21725" lon="5.60075">
        <ele>1476.5999755859</ele>
        <time>2019-08-11T11:29:45.000Z</time>
      </trkpt>
      <trkpt lat="45.21726" lon="5.60079">
        <ele>1476.5999755859</ele>
        <time>2019-08-11T11:29:46.000Z</time>
      </trkpt>
      <trkpt lat="45.21725" lon="5.60085">
        <ele>1476</ele>
        <time>2019-08-11T11:29:48.000Z</time>
      </trkpt>
      <trkpt lat="45.21724" lon="5.60092">
        <ele>1475.4000244141</ele>
        <time>2019-08-11T11:29:50.000Z</time>
      </trkpt>
      <trkpt lat="45.21723" lon="5.60107">
        <ele>1475.5999755859</ele>
        <time>2019-08-11T11:29:54.000Z</time>
      </trkpt>
      <trkpt lat="45.21719" lon="5.6012">
        <ele>1475.8000488281</ele>
        <time>2019-08-11T11:29:58.000Z</time>
      </trkpt>
      <trkpt lat="45.21713" lon="5.60125">
        <ele>1475.5999755859</ele>
        <time>2019-08-11T11:30:02.000Z</time>
      </trkpt>
      <trkpt lat="45.21709" lon="5.6013">
        <ele>1475.5999755859</ele>
        <time>2019-08-11T11:30:04.000Z</time>
      </trkpt>
      <trkpt lat="45.21705" lon="5.60135">
        <ele>1475.1999511719</ele>
        <time>2019-08-11T11:30:06.000Z</time>
      </trkpt>
      <trkpt lat="45.21696" lon="5.60144">
        <ele>1474.5999755859</ele>
        <time>2019-08-11T11:30:10.000Z</time>
      </trkpt>
      <trkpt lat="45.21682" lon="5.60151">
        <ele>1474.4000244141</ele>
        <time>2019-08-11T11:30:15.000Z</time>
      </trkpt>
      <trkpt lat="45.21672" lon="5.60156">
        <ele>1474.1999511719</ele>
        <time>2019-08-11T11:30:19.000Z</time>
      </trkpt>
      <trkpt lat="45.21669" lon="5.60156">
        <ele>1474</ele>
        <time>2019-08-11T11:30:20.000Z</time>
      </trkpt>
      <trkpt lat="45.2166" lon="5.6016">
        <ele>1473.5999755859</ele>
        <time>2019-08-11T11:30:24.000Z</time>
      </trkpt>
      <trkpt lat="45.21655" lon="5.60162">
        <ele>1473.5999755859</ele>
        <time>2019-08-11T11:30:26.000Z</time>
      </trkpt>
      <trkpt lat="45.21653" lon="5.60163">
        <ele>1473.4000244141</ele>
        <time>2019-08-11T11:30:27.000Z</time>
      </trkpt>
      <trkpt lat="45.21645" lon="5.60165">
        <ele>1473.1999511719</ele>
        <time>2019-08-11T11:30:30.000Z</time>
      </trkpt>
      <trkpt lat="45.2163" lon="5.60165">
        <ele>1472.1999511719</ele>
        <time>2019-08-11T11:30:36.000Z</time>
      </trkpt>
      <trkpt lat="45.21618" lon="5.60162">
        <ele>1471.5999755859</ele>
        <time>2019-08-11T11:30:41.000Z</time>
      </trkpt>
      <trkpt lat="45.21608" lon="5.60165">
        <ele>1472</ele>
        <time>2019-08-11T11:30:46.000Z</time>
      </trkpt>
      <trkpt lat="45.21601" lon="5.60168">
        <ele>1471.5999755859</ele>
        <time>2019-08-11T11:30:51.000Z</time>
      </trkpt>
      <trkpt lat="45.21601" lon="5.60169">
        <ele>1471</ele>
        <time>2019-08-11T11:30:54.000Z</time>
      </trkpt>
      <trkpt lat="45.216" lon="5.6017">
        <ele>1471</ele>
        <time>2019-08-11T11:30:59.000Z</time>
      </trkpt>
      <trkpt lat="45.21597" lon="5.60173">
        <ele>1471</ele>
        <time>2019-08-11T11:31:06.000Z</time>
      </trkpt>
      <trkpt lat="45.21593" lon="5.60173">
        <ele>1471.1999511719</ele>
        <time>2019-08-11T11:31:12.000Z</time>
      </trkpt>
      <trkpt lat="45.21585" lon="5.60174">
        <ele>1471.4000244141</ele>
        <time>2019-08-11T11:31:17.000Z</time>
      </trkpt>
      <trkpt lat="45.21583" lon="5.60174">
        <ele>1471.4000244141</ele>
        <time>2019-08-11T11:31:18.000Z</time>
      </trkpt>
      <trkpt lat="45.21576" lon="5.60176">
        <ele>1471</ele>
        <time>2019-08-11T11:31:21.000Z</time>
      </trkpt>
      <trkpt lat="45.21565" lon="5.60174">
        <ele>1470.5999755859</ele>
        <time>2019-08-11T11:31:26.000Z</time>
      </trkpt>
      <trkpt lat="45.21562" lon="5.60176">
        <ele>1470</ele>
        <time>2019-08-11T11:31:30.000Z</time>
      </trkpt>
      <trkpt lat="45.21552" lon="5.60178">
        <ele>1470.5999755859</ele>
        <time>2019-08-11T11:31:39.000Z</time>
      </trkpt>
      <trkpt lat="45.21549" lon="5.60179">
        <ele>1470.8000488281</ele>
        <time>2019-08-11T11:31:47.000Z</time>
      </trkpt>
      <trkpt lat="45.21546" lon="5.60178">
        <ele>1470.5999755859</ele>
        <time>2019-08-11T11:31:52.000Z</time>
      </trkpt>
      <trkpt lat="45.21535" lon="5.60173">
        <ele>1470.5999755859</ele>
        <time>2019-08-11T11:31:58.000Z</time>
      </trkpt>
      <trkpt lat="45.21526" lon="5.60166">
        <ele>1470.8000488281</ele>
        <time>2019-08-11T11:32:02.000Z</time>
      </trkpt>
      <trkpt lat="45.2152" lon="5.60157">
        <ele>1471.1999511719</ele>
        <time>2019-08-11T11:32:06.000Z</time>
      </trkpt>
      <trkpt lat="45.21519" lon="5.60156">
        <ele>1471.4000244141</ele>
        <time>2019-08-11T11:32:07.000Z</time>
      </trkpt>
      <trkpt lat="45.21512" lon="5.6015">
        <ele>1471.8000488281</ele>
        <time>2019-08-11T11:32:12.000Z</time>
      </trkpt>
      <trkpt lat="45.2151" lon="5.60148">
        <ele>1471.8000488281</ele>
        <time>2019-08-11T11:32:13.000Z</time>
      </trkpt>
      <trkpt lat="45.21501" lon="5.60145">
        <ele>1472.1999511719</ele>
        <time>2019-08-11T11:32:17.000Z</time>
      </trkpt>
      <trkpt lat="45.21497" lon="5.60142">
        <ele>1472.1999511719</ele>
        <time>2019-08-11T11:32:19.000Z</time>
      </trkpt>
      <trkpt lat="45.21495" lon="5.6014">
        <ele>1472.4000244141</ele>
        <time>2019-08-11T11:32:20.000Z</time>
      </trkpt>
      <trkpt lat="45.21488" lon="5.60137">
        <ele>1472.4000244141</ele>
        <time>2019-08-11T11:32:23.000Z</time>
      </trkpt>
      <trkpt lat="45.21486" lon="5.60135">
        <ele>1472.5999755859</ele>
        <time>2019-08-11T11:32:24.000Z</time>
      </trkpt>
      <trkpt lat="45.21479" lon="5.60123">
        <ele>1472.8000488281</ele>
        <time>2019-08-11T11:32:30.000Z</time>
      </trkpt>
      <trkpt lat="45.21473" lon="5.60111">
        <ele>1473.1999511719</ele>
        <time>2019-08-11T11:32:35.000Z</time>
      </trkpt>
      <trkpt lat="45.21472" lon="5.6011">
        <ele>1473.4000244141</ele>
        <time>2019-08-11T11:32:36.000Z</time>
      </trkpt>
      <trkpt lat="45.21468" lon="5.60107">
        <ele>1473.5999755859</ele>
        <time>2019-08-11T11:32:39.000Z</time>
      </trkpt>
      <trkpt lat="45.21458" lon="5.60097">
        <ele>1474.1999511719</ele>
        <time>2019-08-11T11:32:45.000Z</time>
      </trkpt>
      <trkpt lat="45.21457" lon="5.60095">
        <ele>1474.4000244141</ele>
        <time>2019-08-11T11:32:46.000Z</time>
      </trkpt>
      <trkpt lat="45.21455" lon="5.60094">
        <ele>1474.4000244141</ele>
        <time>2019-08-11T11:32:47.000Z</time>
      </trkpt>
      <trkpt lat="45.21449" lon="5.60088">
        <ele>1474.5999755859</ele>
        <time>2019-08-11T11:32:51.000Z</time>
      </trkpt>
      <trkpt lat="45.21447" lon="5.60087">
        <ele>1474.5999755859</ele>
        <time>2019-08-11T11:32:52.000Z</time>
      </trkpt>
      <trkpt lat="45.21442" lon="5.60083">
        <ele>1474.5999755859</ele>
        <time>2019-08-11T11:32:55.000Z</time>
      </trkpt>
      <trkpt lat="45.21441" lon="5.60081">
        <ele>1474.5999755859</ele>
        <time>2019-08-11T11:32:56.000Z</time>
      </trkpt>
      <trkpt lat="45.21433" lon="5.60077">
        <ele>1474.5999755859</ele>
        <time>2019-08-11T11:33:00.000Z</time>
      </trkpt>
      <trkpt lat="45.21432" lon="5.60074">
        <ele>1474.8000488281</ele>
        <time>2019-08-11T11:33:01.000Z</time>
      </trkpt>
      <trkpt lat="45.21429" lon="5.60066">
        <ele>1475</ele>
        <time>2019-08-11T11:33:04.000Z</time>
      </trkpt>
      <trkpt lat="45.21427" lon="5.60062">
        <ele>1475.1999511719</ele>
        <time>2019-08-11T11:33:06.000Z</time>
      </trkpt>
      <trkpt lat="45.21426" lon="5.60061">
        <ele>1475.1999511719</ele>
        <time>2019-08-11T11:33:07.000Z</time>
      </trkpt>
      <trkpt lat="45.21423" lon="5.60059">
        <ele>1475.1999511719</ele>
        <time>2019-08-11T11:33:09.000Z</time>
      </trkpt>
      <trkpt lat="45.21419" lon="5.60059">
        <ele>1475.4000244141</ele>
        <time>2019-08-11T11:33:11.000Z</time>
      </trkpt>
      <trkpt lat="45.21415" lon="5.60057">
        <ele>1475.5999755859</ele>
        <time>2019-08-11T11:33:13.000Z</time>
      </trkpt>
      <trkpt lat="45.21409" lon="5.60053">
        <ele>1476.4000244141</ele>
        <time>2019-08-11T11:33:17.000Z</time>
      </trkpt>
      <trkpt lat="45.21408" lon="5.60052">
        <ele>1476.5999755859</ele>
        <time>2019-08-11T11:33:18.000Z</time>
      </trkpt>
      <trkpt lat="45.21401" lon="5.60052">
        <ele>1477.1999511719</ele>
        <time>2019-08-11T11:33:23.000Z</time>
      </trkpt>
      <trkpt lat="45.21399" lon="5.60055">
        <ele>1476.8000488281</ele>
        <time>2019-08-11T11:33:31.000Z</time>
      </trkpt>
      <trkpt lat="45.21399" lon="5.60055">
        <ele>1476.8000488281</ele>
        <time>2019-08-11T11:33:41.000Z</time>
      </trkpt>
      <trkpt lat="45.214" lon="5.60056">
        <ele>1476.5999755859</ele>
        <time>2019-08-11T11:33:51.000Z</time>
      </trkpt>
      <trkpt lat="45.214" lon="5.60057">
        <ele>1476.8000488281</ele>
        <time>2019-08-11T11:33:53.000Z</time>
      </trkpt>
      <trkpt lat="45.21398" lon="5.60062">
        <ele>1476.8000488281</ele>
        <time>2019-08-11T11:33:56.000Z</time>
      </trkpt>
      <trkpt lat="45.21392" lon="5.60074">
        <ele>1476.5999755859</ele>
        <time>2019-08-11T11:34:01.000Z</time>
      </trkpt>
      <trkpt lat="45.21392" lon="5.60077">
        <ele>1476.4000244141</ele>
        <time>2019-08-11T11:34:02.000Z</time>
      </trkpt>
      <trkpt lat="45.2139" lon="5.60086">
        <ele>1475.5999755859</ele>
        <time>2019-08-11T11:34:05.000Z</time>
      </trkpt>
      <trkpt lat="45.21389" lon="5.60097">
        <ele>1475.4000244141</ele>
        <time>2019-08-11T11:34:08.000Z</time>
      </trkpt>
      <trkpt lat="45.21389" lon="5.60101">
        <ele>1475.1999511719</ele>
        <time>2019-08-11T11:34:09.000Z</time>
      </trkpt>
      <trkpt lat="45.21386" lon="5.60124">
        <ele>1474.5999755859</ele>
        <time>2019-08-11T11:34:14.000Z</time>
      </trkpt>
      <trkpt lat="45.21385" lon="5.60128">
        <ele>1474.4000244141</ele>
        <time>2019-08-11T11:34:15.000Z</time>
      </trkpt>
      <trkpt lat="45.21382" lon="5.60141">
        <ele>1473.4000244141</ele>
        <time>2019-08-11T11:34:19.000Z</time>
      </trkpt>
      <trkpt lat="45.21382" lon="5.60146">
        <ele>1473</ele>
        <time>2019-08-11T11:34:20.000Z</time>
      </trkpt>
      <trkpt lat="45.2138" lon="5.6016">
        <ele>1472</ele>
        <time>2019-08-11T11:34:23.000Z</time>
      </trkpt>
      <trkpt lat="45.2138" lon="5.60177">
        <ele>1472</ele>
        <time>2019-08-11T11:34:27.000Z</time>
      </trkpt>
      <trkpt lat="45.21374" lon="5.60196">
        <ele>1471.4000244141</ele>
        <time>2019-08-11T11:34:31.000Z</time>
      </trkpt>
      <trkpt lat="45.21372" lon="5.60203">
        <ele>1470.5999755859</ele>
        <time>2019-08-11T11:34:33.000Z</time>
      </trkpt>
      <trkpt lat="45.21371" lon="5.60213">
        <ele>1470</ele>
        <time>2019-08-11T11:34:36.000Z</time>
      </trkpt>
      <trkpt lat="45.21369" lon="5.60218">
        <ele>1469.5999755859</ele>
        <time>2019-08-11T11:34:38.000Z</time>
      </trkpt>
      <trkpt lat="45.21369" lon="5.60221">
        <ele>1469.4000244141</ele>
        <time>2019-08-11T11:34:39.000Z</time>
      </trkpt>
      <trkpt lat="45.21367" lon="5.60225">
        <ele>1469.4000244141</ele>
        <time>2019-08-11T11:34:40.000Z</time>
      </trkpt>
      <trkpt lat="45.21362" lon="5.60239">
        <ele>1469</ele>
        <time>2019-08-11T11:34:43.000Z</time>
      </trkpt>
      <trkpt lat="45.2136" lon="5.60245">
        <ele>1469.4000244141</ele>
        <time>2019-08-11T11:34:45.000Z</time>
      </trkpt>
      <trkpt lat="45.21357" lon="5.60257">
        <ele>1470.4000244141</ele>
        <time>2019-08-11T11:34:49.000Z</time>
      </trkpt>
      <trkpt lat="45.21357" lon="5.60259">
        <ele>1470.5999755859</ele>
        <time>2019-08-11T11:34:50.000Z</time>
      </trkpt>
      <trkpt lat="45.21358" lon="5.60268">
        <ele>1471.1999511719</ele>
        <time>2019-08-11T11:34:53.000Z</time>
      </trkpt>
      <trkpt lat="45.2136" lon="5.60274">
        <ele>1471.5999755859</ele>
        <time>2019-08-11T11:34:58.000Z</time>
      </trkpt>
      <trkpt lat="45.21359" lon="5.60275">
        <ele>1471.8000488281</ele>
        <time>2019-08-11T11:34:59.000Z</time>
      </trkpt>
      <trkpt lat="45.21359" lon="5.60277">
        <ele>1471.8000488281</ele>
        <time>2019-08-11T11:35:01.000Z</time>
      </trkpt>
      <trkpt lat="45.21359" lon="5.60286">
        <ele>1471.8000488281</ele>
        <time>2019-08-11T11:35:06.000Z</time>
      </trkpt>
      <trkpt lat="45.21362" lon="5.603">
        <ele>1471.4000244141</ele>
        <time>2019-08-11T11:35:12.000Z</time>
      </trkpt>
      <trkpt lat="45.21363" lon="5.60318">
        <ele>1471.1999511719</ele>
        <time>2019-08-11T11:35:16.000Z</time>
      </trkpt>
      <trkpt lat="45.21366" lon="5.60337">
        <ele>1470.5999755859</ele>
        <time>2019-08-11T11:35:20.000Z</time>
      </trkpt>
      <trkpt lat="45.21367" lon="5.60341">
        <ele>1470.4000244141</ele>
        <time>2019-08-11T11:35:21.000Z</time>
      </trkpt>
      <trkpt lat="45.21372" lon="5.60359">
        <ele>1469.8000488281</ele>
        <time>2019-08-11T11:35:26.000Z</time>
      </trkpt>
      <trkpt lat="45.21374" lon="5.60367">
        <ele>1469.5999755859</ele>
        <time>2019-08-11T11:35:28.000Z</time>
      </trkpt>
      <trkpt lat="45.21376" lon="5.60371">
        <ele>1469.4000244141</ele>
        <time>2019-08-11T11:35:29.000Z</time>
      </trkpt>
      <trkpt lat="45.21377" lon="5.60376">
        <ele>1469.1999511719</ele>
        <time>2019-08-11T11:35:30.000Z</time>
      </trkpt>
      <trkpt lat="45.21378" lon="5.60381">
        <ele>1468.1999511719</ele>
        <time>2019-08-11T11:35:31.000Z</time>
      </trkpt>
      <trkpt lat="45.21381" lon="5.60391">
        <ele>1467.5999755859</ele>
        <time>2019-08-11T11:35:33.000Z</time>
      </trkpt>
      <trkpt lat="45.21383" lon="5.60402">
        <ele>1467.1999511719</ele>
        <time>2019-08-11T11:35:35.000Z</time>
      </trkpt>
      <trkpt lat="45.21385" lon="5.60407">
        <ele>1467</ele>
        <time>2019-08-11T11:35:36.000Z</time>
      </trkpt>
      <trkpt lat="45.21387" lon="5.60412">
        <ele>1467</ele>
        <time>2019-08-11T11:35:37.000Z</time>
      </trkpt>
      <trkpt lat="45.21391" lon="5.60422">
        <ele>1467</ele>
        <time>2019-08-11T11:35:39.000Z</time>
      </trkpt>
      <trkpt lat="45.21395" lon="5.6044">
        <ele>1467.1999511719</ele>
        <time>2019-08-11T11:35:43.000Z</time>
      </trkpt>
      <trkpt lat="45.21399" lon="5.60446">
        <ele>1467.4000244141</ele>
        <time>2019-08-11T11:35:45.000Z</time>
      </trkpt>
      <trkpt lat="45.21406" lon="5.60456">
        <ele>1467.8000488281</ele>
        <time>2019-08-11T11:35:49.000Z</time>
      </trkpt>
      <trkpt lat="45.21408" lon="5.60463">
        <ele>1468.4000244141</ele>
        <time>2019-08-11T11:35:52.000Z</time>
      </trkpt>
      <trkpt lat="45.21408" lon="5.60466">
        <ele>1468.8000488281</ele>
        <time>2019-08-11T11:35:53.000Z</time>
      </trkpt>
      <trkpt lat="45.21408" lon="5.60468">
        <ele>1469</ele>
        <time>2019-08-11T11:35:54.000Z</time>
      </trkpt>
      <trkpt lat="45.21408" lon="5.6047">
        <ele>1469.8000488281</ele>
        <time>2019-08-11T11:35:56.000Z</time>
      </trkpt>
      <trkpt lat="45.21407" lon="5.60472">
        <ele>1471.1999511719</ele>
        <time>2019-08-11T11:35:59.000Z</time>
      </trkpt>
      <trkpt lat="45.21408" lon="5.60478">
        <ele>1472.4000244141</ele>
        <time>2019-08-11T11:36:05.000Z</time>
      </trkpt>
      <trkpt lat="45.21409" lon="5.60478">
        <ele>1472.4000244141</ele>
        <time>2019-08-11T11:36:06.000Z</time>
      </trkpt>
      <trkpt lat="45.2141" lon="5.60481">
        <ele>1473.5999755859</ele>
        <time>2019-08-11T11:36:10.000Z</time>
      </trkpt>
      <trkpt lat="45.21411" lon="5.60484">
        <ele>1474</ele>
        <time>2019-08-11T11:36:14.000Z</time>
      </trkpt>
      <trkpt lat="45.21412" lon="5.60487">
        <ele>1474.5999755859</ele>
        <time>2019-08-11T11:36:19.000Z</time>
      </trkpt>
      <trkpt lat="45.21412" lon="5.60489">
        <ele>1475.4000244141</ele>
        <time>2019-08-11T11:36:23.000Z</time>
      </trkpt>
      <trkpt lat="45.21412" lon="5.6049">
        <ele>1475.8000488281</ele>
        <time>2019-08-11T11:36:25.000Z</time>
      </trkpt>
      <trkpt lat="45.21413" lon="5.60492">
        <ele>1476</ele>
        <time>2019-08-11T11:36:30.000Z</time>
      </trkpt>
      <trkpt lat="45.21414" lon="5.60495">
        <ele>1476.1999511719</ele>
        <time>2019-08-11T11:36:40.000Z</time>
      </trkpt>
      <trkpt lat="45.21411" lon="5.60499">
        <ele>1477.1999511719</ele>
        <time>2019-08-11T11:36:47.000Z</time>
      </trkpt>
      <trkpt lat="45.2141" lon="5.605">
        <ele>1477.5999755859</ele>
        <time>2019-08-11T11:36:50.000Z</time>
      </trkpt>
      <trkpt lat="45.21409" lon="5.60501">
        <ele>1478.1999511719</ele>
        <time>2019-08-11T11:36:54.000Z</time>
      </trkpt>
      <trkpt lat="45.21407" lon="5.60501">
        <ele>1478.5999755859</ele>
        <time>2019-08-11T11:36:57.000Z</time>
      </trkpt>
      <trkpt lat="45.21406" lon="5.605">
        <ele>1478.8000488281</ele>
        <time>2019-08-11T11:36:58.000Z</time>
      </trkpt>
      <trkpt lat="45.21403" lon="5.605">
        <ele>1479.5999755859</ele>
        <time>2019-08-11T11:37:02.000Z</time>
      </trkpt>
      <trkpt lat="45.21402" lon="5.605">
        <ele>1479.5999755859</ele>
        <time>2019-08-11T11:37:03.000Z</time>
      </trkpt>
      <trkpt lat="45.21398" lon="5.60501">
        <ele>1480.5999755859</ele>
        <time>2019-08-11T11:37:09.000Z</time>
      </trkpt>
      <trkpt lat="45.21397" lon="5.60501">
        <ele>1480.8000488281</ele>
        <time>2019-08-11T11:37:12.000Z</time>
      </trkpt>
      <trkpt lat="45.2139" lon="5.60501">
        <ele>1481.8000488281</ele>
        <time>2019-08-11T11:37:20.000Z</time>
      </trkpt>
      <trkpt lat="45.2139" lon="5.60502">
        <ele>1481.8000488281</ele>
        <time>2019-08-11T11:37:21.000Z</time>
      </trkpt>
      <trkpt lat="45.21386" lon="5.60501">
        <ele>1482.4000244141</ele>
        <time>2019-08-11T11:37:26.000Z</time>
      </trkpt>
      <trkpt lat="45.21384" lon="5.605">
        <ele>1482.8000488281</ele>
        <time>2019-08-11T11:37:29.000Z</time>
      </trkpt>
      <trkpt lat="45.21384" lon="5.60499">
        <ele>1483</ele>
        <time>2019-08-11T11:37:30.000Z</time>
      </trkpt>
      <trkpt lat="45.21377" lon="5.60501">
        <ele>1483.5999755859</ele>
        <time>2019-08-11T11:37:35.000Z</time>
      </trkpt>
      <trkpt lat="45.21372" lon="5.60502">
        <ele>1484.1999511719</ele>
        <time>2019-08-11T11:37:40.000Z</time>
      </trkpt>
      <trkpt lat="45.21367" lon="5.60502">
        <ele>1485</ele>
        <time>2019-08-11T11:37:45.000Z</time>
      </trkpt>
      <trkpt lat="45.21365" lon="5.60502">
        <ele>1485.1999511719</ele>
        <time>2019-08-11T11:37:47.000Z</time>
      </trkpt>
      <trkpt lat="45.21357" lon="5.60501">
        <ele>1486.4000244141</ele>
        <time>2019-08-11T11:37:54.000Z</time>
      </trkpt>
      <trkpt lat="45.21356" lon="5.60501">
        <ele>1486.8000488281</ele>
        <time>2019-08-11T11:37:55.000Z</time>
      </trkpt>
      <trkpt lat="45.21352" lon="5.60502">
        <ele>1487.4000244141</ele>
        <time>2019-08-11T11:37:58.000Z</time>
      </trkpt>
      <trkpt lat="45.21352" lon="5.60502">
        <ele>1487.4000244141</ele>
        <time>2019-08-11T11:37:59.000Z</time>
      </trkpt>
      <trkpt lat="45.2135" lon="5.60501">
        <ele>1487.8000488281</ele>
        <time>2019-08-11T11:38:02.000Z</time>
      </trkpt>
      <trkpt lat="45.21343" lon="5.60502">
        <ele>1488.5999755859</ele>
        <time>2019-08-11T11:38:09.000Z</time>
      </trkpt>
      <trkpt lat="45.21337" lon="5.60504">
        <ele>1489.5999755859</ele>
        <time>2019-08-11T11:38:14.000Z</time>
      </trkpt>
      <trkpt lat="45.21336" lon="5.60504">
        <ele>1489.8000488281</ele>
        <time>2019-08-11T11:38:15.000Z</time>
      </trkpt>
      <trkpt lat="45.21328" lon="5.60506">
        <ele>1490.8000488281</ele>
        <time>2019-08-11T11:38:23.000Z</time>
      </trkpt>
      <trkpt lat="45.21326" lon="5.60506">
        <ele>1491</ele>
        <time>2019-08-11T11:38:25.000Z</time>
      </trkpt>
      <trkpt lat="45.2132" lon="5.60503">
        <ele>1492.1999511719</ele>
        <time>2019-08-11T11:38:33.000Z</time>
      </trkpt>
      <trkpt lat="45.21318" lon="5.60502">
        <ele>1492.4000244141</ele>
        <time>2019-08-11T11:38:35.000Z</time>
      </trkpt>
      <trkpt lat="45.21309" lon="5.60503">
        <ele>1493.1999511719</ele>
        <time>2019-08-11T11:38:42.000Z</time>
      </trkpt>
      <trkpt lat="45.21309" lon="5.60502">
        <ele>1493.4000244141</ele>
        <time>2019-08-11T11:38:43.000Z</time>
      </trkpt>
      <trkpt lat="45.21303" lon="5.60501">
        <ele>1494.1999511719</ele>
        <time>2019-08-11T11:38:48.000Z</time>
      </trkpt>
      <trkpt lat="45.21302" lon="5.60501">
        <ele>1494.4000244141</ele>
        <time>2019-08-11T11:38:49.000Z</time>
      </trkpt>
      <trkpt lat="45.21296" lon="5.60507">
        <ele>1495.4000244141</ele>
        <time>2019-08-11T11:38:56.000Z</time>
      </trkpt>
      <trkpt lat="45.21295" lon="5.60507">
        <ele>1495.5999755859</ele>
        <time>2019-08-11T11:38:57.000Z</time>
      </trkpt>
      <trkpt lat="45.21287" lon="5.60514">
        <ele>1496.4000244141</ele>
        <time>2019-08-11T11:39:06.000Z</time>
      </trkpt>
      <trkpt lat="45.21287" lon="5.60516">
        <ele>1496.8000488281</ele>
        <time>2019-08-11T11:39:08.000Z</time>
      </trkpt>
      <trkpt lat="45.21287" lon="5.60523">
        <ele>1497.4000244141</ele>
        <time>2019-08-11T11:39:13.000Z</time>
      </trkpt>
      <trkpt lat="45.21286" lon="5.60531">
        <ele>1498</ele>
        <time>2019-08-11T11:39:19.000Z</time>
      </trkpt>
      <trkpt lat="45.21286" lon="5.60533">
        <ele>1498.1999511719</ele>
        <time>2019-08-11T11:39:23.000Z</time>
      </trkpt>
      <trkpt lat="45.21285" lon="5.60535">
        <ele>1498</ele>
        <time>2019-08-11T11:39:35.000Z</time>
      </trkpt>
      <trkpt lat="45.21285" lon="5.60535">
        <ele>1498.4000244141</ele>
        <time>2019-08-11T11:39:45.000Z</time>
      </trkpt>
      <trkpt lat="45.21286" lon="5.60546">
        <ele>1499</ele>
        <time>2019-08-11T11:39:54.000Z</time>
      </trkpt>
      <trkpt lat="45.21286" lon="5.60548">
        <ele>1499.1999511719</ele>
        <time>2019-08-11T11:39:58.000Z</time>
      </trkpt>
      <trkpt lat="45.21285" lon="5.60552">
        <ele>1499.1999511719</ele>
        <time>2019-08-11T11:40:02.000Z</time>
      </trkpt>
      <trkpt lat="45.21282" lon="5.6056">
        <ele>1500</ele>
        <time>2019-08-11T11:40:08.000Z</time>
      </trkpt>
      <trkpt lat="45.21282" lon="5.60561">
        <ele>1500.4000244141</ele>
        <time>2019-08-11T11:40:09.000Z</time>
      </trkpt>
      <trkpt lat="45.21285" lon="5.60565">
        <ele>1501</ele>
        <time>2019-08-11T11:40:15.000Z</time>
      </trkpt>
      <trkpt lat="45.2129" lon="5.60571">
        <ele>1500.4000244141</ele>
        <time>2019-08-11T11:40:23.000Z</time>
      </trkpt>
      <trkpt lat="45.21298" lon="5.60586">
        <ele>1501.1999511719</ele>
        <time>2019-08-11T11:40:31.000Z</time>
      </trkpt>
      <trkpt lat="45.21299" lon="5.60589">
        <ele>1501.5999755859</ele>
        <time>2019-08-11T11:40:33.000Z</time>
      </trkpt>
      <trkpt lat="45.21299" lon="5.60595">
        <ele>1502</ele>
        <time>2019-08-11T11:40:36.000Z</time>
      </trkpt>
      <trkpt lat="45.21299" lon="5.60597">
        <ele>1502.1999511719</ele>
        <time>2019-08-11T11:40:37.000Z</time>
      </trkpt>
      <trkpt lat="45.21297" lon="5.60603">
        <ele>1503</ele>
        <time>2019-08-11T11:40:40.000Z</time>
      </trkpt>
      <trkpt lat="45.21295" lon="5.60607">
        <ele>1504</ele>
        <time>2019-08-11T11:40:43.000Z</time>
      </trkpt>
      <trkpt lat="45.21289" lon="5.60617">
        <ele>1504.8000488281</ele>
        <time>2019-08-11T11:40:49.000Z</time>
      </trkpt>
      <trkpt lat="45.21287" lon="5.60621">
        <ele>1505</ele>
        <time>2019-08-11T11:40:51.000Z</time>
      </trkpt>
      <trkpt lat="45.21284" lon="5.60626">
        <ele>1505.5999755859</ele>
        <time>2019-08-11T11:40:54.000Z</time>
      </trkpt>
      <trkpt lat="45.21273" lon="5.60632">
        <ele>1505.8000488281</ele>
        <time>2019-08-11T11:41:01.000Z</time>
      </trkpt>
      <trkpt lat="45.21272" lon="5.60634">
        <ele>1505.8000488281</ele>
        <time>2019-08-11T11:41:02.000Z</time>
      </trkpt>
      <trkpt lat="45.21269" lon="5.60641">
        <ele>1505.8000488281</ele>
        <time>2019-08-11T11:41:05.000Z</time>
      </trkpt>
      <trkpt lat="45.21264" lon="5.60653">
        <ele>1506</ele>
        <time>2019-08-11T11:41:08.000Z</time>
      </trkpt>
      <trkpt lat="45.21261" lon="5.60659">
        <ele>1506.1999511719</ele>
        <time>2019-08-11T11:41:10.000Z</time>
      </trkpt>
      <trkpt lat="45.21258" lon="5.60667">
        <ele>1506.1999511719</ele>
        <time>2019-08-11T11:41:12.000Z</time>
      </trkpt>
      <trkpt lat="45.21253" lon="5.60678">
        <ele>1505.5999755859</ele>
        <time>2019-08-11T11:41:16.000Z</time>
      </trkpt>
      <trkpt lat="45.21253" lon="5.60682">
        <ele>1505.5999755859</ele>
        <time>2019-08-11T11:41:18.000Z</time>
      </trkpt>
      <trkpt lat="45.21254" lon="5.60686">
        <ele>1506.1999511719</ele>
        <time>2019-08-11T11:41:21.000Z</time>
      </trkpt>
      <trkpt lat="45.21255" lon="5.60687">
        <ele>1506.1999511719</ele>
        <time>2019-08-11T11:41:22.000Z</time>
      </trkpt>
      <trkpt lat="45.21258" lon="5.6069">
        <ele>1507.1999511719</ele>
        <time>2019-08-11T11:41:27.000Z</time>
      </trkpt>
      <trkpt lat="45.21259" lon="5.6069">
        <ele>1507.1999511719</ele>
        <time>2019-08-11T11:41:28.000Z</time>
      </trkpt>
      <trkpt lat="45.21262" lon="5.60688">
        <ele>1508</ele>
        <time>2019-08-11T11:41:32.000Z</time>
      </trkpt>
      <trkpt lat="45.21263" lon="5.60687">
        <ele>1508.1999511719</ele>
        <time>2019-08-11T11:41:34.000Z</time>
      </trkpt>
      <trkpt lat="45.21269" lon="5.60686">
        <ele>1508.5999755859</ele>
        <time>2019-08-11T11:41:38.000Z</time>
      </trkpt>
      <trkpt lat="45.21276" lon="5.60685">
        <ele>1509.4000244141</ele>
        <time>2019-08-11T11:41:42.000Z</time>
      </trkpt>
      <trkpt lat="45.21282" lon="5.60683">
        <ele>1510</ele>
        <time>2019-08-11T11:41:45.000Z</time>
      </trkpt>
      <trkpt lat="45.21286" lon="5.60682">
        <ele>1510.1999511719</ele>
        <time>2019-08-11T11:41:47.000Z</time>
      </trkpt>
      <trkpt lat="45.2129" lon="5.60682">
        <ele>1510.4000244141</ele>
        <time>2019-08-11T11:41:50.000Z</time>
      </trkpt>
      <trkpt lat="45.21291" lon="5.60683">
        <ele>1510.5999755859</ele>
        <time>2019-08-11T11:41:51.000Z</time>
      </trkpt>
      <trkpt lat="45.21295" lon="5.60685">
        <ele>1510.5999755859</ele>
        <time>2019-08-11T11:41:54.000Z</time>
      </trkpt>
      <trkpt lat="45.21303" lon="5.60686">
        <ele>1511.1999511719</ele>
        <time>2019-08-11T11:42:00.000Z</time>
      </trkpt>
      <trkpt lat="45.21304" lon="5.60686">
        <ele>1511.4000244141</ele>
        <time>2019-08-11T11:42:01.000Z</time>
      </trkpt>
      <trkpt lat="45.2131" lon="5.60685">
        <ele>1511.4000244141</ele>
        <time>2019-08-11T11:42:04.000Z</time>
      </trkpt>
      <trkpt lat="45.21312" lon="5.60684">
        <ele>1511.4000244141</ele>
        <time>2019-08-11T11:42:05.000Z</time>
      </trkpt>
      <trkpt lat="45.2132" lon="5.60684">
        <ele>1511.8000488281</ele>
        <time>2019-08-11T11:42:10.000Z</time>
      </trkpt>
      <trkpt lat="45.21323" lon="5.60684">
        <ele>1511.8000488281</ele>
        <time>2019-08-11T11:42:12.000Z</time>
      </trkpt>
      <trkpt lat="45.21329" lon="5.60682">
        <ele>1512.1999511719</ele>
        <time>2019-08-11T11:42:15.000Z</time>
      </trkpt>
      <trkpt lat="45.21333" lon="5.6068">
        <ele>1512.1999511719</ele>
        <time>2019-08-11T11:42:17.000Z</time>
      </trkpt>
      <trkpt lat="45.21337" lon="5.6068">
        <ele>1512.1999511719</ele>
        <time>2019-08-11T11:42:20.000Z</time>
      </trkpt>
      <trkpt lat="45.21341" lon="5.60681">
        <ele>1512.1999511719</ele>
        <time>2019-08-11T11:42:22.000Z</time>
      </trkpt>
      <trkpt lat="45.21347" lon="5.6068">
        <ele>1512.4000244141</ele>
        <time>2019-08-11T11:42:25.000Z</time>
      </trkpt>
      <trkpt lat="45.21348" lon="5.60679">
        <ele>1512.4000244141</ele>
        <time>2019-08-11T11:42:26.000Z</time>
      </trkpt>
      <trkpt lat="45.21356" lon="5.60679">
        <ele>1512.5999755859</ele>
        <time>2019-08-11T11:42:29.000Z</time>
      </trkpt>
      <trkpt lat="45.21361" lon="5.60678">
        <ele>1512.8000488281</ele>
        <time>2019-08-11T11:42:31.000Z</time>
      </trkpt>
      <trkpt lat="45.21365" lon="5.60679">
        <ele>1512.8000488281</ele>
        <time>2019-08-11T11:42:33.000Z</time>
      </trkpt>
      <trkpt lat="45.21367" lon="5.60679">
        <ele>1512.8000488281</ele>
        <time>2019-08-11T11:42:34.000Z</time>
      </trkpt>
      <trkpt lat="45.21373" lon="5.60682">
        <ele>1513.4000244141</ele>
        <time>2019-08-11T11:42:38.000Z</time>
      </trkpt>
      <trkpt lat="45.21375" lon="5.60683">
        <ele>1513.5999755859</ele>
        <time>2019-08-11T11:42:39.000Z</time>
      </trkpt>
      <trkpt lat="45.21383" lon="5.60685">
        <ele>1514.1999511719</ele>
        <time>2019-08-11T11:42:44.000Z</time>
      </trkpt>
      <trkpt lat="45.21393" lon="5.6069">
        <ele>1514.1999511719</ele>
        <time>2019-08-11T11:42:50.000Z</time>
      </trkpt>
      <trkpt lat="45.21402" lon="5.60694">
        <ele>1514.4000244141</ele>
        <time>2019-08-11T11:42:55.000Z</time>
      </trkpt>
      <trkpt lat="45.2141" lon="5.60697">
        <ele>1514.5999755859</ele>
        <time>2019-08-11T11:42:59.000Z</time>
      </trkpt>
      <trkpt lat="45.21418" lon="5.60701">
        <ele>1514.8000488281</ele>
        <time>2019-08-11T11:43:04.000Z</time>
      </trkpt>
      <trkpt lat="45.21422" lon="5.60704">
        <ele>1515.1999511719</ele>
        <time>2019-08-11T11:43:06.000Z</time>
      </trkpt>
      <trkpt lat="45.21423" lon="5.60705">
        <ele>1515.4000244141</ele>
        <time>2019-08-11T11:43:07.000Z</time>
      </trkpt>
      <trkpt lat="45.21427" lon="5.60708">
        <ele>1515.4000244141</ele>
        <time>2019-08-11T11:43:08.000Z</time>
      </trkpt>
      <trkpt lat="45.21439" lon="5.60714">
        <ele>1515.8000488281</ele>
        <time>2019-08-11T11:43:13.000Z</time>
      </trkpt>
      <trkpt lat="45.21446" lon="5.60715">
        <ele>1516</ele>
        <time>2019-08-11T11:43:18.000Z</time>
      </trkpt>
      <trkpt lat="45.21448" lon="5.60716">
        <ele>1516</ele>
        <time>2019-08-11T11:43:20.000Z</time>
      </trkpt>
      <trkpt lat="45.2145" lon="5.60717">
        <ele>1516.1999511719</ele>
        <time>2019-08-11T11:43:28.000Z</time>
      </trkpt>
      <trkpt lat="45.21455" lon="5.60718">
        <ele>1516</ele>
        <time>2019-08-11T11:43:41.000Z</time>
      </trkpt>
      <trkpt lat="45.21456" lon="5.60719">
        <ele>1516.1999511719</ele>
        <time>2019-08-11T11:43:53.000Z</time>
      </trkpt>
      <trkpt lat="45.21456" lon="5.6072">
        <ele>1515.8000488281</ele>
        <time>2019-08-11T11:44:06.000Z</time>
      </trkpt>
      <trkpt lat="45.21457" lon="5.60722">
        <ele>1516</ele>
        <time>2019-08-11T11:44:21.000Z</time>
      </trkpt>
      <trkpt lat="45.21459" lon="5.60724">
        <ele>1516</ele>
        <time>2019-08-11T11:44:33.000Z</time>
      </trkpt>
      <trkpt lat="45.21462" lon="5.60726">
        <ele>1516.4000244141</ele>
        <time>2019-08-11T11:44:36.000Z</time>
      </trkpt>
      <trkpt lat="45.21464" lon="5.60727">
        <ele>1516.4000244141</ele>
        <time>2019-08-11T11:44:38.000Z</time>
      </trkpt>
      <trkpt lat="45.21467" lon="5.60728">
        <ele>1516.1999511719</ele>
        <time>2019-08-11T11:44:41.000Z</time>
      </trkpt>
      <trkpt lat="45.21468" lon="5.6073">
        <ele>1516.4000244141</ele>
        <time>2019-08-11T11:44:43.000Z</time>
      </trkpt>
      <trkpt lat="45.21469" lon="5.6073">
        <ele>1516.4000244141</ele>
        <time>2019-08-11T11:44:44.000Z</time>
      </trkpt>
      <trkpt lat="45.21475" lon="5.60733">
        <ele>1516.8000488281</ele>
        <time>2019-08-11T11:44:47.000Z</time>
      </trkpt>
      <trkpt lat="45.21481" lon="5.60737">
        <ele>1516.5999755859</ele>
        <time>2019-08-11T11:44:50.000Z</time>
      </trkpt>
      <trkpt lat="45.21484" lon="5.6074">
        <ele>1516.5999755859</ele>
        <time>2019-08-11T11:44:52.000Z</time>
      </trkpt>
      <trkpt lat="45.21489" lon="5.60748">
        <ele>1516.5999755859</ele>
        <time>2019-08-11T11:44:56.000Z</time>
      </trkpt>
      <trkpt lat="45.21498" lon="5.60751">
        <ele>1516.8000488281</ele>
        <time>2019-08-11T11:45:00.000Z</time>
      </trkpt>
      <trkpt lat="45.21513" lon="5.60755">
        <ele>1516.8000488281</ele>
        <time>2019-08-11T11:45:05.000Z</time>
      </trkpt>
      <trkpt lat="45.21521" lon="5.60759">
        <ele>1516.5999755859</ele>
        <time>2019-08-11T11:45:07.000Z</time>
      </trkpt>
      <trkpt lat="45.21532" lon="5.60763">
        <ele>1516.4000244141</ele>
        <time>2019-08-11T11:45:10.000Z</time>
      </trkpt>
      <trkpt lat="45.21546" lon="5.60775">
        <ele>1517</ele>
        <time>2019-08-11T11:45:14.000Z</time>
      </trkpt>
      <trkpt lat="45.2155" lon="5.60778">
        <ele>1517</ele>
        <time>2019-08-11T11:45:15.000Z</time>
      </trkpt>
      <trkpt lat="45.21557" lon="5.60784">
        <ele>1517.4000244141</ele>
        <time>2019-08-11T11:45:17.000Z</time>
      </trkpt>
      <trkpt lat="45.21559" lon="5.60786">
        <ele>1517.4000244141</ele>
        <time>2019-08-11T11:45:18.000Z</time>
      </trkpt>
      <trkpt lat="45.2157" lon="5.60797">
        <ele>1517.5999755859</ele>
        <time>2019-08-11T11:45:23.000Z</time>
      </trkpt>
      <trkpt lat="45.21581" lon="5.60808">
        <ele>1517.5999755859</ele>
        <time>2019-08-11T11:45:26.000Z</time>
      </trkpt>
      <trkpt lat="45.21586" lon="5.60817">
        <ele>1518</ele>
        <time>2019-08-11T11:45:28.000Z</time>
      </trkpt>
      <trkpt lat="45.21591" lon="5.60825">
        <ele>1518.1999511719</ele>
        <time>2019-08-11T11:45:30.000Z</time>
      </trkpt>
      <trkpt lat="45.216" lon="5.60834">
        <ele>1518.5999755859</ele>
        <time>2019-08-11T11:45:33.000Z</time>
      </trkpt>
      <trkpt lat="45.21602" lon="5.60838">
        <ele>1518.8000488281</ele>
        <time>2019-08-11T11:45:34.000Z</time>
      </trkpt>
      <trkpt lat="45.21607" lon="5.60844">
        <ele>1519.1999511719</ele>
        <time>2019-08-11T11:45:36.000Z</time>
      </trkpt>
      <trkpt lat="45.2161" lon="5.60851">
        <ele>1519.4000244141</ele>
        <time>2019-08-11T11:45:38.000Z</time>
      </trkpt>
      <trkpt lat="45.21613" lon="5.60871">
        <ele>1520</ele>
        <time>2019-08-11T11:45:44.000Z</time>
      </trkpt>
      <trkpt lat="45.21613" lon="5.60874">
        <ele>1520.1999511719</ele>
        <time>2019-08-11T11:45:45.000Z</time>
      </trkpt>
      <trkpt lat="45.21617" lon="5.60881">
        <ele>1520</ele>
        <time>2019-08-11T11:45:48.000Z</time>
      </trkpt>
      <trkpt lat="45.21626" lon="5.6089">
        <ele>1519.8000488281</ele>
        <time>2019-08-11T11:45:51.000Z</time>
      </trkpt>
      <trkpt lat="45.21634" lon="5.60896">
        <ele>1518.4000244141</ele>
        <time>2019-08-11T11:45:53.000Z</time>
      </trkpt>
      <trkpt lat="45.21636" lon="5.60899">
        <ele>1518</ele>
        <time>2019-08-11T11:45:54.000Z</time>
      </trkpt>
      <trkpt lat="45.2164" lon="5.60902">
        <ele>1517.8000488281</ele>
        <time>2019-08-11T11:45:55.000Z</time>
      </trkpt>
      <trkpt lat="45.21656" lon="5.60919">
        <ele>1518.5999755859</ele>
        <time>2019-08-11T11:46:00.000Z</time>
      </trkpt>
      <trkpt lat="45.21661" lon="5.60932">
        <ele>1518.4000244141</ele>
        <time>2019-08-11T11:46:04.000Z</time>
      </trkpt>
      <trkpt lat="45.21662" lon="5.60936">
        <ele>1518.1999511719</ele>
        <time>2019-08-11T11:46:05.000Z</time>
      </trkpt>
      <trkpt lat="45.21665" lon="5.60952">
        <ele>1518.1999511719</ele>
        <time>2019-08-11T11:46:09.000Z</time>
      </trkpt>
      <trkpt lat="45.21667" lon="5.60956">
        <ele>1518.1999511719</ele>
        <time>2019-08-11T11:46:10.000Z</time>
      </trkpt>
      <trkpt lat="45.21669" lon="5.60961">
        <ele>1518.4000244141</ele>
        <time>2019-08-11T11:46:11.000Z</time>
      </trkpt>
      <trkpt lat="45.21673" lon="5.60966">
        <ele>1518.4000244141</ele>
        <time>2019-08-11T11:46:12.000Z</time>
      </trkpt>
      <trkpt lat="45.21696" lon="5.60994">
        <ele>1518</ele>
        <time>2019-08-11T11:46:17.000Z</time>
      </trkpt>
      <trkpt lat="45.21714" lon="5.61012">
        <ele>1517.8000488281</ele>
        <time>2019-08-11T11:46:21.000Z</time>
      </trkpt>
      <trkpt lat="45.21719" lon="5.61016">
        <ele>1517.8000488281</ele>
        <time>2019-08-11T11:46:22.000Z</time>
      </trkpt>
      <trkpt lat="45.21733" lon="5.6103">
        <ele>1517.8000488281</ele>
        <time>2019-08-11T11:46:26.000Z</time>
      </trkpt>
      <trkpt lat="45.21756" lon="5.61046">
        <ele>1517.5999755859</ele>
        <time>2019-08-11T11:46:32.000Z</time>
      </trkpt>
      <trkpt lat="45.21759" lon="5.61049">
        <ele>1517.5999755859</ele>
        <time>2019-08-11T11:46:33.000Z</time>
      </trkpt>
      <trkpt lat="45.21766" lon="5.61057">
        <ele>1517.1999511719</ele>
        <time>2019-08-11T11:46:36.000Z</time>
      </trkpt>
      <trkpt lat="45.21778" lon="5.61067">
        <ele>1517</ele>
        <time>2019-08-11T11:46:40.000Z</time>
      </trkpt>
      <trkpt lat="45.21794" lon="5.61081">
        <ele>1516.8000488281</ele>
        <time>2019-08-11T11:46:45.000Z</time>
      </trkpt>
      <trkpt lat="45.21805" lon="5.61089">
        <ele>1516.8000488281</ele>
        <time>2019-08-11T11:46:48.000Z</time>
      </trkpt>
      <trkpt lat="45.21814" lon="5.61095">
        <ele>1516.5999755859</ele>
        <time>2019-08-11T11:46:51.000Z</time>
      </trkpt>
      <trkpt lat="45.21823" lon="5.6111">
        <ele>1516.4000244141</ele>
        <time>2019-08-11T11:46:55.000Z</time>
      </trkpt>
      <trkpt lat="45.21828" lon="5.61128">
        <ele>1515.5999755859</ele>
        <time>2019-08-11T11:46:58.000Z</time>
      </trkpt>
      <trkpt lat="45.21828" lon="5.61136">
        <ele>1515.4000244141</ele>
        <time>2019-08-11T11:46:59.000Z</time>
      </trkpt>
      <trkpt lat="45.21831" lon="5.61153">
        <ele>1514.5999755859</ele>
        <time>2019-08-11T11:47:01.000Z</time>
      </trkpt>
      <trkpt lat="45.21833" lon="5.61163">
        <ele>1514.4000244141</ele>
        <time>2019-08-11T11:47:02.000Z</time>
      </trkpt>
      <trkpt lat="45.21835" lon="5.61185">
        <ele>1513.4000244141</ele>
        <time>2019-08-11T11:47:04.000Z</time>
      </trkpt>
      <trkpt lat="45.21834" lon="5.61195">
        <ele>1512.1999511719</ele>
        <time>2019-08-11T11:47:05.000Z</time>
      </trkpt>
      <trkpt lat="45.21834" lon="5.61205">
        <ele>1511.5999755859</ele>
        <time>2019-08-11T11:47:06.000Z</time>
      </trkpt>
      <trkpt lat="45.21834" lon="5.61216">
        <ele>1511.1999511719</ele>
        <time>2019-08-11T11:47:07.000Z</time>
      </trkpt>
      <trkpt lat="45.21837" lon="5.61237">
        <ele>1509.5999755859</ele>
        <time>2019-08-11T11:47:09.000Z</time>
      </trkpt>
      <trkpt lat="45.2184" lon="5.61249">
        <ele>1509</ele>
        <time>2019-08-11T11:47:10.000Z</time>
      </trkpt>
      <trkpt lat="45.21846" lon="5.6127">
        <ele>1508.1999511719</ele>
        <time>2019-08-11T11:47:12.000Z</time>
      </trkpt>
      <trkpt lat="45.21847" lon="5.6128">
        <ele>1506.8000488281</ele>
        <time>2019-08-11T11:47:13.000Z</time>
      </trkpt>
      <trkpt lat="45.21848" lon="5.61289">
        <ele>1506.1999511719</ele>
        <time>2019-08-11T11:47:14.000Z</time>
      </trkpt>
      <trkpt lat="45.21849" lon="5.61303">
        <ele>1505.5999755859</ele>
        <time>2019-08-11T11:47:16.000Z</time>
      </trkpt>
      <trkpt lat="45.21851" lon="5.6132">
        <ele>1504.5999755859</ele>
        <time>2019-08-11T11:47:20.000Z</time>
      </trkpt>
      <trkpt lat="45.21852" lon="5.61323">
        <ele>1504.5999755859</ele>
        <time>2019-08-11T11:47:21.000Z</time>
      </trkpt>
      <trkpt lat="45.21852" lon="5.61336">
        <ele>1503.4000244141</ele>
        <time>2019-08-11T11:47:26.000Z</time>
      </trkpt>
      <trkpt lat="45.21853" lon="5.61362">
        <ele>1502.4000244141</ele>
        <time>2019-08-11T11:47:32.000Z</time>
      </trkpt>
      <trkpt lat="45.21853" lon="5.61372">
        <ele>1501.1999511719</ele>
        <time>2019-08-11T11:47:34.000Z</time>
      </trkpt>
      <trkpt lat="45.21854" lon="5.61378">
        <ele>1500.8000488281</ele>
        <time>2019-08-11T11:47:35.000Z</time>
      </trkpt>
      <trkpt lat="45.21856" lon="5.6139">
        <ele>1499.4000244141</ele>
        <time>2019-08-11T11:47:37.000Z</time>
      </trkpt>
      <trkpt lat="45.21856" lon="5.61403">
        <ele>1498</ele>
        <time>2019-08-11T11:47:39.000Z</time>
      </trkpt>
      <trkpt lat="45.21856" lon="5.61417">
        <ele>1497.1999511719</ele>
        <time>2019-08-11T11:47:41.000Z</time>
      </trkpt>
      <trkpt lat="45.21856" lon="5.61425">
        <ele>1496.5999755859</ele>
        <time>2019-08-11T11:47:42.000Z</time>
      </trkpt>
      <trkpt lat="45.21856" lon="5.61433">
        <ele>1496.1999511719</ele>
        <time>2019-08-11T11:47:43.000Z</time>
      </trkpt>
      <trkpt lat="45.21852" lon="5.61464">
        <ele>1494.4000244141</ele>
        <time>2019-08-11T11:47:47.000Z</time>
      </trkpt>
      <trkpt lat="45.21851" lon="5.61472">
        <ele>1493.8000488281</ele>
        <time>2019-08-11T11:47:48.000Z</time>
      </trkpt>
      <trkpt lat="45.21851" lon="5.6148">
        <ele>1493</ele>
        <time>2019-08-11T11:47:49.000Z</time>
      </trkpt>
      <trkpt lat="45.2185" lon="5.61497">
        <ele>1491.5999755859</ele>
        <time>2019-08-11T11:47:51.000Z</time>
      </trkpt>
      <trkpt lat="45.21848" lon="5.61516">
        <ele>1489.4000244141</ele>
        <time>2019-08-11T11:47:53.000Z</time>
      </trkpt>
      <trkpt lat="45.21845" lon="5.61525">
        <ele>1487.8000488281</ele>
        <time>2019-08-11T11:47:54.000Z</time>
      </trkpt>
      <trkpt lat="45.21842" lon="5.61534">
        <ele>1486.5999755859</ele>
        <time>2019-08-11T11:47:55.000Z</time>
      </trkpt>
      <trkpt lat="45.21837" lon="5.61544">
        <ele>1485.4000244141</ele>
        <time>2019-08-11T11:47:56.000Z</time>
      </trkpt>
      <trkpt lat="45.21832" lon="5.61553">
        <ele>1484.4000244141</ele>
        <time>2019-08-11T11:47:57.000Z</time>
      </trkpt>
      <trkpt lat="45.21826" lon="5.61562">
        <ele>1483.4000244141</ele>
        <time>2019-08-11T11:47:58.000Z</time>
      </trkpt>
      <trkpt lat="45.2182" lon="5.61571">
        <ele>1482</ele>
        <time>2019-08-11T11:47:59.000Z</time>
      </trkpt>
      <trkpt lat="45.21816" lon="5.6158">
        <ele>1480.5999755859</ele>
        <time>2019-08-11T11:48:00.000Z</time>
      </trkpt>
      <trkpt lat="45.21812" lon="5.61587">
        <ele>1478.1999511719</ele>
        <time>2019-08-11T11:48:01.000Z</time>
      </trkpt>
      <trkpt lat="45.21808" lon="5.61593">
        <ele>1476.5999755859</ele>
        <time>2019-08-11T11:48:02.000Z</time>
      </trkpt>
      <trkpt lat="45.21805" lon="5.61599">
        <ele>1475.5999755859</ele>
        <time>2019-08-11T11:48:03.000Z</time>
      </trkpt>
      <trkpt lat="45.21801" lon="5.6161">
        <ele>1474.4000244141</ele>
        <time>2019-08-11T11:48:05.000Z</time>
      </trkpt>
      <trkpt lat="45.21799" lon="5.61615">
        <ele>1473.8000488281</ele>
        <time>2019-08-11T11:48:06.000Z</time>
      </trkpt>
      <trkpt lat="45.21797" lon="5.6162">
        <ele>1473</ele>
        <time>2019-08-11T11:48:07.000Z</time>
      </trkpt>
      <trkpt lat="45.21796" lon="5.61625">
        <ele>1472.1999511719</ele>
        <time>2019-08-11T11:48:08.000Z</time>
      </trkpt>
      <trkpt lat="45.21794" lon="5.61631">
        <ele>1471.4000244141</ele>
        <time>2019-08-11T11:48:09.000Z</time>
      </trkpt>
      <trkpt lat="45.21792" lon="5.61646">
        <ele>1470.8000488281</ele>
        <time>2019-08-11T11:48:11.000Z</time>
      </trkpt>
      <trkpt lat="45.21791" lon="5.61666">
        <ele>1470.1999511719</ele>
        <time>2019-08-11T11:48:13.000Z</time>
      </trkpt>
      <trkpt lat="45.21789" lon="5.61688">
        <ele>1469.8000488281</ele>
        <time>2019-08-11T11:48:15.000Z</time>
      </trkpt>
      <trkpt lat="45.21789" lon="5.61699">
        <ele>1469</ele>
        <time>2019-08-11T11:48:16.000Z</time>
      </trkpt>
      <trkpt lat="45.21789" lon="5.61716">
        <ele>1467.8000488281</ele>
        <time>2019-08-11T11:48:18.000Z</time>
      </trkpt>
      <trkpt lat="45.21788" lon="5.61721">
        <ele>1466.5999755859</ele>
        <time>2019-08-11T11:48:19.000Z</time>
      </trkpt>
      <trkpt lat="45.21788" lon="5.61725">
        <ele>1465.4000244141</ele>
        <time>2019-08-11T11:48:20.000Z</time>
      </trkpt>
      <trkpt lat="45.21786" lon="5.61732">
        <ele>1464.1999511719</ele>
        <time>2019-08-11T11:48:22.000Z</time>
      </trkpt>
      <trkpt lat="45.21782" lon="5.61748">
        <ele>1463.1999511719</ele>
        <time>2019-08-11T11:48:25.000Z</time>
      </trkpt>
      <trkpt lat="45.21779" lon="5.61766">
        <ele>1461.1999511719</ele>
        <time>2019-08-11T11:48:27.000Z</time>
      </trkpt>
      <trkpt lat="45.21777" lon="5.61777">
        <ele>1460</ele>
        <time>2019-08-11T11:48:28.000Z</time>
      </trkpt>
      <trkpt lat="45.21776" lon="5.61788">
        <ele>1458.1999511719</ele>
        <time>2019-08-11T11:48:29.000Z</time>
      </trkpt>
      <trkpt lat="45.21774" lon="5.618">
        <ele>1455.5999755859</ele>
        <time>2019-08-11T11:48:30.000Z</time>
      </trkpt>
      <trkpt lat="45.21771" lon="5.61813">
        <ele>1454</ele>
        <time>2019-08-11T11:48:31.000Z</time>
      </trkpt>
      <trkpt lat="45.21769" lon="5.61827">
        <ele>1452.8000488281</ele>
        <time>2019-08-11T11:48:32.000Z</time>
      </trkpt>
      <trkpt lat="45.21768" lon="5.61841">
        <ele>1450.8000488281</ele>
        <time>2019-08-11T11:48:33.000Z</time>
      </trkpt>
      <trkpt lat="45.21767" lon="5.61855">
        <ele>1449.4000244141</ele>
        <time>2019-08-11T11:48:34.000Z</time>
      </trkpt>
      <trkpt lat="45.21766" lon="5.61868">
        <ele>1447.4000244141</ele>
        <time>2019-08-11T11:48:35.000Z</time>
      </trkpt>
      <trkpt lat="45.21766" lon="5.61881">
        <ele>1445.8000488281</ele>
        <time>2019-08-11T11:48:36.000Z</time>
      </trkpt>
      <trkpt lat="45.21766" lon="5.61893">
        <ele>1444.8000488281</ele>
        <time>2019-08-11T11:48:37.000Z</time>
      </trkpt>
      <trkpt lat="45.21767" lon="5.61914">
        <ele>1443</ele>
        <time>2019-08-11T11:48:39.000Z</time>
      </trkpt>
      <trkpt lat="45.21769" lon="5.61929">
        <ele>1441.1999511719</ele>
        <time>2019-08-11T11:48:41.000Z</time>
      </trkpt>
      <trkpt lat="45.2177" lon="5.61935">
        <ele>1440.1999511719</ele>
        <time>2019-08-11T11:48:42.000Z</time>
      </trkpt>
      <trkpt lat="45.2177" lon="5.61941">
        <ele>1439.1999511719</ele>
        <time>2019-08-11T11:48:43.000Z</time>
      </trkpt>
      <trkpt lat="45.2177" lon="5.61948">
        <ele>1438.1999511719</ele>
        <time>2019-08-11T11:48:44.000Z</time>
      </trkpt>
      <trkpt lat="45.21771" lon="5.61955">
        <ele>1437.1999511719</ele>
        <time>2019-08-11T11:48:45.000Z</time>
      </trkpt>
      <trkpt lat="45.21772" lon="5.61961">
        <ele>1436.1999511719</ele>
        <time>2019-08-11T11:48:46.000Z</time>
      </trkpt>
      <trkpt lat="45.21774" lon="5.61975">
        <ele>1434.4000244141</ele>
        <time>2019-08-11T11:48:48.000Z</time>
      </trkpt>
      <trkpt lat="45.21774" lon="5.61984">
        <ele>1433.4000244141</ele>
        <time>2019-08-11T11:48:49.000Z</time>
      </trkpt>
      <trkpt lat="45.21774" lon="5.61993">
        <ele>1431.1999511719</ele>
        <time>2019-08-11T11:48:50.000Z</time>
      </trkpt>
      <trkpt lat="45.21772" lon="5.62002">
        <ele>1429.8000488281</ele>
        <time>2019-08-11T11:48:51.000Z</time>
      </trkpt>
      <trkpt lat="45.21768" lon="5.6201">
        <ele>1428</ele>
        <time>2019-08-11T11:48:52.000Z</time>
      </trkpt>
      <trkpt lat="45.21763" lon="5.62016">
        <ele>1426.8000488281</ele>
        <time>2019-08-11T11:48:53.000Z</time>
      </trkpt>
      <trkpt lat="45.21756" lon="5.62019">
        <ele>1425.1999511719</ele>
        <time>2019-08-11T11:48:54.000Z</time>
      </trkpt>
      <trkpt lat="45.21749" lon="5.6202">
        <ele>1423</ele>
        <time>2019-08-11T11:48:55.000Z</time>
      </trkpt>
      <trkpt lat="45.21742" lon="5.62021">
        <ele>1422</ele>
        <time>2019-08-11T11:48:56.000Z</time>
      </trkpt>
      <trkpt lat="45.21735" lon="5.6202">
        <ele>1420.8000488281</ele>
        <time>2019-08-11T11:48:57.000Z</time>
      </trkpt>
      <trkpt lat="45.21719" lon="5.6202">
        <ele>1418.5999755859</ele>
        <time>2019-08-11T11:48:59.000Z</time>
      </trkpt>
      <trkpt lat="45.2171" lon="5.62021">
        <ele>1417.1999511719</ele>
        <time>2019-08-11T11:49:00.000Z</time>
      </trkpt>
      <trkpt lat="45.21701" lon="5.62022">
        <ele>1416.1999511719</ele>
        <time>2019-08-11T11:49:01.000Z</time>
      </trkpt>
      <trkpt lat="45.21691" lon="5.62024">
        <ele>1415</ele>
        <time>2019-08-11T11:49:02.000Z</time>
      </trkpt>
      <trkpt lat="45.21681" lon="5.62026">
        <ele>1413.1999511719</ele>
        <time>2019-08-11T11:49:03.000Z</time>
      </trkpt>
      <trkpt lat="45.21671" lon="5.62027">
        <ele>1411.4000244141</ele>
        <time>2019-08-11T11:49:04.000Z</time>
      </trkpt>
      <trkpt lat="45.21661" lon="5.62028">
        <ele>1409</ele>
        <time>2019-08-11T11:49:05.000Z</time>
      </trkpt>
      <trkpt lat="45.21651" lon="5.62029">
        <ele>1407.4000244141</ele>
        <time>2019-08-11T11:49:06.000Z</time>
      </trkpt>
      <trkpt lat="45.21641" lon="5.62032">
        <ele>1405.1999511719</ele>
        <time>2019-08-11T11:49:07.000Z</time>
      </trkpt>
      <trkpt lat="45.21631" lon="5.62037">
        <ele>1403.1999511719</ele>
        <time>2019-08-11T11:49:08.000Z</time>
      </trkpt>
      <trkpt lat="45.21621" lon="5.62042">
        <ele>1401.4000244141</ele>
        <time>2019-08-11T11:49:09.000Z</time>
      </trkpt>
      <trkpt lat="45.21611" lon="5.62049">
        <ele>1399.8000488281</ele>
        <time>2019-08-11T11:49:10.000Z</time>
      </trkpt>
      <trkpt lat="45.21602" lon="5.62056">
        <ele>1398.1999511719</ele>
        <time>2019-08-11T11:49:11.000Z</time>
      </trkpt>
      <trkpt lat="45.21594" lon="5.62065">
        <ele>1395.5999755859</ele>
        <time>2019-08-11T11:49:12.000Z</time>
      </trkpt>
      <trkpt lat="45.21586" lon="5.62074">
        <ele>1392.5999755859</ele>
        <time>2019-08-11T11:49:13.000Z</time>
      </trkpt>
      <trkpt lat="45.21577" lon="5.62082">
        <ele>1390.4000244141</ele>
        <time>2019-08-11T11:49:14.000Z</time>
      </trkpt>
      <trkpt lat="45.21569" lon="5.6209">
        <ele>1388.4000244141</ele>
        <time>2019-08-11T11:49:15.000Z</time>
      </trkpt>
      <trkpt lat="45.21561" lon="5.62097">
        <ele>1386.5999755859</ele>
        <time>2019-08-11T11:49:16.000Z</time>
      </trkpt>
      <trkpt lat="45.21553" lon="5.62102">
        <ele>1385</ele>
        <time>2019-08-11T11:49:17.000Z</time>
      </trkpt>
      <trkpt lat="45.21545" lon="5.62107">
        <ele>1383.1999511719</ele>
        <time>2019-08-11T11:49:18.000Z</time>
      </trkpt>
      <trkpt lat="45.21537" lon="5.62112">
        <ele>1381</ele>
        <time>2019-08-11T11:49:19.000Z</time>
      </trkpt>
      <trkpt lat="45.2153" lon="5.62117">
        <ele>1378.8000488281</ele>
        <time>2019-08-11T11:49:20.000Z</time>
      </trkpt>
      <trkpt lat="45.21524" lon="5.62124">
        <ele>1377</ele>
        <time>2019-08-11T11:49:21.000Z</time>
      </trkpt>
      <trkpt lat="45.2152" lon="5.62132">
        <ele>1375.5999755859</ele>
        <time>2019-08-11T11:49:22.000Z</time>
      </trkpt>
      <trkpt lat="45.21516" lon="5.6214">
        <ele>1374.5999755859</ele>
        <time>2019-08-11T11:49:23.000Z</time>
      </trkpt>
      <trkpt lat="45.21511" lon="5.6215">
        <ele>1373.1999511719</ele>
        <time>2019-08-11T11:49:24.000Z</time>
      </trkpt>
      <trkpt lat="45.21507" lon="5.62159">
        <ele>1371.8000488281</ele>
        <time>2019-08-11T11:49:25.000Z</time>
      </trkpt>
      <trkpt lat="45.21502" lon="5.62167">
        <ele>1370.4000244141</ele>
        <time>2019-08-11T11:49:26.000Z</time>
      </trkpt>
      <trkpt lat="45.21497" lon="5.62173">
        <ele>1369.5999755859</ele>
        <time>2019-08-11T11:49:27.000Z</time>
      </trkpt>
      <trkpt lat="45.2149" lon="5.6218">
        <ele>1368.4000244141</ele>
        <time>2019-08-11T11:49:28.000Z</time>
      </trkpt>
      <trkpt lat="45.21484" lon="5.62187">
        <ele>1367.1999511719</ele>
        <time>2019-08-11T11:49:29.000Z</time>
      </trkpt>
      <trkpt lat="45.21478" lon="5.62195">
        <ele>1366</ele>
        <time>2019-08-11T11:49:30.000Z</time>
      </trkpt>
      <trkpt lat="45.21471" lon="5.62202">
        <ele>1365.1999511719</ele>
        <time>2019-08-11T11:49:31.000Z</time>
      </trkpt>
      <trkpt lat="45.21463" lon="5.62208">
        <ele>1364.5999755859</ele>
        <time>2019-08-11T11:49:32.000Z</time>
      </trkpt>
      <trkpt lat="45.21449" lon="5.62219">
        <ele>1363.5999755859</ele>
        <time>2019-08-11T11:49:34.000Z</time>
      </trkpt>
      <trkpt lat="45.21437" lon="5.62225">
        <ele>1363.1999511719</ele>
        <time>2019-08-11T11:49:36.000Z</time>
      </trkpt>
      <trkpt lat="45.21426" lon="5.6223">
        <ele>1363</ele>
        <time>2019-08-11T11:49:38.000Z</time>
      </trkpt>
      <trkpt lat="45.21404" lon="5.62237">
        <ele>1362.8000488281</ele>
        <time>2019-08-11T11:49:41.000Z</time>
      </trkpt>
      <trkpt lat="45.21396" lon="5.62238">
        <ele>1362.4000244141</ele>
        <time>2019-08-11T11:49:42.000Z</time>
      </trkpt>
      <trkpt lat="45.21388" lon="5.62236">
        <ele>1362.1999511719</ele>
        <time>2019-08-11T11:49:43.000Z</time>
      </trkpt>
      <trkpt lat="45.21381" lon="5.62235">
        <ele>1361.5999755859</ele>
        <time>2019-08-11T11:49:44.000Z</time>
      </trkpt>
      <trkpt lat="45.21368" lon="5.62229">
        <ele>1360.8000488281</ele>
        <time>2019-08-11T11:49:46.000Z</time>
      </trkpt>
      <trkpt lat="45.21362" lon="5.62225">
        <ele>1360.4000244141</ele>
        <time>2019-08-11T11:49:47.000Z</time>
      </trkpt>
      <trkpt lat="45.21343" lon="5.62214">
        <ele>1359.8000488281</ele>
        <time>2019-08-11T11:49:50.000Z</time>
      </trkpt>
      <trkpt lat="45.21338" lon="5.62209">
        <ele>1359.5999755859</ele>
        <time>2019-08-11T11:49:51.000Z</time>
      </trkpt>
      <trkpt lat="45.21332" lon="5.62204">
        <ele>1359.4000244141</ele>
        <time>2019-08-11T11:49:52.000Z</time>
      </trkpt>
      <trkpt lat="45.21327" lon="5.62199">
        <ele>1358.8000488281</ele>
        <time>2019-08-11T11:49:53.000Z</time>
      </trkpt>
      <trkpt lat="45.21321" lon="5.62193">
        <ele>1358.1999511719</ele>
        <time>2019-08-11T11:49:54.000Z</time>
      </trkpt>
      <trkpt lat="45.21316" lon="5.62187">
        <ele>1357.8000488281</ele>
        <time>2019-08-11T11:49:55.000Z</time>
      </trkpt>
      <trkpt lat="45.21309" lon="5.62182">
        <ele>1357.5999755859</ele>
        <time>2019-08-11T11:49:56.000Z</time>
      </trkpt>
      <trkpt lat="45.21296" lon="5.62172">
        <ele>1357</ele>
        <time>2019-08-11T11:49:58.000Z</time>
      </trkpt>
      <trkpt lat="45.2129" lon="5.62166">
        <ele>1356.1999511719</ele>
        <time>2019-08-11T11:49:59.000Z</time>
      </trkpt>
      <trkpt lat="45.21285" lon="5.62162">
        <ele>1356</ele>
        <time>2019-08-11T11:50:00.000Z</time>
      </trkpt>
      <trkpt lat="45.21279" lon="5.62157">
        <ele>1355.1999511719</ele>
        <time>2019-08-11T11:50:01.000Z</time>
      </trkpt>
      <trkpt lat="45.21274" lon="5.62153">
        <ele>1354.5999755859</ele>
        <time>2019-08-11T11:50:02.000Z</time>
      </trkpt>
      <trkpt lat="45.21269" lon="5.62151">
        <ele>1354</ele>
        <time>2019-08-11T11:50:03.000Z</time>
      </trkpt>
      <trkpt lat="45.21264" lon="5.6215">
        <ele>1353.8000488281</ele>
        <time>2019-08-11T11:50:04.000Z</time>
      </trkpt>
      <trkpt lat="45.21259" lon="5.62148">
        <ele>1353.4000244141</ele>
        <time>2019-08-11T11:50:05.000Z</time>
      </trkpt>
      <trkpt lat="45.2125" lon="5.62146">
        <ele>1352.5999755859</ele>
        <time>2019-08-11T11:50:07.000Z</time>
      </trkpt>
      <trkpt lat="45.21245" lon="5.62144">
        <ele>1352.5999755859</ele>
        <time>2019-08-11T11:50:08.000Z</time>
      </trkpt>
      <trkpt lat="45.21227" lon="5.62138">
        <ele>1351</ele>
        <time>2019-08-11T11:50:11.000Z</time>
      </trkpt>
      <trkpt lat="45.21221" lon="5.62136">
        <ele>1350.1999511719</ele>
        <time>2019-08-11T11:50:12.000Z</time>
      </trkpt>
      <trkpt lat="45.21217" lon="5.62135">
        <ele>1349</ele>
        <time>2019-08-11T11:50:13.000Z</time>
      </trkpt>
      <trkpt lat="45.21207" lon="5.62134">
        <ele>1347.5999755859</ele>
        <time>2019-08-11T11:50:15.000Z</time>
      </trkpt>
      <trkpt lat="45.21203" lon="5.62132">
        <ele>1347</ele>
        <time>2019-08-11T11:50:16.000Z</time>
      </trkpt>
      <trkpt lat="45.21199" lon="5.62128">
        <ele>1346.4000244141</ele>
        <time>2019-08-11T11:50:17.000Z</time>
      </trkpt>
      <trkpt lat="45.21195" lon="5.62118">
        <ele>1345</ele>
        <time>2019-08-11T11:50:19.000Z</time>
      </trkpt>
      <trkpt lat="45.21184" lon="5.62108">
        <ele>1343.8000488281</ele>
        <time>2019-08-11T11:50:22.000Z</time>
      </trkpt>
      <trkpt lat="45.21181" lon="5.62108">
        <ele>1343.5999755859</ele>
        <time>2019-08-11T11:50:23.000Z</time>
      </trkpt>
      <trkpt lat="45.21179" lon="5.62108">
        <ele>1343.1999511719</ele>
        <time>2019-08-11T11:50:24.000Z</time>
      </trkpt>
      <trkpt lat="45.21171" lon="5.62107">
        <ele>1343</ele>
        <time>2019-08-11T11:50:27.000Z</time>
      </trkpt>
      <trkpt lat="45.21158" lon="5.62102">
        <ele>1343.5999755859</ele>
        <time>2019-08-11T11:50:32.000Z</time>
      </trkpt>
      <trkpt lat="45.21144" lon="5.6209">
        <ele>1343.5999755859</ele>
        <time>2019-08-11T11:50:36.000Z</time>
      </trkpt>
      <trkpt lat="45.21139" lon="5.62088">
        <ele>1343.5999755859</ele>
        <time>2019-08-11T11:50:37.000Z</time>
      </trkpt>
      <trkpt lat="45.2112" lon="5.62074">
        <ele>1343.1999511719</ele>
        <time>2019-08-11T11:50:42.000Z</time>
      </trkpt>
      <trkpt lat="45.21104" lon="5.62062">
        <ele>1344.1999511719</ele>
        <time>2019-08-11T11:50:47.000Z</time>
      </trkpt>
      <trkpt lat="45.21079" lon="5.6204">
        <ele>1344.5999755859</ele>
        <time>2019-08-11T11:50:55.000Z</time>
      </trkpt>
      <trkpt lat="45.21059" lon="5.62025">
        <ele>1344.4000244141</ele>
        <time>2019-08-11T11:51:03.000Z</time>
      </trkpt>
      <trkpt lat="45.21041" lon="5.62011">
        <ele>1343.8000488281</ele>
        <time>2019-08-11T11:51:08.000Z</time>
      </trkpt>
      <trkpt lat="45.21031" lon="5.62002">
        <ele>1343</ele>
        <time>2019-08-11T11:51:10.000Z</time>
      </trkpt>
      <trkpt lat="45.2102" lon="5.61992">
        <ele>1341.8000488281</ele>
        <time>2019-08-11T11:51:12.000Z</time>
      </trkpt>
      <trkpt lat="45.2101" lon="5.61981">
        <ele>1340.8000488281</ele>
        <time>2019-08-11T11:51:14.000Z</time>
      </trkpt>
      <trkpt lat="45.21005" lon="5.61975">
        <ele>1340.4000244141</ele>
        <time>2019-08-11T11:51:15.000Z</time>
      </trkpt>
      <trkpt lat="45.20973" lon="5.61946">
        <ele>1339.5999755859</ele>
        <time>2019-08-11T11:51:21.000Z</time>
      </trkpt>
      <trkpt lat="45.20965" lon="5.61938">
        <ele>1339.1999511719</ele>
        <time>2019-08-11T11:51:23.000Z</time>
      </trkpt>
      <trkpt lat="45.20955" lon="5.6193">
        <ele>1339.4000244141</ele>
        <time>2019-08-11T11:51:26.000Z</time>
      </trkpt>
      <trkpt lat="45.20931" lon="5.61915">
        <ele>1338.8000488281</ele>
        <time>2019-08-11T11:51:31.000Z</time>
      </trkpt>
      <trkpt lat="45.20926" lon="5.6191">
        <ele>1338</ele>
        <time>2019-08-11T11:51:32.000Z</time>
      </trkpt>
      <trkpt lat="45.20911" lon="5.61896">
        <ele>1336.8000488281</ele>
        <time>2019-08-11T11:51:35.000Z</time>
      </trkpt>
      <trkpt lat="45.209" lon="5.61886">
        <ele>1336.4000244141</ele>
        <time>2019-08-11T11:51:37.000Z</time>
      </trkpt>
      <trkpt lat="45.20879" lon="5.61862">
        <ele>1336.5999755859</ele>
        <time>2019-08-11T11:51:42.000Z</time>
      </trkpt>
      <trkpt lat="45.2086" lon="5.61835">
        <ele>1336.5999755859</ele>
        <time>2019-08-11T11:51:49.000Z</time>
      </trkpt>
      <trkpt lat="45.20855" lon="5.6182">
        <ele>1336.8000488281</ele>
        <time>2019-08-11T11:51:52.000Z</time>
      </trkpt>
      <trkpt lat="45.20853" lon="5.6181">
        <ele>1336.8000488281</ele>
        <time>2019-08-11T11:51:54.000Z</time>
      </trkpt>
      <trkpt lat="45.20845" lon="5.61793">
        <ele>1337</ele>
        <time>2019-08-11T11:51:58.000Z</time>
      </trkpt>
      <trkpt lat="45.20834" lon="5.61788">
        <ele>1337.1999511719</ele>
        <time>2019-08-11T11:52:02.000Z</time>
      </trkpt>
      <trkpt lat="45.20832" lon="5.61788">
        <ele>1337.1999511719</ele>
        <time>2019-08-11T11:52:03.000Z</time>
      </trkpt>
      <trkpt lat="45.20822" lon="5.61786">
        <ele>1337</ele>
        <time>2019-08-11T11:52:08.000Z</time>
      </trkpt>
      <trkpt lat="45.20814" lon="5.61781">
        <ele>1336</ele>
        <time>2019-08-11T11:52:12.000Z</time>
      </trkpt>
      <trkpt lat="45.20812" lon="5.61777">
        <ele>1335.5999755859</ele>
        <time>2019-08-11T11:52:13.000Z</time>
      </trkpt>
      <trkpt lat="45.20808" lon="5.61769">
        <ele>1335</ele>
        <time>2019-08-11T11:52:15.000Z</time>
      </trkpt>
      <trkpt lat="45.20804" lon="5.61759">
        <ele>1334</ele>
        <time>2019-08-11T11:52:17.000Z</time>
      </trkpt>
      <trkpt lat="45.20802" lon="5.61754">
        <ele>1333.4000244141</ele>
        <time>2019-08-11T11:52:18.000Z</time>
      </trkpt>
      <trkpt lat="45.208" lon="5.61749">
        <ele>1332.5999755859</ele>
        <time>2019-08-11T11:52:19.000Z</time>
      </trkpt>
      <trkpt lat="45.20797" lon="5.6174">
        <ele>1331.4000244141</ele>
        <time>2019-08-11T11:52:21.000Z</time>
      </trkpt>
      <trkpt lat="45.20796" lon="5.61733">
        <ele>1330.4000244141</ele>
        <time>2019-08-11T11:52:23.000Z</time>
      </trkpt>
      <trkpt lat="45.20796" lon="5.61726">
        <ele>1329.4000244141</ele>
        <time>2019-08-11T11:52:25.000Z</time>
      </trkpt>
      <trkpt lat="45.20794" lon="5.61713">
        <ele>1328.1999511719</ele>
        <time>2019-08-11T11:52:28.000Z</time>
      </trkpt>
      <trkpt lat="45.20794" lon="5.61707">
        <ele>1327</ele>
        <time>2019-08-11T11:52:30.000Z</time>
      </trkpt>
      <trkpt lat="45.20795" lon="5.61703">
        <ele>1326.4000244141</ele>
        <time>2019-08-11T11:52:32.000Z</time>
      </trkpt>
      <trkpt lat="45.20795" lon="5.61703">
        <ele>1326</ele>
        <time>2019-08-11T11:52:35.000Z</time>
      </trkpt>
      <trkpt lat="45.20795" lon="5.61703">
        <ele>1326</ele>
        <time>2019-08-11T11:52:42.000Z</time>
      </trkpt>
      <trkpt lat="45.20795" lon="5.61703">
        <ele>1326</ele>
        <time>2019-08-11T11:52:54.000Z</time>
      </trkpt>
      <trkpt lat="45.20795" lon="5.61705">
        <ele>1325.8000488281</ele>
        <time>2019-08-11T11:53:08.000Z</time>
      </trkpt>
      <trkpt lat="45.20795" lon="5.61706">
        <ele>1325.4000244141</ele>
        <time>2019-08-11T11:53:15.000Z</time>
      </trkpt>
      <trkpt lat="45.20794" lon="5.61705">
        <ele>1325.1999511719</ele>
        <time>2019-08-11T11:53:21.000Z</time>
      </trkpt>
      <trkpt lat="45.20794" lon="5.61705">
        <ele>1325.1999511719</ele>
        <time>2019-08-11T11:53:23.000Z</time>
      </trkpt>
      <trkpt lat="45.20794" lon="5.61705">
        <ele>1325.8000488281</ele>
        <time>2019-08-11T11:53:36.000Z</time>
      </trkpt>
      <trkpt lat="45.20794" lon="5.61704">
        <ele>1325</ele>
        <time>2019-08-11T11:53:50.000Z</time>
      </trkpt>
      <trkpt lat="45.20794" lon="5.61704">
        <ele>1325.1999511719</ele>
        <time>2019-08-11T11:54:01.000Z</time>
      </trkpt>
      <trkpt lat="45.20793" lon="5.61703">
        <ele>1325.1999511719</ele>
        <time>2019-08-11T11:54:20.000Z</time>
      </trkpt>
      <trkpt lat="45.20793" lon="5.61703">
        <ele>1325.4000244141</ele>
        <time>2019-08-11T11:54:27.000Z</time>
      </trkpt>
      <trkpt lat="45.20793" lon="5.61703">
        <ele>1325.4000244141</ele>
        <time>2019-08-11T11:54:49.000Z</time>
      </trkpt>
      <trkpt lat="45.20793" lon="5.61703">
        <ele>1325.1999511719</ele>
        <time>2019-08-11T11:55:04.000Z</time>
      </trkpt>
      <trkpt lat="45.20793" lon="5.61703">
        <ele>1325.1999511719</ele>
        <time>2019-08-11T11:55:07.000Z</time>
      </trkpt>
      <trkpt lat="45.20793" lon="5.61703">
        <ele>1325.1999511719</ele>
        <time>2019-08-11T11:55:17.000Z</time>
      </trkpt>
      <trkpt lat="45.20793" lon="5.61696">
        <ele>1325.4000244141</ele>
        <time>2019-08-11T11:55:25.000Z</time>
      </trkpt>
      <trkpt lat="45.20793" lon="5.61681">
        <ele>1326.1999511719</ele>
        <time>2019-08-11T11:55:31.000Z</time>
      </trkpt>
      <trkpt lat="45.20791" lon="5.61676">
        <ele>1326.4000244141</ele>
        <time>2019-08-11T11:55:33.000Z</time>
      </trkpt>
      <trkpt lat="45.20788" lon="5.61668">
        <ele>1327.5999755859</ele>
        <time>2019-08-11T11:55:37.000Z</time>
      </trkpt>
      <trkpt lat="45.20787" lon="5.61666">
        <ele>1327.8000488281</ele>
        <time>2019-08-11T11:55:38.000Z</time>
      </trkpt>
      <trkpt lat="45.20781" lon="5.61654">
        <ele>1328.8000488281</ele>
        <time>2019-08-11T11:55:44.000Z</time>
      </trkpt>
      <trkpt lat="45.2078" lon="5.61652">
        <ele>1329.1999511719</ele>
        <time>2019-08-11T11:55:45.000Z</time>
      </trkpt>
      <trkpt lat="45.20778" lon="5.61646">
        <ele>1330</ele>
        <time>2019-08-11T11:55:48.000Z</time>
      </trkpt>
      <trkpt lat="45.20774" lon="5.6164">
        <ele>1330.8000488281</ele>
        <time>2019-08-11T11:55:52.000Z</time>
      </trkpt>
      <trkpt lat="45.20773" lon="5.61638">
        <ele>1331.4000244141</ele>
        <time>2019-08-11T11:55:53.000Z</time>
      </trkpt>
      <trkpt lat="45.2077" lon="5.61629">
        <ele>1332.5999755859</ele>
        <time>2019-08-11T11:55:58.000Z</time>
      </trkpt>
      <trkpt lat="45.20768" lon="5.61623">
        <ele>1333.1999511719</ele>
        <time>2019-08-11T11:56:01.000Z</time>
      </trkpt>
      <trkpt lat="45.20767" lon="5.6162">
        <ele>1333.5999755859</ele>
        <time>2019-08-11T11:56:03.000Z</time>
      </trkpt>
      <trkpt lat="45.20763" lon="5.6161">
        <ele>1334.5999755859</ele>
        <time>2019-08-11T11:56:09.000Z</time>
      </trkpt>
      <trkpt lat="45.20762" lon="5.61608">
        <ele>1334.8000488281</ele>
        <time>2019-08-11T11:56:10.000Z</time>
      </trkpt>
      <trkpt lat="45.20759" lon="5.61599">
        <ele>1335.8000488281</ele>
        <time>2019-08-11T11:56:15.000Z</time>
      </trkpt>
      <trkpt lat="45.20758" lon="5.61595">
        <ele>1336.1999511719</ele>
        <time>2019-08-11T11:56:17.000Z</time>
      </trkpt>
      <trkpt lat="45.20757" lon="5.6159">
        <ele>1337.1999511719</ele>
        <time>2019-08-11T11:56:20.000Z</time>
      </trkpt>
      <trkpt lat="45.20755" lon="5.61584">
        <ele>1337.5999755859</ele>
        <time>2019-08-11T11:56:23.000Z</time>
      </trkpt>
      <trkpt lat="45.20753" lon="5.61578">
        <ele>1338.4000244141</ele>
        <time>2019-08-11T11:56:26.000Z</time>
      </trkpt>
      <trkpt lat="45.20752" lon="5.6157">
        <ele>1339.5999755859</ele>
        <time>2019-08-11T11:56:30.000Z</time>
      </trkpt>
      <trkpt lat="45.20751" lon="5.61568">
        <ele>1339.8000488281</ele>
        <time>2019-08-11T11:56:31.000Z</time>
      </trkpt>
      <trkpt lat="45.20749" lon="5.61563">
        <ele>1340.8000488281</ele>
        <time>2019-08-11T11:56:34.000Z</time>
      </trkpt>
      <trkpt lat="45.20746" lon="5.61554">
        <ele>1341.8000488281</ele>
        <time>2019-08-11T11:56:39.000Z</time>
      </trkpt>
      <trkpt lat="45.20746" lon="5.61553">
        <ele>1342</ele>
        <time>2019-08-11T11:56:40.000Z</time>
      </trkpt>
      <trkpt lat="45.20742" lon="5.6154">
        <ele>1343.1999511719</ele>
        <time>2019-08-11T11:56:47.000Z</time>
      </trkpt>
      <trkpt lat="45.20741" lon="5.61538">
        <ele>1343.1999511719</ele>
        <time>2019-08-11T11:56:48.000Z</time>
      </trkpt>
      <trkpt lat="45.20738" lon="5.61523">
        <ele>1343.5999755859</ele>
        <time>2019-08-11T11:56:55.000Z</time>
      </trkpt>
      <trkpt lat="45.20731" lon="5.61505">
        <ele>1343.5999755859</ele>
        <time>2019-08-11T11:57:02.000Z</time>
      </trkpt>
      <trkpt lat="45.20718" lon="5.61489">
        <ele>1344.1999511719</ele>
        <time>2019-08-11T11:57:09.000Z</time>
      </trkpt>
      <trkpt lat="45.20709" lon="5.61477">
        <ele>1344</ele>
        <time>2019-08-11T11:57:14.000Z</time>
      </trkpt>
      <trkpt lat="45.20691" lon="5.61463">
        <ele>1344</ele>
        <time>2019-08-11T11:57:21.000Z</time>
      </trkpt>
      <trkpt lat="45.20666" lon="5.61455">
        <ele>1343.8000488281</ele>
        <time>2019-08-11T11:57:28.000Z</time>
      </trkpt>
      <trkpt lat="45.20645" lon="5.61454">
        <ele>1343.8000488281</ele>
        <time>2019-08-11T11:57:34.000Z</time>
      </trkpt>
      <trkpt lat="45.20628" lon="5.61453">
        <ele>1344.1999511719</ele>
        <time>2019-08-11T11:57:40.000Z</time>
      </trkpt>
      <trkpt lat="45.20616" lon="5.61447">
        <ele>1344.5999755859</ele>
        <time>2019-08-11T11:57:45.000Z</time>
      </trkpt>
      <trkpt lat="45.20606" lon="5.61433">
        <ele>1344.1999511719</ele>
        <time>2019-08-11T11:57:51.000Z</time>
      </trkpt>
      <trkpt lat="45.20601" lon="5.61425">
        <ele>1344.1999511719</ele>
        <time>2019-08-11T11:57:54.000Z</time>
      </trkpt>
      <trkpt lat="45.20597" lon="5.61417">
        <ele>1344.1999511719</ele>
        <time>2019-08-11T11:57:57.000Z</time>
      </trkpt>
      <trkpt lat="45.20593" lon="5.61395">
        <ele>1344</ele>
        <time>2019-08-11T11:58:02.000Z</time>
      </trkpt>
      <trkpt lat="45.20595" lon="5.61387">
        <ele>1343.5999755859</ele>
        <time>2019-08-11T11:58:04.000Z</time>
      </trkpt>
      <trkpt lat="45.20595" lon="5.61377">
        <ele>1343</ele>
        <time>2019-08-11T11:58:06.000Z</time>
      </trkpt>
      <trkpt lat="45.2059" lon="5.61365">
        <ele>1342.1999511719</ele>
        <time>2019-08-11T11:58:09.000Z</time>
      </trkpt>
      <trkpt lat="45.20589" lon="5.61363">
        <ele>1341.5999755859</ele>
        <time>2019-08-11T11:58:10.000Z</time>
      </trkpt>
      <trkpt lat="45.20588" lon="5.61361">
        <ele>1341</ele>
        <time>2019-08-11T11:58:12.000Z</time>
      </trkpt>
      <trkpt lat="45.20588" lon="5.6136">
        <ele>1340.8000488281</ele>
        <time>2019-08-11T11:58:16.000Z</time>
      </trkpt>
      <trkpt lat="45.20588" lon="5.61361">
        <ele>1341</ele>
        <time>2019-08-11T11:58:24.000Z</time>
      </trkpt>
      <trkpt lat="45.20586" lon="5.61361">
        <ele>1341</ele>
        <time>2019-08-11T11:58:37.000Z</time>
      </trkpt>
      <trkpt lat="45.20584" lon="5.61357">
        <ele>1341</ele>
        <time>2019-08-11T11:58:43.000Z</time>
      </trkpt>
      <trkpt lat="45.20583" lon="5.61355">
        <ele>1340.1999511719</ele>
        <time>2019-08-11T11:58:47.000Z</time>
      </trkpt>
      <trkpt lat="45.20583" lon="5.61356">
        <ele>1340</ele>
        <time>2019-08-11T11:58:49.000Z</time>
      </trkpt>
      <trkpt lat="45.20582" lon="5.61356">
        <ele>1340</ele>
        <time>2019-08-11T11:59:01.000Z</time>
      </trkpt>
      <trkpt lat="45.2058" lon="5.61352">
        <ele>1340</ele>
        <time>2019-08-11T11:59:12.000Z</time>
      </trkpt>
      <trkpt lat="45.20575" lon="5.61347">
        <ele>1339.1999511719</ele>
        <time>2019-08-11T11:59:16.000Z</time>
      </trkpt>
      <trkpt lat="45.20569" lon="5.61338">
        <ele>1338.8000488281</ele>
        <time>2019-08-11T11:59:19.000Z</time>
      </trkpt>
      <trkpt lat="45.20566" lon="5.61333">
        <ele>1338.4000244141</ele>
        <time>2019-08-11T11:59:20.000Z</time>
      </trkpt>
      <trkpt lat="45.20563" lon="5.61328">
        <ele>1337.8000488281</ele>
        <time>2019-08-11T11:59:21.000Z</time>
      </trkpt>
      <trkpt lat="45.20555" lon="5.61317">
        <ele>1336.1999511719</ele>
        <time>2019-08-11T11:59:23.000Z</time>
      </trkpt>
      <trkpt lat="45.20536" lon="5.61306">
        <ele>1335.4000244141</ele>
        <time>2019-08-11T11:59:26.000Z</time>
      </trkpt>
      <trkpt lat="45.2053" lon="5.61304">
        <ele>1335</ele>
        <time>2019-08-11T11:59:27.000Z</time>
      </trkpt>
      <trkpt lat="45.20521" lon="5.613">
        <ele>1334.4000244141</ele>
        <time>2019-08-11T11:59:28.000Z</time>
      </trkpt>
      <trkpt lat="45.20513" lon="5.61297">
        <ele>1333.1999511719</ele>
        <time>2019-08-11T11:59:29.000Z</time>
      </trkpt>
      <trkpt lat="45.20505" lon="5.61293">
        <ele>1331.1999511719</ele>
        <time>2019-08-11T11:59:30.000Z</time>
      </trkpt>
      <trkpt lat="45.20496" lon="5.61291">
        <ele>1329.1999511719</ele>
        <time>2019-08-11T11:59:31.000Z</time>
      </trkpt>
      <trkpt lat="45.20489" lon="5.61288">
        <ele>1327.8000488281</ele>
        <time>2019-08-11T11:59:32.000Z</time>
      </trkpt>
      <trkpt lat="45.20482" lon="5.61284">
        <ele>1326.8000488281</ele>
        <time>2019-08-11T11:59:33.000Z</time>
      </trkpt>
      <trkpt lat="45.20475" lon="5.61281">
        <ele>1326.1999511719</ele>
        <time>2019-08-11T11:59:34.000Z</time>
      </trkpt>
      <trkpt lat="45.20464" lon="5.61278">
        <ele>1325.5999755859</ele>
        <time>2019-08-11T11:59:36.000Z</time>
      </trkpt>
      <trkpt lat="45.20451" lon="5.61278">
        <ele>1324</ele>
        <time>2019-08-11T11:59:38.000Z</time>
      </trkpt>
      <trkpt lat="45.20445" lon="5.61279">
        <ele>1323</ele>
        <time>2019-08-11T11:59:39.000Z</time>
      </trkpt>
      <trkpt lat="45.20438" lon="5.61281">
        <ele>1322</ele>
        <time>2019-08-11T11:59:40.000Z</time>
      </trkpt>
      <trkpt lat="45.2043" lon="5.61281">
        <ele>1320.8000488281</ele>
        <time>2019-08-11T11:59:41.000Z</time>
      </trkpt>
      <trkpt lat="45.20423" lon="5.61282">
        <ele>1319.8000488281</ele>
        <time>2019-08-11T11:59:42.000Z</time>
      </trkpt>
      <trkpt lat="45.20416" lon="5.6128">
        <ele>1318.1999511719</ele>
        <time>2019-08-11T11:59:43.000Z</time>
      </trkpt>
      <trkpt lat="45.20408" lon="5.61276">
        <ele>1316.8000488281</ele>
        <time>2019-08-11T11:59:44.000Z</time>
      </trkpt>
      <trkpt lat="45.204" lon="5.61272">
        <ele>1314.8000488281</ele>
        <time>2019-08-11T11:59:45.000Z</time>
      </trkpt>
      <trkpt lat="45.20384" lon="5.61263">
        <ele>1313.1999511719</ele>
        <time>2019-08-11T11:59:47.000Z</time>
      </trkpt>
      <trkpt lat="45.20369" lon="5.61256">
        <ele>1311.5999755859</ele>
        <time>2019-08-11T11:59:49.000Z</time>
      </trkpt>
      <trkpt lat="45.20362" lon="5.61251">
        <ele>1311.1999511719</ele>
        <time>2019-08-11T11:59:50.000Z</time>
      </trkpt>
      <trkpt lat="45.20356" lon="5.61245">
        <ele>1310.8000488281</ele>
        <time>2019-08-11T11:59:51.000Z</time>
      </trkpt>
      <trkpt lat="45.20351" lon="5.61237">
        <ele>1310.8000488281</ele>
        <time>2019-08-11T11:59:53.000Z</time>
      </trkpt>
      <trkpt lat="45.20349" lon="5.61229">
        <ele>1313.1999511719</ele>
        <time>2019-08-11T11:59:57.000Z</time>
      </trkpt>
      <trkpt lat="45.20349" lon="5.61227">
        <ele>1313.8000488281</ele>
        <time>2019-08-11T11:59:58.000Z</time>
      </trkpt>
      <trkpt lat="45.20349" lon="5.61225">
        <ele>1314.4000244141</ele>
        <time>2019-08-11T11:59:59.000Z</time>
      </trkpt>
      <trkpt lat="45.20349" lon="5.61223">
        <ele>1315</ele>
        <time>2019-08-11T12:00:00.000Z</time>
      </trkpt>
      <trkpt lat="45.20349" lon="5.61221">
        <ele>1315.4000244141</ele>
        <time>2019-08-11T12:00:01.000Z</time>
      </trkpt>
      <trkpt lat="45.20349" lon="5.61217">
        <ele>1316</ele>
        <time>2019-08-11T12:00:03.000Z</time>
      </trkpt>
      <trkpt lat="45.20349" lon="5.61215">
        <ele>1316.4000244141</ele>
        <time>2019-08-11T12:00:04.000Z</time>
      </trkpt>
      <trkpt lat="45.20351" lon="5.61206">
        <ele>1317.5999755859</ele>
        <time>2019-08-11T12:00:07.000Z</time>
      </trkpt>
      <trkpt lat="45.20351" lon="5.61203">
        <ele>1318.4000244141</ele>
        <time>2019-08-11T12:00:09.000Z</time>
      </trkpt>
      <trkpt lat="45.20351" lon="5.61201">
        <ele>1318.5999755859</ele>
        <time>2019-08-11T12:00:10.000Z</time>
      </trkpt>
      <trkpt lat="45.20351" lon="5.61196">
        <ele>1319.5999755859</ele>
        <time>2019-08-11T12:00:13.000Z</time>
      </trkpt>
      <trkpt lat="45.2035" lon="5.61194">
        <ele>1319.8000488281</ele>
        <time>2019-08-11T12:00:14.000Z</time>
      </trkpt>
      <trkpt lat="45.2035" lon="5.61192">
        <ele>1320</ele>
        <time>2019-08-11T12:00:15.000Z</time>
      </trkpt>
      <trkpt lat="45.20348" lon="5.61187">
        <ele>1320.8000488281</ele>
        <time>2019-08-11T12:00:18.000Z</time>
      </trkpt>
      <trkpt lat="45.20345" lon="5.6118">
        <ele>1322</ele>
        <time>2019-08-11T12:00:22.000Z</time>
      </trkpt>
      <trkpt lat="45.20343" lon="5.61174">
        <ele>1323.1999511719</ele>
        <time>2019-08-11T12:00:26.000Z</time>
      </trkpt>
      <trkpt lat="45.20342" lon="5.61171">
        <ele>1323.5999755859</ele>
        <time>2019-08-11T12:00:28.000Z</time>
      </trkpt>
      <trkpt lat="45.20339" lon="5.61167">
        <ele>1324.4000244141</ele>
        <time>2019-08-11T12:00:31.000Z</time>
      </trkpt>
      <trkpt lat="45.20335" lon="5.6116">
        <ele>1325.1999511719</ele>
        <time>2019-08-11T12:00:36.000Z</time>
      </trkpt>
      <trkpt lat="45.20333" lon="5.61158">
        <ele>1325.5999755859</ele>
        <time>2019-08-11T12:00:38.000Z</time>
      </trkpt>
      <trkpt lat="45.2033" lon="5.61155">
        <ele>1326.5999755859</ele>
        <time>2019-08-11T12:00:42.000Z</time>
      </trkpt>
      <trkpt lat="45.20329" lon="5.61154">
        <ele>1326.8000488281</ele>
        <time>2019-08-11T12:00:43.000Z</time>
      </trkpt>
      <trkpt lat="45.20325" lon="5.61153">
        <ele>1327.4000244141</ele>
        <time>2019-08-11T12:00:46.000Z</time>
      </trkpt>
      <trkpt lat="45.20323" lon="5.61153">
        <ele>1327.8000488281</ele>
        <time>2019-08-11T12:00:48.000Z</time>
      </trkpt>
      <trkpt lat="45.20322" lon="5.61153">
        <ele>1328.1999511719</ele>
        <time>2019-08-11T12:00:49.000Z</time>
      </trkpt>
      <trkpt lat="45.20316" lon="5.61149">
        <ele>1328.5999755859</ele>
        <time>2019-08-11T12:00:54.000Z</time>
      </trkpt>
      <trkpt lat="45.20311" lon="5.61143">
        <ele>1329.4000244141</ele>
        <time>2019-08-11T12:00:59.000Z</time>
      </trkpt>
      <trkpt lat="45.20309" lon="5.6114">
        <ele>1329.5999755859</ele>
        <time>2019-08-11T12:01:01.000Z</time>
      </trkpt>
      <trkpt lat="45.20303" lon="5.61133">
        <ele>1330.1999511719</ele>
        <time>2019-08-11T12:01:06.000Z</time>
      </trkpt>
      <trkpt lat="45.20302" lon="5.61131">
        <ele>1330.4000244141</ele>
        <time>2019-08-11T12:01:07.000Z</time>
      </trkpt>
      <trkpt lat="45.20299" lon="5.61127">
        <ele>1330.8000488281</ele>
        <time>2019-08-11T12:01:10.000Z</time>
      </trkpt>
      <trkpt lat="45.20297" lon="5.61122">
        <ele>1331.1999511719</ele>
        <time>2019-08-11T12:01:13.000Z</time>
      </trkpt>
      <trkpt lat="45.20294" lon="5.61117">
        <ele>1331.4000244141</ele>
        <time>2019-08-11T12:01:16.000Z</time>
      </trkpt>
      <trkpt lat="45.20293" lon="5.61115">
        <ele>1331.5999755859</ele>
        <time>2019-08-11T12:01:17.000Z</time>
      </trkpt>
      <trkpt lat="45.20288" lon="5.61105">
        <ele>1332.1999511719</ele>
        <time>2019-08-11T12:01:21.000Z</time>
      </trkpt>
      <trkpt lat="45.20286" lon="5.61097">
        <ele>1332.4000244141</ele>
        <time>2019-08-11T12:01:24.000Z</time>
      </trkpt>
      <trkpt lat="45.20283" lon="5.61093">
        <ele>1332.8000488281</ele>
        <time>2019-08-11T12:01:26.000Z</time>
      </trkpt>
      <trkpt lat="45.20278" lon="5.61087">
        <ele>1332.8000488281</ele>
        <time>2019-08-11T12:01:29.000Z</time>
      </trkpt>
      <trkpt lat="45.20273" lon="5.61082">
        <ele>1333</ele>
        <time>2019-08-11T12:01:32.000Z</time>
      </trkpt>
      <trkpt lat="45.20259" lon="5.61074">
        <ele>1332.4000244141</ele>
        <time>2019-08-11T12:01:37.000Z</time>
      </trkpt>
      <trkpt lat="45.20251" lon="5.61074">
        <ele>1331.1999511719</ele>
        <time>2019-08-11T12:01:41.000Z</time>
      </trkpt>
      <trkpt lat="45.20249" lon="5.61074">
        <ele>1330.4000244141</ele>
        <time>2019-08-11T12:01:47.000Z</time>
      </trkpt>
      <trkpt lat="45.20246" lon="5.61077">
        <ele>1330.1999511719</ele>
        <time>2019-08-11T12:01:56.000Z</time>
      </trkpt>
      <trkpt lat="45.20245" lon="5.61078">
        <ele>1330.1999511719</ele>
        <time>2019-08-11T12:01:57.000Z</time>
      </trkpt>
      <trkpt lat="45.20242" lon="5.61079">
        <ele>1330</ele>
        <time>2019-08-11T12:01:58.000Z</time>
      </trkpt>
      <trkpt lat="45.20231" lon="5.61084">
        <ele>1328.1999511719</ele>
        <time>2019-08-11T12:02:01.000Z</time>
      </trkpt>
      <trkpt lat="45.20221" lon="5.61083">
        <ele>1326.8000488281</ele>
        <time>2019-08-11T12:02:03.000Z</time>
      </trkpt>
      <trkpt lat="45.20213" lon="5.61081">
        <ele>1325.1999511719</ele>
        <time>2019-08-11T12:02:05.000Z</time>
      </trkpt>
      <trkpt lat="45.20208" lon="5.61079">
        <ele>1324.1999511719</ele>
        <time>2019-08-11T12:02:06.000Z</time>
      </trkpt>
      <trkpt lat="45.20201" lon="5.61076">
        <ele>1322.8000488281</ele>
        <time>2019-08-11T12:02:07.000Z</time>
      </trkpt>
      <trkpt lat="45.20196" lon="5.61072">
        <ele>1322</ele>
        <time>2019-08-11T12:02:08.000Z</time>
      </trkpt>
      <trkpt lat="45.20191" lon="5.61066">
        <ele>1320.4000244141</ele>
        <time>2019-08-11T12:02:09.000Z</time>
      </trkpt>
      <trkpt lat="45.20186" lon="5.61058">
        <ele>1319.4000244141</ele>
        <time>2019-08-11T12:02:10.000Z</time>
      </trkpt>
      <trkpt lat="45.20182" lon="5.61051">
        <ele>1318.4000244141</ele>
        <time>2019-08-11T12:02:11.000Z</time>
      </trkpt>
      <trkpt lat="45.20177" lon="5.61044">
        <ele>1317.5999755859</ele>
        <time>2019-08-11T12:02:12.000Z</time>
      </trkpt>
      <trkpt lat="45.20167" lon="5.61035">
        <ele>1316.1999511719</ele>
        <time>2019-08-11T12:02:14.000Z</time>
      </trkpt>
      <trkpt lat="45.20149" lon="5.61035">
        <ele>1314.4000244141</ele>
        <time>2019-08-11T12:02:17.000Z</time>
      </trkpt>
      <trkpt lat="45.20143" lon="5.61038">
        <ele>1313.1999511719</ele>
        <time>2019-08-11T12:02:18.000Z</time>
      </trkpt>
      <trkpt lat="45.20126" lon="5.61043">
        <ele>1311.8000488281</ele>
        <time>2019-08-11T12:02:21.000Z</time>
      </trkpt>
      <trkpt lat="45.20114" lon="5.61052">
        <ele>1310.5999755859</ele>
        <time>2019-08-11T12:02:23.000Z</time>
      </trkpt>
      <trkpt lat="45.20108" lon="5.61057">
        <ele>1310</ele>
        <time>2019-08-11T12:02:24.000Z</time>
      </trkpt>
      <trkpt lat="45.20101" lon="5.61061">
        <ele>1308.1999511719</ele>
        <time>2019-08-11T12:02:25.000Z</time>
      </trkpt>
      <trkpt lat="45.20088" lon="5.61069">
        <ele>1306</ele>
        <time>2019-08-11T12:02:27.000Z</time>
      </trkpt>
      <trkpt lat="45.20082" lon="5.6107">
        <ele>1304.8000488281</ele>
        <time>2019-08-11T12:02:28.000Z</time>
      </trkpt>
      <trkpt lat="45.20076" lon="5.61069">
        <ele>1303.8000488281</ele>
        <time>2019-08-11T12:02:29.000Z</time>
      </trkpt>
      <trkpt lat="45.20062" lon="5.61066">
        <ele>1302.1999511719</ele>
        <time>2019-08-11T12:02:31.000Z</time>
      </trkpt>
      <trkpt lat="45.20053" lon="5.61065">
        <ele>1301.5999755859</ele>
        <time>2019-08-11T12:02:32.000Z</time>
      </trkpt>
      <trkpt lat="45.20043" lon="5.61066">
        <ele>1300.4000244141</ele>
        <time>2019-08-11T12:02:33.000Z</time>
      </trkpt>
      <trkpt lat="45.20034" lon="5.61066">
        <ele>1299</ele>
        <time>2019-08-11T12:02:34.000Z</time>
      </trkpt>
      <trkpt lat="45.20024" lon="5.61067">
        <ele>1297</ele>
        <time>2019-08-11T12:02:35.000Z</time>
      </trkpt>
      <trkpt lat="45.20014" lon="5.61066">
        <ele>1295.5999755859</ele>
        <time>2019-08-11T12:02:36.000Z</time>
      </trkpt>
      <trkpt lat="45.20004" lon="5.61065">
        <ele>1294.4000244141</ele>
        <time>2019-08-11T12:02:37.000Z</time>
      </trkpt>
      <trkpt lat="45.19995" lon="5.61063">
        <ele>1292.8000488281</ele>
        <time>2019-08-11T12:02:38.000Z</time>
      </trkpt>
      <trkpt lat="45.19989" lon="5.61061">
        <ele>1291.4000244141</ele>
        <time>2019-08-11T12:02:39.000Z</time>
      </trkpt>
      <trkpt lat="45.19982" lon="5.6106">
        <ele>1290.1999511719</ele>
        <time>2019-08-11T12:02:40.000Z</time>
      </trkpt>
      <trkpt lat="45.19967" lon="5.6106">
        <ele>1289.1999511719</ele>
        <time>2019-08-11T12:02:42.000Z</time>
      </trkpt>
      <trkpt lat="45.19958" lon="5.61059">
        <ele>1288.4000244141</ele>
        <time>2019-08-11T12:02:43.000Z</time>
      </trkpt>
      <trkpt lat="45.19951" lon="5.61057">
        <ele>1287.1999511719</ele>
        <time>2019-08-11T12:02:44.000Z</time>
      </trkpt>
      <trkpt lat="45.19942" lon="5.61053">
        <ele>1285.1999511719</ele>
        <time>2019-08-11T12:02:45.000Z</time>
      </trkpt>
      <trkpt lat="45.19929" lon="5.61042">
        <ele>1284</ele>
        <time>2019-08-11T12:02:47.000Z</time>
      </trkpt>
      <trkpt lat="45.19919" lon="5.61022">
        <ele>1283.5999755859</ele>
        <time>2019-08-11T12:02:50.000Z</time>
      </trkpt>
      <trkpt lat="45.19916" lon="5.61017">
        <ele>1283.8000488281</ele>
        <time>2019-08-11T12:02:51.000Z</time>
      </trkpt>
      <trkpt lat="45.19906" lon="5.61004">
        <ele>1284.1999511719</ele>
        <time>2019-08-11T12:02:54.000Z</time>
      </trkpt>
      <trkpt lat="45.199" lon="5.60998">
        <ele>1285</ele>
        <time>2019-08-11T12:02:56.000Z</time>
      </trkpt>
      <trkpt lat="45.19888" lon="5.60988">
        <ele>1285.8000488281</ele>
        <time>2019-08-11T12:02:59.000Z</time>
      </trkpt>
      <trkpt lat="45.19866" lon="5.60978">
        <ele>1285</ele>
        <time>2019-08-11T12:03:03.000Z</time>
      </trkpt>
      <trkpt lat="45.19853" lon="5.60971">
        <ele>1283.8000488281</ele>
        <time>2019-08-11T12:03:05.000Z</time>
      </trkpt>
      <trkpt lat="45.19845" lon="5.60967">
        <ele>1282.8000488281</ele>
        <time>2019-08-11T12:03:06.000Z</time>
      </trkpt>
      <trkpt lat="45.19839" lon="5.60965">
        <ele>1281.8000488281</ele>
        <time>2019-08-11T12:03:07.000Z</time>
      </trkpt>
      <trkpt lat="45.19826" lon="5.60958">
        <ele>1280.4000244141</ele>
        <time>2019-08-11T12:03:09.000Z</time>
      </trkpt>
      <trkpt lat="45.1982" lon="5.60954">
        <ele>1280</ele>
        <time>2019-08-11T12:03:10.000Z</time>
      </trkpt>
      <trkpt lat="45.19814" lon="5.6095">
        <ele>1279.1999511719</ele>
        <time>2019-08-11T12:03:11.000Z</time>
      </trkpt>
      <trkpt lat="45.19799" lon="5.60944">
        <ele>1277.5999755859</ele>
        <time>2019-08-11T12:03:13.000Z</time>
      </trkpt>
      <trkpt lat="45.19793" lon="5.60941">
        <ele>1276.4000244141</ele>
        <time>2019-08-11T12:03:14.000Z</time>
      </trkpt>
      <trkpt lat="45.19787" lon="5.60939">
        <ele>1275.1999511719</ele>
        <time>2019-08-11T12:03:15.000Z</time>
      </trkpt>
      <trkpt lat="45.19782" lon="5.60938">
        <ele>1274.4000244141</ele>
        <time>2019-08-11T12:03:16.000Z</time>
      </trkpt>
      <trkpt lat="45.19776" lon="5.60939">
        <ele>1274</ele>
        <time>2019-08-11T12:03:17.000Z</time>
      </trkpt>
      <trkpt lat="45.19771" lon="5.6094">
        <ele>1273.1999511719</ele>
        <time>2019-08-11T12:03:18.000Z</time>
      </trkpt>
      <trkpt lat="45.19765" lon="5.6094">
        <ele>1272.1999511719</ele>
        <time>2019-08-11T12:03:19.000Z</time>
      </trkpt>
      <trkpt lat="45.19757" lon="5.60941">
        <ele>1271.1999511719</ele>
        <time>2019-08-11T12:03:20.000Z</time>
      </trkpt>
      <trkpt lat="45.1975" lon="5.60942">
        <ele>1269.1999511719</ele>
        <time>2019-08-11T12:03:21.000Z</time>
      </trkpt>
      <trkpt lat="45.19742" lon="5.60943">
        <ele>1267.5999755859</ele>
        <time>2019-08-11T12:03:22.000Z</time>
      </trkpt>
      <trkpt lat="45.19733" lon="5.60944">
        <ele>1266.4000244141</ele>
        <time>2019-08-11T12:03:23.000Z</time>
      </trkpt>
      <trkpt lat="45.19724" lon="5.60945">
        <ele>1264.8000488281</ele>
        <time>2019-08-11T12:03:24.000Z</time>
      </trkpt>
      <trkpt lat="45.19715" lon="5.60945">
        <ele>1263.4000244141</ele>
        <time>2019-08-11T12:03:25.000Z</time>
      </trkpt>
      <trkpt lat="45.19707" lon="5.60945">
        <ele>1261.8000488281</ele>
        <time>2019-08-11T12:03:26.000Z</time>
      </trkpt>
      <trkpt lat="45.19699" lon="5.60945">
        <ele>1260.4000244141</ele>
        <time>2019-08-11T12:03:27.000Z</time>
      </trkpt>
      <trkpt lat="45.19693" lon="5.60945">
        <ele>1258.4000244141</ele>
        <time>2019-08-11T12:03:28.000Z</time>
      </trkpt>
      <trkpt lat="45.19685" lon="5.60946">
        <ele>1255.1999511719</ele>
        <time>2019-08-11T12:03:29.000Z</time>
      </trkpt>
      <trkpt lat="45.19678" lon="5.60944">
        <ele>1253.5999755859</ele>
        <time>2019-08-11T12:03:30.000Z</time>
      </trkpt>
      <trkpt lat="45.19671" lon="5.60942">
        <ele>1251.5999755859</ele>
        <time>2019-08-11T12:03:31.000Z</time>
      </trkpt>
      <trkpt lat="45.19665" lon="5.60941">
        <ele>1249.5999755859</ele>
        <time>2019-08-11T12:03:32.000Z</time>
      </trkpt>
      <trkpt lat="45.19659" lon="5.6094">
        <ele>1248</ele>
        <time>2019-08-11T12:03:33.000Z</time>
      </trkpt>
      <trkpt lat="45.19653" lon="5.6094">
        <ele>1246.8000488281</ele>
        <time>2019-08-11T12:03:34.000Z</time>
      </trkpt>
      <trkpt lat="45.19646" lon="5.6094">
        <ele>1245</ele>
        <time>2019-08-11T12:03:35.000Z</time>
      </trkpt>
      <trkpt lat="45.19641" lon="5.60939">
        <ele>1243</ele>
        <time>2019-08-11T12:03:36.000Z</time>
      </trkpt>
      <trkpt lat="45.19635" lon="5.6094">
        <ele>1240.1999511719</ele>
        <time>2019-08-11T12:03:37.000Z</time>
      </trkpt>
      <trkpt lat="45.19629" lon="5.60941">
        <ele>1238.1999511719</ele>
        <time>2019-08-11T12:03:38.000Z</time>
      </trkpt>
      <trkpt lat="45.19623" lon="5.60943">
        <ele>1236.1999511719</ele>
        <time>2019-08-11T12:03:39.000Z</time>
      </trkpt>
      <trkpt lat="45.19617" lon="5.60945">
        <ele>1234.4000244141</ele>
        <time>2019-08-11T12:03:40.000Z</time>
      </trkpt>
      <trkpt lat="45.1961" lon="5.60947">
        <ele>1233.1999511719</ele>
        <time>2019-08-11T12:03:41.000Z</time>
      </trkpt>
      <trkpt lat="45.19603" lon="5.6095">
        <ele>1232.1999511719</ele>
        <time>2019-08-11T12:03:42.000Z</time>
      </trkpt>
      <trkpt lat="45.19597" lon="5.60952">
        <ele>1230.4000244141</ele>
        <time>2019-08-11T12:03:43.000Z</time>
      </trkpt>
      <trkpt lat="45.1959" lon="5.60956">
        <ele>1228.5999755859</ele>
        <time>2019-08-11T12:03:44.000Z</time>
      </trkpt>
      <trkpt lat="45.19584" lon="5.60956">
        <ele>1226</ele>
        <time>2019-08-11T12:03:45.000Z</time>
      </trkpt>
      <trkpt lat="45.19579" lon="5.60957">
        <ele>1224.4000244141</ele>
        <time>2019-08-11T12:03:46.000Z</time>
      </trkpt>
      <trkpt lat="45.19574" lon="5.60958">
        <ele>1223</ele>
        <time>2019-08-11T12:03:47.000Z</time>
      </trkpt>
      <trkpt lat="45.19569" lon="5.6096">
        <ele>1221.4000244141</ele>
        <time>2019-08-11T12:03:48.000Z</time>
      </trkpt>
      <trkpt lat="45.19563" lon="5.60962">
        <ele>1220.1999511719</ele>
        <time>2019-08-11T12:03:49.000Z</time>
      </trkpt>
      <trkpt lat="45.19558" lon="5.60964">
        <ele>1218.4000244141</ele>
        <time>2019-08-11T12:03:50.000Z</time>
      </trkpt>
      <trkpt lat="45.19552" lon="5.60966">
        <ele>1217</ele>
        <time>2019-08-11T12:03:51.000Z</time>
      </trkpt>
      <trkpt lat="45.19547" lon="5.60967">
        <ele>1216</ele>
        <time>2019-08-11T12:03:52.000Z</time>
      </trkpt>
      <trkpt lat="45.19541" lon="5.60968">
        <ele>1214.4000244141</ele>
        <time>2019-08-11T12:03:53.000Z</time>
      </trkpt>
      <trkpt lat="45.19535" lon="5.60967">
        <ele>1212.5999755859</ele>
        <time>2019-08-11T12:03:54.000Z</time>
      </trkpt>
      <trkpt lat="45.19528" lon="5.60967">
        <ele>1211.4000244141</ele>
        <time>2019-08-11T12:03:55.000Z</time>
      </trkpt>
      <trkpt lat="45.19522" lon="5.60967">
        <ele>1209.5999755859</ele>
        <time>2019-08-11T12:03:56.000Z</time>
      </trkpt>
      <trkpt lat="45.19516" lon="5.60967">
        <ele>1207.8000488281</ele>
        <time>2019-08-11T12:03:57.000Z</time>
      </trkpt>
      <trkpt lat="45.19509" lon="5.60967">
        <ele>1205.8000488281</ele>
        <time>2019-08-11T12:03:58.000Z</time>
      </trkpt>
      <trkpt lat="45.19503" lon="5.60968">
        <ele>1204.1999511719</ele>
        <time>2019-08-11T12:03:59.000Z</time>
      </trkpt>
      <trkpt lat="45.19496" lon="5.60969">
        <ele>1202.8000488281</ele>
        <time>2019-08-11T12:04:00.000Z</time>
      </trkpt>
      <trkpt lat="45.19488" lon="5.60969">
        <ele>1201.1999511719</ele>
        <time>2019-08-11T12:04:01.000Z</time>
      </trkpt>
      <trkpt lat="45.1948" lon="5.60968">
        <ele>1200</ele>
        <time>2019-08-11T12:04:02.000Z</time>
      </trkpt>
      <trkpt lat="45.19472" lon="5.60968">
        <ele>1198.4000244141</ele>
        <time>2019-08-11T12:04:03.000Z</time>
      </trkpt>
      <trkpt lat="45.19465" lon="5.60968">
        <ele>1197.1999511719</ele>
        <time>2019-08-11T12:04:04.000Z</time>
      </trkpt>
      <trkpt lat="45.19458" lon="5.60968">
        <ele>1196</ele>
        <time>2019-08-11T12:04:05.000Z</time>
      </trkpt>
      <trkpt lat="45.19452" lon="5.60967">
        <ele>1195</ele>
        <time>2019-08-11T12:04:06.000Z</time>
      </trkpt>
      <trkpt lat="45.19445" lon="5.60966">
        <ele>1194.4000244141</ele>
        <time>2019-08-11T12:04:07.000Z</time>
      </trkpt>
      <trkpt lat="45.19433" lon="5.60965">
        <ele>1192.8000488281</ele>
        <time>2019-08-11T12:04:09.000Z</time>
      </trkpt>
      <trkpt lat="45.19427" lon="5.60964">
        <ele>1191.4000244141</ele>
        <time>2019-08-11T12:04:10.000Z</time>
      </trkpt>
      <trkpt lat="45.19416" lon="5.60962">
        <ele>1189.5999755859</ele>
        <time>2019-08-11T12:04:12.000Z</time>
      </trkpt>
      <trkpt lat="45.1941" lon="5.60962">
        <ele>1188.1999511719</ele>
        <time>2019-08-11T12:04:13.000Z</time>
      </trkpt>
      <trkpt lat="45.19404" lon="5.60963">
        <ele>1187.4000244141</ele>
        <time>2019-08-11T12:04:14.000Z</time>
      </trkpt>
      <trkpt lat="45.19399" lon="5.60965">
        <ele>1186.5999755859</ele>
        <time>2019-08-11T12:04:15.000Z</time>
      </trkpt>
      <trkpt lat="45.19394" lon="5.60967">
        <ele>1186</ele>
        <time>2019-08-11T12:04:16.000Z</time>
      </trkpt>
      <trkpt lat="45.19388" lon="5.60971">
        <ele>1184</ele>
        <time>2019-08-11T12:04:17.000Z</time>
      </trkpt>
      <trkpt lat="45.19382" lon="5.60974">
        <ele>1182.4000244141</ele>
        <time>2019-08-11T12:04:18.000Z</time>
      </trkpt>
      <trkpt lat="45.19374" lon="5.60977">
        <ele>1181.1999511719</ele>
        <time>2019-08-11T12:04:19.000Z</time>
      </trkpt>
      <trkpt lat="45.19366" lon="5.6098">
        <ele>1180.1999511719</ele>
        <time>2019-08-11T12:04:20.000Z</time>
      </trkpt>
      <trkpt lat="45.19356" lon="5.60981">
        <ele>1179.4000244141</ele>
        <time>2019-08-11T12:04:21.000Z</time>
      </trkpt>
      <trkpt lat="45.19336" lon="5.60984">
        <ele>1177.1999511719</ele>
        <time>2019-08-11T12:04:23.000Z</time>
      </trkpt>
      <trkpt lat="45.19327" lon="5.60987">
        <ele>1175.8000488281</ele>
        <time>2019-08-11T12:04:24.000Z</time>
      </trkpt>
      <trkpt lat="45.1932" lon="5.60992">
        <ele>1174.4000244141</ele>
        <time>2019-08-11T12:04:25.000Z</time>
      </trkpt>
      <trkpt lat="45.19313" lon="5.60997">
        <ele>1172.8000488281</ele>
        <time>2019-08-11T12:04:26.000Z</time>
      </trkpt>
      <trkpt lat="45.19306" lon="5.61005">
        <ele>1171.4000244141</ele>
        <time>2019-08-11T12:04:27.000Z</time>
      </trkpt>
      <trkpt lat="45.19293" lon="5.6102">
        <ele>1170</ele>
        <time>2019-08-11T12:04:29.000Z</time>
      </trkpt>
      <trkpt lat="45.19276" lon="5.61039">
        <ele>1168.5999755859</ele>
        <time>2019-08-11T12:04:32.000Z</time>
      </trkpt>
      <trkpt lat="45.19271" lon="5.61046">
        <ele>1168.1999511719</ele>
        <time>2019-08-11T12:04:33.000Z</time>
      </trkpt>
      <trkpt lat="45.19256" lon="5.61067">
        <ele>1168.4000244141</ele>
        <time>2019-08-11T12:04:37.000Z</time>
      </trkpt>
      <trkpt lat="45.19251" lon="5.61071">
        <ele>1167.5999755859</ele>
        <time>2019-08-11T12:04:40.000Z</time>
      </trkpt>
      <trkpt lat="45.19249" lon="5.61072">
        <ele>1166.8000488281</ele>
        <time>2019-08-11T12:04:51.000Z</time>
      </trkpt>
      <trkpt lat="45.19249" lon="5.61074">
        <ele>1166.8000488281</ele>
        <time>2019-08-11T12:04:52.000Z</time>
      </trkpt>
      <trkpt lat="45.19246" lon="5.61081">
        <ele>1166.8000488281</ele>
        <time>2019-08-11T12:04:55.000Z</time>
      </trkpt>
      <trkpt lat="45.19244" lon="5.61084">
        <ele>1166.8000488281</ele>
        <time>2019-08-11T12:04:56.000Z</time>
      </trkpt>
      <trkpt lat="45.19237" lon="5.61101">
        <ele>1166</ele>
        <time>2019-08-11T12:05:01.000Z</time>
      </trkpt>
      <trkpt lat="45.19232" lon="5.61115">
        <ele>1166</ele>
        <time>2019-08-11T12:05:04.000Z</time>
      </trkpt>
      <trkpt lat="45.19228" lon="5.61123">
        <ele>1165.5999755859</ele>
        <time>2019-08-11T12:05:06.000Z</time>
      </trkpt>
      <trkpt lat="45.19226" lon="5.61125">
        <ele>1165.4000244141</ele>
        <time>2019-08-11T12:05:07.000Z</time>
      </trkpt>
      <trkpt lat="45.19225" lon="5.61125">
        <ele>1165</ele>
        <time>2019-08-11T12:05:08.000Z</time>
      </trkpt>
      <trkpt lat="45.19223" lon="5.61124">
        <ele>1164.5999755859</ele>
        <time>2019-08-11T12:05:09.000Z</time>
      </trkpt>
      <trkpt lat="45.19222" lon="5.61122">
        <ele>1163.5999755859</ele>
        <time>2019-08-11T12:05:12.000Z</time>
      </trkpt>
      <trkpt lat="45.1922" lon="5.61118">
        <ele>1163</ele>
        <time>2019-08-11T12:05:14.000Z</time>
      </trkpt>
      <trkpt lat="45.1922" lon="5.61115">
        <ele>1162.5999755859</ele>
        <time>2019-08-11T12:05:15.000Z</time>
      </trkpt>
      <trkpt lat="45.1922" lon="5.61112">
        <ele>1161.5999755859</ele>
        <time>2019-08-11T12:05:17.000Z</time>
      </trkpt>
      <trkpt lat="45.1922" lon="5.61111">
        <ele>1161.1999511719</ele>
        <time>2019-08-11T12:05:18.000Z</time>
      </trkpt>
      <trkpt lat="45.19219" lon="5.61111">
        <ele>1160.5999755859</ele>
        <time>2019-08-11T12:05:20.000Z</time>
      </trkpt>
      <trkpt lat="45.1922" lon="5.61108">
        <ele>1160.1999511719</ele>
        <time>2019-08-11T12:05:24.000Z</time>
      </trkpt>
      <trkpt lat="45.19218" lon="5.61104">
        <ele>1160</ele>
        <time>2019-08-11T12:05:31.000Z</time>
      </trkpt>
      <trkpt lat="45.19218" lon="5.61103">
        <ele>1159.5999755859</ele>
        <time>2019-08-11T12:05:32.000Z</time>
      </trkpt>
      <trkpt lat="45.19216" lon="5.611">
        <ele>1159.1999511719</ele>
        <time>2019-08-11T12:05:34.000Z</time>
      </trkpt>
      <trkpt lat="45.19215" lon="5.61095">
        <ele>1158.4000244141</ele>
        <time>2019-08-11T12:05:36.000Z</time>
      </trkpt>
      <trkpt lat="45.19215" lon="5.61092">
        <ele>1157.4000244141</ele>
        <time>2019-08-11T12:05:37.000Z</time>
      </trkpt>
      <trkpt lat="45.19212" lon="5.61085">
        <ele>1155.8000488281</ele>
        <time>2019-08-11T12:05:39.000Z</time>
      </trkpt>
      <trkpt lat="45.19211" lon="5.61083">
        <ele>1154.8000488281</ele>
        <time>2019-08-11T12:05:40.000Z</time>
      </trkpt>
      <trkpt lat="45.1921" lon="5.61079">
        <ele>1154</ele>
        <time>2019-08-11T12:05:41.000Z</time>
      </trkpt>
      <trkpt lat="45.19208" lon="5.61074">
        <ele>1153.1999511719</ele>
        <time>2019-08-11T12:05:42.000Z</time>
      </trkpt>
      <trkpt lat="45.19204" lon="5.61068">
        <ele>1152.1999511719</ele>
        <time>2019-08-11T12:05:43.000Z</time>
      </trkpt>
      <trkpt lat="45.19201" lon="5.61064">
        <ele>1151.5999755859</ele>
        <time>2019-08-11T12:05:44.000Z</time>
      </trkpt>
      <trkpt lat="45.19198" lon="5.61061">
        <ele>1150.4000244141</ele>
        <time>2019-08-11T12:05:45.000Z</time>
      </trkpt>
      <trkpt lat="45.19193" lon="5.61055">
        <ele>1148.4000244141</ele>
        <time>2019-08-11T12:05:47.000Z</time>
      </trkpt>
      <trkpt lat="45.19191" lon="5.61052">
        <ele>1147.8000488281</ele>
        <time>2019-08-11T12:05:48.000Z</time>
      </trkpt>
      <trkpt lat="45.19189" lon="5.61049">
        <ele>1147</ele>
        <time>2019-08-11T12:05:49.000Z</time>
      </trkpt>
      <trkpt lat="45.19186" lon="5.61047">
        <ele>1146.4000244141</ele>
        <time>2019-08-11T12:05:50.000Z</time>
      </trkpt>
      <trkpt lat="45.19182" lon="5.61045">
        <ele>1145.1999511719</ele>
        <time>2019-08-11T12:05:51.000Z</time>
      </trkpt>
      <trkpt lat="45.19177" lon="5.61042">
        <ele>1143.8000488281</ele>
        <time>2019-08-11T12:05:52.000Z</time>
      </trkpt>
      <trkpt lat="45.19172" lon="5.61038">
        <ele>1142</ele>
        <time>2019-08-11T12:05:53.000Z</time>
      </trkpt>
      <trkpt lat="45.19161" lon="5.6103">
        <ele>1140</ele>
        <time>2019-08-11T12:05:55.000Z</time>
      </trkpt>
      <trkpt lat="45.19156" lon="5.61025">
        <ele>1138.5999755859</ele>
        <time>2019-08-11T12:05:56.000Z</time>
      </trkpt>
      <trkpt lat="45.1915" lon="5.6102">
        <ele>1137.4000244141</ele>
        <time>2019-08-11T12:05:57.000Z</time>
      </trkpt>
      <trkpt lat="45.19146" lon="5.61018">
        <ele>1136</ele>
        <time>2019-08-11T12:05:58.000Z</time>
      </trkpt>
      <trkpt lat="45.19138" lon="5.61016">
        <ele>1134.8000488281</ele>
        <time>2019-08-11T12:05:59.000Z</time>
      </trkpt>
      <trkpt lat="45.19132" lon="5.61013">
        <ele>1133.8000488281</ele>
        <time>2019-08-11T12:06:00.000Z</time>
      </trkpt>
      <trkpt lat="45.19129" lon="5.61011">
        <ele>1132.8000488281</ele>
        <time>2019-08-11T12:06:01.000Z</time>
      </trkpt>
      <trkpt lat="45.19125" lon="5.61008">
        <ele>1131.4000244141</ele>
        <time>2019-08-11T12:06:03.000Z</time>
      </trkpt>
      <trkpt lat="45.19121" lon="5.61006">
        <ele>1130.5999755859</ele>
        <time>2019-08-11T12:06:07.000Z</time>
      </trkpt>
      <trkpt lat="45.19117" lon="5.61005">
        <ele>1130.8000488281</ele>
        <time>2019-08-11T12:06:13.000Z</time>
      </trkpt>
      <trkpt lat="45.19116" lon="5.61005">
        <ele>1130.5999755859</ele>
        <time>2019-08-11T12:06:16.000Z</time>
      </trkpt>
      <trkpt lat="45.19112" lon="5.61005">
        <ele>1130.1999511719</ele>
        <time>2019-08-11T12:06:22.000Z</time>
      </trkpt>
      <trkpt lat="45.191" lon="5.60999">
        <ele>1129.1999511719</ele>
        <time>2019-08-11T12:06:27.000Z</time>
      </trkpt>
      <trkpt lat="45.19092" lon="5.60997">
        <ele>1128</ele>
        <time>2019-08-11T12:06:29.000Z</time>
      </trkpt>
      <trkpt lat="45.19081" lon="5.60994">
        <ele>1126.4000244141</ele>
        <time>2019-08-11T12:06:31.000Z</time>
      </trkpt>
      <trkpt lat="45.19075" lon="5.60992">
        <ele>1125.5999755859</ele>
        <time>2019-08-11T12:06:32.000Z</time>
      </trkpt>
      <trkpt lat="45.19071" lon="5.60991">
        <ele>1124</ele>
        <time>2019-08-11T12:06:33.000Z</time>
      </trkpt>
      <trkpt lat="45.19066" lon="5.6099">
        <ele>1122.8000488281</ele>
        <time>2019-08-11T12:06:34.000Z</time>
      </trkpt>
      <trkpt lat="45.19059" lon="5.60989">
        <ele>1121.8000488281</ele>
        <time>2019-08-11T12:06:35.000Z</time>
      </trkpt>
      <trkpt lat="45.19052" lon="5.60988">
        <ele>1121.1999511719</ele>
        <time>2019-08-11T12:06:36.000Z</time>
      </trkpt>
      <trkpt lat="45.19046" lon="5.60988">
        <ele>1120</ele>
        <time>2019-08-11T12:06:37.000Z</time>
      </trkpt>
      <trkpt lat="45.19035" lon="5.60985">
        <ele>1118</ele>
        <time>2019-08-11T12:06:39.000Z</time>
      </trkpt>
      <trkpt lat="45.19031" lon="5.60984">
        <ele>1116.8000488281</ele>
        <time>2019-08-11T12:06:40.000Z</time>
      </trkpt>
      <trkpt lat="45.19027" lon="5.60982">
        <ele>1115.4000244141</ele>
        <time>2019-08-11T12:06:41.000Z</time>
      </trkpt>
      <trkpt lat="45.19017" lon="5.60978">
        <ele>1114</ele>
        <time>2019-08-11T12:06:43.000Z</time>
      </trkpt>
      <trkpt lat="45.19012" lon="5.60976">
        <ele>1113.5999755859</ele>
        <time>2019-08-11T12:06:44.000Z</time>
      </trkpt>
      <trkpt lat="45.19002" lon="5.60968">
        <ele>1113</ele>
        <time>2019-08-11T12:06:47.000Z</time>
      </trkpt>
      <trkpt lat="45.19001" lon="5.60966">
        <ele>1112.8000488281</ele>
        <time>2019-08-11T12:06:48.000Z</time>
      </trkpt>
      <trkpt lat="45.18998" lon="5.60968">
        <ele>1112.1999511719</ele>
        <time>2019-08-11T12:06:52.000Z</time>
      </trkpt>
      <trkpt lat="45.18998" lon="5.60969">
        <ele>1112.1999511719</ele>
        <time>2019-08-11T12:06:53.000Z</time>
      </trkpt>
      <trkpt lat="45.18998" lon="5.60975">
        <ele>1111.8000488281</ele>
        <time>2019-08-11T12:06:55.000Z</time>
      </trkpt>
      <trkpt lat="45.18998" lon="5.60978">
        <ele>1111.5999755859</ele>
        <time>2019-08-11T12:06:56.000Z</time>
      </trkpt>
      <trkpt lat="45.18998" lon="5.60982">
        <ele>1110.5999755859</ele>
        <time>2019-08-11T12:06:57.000Z</time>
      </trkpt>
      <trkpt lat="45.18997" lon="5.60992">
        <ele>1109.4000244141</ele>
        <time>2019-08-11T12:06:59.000Z</time>
      </trkpt>
      <trkpt lat="45.18996" lon="5.60997">
        <ele>1108.5999755859</ele>
        <time>2019-08-11T12:07:00.000Z</time>
      </trkpt>
      <trkpt lat="45.18996" lon="5.61001">
        <ele>1107.4000244141</ele>
        <time>2019-08-11T12:07:01.000Z</time>
      </trkpt>
      <trkpt lat="45.18996" lon="5.61005">
        <ele>1106.5999755859</ele>
        <time>2019-08-11T12:07:02.000Z</time>
      </trkpt>
      <trkpt lat="45.18996" lon="5.61009">
        <ele>1105.4000244141</ele>
        <time>2019-08-11T12:07:03.000Z</time>
      </trkpt>
      <trkpt lat="45.18995" lon="5.61013">
        <ele>1103.5999755859</ele>
        <time>2019-08-11T12:07:04.000Z</time>
      </trkpt>
      <trkpt lat="45.18994" lon="5.61016">
        <ele>1101.8000488281</ele>
        <time>2019-08-11T12:07:05.000Z</time>
      </trkpt>
      <trkpt lat="45.1899" lon="5.61022">
        <ele>1100.1999511719</ele>
        <time>2019-08-11T12:07:07.000Z</time>
      </trkpt>
      <trkpt lat="45.18985" lon="5.61025">
        <ele>1098.8000488281</ele>
        <time>2019-08-11T12:07:09.000Z</time>
      </trkpt>
      <trkpt lat="45.18983" lon="5.61027">
        <ele>1097.5999755859</ele>
        <time>2019-08-11T12:07:10.000Z</time>
      </trkpt>
      <trkpt lat="45.18981" lon="5.61028">
        <ele>1096.1999511719</ele>
        <time>2019-08-11T12:07:11.000Z</time>
      </trkpt>
      <trkpt lat="45.18979" lon="5.6103">
        <ele>1095</ele>
        <time>2019-08-11T12:07:12.000Z</time>
      </trkpt>
      <trkpt lat="45.18977" lon="5.61032">
        <ele>1094</ele>
        <time>2019-08-11T12:07:13.000Z</time>
      </trkpt>
      <trkpt lat="45.18975" lon="5.61035">
        <ele>1093</ele>
        <time>2019-08-11T12:07:14.000Z</time>
      </trkpt>
      <trkpt lat="45.18972" lon="5.61037">
        <ele>1092</ele>
        <time>2019-08-11T12:07:15.000Z</time>
      </trkpt>
      <trkpt lat="45.1897" lon="5.61041">
        <ele>1090.8000488281</ele>
        <time>2019-08-11T12:07:16.000Z</time>
      </trkpt>
      <trkpt lat="45.18969" lon="5.61044">
        <ele>1089.4000244141</ele>
        <time>2019-08-11T12:07:17.000Z</time>
      </trkpt>
      <trkpt lat="45.18967" lon="5.61047">
        <ele>1088.1999511719</ele>
        <time>2019-08-11T12:07:18.000Z</time>
      </trkpt>
      <trkpt lat="45.18964" lon="5.6105">
        <ele>1087</ele>
        <time>2019-08-11T12:07:19.000Z</time>
      </trkpt>
      <trkpt lat="45.18961" lon="5.61054">
        <ele>1085.4000244141</ele>
        <time>2019-08-11T12:07:20.000Z</time>
      </trkpt>
      <trkpt lat="45.18959" lon="5.61058">
        <ele>1083.1999511719</ele>
        <time>2019-08-11T12:07:21.000Z</time>
      </trkpt>
      <trkpt lat="45.18958" lon="5.61062">
        <ele>1082.4000244141</ele>
        <time>2019-08-11T12:07:22.000Z</time>
      </trkpt>
      <trkpt lat="45.18959" lon="5.61069">
        <ele>1080.4000244141</ele>
        <time>2019-08-11T12:07:24.000Z</time>
      </trkpt>
      <trkpt lat="45.1896" lon="5.61072">
        <ele>1079.1999511719</ele>
        <time>2019-08-11T12:07:25.000Z</time>
      </trkpt>
      <trkpt lat="45.1896" lon="5.61075">
        <ele>1077.8000488281</ele>
        <time>2019-08-11T12:07:26.000Z</time>
      </trkpt>
      <trkpt lat="45.1896" lon="5.61077">
        <ele>1076.5999755859</ele>
        <time>2019-08-11T12:07:27.000Z</time>
      </trkpt>
      <trkpt lat="45.18959" lon="5.61079">
        <ele>1075.5999755859</ele>
        <time>2019-08-11T12:07:28.000Z</time>
      </trkpt>
      <trkpt lat="45.18958" lon="5.6108">
        <ele>1074.4000244141</ele>
        <time>2019-08-11T12:07:29.000Z</time>
      </trkpt>
      <trkpt lat="45.18958" lon="5.61081">
        <ele>1073.5999755859</ele>
        <time>2019-08-11T12:07:30.000Z</time>
      </trkpt>
      <trkpt lat="45.18957" lon="5.61083">
        <ele>1072.8000488281</ele>
        <time>2019-08-11T12:07:31.000Z</time>
      </trkpt>
      <trkpt lat="45.18955" lon="5.61087">
        <ele>1071.4000244141</ele>
        <time>2019-08-11T12:07:33.000Z</time>
      </trkpt>
      <trkpt lat="45.18952" lon="5.61091">
        <ele>1070</ele>
        <time>2019-08-11T12:07:36.000Z</time>
      </trkpt>
      <trkpt lat="45.1895" lon="5.61096">
        <ele>1069</ele>
        <time>2019-08-11T12:07:40.000Z</time>
      </trkpt>
      <trkpt lat="45.18948" lon="5.61099">
        <ele>1068.8000488281</ele>
        <time>2019-08-11T12:07:42.000Z</time>
      </trkpt>
      <trkpt lat="45.18944" lon="5.61105">
        <ele>1067.5999755859</ele>
        <time>2019-08-11T12:07:45.000Z</time>
      </trkpt>
      <trkpt lat="45.18937" lon="5.61111">
        <ele>1066.1999511719</ele>
        <time>2019-08-11T12:07:47.000Z</time>
      </trkpt>
      <trkpt lat="45.18929" lon="5.61115">
        <ele>1064</ele>
        <time>2019-08-11T12:07:49.000Z</time>
      </trkpt>
      <trkpt lat="45.18925" lon="5.61117">
        <ele>1062.4000244141</ele>
        <time>2019-08-11T12:07:50.000Z</time>
      </trkpt>
      <trkpt lat="45.18921" lon="5.61119">
        <ele>1061</ele>
        <time>2019-08-11T12:07:51.000Z</time>
      </trkpt>
      <trkpt lat="45.18916" lon="5.6112">
        <ele>1059.8000488281</ele>
        <time>2019-08-11T12:07:52.000Z</time>
      </trkpt>
      <trkpt lat="45.18911" lon="5.61122">
        <ele>1057.8000488281</ele>
        <time>2019-08-11T12:07:53.000Z</time>
      </trkpt>
      <trkpt lat="45.18907" lon="5.61122">
        <ele>1057</ele>
        <time>2019-08-11T12:07:54.000Z</time>
      </trkpt>
      <trkpt lat="45.18903" lon="5.61121">
        <ele>1056</ele>
        <time>2019-08-11T12:07:55.000Z</time>
      </trkpt>
      <trkpt lat="45.189" lon="5.61118">
        <ele>1054.8000488281</ele>
        <time>2019-08-11T12:07:56.000Z</time>
      </trkpt>
      <trkpt lat="45.18895" lon="5.61114">
        <ele>1053.5999755859</ele>
        <time>2019-08-11T12:07:57.000Z</time>
      </trkpt>
      <trkpt lat="45.18891" lon="5.61109">
        <ele>1052.8000488281</ele>
        <time>2019-08-11T12:07:58.000Z</time>
      </trkpt>
      <trkpt lat="45.18886" lon="5.61105">
        <ele>1052</ele>
        <time>2019-08-11T12:07:59.000Z</time>
      </trkpt>
      <trkpt lat="45.18879" lon="5.61098">
        <ele>1049.8000488281</ele>
        <time>2019-08-11T12:08:01.000Z</time>
      </trkpt>
      <trkpt lat="45.18876" lon="5.61093">
        <ele>1048.5999755859</ele>
        <time>2019-08-11T12:08:02.000Z</time>
      </trkpt>
      <trkpt lat="45.18872" lon="5.6109">
        <ele>1047.5999755859</ele>
        <time>2019-08-11T12:08:03.000Z</time>
      </trkpt>
      <trkpt lat="45.18869" lon="5.61086">
        <ele>1046</ele>
        <time>2019-08-11T12:08:05.000Z</time>
      </trkpt>
      <trkpt lat="45.18867" lon="5.61084">
        <ele>1045</ele>
        <time>2019-08-11T12:08:06.000Z</time>
      </trkpt>
      <trkpt lat="45.18866" lon="5.61082">
        <ele>1044</ele>
        <time>2019-08-11T12:08:07.000Z</time>
      </trkpt>
      <trkpt lat="45.18864" lon="5.61079">
        <ele>1042.5999755859</ele>
        <time>2019-08-11T12:08:09.000Z</time>
      </trkpt>
      <trkpt lat="45.18861" lon="5.61076">
        <ele>1042</ele>
        <time>2019-08-11T12:08:11.000Z</time>
      </trkpt>
      <trkpt lat="45.18858" lon="5.61076">
        <ele>1041.4000244141</ele>
        <time>2019-08-11T12:08:17.000Z</time>
      </trkpt>
      <trkpt lat="45.18856" lon="5.61074">
        <ele>1040.8000488281</ele>
        <time>2019-08-11T12:08:21.000Z</time>
      </trkpt>
      <trkpt lat="45.18856" lon="5.61074">
        <ele>1040.4000244141</ele>
        <time>2019-08-11T12:08:23.000Z</time>
      </trkpt>
      <trkpt lat="45.18853" lon="5.61073">
        <ele>1039.5999755859</ele>
        <time>2019-08-11T12:08:27.000Z</time>
      </trkpt>
      <trkpt lat="45.18851" lon="5.61073">
        <ele>1039.4000244141</ele>
        <time>2019-08-11T12:08:31.000Z</time>
      </trkpt>
      <trkpt lat="45.18852" lon="5.61074">
        <ele>1039.4000244141</ele>
        <time>2019-08-11T12:08:32.000Z</time>
      </trkpt>
      <trkpt lat="45.1885" lon="5.61074">
        <ele>1039.1999511719</ele>
        <time>2019-08-11T12:08:34.000Z</time>
      </trkpt>
      <trkpt lat="45.18849" lon="5.61075">
        <ele>1038.4000244141</ele>
        <time>2019-08-11T12:08:38.000Z</time>
      </trkpt>
      <trkpt lat="45.18849" lon="5.61075">
        <ele>1038</ele>
        <time>2019-08-11T12:08:42.000Z</time>
      </trkpt>
      <trkpt lat="45.18848" lon="5.61079">
        <ele>1037.5999755859</ele>
        <time>2019-08-11T12:08:49.000Z</time>
      </trkpt>
      <trkpt lat="45.18847" lon="5.61081">
        <ele>1037.4000244141</ele>
        <time>2019-08-11T12:08:50.000Z</time>
      </trkpt>
      <trkpt lat="45.18844" lon="5.6109">
        <ele>1036</ele>
        <time>2019-08-11T12:08:53.000Z</time>
      </trkpt>
      <trkpt lat="45.18841" lon="5.61096">
        <ele>1034.8000488281</ele>
        <time>2019-08-11T12:08:55.000Z</time>
      </trkpt>
      <trkpt lat="45.18837" lon="5.61101">
        <ele>1033.5999755859</ele>
        <time>2019-08-11T12:08:57.000Z</time>
      </trkpt>
      <trkpt lat="45.18833" lon="5.61109">
        <ele>1032.4000244141</ele>
        <time>2019-08-11T12:08:59.000Z</time>
      </trkpt>
      <trkpt lat="45.1883" lon="5.61111">
        <ele>1031.8000488281</ele>
        <time>2019-08-11T12:09:00.000Z</time>
      </trkpt>
      <trkpt lat="45.18827" lon="5.61113">
        <ele>1030.8000488281</ele>
        <time>2019-08-11T12:09:01.000Z</time>
      </trkpt>
      <trkpt lat="45.18824" lon="5.61114">
        <ele>1029.5999755859</ele>
        <time>2019-08-11T12:09:02.000Z</time>
      </trkpt>
      <trkpt lat="45.18821" lon="5.61115">
        <ele>1028.1999511719</ele>
        <time>2019-08-11T12:09:03.000Z</time>
      </trkpt>
      <trkpt lat="45.18819" lon="5.61117">
        <ele>1027.4000244141</ele>
        <time>2019-08-11T12:09:04.000Z</time>
      </trkpt>
      <trkpt lat="45.18816" lon="5.61119">
        <ele>1026.1999511719</ele>
        <time>2019-08-11T12:09:05.000Z</time>
      </trkpt>
      <trkpt lat="45.18815" lon="5.61122">
        <ele>1025.4000244141</ele>
        <time>2019-08-11T12:09:06.000Z</time>
      </trkpt>
      <trkpt lat="45.18813" lon="5.61127">
        <ele>1024.5999755859</ele>
        <time>2019-08-11T12:09:07.000Z</time>
      </trkpt>
      <trkpt lat="45.18811" lon="5.61132">
        <ele>1023.200012207</ele>
        <time>2019-08-11T12:09:08.000Z</time>
      </trkpt>
      <trkpt lat="45.18809" lon="5.61137">
        <ele>1021.4000244141</ele>
        <time>2019-08-11T12:09:09.000Z</time>
      </trkpt>
      <trkpt lat="45.18808" lon="5.61143">
        <ele>1019.799987793</ele>
        <time>2019-08-11T12:09:10.000Z</time>
      </trkpt>
      <trkpt lat="45.18806" lon="5.61147">
        <ele>1018.4000244141</ele>
        <time>2019-08-11T12:09:11.000Z</time>
      </trkpt>
      <trkpt lat="45.18804" lon="5.61151">
        <ele>1017.4000244141</ele>
        <time>2019-08-11T12:09:12.000Z</time>
      </trkpt>
      <trkpt lat="45.18801" lon="5.61156">
        <ele>1015.799987793</ele>
        <time>2019-08-11T12:09:13.000Z</time>
      </trkpt>
      <trkpt lat="45.18798" lon="5.61159">
        <ele>1014.799987793</ele>
        <time>2019-08-11T12:09:14.000Z</time>
      </trkpt>
      <trkpt lat="45.18795" lon="5.61161">
        <ele>1013.4000244141</ele>
        <time>2019-08-11T12:09:15.000Z</time>
      </trkpt>
      <trkpt lat="45.18793" lon="5.61163">
        <ele>1011.4000244141</ele>
        <time>2019-08-11T12:09:16.000Z</time>
      </trkpt>
      <trkpt lat="45.18791" lon="5.61166">
        <ele>1010.200012207</ele>
        <time>2019-08-11T12:09:17.000Z</time>
      </trkpt>
      <trkpt lat="45.1879" lon="5.6117">
        <ele>1009.200012207</ele>
        <time>2019-08-11T12:09:18.000Z</time>
      </trkpt>
      <trkpt lat="45.18788" lon="5.61176">
        <ele>1008</ele>
        <time>2019-08-11T12:09:19.000Z</time>
      </trkpt>
      <trkpt lat="45.18786" lon="5.61181">
        <ele>1006.5999755859</ele>
        <time>2019-08-11T12:09:20.000Z</time>
      </trkpt>
      <trkpt lat="45.18784" lon="5.61185">
        <ele>1004.4000244141</ele>
        <time>2019-08-11T12:09:21.000Z</time>
      </trkpt>
      <trkpt lat="45.18782" lon="5.61189">
        <ele>1002.799987793</ele>
        <time>2019-08-11T12:09:22.000Z</time>
      </trkpt>
      <trkpt lat="45.18779" lon="5.61193">
        <ele>1001.799987793</ele>
        <time>2019-08-11T12:09:23.000Z</time>
      </trkpt>
      <trkpt lat="45.18775" lon="5.612">
        <ele>1000</ele>
        <time>2019-08-11T12:09:25.000Z</time>
      </trkpt>
      <trkpt lat="45.18773" lon="5.61204">
        <ele>998.40002441406</ele>
        <time>2019-08-11T12:09:26.000Z</time>
      </trkpt>
      <trkpt lat="45.18767" lon="5.61212">
        <ele>996.59997558594</ele>
        <time>2019-08-11T12:09:28.000Z</time>
      </trkpt>
      <trkpt lat="45.18763" lon="5.61214">
        <ele>995.59997558594</ele>
        <time>2019-08-11T12:09:29.000Z</time>
      </trkpt>
      <trkpt lat="45.18754" lon="5.61216">
        <ele>993</ele>
        <time>2019-08-11T12:09:31.000Z</time>
      </trkpt>
      <trkpt lat="45.18749" lon="5.61216">
        <ele>991.40002441406</ele>
        <time>2019-08-11T12:09:32.000Z</time>
      </trkpt>
      <trkpt lat="45.18744" lon="5.61216">
        <ele>990.20001220703</ele>
        <time>2019-08-11T12:09:33.000Z</time>
      </trkpt>
      <trkpt lat="45.18738" lon="5.61217">
        <ele>988.40002441406</ele>
        <time>2019-08-11T12:09:35.000Z</time>
      </trkpt>
      <trkpt lat="45.18735" lon="5.61218">
        <ele>987.59997558594</ele>
        <time>2019-08-11T12:09:36.000Z</time>
      </trkpt>
      <trkpt lat="45.18733" lon="5.61219">
        <ele>986.59997558594</ele>
        <time>2019-08-11T12:09:37.000Z</time>
      </trkpt>
      <trkpt lat="45.18728" lon="5.61221">
        <ele>985.40002441406</ele>
        <time>2019-08-11T12:09:39.000Z</time>
      </trkpt>
      <trkpt lat="45.18727" lon="5.61221">
        <ele>984.59997558594</ele>
        <time>2019-08-11T12:09:41.000Z</time>
      </trkpt>
      <trkpt lat="45.18726" lon="5.61221">
        <ele>984.40002441406</ele>
        <time>2019-08-11T12:09:42.000Z</time>
      </trkpt>
      <trkpt lat="45.18725" lon="5.61221">
        <ele>984</ele>
        <time>2019-08-11T12:09:54.000Z</time>
      </trkpt>
      <trkpt lat="45.18723" lon="5.61221">
        <ele>984</ele>
        <time>2019-08-11T12:10:05.000Z</time>
      </trkpt>
      <trkpt lat="45.18718" lon="5.61217">
        <ele>984</ele>
        <time>2019-08-11T12:10:11.000Z</time>
      </trkpt>
      <trkpt lat="45.18713" lon="5.61217">
        <ele>985</ele>
        <time>2019-08-11T12:10:19.000Z</time>
      </trkpt>
      <trkpt lat="45.18713" lon="5.61217">
        <ele>984.79998779297</ele>
        <time>2019-08-11T12:10:29.000Z</time>
      </trkpt>
      <trkpt lat="45.18709" lon="5.61215">
        <ele>984.79998779297</ele>
        <time>2019-08-11T12:10:34.000Z</time>
      </trkpt>
      <trkpt lat="45.18698" lon="5.61214">
        <ele>985.40002441406</ele>
        <time>2019-08-11T12:10:40.000Z</time>
      </trkpt>
      <trkpt lat="45.18695" lon="5.61215">
        <ele>986</ele>
        <time>2019-08-11T12:10:42.000Z</time>
      </trkpt>
      <trkpt lat="45.18693" lon="5.61217">
        <ele>986.59997558594</ele>
        <time>2019-08-11T12:10:44.000Z</time>
      </trkpt>
      <trkpt lat="45.18692" lon="5.61219">
        <ele>986.79998779297</ele>
        <time>2019-08-11T12:10:45.000Z</time>
      </trkpt>
      <trkpt lat="45.1869" lon="5.61222">
        <ele>987</ele>
        <time>2019-08-11T12:10:47.000Z</time>
      </trkpt>
      <trkpt lat="45.18688" lon="5.61227">
        <ele>987.40002441406</ele>
        <time>2019-08-11T12:10:50.000Z</time>
      </trkpt>
      <trkpt lat="45.18686" lon="5.6123">
        <ele>987.59997558594</ele>
        <time>2019-08-11T12:10:52.000Z</time>
      </trkpt>
      <trkpt lat="45.18684" lon="5.61234">
        <ele>988.20001220703</ele>
        <time>2019-08-11T12:10:55.000Z</time>
      </trkpt>
      <trkpt lat="45.18683" lon="5.61236">
        <ele>988.79998779297</ele>
        <time>2019-08-11T12:10:57.000Z</time>
      </trkpt>
      <trkpt lat="45.1868" lon="5.61239">
        <ele>989.40002441406</ele>
        <time>2019-08-11T12:11:03.000Z</time>
      </trkpt>
      <trkpt lat="45.18675" lon="5.61243">
        <ele>989.59997558594</ele>
        <time>2019-08-11T12:11:12.000Z</time>
      </trkpt>
      <trkpt lat="45.18674" lon="5.61251">
        <ele>989</ele>
        <time>2019-08-11T12:11:15.000Z</time>
      </trkpt>
      <trkpt lat="45.18673" lon="5.61258">
        <ele>988.20001220703</ele>
        <time>2019-08-11T12:11:17.000Z</time>
      </trkpt>
      <trkpt lat="45.18673" lon="5.61261">
        <ele>987.79998779297</ele>
        <time>2019-08-11T12:11:18.000Z</time>
      </trkpt>
      <trkpt lat="45.18673" lon="5.61267">
        <ele>986.40002441406</ele>
        <time>2019-08-11T12:11:20.000Z</time>
      </trkpt>
      <trkpt lat="45.18671" lon="5.61274">
        <ele>984.79998779297</ele>
        <time>2019-08-11T12:11:22.000Z</time>
      </trkpt>
      <trkpt lat="45.1867" lon="5.61283">
        <ele>983.79998779297</ele>
        <time>2019-08-11T12:11:24.000Z</time>
      </trkpt>
      <trkpt lat="45.18669" lon="5.6129">
        <ele>982.40002441406</ele>
        <time>2019-08-11T12:11:26.000Z</time>
      </trkpt>
      <trkpt lat="45.18668" lon="5.61298">
        <ele>980.59997558594</ele>
        <time>2019-08-11T12:11:28.000Z</time>
      </trkpt>
      <trkpt lat="45.18668" lon="5.61301">
        <ele>979.40002441406</ele>
        <time>2019-08-11T12:11:29.000Z</time>
      </trkpt>
      <trkpt lat="45.18667" lon="5.61303">
        <ele>978</ele>
        <time>2019-08-11T12:11:30.000Z</time>
      </trkpt>
      <trkpt lat="45.18665" lon="5.61306">
        <ele>976.59997558594</ele>
        <time>2019-08-11T12:11:32.000Z</time>
      </trkpt>
      <trkpt lat="45.18664" lon="5.61307">
        <ele>975.79998779297</ele>
        <time>2019-08-11T12:11:33.000Z</time>
      </trkpt>
      <trkpt lat="45.18665" lon="5.61307">
        <ele>975.20001220703</ele>
        <time>2019-08-11T12:11:34.000Z</time>
      </trkpt>
      <trkpt lat="45.18665" lon="5.61308">
        <ele>974.40002441406</ele>
        <time>2019-08-11T12:11:39.000Z</time>
      </trkpt>
      <trkpt lat="45.18666" lon="5.61309">
        <ele>974.40002441406</ele>
        <time>2019-08-11T12:11:52.000Z</time>
      </trkpt>
      <trkpt lat="45.18666" lon="5.61309">
        <ele>974.40002441406</ele>
        <time>2019-08-11T12:11:53.000Z</time>
      </trkpt>
      <trkpt lat="45.18662" lon="5.61314">
        <ele>974.20001220703</ele>
        <time>2019-08-11T12:11:56.000Z</time>
      </trkpt>
      <trkpt lat="45.18658" lon="5.61317">
        <ele>974</ele>
        <time>2019-08-11T12:11:58.000Z</time>
      </trkpt>
      <trkpt lat="45.18654" lon="5.61321">
        <ele>973.20001220703</ele>
        <time>2019-08-11T12:12:00.000Z</time>
      </trkpt>
      <trkpt lat="45.18649" lon="5.61325">
        <ele>972</ele>
        <time>2019-08-11T12:12:02.000Z</time>
      </trkpt>
      <trkpt lat="45.18646" lon="5.61331">
        <ele>971</ele>
        <time>2019-08-11T12:12:04.000Z</time>
      </trkpt>
      <trkpt lat="45.18644" lon="5.61334">
        <ele>970.59997558594</ele>
        <time>2019-08-11T12:12:05.000Z</time>
      </trkpt>
      <trkpt lat="45.18639" lon="5.6134">
        <ele>969.59997558594</ele>
        <time>2019-08-11T12:12:07.000Z</time>
      </trkpt>
      <trkpt lat="45.18635" lon="5.61347">
        <ele>968.40002441406</ele>
        <time>2019-08-11T12:12:09.000Z</time>
      </trkpt>
      <trkpt lat="45.18632" lon="5.61352">
        <ele>966.40002441406</ele>
        <time>2019-08-11T12:12:11.000Z</time>
      </trkpt>
      <trkpt lat="45.18629" lon="5.61357">
        <ele>964.59997558594</ele>
        <time>2019-08-11T12:12:13.000Z</time>
      </trkpt>
      <trkpt lat="45.18629" lon="5.61358">
        <ele>964.20001220703</ele>
        <time>2019-08-11T12:12:14.000Z</time>
      </trkpt>
      <trkpt lat="45.1863" lon="5.61359">
        <ele>963.40002441406</ele>
        <time>2019-08-11T12:12:15.000Z</time>
      </trkpt>
      <trkpt lat="45.18631" lon="5.6136">
        <ele>962.79998779297</ele>
        <time>2019-08-11T12:12:16.000Z</time>
      </trkpt>
      <trkpt lat="45.18632" lon="5.61359">
        <ele>962.59997558594</ele>
        <time>2019-08-11T12:12:17.000Z</time>
      </trkpt>
      <trkpt lat="45.18632" lon="5.61359">
        <ele>962</ele>
        <time>2019-08-11T12:12:18.000Z</time>
      </trkpt>
      <trkpt lat="45.18633" lon="5.6136">
        <ele>961.40002441406</ele>
        <time>2019-08-11T12:12:19.000Z</time>
      </trkpt>
      <trkpt lat="45.18633" lon="5.61362">
        <ele>960.59997558594</ele>
        <time>2019-08-11T12:12:24.000Z</time>
      </trkpt>
      <trkpt lat="45.18634" lon="5.61361">
        <ele>960.40002441406</ele>
        <time>2019-08-11T12:12:25.000Z</time>
      </trkpt>
      <trkpt lat="45.18635" lon="5.61361">
        <ele>960.40002441406</ele>
        <time>2019-08-11T12:12:31.000Z</time>
      </trkpt>
      <trkpt lat="45.18636" lon="5.6136">
        <ele>960.40002441406</ele>
        <time>2019-08-11T12:12:33.000Z</time>
      </trkpt>
      <trkpt lat="45.1864" lon="5.61358">
        <ele>960.59997558594</ele>
        <time>2019-08-11T12:12:37.000Z</time>
      </trkpt>
      <trkpt lat="45.18642" lon="5.61357">
        <ele>960.79998779297</ele>
        <time>2019-08-11T12:12:39.000Z</time>
      </trkpt>
      <trkpt lat="45.18645" lon="5.61355">
        <ele>961</ele>
        <time>2019-08-11T12:12:43.000Z</time>
      </trkpt>
      <trkpt lat="45.18649" lon="5.6135">
        <ele>961.59997558594</ele>
        <time>2019-08-11T12:12:52.000Z</time>
      </trkpt>
      <trkpt lat="45.18649" lon="5.6135">
        <ele>961.59997558594</ele>
        <time>2019-08-11T12:12:53.000Z</time>
      </trkpt>
      <trkpt lat="45.18651" lon="5.61348">
        <ele>961.59997558594</ele>
        <time>2019-08-11T12:13:01.000Z</time>
      </trkpt>
      <trkpt lat="45.18652" lon="5.61348">
        <ele>961.79998779297</ele>
        <time>2019-08-11T12:13:14.000Z</time>
      </trkpt>
      <trkpt lat="45.18652" lon="5.61348">
        <ele>961.59997558594</ele>
        <time>2019-08-11T12:13:25.000Z</time>
      </trkpt>
      <trkpt lat="45.18652" lon="5.61347">
        <ele>961.40002441406</ele>
        <time>2019-08-11T12:13:35.000Z</time>
      </trkpt>
      <trkpt lat="45.18653" lon="5.61347">
        <ele>961.79998779297</ele>
        <time>2019-08-11T12:13:43.000Z</time>
      </trkpt>
      <trkpt lat="45.18654" lon="5.61344">
        <ele>961.59997558594</ele>
        <time>2019-08-11T12:13:53.000Z</time>
      </trkpt>
      <trkpt lat="45.18656" lon="5.61342">
        <ele>960.79998779297</ele>
        <time>2019-08-11T12:14:05.000Z</time>
      </trkpt>
      <trkpt lat="45.18656" lon="5.61342">
        <ele>961</ele>
        <time>2019-08-11T12:14:07.000Z</time>
      </trkpt>
      <trkpt lat="45.18657" lon="5.61342">
        <ele>960.79998779297</ele>
        <time>2019-08-11T12:14:18.000Z</time>
      </trkpt>
      <trkpt lat="45.18657" lon="5.61342">
        <ele>960.59997558594</ele>
        <time>2019-08-11T12:14:33.000Z</time>
      </trkpt>
      <trkpt lat="45.18657" lon="5.61344">
        <ele>960.59997558594</ele>
        <time>2019-08-11T12:14:49.000Z</time>
      </trkpt>
      <trkpt lat="45.18657" lon="5.61344">
        <ele>960.59997558594</ele>
        <time>2019-08-11T12:14:53.000Z</time>
      </trkpt>
      <trkpt lat="45.18657" lon="5.61345">
        <ele>960.40002441406</ele>
        <time>2019-08-11T12:15:04.000Z</time>
      </trkpt>
      <trkpt lat="45.18658" lon="5.61346">
        <ele>960.59997558594</ele>
        <time>2019-08-11T12:15:18.000Z</time>
      </trkpt>
      <trkpt lat="45.18659" lon="5.61345">
        <ele>960.59997558594</ele>
        <time>2019-08-11T12:15:30.000Z</time>
      </trkpt>
      <trkpt lat="45.18662" lon="5.61343">
        <ele>961</ele>
        <time>2019-08-11T12:15:44.000Z</time>
      </trkpt>
      <trkpt lat="45.18664" lon="5.61343">
        <ele>961.20001220703</ele>
        <time>2019-08-11T12:15:56.000Z</time>
      </trkpt>
      <trkpt lat="45.18665" lon="5.61344">
        <ele>961.40002441406</ele>
        <time>2019-08-11T12:16:05.000Z</time>
      </trkpt>
      <trkpt lat="45.18666" lon="5.61346">
        <ele>960.40002441406</ele>
        <time>2019-08-11T12:16:11.000Z</time>
      </trkpt>
      <trkpt lat="45.18667" lon="5.61346">
        <ele>959.59997558594</ele>
        <time>2019-08-11T12:16:14.000Z</time>
      </trkpt>
      <trkpt lat="45.18665" lon="5.61347">
        <ele>959.20001220703</ele>
        <time>2019-08-11T12:16:17.000Z</time>
      </trkpt>
      <trkpt lat="45.18664" lon="5.61348">
        <ele>958.59997558594</ele>
        <time>2019-08-11T12:16:28.000Z</time>
      </trkpt>
      <trkpt lat="45.18664" lon="5.61348">
        <ele>958.59997558594</ele>
        <time>2019-08-11T12:16:29.000Z</time>
      </trkpt>
      <trkpt lat="45.18663" lon="5.61349">
        <ele>959</ele>
        <time>2019-08-11T12:16:38.000Z</time>
      </trkpt>
      <trkpt lat="45.18663" lon="5.61348">
        <ele>958.59997558594</ele>
        <time>2019-08-11T12:16:56.000Z</time>
      </trkpt>
      <trkpt lat="45.18662" lon="5.61348">
        <ele>958.79998779297</ele>
        <time>2019-08-11T12:17:07.000Z</time>
      </trkpt>
      <trkpt lat="45.18661" lon="5.61349">
        <ele>958.40002441406</ele>
        <time>2019-08-11T12:17:18.000Z</time>
      </trkpt>
      <trkpt lat="45.1866" lon="5.61351">
        <ele>958.79998779297</ele>
        <time>2019-08-11T12:17:32.000Z</time>
      </trkpt>
      <trkpt lat="45.18658" lon="5.61353">
        <ele>958.20001220703</ele>
        <time>2019-08-11T12:17:39.000Z</time>
      </trkpt>
      <trkpt lat="45.18657" lon="5.61356">
        <ele>958</ele>
        <time>2019-08-11T12:17:41.000Z</time>
      </trkpt>
      <trkpt lat="45.18655" lon="5.61361">
        <ele>957.40002441406</ele>
        <time>2019-08-11T12:17:45.000Z</time>
      </trkpt>
      <trkpt lat="45.18654" lon="5.61366">
        <ele>956.40002441406</ele>
        <time>2019-08-11T12:17:50.000Z</time>
      </trkpt>
      <trkpt lat="45.18653" lon="5.61367">
        <ele>956.20001220703</ele>
        <time>2019-08-11T12:17:51.000Z</time>
      </trkpt>
      <trkpt lat="45.18654" lon="5.61366">
        <ele>956</ele>
        <time>2019-08-11T12:17:56.000Z</time>
      </trkpt>
      <trkpt lat="45.18657" lon="5.61357">
        <ele>957</ele>
        <time>2019-08-11T12:18:04.000Z</time>
      </trkpt>
      <trkpt lat="45.18658" lon="5.61357">
        <ele>957.20001220703</ele>
        <time>2019-08-11T12:18:05.000Z</time>
      </trkpt>
      <trkpt lat="45.18659" lon="5.61355">
        <ele>957.79998779297</ele>
        <time>2019-08-11T12:18:07.000Z</time>
      </trkpt>
      <trkpt lat="45.18663" lon="5.61351">
        <ele>958.79998779297</ele>
        <time>2019-08-11T12:18:13.000Z</time>
      </trkpt>
      <trkpt lat="45.18667" lon="5.61348">
        <ele>960.20001220703</ele>
        <time>2019-08-11T12:18:18.000Z</time>
      </trkpt>
      <trkpt lat="45.18667" lon="5.61346">
        <ele>960.20001220703</ele>
        <time>2019-08-11T12:18:19.000Z</time>
      </trkpt>
      <trkpt lat="45.1867" lon="5.61343">
        <ele>960.59997558594</ele>
        <time>2019-08-11T12:18:21.000Z</time>
      </trkpt>
      <trkpt lat="45.18673" lon="5.6134">
        <ele>961.40002441406</ele>
        <time>2019-08-11T12:18:24.000Z</time>
      </trkpt>
      <trkpt lat="45.18675" lon="5.61338">
        <ele>962</ele>
        <time>2019-08-11T12:18:26.000Z</time>
      </trkpt>
      <trkpt lat="45.18676" lon="5.61337">
        <ele>962.20001220703</ele>
        <time>2019-08-11T12:18:27.000Z</time>
      </trkpt>
      <trkpt lat="45.18676" lon="5.61335">
        <ele>962.40002441406</ele>
        <time>2019-08-11T12:18:28.000Z</time>
      </trkpt>
      <trkpt lat="45.18681" lon="5.61327">
        <ele>963.79998779297</ele>
        <time>2019-08-11T12:18:33.000Z</time>
      </trkpt>
      <trkpt lat="45.18681" lon="5.61325">
        <ele>964.20001220703</ele>
        <time>2019-08-11T12:18:34.000Z</time>
      </trkpt>
      <trkpt lat="45.18684" lon="5.61318">
        <ele>964.79998779297</ele>
        <time>2019-08-11T12:18:37.000Z</time>
      </trkpt>
      <trkpt lat="45.18685" lon="5.61316">
        <ele>965.20001220703</ele>
        <time>2019-08-11T12:18:38.000Z</time>
      </trkpt>
      <trkpt lat="45.18687" lon="5.61312">
        <ele>966</ele>
        <time>2019-08-11T12:18:41.000Z</time>
      </trkpt>
      <trkpt lat="45.18689" lon="5.61309">
        <ele>966.59997558594</ele>
        <time>2019-08-11T12:18:45.000Z</time>
      </trkpt>
      <trkpt lat="45.18689" lon="5.61308">
        <ele>966.40002441406</ele>
        <time>2019-08-11T12:18:55.000Z</time>
      </trkpt>
      <trkpt lat="45.18692" lon="5.61306">
        <ele>966.20001220703</ele>
        <time>2019-08-11T12:18:59.000Z</time>
      </trkpt>
      <trkpt lat="45.18695" lon="5.61305">
        <ele>966.20001220703</ele>
        <time>2019-08-11T12:19:01.000Z</time>
      </trkpt>
      <trkpt lat="45.18702" lon="5.61305">
        <ele>965.20001220703</ele>
        <time>2019-08-11T12:19:04.000Z</time>
      </trkpt>
      <trkpt lat="45.18709" lon="5.61307">
        <ele>964.59997558594</ele>
        <time>2019-08-11T12:19:06.000Z</time>
      </trkpt>
      <trkpt lat="45.18717" lon="5.61309">
        <ele>964.20001220703</ele>
        <time>2019-08-11T12:19:08.000Z</time>
      </trkpt>
      <trkpt lat="45.18725" lon="5.61309">
        <ele>964</ele>
        <time>2019-08-11T12:19:10.000Z</time>
      </trkpt>
      <trkpt lat="45.18741" lon="5.61305">
        <ele>963.40002441406</ele>
        <time>2019-08-11T12:19:14.000Z</time>
      </trkpt>
      <trkpt lat="45.18745" lon="5.61303">
        <ele>963.40002441406</ele>
        <time>2019-08-11T12:19:15.000Z</time>
      </trkpt>
      <trkpt lat="45.18758" lon="5.61293">
        <ele>963</ele>
        <time>2019-08-11T12:19:18.000Z</time>
      </trkpt>
      <trkpt lat="45.1877" lon="5.6129">
        <ele>962.40002441406</ele>
        <time>2019-08-11T12:19:21.000Z</time>
      </trkpt>
      <trkpt lat="45.18772" lon="5.61291">
        <ele>962.20001220703</ele>
        <time>2019-08-11T12:19:22.000Z</time>
      </trkpt>
      <trkpt lat="45.18778" lon="5.61294">
        <ele>962.79998779297</ele>
        <time>2019-08-11T12:19:25.000Z</time>
      </trkpt>
      <trkpt lat="45.1878" lon="5.61295">
        <ele>963</ele>
        <time>2019-08-11T12:19:26.000Z</time>
      </trkpt>
      <trkpt lat="45.18782" lon="5.61297">
        <ele>963.20001220703</ele>
        <time>2019-08-11T12:19:27.000Z</time>
      </trkpt>
      <trkpt lat="45.18786" lon="5.61307">
        <ele>963.40002441406</ele>
        <time>2019-08-11T12:19:30.000Z</time>
      </trkpt>
      <trkpt lat="45.18788" lon="5.61319">
        <ele>962</ele>
        <time>2019-08-11T12:19:33.000Z</time>
      </trkpt>
      <trkpt lat="45.18789" lon="5.61321">
        <ele>961</ele>
        <time>2019-08-11T12:19:34.000Z</time>
      </trkpt>
      <trkpt lat="45.1879" lon="5.61323">
        <ele>960.40002441406</ele>
        <time>2019-08-11T12:19:35.000Z</time>
      </trkpt>
      <trkpt lat="45.18792" lon="5.61332">
        <ele>959</ele>
        <time>2019-08-11T12:19:38.000Z</time>
      </trkpt>
      <trkpt lat="45.18794" lon="5.61339">
        <ele>957.79998779297</ele>
        <time>2019-08-11T12:19:40.000Z</time>
      </trkpt>
      <trkpt lat="45.18796" lon="5.61347">
        <ele>956.79998779297</ele>
        <time>2019-08-11T12:19:42.000Z</time>
      </trkpt>
      <trkpt lat="45.18797" lon="5.61351">
        <ele>955.59997558594</ele>
        <time>2019-08-11T12:19:44.000Z</time>
      </trkpt>
      <trkpt lat="45.18797" lon="5.61352">
        <ele>954.40002441406</ele>
        <time>2019-08-11T12:19:46.000Z</time>
      </trkpt>
      <trkpt lat="45.18799" lon="5.61357">
        <ele>953.40002441406</ele>
        <time>2019-08-11T12:19:53.000Z</time>
      </trkpt>
      <trkpt lat="45.188" lon="5.61359">
        <ele>953.20001220703</ele>
        <time>2019-08-11T12:19:55.000Z</time>
      </trkpt>
      <trkpt lat="45.18802" lon="5.61364">
        <ele>952.40002441406</ele>
        <time>2019-08-11T12:19:59.000Z</time>
      </trkpt>
      <trkpt lat="45.18803" lon="5.61367">
        <ele>952.40002441406</ele>
        <time>2019-08-11T12:20:00.000Z</time>
      </trkpt>
      <trkpt lat="45.18803" lon="5.61372">
        <ele>951.79998779297</ele>
        <time>2019-08-11T12:20:02.000Z</time>
      </trkpt>
      <trkpt lat="45.18803" lon="5.61382">
        <ele>950.79998779297</ele>
        <time>2019-08-11T12:20:05.000Z</time>
      </trkpt>
      <trkpt lat="45.18802" lon="5.61389">
        <ele>949.59997558594</ele>
        <time>2019-08-11T12:20:07.000Z</time>
      </trkpt>
      <trkpt lat="45.188" lon="5.61396">
        <ele>948.59997558594</ele>
        <time>2019-08-11T12:20:09.000Z</time>
      </trkpt>
      <trkpt lat="45.18798" lon="5.61402">
        <ele>947</ele>
        <time>2019-08-11T12:20:11.000Z</time>
      </trkpt>
      <trkpt lat="45.18797" lon="5.61408">
        <ele>945.59997558594</ele>
        <time>2019-08-11T12:20:13.000Z</time>
      </trkpt>
      <trkpt lat="45.18797" lon="5.61417">
        <ele>944.20001220703</ele>
        <time>2019-08-11T12:20:16.000Z</time>
      </trkpt>
      <trkpt lat="45.18798" lon="5.61419">
        <ele>943.40002441406</ele>
        <time>2019-08-11T12:20:17.000Z</time>
      </trkpt>
      <trkpt lat="45.18799" lon="5.61422">
        <ele>942.59997558594</ele>
        <time>2019-08-11T12:20:18.000Z</time>
      </trkpt>
      <trkpt lat="45.18804" lon="5.61429">
        <ele>941.59997558594</ele>
        <time>2019-08-11T12:20:21.000Z</time>
      </trkpt>
      <trkpt lat="45.18806" lon="5.61436">
        <ele>940.20001220703</ele>
        <time>2019-08-11T12:20:24.000Z</time>
      </trkpt>
      <trkpt lat="45.18809" lon="5.61443">
        <ele>939.59997558594</ele>
        <time>2019-08-11T12:20:26.000Z</time>
      </trkpt>
      <trkpt lat="45.18812" lon="5.61452">
        <ele>939</ele>
        <time>2019-08-11T12:20:28.000Z</time>
      </trkpt>
      <trkpt lat="45.18816" lon="5.61464">
        <ele>938.20001220703</ele>
        <time>2019-08-11T12:20:31.000Z</time>
      </trkpt>
      <trkpt lat="45.18817" lon="5.61467">
        <ele>938.20001220703</ele>
        <time>2019-08-11T12:20:32.000Z</time>
      </trkpt>
      <trkpt lat="45.18817" lon="5.61473">
        <ele>937.79998779297</ele>
        <time>2019-08-11T12:20:34.000Z</time>
      </trkpt>
      <trkpt lat="45.18816" lon="5.61477">
        <ele>937.40002441406</ele>
        <time>2019-08-11T12:20:35.000Z</time>
      </trkpt>
      <trkpt lat="45.18814" lon="5.61482">
        <ele>937</ele>
        <time>2019-08-11T12:20:36.000Z</time>
      </trkpt>
      <trkpt lat="45.18812" lon="5.61489">
        <ele>936</ele>
        <time>2019-08-11T12:20:39.000Z</time>
      </trkpt>
      <trkpt lat="45.18811" lon="5.61502">
        <ele>934.59997558594</ele>
        <time>2019-08-11T12:20:42.000Z</time>
      </trkpt>
      <trkpt lat="45.18812" lon="5.61507">
        <ele>933.40002441406</ele>
        <time>2019-08-11T12:20:44.000Z</time>
      </trkpt>
      <trkpt lat="45.18812" lon="5.61507">
        <ele>933</ele>
        <time>2019-08-11T12:20:45.000Z</time>
      </trkpt>
      <trkpt lat="45.18811" lon="5.61508">
        <ele>932.59997558594</ele>
        <time>2019-08-11T12:20:46.000Z</time>
      </trkpt>
      <trkpt lat="45.18811" lon="5.61512">
        <ele>931.59997558594</ele>
        <time>2019-08-11T12:20:51.000Z</time>
      </trkpt>
      <trkpt lat="45.18811" lon="5.61512">
        <ele>931.40002441406</ele>
        <time>2019-08-11T12:20:52.000Z</time>
      </trkpt>
      <trkpt lat="45.18811" lon="5.61512">
        <ele>931</ele>
        <time>2019-08-11T12:21:06.000Z</time>
      </trkpt>
      <trkpt lat="45.18811" lon="5.61513">
        <ele>930.79998779297</ele>
        <time>2019-08-11T12:21:21.000Z</time>
      </trkpt>
      <trkpt lat="45.18812" lon="5.61513">
        <ele>930.79998779297</ele>
        <time>2019-08-11T12:21:24.000Z</time>
      </trkpt>
      <trkpt lat="45.18812" lon="5.61513">
        <ele>931</ele>
        <time>2019-08-11T12:21:30.000Z</time>
      </trkpt>
      <trkpt lat="45.1881" lon="5.61512">
        <ele>930.79998779297</ele>
        <time>2019-08-11T12:21:39.000Z</time>
      </trkpt>
      <trkpt lat="45.18803" lon="5.61518">
        <ele>930.20001220703</ele>
        <time>2019-08-11T12:21:43.000Z</time>
      </trkpt>
      <trkpt lat="45.18802" lon="5.61521">
        <ele>930</ele>
        <time>2019-08-11T12:21:44.000Z</time>
      </trkpt>
      <trkpt lat="45.188" lon="5.61523">
        <ele>929.59997558594</ele>
        <time>2019-08-11T12:21:45.000Z</time>
      </trkpt>
      <trkpt lat="45.18795" lon="5.61533">
        <ele>928</ele>
        <time>2019-08-11T12:21:48.000Z</time>
      </trkpt>
      <trkpt lat="45.18793" lon="5.61536">
        <ele>927.40002441406</ele>
        <time>2019-08-11T12:21:49.000Z</time>
      </trkpt>
      <trkpt lat="45.18792" lon="5.61538">
        <ele>927</ele>
        <time>2019-08-11T12:21:50.000Z</time>
      </trkpt>
      <trkpt lat="45.18791" lon="5.61544">
        <ele>926</ele>
        <time>2019-08-11T12:21:52.000Z</time>
      </trkpt>
      <trkpt lat="45.18792" lon="5.61547">
        <ele>925.79998779297</ele>
        <time>2019-08-11T12:21:53.000Z</time>
      </trkpt>
      <trkpt lat="45.18797" lon="5.61558">
        <ele>924.59997558594</ele>
        <time>2019-08-11T12:21:56.000Z</time>
      </trkpt>
      <trkpt lat="45.18799" lon="5.61562">
        <ele>924</ele>
        <time>2019-08-11T12:21:57.000Z</time>
      </trkpt>
      <trkpt lat="45.18798" lon="5.61572">
        <ele>923.20001220703</ele>
        <time>2019-08-11T12:21:59.000Z</time>
      </trkpt>
      <trkpt lat="45.18797" lon="5.61576">
        <ele>922.40002441406</ele>
        <time>2019-08-11T12:22:00.000Z</time>
      </trkpt>
      <trkpt lat="45.18797" lon="5.6158">
        <ele>921.79998779297</ele>
        <time>2019-08-11T12:22:01.000Z</time>
      </trkpt>
      <trkpt lat="45.18798" lon="5.61582">
        <ele>920.59997558594</ele>
        <time>2019-08-11T12:22:02.000Z</time>
      </trkpt>
      <trkpt lat="45.18796" lon="5.61581">
        <ele>920</ele>
        <time>2019-08-11T12:22:03.000Z</time>
      </trkpt>
      <trkpt lat="45.18794" lon="5.6158">
        <ele>919.20001220703</ele>
        <time>2019-08-11T12:22:04.000Z</time>
      </trkpt>
      <trkpt lat="45.18788" lon="5.61578">
        <ele>918</ele>
        <time>2019-08-11T12:22:06.000Z</time>
      </trkpt>
      <trkpt lat="45.18786" lon="5.61577">
        <ele>917.79998779297</ele>
        <time>2019-08-11T12:22:07.000Z</time>
      </trkpt>
      <trkpt lat="45.18781" lon="5.61574">
        <ele>917</ele>
        <time>2019-08-11T12:22:09.000Z</time>
      </trkpt>
      <trkpt lat="45.18775" lon="5.61575">
        <ele>916.20001220703</ele>
        <time>2019-08-11T12:22:11.000Z</time>
      </trkpt>
      <trkpt lat="45.18775" lon="5.61577">
        <ele>915.79998779297</ele>
        <time>2019-08-11T12:22:12.000Z</time>
      </trkpt>
      <trkpt lat="45.18776" lon="5.61581">
        <ele>915.20001220703</ele>
        <time>2019-08-11T12:22:15.000Z</time>
      </trkpt>
      <trkpt lat="45.18778" lon="5.61585">
        <ele>915</ele>
        <time>2019-08-11T12:22:18.000Z</time>
      </trkpt>
      <trkpt lat="45.18779" lon="5.61588">
        <ele>915</ele>
        <time>2019-08-11T12:22:20.000Z</time>
      </trkpt>
      <trkpt lat="45.18781" lon="5.61597">
        <ele>914.79998779297</ele>
        <time>2019-08-11T12:22:24.000Z</time>
      </trkpt>
      <trkpt lat="45.1878" lon="5.616">
        <ele>914.79998779297</ele>
        <time>2019-08-11T12:22:25.000Z</time>
      </trkpt>
      <trkpt lat="45.1878" lon="5.61616">
        <ele>914.79998779297</ele>
        <time>2019-08-11T12:22:30.000Z</time>
      </trkpt>
      <trkpt lat="45.18787" lon="5.61637">
        <ele>914.79998779297</ele>
        <time>2019-08-11T12:22:37.000Z</time>
      </trkpt>
      <trkpt lat="45.18788" lon="5.6164">
        <ele>914.79998779297</ele>
        <time>2019-08-11T12:22:38.000Z</time>
      </trkpt>
      <trkpt lat="45.18788" lon="5.61647">
        <ele>914.79998779297</ele>
        <time>2019-08-11T12:22:41.000Z</time>
      </trkpt>
      <trkpt lat="45.18789" lon="5.61652">
        <ele>915</ele>
        <time>2019-08-11T12:22:43.000Z</time>
      </trkpt>
      <trkpt lat="45.1879" lon="5.61657">
        <ele>915.20001220703</ele>
        <time>2019-08-11T12:22:45.000Z</time>
      </trkpt>
      <trkpt lat="45.18791" lon="5.61662">
        <ele>915.20001220703</ele>
        <time>2019-08-11T12:22:47.000Z</time>
      </trkpt>
      <trkpt lat="45.18791" lon="5.61665">
        <ele>915.20001220703</ele>
        <time>2019-08-11T12:22:48.000Z</time>
      </trkpt>
      <trkpt lat="45.1879" lon="5.61668">
        <ele>915.20001220703</ele>
        <time>2019-08-11T12:22:50.000Z</time>
      </trkpt>
      <trkpt lat="45.1879" lon="5.6167">
        <ele>915</ele>
        <time>2019-08-11T12:22:56.000Z</time>
      </trkpt>
      <trkpt lat="45.18791" lon="5.61676">
        <ele>915.20001220703</ele>
        <time>2019-08-11T12:23:01.000Z</time>
      </trkpt>
      <trkpt lat="45.18791" lon="5.61677">
        <ele>915.20001220703</ele>
        <time>2019-08-11T12:23:03.000Z</time>
      </trkpt>
      <trkpt lat="45.18792" lon="5.61681">
        <ele>915.20001220703</ele>
        <time>2019-08-11T12:23:10.000Z</time>
      </trkpt>
      <trkpt lat="45.18793" lon="5.61681">
        <ele>915.20001220703</ele>
        <time>2019-08-11T12:23:21.000Z</time>
      </trkpt>
      <trkpt lat="45.18794" lon="5.61684">
        <ele>915.59997558594</ele>
        <time>2019-08-11T12:23:40.000Z</time>
      </trkpt>
      <trkpt lat="45.18795" lon="5.61691">
        <ele>915.59997558594</ele>
        <time>2019-08-11T12:23:43.000Z</time>
      </trkpt>
      <trkpt lat="45.18798" lon="5.61697">
        <ele>915.59997558594</ele>
        <time>2019-08-11T12:23:45.000Z</time>
      </trkpt>
      <trkpt lat="45.18802" lon="5.61716">
        <ele>915.79998779297</ele>
        <time>2019-08-11T12:23:51.000Z</time>
      </trkpt>
      <trkpt lat="45.18805" lon="5.61737">
        <ele>916.20001220703</ele>
        <time>2019-08-11T12:23:57.000Z</time>
      </trkpt>
      <trkpt lat="45.1881" lon="5.61766">
        <ele>916.59997558594</ele>
        <time>2019-08-11T12:24:04.000Z</time>
      </trkpt>
      <trkpt lat="45.18813" lon="5.61792">
        <ele>917</ele>
        <time>2019-08-11T12:24:10.000Z</time>
      </trkpt>
      <trkpt lat="45.18814" lon="5.61803">
        <ele>917.40002441406</ele>
        <time>2019-08-11T12:24:13.000Z</time>
      </trkpt>
      <trkpt lat="45.18816" lon="5.61814">
        <ele>917.59997558594</ele>
        <time>2019-08-11T12:24:16.000Z</time>
      </trkpt>
      <trkpt lat="45.18821" lon="5.61837">
        <ele>918.59997558594</ele>
        <time>2019-08-11T12:24:23.000Z</time>
      </trkpt>
      <trkpt lat="45.18821" lon="5.6184">
        <ele>918.59997558594</ele>
        <time>2019-08-11T12:24:24.000Z</time>
      </trkpt>
      <trkpt lat="45.18822" lon="5.61847">
        <ele>918.79998779297</ele>
        <time>2019-08-11T12:24:26.000Z</time>
      </trkpt>
      <trkpt lat="45.18826" lon="5.61865">
        <ele>919</ele>
        <time>2019-08-11T12:24:31.000Z</time>
      </trkpt>
      <trkpt lat="45.18829" lon="5.6188">
        <ele>918.79998779297</ele>
        <time>2019-08-11T12:24:34.000Z</time>
      </trkpt>
      <trkpt lat="45.18831" lon="5.61886">
        <ele>918.59997558594</ele>
        <time>2019-08-11T12:24:35.000Z</time>
      </trkpt>
      <trkpt lat="45.18835" lon="5.61901">
        <ele>918</ele>
        <time>2019-08-11T12:24:37.000Z</time>
      </trkpt>
      <trkpt lat="45.18838" lon="5.61908">
        <ele>917.59997558594</ele>
        <time>2019-08-11T12:24:38.000Z</time>
      </trkpt>
      <trkpt lat="45.18841" lon="5.61914">
        <ele>917.20001220703</ele>
        <time>2019-08-11T12:24:39.000Z</time>
      </trkpt>
      <trkpt lat="45.18848" lon="5.61925">
        <ele>916.40002441406</ele>
        <time>2019-08-11T12:24:41.000Z</time>
      </trkpt>
      <trkpt lat="45.18858" lon="5.61938">
        <ele>915</ele>
        <time>2019-08-11T12:24:44.000Z</time>
      </trkpt>
      <trkpt lat="45.18871" lon="5.61952">
        <ele>914.20001220703</ele>
        <time>2019-08-11T12:24:47.000Z</time>
      </trkpt>
      <trkpt lat="45.18875" lon="5.61956">
        <ele>913.79998779297</ele>
        <time>2019-08-11T12:24:48.000Z</time>
      </trkpt>
      <trkpt lat="45.18881" lon="5.6196">
        <ele>913.59997558594</ele>
        <time>2019-08-11T12:24:49.000Z</time>
      </trkpt>
      <trkpt lat="45.18887" lon="5.61965">
        <ele>913</ele>
        <time>2019-08-11T12:24:50.000Z</time>
      </trkpt>
      <trkpt lat="45.18893" lon="5.61968">
        <ele>912.59997558594</ele>
        <time>2019-08-11T12:24:51.000Z</time>
      </trkpt>
      <trkpt lat="45.18906" lon="5.61972">
        <ele>911.79998779297</ele>
        <time>2019-08-11T12:24:53.000Z</time>
      </trkpt>
      <trkpt lat="45.18913" lon="5.61974">
        <ele>911.40002441406</ele>
        <time>2019-08-11T12:24:54.000Z</time>
      </trkpt>
      <trkpt lat="45.18919" lon="5.61975">
        <ele>911.20001220703</ele>
        <time>2019-08-11T12:24:55.000Z</time>
      </trkpt>
      <trkpt lat="45.18932" lon="5.61976">
        <ele>910.59997558594</ele>
        <time>2019-08-11T12:24:57.000Z</time>
      </trkpt>
      <trkpt lat="45.18938" lon="5.61977">
        <ele>910.20001220703</ele>
        <time>2019-08-11T12:24:58.000Z</time>
      </trkpt>
      <trkpt lat="45.18968" lon="5.61975">
        <ele>910</ele>
        <time>2019-08-11T12:25:04.000Z</time>
      </trkpt>
      <trkpt lat="45.18994" lon="5.61969">
        <ele>910.40002441406</ele>
        <time>2019-08-11T12:25:10.000Z</time>
      </trkpt>
      <trkpt lat="45.18998" lon="5.61969">
        <ele>910.59997558594</ele>
        <time>2019-08-11T12:25:11.000Z</time>
      </trkpt>
      <trkpt lat="45.19002" lon="5.61969">
        <ele>910.59997558594</ele>
        <time>2019-08-11T12:25:12.000Z</time>
      </trkpt>
      <trkpt lat="45.19021" lon="5.61965">
        <ele>911.20001220703</ele>
        <time>2019-08-11T12:25:17.000Z</time>
      </trkpt>
      <trkpt lat="45.1903" lon="5.61963">
        <ele>911.40002441406</ele>
        <time>2019-08-11T12:25:22.000Z</time>
      </trkpt>
      <trkpt lat="45.19033" lon="5.61963">
        <ele>911.40002441406</ele>
        <time>2019-08-11T12:25:27.000Z</time>
      </trkpt>
      <trkpt lat="45.19048" lon="5.6196">
        <ele>911.59997558594</ele>
        <time>2019-08-11T12:25:33.000Z</time>
      </trkpt>
      <trkpt lat="45.19076" lon="5.61954">
        <ele>912.20001220703</ele>
        <time>2019-08-11T12:25:42.000Z</time>
      </trkpt>
      <trkpt lat="45.19101" lon="5.61949">
        <ele>913.20001220703</ele>
        <time>2019-08-11T12:25:50.000Z</time>
      </trkpt>
      <trkpt lat="45.19114" lon="5.61948">
        <ele>913.59997558594</ele>
        <time>2019-08-11T12:25:54.000Z</time>
      </trkpt>
      <trkpt lat="45.19123" lon="5.61947">
        <ele>913.79998779297</ele>
        <time>2019-08-11T12:25:57.000Z</time>
      </trkpt>
      <trkpt lat="45.19133" lon="5.61947">
        <ele>914</ele>
        <time>2019-08-11T12:26:00.000Z</time>
      </trkpt>
      <trkpt lat="45.19142" lon="5.61947">
        <ele>914.79998779297</ele>
        <time>2019-08-11T12:26:03.000Z</time>
      </trkpt>
      <trkpt lat="45.19163" lon="5.61948">
        <ele>915.79998779297</ele>
        <time>2019-08-11T12:26:10.000Z</time>
      </trkpt>
      <trkpt lat="45.19166" lon="5.61948">
        <ele>915.79998779297</ele>
        <time>2019-08-11T12:26:11.000Z</time>
      </trkpt>
      <trkpt lat="45.19183" lon="5.61949">
        <ele>916.59997558594</ele>
        <time>2019-08-11T12:26:17.000Z</time>
      </trkpt>
      <trkpt lat="45.19194" lon="5.61949">
        <ele>917.20001220703</ele>
        <time>2019-08-11T12:26:21.000Z</time>
      </trkpt>
      <trkpt lat="45.19204" lon="5.61949">
        <ele>917.40002441406</ele>
        <time>2019-08-11T12:26:25.000Z</time>
      </trkpt>
      <trkpt lat="45.19221" lon="5.61951">
        <ele>918.40002441406</ele>
        <time>2019-08-11T12:26:31.000Z</time>
      </trkpt>
      <trkpt lat="45.19224" lon="5.61952">
        <ele>918.40002441406</ele>
        <time>2019-08-11T12:26:32.000Z</time>
      </trkpt>
      <trkpt lat="45.19237" lon="5.61954">
        <ele>919.59997558594</ele>
        <time>2019-08-11T12:26:37.000Z</time>
      </trkpt>
      <trkpt lat="45.19242" lon="5.61954">
        <ele>919.79998779297</ele>
        <time>2019-08-11T12:26:39.000Z</time>
      </trkpt>
      <trkpt lat="45.19257" lon="5.61951">
        <ele>920.79998779297</ele>
        <time>2019-08-11T12:26:44.000Z</time>
      </trkpt>
      <trkpt lat="45.19262" lon="5.61951">
        <ele>921</ele>
        <time>2019-08-11T12:26:46.000Z</time>
      </trkpt>
      <trkpt lat="45.19275" lon="5.61955">
        <ele>922</ele>
        <time>2019-08-11T12:26:52.000Z</time>
      </trkpt>
      <trkpt lat="45.1929" lon="5.61965">
        <ele>923.20001220703</ele>
        <time>2019-08-11T12:26:58.000Z</time>
      </trkpt>
      <trkpt lat="45.19292" lon="5.61967">
        <ele>923.20001220703</ele>
        <time>2019-08-11T12:26:59.000Z</time>
      </trkpt>
      <trkpt lat="45.19304" lon="5.61973">
        <ele>923.79998779297</ele>
        <time>2019-08-11T12:27:04.000Z</time>
      </trkpt>
      <trkpt lat="45.19313" lon="5.61979">
        <ele>924.20001220703</ele>
        <time>2019-08-11T12:27:08.000Z</time>
      </trkpt>
      <trkpt lat="45.19316" lon="5.61981">
        <ele>924.59997558594</ele>
        <time>2019-08-11T12:27:09.000Z</time>
      </trkpt>
      <trkpt lat="45.19329" lon="5.61994">
        <ele>925.40002441406</ele>
        <time>2019-08-11T12:27:15.000Z</time>
      </trkpt>
      <trkpt lat="45.19333" lon="5.61997">
        <ele>925.79998779297</ele>
        <time>2019-08-11T12:27:17.000Z</time>
      </trkpt>
      <trkpt lat="45.19344" lon="5.62006">
        <ele>926.40002441406</ele>
        <time>2019-08-11T12:27:22.000Z</time>
      </trkpt>
      <trkpt lat="45.19349" lon="5.6201">
        <ele>926.79998779297</ele>
        <time>2019-08-11T12:27:24.000Z</time>
      </trkpt>
      <trkpt lat="45.19358" lon="5.62016">
        <ele>927.59997558594</ele>
        <time>2019-08-11T12:27:28.000Z</time>
      </trkpt>
      <trkpt lat="45.19361" lon="5.62017">
        <ele>928.20001220703</ele>
        <time>2019-08-11T12:27:29.000Z</time>
      </trkpt>
      <trkpt lat="45.19371" lon="5.6202">
        <ele>929.40002441406</ele>
        <time>2019-08-11T12:27:33.000Z</time>
      </trkpt>
      <trkpt lat="45.19376" lon="5.6202">
        <ele>929.79998779297</ele>
        <time>2019-08-11T12:27:35.000Z</time>
      </trkpt>
      <trkpt lat="45.19386" lon="5.62021">
        <ele>930.40002441406</ele>
        <time>2019-08-11T12:27:39.000Z</time>
      </trkpt>
      <trkpt lat="45.19391" lon="5.62021">
        <ele>930.59997558594</ele>
        <time>2019-08-11T12:27:41.000Z</time>
      </trkpt>
      <trkpt lat="45.19398" lon="5.62023">
        <ele>931.59997558594</ele>
        <time>2019-08-11T12:27:44.000Z</time>
      </trkpt>
      <trkpt lat="45.19405" lon="5.62025">
        <ele>932.20001220703</ele>
        <time>2019-08-11T12:27:48.000Z</time>
      </trkpt>
      <trkpt lat="45.19415" lon="5.62031">
        <ele>932.59997558594</ele>
        <time>2019-08-11T12:27:52.000Z</time>
      </trkpt>
      <trkpt lat="45.19427" lon="5.62041">
        <ele>931</ele>
        <time>2019-08-11T12:27:55.000Z</time>
      </trkpt>
      <trkpt lat="45.19432" lon="5.62046">
        <ele>930.20001220703</ele>
        <time>2019-08-11T12:27:56.000Z</time>
      </trkpt>
      <trkpt lat="45.19437" lon="5.62053">
        <ele>929.59997558594</ele>
        <time>2019-08-11T12:27:57.000Z</time>
      </trkpt>
      <trkpt lat="45.19441" lon="5.6206">
        <ele>928.59997558594</ele>
        <time>2019-08-11T12:27:58.000Z</time>
      </trkpt>
      <trkpt lat="45.19445" lon="5.62068">
        <ele>927</ele>
        <time>2019-08-11T12:27:59.000Z</time>
      </trkpt>
      <trkpt lat="45.19448" lon="5.62077">
        <ele>925</ele>
        <time>2019-08-11T12:28:00.000Z</time>
      </trkpt>
      <trkpt lat="45.19452" lon="5.62086">
        <ele>923.40002441406</ele>
        <time>2019-08-11T12:28:01.000Z</time>
      </trkpt>
      <trkpt lat="45.19455" lon="5.62095">
        <ele>922</ele>
        <time>2019-08-11T12:28:02.000Z</time>
      </trkpt>
      <trkpt lat="45.19461" lon="5.6211">
        <ele>920.59997558594</ele>
        <time>2019-08-11T12:28:04.000Z</time>
      </trkpt>
      <trkpt lat="45.19466" lon="5.62115">
        <ele>919.20001220703</ele>
        <time>2019-08-11T12:28:05.000Z</time>
      </trkpt>
      <trkpt lat="45.1947" lon="5.62118">
        <ele>918</ele>
        <time>2019-08-11T12:28:06.000Z</time>
      </trkpt>
      <trkpt lat="45.19475" lon="5.62121">
        <ele>917.20001220703</ele>
        <time>2019-08-11T12:28:07.000Z</time>
      </trkpt>
      <trkpt lat="45.19479" lon="5.62124">
        <ele>916.79998779297</ele>
        <time>2019-08-11T12:28:08.000Z</time>
      </trkpt>
      <trkpt lat="45.1949" lon="5.62131">
        <ele>915.59997558594</ele>
        <time>2019-08-11T12:28:10.000Z</time>
      </trkpt>
      <trkpt lat="45.19495" lon="5.62135">
        <ele>915.40002441406</ele>
        <time>2019-08-11T12:28:11.000Z</time>
      </trkpt>
      <trkpt lat="45.19504" lon="5.62141">
        <ele>914.59997558594</ele>
        <time>2019-08-11T12:28:13.000Z</time>
      </trkpt>
      <trkpt lat="45.19507" lon="5.62143">
        <ele>914</ele>
        <time>2019-08-11T12:28:14.000Z</time>
      </trkpt>
      <trkpt lat="45.19509" lon="5.62143">
        <ele>913.20001220703</ele>
        <time>2019-08-11T12:28:15.000Z</time>
      </trkpt>
      <trkpt lat="45.19517" lon="5.62146">
        <ele>912.59997558594</ele>
        <time>2019-08-11T12:28:18.000Z</time>
      </trkpt>
      <trkpt lat="45.1952" lon="5.62147">
        <ele>912.20001220703</ele>
        <time>2019-08-11T12:28:19.000Z</time>
      </trkpt>
      <trkpt lat="45.19532" lon="5.62152">
        <ele>910.79998779297</ele>
        <time>2019-08-11T12:28:22.000Z</time>
      </trkpt>
      <trkpt lat="45.19542" lon="5.62155">
        <ele>909.59997558594</ele>
        <time>2019-08-11T12:28:24.000Z</time>
      </trkpt>
      <trkpt lat="45.1955" lon="5.62162">
        <ele>907</ele>
        <time>2019-08-11T12:28:26.000Z</time>
      </trkpt>
      <trkpt lat="45.19555" lon="5.62166">
        <ele>905.79998779297</ele>
        <time>2019-08-11T12:28:27.000Z</time>
      </trkpt>
      <trkpt lat="45.19559" lon="5.62172">
        <ele>904.79998779297</ele>
        <time>2019-08-11T12:28:28.000Z</time>
      </trkpt>
      <trkpt lat="45.19564" lon="5.62178">
        <ele>903</ele>
        <time>2019-08-11T12:28:29.000Z</time>
      </trkpt>
      <trkpt lat="45.19569" lon="5.62184">
        <ele>901.40002441406</ele>
        <time>2019-08-11T12:28:30.000Z</time>
      </trkpt>
      <trkpt lat="45.19573" lon="5.62192">
        <ele>900</ele>
        <time>2019-08-11T12:28:31.000Z</time>
      </trkpt>
      <trkpt lat="45.19576" lon="5.62199">
        <ele>898</ele>
        <time>2019-08-11T12:28:32.000Z</time>
      </trkpt>
      <trkpt lat="45.1958" lon="5.62209">
        <ele>896.59997558594</ele>
        <time>2019-08-11T12:28:33.000Z</time>
      </trkpt>
      <trkpt lat="45.19583" lon="5.62218">
        <ele>894.20001220703</ele>
        <time>2019-08-11T12:28:34.000Z</time>
      </trkpt>
      <trkpt lat="45.19588" lon="5.62225">
        <ele>892</ele>
        <time>2019-08-11T12:28:35.000Z</time>
      </trkpt>
      <trkpt lat="45.19593" lon="5.6223">
        <ele>890.79998779297</ele>
        <time>2019-08-11T12:28:36.000Z</time>
      </trkpt>
      <trkpt lat="45.19599" lon="5.62235">
        <ele>889.40002441406</ele>
        <time>2019-08-11T12:28:37.000Z</time>
      </trkpt>
      <trkpt lat="45.19613" lon="5.62243">
        <ele>887.79998779297</ele>
        <time>2019-08-11T12:28:39.000Z</time>
      </trkpt>
      <trkpt lat="45.19631" lon="5.62251">
        <ele>886</ele>
        <time>2019-08-11T12:28:41.000Z</time>
      </trkpt>
      <trkpt lat="45.1964" lon="5.62254">
        <ele>884.40002441406</ele>
        <time>2019-08-11T12:28:42.000Z</time>
      </trkpt>
      <trkpt lat="45.19648" lon="5.62257">
        <ele>882.79998779297</ele>
        <time>2019-08-11T12:28:43.000Z</time>
      </trkpt>
      <trkpt lat="45.19654" lon="5.62261">
        <ele>881.79998779297</ele>
        <time>2019-08-11T12:28:44.000Z</time>
      </trkpt>
      <trkpt lat="45.1966" lon="5.62265">
        <ele>880.40002441406</ele>
        <time>2019-08-11T12:28:45.000Z</time>
      </trkpt>
      <trkpt lat="45.19666" lon="5.6227">
        <ele>879.20001220703</ele>
        <time>2019-08-11T12:28:46.000Z</time>
      </trkpt>
      <trkpt lat="45.19671" lon="5.62276">
        <ele>877.79998779297</ele>
        <time>2019-08-11T12:28:47.000Z</time>
      </trkpt>
      <trkpt lat="45.19675" lon="5.62283">
        <ele>876.20001220703</ele>
        <time>2019-08-11T12:28:48.000Z</time>
      </trkpt>
      <trkpt lat="45.19678" lon="5.62289">
        <ele>874.59997558594</ele>
        <time>2019-08-11T12:28:49.000Z</time>
      </trkpt>
      <trkpt lat="45.19681" lon="5.62298">
        <ele>872.40002441406</ele>
        <time>2019-08-11T12:28:50.000Z</time>
      </trkpt>
      <trkpt lat="45.19685" lon="5.62306">
        <ele>870.59997558594</ele>
        <time>2019-08-11T12:28:51.000Z</time>
      </trkpt>
      <trkpt lat="45.19689" lon="5.62313">
        <ele>869.59997558594</ele>
        <time>2019-08-11T12:28:52.000Z</time>
      </trkpt>
      <trkpt lat="45.19699" lon="5.62323">
        <ele>867.59997558594</ele>
        <time>2019-08-11T12:28:54.000Z</time>
      </trkpt>
      <trkpt lat="45.19706" lon="5.62327">
        <ele>865.79998779297</ele>
        <time>2019-08-11T12:28:55.000Z</time>
      </trkpt>
      <trkpt lat="45.19712" lon="5.62331">
        <ele>864.20001220703</ele>
        <time>2019-08-11T12:28:56.000Z</time>
      </trkpt>
      <trkpt lat="45.19717" lon="5.62337">
        <ele>863.20001220703</ele>
        <time>2019-08-11T12:28:57.000Z</time>
      </trkpt>
      <trkpt lat="45.19723" lon="5.62343">
        <ele>861.59997558594</ele>
        <time>2019-08-11T12:28:58.000Z</time>
      </trkpt>
      <trkpt lat="45.19729" lon="5.62348">
        <ele>860.40002441406</ele>
        <time>2019-08-11T12:28:59.000Z</time>
      </trkpt>
      <trkpt lat="45.19735" lon="5.62353">
        <ele>859.20001220703</ele>
        <time>2019-08-11T12:29:00.000Z</time>
      </trkpt>
      <trkpt lat="45.1974" lon="5.62359">
        <ele>857.79998779297</ele>
        <time>2019-08-11T12:29:01.000Z</time>
      </trkpt>
      <trkpt lat="45.19746" lon="5.62365">
        <ele>856.79998779297</ele>
        <time>2019-08-11T12:29:02.000Z</time>
      </trkpt>
      <trkpt lat="45.19752" lon="5.62373">
        <ele>855.79998779297</ele>
        <time>2019-08-11T12:29:03.000Z</time>
      </trkpt>
      <trkpt lat="45.19757" lon="5.6238">
        <ele>855</ele>
        <time>2019-08-11T12:29:04.000Z</time>
      </trkpt>
      <trkpt lat="45.19762" lon="5.62387">
        <ele>853.40002441406</ele>
        <time>2019-08-11T12:29:05.000Z</time>
      </trkpt>
      <trkpt lat="45.19767" lon="5.62393">
        <ele>851</ele>
        <time>2019-08-11T12:29:06.000Z</time>
      </trkpt>
      <trkpt lat="45.19771" lon="5.62398">
        <ele>849.79998779297</ele>
        <time>2019-08-11T12:29:07.000Z</time>
      </trkpt>
      <trkpt lat="45.19781" lon="5.62406">
        <ele>847.59997558594</ele>
        <time>2019-08-11T12:29:09.000Z</time>
      </trkpt>
      <trkpt lat="45.19787" lon="5.62409">
        <ele>846</ele>
        <time>2019-08-11T12:29:10.000Z</time>
      </trkpt>
      <trkpt lat="45.19793" lon="5.62411">
        <ele>844.59997558594</ele>
        <time>2019-08-11T12:29:11.000Z</time>
      </trkpt>
      <trkpt lat="45.198" lon="5.62413">
        <ele>843.20001220703</ele>
        <time>2019-08-11T12:29:12.000Z</time>
      </trkpt>
      <trkpt lat="45.19806" lon="5.62417">
        <ele>842.59997558594</ele>
        <time>2019-08-11T12:29:13.000Z</time>
      </trkpt>
      <trkpt lat="45.19811" lon="5.62421">
        <ele>841.59997558594</ele>
        <time>2019-08-11T12:29:14.000Z</time>
      </trkpt>
      <trkpt lat="45.19824" lon="5.62429">
        <ele>840.20001220703</ele>
        <time>2019-08-11T12:29:16.000Z</time>
      </trkpt>
      <trkpt lat="45.1983" lon="5.62432">
        <ele>839.40002441406</ele>
        <time>2019-08-11T12:29:17.000Z</time>
      </trkpt>
      <trkpt lat="45.19835" lon="5.62437">
        <ele>838.59997558594</ele>
        <time>2019-08-11T12:29:18.000Z</time>
      </trkpt>
      <trkpt lat="45.19845" lon="5.62446">
        <ele>837</ele>
        <time>2019-08-11T12:29:20.000Z</time>
      </trkpt>
      <trkpt lat="45.19856" lon="5.62455">
        <ele>834.59997558594</ele>
        <time>2019-08-11T12:29:22.000Z</time>
      </trkpt>
      <trkpt lat="45.19865" lon="5.62461">
        <ele>831.79998779297</ele>
        <time>2019-08-11T12:29:24.000Z</time>
      </trkpt>
      <trkpt lat="45.1987" lon="5.62465">
        <ele>830.20001220703</ele>
        <time>2019-08-11T12:29:25.000Z</time>
      </trkpt>
      <trkpt lat="45.19875" lon="5.62469">
        <ele>828.79998779297</ele>
        <time>2019-08-11T12:29:26.000Z</time>
      </trkpt>
      <trkpt lat="45.19883" lon="5.62478">
        <ele>827.20001220703</ele>
        <time>2019-08-11T12:29:28.000Z</time>
      </trkpt>
      <trkpt lat="45.19889" lon="5.62483">
        <ele>826.20001220703</ele>
        <time>2019-08-11T12:29:29.000Z</time>
      </trkpt>
      <trkpt lat="45.19895" lon="5.62489">
        <ele>823.79998779297</ele>
        <time>2019-08-11T12:29:30.000Z</time>
      </trkpt>
      <trkpt lat="45.19901" lon="5.62493">
        <ele>822.20001220703</ele>
        <time>2019-08-11T12:29:31.000Z</time>
      </trkpt>
      <trkpt lat="45.19906" lon="5.62497">
        <ele>820.79998779297</ele>
        <time>2019-08-11T12:29:32.000Z</time>
      </trkpt>
      <trkpt lat="45.19909" lon="5.62501">
        <ele>819.59997558594</ele>
        <time>2019-08-11T12:29:33.000Z</time>
      </trkpt>
      <trkpt lat="45.19911" lon="5.62504">
        <ele>818.59997558594</ele>
        <time>2019-08-11T12:29:34.000Z</time>
      </trkpt>
      <trkpt lat="45.19911" lon="5.62504">
        <ele>817.59997558594</ele>
        <time>2019-08-11T12:29:37.000Z</time>
      </trkpt>
      <trkpt lat="45.19912" lon="5.62506">
        <ele>817.40002441406</ele>
        <time>2019-08-11T12:29:43.000Z</time>
      </trkpt>
      <trkpt lat="45.19913" lon="5.62506">
        <ele>817.20001220703</ele>
        <time>2019-08-11T12:29:49.000Z</time>
      </trkpt>
      <trkpt lat="45.1991" lon="5.62505">
        <ele>817</ele>
        <time>2019-08-11T12:30:04.000Z</time>
      </trkpt>
      <trkpt lat="45.1991" lon="5.62505">
        <ele>817.20001220703</ele>
        <time>2019-08-11T12:30:13.000Z</time>
      </trkpt>
      <trkpt lat="45.1991" lon="5.62504">
        <ele>817</ele>
        <time>2019-08-11T12:30:20.000Z</time>
      </trkpt>
      <trkpt lat="45.1991" lon="5.62504">
        <ele>817</ele>
        <time>2019-08-11T12:30:39.000Z</time>
      </trkpt>
      <trkpt lat="45.1991" lon="5.62505">
        <ele>817</ele>
        <time>2019-08-11T12:31:00.000Z</time>
      </trkpt>
      <trkpt lat="45.19911" lon="5.62506">
        <ele>817.20001220703</ele>
        <time>2019-08-11T12:31:12.000Z</time>
      </trkpt>
      <trkpt lat="45.19912" lon="5.62507">
        <ele>817.20001220703</ele>
        <time>2019-08-11T12:31:17.000Z</time>
      </trkpt>
      <trkpt lat="45.19912" lon="5.62508">
        <ele>817.20001220703</ele>
        <time>2019-08-11T12:31:23.000Z</time>
      </trkpt>
      <trkpt lat="45.19913" lon="5.62508">
        <ele>817</ele>
        <time>2019-08-11T12:31:28.000Z</time>
      </trkpt>
      <trkpt lat="45.19913" lon="5.62508">
        <ele>817.20001220703</ele>
        <time>2019-08-11T12:31:39.000Z</time>
      </trkpt>
      <trkpt lat="45.19914" lon="5.62509">
        <ele>817.40002441406</ele>
        <time>2019-08-11T12:31:58.000Z</time>
      </trkpt>
      <trkpt lat="45.19915" lon="5.62509">
        <ele>817.59997558594</ele>
        <time>2019-08-11T12:32:09.000Z</time>
      </trkpt>
      <trkpt lat="45.19915" lon="5.6251">
        <ele>817.79998779297</ele>
        <time>2019-08-11T12:32:24.000Z</time>
      </trkpt>
      <trkpt lat="45.19915" lon="5.62511">
        <ele>817.79998779297</ele>
        <time>2019-08-11T12:32:41.000Z</time>
      </trkpt>
      <trkpt lat="45.19915" lon="5.62511">
        <ele>817.59997558594</ele>
        <time>2019-08-11T12:32:59.000Z</time>
      </trkpt>
      <trkpt lat="45.19915" lon="5.62511">
        <ele>817.79998779297</ele>
        <time>2019-08-11T12:33:03.000Z</time>
      </trkpt>
      <trkpt lat="45.19915" lon="5.62511">
        <ele>817.40002441406</ele>
        <time>2019-08-11T12:33:44.000Z</time>
      </trkpt>
      <trkpt lat="45.19915" lon="5.62511">
        <ele>817.20001220703</ele>
        <time>2019-08-11T12:33:56.000Z</time>
      </trkpt>
      <trkpt lat="45.19915" lon="5.6251">
        <ele>816.79998779297</ele>
        <time>2019-08-11T12:34:11.000Z</time>
      </trkpt>
      <trkpt lat="45.19915" lon="5.6251">
        <ele>816.79998779297</ele>
        <time>2019-08-11T12:34:35.000Z</time>
      </trkpt>
      <trkpt lat="45.19915" lon="5.6251">
        <ele>816.40002441406</ele>
        <time>2019-08-11T12:34:50.000Z</time>
      </trkpt>
      <trkpt lat="45.19915" lon="5.6251">
        <ele>816.40002441406</ele>
        <time>2019-08-11T12:35:28.000Z</time>
      </trkpt>
      <trkpt lat="45.19916" lon="5.62509">
        <ele>816.20001220703</ele>
        <time>2019-08-11T12:35:44.000Z</time>
      </trkpt>
      <trkpt lat="45.19916" lon="5.62509">
        <ele>816.20001220703</ele>
        <time>2019-08-11T12:35:45.000Z</time>
      </trkpt>
      <trkpt lat="45.19916" lon="5.62509">
        <ele>816.20001220703</ele>
        <time>2019-08-11T12:35:55.000Z</time>
      </trkpt>
      <trkpt lat="45.19916" lon="5.6251">
        <ele>816.59997558594</ele>
        <time>2019-08-11T12:36:31.000Z</time>
      </trkpt>
      <trkpt lat="45.19916" lon="5.6251">
        <ele>816.79998779297</ele>
        <time>2019-08-11T12:37:36.000Z</time>
      </trkpt>
      <trkpt lat="45.19916" lon="5.6251">
        <ele>816.40002441406</ele>
        <time>2019-08-11T12:38:15.000Z</time>
      </trkpt>
      <trkpt lat="45.19916" lon="5.6251">
        <ele>816.79998779297</ele>
        <time>2019-08-11T12:38:58.000Z</time>
      </trkpt>
      <trkpt lat="45.19916" lon="5.6251">
        <ele>816.59997558594</ele>
        <time>2019-08-11T12:39:07.000Z</time>
      </trkpt>
      <trkpt lat="45.19916" lon="5.6251">
        <ele>816.59997558594</ele>
        <time>2019-08-11T12:39:41.000Z</time>
      </trkpt>
      <trkpt lat="45.19916" lon="5.6251">
        <ele>816.40002441406</ele>
        <time>2019-08-11T12:39:59.000Z</time>
      </trkpt>
      <trkpt lat="45.19916" lon="5.6251">
        <ele>816.40002441406</ele>
        <time>2019-08-11T12:40:33.000Z</time>
      </trkpt>
      <trkpt lat="45.19915" lon="5.62509">
        <ele>816.40002441406</ele>
        <time>2019-08-11T12:40:58.000Z</time>
      </trkpt>
      <trkpt lat="45.19915" lon="5.62509">
        <ele>816.20001220703</ele>
        <time>2019-08-11T12:41:02.000Z</time>
      </trkpt>
      <trkpt lat="45.19915" lon="5.6251">
        <ele>816.20001220703</ele>
        <time>2019-08-11T12:41:52.000Z</time>
      </trkpt>
      <trkpt lat="45.19915" lon="5.6251">
        <ele>816.40002441406</ele>
        <time>2019-08-11T12:42:39.000Z</time>
      </trkpt>
      <trkpt lat="45.19915" lon="5.6251">
        <ele>816.40002441406</ele>
        <time>2019-08-11T12:42:44.000Z</time>
      </trkpt>
      <trkpt lat="45.19915" lon="5.6251">
        <ele>816.40002441406</ele>
        <time>2019-08-11T12:42:58.000Z</time>
      </trkpt>
      <trkpt lat="45.19915" lon="5.6251">
        <ele>816.40002441406</ele>
        <time>2019-08-11T12:43:53.000Z</time>
      </trkpt>
      <trkpt lat="45.19915" lon="5.6251">
        <ele>816.20001220703</ele>
        <time>2019-08-11T12:44:20.000Z</time>
      </trkpt>
      <trkpt lat="45.19915" lon="5.6251">
        <ele>816.40002441406</ele>
        <time>2019-08-11T12:44:30.000Z</time>
      </trkpt>
      <trkpt lat="45.19915" lon="5.62509">
        <ele>816.20001220703</ele>
        <time>2019-08-11T12:45:41.000Z</time>
      </trkpt>
      <trkpt lat="45.19915" lon="5.62509">
        <ele>816.20001220703</ele>
        <time>2019-08-11T12:45:42.000Z</time>
      </trkpt>
      <trkpt lat="45.19915" lon="5.6251">
        <ele>816</ele>
        <time>2019-08-11T12:46:13.000Z</time>
      </trkpt>
      <trkpt lat="45.19918" lon="5.62515">
        <ele>816</ele>
        <time>2019-08-11T12:46:26.000Z</time>
      </trkpt>
      <trkpt lat="45.19919" lon="5.62516">
        <ele>816</ele>
        <time>2019-08-11T12:46:27.000Z</time>
      </trkpt>
      <trkpt lat="45.19921" lon="5.62519">
        <ele>815.40002441406</ele>
        <time>2019-08-11T12:46:30.000Z</time>
      </trkpt>
      <trkpt lat="45.19921" lon="5.6252">
        <ele>815.20001220703</ele>
        <time>2019-08-11T12:46:32.000Z</time>
      </trkpt>
      <trkpt lat="45.19925" lon="5.62525">
        <ele>814.20001220703</ele>
        <time>2019-08-11T12:46:38.000Z</time>
      </trkpt>
      <trkpt lat="45.19926" lon="5.62527">
        <ele>814</ele>
        <time>2019-08-11T12:46:39.000Z</time>
      </trkpt>
      <trkpt lat="45.19931" lon="5.62532">
        <ele>813.40002441406</ele>
        <time>2019-08-11T12:46:42.000Z</time>
      </trkpt>
      <trkpt lat="45.19941" lon="5.62542">
        <ele>812.40002441406</ele>
        <time>2019-08-11T12:46:46.000Z</time>
      </trkpt>
      <trkpt lat="45.19949" lon="5.62549">
        <ele>810.59997558594</ele>
        <time>2019-08-11T12:46:49.000Z</time>
      </trkpt>
      <trkpt lat="45.19952" lon="5.62552">
        <ele>810</ele>
        <time>2019-08-11T12:46:50.000Z</time>
      </trkpt>
      <trkpt lat="45.19956" lon="5.62558">
        <ele>809.20001220703</ele>
        <time>2019-08-11T12:46:52.000Z</time>
      </trkpt>
      <trkpt lat="45.1996" lon="5.62566">
        <ele>808</ele>
        <time>2019-08-11T12:46:54.000Z</time>
      </trkpt>
      <trkpt lat="45.19962" lon="5.62569">
        <ele>807.40002441406</ele>
        <time>2019-08-11T12:46:55.000Z</time>
      </trkpt>
      <trkpt lat="45.19964" lon="5.62573">
        <ele>806.79998779297</ele>
        <time>2019-08-11T12:46:56.000Z</time>
      </trkpt>
      <trkpt lat="45.19968" lon="5.62582">
        <ele>805.40002441406</ele>
        <time>2019-08-11T12:46:58.000Z</time>
      </trkpt>
      <trkpt lat="45.1997" lon="5.62586">
        <ele>804.79998779297</ele>
        <time>2019-08-11T12:46:59.000Z</time>
      </trkpt>
      <trkpt lat="45.19973" lon="5.62594">
        <ele>803.59997558594</ele>
        <time>2019-08-11T12:47:01.000Z</time>
      </trkpt>
      <trkpt lat="45.19976" lon="5.62599">
        <ele>802.20001220703</ele>
        <time>2019-08-11T12:47:03.000Z</time>
      </trkpt>
      <trkpt lat="45.19985" lon="5.62606">
        <ele>800</ele>
        <time>2019-08-11T12:47:06.000Z</time>
      </trkpt>
      <trkpt lat="45.19988" lon="5.62608">
        <ele>799.59997558594</ele>
        <time>2019-08-11T12:47:07.000Z</time>
      </trkpt>
      <trkpt lat="45.1999" lon="5.6261">
        <ele>799</ele>
        <time>2019-08-11T12:47:08.000Z</time>
      </trkpt>
      <trkpt lat="45.19995" lon="5.62615">
        <ele>797.79998779297</ele>
        <time>2019-08-11T12:47:10.000Z</time>
      </trkpt>
      <trkpt lat="45.20001" lon="5.62619">
        <ele>796.79998779297</ele>
        <time>2019-08-11T12:47:12.000Z</time>
      </trkpt>
      <trkpt lat="45.20004" lon="5.62622">
        <ele>796.20001220703</ele>
        <time>2019-08-11T12:47:13.000Z</time>
      </trkpt>
      <trkpt lat="45.2001" lon="5.62627">
        <ele>794.59997558594</ele>
        <time>2019-08-11T12:47:15.000Z</time>
      </trkpt>
      <trkpt lat="45.20015" lon="5.62632">
        <ele>794</ele>
        <time>2019-08-11T12:47:17.000Z</time>
      </trkpt>
      <trkpt lat="45.20018" lon="5.62634">
        <ele>793.40002441406</ele>
        <time>2019-08-11T12:47:18.000Z</time>
      </trkpt>
      <trkpt lat="45.20022" lon="5.62638">
        <ele>792</ele>
        <time>2019-08-11T12:47:20.000Z</time>
      </trkpt>
      <trkpt lat="45.20026" lon="5.62644">
        <ele>791</ele>
        <time>2019-08-11T12:47:22.000Z</time>
      </trkpt>
      <trkpt lat="45.2003" lon="5.62651">
        <ele>790</ele>
        <time>2019-08-11T12:47:24.000Z</time>
      </trkpt>
      <trkpt lat="45.20032" lon="5.62657">
        <ele>788.59997558594</ele>
        <time>2019-08-11T12:47:26.000Z</time>
      </trkpt>
      <trkpt lat="45.20033" lon="5.6266">
        <ele>788</ele>
        <time>2019-08-11T12:47:27.000Z</time>
      </trkpt>
      <trkpt lat="45.20035" lon="5.62664">
        <ele>787.59997558594</ele>
        <time>2019-08-11T12:47:28.000Z</time>
      </trkpt>
      <trkpt lat="45.2004" lon="5.62672">
        <ele>785.59997558594</ele>
        <time>2019-08-11T12:47:30.000Z</time>
      </trkpt>
      <trkpt lat="45.20042" lon="5.62675">
        <ele>784.79998779297</ele>
        <time>2019-08-11T12:47:31.000Z</time>
      </trkpt>
      <trkpt lat="45.20044" lon="5.62679">
        <ele>783.79998779297</ele>
        <time>2019-08-11T12:47:32.000Z</time>
      </trkpt>
      <trkpt lat="45.20048" lon="5.62687">
        <ele>782.40002441406</ele>
        <time>2019-08-11T12:47:34.000Z</time>
      </trkpt>
      <trkpt lat="45.20053" lon="5.62695">
        <ele>781</ele>
        <time>2019-08-11T12:47:36.000Z</time>
      </trkpt>
      <trkpt lat="45.20057" lon="5.62703">
        <ele>779</ele>
        <time>2019-08-11T12:47:38.000Z</time>
      </trkpt>
      <trkpt lat="45.20059" lon="5.62708">
        <ele>777.79998779297</ele>
        <time>2019-08-11T12:47:39.000Z</time>
      </trkpt>
      <trkpt lat="45.20062" lon="5.62714">
        <ele>776.79998779297</ele>
        <time>2019-08-11T12:47:40.000Z</time>
      </trkpt>
      <trkpt lat="45.20065" lon="5.62718">
        <ele>776</ele>
        <time>2019-08-11T12:47:41.000Z</time>
      </trkpt>
      <trkpt lat="45.20067" lon="5.62721">
        <ele>775</ele>
        <time>2019-08-11T12:47:42.000Z</time>
      </trkpt>
      <trkpt lat="45.20074" lon="5.62724">
        <ele>773.40002441406</ele>
        <time>2019-08-11T12:47:44.000Z</time>
      </trkpt>
      <trkpt lat="45.2008" lon="5.62725">
        <ele>772.40002441406</ele>
        <time>2019-08-11T12:47:46.000Z</time>
      </trkpt>
      <trkpt lat="45.20092" lon="5.62729">
        <ele>771.40002441406</ele>
        <time>2019-08-11T12:47:49.000Z</time>
      </trkpt>
      <trkpt lat="45.20104" lon="5.62736">
        <ele>770.20001220703</ele>
        <time>2019-08-11T12:47:52.000Z</time>
      </trkpt>
      <trkpt lat="45.2011" lon="5.62739">
        <ele>769</ele>
        <time>2019-08-11T12:47:54.000Z</time>
      </trkpt>
      <trkpt lat="45.2012" lon="5.62745">
        <ele>767.59997558594</ele>
        <time>2019-08-11T12:47:57.000Z</time>
      </trkpt>
      <trkpt lat="45.20129" lon="5.6275">
        <ele>766.59997558594</ele>
        <time>2019-08-11T12:47:59.000Z</time>
      </trkpt>
      <trkpt lat="45.20134" lon="5.62752">
        <ele>766.40002441406</ele>
        <time>2019-08-11T12:48:00.000Z</time>
      </trkpt>
      <trkpt lat="45.20151" lon="5.62759">
        <ele>765.59997558594</ele>
        <time>2019-08-11T12:48:04.000Z</time>
      </trkpt>
      <trkpt lat="45.20159" lon="5.62762">
        <ele>765.20001220703</ele>
        <time>2019-08-11T12:48:06.000Z</time>
      </trkpt>
      <trkpt lat="45.20178" lon="5.6277">
        <ele>765</ele>
        <time>2019-08-11T12:48:12.000Z</time>
      </trkpt>
      <trkpt lat="45.20195" lon="5.62777">
        <ele>764.79998779297</ele>
        <time>2019-08-11T12:48:18.000Z</time>
      </trkpt>
      <trkpt lat="45.20202" lon="5.6278">
        <ele>764.79998779297</ele>
        <time>2019-08-11T12:48:21.000Z</time>
      </trkpt>
      <trkpt lat="45.20206" lon="5.62781">
        <ele>764.20001220703</ele>
        <time>2019-08-11T12:48:23.000Z</time>
      </trkpt>
      <trkpt lat="45.20216" lon="5.62789">
        <ele>763.59997558594</ele>
        <time>2019-08-11T12:48:29.000Z</time>
      </trkpt>
      <trkpt lat="45.20227" lon="5.62792">
        <ele>763.59997558594</ele>
        <time>2019-08-11T12:48:33.000Z</time>
      </trkpt>
      <trkpt lat="45.20237" lon="5.62797">
        <ele>763</ele>
        <time>2019-08-11T12:48:37.000Z</time>
      </trkpt>
      <trkpt lat="45.20241" lon="5.62799">
        <ele>762.59997558594</ele>
        <time>2019-08-11T12:48:39.000Z</time>
      </trkpt>
      <trkpt lat="45.20244" lon="5.62801">
        <ele>762.20001220703</ele>
        <time>2019-08-11T12:48:40.000Z</time>
      </trkpt>
      <trkpt lat="45.20249" lon="5.62804">
        <ele>762</ele>
        <time>2019-08-11T12:48:42.000Z</time>
      </trkpt>
      <trkpt lat="45.20257" lon="5.62808">
        <ele>761.79998779297</ele>
        <time>2019-08-11T12:48:44.000Z</time>
      </trkpt>
      <trkpt lat="45.20271" lon="5.62817">
        <ele>761.20001220703</ele>
        <time>2019-08-11T12:48:48.000Z</time>
      </trkpt>
      <trkpt lat="45.20279" lon="5.62822">
        <ele>760.59997558594</ele>
        <time>2019-08-11T12:48:51.000Z</time>
      </trkpt>
      <trkpt lat="45.20283" lon="5.62826">
        <ele>760.20001220703</ele>
        <time>2019-08-11T12:48:52.000Z</time>
      </trkpt>
      <trkpt lat="45.20295" lon="5.62835">
        <ele>759.59997558594</ele>
        <time>2019-08-11T12:48:55.000Z</time>
      </trkpt>
      <trkpt lat="45.20298" lon="5.62836">
        <ele>759.59997558594</ele>
        <time>2019-08-11T12:48:56.000Z</time>
      </trkpt>
      <trkpt lat="45.20312" lon="5.62842">
        <ele>760.59997558594</ele>
        <time>2019-08-11T12:49:01.000Z</time>
      </trkpt>
      <trkpt lat="45.20314" lon="5.62843">
        <ele>760.59997558594</ele>
        <time>2019-08-11T12:49:02.000Z</time>
      </trkpt>
      <trkpt lat="45.20325" lon="5.62849">
        <ele>761.20001220703</ele>
        <time>2019-08-11T12:49:07.000Z</time>
      </trkpt>
      <trkpt lat="45.2034" lon="5.62857">
        <ele>761</ele>
        <time>2019-08-11T12:49:12.000Z</time>
      </trkpt>
      <trkpt lat="45.20356" lon="5.62862">
        <ele>760.20001220703</ele>
        <time>2019-08-11T12:49:16.000Z</time>
      </trkpt>
      <trkpt lat="45.2036" lon="5.62864">
        <ele>759.79998779297</ele>
        <time>2019-08-11T12:49:17.000Z</time>
      </trkpt>
      <trkpt lat="45.20367" lon="5.62869">
        <ele>758.59997558594</ele>
        <time>2019-08-11T12:49:19.000Z</time>
      </trkpt>
      <trkpt lat="45.2037" lon="5.6287">
        <ele>757.59997558594</ele>
        <time>2019-08-11T12:49:20.000Z</time>
      </trkpt>
      <trkpt lat="45.20372" lon="5.62872">
        <ele>756.79998779297</ele>
        <time>2019-08-11T12:49:21.000Z</time>
      </trkpt>
      <trkpt lat="45.20378" lon="5.62875">
        <ele>755.59997558594</ele>
        <time>2019-08-11T12:49:23.000Z</time>
      </trkpt>
      <trkpt lat="45.20381" lon="5.62879">
        <ele>754.20001220703</ele>
        <time>2019-08-11T12:49:25.000Z</time>
      </trkpt>
      <trkpt lat="45.20378" lon="5.62882">
        <ele>753.20001220703</ele>
        <time>2019-08-11T12:49:27.000Z</time>
      </trkpt>
      <trkpt lat="45.20375" lon="5.62882">
        <ele>752.59997558594</ele>
        <time>2019-08-11T12:49:28.000Z</time>
      </trkpt>
      <trkpt lat="45.20372" lon="5.62882">
        <ele>752</ele>
        <time>2019-08-11T12:49:29.000Z</time>
      </trkpt>
      <trkpt lat="45.20362" lon="5.62885">
        <ele>751</ele>
        <time>2019-08-11T12:49:32.000Z</time>
      </trkpt>
      <trkpt lat="45.20359" lon="5.62887">
        <ele>750.40002441406</ele>
        <time>2019-08-11T12:49:33.000Z</time>
      </trkpt>
      <trkpt lat="45.20352" lon="5.62892">
        <ele>749.59997558594</ele>
        <time>2019-08-11T12:49:35.000Z</time>
      </trkpt>
      <trkpt lat="45.20347" lon="5.62898">
        <ele>748.40002441406</ele>
        <time>2019-08-11T12:49:37.000Z</time>
      </trkpt>
      <trkpt lat="45.20345" lon="5.62901">
        <ele>747.59997558594</ele>
        <time>2019-08-11T12:49:38.000Z</time>
      </trkpt>
      <trkpt lat="45.20342" lon="5.62904">
        <ele>746.79998779297</ele>
        <time>2019-08-11T12:49:39.000Z</time>
      </trkpt>
      <trkpt lat="45.20338" lon="5.62908">
        <ele>745.79998779297</ele>
        <time>2019-08-11T12:49:41.000Z</time>
      </trkpt>
      <trkpt lat="45.20335" lon="5.6291">
        <ele>745.20001220703</ele>
        <time>2019-08-11T12:49:42.000Z</time>
      </trkpt>
      <trkpt lat="45.20332" lon="5.62911">
        <ele>744.59997558594</ele>
        <time>2019-08-11T12:49:43.000Z</time>
      </trkpt>
      <trkpt lat="45.20326" lon="5.62912">
        <ele>743.40002441406</ele>
        <time>2019-08-11T12:49:45.000Z</time>
      </trkpt>
      <trkpt lat="45.20319" lon="5.62913">
        <ele>742.20001220703</ele>
        <time>2019-08-11T12:49:47.000Z</time>
      </trkpt>
      <trkpt lat="45.20311" lon="5.62911">
        <ele>741.40002441406</ele>
        <time>2019-08-11T12:49:49.000Z</time>
      </trkpt>
      <trkpt lat="45.20301" lon="5.62905">
        <ele>740</ele>
        <time>2019-08-11T12:49:51.000Z</time>
      </trkpt>
      <trkpt lat="45.20285" lon="5.62894">
        <ele>738.59997558594</ele>
        <time>2019-08-11T12:49:54.000Z</time>
      </trkpt>
      <trkpt lat="45.2028" lon="5.62892">
        <ele>738.20001220703</ele>
        <time>2019-08-11T12:49:55.000Z</time>
      </trkpt>
      <trkpt lat="45.20275" lon="5.6289">
        <ele>737.79998779297</ele>
        <time>2019-08-11T12:49:56.000Z</time>
      </trkpt>
      <trkpt lat="45.2027" lon="5.6289">
        <ele>737.20001220703</ele>
        <time>2019-08-11T12:49:57.000Z</time>
      </trkpt>
      <trkpt lat="45.20258" lon="5.62889">
        <ele>736.40002441406</ele>
        <time>2019-08-11T12:49:59.000Z</time>
      </trkpt>
      <trkpt lat="45.20252" lon="5.62888">
        <ele>736</ele>
        <time>2019-08-11T12:50:00.000Z</time>
      </trkpt>
      <trkpt lat="45.20241" lon="5.62886">
        <ele>735.59997558594</ele>
        <time>2019-08-11T12:50:02.000Z</time>
      </trkpt>
      <trkpt lat="45.2023" lon="5.62888">
        <ele>735.40002441406</ele>
        <time>2019-08-11T12:50:04.000Z</time>
      </trkpt>
      <trkpt lat="45.20224" lon="5.6289">
        <ele>735.40002441406</ele>
        <time>2019-08-11T12:50:05.000Z</time>
      </trkpt>
      <trkpt lat="45.20218" lon="5.62892">
        <ele>735</ele>
        <time>2019-08-11T12:50:06.000Z</time>
      </trkpt>
      <trkpt lat="45.20211" lon="5.62896">
        <ele>734.59997558594</ele>
        <time>2019-08-11T12:50:07.000Z</time>
      </trkpt>
      <trkpt lat="45.20197" lon="5.62901">
        <ele>734</ele>
        <time>2019-08-11T12:50:09.000Z</time>
      </trkpt>
      <trkpt lat="45.2019" lon="5.62903">
        <ele>733.59997558594</ele>
        <time>2019-08-11T12:50:10.000Z</time>
      </trkpt>
      <trkpt lat="45.20176" lon="5.6291">
        <ele>731.40002441406</ele>
        <time>2019-08-11T12:50:12.000Z</time>
      </trkpt>
      <trkpt lat="45.20162" lon="5.62915">
        <ele>730</ele>
        <time>2019-08-11T12:50:14.000Z</time>
      </trkpt>
      <trkpt lat="45.20147" lon="5.62916">
        <ele>728.59997558594</ele>
        <time>2019-08-11T12:50:16.000Z</time>
      </trkpt>
      <trkpt lat="45.20132" lon="5.62914">
        <ele>727.20001220703</ele>
        <time>2019-08-11T12:50:18.000Z</time>
      </trkpt>
      <trkpt lat="45.20125" lon="5.62912">
        <ele>726.59997558594</ele>
        <time>2019-08-11T12:50:19.000Z</time>
      </trkpt>
      <trkpt lat="45.2011" lon="5.62911">
        <ele>726</ele>
        <time>2019-08-11T12:50:21.000Z</time>
      </trkpt>
      <trkpt lat="45.20087" lon="5.62908">
        <ele>725</ele>
        <time>2019-08-11T12:50:24.000Z</time>
      </trkpt>
      <trkpt lat="45.2008" lon="5.62907">
        <ele>724.59997558594</ele>
        <time>2019-08-11T12:50:25.000Z</time>
      </trkpt>
      <trkpt lat="45.20061" lon="5.62907">
        <ele>723.79998779297</ele>
        <time>2019-08-11T12:50:28.000Z</time>
      </trkpt>
      <trkpt lat="45.20055" lon="5.62907">
        <ele>723.59997558594</ele>
        <time>2019-08-11T12:50:29.000Z</time>
      </trkpt>
      <trkpt lat="45.20043" lon="5.62908">
        <ele>723.20001220703</ele>
        <time>2019-08-11T12:50:31.000Z</time>
      </trkpt>
      <trkpt lat="45.20031" lon="5.62904">
        <ele>723</ele>
        <time>2019-08-11T12:50:33.000Z</time>
      </trkpt>
      <trkpt lat="45.20021" lon="5.62892">
        <ele>722.40002441406</ele>
        <time>2019-08-11T12:50:35.000Z</time>
      </trkpt>
      <trkpt lat="45.20015" lon="5.62886">
        <ele>722</ele>
        <time>2019-08-11T12:50:36.000Z</time>
      </trkpt>
      <trkpt lat="45.20004" lon="5.62879">
        <ele>721</ele>
        <time>2019-08-11T12:50:38.000Z</time>
      </trkpt>
      <trkpt lat="45.19999" lon="5.62876">
        <ele>720.40002441406</ele>
        <time>2019-08-11T12:50:39.000Z</time>
      </trkpt>
      <trkpt lat="45.19994" lon="5.62875">
        <ele>719.79998779297</ele>
        <time>2019-08-11T12:50:40.000Z</time>
      </trkpt>
      <trkpt lat="45.19989" lon="5.62874">
        <ele>718.40002441406</ele>
        <time>2019-08-11T12:50:42.000Z</time>
      </trkpt>
      <trkpt lat="45.19984" lon="5.62882">
        <ele>717.40002441406</ele>
        <time>2019-08-11T12:50:45.000Z</time>
      </trkpt>
      <trkpt lat="45.19988" lon="5.62889">
        <ele>716.79998779297</ele>
        <time>2019-08-11T12:50:48.000Z</time>
      </trkpt>
      <trkpt lat="45.19992" lon="5.62894">
        <ele>716.40002441406</ele>
        <time>2019-08-11T12:50:51.000Z</time>
      </trkpt>
      <trkpt lat="45.19996" lon="5.62898">
        <ele>716</ele>
        <time>2019-08-11T12:50:55.000Z</time>
      </trkpt>
      <trkpt lat="45.19996" lon="5.62899">
        <ele>715.59997558594</ele>
        <time>2019-08-11T12:51:02.000Z</time>
      </trkpt>
      <trkpt lat="45.19996" lon="5.62899">
        <ele>715.59997558594</ele>
        <time>2019-08-11T12:51:04.000Z</time>
      </trkpt>
      <trkpt lat="45.19996" lon="5.62899">
        <ele>715.59997558594</ele>
        <time>2019-08-11T12:51:25.000Z</time>
      </trkpt>
      <trkpt lat="45.19997" lon="5.62899">
        <ele>715.79998779297</ele>
        <time>2019-08-11T12:51:33.000Z</time>
      </trkpt>
      <trkpt lat="45.19999" lon="5.62901">
        <ele>715.79998779297</ele>
        <time>2019-08-11T12:51:34.000Z</time>
      </trkpt>
      <trkpt lat="45.20011" lon="5.62914">
        <ele>715.40002441406</ele>
        <time>2019-08-11T12:51:39.000Z</time>
      </trkpt>
      <trkpt lat="45.20031" lon="5.62933">
        <ele>714.79998779297</ele>
        <time>2019-08-11T12:51:45.000Z</time>
      </trkpt>
      <trkpt lat="45.20051" lon="5.62941">
        <ele>713.59997558594</ele>
        <time>2019-08-11T12:51:50.000Z</time>
      </trkpt>
      <trkpt lat="45.20055" lon="5.62942">
        <ele>713.20001220703</ele>
        <time>2019-08-11T12:51:51.000Z</time>
      </trkpt>
      <trkpt lat="45.20066" lon="5.62945">
        <ele>712.40002441406</ele>
        <time>2019-08-11T12:51:54.000Z</time>
      </trkpt>
      <trkpt lat="45.20078" lon="5.62948">
        <ele>711.40002441406</ele>
        <time>2019-08-11T12:51:58.000Z</time>
      </trkpt>
      <trkpt lat="45.20082" lon="5.62949">
        <ele>711.20001220703</ele>
        <time>2019-08-11T12:51:59.000Z</time>
      </trkpt>
      <trkpt lat="45.20101" lon="5.62952">
        <ele>710.20001220703</ele>
        <time>2019-08-11T12:52:05.000Z</time>
      </trkpt>
      <trkpt lat="45.2012" lon="5.62958">
        <ele>709.20001220703</ele>
        <time>2019-08-11T12:52:10.000Z</time>
      </trkpt>
      <trkpt lat="45.20124" lon="5.6296">
        <ele>709</ele>
        <time>2019-08-11T12:52:11.000Z</time>
      </trkpt>
      <trkpt lat="45.20142" lon="5.62967">
        <ele>708.20001220703</ele>
        <time>2019-08-11T12:52:15.000Z</time>
      </trkpt>
      <trkpt lat="45.2015" lon="5.62971">
        <ele>707.59997558594</ele>
        <time>2019-08-11T12:52:17.000Z</time>
      </trkpt>
      <trkpt lat="45.20154" lon="5.62972">
        <ele>707</ele>
        <time>2019-08-11T12:52:19.000Z</time>
      </trkpt>
      <trkpt lat="45.20158" lon="5.62972">
        <ele>706.59997558594</ele>
        <time>2019-08-11T12:52:21.000Z</time>
      </trkpt>
      <trkpt lat="45.20167" lon="5.62972">
        <ele>706</ele>
        <time>2019-08-11T12:52:24.000Z</time>
      </trkpt>
      <trkpt lat="45.20175" lon="5.62973">
        <ele>705.79998779297</ele>
        <time>2019-08-11T12:52:26.000Z</time>
      </trkpt>
      <trkpt lat="45.2019" lon="5.62977">
        <ele>705</ele>
        <time>2019-08-11T12:52:29.000Z</time>
      </trkpt>
      <trkpt lat="45.20201" lon="5.62981">
        <ele>704.59997558594</ele>
        <time>2019-08-11T12:52:31.000Z</time>
      </trkpt>
      <trkpt lat="45.2022" lon="5.62989">
        <ele>703.79998779297</ele>
        <time>2019-08-11T12:52:34.000Z</time>
      </trkpt>
      <trkpt lat="45.20238" lon="5.63">
        <ele>702.79998779297</ele>
        <time>2019-08-11T12:52:37.000Z</time>
      </trkpt>
      <trkpt lat="45.20256" lon="5.63017">
        <ele>701.59997558594</ele>
        <time>2019-08-11T12:52:40.000Z</time>
      </trkpt>
      <trkpt lat="45.20268" lon="5.6303">
        <ele>700.79998779297</ele>
        <time>2019-08-11T12:52:42.000Z</time>
      </trkpt>
      <trkpt lat="45.20273" lon="5.63036">
        <ele>700</ele>
        <time>2019-08-11T12:52:43.000Z</time>
      </trkpt>
      <trkpt lat="45.20285" lon="5.63056">
        <ele>698.79998779297</ele>
        <time>2019-08-11T12:52:46.000Z</time>
      </trkpt>
      <trkpt lat="45.20301" lon="5.63082">
        <ele>697.40002441406</ele>
        <time>2019-08-11T12:52:50.000Z</time>
      </trkpt>
      <trkpt lat="45.20309" lon="5.63096">
        <ele>696.20001220703</ele>
        <time>2019-08-11T12:52:52.000Z</time>
      </trkpt>
      <trkpt lat="45.20314" lon="5.63103">
        <ele>695.79998779297</ele>
        <time>2019-08-11T12:52:53.000Z</time>
      </trkpt>
      <trkpt lat="45.20322" lon="5.63118">
        <ele>695.20001220703</ele>
        <time>2019-08-11T12:52:55.000Z</time>
      </trkpt>
      <trkpt lat="45.2033" lon="5.63135">
        <ele>694</ele>
        <time>2019-08-11T12:52:57.000Z</time>
      </trkpt>
      <trkpt lat="45.20338" lon="5.63153">
        <ele>692.79998779297</ele>
        <time>2019-08-11T12:52:59.000Z</time>
      </trkpt>
      <trkpt lat="45.20348" lon="5.63178">
        <ele>691.20001220703</ele>
        <time>2019-08-11T12:53:02.000Z</time>
      </trkpt>
      <trkpt lat="45.20358" lon="5.63202">
        <ele>690</ele>
        <time>2019-08-11T12:53:05.000Z</time>
      </trkpt>
      <trkpt lat="45.20362" lon="5.63209">
        <ele>689.79998779297</ele>
        <time>2019-08-11T12:53:06.000Z</time>
      </trkpt>
      <trkpt lat="45.20371" lon="5.6322">
        <ele>688.79998779297</ele>
        <time>2019-08-11T12:53:08.000Z</time>
      </trkpt>
      <trkpt lat="45.20375" lon="5.63225">
        <ele>688.40002441406</ele>
        <time>2019-08-11T12:53:09.000Z</time>
      </trkpt>
      <trkpt lat="45.20379" lon="5.63228">
        <ele>688</ele>
        <time>2019-08-11T12:53:10.000Z</time>
      </trkpt>
      <trkpt lat="45.20382" lon="5.6323">
        <ele>687.59997558594</ele>
        <time>2019-08-11T12:53:11.000Z</time>
      </trkpt>
      <trkpt lat="45.2039" lon="5.63236">
        <ele>686.79998779297</ele>
        <time>2019-08-11T12:53:14.000Z</time>
      </trkpt>
      <trkpt lat="45.20392" lon="5.63237">
        <ele>686.79998779297</ele>
        <time>2019-08-11T12:53:15.000Z</time>
      </trkpt>
      <trkpt lat="45.20401" lon="5.63239">
        <ele>685.79998779297</ele>
        <time>2019-08-11T12:53:20.000Z</time>
      </trkpt>
      <trkpt lat="45.20404" lon="5.6324">
        <ele>685.79998779297</ele>
        <time>2019-08-11T12:53:22.000Z</time>
      </trkpt>
      <trkpt lat="45.20408" lon="5.63238">
        <ele>685.40002441406</ele>
        <time>2019-08-11T12:53:25.000Z</time>
      </trkpt>
      <trkpt lat="45.20409" lon="5.63239">
        <ele>685.20001220703</ele>
        <time>2019-08-11T12:53:30.000Z</time>
      </trkpt>
      <trkpt lat="45.2041" lon="5.63239">
        <ele>685.20001220703</ele>
        <time>2019-08-11T12:53:32.000Z</time>
      </trkpt>
      <trkpt lat="45.20413" lon="5.63238">
        <ele>685</ele>
        <time>2019-08-11T12:53:34.000Z</time>
      </trkpt>
      <trkpt lat="45.20417" lon="5.63237">
        <ele>685</ele>
        <time>2019-08-11T12:53:36.000Z</time>
      </trkpt>
      <trkpt lat="45.2042" lon="5.63235">
        <ele>684.79998779297</ele>
        <time>2019-08-11T12:53:38.000Z</time>
      </trkpt>
      <trkpt lat="45.20421" lon="5.63236">
        <ele>684.59997558594</ele>
        <time>2019-08-11T12:53:39.000Z</time>
      </trkpt>
      <trkpt lat="45.20422" lon="5.63237">
        <ele>684.59997558594</ele>
        <time>2019-08-11T12:53:40.000Z</time>
      </trkpt>
      <trkpt lat="45.20424" lon="5.63237">
        <ele>684.20001220703</ele>
        <time>2019-08-11T12:53:42.000Z</time>
      </trkpt>
      <trkpt lat="45.2043" lon="5.63236">
        <ele>684</ele>
        <time>2019-08-11T12:53:46.000Z</time>
      </trkpt>
      <trkpt lat="45.20431" lon="5.63237">
        <ele>684</ele>
        <time>2019-08-11T12:53:47.000Z</time>
      </trkpt>
      <trkpt lat="45.20434" lon="5.63237">
        <ele>683.79998779297</ele>
        <time>2019-08-11T12:53:49.000Z</time>
      </trkpt>
      <trkpt lat="45.20441" lon="5.63238">
        <ele>683.40002441406</ele>
        <time>2019-08-11T12:53:52.000Z</time>
      </trkpt>
      <trkpt lat="45.20456" lon="5.63248">
        <ele>682.79998779297</ele>
        <time>2019-08-11T12:53:58.000Z</time>
      </trkpt>
      <trkpt lat="45.20458" lon="5.63251">
        <ele>682.59997558594</ele>
        <time>2019-08-11T12:53:59.000Z</time>
      </trkpt>
      <trkpt lat="45.2047" lon="5.63269">
        <ele>682.20001220703</ele>
        <time>2019-08-11T12:54:04.000Z</time>
      </trkpt>
      <trkpt lat="45.20477" lon="5.63283">
        <ele>681.79998779297</ele>
        <time>2019-08-11T12:54:07.000Z</time>
      </trkpt>
      <trkpt lat="45.20484" lon="5.63301">
        <ele>681.20001220703</ele>
        <time>2019-08-11T12:54:10.000Z</time>
      </trkpt>
      <trkpt lat="45.20487" lon="5.63314">
        <ele>680.79998779297</ele>
        <time>2019-08-11T12:54:12.000Z</time>
      </trkpt>
      <trkpt lat="45.20492" lon="5.63337">
        <ele>679.59997558594</ele>
        <time>2019-08-11T12:54:15.000Z</time>
      </trkpt>
      <trkpt lat="45.20496" lon="5.63362">
        <ele>678.59997558594</ele>
        <time>2019-08-11T12:54:18.000Z</time>
      </trkpt>
      <trkpt lat="45.20502" lon="5.63387">
        <ele>677.59997558594</ele>
        <time>2019-08-11T12:54:21.000Z</time>
      </trkpt>
      <trkpt lat="45.20504" lon="5.63395">
        <ele>677.20001220703</ele>
        <time>2019-08-11T12:54:22.000Z</time>
      </trkpt>
      <trkpt lat="45.20509" lon="5.63411">
        <ele>676.59997558594</ele>
        <time>2019-08-11T12:54:24.000Z</time>
      </trkpt>
      <trkpt lat="45.20512" lon="5.63417">
        <ele>676.20001220703</ele>
        <time>2019-08-11T12:54:25.000Z</time>
      </trkpt>
      <trkpt lat="45.20516" lon="5.63423">
        <ele>676</ele>
        <time>2019-08-11T12:54:26.000Z</time>
      </trkpt>
      <trkpt lat="45.20521" lon="5.63432">
        <ele>675.20001220703</ele>
        <time>2019-08-11T12:54:28.000Z</time>
      </trkpt>
      <trkpt lat="45.2053" lon="5.63441">
        <ele>674.59997558594</ele>
        <time>2019-08-11T12:54:31.000Z</time>
      </trkpt>
      <trkpt lat="45.20535" lon="5.63446">
        <ele>674.20001220703</ele>
        <time>2019-08-11T12:54:33.000Z</time>
      </trkpt>
      <trkpt lat="45.20542" lon="5.63453">
        <ele>673.59997558594</ele>
        <time>2019-08-11T12:54:36.000Z</time>
      </trkpt>
      <trkpt lat="45.20549" lon="5.63456">
        <ele>673</ele>
        <time>2019-08-11T12:54:39.000Z</time>
      </trkpt>
      <trkpt lat="45.20553" lon="5.63459">
        <ele>672.59997558594</ele>
        <time>2019-08-11T12:54:41.000Z</time>
      </trkpt>
      <trkpt lat="45.20566" lon="5.63468">
        <ele>672</ele>
        <time>2019-08-11T12:54:46.000Z</time>
      </trkpt>
      <trkpt lat="45.20569" lon="5.63471">
        <ele>671.79998779297</ele>
        <time>2019-08-11T12:54:47.000Z</time>
      </trkpt>
      <trkpt lat="45.20582" lon="5.63481">
        <ele>671.20001220703</ele>
        <time>2019-08-11T12:54:51.000Z</time>
      </trkpt>
      <trkpt lat="45.20585" lon="5.63483">
        <ele>671.20001220703</ele>
        <time>2019-08-11T12:54:52.000Z</time>
      </trkpt>
      <trkpt lat="45.20602" lon="5.63498">
        <ele>670</ele>
        <time>2019-08-11T12:54:57.000Z</time>
      </trkpt>
      <trkpt lat="45.20605" lon="5.63502">
        <ele>669.79998779297</ele>
        <time>2019-08-11T12:54:58.000Z</time>
      </trkpt>
      <trkpt lat="45.2061" lon="5.63511">
        <ele>669.59997558594</ele>
        <time>2019-08-11T12:55:00.000Z</time>
      </trkpt>
      <trkpt lat="45.20614" lon="5.63522">
        <ele>669.40002441406</ele>
        <time>2019-08-11T12:55:02.000Z</time>
      </trkpt>
      <trkpt lat="45.20615" lon="5.63528">
        <ele>669</ele>
        <time>2019-08-11T12:55:03.000Z</time>
      </trkpt>
      <trkpt lat="45.20611" lon="5.63538">
        <ele>668.20001220703</ele>
        <time>2019-08-11T12:55:05.000Z</time>
      </trkpt>
      <trkpt lat="45.20607" lon="5.63541">
        <ele>667.79998779297</ele>
        <time>2019-08-11T12:55:06.000Z</time>
      </trkpt>
      <trkpt lat="45.20602" lon="5.6354">
        <ele>667.59997558594</ele>
        <time>2019-08-11T12:55:07.000Z</time>
      </trkpt>
      <trkpt lat="45.20596" lon="5.63531">
        <ele>666.79998779297</ele>
        <time>2019-08-11T12:55:09.000Z</time>
      </trkpt>
      <trkpt lat="45.20593" lon="5.63526">
        <ele>666.40002441406</ele>
        <time>2019-08-11T12:55:10.000Z</time>
      </trkpt>
      <trkpt lat="45.20591" lon="5.6352">
        <ele>666.20001220703</ele>
        <time>2019-08-11T12:55:11.000Z</time>
      </trkpt>
      <trkpt lat="45.20583" lon="5.63504">
        <ele>665.79998779297</ele>
        <time>2019-08-11T12:55:14.000Z</time>
      </trkpt>
      <trkpt lat="45.2058" lon="5.63499">
        <ele>665.59997558594</ele>
        <time>2019-08-11T12:55:15.000Z</time>
      </trkpt>
      <trkpt lat="45.20577" lon="5.63495">
        <ele>665.59997558594</ele>
        <time>2019-08-11T12:55:16.000Z</time>
      </trkpt>
      <trkpt lat="45.20564" lon="5.63484">
        <ele>665.20001220703</ele>
        <time>2019-08-11T12:55:19.000Z</time>
      </trkpt>
      <trkpt lat="45.20556" lon="5.6348">
        <ele>664.79998779297</ele>
        <time>2019-08-11T12:55:21.000Z</time>
      </trkpt>
      <trkpt lat="45.20551" lon="5.63478">
        <ele>664.59997558594</ele>
        <time>2019-08-11T12:55:22.000Z</time>
      </trkpt>
      <trkpt lat="45.20533" lon="5.6347">
        <ele>663.59997558594</ele>
        <time>2019-08-11T12:55:26.000Z</time>
      </trkpt>
      <trkpt lat="45.20515" lon="5.6346">
        <ele>662.40002441406</ele>
        <time>2019-08-11T12:55:30.000Z</time>
      </trkpt>
      <trkpt lat="45.20502" lon="5.63447">
        <ele>661.40002441406</ele>
        <time>2019-08-11T12:55:33.000Z</time>
      </trkpt>
      <trkpt lat="45.2049" lon="5.63429">
        <ele>660.40002441406</ele>
        <time>2019-08-11T12:55:36.000Z</time>
      </trkpt>
      <trkpt lat="45.20482" lon="5.63416">
        <ele>659.59997558594</ele>
        <time>2019-08-11T12:55:38.000Z</time>
      </trkpt>
      <trkpt lat="45.20479" lon="5.63409">
        <ele>659.20001220703</ele>
        <time>2019-08-11T12:55:39.000Z</time>
      </trkpt>
      <trkpt lat="45.20471" lon="5.63388">
        <ele>658.59997558594</ele>
        <time>2019-08-11T12:55:42.000Z</time>
      </trkpt>
      <trkpt lat="45.20468" lon="5.6338">
        <ele>658.40002441406</ele>
        <time>2019-08-11T12:55:43.000Z</time>
      </trkpt>
      <trkpt lat="45.20455" lon="5.63351">
        <ele>657.20001220703</ele>
        <time>2019-08-11T12:55:47.000Z</time>
      </trkpt>
      <trkpt lat="45.20437" lon="5.63331">
        <ele>656</ele>
        <time>2019-08-11T12:55:51.000Z</time>
      </trkpt>
      <trkpt lat="45.20415" lon="5.63326">
        <ele>654.79998779297</ele>
        <time>2019-08-11T12:55:55.000Z</time>
      </trkpt>
      <trkpt lat="45.20409" lon="5.63326">
        <ele>654.40002441406</ele>
        <time>2019-08-11T12:55:56.000Z</time>
      </trkpt>
      <trkpt lat="45.20393" lon="5.63329">
        <ele>653.59997558594</ele>
        <time>2019-08-11T12:55:59.000Z</time>
      </trkpt>
      <trkpt lat="45.20383" lon="5.63333">
        <ele>653.20001220703</ele>
        <time>2019-08-11T12:56:01.000Z</time>
      </trkpt>
      <trkpt lat="45.20373" lon="5.63336">
        <ele>652.40002441406</ele>
        <time>2019-08-11T12:56:03.000Z</time>
      </trkpt>
      <trkpt lat="45.20363" lon="5.63338">
        <ele>651.79998779297</ele>
        <time>2019-08-11T12:56:05.000Z</time>
      </trkpt>
      <trkpt lat="45.20358" lon="5.63338">
        <ele>651.40002441406</ele>
        <time>2019-08-11T12:56:06.000Z</time>
      </trkpt>
      <trkpt lat="45.20353" lon="5.63337">
        <ele>651.20001220703</ele>
        <time>2019-08-11T12:56:07.000Z</time>
      </trkpt>
      <trkpt lat="45.20338" lon="5.63329">
        <ele>650</ele>
        <time>2019-08-11T12:56:10.000Z</time>
      </trkpt>
      <trkpt lat="45.20334" lon="5.63325">
        <ele>649.59997558594</ele>
        <time>2019-08-11T12:56:11.000Z</time>
      </trkpt>
      <trkpt lat="45.20324" lon="5.63314">
        <ele>648.79998779297</ele>
        <time>2019-08-11T12:56:13.000Z</time>
      </trkpt>
      <trkpt lat="45.20315" lon="5.633">
        <ele>648.40002441406</ele>
        <time>2019-08-11T12:56:15.000Z</time>
      </trkpt>
      <trkpt lat="45.20309" lon="5.63283">
        <ele>647.59997558594</ele>
        <time>2019-08-11T12:56:17.000Z</time>
      </trkpt>
      <trkpt lat="45.20306" lon="5.63275">
        <ele>647.20001220703</ele>
        <time>2019-08-11T12:56:18.000Z</time>
      </trkpt>
      <trkpt lat="45.20303" lon="5.63266">
        <ele>646.59997558594</ele>
        <time>2019-08-11T12:56:19.000Z</time>
      </trkpt>
      <trkpt lat="45.20301" lon="5.63257">
        <ele>646.20001220703</ele>
        <time>2019-08-11T12:56:20.000Z</time>
      </trkpt>
      <trkpt lat="45.20294" lon="5.63241">
        <ele>645.79998779297</ele>
        <time>2019-08-11T12:56:22.000Z</time>
      </trkpt>
      <trkpt lat="45.2029" lon="5.63236">
        <ele>645.59997558594</ele>
        <time>2019-08-11T12:56:23.000Z</time>
      </trkpt>
      <trkpt lat="45.20285" lon="5.63231">
        <ele>645.40002441406</ele>
        <time>2019-08-11T12:56:24.000Z</time>
      </trkpt>
      <trkpt lat="45.20268" lon="5.63222">
        <ele>644.79998779297</ele>
        <time>2019-08-11T12:56:27.000Z</time>
      </trkpt>
      <trkpt lat="45.20262" lon="5.6322">
        <ele>644.40002441406</ele>
        <time>2019-08-11T12:56:28.000Z</time>
      </trkpt>
      <trkpt lat="45.20256" lon="5.63217">
        <ele>644</ele>
        <time>2019-08-11T12:56:29.000Z</time>
      </trkpt>
      <trkpt lat="45.20244" lon="5.63213">
        <ele>643.20001220703</ele>
        <time>2019-08-11T12:56:31.000Z</time>
      </trkpt>
      <trkpt lat="45.20237" lon="5.63209">
        <ele>642.59997558594</ele>
        <time>2019-08-11T12:56:32.000Z</time>
      </trkpt>
      <trkpt lat="45.20226" lon="5.63199">
        <ele>641.79998779297</ele>
        <time>2019-08-11T12:56:34.000Z</time>
      </trkpt>
      <trkpt lat="45.20214" lon="5.63188">
        <ele>640.59997558594</ele>
        <time>2019-08-11T12:56:36.000Z</time>
      </trkpt>
      <trkpt lat="45.20202" lon="5.63179">
        <ele>640.20001220703</ele>
        <time>2019-08-11T12:56:38.000Z</time>
      </trkpt>
      <trkpt lat="45.20195" lon="5.63176">
        <ele>639.79998779297</ele>
        <time>2019-08-11T12:56:39.000Z</time>
      </trkpt>
      <trkpt lat="45.20174" lon="5.63175">
        <ele>639</ele>
        <time>2019-08-11T12:56:42.000Z</time>
      </trkpt>
      <trkpt lat="45.20168" lon="5.63177">
        <ele>638.59997558594</ele>
        <time>2019-08-11T12:56:43.000Z</time>
      </trkpt>
      <trkpt lat="45.20162" lon="5.63179">
        <ele>638.20001220703</ele>
        <time>2019-08-11T12:56:44.000Z</time>
      </trkpt>
      <trkpt lat="45.20149" lon="5.63184">
        <ele>637.40002441406</ele>
        <time>2019-08-11T12:56:46.000Z</time>
      </trkpt>
      <trkpt lat="45.20143" lon="5.63185">
        <ele>637.20001220703</ele>
        <time>2019-08-11T12:56:47.000Z</time>
      </trkpt>
      <trkpt lat="45.20131" lon="5.63185">
        <ele>636.59997558594</ele>
        <time>2019-08-11T12:56:49.000Z</time>
      </trkpt>
      <trkpt lat="45.2012" lon="5.63182">
        <ele>635.59997558594</ele>
        <time>2019-08-11T12:56:51.000Z</time>
      </trkpt>
      <trkpt lat="45.20114" lon="5.6318">
        <ele>635.40002441406</ele>
        <time>2019-08-11T12:56:52.000Z</time>
      </trkpt>
      <trkpt lat="45.20102" lon="5.63175">
        <ele>634.59997558594</ele>
        <time>2019-08-11T12:56:54.000Z</time>
      </trkpt>
      <trkpt lat="45.20091" lon="5.63172">
        <ele>634.20001220703</ele>
        <time>2019-08-11T12:56:56.000Z</time>
      </trkpt>
      <trkpt lat="45.20085" lon="5.63171">
        <ele>633.79998779297</ele>
        <time>2019-08-11T12:56:57.000Z</time>
      </trkpt>
      <trkpt lat="45.20061" lon="5.63175">
        <ele>632.79998779297</ele>
        <time>2019-08-11T12:57:01.000Z</time>
      </trkpt>
      <trkpt lat="45.20043" lon="5.6318">
        <ele>631.79998779297</ele>
        <time>2019-08-11T12:57:04.000Z</time>
      </trkpt>
      <trkpt lat="45.20025" lon="5.63183">
        <ele>630.59997558594</ele>
        <time>2019-08-11T12:57:07.000Z</time>
      </trkpt>
      <trkpt lat="45.20019" lon="5.63183">
        <ele>630.20001220703</ele>
        <time>2019-08-11T12:57:08.000Z</time>
      </trkpt>
      <trkpt lat="45.20003" lon="5.63183">
        <ele>629.59997558594</ele>
        <time>2019-08-11T12:57:11.000Z</time>
      </trkpt>
      <trkpt lat="45.19992" lon="5.6318">
        <ele>629</ele>
        <time>2019-08-11T12:57:13.000Z</time>
      </trkpt>
      <trkpt lat="45.19987" lon="5.63178">
        <ele>628.59997558594</ele>
        <time>2019-08-11T12:57:14.000Z</time>
      </trkpt>
      <trkpt lat="45.19968" lon="5.63166">
        <ele>627.40002441406</ele>
        <time>2019-08-11T12:57:18.000Z</time>
      </trkpt>
      <trkpt lat="45.19958" lon="5.63157">
        <ele>627</ele>
        <time>2019-08-11T12:57:20.000Z</time>
      </trkpt>
      <trkpt lat="45.19949" lon="5.63149">
        <ele>626.59997558594</ele>
        <time>2019-08-11T12:57:22.000Z</time>
      </trkpt>
      <trkpt lat="45.19945" lon="5.63145">
        <ele>626.40002441406</ele>
        <time>2019-08-11T12:57:23.000Z</time>
      </trkpt>
      <trkpt lat="45.19939" lon="5.63141">
        <ele>626</ele>
        <time>2019-08-11T12:57:24.000Z</time>
      </trkpt>
      <trkpt lat="45.19918" lon="5.63138">
        <ele>625.79998779297</ele>
        <time>2019-08-11T12:57:28.000Z</time>
      </trkpt>
      <trkpt lat="45.19908" lon="5.63147">
        <ele>625.40002441406</ele>
        <time>2019-08-11T12:57:30.000Z</time>
      </trkpt>
      <trkpt lat="45.19906" lon="5.63154">
        <ele>625.20001220703</ele>
        <time>2019-08-11T12:57:31.000Z</time>
      </trkpt>
      <trkpt lat="45.19908" lon="5.63177">
        <ele>624.79998779297</ele>
        <time>2019-08-11T12:57:34.000Z</time>
      </trkpt>
      <trkpt lat="45.1992" lon="5.63193">
        <ele>624.40002441406</ele>
        <time>2019-08-11T12:57:37.000Z</time>
      </trkpt>
      <trkpt lat="45.19925" lon="5.63196">
        <ele>624.40002441406</ele>
        <time>2019-08-11T12:57:38.000Z</time>
      </trkpt>
      <trkpt lat="45.19935" lon="5.63198">
        <ele>624</ele>
        <time>2019-08-11T12:57:40.000Z</time>
      </trkpt>
      <trkpt lat="45.1994" lon="5.63198">
        <ele>623.79998779297</ele>
        <time>2019-08-11T12:57:41.000Z</time>
      </trkpt>
      <trkpt lat="45.19955" lon="5.63201">
        <ele>623.20001220703</ele>
        <time>2019-08-11T12:57:44.000Z</time>
      </trkpt>
      <trkpt lat="45.19968" lon="5.63205">
        <ele>622.40002441406</ele>
        <time>2019-08-11T12:57:47.000Z</time>
      </trkpt>
      <trkpt lat="45.19971" lon="5.63206">
        <ele>622.20001220703</ele>
        <time>2019-08-11T12:57:48.000Z</time>
      </trkpt>
      <trkpt lat="45.19976" lon="5.63207">
        <ele>622</ele>
        <time>2019-08-11T12:57:51.000Z</time>
      </trkpt>
      <trkpt lat="45.19976" lon="5.63206">
        <ele>621.79998779297</ele>
        <time>2019-08-11T12:58:00.000Z</time>
      </trkpt>
      <trkpt lat="45.19976" lon="5.63206">
        <ele>621.59997558594</ele>
        <time>2019-08-11T12:58:10.000Z</time>
      </trkpt>
      <trkpt lat="45.19976" lon="5.63206">
        <ele>621.59997558594</ele>
        <time>2019-08-11T12:58:17.000Z</time>
      </trkpt>
      <trkpt lat="45.19976" lon="5.63206">
        <ele>621.79998779297</ele>
        <time>2019-08-11T12:58:47.000Z</time>
      </trkpt>
      <trkpt lat="45.19977" lon="5.63207">
        <ele>622</ele>
        <time>2019-08-11T12:59:04.000Z</time>
      </trkpt>
      <trkpt lat="45.19978" lon="5.63209">
        <ele>621.79998779297</ele>
        <time>2019-08-11T12:59:06.000Z</time>
      </trkpt>
      <trkpt lat="45.19982" lon="5.63211">
        <ele>621.40002441406</ele>
        <time>2019-08-11T12:59:08.000Z</time>
      </trkpt>
      <trkpt lat="45.19988" lon="5.63214">
        <ele>620.79998779297</ele>
        <time>2019-08-11T12:59:10.000Z</time>
      </trkpt>
      <trkpt lat="45.19995" lon="5.63219">
        <ele>620.40002441406</ele>
        <time>2019-08-11T12:59:12.000Z</time>
      </trkpt>
      <trkpt lat="45.20009" lon="5.63229">
        <ele>619.59997558594</ele>
        <time>2019-08-11T12:59:15.000Z</time>
      </trkpt>
      <trkpt lat="45.20021" lon="5.63236">
        <ele>618.59997558594</ele>
        <time>2019-08-11T12:59:17.000Z</time>
      </trkpt>
      <trkpt lat="45.20035" lon="5.63243">
        <ele>617.20001220703</ele>
        <time>2019-08-11T12:59:19.000Z</time>
      </trkpt>
      <trkpt lat="45.20051" lon="5.6325">
        <ele>615.59997558594</ele>
        <time>2019-08-11T12:59:21.000Z</time>
      </trkpt>
      <trkpt lat="45.2006" lon="5.63251">
        <ele>614.79998779297</ele>
        <time>2019-08-11T12:59:22.000Z</time>
      </trkpt>
      <trkpt lat="45.20068" lon="5.63252">
        <ele>613.79998779297</ele>
        <time>2019-08-11T12:59:23.000Z</time>
      </trkpt>
      <trkpt lat="45.20086" lon="5.63257">
        <ele>612.59997558594</ele>
        <time>2019-08-11T12:59:25.000Z</time>
      </trkpt>
      <trkpt lat="45.20094" lon="5.6326">
        <ele>612</ele>
        <time>2019-08-11T12:59:26.000Z</time>
      </trkpt>
      <trkpt lat="45.20102" lon="5.63265">
        <ele>611.20001220703</ele>
        <time>2019-08-11T12:59:27.000Z</time>
      </trkpt>
      <trkpt lat="45.20111" lon="5.63271">
        <ele>610.20001220703</ele>
        <time>2019-08-11T12:59:28.000Z</time>
      </trkpt>
      <trkpt lat="45.20129" lon="5.63281">
        <ele>608.40002441406</ele>
        <time>2019-08-11T12:59:30.000Z</time>
      </trkpt>
      <trkpt lat="45.20138" lon="5.63285">
        <ele>607</ele>
        <time>2019-08-11T12:59:31.000Z</time>
      </trkpt>
      <trkpt lat="45.20156" lon="5.63293">
        <ele>605.59997558594</ele>
        <time>2019-08-11T12:59:33.000Z</time>
      </trkpt>
      <trkpt lat="45.20164" lon="5.633">
        <ele>604.40002441406</ele>
        <time>2019-08-11T12:59:34.000Z</time>
      </trkpt>
      <trkpt lat="45.20171" lon="5.63307">
        <ele>603</ele>
        <time>2019-08-11T12:59:35.000Z</time>
      </trkpt>
      <trkpt lat="45.20178" lon="5.63316">
        <ele>601.59997558594</ele>
        <time>2019-08-11T12:59:36.000Z</time>
      </trkpt>
      <trkpt lat="45.20185" lon="5.63323">
        <ele>600.20001220703</ele>
        <time>2019-08-11T12:59:37.000Z</time>
      </trkpt>
      <trkpt lat="45.20192" lon="5.63329">
        <ele>599.20001220703</ele>
        <time>2019-08-11T12:59:38.000Z</time>
      </trkpt>
      <trkpt lat="45.20199" lon="5.63332">
        <ele>598.79998779297</ele>
        <time>2019-08-11T12:59:39.000Z</time>
      </trkpt>
      <trkpt lat="45.20205" lon="5.63334">
        <ele>598.20001220703</ele>
        <time>2019-08-11T12:59:40.000Z</time>
      </trkpt>
      <trkpt lat="45.20211" lon="5.63337">
        <ele>597.79998779297</ele>
        <time>2019-08-11T12:59:41.000Z</time>
      </trkpt>
      <trkpt lat="45.20224" lon="5.63343">
        <ele>596</ele>
        <time>2019-08-11T12:59:43.000Z</time>
      </trkpt>
      <trkpt lat="45.2023" lon="5.63346">
        <ele>595.40002441406</ele>
        <time>2019-08-11T12:59:44.000Z</time>
      </trkpt>
      <trkpt lat="45.20235" lon="5.63351">
        <ele>595</ele>
        <time>2019-08-11T12:59:45.000Z</time>
      </trkpt>
      <trkpt lat="45.20242" lon="5.63367">
        <ele>592.79998779297</ele>
        <time>2019-08-11T12:59:47.000Z</time>
      </trkpt>
      <trkpt lat="45.20245" lon="5.63377">
        <ele>592</ele>
        <time>2019-08-11T12:59:48.000Z</time>
      </trkpt>
      <trkpt lat="45.20247" lon="5.63387">
        <ele>591.20001220703</ele>
        <time>2019-08-11T12:59:49.000Z</time>
      </trkpt>
      <trkpt lat="45.20251" lon="5.63408">
        <ele>589.79998779297</ele>
        <time>2019-08-11T12:59:51.000Z</time>
      </trkpt>
      <trkpt lat="45.20253" lon="5.6342">
        <ele>589.20001220703</ele>
        <time>2019-08-11T12:59:52.000Z</time>
      </trkpt>
      <trkpt lat="45.20255" lon="5.63432">
        <ele>588.40002441406</ele>
        <time>2019-08-11T12:59:53.000Z</time>
      </trkpt>
      <trkpt lat="45.2026" lon="5.63454">
        <ele>586.59997558594</ele>
        <time>2019-08-11T12:59:55.000Z</time>
      </trkpt>
      <trkpt lat="45.20263" lon="5.63465">
        <ele>585.59997558594</ele>
        <time>2019-08-11T12:59:56.000Z</time>
      </trkpt>
      <trkpt lat="45.20267" lon="5.63476">
        <ele>585.20001220703</ele>
        <time>2019-08-11T12:59:57.000Z</time>
      </trkpt>
      <trkpt lat="45.20272" lon="5.63488">
        <ele>584.20001220703</ele>
        <time>2019-08-11T12:59:58.000Z</time>
      </trkpt>
      <trkpt lat="45.20276" lon="5.635">
        <ele>583.20001220703</ele>
        <time>2019-08-11T12:59:59.000Z</time>
      </trkpt>
      <trkpt lat="45.2028" lon="5.63512">
        <ele>582.59997558594</ele>
        <time>2019-08-11T13:00:00.000Z</time>
      </trkpt>
      <trkpt lat="45.20284" lon="5.63525">
        <ele>582</ele>
        <time>2019-08-11T13:00:01.000Z</time>
      </trkpt>
      <trkpt lat="45.20293" lon="5.63549">
        <ele>580.40002441406</ele>
        <time>2019-08-11T13:00:03.000Z</time>
      </trkpt>
      <trkpt lat="45.20299" lon="5.63561">
        <ele>579.59997558594</ele>
        <time>2019-08-11T13:00:04.000Z</time>
      </trkpt>
      <trkpt lat="45.20305" lon="5.63572">
        <ele>578.59997558594</ele>
        <time>2019-08-11T13:00:05.000Z</time>
      </trkpt>
      <trkpt lat="45.20317" lon="5.63594">
        <ele>577</ele>
        <time>2019-08-11T13:00:07.000Z</time>
      </trkpt>
      <trkpt lat="45.20329" lon="5.63612">
        <ele>576.40002441406</ele>
        <time>2019-08-11T13:00:09.000Z</time>
      </trkpt>
      <trkpt lat="45.20338" lon="5.63632">
        <ele>575.79998779297</ele>
        <time>2019-08-11T13:00:11.000Z</time>
      </trkpt>
      <trkpt lat="45.20338" lon="5.63643">
        <ele>575</ele>
        <time>2019-08-11T13:00:12.000Z</time>
      </trkpt>
      <trkpt lat="45.20337" lon="5.63654">
        <ele>574.40002441406</ele>
        <time>2019-08-11T13:00:13.000Z</time>
      </trkpt>
      <trkpt lat="45.20335" lon="5.63665">
        <ele>573.20001220703</ele>
        <time>2019-08-11T13:00:14.000Z</time>
      </trkpt>
      <trkpt lat="45.20334" lon="5.63676">
        <ele>572.20001220703</ele>
        <time>2019-08-11T13:00:15.000Z</time>
      </trkpt>
      <trkpt lat="45.20334" lon="5.63686">
        <ele>571.79998779297</ele>
        <time>2019-08-11T13:00:16.000Z</time>
      </trkpt>
      <trkpt lat="45.20341" lon="5.63716">
        <ele>569.40002441406</ele>
        <time>2019-08-11T13:00:19.000Z</time>
      </trkpt>
      <trkpt lat="45.20353" lon="5.63732">
        <ele>567.79998779297</ele>
        <time>2019-08-11T13:00:21.000Z</time>
      </trkpt>
      <trkpt lat="45.20359" lon="5.6374">
        <ele>567</ele>
        <time>2019-08-11T13:00:22.000Z</time>
      </trkpt>
      <trkpt lat="45.20366" lon="5.63749">
        <ele>566.40002441406</ele>
        <time>2019-08-11T13:00:23.000Z</time>
      </trkpt>
      <trkpt lat="45.20372" lon="5.63757">
        <ele>564.79998779297</ele>
        <time>2019-08-11T13:00:24.000Z</time>
      </trkpt>
      <trkpt lat="45.20378" lon="5.63765">
        <ele>563.40002441406</ele>
        <time>2019-08-11T13:00:25.000Z</time>
      </trkpt>
      <trkpt lat="45.2039" lon="5.63782">
        <ele>561.20001220703</ele>
        <time>2019-08-11T13:00:27.000Z</time>
      </trkpt>
      <trkpt lat="45.20396" lon="5.63789">
        <ele>560.40002441406</ele>
        <time>2019-08-11T13:00:28.000Z</time>
      </trkpt>
      <trkpt lat="45.20402" lon="5.63797">
        <ele>559.79998779297</ele>
        <time>2019-08-11T13:00:29.000Z</time>
      </trkpt>
      <trkpt lat="45.20408" lon="5.63804">
        <ele>558.79998779297</ele>
        <time>2019-08-11T13:00:30.000Z</time>
      </trkpt>
      <trkpt lat="45.20415" lon="5.63811">
        <ele>558.40002441406</ele>
        <time>2019-08-11T13:00:31.000Z</time>
      </trkpt>
      <trkpt lat="45.20422" lon="5.63817">
        <ele>557.79998779297</ele>
        <time>2019-08-11T13:00:32.000Z</time>
      </trkpt>
      <trkpt lat="45.20429" lon="5.63825">
        <ele>557.40002441406</ele>
        <time>2019-08-11T13:00:33.000Z</time>
      </trkpt>
      <trkpt lat="45.20436" lon="5.63833">
        <ele>557</ele>
        <time>2019-08-11T13:00:34.000Z</time>
      </trkpt>
      <trkpt lat="45.20443" lon="5.63841">
        <ele>555.59997558594</ele>
        <time>2019-08-11T13:00:35.000Z</time>
      </trkpt>
      <trkpt lat="45.2045" lon="5.6385">
        <ele>554</ele>
        <time>2019-08-11T13:00:36.000Z</time>
      </trkpt>
      <trkpt lat="45.20456" lon="5.6386">
        <ele>552.40002441406</ele>
        <time>2019-08-11T13:00:37.000Z</time>
      </trkpt>
      <trkpt lat="45.20462" lon="5.63871">
        <ele>551.20001220703</ele>
        <time>2019-08-11T13:00:38.000Z</time>
      </trkpt>
      <trkpt lat="45.20467" lon="5.63882">
        <ele>550.40002441406</ele>
        <time>2019-08-11T13:00:39.000Z</time>
      </trkpt>
      <trkpt lat="45.20472" lon="5.63893">
        <ele>549.59997558594</ele>
        <time>2019-08-11T13:00:40.000Z</time>
      </trkpt>
      <trkpt lat="45.20481" lon="5.63914">
        <ele>548</ele>
        <time>2019-08-11T13:00:42.000Z</time>
      </trkpt>
      <trkpt lat="45.20486" lon="5.63925">
        <ele>546.79998779297</ele>
        <time>2019-08-11T13:00:43.000Z</time>
      </trkpt>
      <trkpt lat="45.20491" lon="5.63936">
        <ele>545.79998779297</ele>
        <time>2019-08-11T13:00:44.000Z</time>
      </trkpt>
      <trkpt lat="45.20497" lon="5.63947">
        <ele>545.20001220703</ele>
        <time>2019-08-11T13:00:45.000Z</time>
      </trkpt>
      <trkpt lat="45.2051" lon="5.63967">
        <ele>543.40002441406</ele>
        <time>2019-08-11T13:00:47.000Z</time>
      </trkpt>
      <trkpt lat="45.20516" lon="5.63976">
        <ele>542</ele>
        <time>2019-08-11T13:00:48.000Z</time>
      </trkpt>
      <trkpt lat="45.20528" lon="5.63995">
        <ele>541</ele>
        <time>2019-08-11T13:00:50.000Z</time>
      </trkpt>
      <trkpt lat="45.20534" lon="5.64006">
        <ele>539</ele>
        <time>2019-08-11T13:00:51.000Z</time>
      </trkpt>
      <trkpt lat="45.2054" lon="5.64018">
        <ele>538</ele>
        <time>2019-08-11T13:00:52.000Z</time>
      </trkpt>
      <trkpt lat="45.20544" lon="5.6403">
        <ele>536.59997558594</ele>
        <time>2019-08-11T13:00:53.000Z</time>
      </trkpt>
      <trkpt lat="45.20554" lon="5.64052">
        <ele>534.59997558594</ele>
        <time>2019-08-11T13:00:55.000Z</time>
      </trkpt>
      <trkpt lat="45.20559" lon="5.64063">
        <ele>533.20001220703</ele>
        <time>2019-08-11T13:00:56.000Z</time>
      </trkpt>
      <trkpt lat="45.20564" lon="5.64074">
        <ele>531.59997558594</ele>
        <time>2019-08-11T13:00:57.000Z</time>
      </trkpt>
      <trkpt lat="45.20569" lon="5.64087">
        <ele>530.40002441406</ele>
        <time>2019-08-11T13:00:58.000Z</time>
      </trkpt>
      <trkpt lat="45.20574" lon="5.64099">
        <ele>529.20001220703</ele>
        <time>2019-08-11T13:00:59.000Z</time>
      </trkpt>
      <trkpt lat="45.2058" lon="5.64111">
        <ele>528.20001220703</ele>
        <time>2019-08-11T13:01:00.000Z</time>
      </trkpt>
      <trkpt lat="45.2059" lon="5.64133">
        <ele>526.79998779297</ele>
        <time>2019-08-11T13:01:02.000Z</time>
      </trkpt>
      <trkpt lat="45.20596" lon="5.64143">
        <ele>525.59997558594</ele>
        <time>2019-08-11T13:01:03.000Z</time>
      </trkpt>
      <trkpt lat="45.20602" lon="5.64153">
        <ele>524.40002441406</ele>
        <time>2019-08-11T13:01:04.000Z</time>
      </trkpt>
      <trkpt lat="45.2061" lon="5.6416">
        <ele>523.40002441406</ele>
        <time>2019-08-11T13:01:05.000Z</time>
      </trkpt>
      <trkpt lat="45.20625" lon="5.64171">
        <ele>522.40002441406</ele>
        <time>2019-08-11T13:01:07.000Z</time>
      </trkpt>
      <trkpt lat="45.20632" lon="5.64174">
        <ele>522.20001220703</ele>
        <time>2019-08-11T13:01:08.000Z</time>
      </trkpt>
      <trkpt lat="45.20646" lon="5.64177">
        <ele>520.79998779297</ele>
        <time>2019-08-11T13:01:10.000Z</time>
      </trkpt>
      <trkpt lat="45.20654" lon="5.64178">
        <ele>519.79998779297</ele>
        <time>2019-08-11T13:01:11.000Z</time>
      </trkpt>
      <trkpt lat="45.20663" lon="5.64179">
        <ele>519.40002441406</ele>
        <time>2019-08-11T13:01:12.000Z</time>
      </trkpt>
      <trkpt lat="45.20671" lon="5.64179">
        <ele>519</ele>
        <time>2019-08-11T13:01:13.000Z</time>
      </trkpt>
      <trkpt lat="45.20678" lon="5.6418">
        <ele>518.40002441406</ele>
        <time>2019-08-11T13:01:14.000Z</time>
      </trkpt>
      <trkpt lat="45.20683" lon="5.64179">
        <ele>517.79998779297</ele>
        <time>2019-08-11T13:01:15.000Z</time>
      </trkpt>
      <trkpt lat="45.20687" lon="5.64178">
        <ele>517.59997558594</ele>
        <time>2019-08-11T13:01:16.000Z</time>
      </trkpt>
      <trkpt lat="45.20691" lon="5.64176">
        <ele>517.20001220703</ele>
        <time>2019-08-11T13:01:17.000Z</time>
      </trkpt>
      <trkpt lat="45.20694" lon="5.64176">
        <ele>516.40002441406</ele>
        <time>2019-08-11T13:01:18.000Z</time>
      </trkpt>
      <trkpt lat="45.20701" lon="5.64174">
        <ele>515.20001220703</ele>
        <time>2019-08-11T13:01:20.000Z</time>
      </trkpt>
      <trkpt lat="45.20709" lon="5.64173">
        <ele>513.79998779297</ele>
        <time>2019-08-11T13:01:22.000Z</time>
      </trkpt>
      <trkpt lat="45.20714" lon="5.64173">
        <ele>513</ele>
        <time>2019-08-11T13:01:23.000Z</time>
      </trkpt>
      <trkpt lat="45.2072" lon="5.64173">
        <ele>512.40002441406</ele>
        <time>2019-08-11T13:01:24.000Z</time>
      </trkpt>
      <trkpt lat="45.20731" lon="5.64176">
        <ele>511</ele>
        <time>2019-08-11T13:01:26.000Z</time>
      </trkpt>
      <trkpt lat="45.20737" lon="5.6418">
        <ele>510.20001220703</ele>
        <time>2019-08-11T13:01:27.000Z</time>
      </trkpt>
      <trkpt lat="45.20742" lon="5.64185">
        <ele>509</ele>
        <time>2019-08-11T13:01:28.000Z</time>
      </trkpt>
      <trkpt lat="45.2075" lon="5.6419">
        <ele>507.60000610352</ele>
        <time>2019-08-11T13:01:30.000Z</time>
      </trkpt>
      <trkpt lat="45.20753" lon="5.64192">
        <ele>507</ele>
        <time>2019-08-11T13:01:31.000Z</time>
      </trkpt>
      <trkpt lat="45.20755" lon="5.64194">
        <ele>506.60000610352</ele>
        <time>2019-08-11T13:01:32.000Z</time>
      </trkpt>
      <trkpt lat="45.20757" lon="5.64196">
        <ele>505.60000610352</ele>
        <time>2019-08-11T13:01:35.000Z</time>
      </trkpt>
      <trkpt lat="45.20758" lon="5.64196">
        <ele>505.60000610352</ele>
        <time>2019-08-11T13:01:36.000Z</time>
      </trkpt>
      <trkpt lat="45.20759" lon="5.64196">
        <ele>505.20001220703</ele>
        <time>2019-08-11T13:01:46.000Z</time>
      </trkpt>
      <trkpt lat="45.20759" lon="5.64195">
        <ele>505.20001220703</ele>
        <time>2019-08-11T13:01:54.000Z</time>
      </trkpt>
      <trkpt lat="45.2076" lon="5.64195">
        <ele>505.20001220703</ele>
        <time>2019-08-11T13:02:05.000Z</time>
      </trkpt>
      <trkpt lat="45.2076" lon="5.64194">
        <ele>505.39999389648</ele>
        <time>2019-08-11T13:02:13.000Z</time>
      </trkpt>
      <trkpt lat="45.20761" lon="5.64194">
        <ele>505.20001220703</ele>
        <time>2019-08-11T13:02:17.000Z</time>
      </trkpt>
      <trkpt lat="45.20761" lon="5.64194">
        <ele>505</ele>
        <time>2019-08-11T13:02:25.000Z</time>
      </trkpt>
      <trkpt lat="45.20762" lon="5.64194">
        <ele>505.20001220703</ele>
        <time>2019-08-11T13:02:32.000Z</time>
      </trkpt>
      <trkpt lat="45.20763" lon="5.64195">
        <ele>505.20001220703</ele>
        <time>2019-08-11T13:02:34.000Z</time>
      </trkpt>
      <trkpt lat="45.2077" lon="5.642">
        <ele>505</ele>
        <time>2019-08-11T13:02:37.000Z</time>
      </trkpt>
      <trkpt lat="45.20776" lon="5.64207">
        <ele>504.60000610352</ele>
        <time>2019-08-11T13:02:39.000Z</time>
      </trkpt>
      <trkpt lat="45.20784" lon="5.64214">
        <ele>504</ele>
        <time>2019-08-11T13:02:41.000Z</time>
      </trkpt>
      <trkpt lat="45.20789" lon="5.64217">
        <ele>503.79998779297</ele>
        <time>2019-08-11T13:02:42.000Z</time>
      </trkpt>
      <trkpt lat="45.20798" lon="5.64223">
        <ele>502.79998779297</ele>
        <time>2019-08-11T13:02:44.000Z</time>
      </trkpt>
      <trkpt lat="45.20803" lon="5.64226">
        <ele>502.20001220703</ele>
        <time>2019-08-11T13:02:45.000Z</time>
      </trkpt>
      <trkpt lat="45.20809" lon="5.64226">
        <ele>501</ele>
        <time>2019-08-11T13:02:46.000Z</time>
      </trkpt>
      <trkpt lat="45.20815" lon="5.64227">
        <ele>500</ele>
        <time>2019-08-11T13:02:47.000Z</time>
      </trkpt>
      <trkpt lat="45.20822" lon="5.64225">
        <ele>498.20001220703</ele>
        <time>2019-08-11T13:02:49.000Z</time>
      </trkpt>
      <trkpt lat="45.20825" lon="5.64223">
        <ele>497.60000610352</ele>
        <time>2019-08-11T13:02:50.000Z</time>
      </trkpt>
      <trkpt lat="45.20827" lon="5.64222">
        <ele>497.20001220703</ele>
        <time>2019-08-11T13:02:51.000Z</time>
      </trkpt>
      <trkpt lat="45.20827" lon="5.64222">
        <ele>496.60000610352</ele>
        <time>2019-08-11T13:02:53.000Z</time>
      </trkpt>
      <trkpt lat="45.20827" lon="5.64222">
        <ele>496.20001220703</ele>
        <time>2019-08-11T13:03:04.000Z</time>
      </trkpt>
      <trkpt lat="45.20827" lon="5.64222">
        <ele>496</ele>
        <time>2019-08-11T13:03:07.000Z</time>
      </trkpt>
      <trkpt lat="45.20838" lon="5.64226">
        <ele>495.79998779297</ele>
        <time>2019-08-11T13:03:12.000Z</time>
      </trkpt>
      <trkpt lat="45.20845" lon="5.64231">
        <ele>495</ele>
        <time>2019-08-11T13:03:14.000Z</time>
      </trkpt>
      <trkpt lat="45.20852" lon="5.64236">
        <ele>494</ele>
        <time>2019-08-11T13:03:16.000Z</time>
      </trkpt>
      <trkpt lat="45.20856" lon="5.64239">
        <ele>493.60000610352</ele>
        <time>2019-08-11T13:03:17.000Z</time>
      </trkpt>
      <trkpt lat="45.20872" lon="5.64248">
        <ele>492.20001220703</ele>
        <time>2019-08-11T13:03:20.000Z</time>
      </trkpt>
      <trkpt lat="45.20878" lon="5.64249">
        <ele>491.39999389648</ele>
        <time>2019-08-11T13:03:21.000Z</time>
      </trkpt>
      <trkpt lat="45.20884" lon="5.64248">
        <ele>490.60000610352</ele>
        <time>2019-08-11T13:03:22.000Z</time>
      </trkpt>
      <trkpt lat="45.2089" lon="5.64248">
        <ele>489.79998779297</ele>
        <time>2019-08-11T13:03:23.000Z</time>
      </trkpt>
      <trkpt lat="45.20897" lon="5.64249">
        <ele>489.39999389648</ele>
        <time>2019-08-11T13:03:24.000Z</time>
      </trkpt>
      <trkpt lat="45.20905" lon="5.6425">
        <ele>488.79998779297</ele>
        <time>2019-08-11T13:03:25.000Z</time>
      </trkpt>
      <trkpt lat="45.20913" lon="5.6425">
        <ele>487.60000610352</ele>
        <time>2019-08-11T13:03:26.000Z</time>
      </trkpt>
      <trkpt lat="45.2092" lon="5.6425">
        <ele>486.20001220703</ele>
        <time>2019-08-11T13:03:27.000Z</time>
      </trkpt>
      <trkpt lat="45.20928" lon="5.64248">
        <ele>485</ele>
        <time>2019-08-11T13:03:28.000Z</time>
      </trkpt>
      <trkpt lat="45.20935" lon="5.64246">
        <ele>484.39999389648</ele>
        <time>2019-08-11T13:03:29.000Z</time>
      </trkpt>
      <trkpt lat="45.20941" lon="5.64243">
        <ele>484</ele>
        <time>2019-08-11T13:03:30.000Z</time>
      </trkpt>
      <trkpt lat="45.20947" lon="5.6424">
        <ele>483.39999389648</ele>
        <time>2019-08-11T13:03:31.000Z</time>
      </trkpt>
      <trkpt lat="45.20954" lon="5.64237">
        <ele>482.79998779297</ele>
        <time>2019-08-11T13:03:32.000Z</time>
      </trkpt>
      <trkpt lat="45.2096" lon="5.64234">
        <ele>481.79998779297</ele>
        <time>2019-08-11T13:03:33.000Z</time>
      </trkpt>
      <trkpt lat="45.20967" lon="5.64231">
        <ele>481</ele>
        <time>2019-08-11T13:03:34.000Z</time>
      </trkpt>
      <trkpt lat="45.20978" lon="5.64226">
        <ele>479.20001220703</ele>
        <time>2019-08-11T13:03:36.000Z</time>
      </trkpt>
      <trkpt lat="45.20983" lon="5.64223">
        <ele>478.20001220703</ele>
        <time>2019-08-11T13:03:37.000Z</time>
      </trkpt>
      <trkpt lat="45.20987" lon="5.64221">
        <ele>477.60000610352</ele>
        <time>2019-08-11T13:03:38.000Z</time>
      </trkpt>
      <trkpt lat="45.20995" lon="5.64218">
        <ele>476.39999389648</ele>
        <time>2019-08-11T13:03:40.000Z</time>
      </trkpt>
      <trkpt lat="45.21004" lon="5.64217">
        <ele>475</ele>
        <time>2019-08-11T13:03:42.000Z</time>
      </trkpt>
      <trkpt lat="45.2101" lon="5.64218">
        <ele>474</ele>
        <time>2019-08-11T13:03:43.000Z</time>
      </trkpt>
      <trkpt lat="45.21015" lon="5.64219">
        <ele>473</ele>
        <time>2019-08-11T13:03:44.000Z</time>
      </trkpt>
      <trkpt lat="45.2102" lon="5.64221">
        <ele>471.79998779297</ele>
        <time>2019-08-11T13:03:45.000Z</time>
      </trkpt>
      <trkpt lat="45.21025" lon="5.64223">
        <ele>471</ele>
        <time>2019-08-11T13:03:46.000Z</time>
      </trkpt>
      <trkpt lat="45.2103" lon="5.64226">
        <ele>469.79998779297</ele>
        <time>2019-08-11T13:03:47.000Z</time>
      </trkpt>
      <trkpt lat="45.21034" lon="5.64229">
        <ele>469.20001220703</ele>
        <time>2019-08-11T13:03:48.000Z</time>
      </trkpt>
      <trkpt lat="45.21038" lon="5.64231">
        <ele>468.79998779297</ele>
        <time>2019-08-11T13:03:49.000Z</time>
      </trkpt>
      <trkpt lat="45.21047" lon="5.64231">
        <ele>467</ele>
        <time>2019-08-11T13:03:51.000Z</time>
      </trkpt>
      <trkpt lat="45.21051" lon="5.64231">
        <ele>466.39999389648</ele>
        <time>2019-08-11T13:03:52.000Z</time>
      </trkpt>
      <trkpt lat="45.21055" lon="5.64232">
        <ele>466</ele>
        <time>2019-08-11T13:03:53.000Z</time>
      </trkpt>
      <trkpt lat="45.21065" lon="5.64234">
        <ele>464</ele>
        <time>2019-08-11T13:03:55.000Z</time>
      </trkpt>
      <trkpt lat="45.21074" lon="5.64233">
        <ele>461.60000610352</ele>
        <time>2019-08-11T13:03:57.000Z</time>
      </trkpt>
      <trkpt lat="45.21078" lon="5.64232">
        <ele>460.39999389648</ele>
        <time>2019-08-11T13:03:58.000Z</time>
      </trkpt>
      <trkpt lat="45.21086" lon="5.64233">
        <ele>458.79998779297</ele>
        <time>2019-08-11T13:04:00.000Z</time>
      </trkpt>
      <trkpt lat="45.21089" lon="5.64237">
        <ele>458.20001220703</ele>
        <time>2019-08-11T13:04:01.000Z</time>
      </trkpt>
      <trkpt lat="45.21092" lon="5.64244">
        <ele>457</ele>
        <time>2019-08-11T13:04:02.000Z</time>
      </trkpt>
      <trkpt lat="45.21093" lon="5.64251">
        <ele>455.79998779297</ele>
        <time>2019-08-11T13:04:03.000Z</time>
      </trkpt>
      <trkpt lat="45.21094" lon="5.64258">
        <ele>454.79998779297</ele>
        <time>2019-08-11T13:04:04.000Z</time>
      </trkpt>
      <trkpt lat="45.21092" lon="5.64265">
        <ele>454</ele>
        <time>2019-08-11T13:04:05.000Z</time>
      </trkpt>
      <trkpt lat="45.21089" lon="5.64273">
        <ele>453</ele>
        <time>2019-08-11T13:04:06.000Z</time>
      </trkpt>
      <trkpt lat="45.21085" lon="5.6428">
        <ele>452.20001220703</ele>
        <time>2019-08-11T13:04:07.000Z</time>
      </trkpt>
      <trkpt lat="45.21074" lon="5.64293">
        <ele>450</ele>
        <time>2019-08-11T13:04:09.000Z</time>
      </trkpt>
      <trkpt lat="45.21069" lon="5.64299">
        <ele>448.79998779297</ele>
        <time>2019-08-11T13:04:10.000Z</time>
      </trkpt>
      <trkpt lat="45.21065" lon="5.64305">
        <ele>447.20001220703</ele>
        <time>2019-08-11T13:04:11.000Z</time>
      </trkpt>
      <trkpt lat="45.21061" lon="5.64312">
        <ele>446.20001220703</ele>
        <time>2019-08-11T13:04:12.000Z</time>
      </trkpt>
      <trkpt lat="45.21061" lon="5.64321">
        <ele>445</ele>
        <time>2019-08-11T13:04:13.000Z</time>
      </trkpt>
      <trkpt lat="45.21064" lon="5.64338">
        <ele>443.20001220703</ele>
        <time>2019-08-11T13:04:15.000Z</time>
      </trkpt>
      <trkpt lat="45.21066" lon="5.64345">
        <ele>442</ele>
        <time>2019-08-11T13:04:16.000Z</time>
      </trkpt>
      <trkpt lat="45.21068" lon="5.64351">
        <ele>440.79998779297</ele>
        <time>2019-08-11T13:04:17.000Z</time>
      </trkpt>
      <trkpt lat="45.21071" lon="5.64357">
        <ele>439.60000610352</ele>
        <time>2019-08-11T13:04:18.000Z</time>
      </trkpt>
      <trkpt lat="45.21072" lon="5.64361">
        <ele>438.39999389648</ele>
        <time>2019-08-11T13:04:19.000Z</time>
      </trkpt>
      <trkpt lat="45.21073" lon="5.64366">
        <ele>437.20001220703</ele>
        <time>2019-08-11T13:04:20.000Z</time>
      </trkpt>
      <trkpt lat="45.21075" lon="5.6437">
        <ele>436.39999389648</ele>
        <time>2019-08-11T13:04:21.000Z</time>
      </trkpt>
      <trkpt lat="45.21076" lon="5.64375">
        <ele>435.39999389648</ele>
        <time>2019-08-11T13:04:22.000Z</time>
      </trkpt>
      <trkpt lat="45.21078" lon="5.64386">
        <ele>433.60000610352</ele>
        <time>2019-08-11T13:04:24.000Z</time>
      </trkpt>
      <trkpt lat="45.21077" lon="5.64392">
        <ele>433</ele>
        <time>2019-08-11T13:04:25.000Z</time>
      </trkpt>
      <trkpt lat="45.21077" lon="5.644">
        <ele>432</ele>
        <time>2019-08-11T13:04:26.000Z</time>
      </trkpt>
      <trkpt lat="45.21076" lon="5.64409">
        <ele>431</ele>
        <time>2019-08-11T13:04:27.000Z</time>
      </trkpt>
      <trkpt lat="45.21073" lon="5.64425">
        <ele>429.79998779297</ele>
        <time>2019-08-11T13:04:29.000Z</time>
      </trkpt>
      <trkpt lat="45.21071" lon="5.64441">
        <ele>428</ele>
        <time>2019-08-11T13:04:31.000Z</time>
      </trkpt>
      <trkpt lat="45.21071" lon="5.64449">
        <ele>427.20001220703</ele>
        <time>2019-08-11T13:04:32.000Z</time>
      </trkpt>
      <trkpt lat="45.2107" lon="5.64456">
        <ele>426.60000610352</ele>
        <time>2019-08-11T13:04:33.000Z</time>
      </trkpt>
      <trkpt lat="45.2107" lon="5.64463">
        <ele>425.79998779297</ele>
        <time>2019-08-11T13:04:34.000Z</time>
      </trkpt>
      <trkpt lat="45.21069" lon="5.64471">
        <ele>424.60000610352</ele>
        <time>2019-08-11T13:04:35.000Z</time>
      </trkpt>
      <trkpt lat="45.21068" lon="5.64478">
        <ele>423.79998779297</ele>
        <time>2019-08-11T13:04:36.000Z</time>
      </trkpt>
      <trkpt lat="45.21067" lon="5.64485">
        <ele>422.60000610352</ele>
        <time>2019-08-11T13:04:37.000Z</time>
      </trkpt>
      <trkpt lat="45.21064" lon="5.64493">
        <ele>421.60000610352</ele>
        <time>2019-08-11T13:04:38.000Z</time>
      </trkpt>
      <trkpt lat="45.21062" lon="5.64501">
        <ele>421</ele>
        <time>2019-08-11T13:04:39.000Z</time>
      </trkpt>
      <trkpt lat="45.2106" lon="5.64509">
        <ele>419.60000610352</ele>
        <time>2019-08-11T13:04:40.000Z</time>
      </trkpt>
      <trkpt lat="45.21057" lon="5.64517">
        <ele>418.39999389648</ele>
        <time>2019-08-11T13:04:41.000Z</time>
      </trkpt>
      <trkpt lat="45.21053" lon="5.64524">
        <ele>417</ele>
        <time>2019-08-11T13:04:42.000Z</time>
      </trkpt>
      <trkpt lat="45.21048" lon="5.64532">
        <ele>415</ele>
        <time>2019-08-11T13:04:43.000Z</time>
      </trkpt>
      <trkpt lat="45.21041" lon="5.64539">
        <ele>413.60000610352</ele>
        <time>2019-08-11T13:04:44.000Z</time>
      </trkpt>
      <trkpt lat="45.21035" lon="5.64547">
        <ele>412.39999389648</ele>
        <time>2019-08-11T13:04:45.000Z</time>
      </trkpt>
      <trkpt lat="45.2103" lon="5.64554">
        <ele>411</ele>
        <time>2019-08-11T13:04:46.000Z</time>
      </trkpt>
      <trkpt lat="45.21025" lon="5.6456">
        <ele>409.39999389648</ele>
        <time>2019-08-11T13:04:47.000Z</time>
      </trkpt>
      <trkpt lat="45.21021" lon="5.64567">
        <ele>408.20001220703</ele>
        <time>2019-08-11T13:04:48.000Z</time>
      </trkpt>
      <trkpt lat="45.2102" lon="5.64576">
        <ele>406.60000610352</ele>
        <time>2019-08-11T13:04:49.000Z</time>
      </trkpt>
      <trkpt lat="45.21019" lon="5.64587">
        <ele>405.60000610352</ele>
        <time>2019-08-11T13:04:50.000Z</time>
      </trkpt>
      <trkpt lat="45.21019" lon="5.64599">
        <ele>404.20001220703</ele>
        <time>2019-08-11T13:04:51.000Z</time>
      </trkpt>
      <trkpt lat="45.21019" lon="5.6461">
        <ele>402.79998779297</ele>
        <time>2019-08-11T13:04:52.000Z</time>
      </trkpt>
      <trkpt lat="45.21019" lon="5.64629">
        <ele>401.20001220703</ele>
        <time>2019-08-11T13:04:54.000Z</time>
      </trkpt>
      <trkpt lat="45.21019" lon="5.64638">
        <ele>400</ele>
        <time>2019-08-11T13:04:55.000Z</time>
      </trkpt>
      <trkpt lat="45.2102" lon="5.64647">
        <ele>399</ele>
        <time>2019-08-11T13:04:56.000Z</time>
      </trkpt>
      <trkpt lat="45.21021" lon="5.64655">
        <ele>398</ele>
        <time>2019-08-11T13:04:57.000Z</time>
      </trkpt>
      <trkpt lat="45.21021" lon="5.64664">
        <ele>396.79998779297</ele>
        <time>2019-08-11T13:04:58.000Z</time>
      </trkpt>
      <trkpt lat="45.21021" lon="5.64671">
        <ele>395.60000610352</ele>
        <time>2019-08-11T13:04:59.000Z</time>
      </trkpt>
      <trkpt lat="45.21022" lon="5.64679">
        <ele>394.39999389648</ele>
        <time>2019-08-11T13:05:00.000Z</time>
      </trkpt>
      <trkpt lat="45.21022" lon="5.64686">
        <ele>393.60000610352</ele>
        <time>2019-08-11T13:05:01.000Z</time>
      </trkpt>
      <trkpt lat="45.21022" lon="5.64694">
        <ele>393.20001220703</ele>
        <time>2019-08-11T13:05:02.000Z</time>
      </trkpt>
      <trkpt lat="45.21022" lon="5.64701">
        <ele>392</ele>
        <time>2019-08-11T13:05:03.000Z</time>
      </trkpt>
      <trkpt lat="45.21022" lon="5.64708">
        <ele>391</ele>
        <time>2019-08-11T13:05:04.000Z</time>
      </trkpt>
      <trkpt lat="45.21024" lon="5.64714">
        <ele>390.20001220703</ele>
        <time>2019-08-11T13:05:05.000Z</time>
      </trkpt>
      <trkpt lat="45.21024" lon="5.64719">
        <ele>389.20001220703</ele>
        <time>2019-08-11T13:05:06.000Z</time>
      </trkpt>
      <trkpt lat="45.21024" lon="5.64725">
        <ele>388.20001220703</ele>
        <time>2019-08-11T13:05:07.000Z</time>
      </trkpt>
      <trkpt lat="45.2102" lon="5.64737">
        <ele>386.20001220703</ele>
        <time>2019-08-11T13:05:09.000Z</time>
      </trkpt>
      <trkpt lat="45.21016" lon="5.64744">
        <ele>385.20001220703</ele>
        <time>2019-08-11T13:05:10.000Z</time>
      </trkpt>
      <trkpt lat="45.21009" lon="5.6476">
        <ele>383.79998779297</ele>
        <time>2019-08-11T13:05:12.000Z</time>
      </trkpt>
      <trkpt lat="45.21001" lon="5.64777">
        <ele>382.20001220703</ele>
        <time>2019-08-11T13:05:14.000Z</time>
      </trkpt>
      <trkpt lat="45.20997" lon="5.64786">
        <ele>381.20001220703</ele>
        <time>2019-08-11T13:05:15.000Z</time>
      </trkpt>
      <trkpt lat="45.20994" lon="5.64794">
        <ele>380</ele>
        <time>2019-08-11T13:05:16.000Z</time>
      </trkpt>
      <trkpt lat="45.20988" lon="5.64811">
        <ele>378.39999389648</ele>
        <time>2019-08-11T13:05:18.000Z</time>
      </trkpt>
      <trkpt lat="45.20987" lon="5.6482">
        <ele>377.79998779297</ele>
        <time>2019-08-11T13:05:19.000Z</time>
      </trkpt>
      <trkpt lat="45.20987" lon="5.6483">
        <ele>377</ele>
        <time>2019-08-11T13:05:20.000Z</time>
      </trkpt>
      <trkpt lat="45.20994" lon="5.64847">
        <ele>376.20001220703</ele>
        <time>2019-08-11T13:05:22.000Z</time>
      </trkpt>
      <trkpt lat="45.21" lon="5.64853">
        <ele>375.60000610352</ele>
        <time>2019-08-11T13:05:23.000Z</time>
      </trkpt>
      <trkpt lat="45.21014" lon="5.64864">
        <ele>374.60000610352</ele>
        <time>2019-08-11T13:05:25.000Z</time>
      </trkpt>
      <trkpt lat="45.21033" lon="5.6488">
        <ele>373.60000610352</ele>
        <time>2019-08-11T13:05:28.000Z</time>
      </trkpt>
      <trkpt lat="45.21048" lon="5.6489">
        <ele>372.79998779297</ele>
        <time>2019-08-11T13:05:30.000Z</time>
      </trkpt>
      <trkpt lat="45.21056" lon="5.64895">
        <ele>372.39999389648</ele>
        <time>2019-08-11T13:05:31.000Z</time>
      </trkpt>
      <trkpt lat="45.21064" lon="5.649">
        <ele>371.79998779297</ele>
        <time>2019-08-11T13:05:32.000Z</time>
      </trkpt>
      <trkpt lat="45.21072" lon="5.64905">
        <ele>371.39999389648</ele>
        <time>2019-08-11T13:05:33.000Z</time>
      </trkpt>
      <trkpt lat="45.21081" lon="5.64909">
        <ele>370.39999389648</ele>
        <time>2019-08-11T13:05:34.000Z</time>
      </trkpt>
      <trkpt lat="45.21088" lon="5.64915">
        <ele>369.60000610352</ele>
        <time>2019-08-11T13:05:35.000Z</time>
      </trkpt>
      <trkpt lat="45.21094" lon="5.64924">
        <ele>368.60000610352</ele>
        <time>2019-08-11T13:05:36.000Z</time>
      </trkpt>
      <trkpt lat="45.21099" lon="5.64935">
        <ele>367.60000610352</ele>
        <time>2019-08-11T13:05:37.000Z</time>
      </trkpt>
      <trkpt lat="45.21105" lon="5.64947">
        <ele>366.20001220703</ele>
        <time>2019-08-11T13:05:38.000Z</time>
      </trkpt>
      <trkpt lat="45.21112" lon="5.64958">
        <ele>364.20001220703</ele>
        <time>2019-08-11T13:05:39.000Z</time>
      </trkpt>
      <trkpt lat="45.2112" lon="5.64967">
        <ele>363</ele>
        <time>2019-08-11T13:05:40.000Z</time>
      </trkpt>
      <trkpt lat="45.2113" lon="5.64974">
        <ele>361.20001220703</ele>
        <time>2019-08-11T13:05:41.000Z</time>
      </trkpt>
      <trkpt lat="45.2114" lon="5.64977">
        <ele>359.60000610352</ele>
        <time>2019-08-11T13:05:42.000Z</time>
      </trkpt>
      <trkpt lat="45.21149" lon="5.64978">
        <ele>358</ele>
        <time>2019-08-11T13:05:43.000Z</time>
      </trkpt>
      <trkpt lat="45.21158" lon="5.64979">
        <ele>356.60000610352</ele>
        <time>2019-08-11T13:05:44.000Z</time>
      </trkpt>
      <trkpt lat="45.21166" lon="5.6498">
        <ele>355.79998779297</ele>
        <time>2019-08-11T13:05:45.000Z</time>
      </trkpt>
      <trkpt lat="45.21175" lon="5.64982">
        <ele>354.79998779297</ele>
        <time>2019-08-11T13:05:46.000Z</time>
      </trkpt>
      <trkpt lat="45.21188" lon="5.6499">
        <ele>353.60000610352</ele>
        <time>2019-08-11T13:05:48.000Z</time>
      </trkpt>
      <trkpt lat="45.21193" lon="5.64997">
        <ele>353.39999389648</ele>
        <time>2019-08-11T13:05:49.000Z</time>
      </trkpt>
      <trkpt lat="45.21201" lon="5.65017">
        <ele>352.39999389648</ele>
        <time>2019-08-11T13:05:51.000Z</time>
      </trkpt>
      <trkpt lat="45.21204" lon="5.65028">
        <ele>351.79998779297</ele>
        <time>2019-08-11T13:05:52.000Z</time>
      </trkpt>
      <trkpt lat="45.21207" lon="5.65039">
        <ele>351.39999389648</ele>
        <time>2019-08-11T13:05:53.000Z</time>
      </trkpt>
      <trkpt lat="45.21209" lon="5.6505">
        <ele>350.79998779297</ele>
        <time>2019-08-11T13:05:54.000Z</time>
      </trkpt>
      <trkpt lat="45.21211" lon="5.65061">
        <ele>349.79998779297</ele>
        <time>2019-08-11T13:05:55.000Z</time>
      </trkpt>
      <trkpt lat="45.21211" lon="5.65071">
        <ele>349</ele>
        <time>2019-08-11T13:05:56.000Z</time>
      </trkpt>
      <trkpt lat="45.21212" lon="5.65082">
        <ele>348.20001220703</ele>
        <time>2019-08-11T13:05:57.000Z</time>
      </trkpt>
      <trkpt lat="45.21213" lon="5.65104">
        <ele>346.79998779297</ele>
        <time>2019-08-11T13:05:59.000Z</time>
      </trkpt>
      <trkpt lat="45.21214" lon="5.65115">
        <ele>345.79998779297</ele>
        <time>2019-08-11T13:06:00.000Z</time>
      </trkpt>
      <trkpt lat="45.21214" lon="5.65127">
        <ele>345</ele>
        <time>2019-08-11T13:06:01.000Z</time>
      </trkpt>
      <trkpt lat="45.21214" lon="5.65138">
        <ele>344</ele>
        <time>2019-08-11T13:06:02.000Z</time>
      </trkpt>
      <trkpt lat="45.21215" lon="5.65149">
        <ele>342.79998779297</ele>
        <time>2019-08-11T13:06:03.000Z</time>
      </trkpt>
      <trkpt lat="45.21217" lon="5.65169">
        <ele>341.39999389648</ele>
        <time>2019-08-11T13:06:05.000Z</time>
      </trkpt>
      <trkpt lat="45.21219" lon="5.65185">
        <ele>340.39999389648</ele>
        <time>2019-08-11T13:06:07.000Z</time>
      </trkpt>
      <trkpt lat="45.21221" lon="5.65197">
        <ele>339.60000610352</ele>
        <time>2019-08-11T13:06:09.000Z</time>
      </trkpt>
      <trkpt lat="45.21221" lon="5.652">
        <ele>339.39999389648</ele>
        <time>2019-08-11T13:06:10.000Z</time>
      </trkpt>
      <trkpt lat="45.21221" lon="5.65208">
        <ele>338.39999389648</ele>
        <time>2019-08-11T13:06:13.000Z</time>
      </trkpt>
      <trkpt lat="45.21221" lon="5.65211">
        <ele>338.20001220703</ele>
        <time>2019-08-11T13:06:14.000Z</time>
      </trkpt>
      <trkpt lat="45.21218" lon="5.65223">
        <ele>337.20001220703</ele>
        <time>2019-08-11T13:06:18.000Z</time>
      </trkpt>
      <trkpt lat="45.21217" lon="5.65227">
        <ele>336.79998779297</ele>
        <time>2019-08-11T13:06:19.000Z</time>
      </trkpt>
      <trkpt lat="45.21216" lon="5.65233">
        <ele>335.79998779297</ele>
        <time>2019-08-11T13:06:21.000Z</time>
      </trkpt>
      <trkpt lat="45.21212" lon="5.65244">
        <ele>334.79998779297</ele>
        <time>2019-08-11T13:06:25.000Z</time>
      </trkpt>
      <trkpt lat="45.21212" lon="5.65247">
        <ele>334.39999389648</ele>
        <time>2019-08-11T13:06:26.000Z</time>
      </trkpt>
      <trkpt lat="45.2121" lon="5.65257">
        <ele>333.20001220703</ele>
        <time>2019-08-11T13:06:29.000Z</time>
      </trkpt>
      <trkpt lat="45.21205" lon="5.65273">
        <ele>332</ele>
        <time>2019-08-11T13:06:32.000Z</time>
      </trkpt>
      <trkpt lat="45.21202" lon="5.6528">
        <ele>331.39999389648</ele>
        <time>2019-08-11T13:06:33.000Z</time>
      </trkpt>
      <trkpt lat="45.21199" lon="5.65286">
        <ele>330.39999389648</ele>
        <time>2019-08-11T13:06:34.000Z</time>
      </trkpt>
      <trkpt lat="45.21196" lon="5.65293">
        <ele>329.60000610352</ele>
        <time>2019-08-11T13:06:35.000Z</time>
      </trkpt>
      <trkpt lat="45.21192" lon="5.653">
        <ele>329</ele>
        <time>2019-08-11T13:06:36.000Z</time>
      </trkpt>
      <trkpt lat="45.21189" lon="5.65308">
        <ele>328.20001220703</ele>
        <time>2019-08-11T13:06:37.000Z</time>
      </trkpt>
      <trkpt lat="45.21186" lon="5.65317">
        <ele>327.20001220703</ele>
        <time>2019-08-11T13:06:38.000Z</time>
      </trkpt>
      <trkpt lat="45.21183" lon="5.65336">
        <ele>325.20001220703</ele>
        <time>2019-08-11T13:06:40.000Z</time>
      </trkpt>
      <trkpt lat="45.21181" lon="5.65346">
        <ele>323.60000610352</ele>
        <time>2019-08-11T13:06:41.000Z</time>
      </trkpt>
      <trkpt lat="45.21179" lon="5.65356">
        <ele>321.60000610352</ele>
        <time>2019-08-11T13:06:42.000Z</time>
      </trkpt>
      <trkpt lat="45.21178" lon="5.65367">
        <ele>319.79998779297</ele>
        <time>2019-08-11T13:06:43.000Z</time>
      </trkpt>
      <trkpt lat="45.21177" lon="5.65376">
        <ele>319</ele>
        <time>2019-08-11T13:06:44.000Z</time>
      </trkpt>
      <trkpt lat="45.21177" lon="5.65384">
        <ele>317.60000610352</ele>
        <time>2019-08-11T13:06:45.000Z</time>
      </trkpt>
      <trkpt lat="45.21178" lon="5.6539">
        <ele>316.60000610352</ele>
        <time>2019-08-11T13:06:46.000Z</time>
      </trkpt>
      <trkpt lat="45.21176" lon="5.65399">
        <ele>314.20001220703</ele>
        <time>2019-08-11T13:06:48.000Z</time>
      </trkpt>
      <trkpt lat="45.21174" lon="5.65402">
        <ele>313</ele>
        <time>2019-08-11T13:06:49.000Z</time>
      </trkpt>
      <trkpt lat="45.21171" lon="5.65407">
        <ele>311.39999389648</ele>
        <time>2019-08-11T13:06:51.000Z</time>
      </trkpt>
      <trkpt lat="45.21169" lon="5.6541">
        <ele>311</ele>
        <time>2019-08-11T13:06:52.000Z</time>
      </trkpt>
      <trkpt lat="45.21168" lon="5.65414">
        <ele>310.39999389648</ele>
        <time>2019-08-11T13:06:53.000Z</time>
      </trkpt>
      <trkpt lat="45.21162" lon="5.65423">
        <ele>309</ele>
        <time>2019-08-11T13:06:55.000Z</time>
      </trkpt>
      <trkpt lat="45.21157" lon="5.65435">
        <ele>307.60000610352</ele>
        <time>2019-08-11T13:06:57.000Z</time>
      </trkpt>
      <trkpt lat="45.21153" lon="5.65452">
        <ele>305.79998779297</ele>
        <time>2019-08-11T13:06:59.000Z</time>
      </trkpt>
      <trkpt lat="45.2115" lon="5.6547">
        <ele>304.39999389648</ele>
        <time>2019-08-11T13:07:01.000Z</time>
      </trkpt>
      <trkpt lat="45.21149" lon="5.65478">
        <ele>303.20001220703</ele>
        <time>2019-08-11T13:07:02.000Z</time>
      </trkpt>
      <trkpt lat="45.21146" lon="5.65485">
        <ele>302.20001220703</ele>
        <time>2019-08-11T13:07:03.000Z</time>
      </trkpt>
      <trkpt lat="45.21143" lon="5.65491">
        <ele>301.20001220703</ele>
        <time>2019-08-11T13:07:04.000Z</time>
      </trkpt>
      <trkpt lat="45.21138" lon="5.65495">
        <ele>300.39999389648</ele>
        <time>2019-08-11T13:07:05.000Z</time>
      </trkpt>
      <trkpt lat="45.21132" lon="5.65499">
        <ele>299.79998779297</ele>
        <time>2019-08-11T13:07:06.000Z</time>
      </trkpt>
      <trkpt lat="45.21125" lon="5.65503">
        <ele>298.60000610352</ele>
        <time>2019-08-11T13:07:07.000Z</time>
      </trkpt>
      <trkpt lat="45.21118" lon="5.65508">
        <ele>297.20001220703</ele>
        <time>2019-08-11T13:07:08.000Z</time>
      </trkpt>
      <trkpt lat="45.21112" lon="5.65514">
        <ele>296</ele>
        <time>2019-08-11T13:07:09.000Z</time>
      </trkpt>
      <trkpt lat="45.21105" lon="5.6552">
        <ele>294.79998779297</ele>
        <time>2019-08-11T13:07:10.000Z</time>
      </trkpt>
      <trkpt lat="45.21099" lon="5.65527">
        <ele>293.79998779297</ele>
        <time>2019-08-11T13:07:11.000Z</time>
      </trkpt>
      <trkpt lat="45.21094" lon="5.65534">
        <ele>292.39999389648</ele>
        <time>2019-08-11T13:07:12.000Z</time>
      </trkpt>
      <trkpt lat="45.21089" lon="5.6554">
        <ele>290.79998779297</ele>
        <time>2019-08-11T13:07:13.000Z</time>
      </trkpt>
      <trkpt lat="45.21085" lon="5.65546">
        <ele>289.60000610352</ele>
        <time>2019-08-11T13:07:14.000Z</time>
      </trkpt>
      <trkpt lat="45.21083" lon="5.65552">
        <ele>287.39999389648</ele>
        <time>2019-08-11T13:07:15.000Z</time>
      </trkpt>
      <trkpt lat="45.2108" lon="5.65556">
        <ele>286.20001220703</ele>
        <time>2019-08-11T13:07:16.000Z</time>
      </trkpt>
      <trkpt lat="45.21078" lon="5.65562">
        <ele>285.39999389648</ele>
        <time>2019-08-11T13:07:17.000Z</time>
      </trkpt>
      <trkpt lat="45.21075" lon="5.65569">
        <ele>284.60000610352</ele>
        <time>2019-08-11T13:07:18.000Z</time>
      </trkpt>
      <trkpt lat="45.21068" lon="5.65585">
        <ele>282.79998779297</ele>
        <time>2019-08-11T13:07:20.000Z</time>
      </trkpt>
      <trkpt lat="45.21064" lon="5.65592">
        <ele>282</ele>
        <time>2019-08-11T13:07:21.000Z</time>
      </trkpt>
      <trkpt lat="45.21061" lon="5.656">
        <ele>281.79998779297</ele>
        <time>2019-08-11T13:07:22.000Z</time>
      </trkpt>
      <trkpt lat="45.21058" lon="5.65606">
        <ele>280.39999389648</ele>
        <time>2019-08-11T13:07:23.000Z</time>
      </trkpt>
      <trkpt lat="45.21055" lon="5.65612">
        <ele>279.60000610352</ele>
        <time>2019-08-11T13:07:24.000Z</time>
      </trkpt>
      <trkpt lat="45.21052" lon="5.65617">
        <ele>278.79998779297</ele>
        <time>2019-08-11T13:07:25.000Z</time>
      </trkpt>
      <trkpt lat="45.21048" lon="5.65621">
        <ele>278.39999389648</ele>
        <time>2019-08-11T13:07:26.000Z</time>
      </trkpt>
      <trkpt lat="45.21043" lon="5.65625">
        <ele>277.60000610352</ele>
        <time>2019-08-11T13:07:27.000Z</time>
      </trkpt>
      <trkpt lat="45.21032" lon="5.65633">
        <ele>275.79998779297</ele>
        <time>2019-08-11T13:07:29.000Z</time>
      </trkpt>
      <trkpt lat="45.21022" lon="5.6564">
        <ele>273.20001220703</ele>
        <time>2019-08-11T13:07:31.000Z</time>
      </trkpt>
      <trkpt lat="45.21016" lon="5.65641">
        <ele>271.79998779297</ele>
        <time>2019-08-11T13:07:32.000Z</time>
      </trkpt>
      <trkpt lat="45.21011" lon="5.65642">
        <ele>270.60000610352</ele>
        <time>2019-08-11T13:07:33.000Z</time>
      </trkpt>
      <trkpt lat="45.21005" lon="5.65643">
        <ele>270</ele>
        <time>2019-08-11T13:07:34.000Z</time>
      </trkpt>
      <trkpt lat="45.20999" lon="5.65645">
        <ele>269.60000610352</ele>
        <time>2019-08-11T13:07:35.000Z</time>
      </trkpt>
      <trkpt lat="45.20987" lon="5.65649">
        <ele>268.20001220703</ele>
        <time>2019-08-11T13:07:37.000Z</time>
      </trkpt>
      <trkpt lat="45.2098" lon="5.65651">
        <ele>266.79998779297</ele>
        <time>2019-08-11T13:07:38.000Z</time>
      </trkpt>
      <trkpt lat="45.20974" lon="5.65652">
        <ele>265</ele>
        <time>2019-08-11T13:07:39.000Z</time>
      </trkpt>
      <trkpt lat="45.20967" lon="5.65652">
        <ele>263.60000610352</ele>
        <time>2019-08-11T13:07:40.000Z</time>
      </trkpt>
      <trkpt lat="45.20962" lon="5.65652">
        <ele>262.20001220703</ele>
        <time>2019-08-11T13:07:41.000Z</time>
      </trkpt>
      <trkpt lat="45.20957" lon="5.65652">
        <ele>261</ele>
        <time>2019-08-11T13:07:42.000Z</time>
      </trkpt>
      <trkpt lat="45.20949" lon="5.6565">
        <ele>259.79998779297</ele>
        <time>2019-08-11T13:07:44.000Z</time>
      </trkpt>
      <trkpt lat="45.20946" lon="5.6565">
        <ele>259.20001220703</ele>
        <time>2019-08-11T13:07:45.000Z</time>
      </trkpt>
      <trkpt lat="45.20942" lon="5.65649">
        <ele>258.60000610352</ele>
        <time>2019-08-11T13:07:47.000Z</time>
      </trkpt>
      <trkpt lat="45.20935" lon="5.65647">
        <ele>257.79998779297</ele>
        <time>2019-08-11T13:07:49.000Z</time>
      </trkpt>
      <trkpt lat="45.20925" lon="5.65647">
        <ele>257.20001220703</ele>
        <time>2019-08-11T13:07:51.000Z</time>
      </trkpt>
      <trkpt lat="45.2092" lon="5.65647">
        <ele>256.79998779297</ele>
        <time>2019-08-11T13:07:52.000Z</time>
      </trkpt>
      <trkpt lat="45.2091" lon="5.65646">
        <ele>256.39999389648</ele>
        <time>2019-08-11T13:07:54.000Z</time>
      </trkpt>
      <trkpt lat="45.20904" lon="5.65648">
        <ele>255.60000610352</ele>
        <time>2019-08-11T13:07:56.000Z</time>
      </trkpt>
      <trkpt lat="45.20898" lon="5.6566">
        <ele>255.19999694824</ele>
        <time>2019-08-11T13:07:58.000Z</time>
      </trkpt>
      <trkpt lat="45.20897" lon="5.65666">
        <ele>254.60000610352</ele>
        <time>2019-08-11T13:07:59.000Z</time>
      </trkpt>
      <trkpt lat="45.20896" lon="5.65672">
        <ele>254</ele>
        <time>2019-08-11T13:08:00.000Z</time>
      </trkpt>
      <trkpt lat="45.20895" lon="5.65683">
        <ele>252.80000305176</ele>
        <time>2019-08-11T13:08:02.000Z</time>
      </trkpt>
      <trkpt lat="45.20896" lon="5.65689">
        <ele>252.19999694824</ele>
        <time>2019-08-11T13:08:03.000Z</time>
      </trkpt>
      <trkpt lat="45.20896" lon="5.65695">
        <ele>251.80000305176</ele>
        <time>2019-08-11T13:08:04.000Z</time>
      </trkpt>
      <trkpt lat="45.20896" lon="5.65701">
        <ele>251.19999694824</ele>
        <time>2019-08-11T13:08:05.000Z</time>
      </trkpt>
      <trkpt lat="45.20898" lon="5.65714">
        <ele>251</ele>
        <time>2019-08-11T13:08:07.000Z</time>
      </trkpt>
      <trkpt lat="45.20901" lon="5.65727">
        <ele>250.80000305176</ele>
        <time>2019-08-11T13:08:09.000Z</time>
      </trkpt>
      <trkpt lat="45.20903" lon="5.65733">
        <ele>250.60000610352</ele>
        <time>2019-08-11T13:08:10.000Z</time>
      </trkpt>
      <trkpt lat="45.20905" lon="5.65739">
        <ele>250.39999389648</ele>
        <time>2019-08-11T13:08:11.000Z</time>
      </trkpt>
      <trkpt lat="45.20908" lon="5.65751">
        <ele>250</ele>
        <time>2019-08-11T13:08:13.000Z</time>
      </trkpt>
      <trkpt lat="45.20904" lon="5.6576">
        <ele>250</ele>
        <time>2019-08-11T13:08:15.000Z</time>
      </trkpt>
      <trkpt lat="45.20898" lon="5.65767">
        <ele>250</ele>
        <time>2019-08-11T13:08:17.000Z</time>
      </trkpt>
      <trkpt lat="45.20889" lon="5.65779">
        <ele>249</ele>
        <time>2019-08-11T13:08:20.000Z</time>
      </trkpt>
      <trkpt lat="45.20885" lon="5.65783">
        <ele>248.80000305176</ele>
        <time>2019-08-11T13:08:21.000Z</time>
      </trkpt>
      <trkpt lat="45.20866" lon="5.65808">
        <ele>247.60000610352</ele>
        <time>2019-08-11T13:08:26.000Z</time>
      </trkpt>
      <trkpt lat="45.20862" lon="5.65812">
        <ele>247.39999389648</ele>
        <time>2019-08-11T13:08:27.000Z</time>
      </trkpt>
      <trkpt lat="45.2085" lon="5.65815">
        <ele>246.60000610352</ele>
        <time>2019-08-11T13:08:30.000Z</time>
      </trkpt>
      <trkpt lat="45.20844" lon="5.6582">
        <ele>246.19999694824</ele>
        <time>2019-08-11T13:08:33.000Z</time>
      </trkpt>
      <trkpt lat="45.20841" lon="5.65831">
        <ele>246</ele>
        <time>2019-08-11T13:08:36.000Z</time>
      </trkpt>
      <trkpt lat="45.2084" lon="5.65838">
        <ele>246</ele>
        <time>2019-08-11T13:08:37.000Z</time>
      </trkpt>
      <trkpt lat="45.2084" lon="5.65846">
        <ele>245.80000305176</ele>
        <time>2019-08-11T13:08:38.000Z</time>
      </trkpt>
      <trkpt lat="45.20835" lon="5.65886">
        <ele>245.19999694824</ele>
        <time>2019-08-11T13:08:43.000Z</time>
      </trkpt>
      <trkpt lat="45.20834" lon="5.65894">
        <ele>245</ele>
        <time>2019-08-11T13:08:44.000Z</time>
      </trkpt>
      <trkpt lat="45.20832" lon="5.6591">
        <ele>244.80000305176</ele>
        <time>2019-08-11T13:08:46.000Z</time>
      </trkpt>
      <trkpt lat="45.20829" lon="5.65926">
        <ele>244.60000610352</ele>
        <time>2019-08-11T13:08:48.000Z</time>
      </trkpt>
      <trkpt lat="45.20826" lon="5.65933">
        <ele>244.60000610352</ele>
        <time>2019-08-11T13:08:49.000Z</time>
      </trkpt>
      <trkpt lat="45.20816" lon="5.65957">
        <ele>244.60000610352</ele>
        <time>2019-08-11T13:08:53.000Z</time>
      </trkpt>
      <trkpt lat="45.20808" lon="5.65976">
        <ele>244.19999694824</ele>
        <time>2019-08-11T13:08:56.000Z</time>
      </trkpt>
      <trkpt lat="45.20806" lon="5.65997">
        <ele>243.80000305176</ele>
        <time>2019-08-11T13:08:59.000Z</time>
      </trkpt>
      <trkpt lat="45.20807" lon="5.66004">
        <ele>243.80000305176</ele>
        <time>2019-08-11T13:09:00.000Z</time>
      </trkpt>
      <trkpt lat="45.20808" lon="5.66011">
        <ele>243.80000305176</ele>
        <time>2019-08-11T13:09:01.000Z</time>
      </trkpt>
      <trkpt lat="45.20813" lon="5.66031">
        <ele>243.60000610352</ele>
        <time>2019-08-11T13:09:04.000Z</time>
      </trkpt>
      <trkpt lat="45.20819" lon="5.66051">
        <ele>243</ele>
        <time>2019-08-11T13:09:07.000Z</time>
      </trkpt>
      <trkpt lat="45.20822" lon="5.66057">
        <ele>243</ele>
        <time>2019-08-11T13:09:08.000Z</time>
      </trkpt>
      <trkpt lat="45.20836" lon="5.66076">
        <ele>243.60000610352</ele>
        <time>2019-08-11T13:09:12.000Z</time>
      </trkpt>
      <trkpt lat="45.20845" lon="5.66085">
        <ele>243.80000305176</ele>
        <time>2019-08-11T13:09:14.000Z</time>
      </trkpt>
      <trkpt lat="45.20868" lon="5.66091">
        <ele>243.39999389648</ele>
        <time>2019-08-11T13:09:18.000Z</time>
      </trkpt>
      <trkpt lat="45.20903" lon="5.66093">
        <ele>243</ele>
        <time>2019-08-11T13:09:24.000Z</time>
      </trkpt>
      <trkpt lat="45.20925" lon="5.66096">
        <ele>242.60000610352</ele>
        <time>2019-08-11T13:09:28.000Z</time>
      </trkpt>
      <trkpt lat="45.20936" lon="5.66098">
        <ele>242.39999389648</ele>
        <time>2019-08-11T13:09:30.000Z</time>
      </trkpt>
      <trkpt lat="45.20941" lon="5.66099">
        <ele>242.19999694824</ele>
        <time>2019-08-11T13:09:31.000Z</time>
      </trkpt>
      <trkpt lat="45.20958" lon="5.66102">
        <ele>241.80000305176</ele>
        <time>2019-08-11T13:09:34.000Z</time>
      </trkpt>
      <trkpt lat="45.20976" lon="5.66103">
        <ele>241.39999389648</ele>
        <time>2019-08-11T13:09:37.000Z</time>
      </trkpt>
      <trkpt lat="45.20988" lon="5.66103">
        <ele>241.39999389648</ele>
        <time>2019-08-11T13:09:39.000Z</time>
      </trkpt>
      <trkpt lat="45.2101" lon="5.661">
        <ele>241.39999389648</ele>
        <time>2019-08-11T13:09:43.000Z</time>
      </trkpt>
      <trkpt lat="45.21021" lon="5.66097">
        <ele>241.19999694824</ele>
        <time>2019-08-11T13:09:45.000Z</time>
      </trkpt>
      <trkpt lat="45.21036" lon="5.6609">
        <ele>241</ele>
        <time>2019-08-11T13:09:48.000Z</time>
      </trkpt>
      <trkpt lat="45.21069" lon="5.66072">
        <ele>240.39999389648</ele>
        <time>2019-08-11T13:09:55.000Z</time>
      </trkpt>
      <trkpt lat="45.21074" lon="5.6607">
        <ele>240.39999389648</ele>
        <time>2019-08-11T13:09:56.000Z</time>
      </trkpt>
      <trkpt lat="45.21099" lon="5.6606">
        <ele>240.19999694824</ele>
        <time>2019-08-11T13:10:02.000Z</time>
      </trkpt>
      <trkpt lat="45.21113" lon="5.66065">
        <ele>240.39999389648</ele>
        <time>2019-08-11T13:10:06.000Z</time>
      </trkpt>
      <trkpt lat="45.21122" lon="5.66079">
        <ele>239.39999389648</ele>
        <time>2019-08-11T13:10:09.000Z</time>
      </trkpt>
      <trkpt lat="45.21124" lon="5.66085">
        <ele>239.19999694824</ele>
        <time>2019-08-11T13:10:10.000Z</time>
      </trkpt>
      <trkpt lat="45.21127" lon="5.66098">
        <ele>239</ele>
        <time>2019-08-11T13:10:12.000Z</time>
      </trkpt>
      <trkpt lat="45.21131" lon="5.6611">
        <ele>238.80000305176</ele>
        <time>2019-08-11T13:10:14.000Z</time>
      </trkpt>
      <trkpt lat="45.21137" lon="5.66123">
        <ele>238.80000305176</ele>
        <time>2019-08-11T13:10:16.000Z</time>
      </trkpt>
      <trkpt lat="45.21155" lon="5.6616">
        <ele>239.19999694824</ele>
        <time>2019-08-11T13:10:23.000Z</time>
      </trkpt>
      <trkpt lat="45.21163" lon="5.66176">
        <ele>239.60000610352</ele>
        <time>2019-08-11T13:10:28.000Z</time>
      </trkpt>
      <trkpt lat="45.21164" lon="5.66177">
        <ele>239.60000610352</ele>
        <time>2019-08-11T13:10:29.000Z</time>
      </trkpt>
      <trkpt lat="45.21172" lon="5.66176">
        <ele>239.60000610352</ele>
        <time>2019-08-11T13:10:32.000Z</time>
      </trkpt>
      <trkpt lat="45.21199" lon="5.6617">
        <ele>239.60000610352</ele>
        <time>2019-08-11T13:10:39.000Z</time>
      </trkpt>
      <trkpt lat="45.21218" lon="5.66166">
        <ele>238.60000610352</ele>
        <time>2019-08-11T13:10:43.000Z</time>
      </trkpt>
      <trkpt lat="45.21223" lon="5.66165">
        <ele>238.39999389648</ele>
        <time>2019-08-11T13:10:44.000Z</time>
      </trkpt>
      <trkpt lat="45.21243" lon="5.66159">
        <ele>237.80000305176</ele>
        <time>2019-08-11T13:10:48.000Z</time>
      </trkpt>
      <trkpt lat="45.21248" lon="5.66156">
        <ele>237.60000610352</ele>
        <time>2019-08-11T13:10:49.000Z</time>
      </trkpt>
      <trkpt lat="45.21258" lon="5.6615">
        <ele>237.60000610352</ele>
        <time>2019-08-11T13:10:51.000Z</time>
      </trkpt>
      <trkpt lat="45.21278" lon="5.66142">
        <ele>237.39999389648</ele>
        <time>2019-08-11T13:10:55.000Z</time>
      </trkpt>
      <trkpt lat="45.21287" lon="5.66138">
        <ele>237.39999389648</ele>
        <time>2019-08-11T13:10:57.000Z</time>
      </trkpt>
      <trkpt lat="45.21294" lon="5.66131">
        <ele>237.39999389648</ele>
        <time>2019-08-11T13:10:59.000Z</time>
      </trkpt>
      <trkpt lat="45.21299" lon="5.6611">
        <ele>237.60000610352</ele>
        <time>2019-08-11T13:11:03.000Z</time>
      </trkpt>
      <trkpt lat="45.21306" lon="5.66099">
        <ele>237.60000610352</ele>
        <time>2019-08-11T13:11:06.000Z</time>
      </trkpt>
      <trkpt lat="45.21309" lon="5.66095">
        <ele>237.39999389648</ele>
        <time>2019-08-11T13:11:07.000Z</time>
      </trkpt>
      <trkpt lat="45.21313" lon="5.66093">
        <ele>237.19999694824</ele>
        <time>2019-08-11T13:11:08.000Z</time>
      </trkpt>
      <trkpt lat="45.21317" lon="5.66093">
        <ele>237</ele>
        <time>2019-08-11T13:11:09.000Z</time>
      </trkpt>
      <trkpt lat="45.21336" lon="5.66094">
        <ele>236.80000305176</ele>
        <time>2019-08-11T13:11:14.000Z</time>
      </trkpt>
      <trkpt lat="45.2135" lon="5.66094">
        <ele>236.60000610352</ele>
        <time>2019-08-11T13:11:18.000Z</time>
      </trkpt>
      <trkpt lat="45.21355" lon="5.66092">
        <ele>236.60000610352</ele>
        <time>2019-08-11T13:11:19.000Z</time>
      </trkpt>
      <trkpt lat="45.21359" lon="5.66092">
        <ele>236.80000305176</ele>
        <time>2019-08-11T13:11:20.000Z</time>
      </trkpt>
      <trkpt lat="45.21365" lon="5.66096">
        <ele>236.80000305176</ele>
        <time>2019-08-11T13:11:22.000Z</time>
      </trkpt>
      <trkpt lat="45.21365" lon="5.66104">
        <ele>236.39999389648</ele>
        <time>2019-08-11T13:11:24.000Z</time>
      </trkpt>
      <trkpt lat="45.21365" lon="5.66107">
        <ele>236.19999694824</ele>
        <time>2019-08-11T13:11:26.000Z</time>
      </trkpt>
      <trkpt lat="45.21364" lon="5.66107">
        <ele>236</ele>
        <time>2019-08-11T13:11:27.000Z</time>
      </trkpt>
      <trkpt lat="45.21365" lon="5.66109">
        <ele>235.60000610352</ele>
        <time>2019-08-11T13:11:34.000Z</time>
      </trkpt>
      <trkpt lat="45.21365" lon="5.6611">
        <ele>236.19999694824</ele>
        <time>2019-08-11T13:11:43.000Z</time>
      </trkpt>
      <trkpt lat="45.21365" lon="5.6611">
        <ele>236.19999694824</ele>
        <time>2019-08-11T13:12:00.000Z</time>
      </trkpt>
      <trkpt lat="45.21365" lon="5.6611">
        <ele>236.60000610352</ele>
        <time>2019-08-11T13:12:14.000Z</time>
      </trkpt>
      <trkpt lat="45.21365" lon="5.6611">
        <ele>236.60000610352</ele>
        <time>2019-08-11T13:12:46.000Z</time>
      </trkpt>
      <trkpt lat="45.21365" lon="5.66109">
        <ele>236.39999389648</ele>
        <time>2019-08-11T13:12:58.000Z</time>
      </trkpt>
      <trkpt lat="45.21365" lon="5.66109">
        <ele>236.60000610352</ele>
        <time>2019-08-11T13:13:15.000Z</time>
      </trkpt>
      <trkpt lat="45.21365" lon="5.66109">
        <ele>237</ele>
        <time>2019-08-11T13:13:50.000Z</time>
      </trkpt>
      <trkpt lat="45.21365" lon="5.66109">
        <ele>236.39999389648</ele>
        <time>2019-08-11T13:13:57.000Z</time>
      </trkpt>
      <trkpt lat="45.21365" lon="5.6611">
        <ele>236</ele>
        <time>2019-08-11T13:14:03.000Z</time>
      </trkpt>
      <trkpt lat="45.21365" lon="5.6611">
        <ele>236.39999389648</ele>
        <time>2019-08-11T13:14:27.000Z</time>
      </trkpt>
      <trkpt lat="45.21365" lon="5.6611">
        <ele>236.19999694824</ele>
        <time>2019-08-11T13:15:07.000Z</time>
      </trkpt>
      <trkpt lat="45.21365" lon="5.6611">
        <ele>236.19999694824</ele>
        <time>2019-08-11T13:15:08.000Z</time>
      </trkpt>
      <trkpt lat="45.21365" lon="5.6611">
        <ele>236</ele>
        <time>2019-08-11T13:15:48.000Z</time>
      </trkpt>
      <trkpt lat="45.21365" lon="5.6611">
        <ele>235.80000305176</ele>
        <time>2019-08-11T13:15:59.000Z</time>
      </trkpt>
      <trkpt lat="45.21365" lon="5.6611">
        <ele>236</ele>
        <time>2019-08-11T13:16:20.000Z</time>
      </trkpt>
      <trkpt lat="45.21365" lon="5.6611">
        <ele>235.39999389648</ele>
        <time>2019-08-11T13:16:48.000Z</time>
      </trkpt>
      <trkpt lat="45.21365" lon="5.6611">
        <ele>235.39999389648</ele>
        <time>2019-08-11T13:16:59.000Z</time>
      </trkpt>
      <trkpt lat="45.21365" lon="5.6611">
        <ele>235.60000610352</ele>
        <time>2019-08-11T13:17:20.000Z</time>
      </trkpt>
      <trkpt lat="45.21364" lon="5.66109">
        <ele>235.19999694824</ele>
        <time>2019-08-11T13:17:40.000Z</time>
      </trkpt>
      <trkpt lat="45.21365" lon="5.66109">
        <ele>236.19999694824</ele>
        <time>2019-08-11T13:17:50.000Z</time>
      </trkpt>
      <trkpt lat="45.21365" lon="5.66109">
        <ele>236.39999389648</ele>
        <time>2019-08-11T13:18:09.000Z</time>
      </trkpt>
      <trkpt lat="45.21365" lon="5.66107">
        <ele>236</ele>
        <time>2019-08-11T13:18:16.000Z</time>
      </trkpt>
      <trkpt lat="45.21364" lon="5.66107">
        <ele>236</ele>
        <time>2019-08-11T13:18:27.000Z</time>
      </trkpt>
      <trkpt lat="45.21364" lon="5.66107">
        <ele>235.80000305176</ele>
        <time>2019-08-11T13:18:30.000Z</time>
      </trkpt>
      <trkpt lat="45.21364" lon="5.66107">
        <ele>236.39999389648</ele>
        <time>2019-08-11T13:18:42.000Z</time>
      </trkpt>
      <trkpt lat="45.21365" lon="5.66107">
        <ele>236.39999389648</ele>
        <time>2019-08-11T13:18:53.000Z</time>
      </trkpt>
      <trkpt lat="45.21364" lon="5.66107">
        <ele>236</ele>
        <time>2019-08-11T13:19:05.000Z</time>
      </trkpt>
      <trkpt lat="45.21364" lon="5.66107">
        <ele>235.60000610352</ele>
        <time>2019-08-11T13:19:19.000Z</time>
      </trkpt>
      <trkpt lat="45.21364" lon="5.66107">
        <ele>235.60000610352</ele>
        <time>2019-08-11T13:19:22.000Z</time>
      </trkpt>
      <trkpt lat="45.21364" lon="5.66106">
        <ele>235.39999389648</ele>
        <time>2019-08-11T13:19:30.000Z</time>
      </trkpt>
      <trkpt lat="45.21364" lon="5.66105">
        <ele>235.80000305176</ele>
        <time>2019-08-11T13:19:43.000Z</time>
      </trkpt>
      <trkpt lat="45.21364" lon="5.66105">
        <ele>236.39999389648</ele>
        <time>2019-08-11T13:20:01.000Z</time>
      </trkpt>
      <trkpt lat="45.21363" lon="5.66105">
        <ele>236.19999694824</ele>
        <time>2019-08-11T13:20:15.000Z</time>
      </trkpt>
      <trkpt lat="45.21365" lon="5.66107">
        <ele>236.19999694824</ele>
        <time>2019-08-11T13:20:23.000Z</time>
      </trkpt>
      <trkpt lat="45.21365" lon="5.66107">
        <ele>236.39999389648</ele>
        <time>2019-08-11T13:20:31.000Z</time>
      </trkpt>
      <trkpt lat="45.21365" lon="5.66107">
        <ele>236.60000610352</ele>
        <time>2019-08-11T13:20:32.000Z</time>
      </trkpt>
      <trkpt lat="45.21365" lon="5.66107">
        <ele>236.39999389648</ele>
        <time>2019-08-11T13:20:52.000Z</time>
      </trkpt>
      <trkpt lat="45.21366" lon="5.66105">
        <ele>237</ele>
        <time>2019-08-11T13:21:01.000Z</time>
      </trkpt>
      <trkpt lat="45.21365" lon="5.661">
        <ele>236.60000610352</ele>
        <time>2019-08-11T13:21:11.000Z</time>
      </trkpt>
      <trkpt lat="45.21365" lon="5.66095">
        <ele>236.60000610352</ele>
        <time>2019-08-11T13:21:13.000Z</time>
      </trkpt>
      <trkpt lat="45.21362" lon="5.66092">
        <ele>236.60000610352</ele>
        <time>2019-08-11T13:21:15.000Z</time>
      </trkpt>
      <trkpt lat="45.21355" lon="5.66093">
        <ele>236.60000610352</ele>
        <time>2019-08-11T13:21:18.000Z</time>
      </trkpt>
      <trkpt lat="45.2135" lon="5.66094">
        <ele>236.80000305176</ele>
        <time>2019-08-11T13:21:20.000Z</time>
      </trkpt>
      <trkpt lat="45.21338" lon="5.66095">
        <ele>237.80000305176</ele>
        <time>2019-08-11T13:21:25.000Z</time>
      </trkpt>
      <trkpt lat="45.21335" lon="5.66095">
        <ele>238</ele>
        <time>2019-08-11T13:21:26.000Z</time>
      </trkpt>
      <trkpt lat="45.21318" lon="5.66095">
        <ele>238.19999694824</ele>
        <time>2019-08-11T13:21:32.000Z</time>
      </trkpt>
      <trkpt lat="45.2131" lon="5.66088">
        <ele>238.39999389648</ele>
        <time>2019-08-11T13:21:36.000Z</time>
      </trkpt>
      <trkpt lat="45.21308" lon="5.66085">
        <ele>238.39999389648</ele>
        <time>2019-08-11T13:21:37.000Z</time>
      </trkpt>
      <trkpt lat="45.21302" lon="5.66072">
        <ele>238.19999694824</ele>
        <time>2019-08-11T13:21:43.000Z</time>
      </trkpt>
      <trkpt lat="45.21298" lon="5.66058">
        <ele>237.80000305176</ele>
        <time>2019-08-11T13:21:47.000Z</time>
      </trkpt>
      <trkpt lat="45.21292" lon="5.6602">
        <ele>238.80000305176</ele>
        <time>2019-08-11T13:21:56.000Z</time>
      </trkpt>
      <trkpt lat="45.21288" lon="5.65999">
        <ele>239</ele>
        <time>2019-08-11T13:22:02.000Z</time>
      </trkpt>
      <trkpt lat="45.21287" lon="5.65994">
        <ele>238.60000610352</ele>
        <time>2019-08-11T13:22:06.000Z</time>
      </trkpt>
      <trkpt lat="45.21279" lon="5.65997">
        <ele>238.39999389648</ele>
        <time>2019-08-11T13:22:10.000Z</time>
      </trkpt>
      <trkpt lat="45.21277" lon="5.65989">
        <ele>238.19999694824</ele>
        <time>2019-08-11T13:22:13.000Z</time>
      </trkpt>
      <trkpt lat="45.21274" lon="5.65965">
        <ele>239</ele>
        <time>2019-08-11T13:22:20.000Z</time>
      </trkpt>
      <trkpt lat="45.21272" lon="5.65941">
        <ele>238.60000610352</ele>
        <time>2019-08-11T13:22:28.000Z</time>
      </trkpt>
      <trkpt lat="45.2127" lon="5.65938">
        <ele>238.60000610352</ele>
        <time>2019-08-11T13:22:30.000Z</time>
      </trkpt>
      <trkpt lat="45.21269" lon="5.65938">
        <ele>238.39999389648</ele>
        <time>2019-08-11T13:22:32.000Z</time>
      </trkpt>
      <trkpt lat="45.21269" lon="5.65938">
        <ele>237.80000305176</ele>
        <time>2019-08-11T13:22:41.000Z</time>
      </trkpt>
      <trkpt lat="45.21267" lon="5.65939">
        <ele>237.80000305176</ele>
        <time>2019-08-11T13:22:52.000Z</time>
      </trkpt>
      <trkpt lat="45.21265" lon="5.65942">
        <ele>237.80000305176</ele>
        <time>2019-08-11T13:22:54.000Z</time>
      </trkpt>
      <trkpt lat="45.21258" lon="5.65946">
        <ele>237.80000305176</ele>
        <time>2019-08-11T13:22:57.000Z</time>
      </trkpt>
      <trkpt lat="45.21242" lon="5.65953">
        <ele>238.80000305176</ele>
        <time>2019-08-11T13:23:04.000Z</time>
      </trkpt>
      <trkpt lat="45.21231" lon="5.65957">
        <ele>240</ele>
        <time>2019-08-11T13:23:09.000Z</time>
      </trkpt>
      <trkpt lat="45.21228" lon="5.65957">
        <ele>240.80000305176</ele>
        <time>2019-08-11T13:23:14.000Z</time>
      </trkpt>
      <trkpt lat="45.21228" lon="5.65957">
        <ele>241</ele>
        <time>2019-08-11T13:23:16.000Z</time>
      </trkpt>
      <trkpt lat="45.21228" lon="5.65957">
        <ele>241.19999694824</ele>
        <time>2019-08-11T13:23:29.000Z</time>
      </trkpt>
      <trkpt lat="45.21228" lon="5.65957">
        <ele>241.60000610352</ele>
        <time>2019-08-11T13:23:59.000Z</time>
      </trkpt>
      <trkpt lat="45.21228" lon="5.65957">
        <ele>241.19999694824</ele>
        <time>2019-08-11T13:24:41.000Z</time>
      </trkpt>
      <trkpt lat="45.21228" lon="5.65957">
        <ele>241.19999694824</ele>
        <time>2019-08-11T13:25:16.000Z</time>
      </trkpt>
      <trkpt lat="45.21228" lon="5.65957">
        <ele>241.39999389648</ele>
        <time>2019-08-11T13:25:24.000Z</time>
      </trkpt>
      <trkpt lat="45.21228" lon="5.65957">
        <ele>242.39999389648</ele>
        <time>2019-08-11T13:25:30.000Z</time>
      </trkpt>
      <trkpt lat="45.21228" lon="5.65957">
        <ele>241.39999389648</ele>
        <time>2019-08-11T13:25:38.000Z</time>
      </trkpt>
      <trkpt lat="45.21228" lon="5.65957">
        <ele>242.19999694824</ele>
        <time>2019-08-11T13:25:54.000Z</time>
      </trkpt>
      <trkpt lat="45.21228" lon="5.65957">
        <ele>241.60000610352</ele>
        <time>2019-08-11T13:26:28.000Z</time>
      </trkpt>
      <trkpt lat="45.21228" lon="5.65958">
        <ele>241</ele>
        <time>2019-08-11T13:26:47.000Z</time>
      </trkpt>
      <trkpt lat="45.21228" lon="5.65958">
        <ele>242</ele>
        <time>2019-08-11T13:27:18.000Z</time>
      </trkpt>
      <trkpt lat="45.21228" lon="5.65957">
        <ele>242.39999389648</ele>
        <time>2019-08-11T13:28:08.000Z</time>
      </trkpt>
      <trkpt lat="45.21228" lon="5.65957">
        <ele>243</ele>
        <time>2019-08-11T13:28:59.000Z</time>
      </trkpt>
      <trkpt lat="45.21228" lon="5.65957">
        <ele>243.19999694824</ele>
        <time>2019-08-11T13:29:07.000Z</time>
      </trkpt>
      <trkpt lat="45.21228" lon="5.65958">
        <ele>243</ele>
        <time>2019-08-11T13:29:44.000Z</time>
      </trkpt>
      <trkpt lat="45.21228" lon="5.65958">
        <ele>242.80000305176</ele>
        <time>2019-08-11T13:30:01.000Z</time>
      </trkpt>
      <trkpt lat="45.21228" lon="5.65958">
        <ele>242.19999694824</ele>
        <time>2019-08-11T13:30:24.000Z</time>
      </trkpt>
      <trkpt lat="45.21228" lon="5.65958">
        <ele>242</ele>
        <time>2019-08-11T13:30:42.000Z</time>
      </trkpt>
      <trkpt lat="45.21228" lon="5.65958">
        <ele>241.39999389648</ele>
        <time>2019-08-11T13:31:22.000Z</time>
      </trkpt>
      <trkpt lat="45.21228" lon="5.65957">
        <ele>241.19999694824</ele>
        <time>2019-08-11T13:31:31.000Z</time>
      </trkpt>
      <trkpt lat="45.21228" lon="5.65957">
        <ele>240.39999389648</ele>
        <time>2019-08-11T13:32:07.000Z</time>
      </trkpt>
      <trkpt lat="45.21228" lon="5.65957">
        <ele>239.80000305176</ele>
        <time>2019-08-11T13:32:21.000Z</time>
      </trkpt>
      <trkpt lat="45.21228" lon="5.65957">
        <ele>240.39999389648</ele>
        <time>2019-08-11T13:33:15.000Z</time>
      </trkpt>
      <trkpt lat="45.21228" lon="5.65957">
        <ele>239.80000305176</ele>
        <time>2019-08-11T13:33:29.000Z</time>
      </trkpt>
      <trkpt lat="45.21228" lon="5.65957">
        <ele>240.60000610352</ele>
        <time>2019-08-11T13:34:07.000Z</time>
      </trkpt>
      <trkpt lat="45.21228" lon="5.65957">
        <ele>240.39999389648</ele>
        <time>2019-08-11T13:34:14.000Z</time>
      </trkpt>
      <trkpt lat="45.21228" lon="5.65957">
        <ele>241.39999389648</ele>
        <time>2019-08-11T13:34:20.000Z</time>
      </trkpt>
      <trkpt lat="45.21228" lon="5.65957">
        <ele>240.80000305176</ele>
        <time>2019-08-11T13:34:36.000Z</time>
      </trkpt>
      <trkpt lat="45.21228" lon="5.65958">
        <ele>241.19999694824</ele>
        <time>2019-08-11T13:35:38.000Z</time>
      </trkpt>
      <trkpt lat="45.21228" lon="5.65957">
        <ele>241.39999389648</ele>
        <time>2019-08-11T13:35:53.000Z</time>
      </trkpt>
      <trkpt lat="45.21228" lon="5.65957">
        <ele>241.60000610352</ele>
        <time>2019-08-11T13:36:30.000Z</time>
      </trkpt>
      <trkpt lat="45.21228" lon="5.65957">
        <ele>241.19999694824</ele>
        <time>2019-08-11T13:37:01.000Z</time>
      </trkpt>
      <trkpt lat="45.21228" lon="5.65957">
        <ele>240.60000610352</ele>
        <time>2019-08-11T13:37:22.000Z</time>
      </trkpt>
      <trkpt lat="45.21228" lon="5.65957">
        <ele>240.39999389648</ele>
        <time>2019-08-11T13:37:45.000Z</time>
      </trkpt>
      <trkpt lat="45.21228" lon="5.65957">
        <ele>240.19999694824</ele>
        <time>2019-08-11T13:37:59.000Z</time>
      </trkpt>
      <trkpt lat="45.21228" lon="5.65957">
        <ele>239.80000305176</ele>
        <time>2019-08-11T13:38:49.000Z</time>
      </trkpt>
      <trkpt lat="45.21228" lon="5.65957">
        <ele>239.80000305176</ele>
        <time>2019-08-11T13:38:50.000Z</time>
      </trkpt>
      <trkpt lat="45.21228" lon="5.65957">
        <ele>240</ele>
        <time>2019-08-11T13:39:33.000Z</time>
      </trkpt>
      <trkpt lat="45.21228" lon="5.65958">
        <ele>240.60000610352</ele>
        <time>2019-08-11T13:40:22.000Z</time>
      </trkpt>
      <trkpt lat="45.21228" lon="5.65958">
        <ele>241.19999694824</ele>
        <time>2019-08-11T13:41:14.000Z</time>
      </trkpt>
      <trkpt lat="45.21228" lon="5.65958">
        <ele>240.80000305176</ele>
        <time>2019-08-11T13:42:00.000Z</time>
      </trkpt>
      <trkpt lat="45.21228" lon="5.65958">
        <ele>241.19999694824</ele>
        <time>2019-08-11T13:43:03.000Z</time>
      </trkpt>
      <trkpt lat="45.21228" lon="5.65958">
        <ele>241</ele>
        <time>2019-08-11T13:43:56.000Z</time>
      </trkpt>
      <trkpt lat="45.21228" lon="5.65958">
        <ele>241.19999694824</ele>
        <time>2019-08-11T13:44:55.000Z</time>
      </trkpt>
      <trkpt lat="45.21228" lon="5.65958">
        <ele>240.60000610352</ele>
        <time>2019-08-11T13:45:01.000Z</time>
      </trkpt>
      <trkpt lat="45.21228" lon="5.65958">
        <ele>241</ele>
        <time>2019-08-11T13:45:20.000Z</time>
      </trkpt>
      <trkpt lat="45.21228" lon="5.65958">
        <ele>241.19999694824</ele>
        <time>2019-08-11T13:45:40.000Z</time>
      </trkpt>
      <trkpt lat="45.21228" lon="5.65958">
        <ele>239.80000305176</ele>
        <time>2019-08-11T13:45:52.000Z</time>
      </trkpt>
      <trkpt lat="45.21228" lon="5.6596">
        <ele>241</ele>
        <time>2019-08-11T13:46:19.000Z</time>
      </trkpt>
      <trkpt lat="45.21228" lon="5.6596">
        <ele>240.19999694824</ele>
        <time>2019-08-11T13:47:08.000Z</time>
      </trkpt>
      <trkpt lat="45.21228" lon="5.65961">
        <ele>240.60000610352</ele>
        <time>2019-08-11T13:47:39.000Z</time>
      </trkpt>
      <trkpt lat="45.21228" lon="5.65961">
        <ele>241.19999694824</ele>
        <time>2019-08-11T13:48:02.000Z</time>
      </trkpt>
      <trkpt lat="45.21228" lon="5.6596">
        <ele>240.60000610352</ele>
        <time>2019-08-11T13:48:21.000Z</time>
      </trkpt>
      <trkpt lat="45.21228" lon="5.6596">
        <ele>240.60000610352</ele>
        <time>2019-08-11T13:48:39.000Z</time>
      </trkpt>
      <trkpt lat="45.21228" lon="5.6596">
        <ele>240.80000305176</ele>
        <time>2019-08-11T13:48:56.000Z</time>
      </trkpt>
      <trkpt lat="45.21228" lon="5.6596">
        <ele>241</ele>
        <time>2019-08-11T13:49:37.000Z</time>
      </trkpt>
      <trkpt lat="45.21228" lon="5.6596">
        <ele>241.60000610352</ele>
        <time>2019-08-11T13:50:15.000Z</time>
      </trkpt>
      <trkpt lat="45.21228" lon="5.6596">
        <ele>241</ele>
        <time>2019-08-11T13:50:51.000Z</time>
      </trkpt>
      <trkpt lat="45.21228" lon="5.6596">
        <ele>240.80000305176</ele>
        <time>2019-08-11T13:51:18.000Z</time>
      </trkpt>
      <trkpt lat="45.21228" lon="5.6596">
        <ele>240.80000305176</ele>
        <time>2019-08-11T13:51:59.000Z</time>
      </trkpt>
      <trkpt lat="45.21228" lon="5.6596">
        <ele>240.39999389648</ele>
        <time>2019-08-11T13:52:25.000Z</time>
      </trkpt>
      <trkpt lat="45.21228" lon="5.6596">
        <ele>240.80000305176</ele>
        <time>2019-08-11T13:52:29.000Z</time>
      </trkpt>
      <trkpt lat="45.21228" lon="5.6596">
        <ele>240.60000610352</ele>
        <time>2019-08-11T13:53:01.000Z</time>
      </trkpt>
      <trkpt lat="45.21228" lon="5.6596">
        <ele>240.80000305176</ele>
        <time>2019-08-11T13:54:01.000Z</time>
      </trkpt>
      <trkpt lat="45.21228" lon="5.6596">
        <ele>240</ele>
        <time>2019-08-11T13:54:16.000Z</time>
      </trkpt>
      <trkpt lat="45.21229" lon="5.6596">
        <ele>240</ele>
        <time>2019-08-11T13:54:44.000Z</time>
      </trkpt>
      <trkpt lat="45.21229" lon="5.6596">
        <ele>241.19999694824</ele>
        <time>2019-08-11T13:55:05.000Z</time>
      </trkpt>
      <trkpt lat="45.21229" lon="5.6596">
        <ele>241</ele>
        <time>2019-08-11T13:55:31.000Z</time>
      </trkpt>
      <trkpt lat="45.21229" lon="5.6596">
        <ele>240.80000305176</ele>
        <time>2019-08-11T13:56:09.000Z</time>
      </trkpt>
      <trkpt lat="45.21229" lon="5.6596">
        <ele>240.60000610352</ele>
        <time>2019-08-11T13:56:37.000Z</time>
      </trkpt>
      <trkpt lat="45.21229" lon="5.6596">
        <ele>240.39999389648</ele>
        <time>2019-08-11T13:56:39.000Z</time>
      </trkpt>
      <trkpt lat="45.21229" lon="5.6596">
        <ele>240.19999694824</ele>
        <time>2019-08-11T13:57:07.000Z</time>
      </trkpt>
      <trkpt lat="45.21229" lon="5.6596">
        <ele>240.60000610352</ele>
        <time>2019-08-11T13:57:43.000Z</time>
      </trkpt>
      <trkpt lat="45.21229" lon="5.6596">
        <ele>239.60000610352</ele>
        <time>2019-08-11T13:58:06.000Z</time>
      </trkpt>
      <trkpt lat="45.21229" lon="5.6596">
        <ele>240.60000610352</ele>
        <time>2019-08-11T13:58:20.000Z</time>
      </trkpt>
      <trkpt lat="45.21229" lon="5.6596">
        <ele>241</ele>
        <time>2019-08-11T13:58:59.000Z</time>
      </trkpt>
      <trkpt lat="45.21229" lon="5.6596">
        <ele>240.80000305176</ele>
        <time>2019-08-11T13:59:28.000Z</time>
      </trkpt>
      <trkpt lat="45.21229" lon="5.6596">
        <ele>241.19999694824</ele>
        <time>2019-08-11T13:59:40.000Z</time>
      </trkpt>
      <trkpt lat="45.21229" lon="5.6596">
        <ele>240.39999389648</ele>
        <time>2019-08-11T14:00:08.000Z</time>
      </trkpt>
      <trkpt lat="45.21229" lon="5.6596">
        <ele>240.39999389648</ele>
        <time>2019-08-11T14:00:44.000Z</time>
      </trkpt>
      <trkpt lat="45.21229" lon="5.6596">
        <ele>240.19999694824</ele>
        <time>2019-08-11T14:01:17.000Z</time>
      </trkpt>
      <trkpt lat="45.21229" lon="5.6596">
        <ele>240</ele>
        <time>2019-08-11T14:01:21.000Z</time>
      </trkpt>
      <trkpt lat="45.21229" lon="5.6596">
        <ele>239.80000305176</ele>
        <time>2019-08-11T14:01:53.000Z</time>
      </trkpt>
      <trkpt lat="45.21229" lon="5.6596">
        <ele>240.60000610352</ele>
        <time>2019-08-11T14:02:17.000Z</time>
      </trkpt>
      <trkpt lat="45.2123" lon="5.6596">
        <ele>240.80000305176</ele>
        <time>2019-08-11T14:02:41.000Z</time>
      </trkpt>
      <trkpt lat="45.2123" lon="5.65959">
        <ele>241.19999694824</ele>
        <time>2019-08-11T14:03:00.000Z</time>
      </trkpt>
      <trkpt lat="45.2123" lon="5.65959">
        <ele>241.39999389648</ele>
        <time>2019-08-11T14:03:04.000Z</time>
      </trkpt>
      <trkpt lat="45.2123" lon="5.65958">
        <ele>241.39999389648</ele>
        <time>2019-08-11T14:03:13.000Z</time>
      </trkpt>
      <trkpt lat="45.21231" lon="5.65958">
        <ele>241</ele>
        <time>2019-08-11T14:03:21.000Z</time>
      </trkpt>
      <trkpt lat="45.21232" lon="5.65958">
        <ele>241.19999694824</ele>
        <time>2019-08-11T14:03:23.000Z</time>
      </trkpt>
      <trkpt lat="45.21232" lon="5.65958">
        <ele>241.19999694824</ele>
        <time>2019-08-11T14:03:27.000Z</time>
      </trkpt>
      <trkpt lat="45.21232" lon="5.65958">
        <ele>241.19999694824</ele>
        <time>2019-08-11T14:03:35.000Z</time>
      </trkpt>
      <trkpt lat="45.21233" lon="5.65957">
        <ele>242.19999694824</ele>
        <time>2019-08-11T14:03:48.000Z</time>
      </trkpt>
      <trkpt lat="45.21233" lon="5.65957">
        <ele>242</ele>
        <time>2019-08-11T14:04:01.000Z</time>
      </trkpt>
      <trkpt lat="45.21235" lon="5.65957">
        <ele>241.39999389648</ele>
        <time>2019-08-11T14:04:12.000Z</time>
      </trkpt>
      <trkpt lat="45.21235" lon="5.65957">
        <ele>241.19999694824</ele>
        <time>2019-08-11T14:04:25.000Z</time>
      </trkpt>
      <trkpt lat="45.21236" lon="5.65958">
        <ele>241</ele>
        <time>2019-08-11T14:04:31.000Z</time>
      </trkpt>
      <trkpt lat="45.21241" lon="5.65957">
        <ele>240.60000610352</ele>
        <time>2019-08-11T14:04:34.000Z</time>
      </trkpt>
      <trkpt lat="45.21254" lon="5.65952">
        <ele>240.39999389648</ele>
        <time>2019-08-11T14:04:38.000Z</time>
      </trkpt>
      <trkpt lat="45.2126" lon="5.65948">
        <ele>240</ele>
        <time>2019-08-11T14:04:40.000Z</time>
      </trkpt>
      <trkpt lat="45.21266" lon="5.65945">
        <ele>239.39999389648</ele>
        <time>2019-08-11T14:04:43.000Z</time>
      </trkpt>
      <trkpt lat="45.21267" lon="5.65946">
        <ele>239.39999389648</ele>
        <time>2019-08-11T14:04:44.000Z</time>
      </trkpt>
      <trkpt lat="45.21269" lon="5.65956">
        <ele>239.39999389648</ele>
        <time>2019-08-11T14:04:47.000Z</time>
      </trkpt>
      <trkpt lat="45.21274" lon="5.65997">
        <ele>239.39999389648</ele>
        <time>2019-08-11T14:04:54.000Z</time>
      </trkpt>
      <trkpt lat="45.21278" lon="5.66046">
        <ele>239.39999389648</ele>
        <time>2019-08-11T14:05:01.000Z</time>
      </trkpt>
      <trkpt lat="45.21279" lon="5.66074">
        <ele>239.39999389648</ele>
        <time>2019-08-11T14:05:05.000Z</time>
      </trkpt>
      <trkpt lat="45.21282" lon="5.66087">
        <ele>239.60000610352</ele>
        <time>2019-08-11T14:05:07.000Z</time>
      </trkpt>
      <trkpt lat="45.21287" lon="5.66097">
        <ele>239.39999389648</ele>
        <time>2019-08-11T14:05:09.000Z</time>
      </trkpt>
      <trkpt lat="45.21293" lon="5.66112">
        <ele>239.80000305176</ele>
        <time>2019-08-11T14:05:12.000Z</time>
      </trkpt>
      <trkpt lat="45.21294" lon="5.66123">
        <ele>240.19999694824</ele>
        <time>2019-08-11T14:05:14.000Z</time>
      </trkpt>
      <trkpt lat="45.21293" lon="5.66134">
        <ele>240.60000610352</ele>
        <time>2019-08-11T14:05:16.000Z</time>
      </trkpt>
      <trkpt lat="45.21293" lon="5.6614">
        <ele>240.39999389648</ele>
        <time>2019-08-11T14:05:17.000Z</time>
      </trkpt>
      <trkpt lat="45.21295" lon="5.6615">
        <ele>240.19999694824</ele>
        <time>2019-08-11T14:05:19.000Z</time>
      </trkpt>
      <trkpt lat="45.21302" lon="5.66164">
        <ele>240</ele>
        <time>2019-08-11T14:05:22.000Z</time>
      </trkpt>
      <trkpt lat="45.21305" lon="5.66168">
        <ele>240</ele>
        <time>2019-08-11T14:05:23.000Z</time>
      </trkpt>
      <trkpt lat="45.2132" lon="5.66171">
        <ele>239.60000610352</ele>
        <time>2019-08-11T14:05:26.000Z</time>
      </trkpt>
      <trkpt lat="45.21325" lon="5.66172">
        <ele>239.60000610352</ele>
        <time>2019-08-11T14:05:27.000Z</time>
      </trkpt>
      <trkpt lat="45.21331" lon="5.66178">
        <ele>239.19999694824</ele>
        <time>2019-08-11T14:05:29.000Z</time>
      </trkpt>
      <trkpt lat="45.21336" lon="5.66193">
        <ele>239</ele>
        <time>2019-08-11T14:05:32.000Z</time>
      </trkpt>
      <trkpt lat="45.21337" lon="5.66198">
        <ele>239</ele>
        <time>2019-08-11T14:05:33.000Z</time>
      </trkpt>
      <trkpt lat="45.2134" lon="5.66216">
        <ele>239.19999694824</ele>
        <time>2019-08-11T14:05:37.000Z</time>
      </trkpt>
      <trkpt lat="45.21336" lon="5.66218">
        <ele>239.39999389648</ele>
        <time>2019-08-11T14:05:38.000Z</time>
      </trkpt>
      <trkpt lat="45.21304" lon="5.66224">
        <ele>239.39999389648</ele>
        <time>2019-08-11T14:05:45.000Z</time>
      </trkpt>
      <trkpt lat="45.21267" lon="5.66232">
        <ele>240.39999389648</ele>
        <time>2019-08-11T14:05:53.000Z</time>
      </trkpt>
      <trkpt lat="45.21252" lon="5.66235">
        <ele>240.80000305176</ele>
        <time>2019-08-11T14:05:56.000Z</time>
      </trkpt>
      <trkpt lat="45.21229" lon="5.66239">
        <ele>241.39999389648</ele>
        <time>2019-08-11T14:06:01.000Z</time>
      </trkpt>
      <trkpt lat="45.21194" lon="5.66246">
        <ele>242</ele>
        <time>2019-08-11T14:06:09.000Z</time>
      </trkpt>
      <trkpt lat="45.2119" lon="5.66247">
        <ele>242</ele>
        <time>2019-08-11T14:06:10.000Z</time>
      </trkpt>
      <trkpt lat="45.21181" lon="5.66258">
        <ele>242.39999389648</ele>
        <time>2019-08-11T14:06:13.000Z</time>
      </trkpt>
      <trkpt lat="45.21185" lon="5.66273">
        <ele>242.80000305176</ele>
        <time>2019-08-11T14:06:16.000Z</time>
      </trkpt>
      <trkpt lat="45.21187" lon="5.66277">
        <ele>243.19999694824</ele>
        <time>2019-08-11T14:06:17.000Z</time>
      </trkpt>
      <trkpt lat="45.2119" lon="5.66287">
        <ele>244</ele>
        <time>2019-08-11T14:06:19.000Z</time>
      </trkpt>
      <trkpt lat="45.21191" lon="5.66292">
        <ele>244.39999389648</ele>
        <time>2019-08-11T14:06:20.000Z</time>
      </trkpt>
      <trkpt lat="45.21196" lon="5.66301">
        <ele>244.80000305176</ele>
        <time>2019-08-11T14:06:22.000Z</time>
      </trkpt>
      <trkpt lat="45.21203" lon="5.6631">
        <ele>245</ele>
        <time>2019-08-11T14:06:24.000Z</time>
      </trkpt>
      <trkpt lat="45.21224" lon="5.66346">
        <ele>244.80000305176</ele>
        <time>2019-08-11T14:06:30.000Z</time>
      </trkpt>
      <trkpt lat="45.21239" lon="5.66373">
        <ele>244.19999694824</ele>
        <time>2019-08-11T14:06:34.000Z</time>
      </trkpt>
      <trkpt lat="45.21245" lon="5.66387">
        <ele>244</ele>
        <time>2019-08-11T14:06:36.000Z</time>
      </trkpt>
      <trkpt lat="45.21257" lon="5.66408">
        <ele>244.19999694824</ele>
        <time>2019-08-11T14:06:39.000Z</time>
      </trkpt>
      <trkpt lat="45.21267" lon="5.6643">
        <ele>244.19999694824</ele>
        <time>2019-08-11T14:06:42.000Z</time>
      </trkpt>
      <trkpt lat="45.21293" lon="5.66489">
        <ele>244.80000305176</ele>
        <time>2019-08-11T14:06:50.000Z</time>
      </trkpt>
      <trkpt lat="45.21308" lon="5.66526">
        <ele>244.39999389648</ele>
        <time>2019-08-11T14:06:55.000Z</time>
      </trkpt>
      <trkpt lat="45.21323" lon="5.66561">
        <ele>244</ele>
        <time>2019-08-11T14:07:00.000Z</time>
      </trkpt>
      <trkpt lat="45.2134" lon="5.66595">
        <ele>243.60000610352</ele>
        <time>2019-08-11T14:07:06.000Z</time>
      </trkpt>
      <trkpt lat="45.21351" lon="5.66623">
        <ele>243.60000610352</ele>
        <time>2019-08-11T14:07:11.000Z</time>
      </trkpt>
      <trkpt lat="45.21353" lon="5.66629">
        <ele>243.60000610352</ele>
        <time>2019-08-11T14:07:12.000Z</time>
      </trkpt>
      <trkpt lat="45.2136" lon="5.66645">
        <ele>243.80000305176</ele>
        <time>2019-08-11T14:07:15.000Z</time>
      </trkpt>
      <trkpt lat="45.21363" lon="5.66654">
        <ele>244</ele>
        <time>2019-08-11T14:07:17.000Z</time>
      </trkpt>
      <trkpt lat="45.21353" lon="5.66664">
        <ele>243.80000305176</ele>
        <time>2019-08-11T14:07:20.000Z</time>
      </trkpt>
      <trkpt lat="45.21349" lon="5.66668">
        <ele>243.80000305176</ele>
        <time>2019-08-11T14:07:21.000Z</time>
      </trkpt>
      <trkpt lat="45.21342" lon="5.6668">
        <ele>243.80000305176</ele>
        <time>2019-08-11T14:07:23.000Z</time>
      </trkpt>
      <trkpt lat="45.21338" lon="5.66704">
        <ele>243.60000610352</ele>
        <time>2019-08-11T14:07:26.000Z</time>
      </trkpt>
      <trkpt lat="45.21337" lon="5.66712">
        <ele>243.39999389648</ele>
        <time>2019-08-11T14:07:27.000Z</time>
      </trkpt>
      <trkpt lat="45.21336" lon="5.66721">
        <ele>243.39999389648</ele>
        <time>2019-08-11T14:07:28.000Z</time>
      </trkpt>
      <trkpt lat="45.2133" lon="5.66757">
        <ele>242.19999694824</ele>
        <time>2019-08-11T14:07:32.000Z</time>
      </trkpt>
      <trkpt lat="45.21327" lon="5.66766">
        <ele>242</ele>
        <time>2019-08-11T14:07:33.000Z</time>
      </trkpt>
      <trkpt lat="45.21325" lon="5.66781">
        <ele>241.80000305176</ele>
        <time>2019-08-11T14:07:35.000Z</time>
      </trkpt>
      <trkpt lat="45.21332" lon="5.66789">
        <ele>242.19999694824</ele>
        <time>2019-08-11T14:07:37.000Z</time>
      </trkpt>
      <trkpt lat="45.21342" lon="5.66805">
        <ele>242.19999694824</ele>
        <time>2019-08-11T14:07:40.000Z</time>
      </trkpt>
      <trkpt lat="45.21348" lon="5.66836">
        <ele>243.19999694824</ele>
        <time>2019-08-11T14:07:44.000Z</time>
      </trkpt>
      <trkpt lat="45.21349" lon="5.66844">
        <ele>243.39999389648</ele>
        <time>2019-08-11T14:07:45.000Z</time>
      </trkpt>
      <trkpt lat="45.2135" lon="5.66851">
        <ele>243.60000610352</ele>
        <time>2019-08-11T14:07:46.000Z</time>
      </trkpt>
      <trkpt lat="45.21355" lon="5.66874">
        <ele>244</ele>
        <time>2019-08-11T14:07:49.000Z</time>
      </trkpt>
      <trkpt lat="45.21363" lon="5.66919">
        <ele>243.19999694824</ele>
        <time>2019-08-11T14:07:55.000Z</time>
      </trkpt>
      <trkpt lat="45.21365" lon="5.66935">
        <ele>243.19999694824</ele>
        <time>2019-08-11T14:07:57.000Z</time>
      </trkpt>
      <trkpt lat="45.21368" lon="5.66959">
        <ele>244</ele>
        <time>2019-08-11T14:08:00.000Z</time>
      </trkpt>
      <trkpt lat="45.21374" lon="5.66994">
        <ele>244.19999694824</ele>
        <time>2019-08-11T14:08:04.000Z</time>
      </trkpt>
      <trkpt lat="45.21375" lon="5.67003">
        <ele>244.19999694824</ele>
        <time>2019-08-11T14:08:05.000Z</time>
      </trkpt>
      <trkpt lat="45.21378" lon="5.67019">
        <ele>244.39999389648</ele>
        <time>2019-08-11T14:08:07.000Z</time>
      </trkpt>
      <trkpt lat="45.2138" lon="5.67027">
        <ele>244.80000305176</ele>
        <time>2019-08-11T14:08:08.000Z</time>
      </trkpt>
      <trkpt lat="45.21382" lon="5.67043">
        <ele>244.39999389648</ele>
        <time>2019-08-11T14:08:10.000Z</time>
      </trkpt>
      <trkpt lat="45.21389" lon="5.67091">
        <ele>244</ele>
        <time>2019-08-11T14:08:16.000Z</time>
      </trkpt>
      <trkpt lat="45.21393" lon="5.67114">
        <ele>243.60000610352</ele>
        <time>2019-08-11T14:08:19.000Z</time>
      </trkpt>
      <trkpt lat="45.21396" lon="5.67137">
        <ele>242.80000305176</ele>
        <time>2019-08-11T14:08:22.000Z</time>
      </trkpt>
      <trkpt lat="45.21397" lon="5.67144">
        <ele>242.80000305176</ele>
        <time>2019-08-11T14:08:23.000Z</time>
      </trkpt>
      <trkpt lat="45.21403" lon="5.6719">
        <ele>242.39999389648</ele>
        <time>2019-08-11T14:08:29.000Z</time>
      </trkpt>
      <trkpt lat="45.21411" lon="5.67229">
        <ele>243</ele>
        <time>2019-08-11T14:08:34.000Z</time>
      </trkpt>
      <trkpt lat="45.21415" lon="5.67234">
        <ele>243</ele>
        <time>2019-08-11T14:08:35.000Z</time>
      </trkpt>
      <trkpt lat="45.21433" lon="5.67237">
        <ele>242.80000305176</ele>
        <time>2019-08-11T14:08:38.000Z</time>
      </trkpt>
      <trkpt lat="45.21468" lon="5.67239">
        <ele>242.60000610352</ele>
        <time>2019-08-11T14:08:44.000Z</time>
      </trkpt>
      <trkpt lat="45.21479" lon="5.67235">
        <ele>242.80000305176</ele>
        <time>2019-08-11T14:08:46.000Z</time>
      </trkpt>
      <trkpt lat="45.21517" lon="5.67217">
        <ele>243.19999694824</ele>
        <time>2019-08-11T14:08:53.000Z</time>
      </trkpt>
      <trkpt lat="45.2155" lon="5.67202">
        <ele>243</ele>
        <time>2019-08-11T14:08:59.000Z</time>
      </trkpt>
      <trkpt lat="45.21567" lon="5.6721">
        <ele>243.60000610352</ele>
        <time>2019-08-11T14:09:02.000Z</time>
      </trkpt>
      <trkpt lat="45.21571" lon="5.67216">
        <ele>243.80000305176</ele>
        <time>2019-08-11T14:09:03.000Z</time>
      </trkpt>
      <trkpt lat="45.21576" lon="5.67222">
        <ele>243.80000305176</ele>
        <time>2019-08-11T14:09:04.000Z</time>
      </trkpt>
      <trkpt lat="45.21583" lon="5.67232">
        <ele>244.19999694824</ele>
        <time>2019-08-11T14:09:06.000Z</time>
      </trkpt>
      <trkpt lat="45.21586" lon="5.67237">
        <ele>244.39999389648</ele>
        <time>2019-08-11T14:09:07.000Z</time>
      </trkpt>
      <trkpt lat="45.21587" lon="5.67242">
        <ele>244.80000305176</ele>
        <time>2019-08-11T14:09:08.000Z</time>
      </trkpt>
      <trkpt lat="45.21588" lon="5.67248">
        <ele>245.19999694824</ele>
        <time>2019-08-11T14:09:09.000Z</time>
      </trkpt>
      <trkpt lat="45.21588" lon="5.67254">
        <ele>246</ele>
        <time>2019-08-11T14:09:10.000Z</time>
      </trkpt>
      <trkpt lat="45.21585" lon="5.67259">
        <ele>246.39999389648</ele>
        <time>2019-08-11T14:09:11.000Z</time>
      </trkpt>
      <trkpt lat="45.21582" lon="5.67263">
        <ele>246.80000305176</ele>
        <time>2019-08-11T14:09:12.000Z</time>
      </trkpt>
      <trkpt lat="45.21579" lon="5.67269">
        <ele>247</ele>
        <time>2019-08-11T14:09:13.000Z</time>
      </trkpt>
      <trkpt lat="45.21567" lon="5.67284">
        <ele>247.80000305176</ele>
        <time>2019-08-11T14:09:16.000Z</time>
      </trkpt>
      <trkpt lat="45.21554" lon="5.67301">
        <ele>248</ele>
        <time>2019-08-11T14:09:19.000Z</time>
      </trkpt>
      <trkpt lat="45.21523" lon="5.67344">
        <ele>248</ele>
        <time>2019-08-11T14:09:26.000Z</time>
      </trkpt>
      <trkpt lat="45.21496" lon="5.67381">
        <ele>248</ele>
        <time>2019-08-11T14:09:32.000Z</time>
      </trkpt>
      <trkpt lat="45.21491" lon="5.67388">
        <ele>248</ele>
        <time>2019-08-11T14:09:33.000Z</time>
      </trkpt>
      <trkpt lat="45.21478" lon="5.67407">
        <ele>248</ele>
        <time>2019-08-11T14:09:36.000Z</time>
      </trkpt>
      <trkpt lat="45.21469" lon="5.6742">
        <ele>247.80000305176</ele>
        <time>2019-08-11T14:09:38.000Z</time>
      </trkpt>
      <trkpt lat="45.21465" lon="5.67426">
        <ele>247.80000305176</ele>
        <time>2019-08-11T14:09:39.000Z</time>
      </trkpt>
      <trkpt lat="45.2146" lon="5.67433">
        <ele>247.80000305176</ele>
        <time>2019-08-11T14:09:40.000Z</time>
      </trkpt>
      <trkpt lat="45.21437" lon="5.67465">
        <ele>247.80000305176</ele>
        <time>2019-08-11T14:09:45.000Z</time>
      </trkpt>
      <trkpt lat="45.21427" lon="5.67478">
        <ele>248</ele>
        <time>2019-08-11T14:09:47.000Z</time>
      </trkpt>
      <trkpt lat="45.21418" lon="5.67491">
        <ele>248.19999694824</ele>
        <time>2019-08-11T14:09:49.000Z</time>
      </trkpt>
      <trkpt lat="45.21402" lon="5.6751">
        <ele>248.80000305176</ele>
        <time>2019-08-11T14:09:52.000Z</time>
      </trkpt>
      <trkpt lat="45.21382" lon="5.67535">
        <ele>249</ele>
        <time>2019-08-11T14:09:56.000Z</time>
      </trkpt>
      <trkpt lat="45.21347" lon="5.6758">
        <ele>249</ele>
        <time>2019-08-11T14:10:03.000Z</time>
      </trkpt>
      <trkpt lat="45.21313" lon="5.67629">
        <ele>249.19999694824</ele>
        <time>2019-08-11T14:10:10.000Z</time>
      </trkpt>
      <trkpt lat="45.21283" lon="5.6767">
        <ele>249.60000610352</ele>
        <time>2019-08-11T14:10:16.000Z</time>
      </trkpt>
      <trkpt lat="45.21254" lon="5.67711">
        <ele>249.39999389648</ele>
        <time>2019-08-11T14:10:22.000Z</time>
      </trkpt>
      <trkpt lat="45.21229" lon="5.67744">
        <ele>249.80000305176</ele>
        <time>2019-08-11T14:10:27.000Z</time>
      </trkpt>
      <trkpt lat="45.21219" lon="5.67755">
        <ele>249.80000305176</ele>
        <time>2019-08-11T14:10:29.000Z</time>
      </trkpt>
      <trkpt lat="45.21199" lon="5.67781">
        <ele>249.80000305176</ele>
        <time>2019-08-11T14:10:33.000Z</time>
      </trkpt>
      <trkpt lat="45.21165" lon="5.67827">
        <ele>250.60000610352</ele>
        <time>2019-08-11T14:10:40.000Z</time>
      </trkpt>
      <trkpt lat="45.21159" lon="5.67834">
        <ele>250.80000305176</ele>
        <time>2019-08-11T14:10:41.000Z</time>
      </trkpt>
      <trkpt lat="45.21139" lon="5.67861">
        <ele>250.80000305176</ele>
        <time>2019-08-11T14:10:45.000Z</time>
      </trkpt>
      <trkpt lat="45.21104" lon="5.67912">
        <ele>251</ele>
        <time>2019-08-11T14:10:52.000Z</time>
      </trkpt>
      <trkpt lat="45.21075" lon="5.67954">
        <ele>251</ele>
        <time>2019-08-11T14:10:58.000Z</time>
      </trkpt>
      <trkpt lat="45.21041" lon="5.68004">
        <ele>250.19999694824</ele>
        <time>2019-08-11T14:11:05.000Z</time>
      </trkpt>
      <trkpt lat="45.21021" lon="5.68032">
        <ele>249.80000305176</ele>
        <time>2019-08-11T14:11:09.000Z</time>
      </trkpt>
      <trkpt lat="45.21006" lon="5.68053">
        <ele>249.80000305176</ele>
        <time>2019-08-11T14:11:12.000Z</time>
      </trkpt>
      <trkpt lat="45.2098" lon="5.68087">
        <ele>250</ele>
        <time>2019-08-11T14:11:17.000Z</time>
      </trkpt>
      <trkpt lat="45.20955" lon="5.68122">
        <ele>249.80000305176</ele>
        <time>2019-08-11T14:11:22.000Z</time>
      </trkpt>
      <trkpt lat="45.20934" lon="5.6815">
        <ele>250</ele>
        <time>2019-08-11T14:11:26.000Z</time>
      </trkpt>
      <trkpt lat="45.20929" lon="5.68157">
        <ele>250</ele>
        <time>2019-08-11T14:11:27.000Z</time>
      </trkpt>
      <trkpt lat="45.20924" lon="5.68163">
        <ele>250.19999694824</ele>
        <time>2019-08-11T14:11:28.000Z</time>
      </trkpt>
      <trkpt lat="45.20908" lon="5.68183">
        <ele>250.19999694824</ele>
        <time>2019-08-11T14:11:31.000Z</time>
      </trkpt>
      <trkpt lat="45.20898" lon="5.68197">
        <ele>250.19999694824</ele>
        <time>2019-08-11T14:11:33.000Z</time>
      </trkpt>
      <trkpt lat="45.20868" lon="5.6824">
        <ele>250.19999694824</ele>
        <time>2019-08-11T14:11:39.000Z</time>
      </trkpt>
      <trkpt lat="45.20832" lon="5.68291">
        <ele>250.19999694824</ele>
        <time>2019-08-11T14:11:46.000Z</time>
      </trkpt>
      <trkpt lat="45.20822" lon="5.68306">
        <ele>250.19999694824</ele>
        <time>2019-08-11T14:11:48.000Z</time>
      </trkpt>
      <trkpt lat="45.20808" lon="5.68331">
        <ele>249.80000305176</ele>
        <time>2019-08-11T14:11:51.000Z</time>
      </trkpt>
      <trkpt lat="45.20798" lon="5.68348">
        <ele>249.39999389648</ele>
        <time>2019-08-11T14:11:53.000Z</time>
      </trkpt>
      <trkpt lat="45.20786" lon="5.68366">
        <ele>248.80000305176</ele>
        <time>2019-08-11T14:11:55.000Z</time>
      </trkpt>
      <trkpt lat="45.20779" lon="5.68376">
        <ele>248.60000610352</ele>
        <time>2019-08-11T14:11:56.000Z</time>
      </trkpt>
      <trkpt lat="45.2076" lon="5.68403">
        <ele>247.80000305176</ele>
        <time>2019-08-11T14:11:59.000Z</time>
      </trkpt>
      <trkpt lat="45.20736" lon="5.68431">
        <ele>248.19999694824</ele>
        <time>2019-08-11T14:12:03.000Z</time>
      </trkpt>
      <trkpt lat="45.2072" lon="5.6845">
        <ele>249.60000610352</ele>
        <time>2019-08-11T14:12:06.000Z</time>
      </trkpt>
      <trkpt lat="45.20705" lon="5.68469">
        <ele>250.19999694824</ele>
        <time>2019-08-11T14:12:09.000Z</time>
      </trkpt>
      <trkpt lat="45.2068" lon="5.68504">
        <ele>250.19999694824</ele>
        <time>2019-08-11T14:12:14.000Z</time>
      </trkpt>
      <trkpt lat="45.20659" lon="5.68532">
        <ele>250.39999389648</ele>
        <time>2019-08-11T14:12:18.000Z</time>
      </trkpt>
      <trkpt lat="45.2063" lon="5.68572">
        <ele>250.60000610352</ele>
        <time>2019-08-11T14:12:24.000Z</time>
      </trkpt>
      <trkpt lat="45.20608" lon="5.68602">
        <ele>250.60000610352</ele>
        <time>2019-08-11T14:12:28.000Z</time>
      </trkpt>
      <trkpt lat="45.20603" lon="5.68609">
        <ele>250.60000610352</ele>
        <time>2019-08-11T14:12:29.000Z</time>
      </trkpt>
      <trkpt lat="45.20566" lon="5.68658">
        <ele>251</ele>
        <time>2019-08-11T14:12:36.000Z</time>
      </trkpt>
      <trkpt lat="45.20524" lon="5.68715">
        <ele>251.19999694824</ele>
        <time>2019-08-11T14:12:44.000Z</time>
      </trkpt>
      <trkpt lat="45.20481" lon="5.68774">
        <ele>251.39999389648</ele>
        <time>2019-08-11T14:12:52.000Z</time>
      </trkpt>
      <trkpt lat="45.2046" lon="5.68804">
        <ele>251.60000610352</ele>
        <time>2019-08-11T14:12:56.000Z</time>
      </trkpt>
      <trkpt lat="45.20439" lon="5.68834">
        <ele>252</ele>
        <time>2019-08-11T14:13:00.000Z</time>
      </trkpt>
      <trkpt lat="45.20396" lon="5.68893">
        <ele>252</ele>
        <time>2019-08-11T14:13:08.000Z</time>
      </trkpt>
      <trkpt lat="45.20381" lon="5.68916">
        <ele>252</ele>
        <time>2019-08-11T14:13:11.000Z</time>
      </trkpt>
      <trkpt lat="45.20342" lon="5.68968">
        <ele>252</ele>
        <time>2019-08-11T14:13:18.000Z</time>
      </trkpt>
      <trkpt lat="45.20303" lon="5.69022">
        <ele>252</ele>
        <time>2019-08-11T14:13:25.000Z</time>
      </trkpt>
      <trkpt lat="45.20291" lon="5.69037">
        <ele>252</ele>
        <time>2019-08-11T14:13:27.000Z</time>
      </trkpt>
      <trkpt lat="45.20252" lon="5.69093">
        <ele>251.80000305176</ele>
        <time>2019-08-11T14:13:34.000Z</time>
      </trkpt>
      <trkpt lat="45.2023" lon="5.69124">
        <ele>252.39999389648</ele>
        <time>2019-08-11T14:13:38.000Z</time>
      </trkpt>
      <trkpt lat="45.2019" lon="5.69177">
        <ele>252.60000610352</ele>
        <time>2019-08-11T14:13:45.000Z</time>
      </trkpt>
      <trkpt lat="45.20179" lon="5.69192">
        <ele>252.60000610352</ele>
        <time>2019-08-11T14:13:47.000Z</time>
      </trkpt>
      <trkpt lat="45.20136" lon="5.69252">
        <ele>252.80000305176</ele>
        <time>2019-08-11T14:13:55.000Z</time>
      </trkpt>
      <trkpt lat="45.20131" lon="5.69259">
        <ele>252.80000305176</ele>
        <time>2019-08-11T14:13:56.000Z</time>
      </trkpt>
      <trkpt lat="45.20125" lon="5.69267">
        <ele>253</ele>
        <time>2019-08-11T14:13:57.000Z</time>
      </trkpt>
      <trkpt lat="45.20081" lon="5.69327">
        <ele>253</ele>
        <time>2019-08-11T14:14:05.000Z</time>
      </trkpt>
      <trkpt lat="45.20064" lon="5.6935">
        <ele>252.80000305176</ele>
        <time>2019-08-11T14:14:08.000Z</time>
      </trkpt>
      <trkpt lat="45.20024" lon="5.69407">
        <ele>253.19999694824</ele>
        <time>2019-08-11T14:14:15.000Z</time>
      </trkpt>
      <trkpt lat="45.20007" lon="5.69429">
        <ele>253.19999694824</ele>
        <time>2019-08-11T14:14:18.000Z</time>
      </trkpt>
      <trkpt lat="45.19967" lon="5.69482">
        <ele>253.60000610352</ele>
        <time>2019-08-11T14:14:25.000Z</time>
      </trkpt>
      <trkpt lat="45.1995" lon="5.69505">
        <ele>253.60000610352</ele>
        <time>2019-08-11T14:14:28.000Z</time>
      </trkpt>
      <trkpt lat="45.19917" lon="5.69551">
        <ele>254</ele>
        <time>2019-08-11T14:14:34.000Z</time>
      </trkpt>
      <trkpt lat="45.19912" lon="5.69559">
        <ele>254.19999694824</ele>
        <time>2019-08-11T14:14:35.000Z</time>
      </trkpt>
      <trkpt lat="45.19869" lon="5.69619">
        <ele>254.39999389648</ele>
        <time>2019-08-11T14:14:43.000Z</time>
      </trkpt>
      <trkpt lat="45.19858" lon="5.69634">
        <ele>254.60000610352</ele>
        <time>2019-08-11T14:14:45.000Z</time>
      </trkpt>
      <trkpt lat="45.19826" lon="5.69679">
        <ele>254.39999389648</ele>
        <time>2019-08-11T14:14:51.000Z</time>
      </trkpt>
      <trkpt lat="45.19784" lon="5.69737">
        <ele>254.60000610352</ele>
        <time>2019-08-11T14:14:59.000Z</time>
      </trkpt>
      <trkpt lat="45.19768" lon="5.69759">
        <ele>254.60000610352</ele>
        <time>2019-08-11T14:15:02.000Z</time>
      </trkpt>
      <trkpt lat="45.19742" lon="5.69795">
        <ele>255.19999694824</ele>
        <time>2019-08-11T14:15:07.000Z</time>
      </trkpt>
      <trkpt lat="45.19715" lon="5.69831">
        <ele>255.60000610352</ele>
        <time>2019-08-11T14:15:12.000Z</time>
      </trkpt>
      <trkpt lat="45.19669" lon="5.69884">
        <ele>255.60000610352</ele>
        <time>2019-08-11T14:15:20.000Z</time>
      </trkpt>
      <trkpt lat="45.19625" lon="5.6993">
        <ele>255.39999389648</ele>
        <time>2019-08-11T14:15:27.000Z</time>
      </trkpt>
      <trkpt lat="45.19618" lon="5.69936">
        <ele>255.39999389648</ele>
        <time>2019-08-11T14:15:28.000Z</time>
      </trkpt>
      <trkpt lat="45.19567" lon="5.69972">
        <ele>255</ele>
        <time>2019-08-11T14:15:35.000Z</time>
      </trkpt>
      <trkpt lat="45.19513" lon="5.7">
        <ele>255.39999389648</ele>
        <time>2019-08-11T14:15:42.000Z</time>
      </trkpt>
      <trkpt lat="45.19506" lon="5.70004">
        <ele>255.39999389648</ele>
        <time>2019-08-11T14:15:43.000Z</time>
      </trkpt>
      <trkpt lat="45.19452" lon="5.70022">
        <ele>255.39999389648</ele>
        <time>2019-08-11T14:15:50.000Z</time>
      </trkpt>
      <trkpt lat="45.19436" lon="5.70026">
        <ele>255.60000610352</ele>
        <time>2019-08-11T14:15:52.000Z</time>
      </trkpt>
      <trkpt lat="45.19399" lon="5.70036">
        <ele>255.60000610352</ele>
        <time>2019-08-11T14:15:57.000Z</time>
      </trkpt>
      <trkpt lat="45.19384" lon="5.70042">
        <ele>255.39999389648</ele>
        <time>2019-08-11T14:15:59.000Z</time>
      </trkpt>
      <trkpt lat="45.19369" lon="5.70047">
        <ele>255.60000610352</ele>
        <time>2019-08-11T14:16:01.000Z</time>
      </trkpt>
      <trkpt lat="45.19345" lon="5.70053">
        <ele>255.39999389648</ele>
        <time>2019-08-11T14:16:04.000Z</time>
      </trkpt>
      <trkpt lat="45.19297" lon="5.70068">
        <ele>255</ele>
        <time>2019-08-11T14:16:10.000Z</time>
      </trkpt>
      <trkpt lat="45.19272" lon="5.70076">
        <ele>254</ele>
        <time>2019-08-11T14:16:13.000Z</time>
      </trkpt>
      <trkpt lat="45.19248" lon="5.70082">
        <ele>253.19999694824</ele>
        <time>2019-08-11T14:16:16.000Z</time>
      </trkpt>
      <trkpt lat="45.19233" lon="5.70081">
        <ele>253.19999694824</ele>
        <time>2019-08-11T14:16:18.000Z</time>
      </trkpt>
      <trkpt lat="45.1921" lon="5.70081">
        <ele>253.19999694824</ele>
        <time>2019-08-11T14:16:21.000Z</time>
      </trkpt>
      <trkpt lat="45.19203" lon="5.70079">
        <ele>253.39999389648</ele>
        <time>2019-08-11T14:16:22.000Z</time>
      </trkpt>
      <trkpt lat="45.19187" lon="5.70078">
        <ele>253.39999389648</ele>
        <time>2019-08-11T14:16:24.000Z</time>
      </trkpt>
      <trkpt lat="45.19149" lon="5.70077">
        <ele>253.39999389648</ele>
        <time>2019-08-11T14:16:29.000Z</time>
      </trkpt>
      <trkpt lat="45.19114" lon="5.70075">
        <ele>253.39999389648</ele>
        <time>2019-08-11T14:16:34.000Z</time>
      </trkpt>
      <trkpt lat="45.19084" lon="5.70074">
        <ele>253.60000610352</ele>
        <time>2019-08-11T14:16:38.000Z</time>
      </trkpt>
      <trkpt lat="45.19036" lon="5.70073">
        <ele>253.39999389648</ele>
        <time>2019-08-11T14:16:44.000Z</time>
      </trkpt>
      <trkpt lat="45.1902" lon="5.70072">
        <ele>253.60000610352</ele>
        <time>2019-08-11T14:16:46.000Z</time>
      </trkpt>
      <trkpt lat="45.19006" lon="5.70067">
        <ele>254</ele>
        <time>2019-08-11T14:16:48.000Z</time>
      </trkpt>
      <trkpt lat="45.18996" lon="5.7006">
        <ele>255.19999694824</ele>
        <time>2019-08-11T14:16:50.000Z</time>
      </trkpt>
      <trkpt lat="45.18986" lon="5.70055">
        <ele>256</ele>
        <time>2019-08-11T14:16:52.000Z</time>
      </trkpt>
      <trkpt lat="45.18981" lon="5.70054">
        <ele>256.20001220703</ele>
        <time>2019-08-11T14:16:53.000Z</time>
      </trkpt>
      <trkpt lat="45.18972" lon="5.7006">
        <ele>256.39999389648</ele>
        <time>2019-08-11T14:16:55.000Z</time>
      </trkpt>
      <trkpt lat="45.18971" lon="5.7008">
        <ele>256.79998779297</ele>
        <time>2019-08-11T14:16:58.000Z</time>
      </trkpt>
      <trkpt lat="45.18971" lon="5.70087">
        <ele>256.79998779297</ele>
        <time>2019-08-11T14:16:59.000Z</time>
      </trkpt>
      <trkpt lat="45.1897" lon="5.70102">
        <ele>257.20001220703</ele>
        <time>2019-08-11T14:17:01.000Z</time>
      </trkpt>
      <trkpt lat="45.18969" lon="5.70124">
        <ele>258</ele>
        <time>2019-08-11T14:17:04.000Z</time>
      </trkpt>
      <trkpt lat="45.18969" lon="5.70138">
        <ele>258.39999389648</ele>
        <time>2019-08-11T14:17:06.000Z</time>
      </trkpt>
      <trkpt lat="45.18969" lon="5.7016">
        <ele>259.79998779297</ele>
        <time>2019-08-11T14:17:09.000Z</time>
      </trkpt>
      <trkpt lat="45.18968" lon="5.70191">
        <ele>260.39999389648</ele>
        <time>2019-08-11T14:17:13.000Z</time>
      </trkpt>
      <trkpt lat="45.18967" lon="5.70263">
        <ele>259.79998779297</ele>
        <time>2019-08-11T14:17:22.000Z</time>
      </trkpt>
      <trkpt lat="45.18966" lon="5.70327">
        <ele>259</ele>
        <time>2019-08-11T14:17:29.000Z</time>
      </trkpt>
      <trkpt lat="45.18968" lon="5.70337">
        <ele>258.79998779297</ele>
        <time>2019-08-11T14:17:30.000Z</time>
      </trkpt>
      <trkpt lat="45.18974" lon="5.70356">
        <ele>258.20001220703</ele>
        <time>2019-08-11T14:17:32.000Z</time>
      </trkpt>
      <trkpt lat="45.18979" lon="5.70364">
        <ele>257.60000610352</ele>
        <time>2019-08-11T14:17:33.000Z</time>
      </trkpt>
      <trkpt lat="45.18997" lon="5.70386">
        <ele>256.79998779297</ele>
        <time>2019-08-11T14:17:36.000Z</time>
      </trkpt>
      <trkpt lat="45.19004" lon="5.70394">
        <ele>256.20001220703</ele>
        <time>2019-08-11T14:17:37.000Z</time>
      </trkpt>
      <trkpt lat="45.19024" lon="5.70418">
        <ele>254.60000610352</ele>
        <time>2019-08-11T14:17:40.000Z</time>
      </trkpt>
      <trkpt lat="45.19037" lon="5.70434">
        <ele>253.60000610352</ele>
        <time>2019-08-11T14:17:42.000Z</time>
      </trkpt>
      <trkpt lat="45.19043" lon="5.70442">
        <ele>253.39999389648</ele>
        <time>2019-08-11T14:17:43.000Z</time>
      </trkpt>
      <trkpt lat="45.19049" lon="5.70449">
        <ele>253</ele>
        <time>2019-08-11T14:17:44.000Z</time>
      </trkpt>
      <trkpt lat="45.1906" lon="5.70468">
        <ele>252.80000305176</ele>
        <time>2019-08-11T14:17:47.000Z</time>
      </trkpt>
      <trkpt lat="45.19063" lon="5.70473">
        <ele>252.60000610352</ele>
        <time>2019-08-11T14:17:49.000Z</time>
      </trkpt>
      <trkpt lat="45.19063" lon="5.70474">
        <ele>252.80000305176</ele>
        <time>2019-08-11T14:17:50.000Z</time>
      </trkpt>
      <trkpt lat="45.19064" lon="5.70476">
        <ele>252.80000305176</ele>
        <time>2019-08-11T14:17:56.000Z</time>
      </trkpt>
      <trkpt lat="45.19065" lon="5.70481">
        <ele>252.60000610352</ele>
        <time>2019-08-11T14:17:59.000Z</time>
      </trkpt>
      <trkpt lat="45.19067" lon="5.70484">
        <ele>252.60000610352</ele>
        <time>2019-08-11T14:18:00.000Z</time>
      </trkpt>
      <trkpt lat="45.19073" lon="5.70491">
        <ele>252.80000305176</ele>
        <time>2019-08-11T14:18:02.000Z</time>
      </trkpt>
      <trkpt lat="45.1908" lon="5.70502">
        <ele>253</ele>
        <time>2019-08-11T14:18:04.000Z</time>
      </trkpt>
      <trkpt lat="45.19102" lon="5.70544">
        <ele>253</ele>
        <time>2019-08-11T14:18:10.000Z</time>
      </trkpt>
      <trkpt lat="45.1913" lon="5.70601">
        <ele>252.80000305176</ele>
        <time>2019-08-11T14:18:17.000Z</time>
      </trkpt>
      <trkpt lat="45.19166" lon="5.70664">
        <ele>252.80000305176</ele>
        <time>2019-08-11T14:18:25.000Z</time>
      </trkpt>
      <trkpt lat="45.19192" lon="5.70711">
        <ele>252.19999694824</ele>
        <time>2019-08-11T14:18:31.000Z</time>
      </trkpt>
      <trkpt lat="45.19207" lon="5.70737">
        <ele>252</ele>
        <time>2019-08-11T14:18:35.000Z</time>
      </trkpt>
      <trkpt lat="45.19228" lon="5.70773">
        <ele>251.60000610352</ele>
        <time>2019-08-11T14:18:40.000Z</time>
      </trkpt>
      <trkpt lat="45.19242" lon="5.70791">
        <ele>251.19999694824</ele>
        <time>2019-08-11T14:18:43.000Z</time>
      </trkpt>
      <trkpt lat="45.19251" lon="5.70803">
        <ele>251</ele>
        <time>2019-08-11T14:18:45.000Z</time>
      </trkpt>
      <trkpt lat="45.19258" lon="5.70817">
        <ele>250.80000305176</ele>
        <time>2019-08-11T14:18:47.000Z</time>
      </trkpt>
      <trkpt lat="45.19265" lon="5.70831">
        <ele>250.60000610352</ele>
        <time>2019-08-11T14:18:49.000Z</time>
      </trkpt>
      <trkpt lat="45.19274" lon="5.70843">
        <ele>250.39999389648</ele>
        <time>2019-08-11T14:18:51.000Z</time>
      </trkpt>
      <trkpt lat="45.19282" lon="5.70854">
        <ele>250.19999694824</ele>
        <time>2019-08-11T14:18:53.000Z</time>
      </trkpt>
      <trkpt lat="45.19286" lon="5.70859">
        <ele>250.19999694824</ele>
        <time>2019-08-11T14:18:54.000Z</time>
      </trkpt>
      <trkpt lat="45.19302" lon="5.70882">
        <ele>250</ele>
        <time>2019-08-11T14:18:58.000Z</time>
      </trkpt>
      <trkpt lat="45.19309" lon="5.70891">
        <ele>250</ele>
        <time>2019-08-11T14:19:00.000Z</time>
      </trkpt>
      <trkpt lat="45.19317" lon="5.70901">
        <ele>250.19999694824</ele>
        <time>2019-08-11T14:19:02.000Z</time>
      </trkpt>
      <trkpt lat="45.19332" lon="5.70923">
        <ele>250</ele>
        <time>2019-08-11T14:19:06.000Z</time>
      </trkpt>
      <trkpt lat="45.19363" lon="5.70962">
        <ele>250.19999694824</ele>
        <time>2019-08-11T14:19:13.000Z</time>
      </trkpt>
      <trkpt lat="45.19384" lon="5.7099">
        <ele>250.19999694824</ele>
        <time>2019-08-11T14:19:18.000Z</time>
      </trkpt>
      <trkpt lat="45.19398" lon="5.71007">
        <ele>250</ele>
        <time>2019-08-11T14:19:21.000Z</time>
      </trkpt>
      <trkpt lat="45.19402" lon="5.71011">
        <ele>250</ele>
        <time>2019-08-11T14:19:22.000Z</time>
      </trkpt>
      <trkpt lat="45.1942" lon="5.71033">
        <ele>249.80000305176</ele>
        <time>2019-08-11T14:19:26.000Z</time>
      </trkpt>
      <trkpt lat="45.19426" lon="5.71038">
        <ele>249.80000305176</ele>
        <time>2019-08-11T14:19:27.000Z</time>
      </trkpt>
      <trkpt lat="45.19441" lon="5.71054">
        <ele>249.39999389648</ele>
        <time>2019-08-11T14:19:30.000Z</time>
      </trkpt>
      <trkpt lat="45.19446" lon="5.71059">
        <ele>249.39999389648</ele>
        <time>2019-08-11T14:19:31.000Z</time>
      </trkpt>
      <trkpt lat="45.19451" lon="5.71064">
        <ele>249.19999694824</ele>
        <time>2019-08-11T14:19:32.000Z</time>
      </trkpt>
      <trkpt lat="45.19454" lon="5.71071">
        <ele>249.19999694824</ele>
        <time>2019-08-11T14:19:33.000Z</time>
      </trkpt>
      <trkpt lat="45.19456" lon="5.71079">
        <ele>249.39999389648</ele>
        <time>2019-08-11T14:19:34.000Z</time>
      </trkpt>
      <trkpt lat="45.19454" lon="5.71105">
        <ele>249.80000305176</ele>
        <time>2019-08-11T14:19:37.000Z</time>
      </trkpt>
      <trkpt lat="45.19452" lon="5.71114">
        <ele>250</ele>
        <time>2019-08-11T14:19:38.000Z</time>
      </trkpt>
      <trkpt lat="45.19443" lon="5.71127">
        <ele>250</ele>
        <time>2019-08-11T14:19:40.000Z</time>
      </trkpt>
      <trkpt lat="45.19426" lon="5.71137">
        <ele>249.80000305176</ele>
        <time>2019-08-11T14:19:43.000Z</time>
      </trkpt>
      <trkpt lat="45.19419" lon="5.71141">
        <ele>249.80000305176</ele>
        <time>2019-08-11T14:19:44.000Z</time>
      </trkpt>
      <trkpt lat="45.19396" lon="5.71152">
        <ele>250</ele>
        <time>2019-08-11T14:19:48.000Z</time>
      </trkpt>
      <trkpt lat="45.1937" lon="5.71165">
        <ele>249.39999389648</ele>
        <time>2019-08-11T14:19:53.000Z</time>
      </trkpt>
      <trkpt lat="45.19364" lon="5.71168">
        <ele>249.19999694824</ele>
        <time>2019-08-11T14:19:56.000Z</time>
      </trkpt>
    </trkseg>
  </trk>
</gpx>